<?xml version="1.0" encoding="UTF-8" standalone="no" ?>
<gpx xmlns="http://www.topografix.com/GPX/1/1" xmlns:xsi="http://www.w3.org/2001/XMLSchema-instance" xsi:schemaLocation="http://www.topografix.com/GPX/1/1 http://www.topografix.com/GPX/1/1/gpx.xsd" version="1.1" creator="VisuGPX - https://www.visugpx.com">
  <metadata>
    <name>2016-11-08 Bike ride-Chatillon-Limas</name>
    <desc><![CDATA[2016-11-08 Bike ride-Chatillon-Limas]]></desc>
  </metadata>
  <wpt lat="45.92391" lon="4.73896">
    <ele>172</ele>
    <name><![CDATA[2016-11-08 10:48 (Start)]]></name>
  </wpt>
  <wpt lat="45.92391" lon="4.73704">
    <ele>173</ele>
    <name><![CDATA[2016-11-08 10:48 (End)]]></name>
    <desc><![CDATA[Created by Google My Tracks on Android  Name: 2016-11-08 10:48 Activity type: biking Description: - Total distance: 38.82 km (24.1 mi) Total time: 2:00:52 Moving time: 2:00:03 Average speed: 19.27 km/h (12.0 mi/h) Average moving speed: 19.40 km/h (12.1 mi/h) Max speed: 38.96 km/h (24.2 mi/h) Average pace: 3:07 min/km (5:01 min/mi) Average moving pace: 3:06 min/km (4:59 min/mi) Fastest pace: 1:32 min/km (2:29 min/mi) Max elevation: 415 m (1362 ft) Min elevation: 132 m (432 ft) Elevation gain: 940 m (3084 ft) Max grade: 122 % Min grade: -37 % Recorded: 08/11/2016 10:48]]></desc>
  </wpt>
  <trk>
    <name><![CDATA[2016-11-08 10:48]]></name>
    <trkseg>
      <trkpt lat="45.92391" lon="4.73896">
        <ele>172</ele>
        <time>2016-11-08T09:48:30.797Z</time>
      </trkpt>
      <trkpt lat="45.92394" lon="4.73888">
        <ele>172</ele>
        <time>2016-11-08T09:48:47Z</time>
      </trkpt>
      <trkpt lat="45.92392" lon="4.73898">
        <ele>172</ele>
        <time>2016-11-08T09:48:48Z</time>
      </trkpt>
      <trkpt lat="45.92391" lon="4.73903">
        <ele>172</ele>
        <time>2016-11-08T09:48:49Z</time>
      </trkpt>
      <trkpt lat="45.92391" lon="4.73913">
        <ele>172</ele>
        <time>2016-11-08T09:48:51Z</time>
      </trkpt>
      <trkpt lat="45.92391" lon="4.73908">
        <ele>172</ele>
        <time>2016-11-08T09:48:52Z</time>
      </trkpt>
      <trkpt lat="45.92391" lon="4.73904">
        <ele>172</ele>
        <time>2016-11-08T09:48:55Z</time>
      </trkpt>
      <trkpt lat="45.92392" lon="4.73902">
        <ele>172</ele>
        <time>2016-11-08T09:48:56Z</time>
      </trkpt>
      <trkpt lat="45.924" lon="4.73902">
        <ele>173</ele>
        <time>2016-11-08T09:49:16Z</time>
      </trkpt>
      <trkpt lat="45.92401" lon="4.73902">
        <ele>173</ele>
        <time>2016-11-08T09:49:17Z</time>
      </trkpt>
      <trkpt lat="45.92403" lon="4.73895">
        <ele>172</ele>
        <time>2016-11-08T09:49:20Z</time>
      </trkpt>
      <trkpt lat="45.92402" lon="4.73888">
        <ele>172</ele>
        <time>2016-11-08T09:49:21Z</time>
      </trkpt>
      <trkpt lat="45.92401" lon="4.73884">
        <ele>172</ele>
        <time>2016-11-08T09:49:28Z</time>
      </trkpt>
      <trkpt lat="45.92406" lon="4.73869">
        <ele>172</ele>
        <time>2016-11-08T09:49:29Z</time>
      </trkpt>
      <trkpt lat="45.92408" lon="4.73864">
        <ele>172</ele>
        <time>2016-11-08T09:49:31Z</time>
      </trkpt>
      <trkpt lat="45.92427" lon="4.73837">
        <ele>172</ele>
        <time>2016-11-08T09:49:32Z</time>
      </trkpt>
      <trkpt lat="45.92427" lon="4.73837">
        <ele>172</ele>
        <time>2016-11-08T09:49:33Z</time>
      </trkpt>
      <trkpt lat="45.92439" lon="4.73826">
        <ele>172</ele>
        <time>2016-11-08T09:49:34Z</time>
      </trkpt>
      <trkpt lat="45.92443" lon="4.73821">
        <ele>172</ele>
        <time>2016-11-08T09:49:35Z</time>
      </trkpt>
      <trkpt lat="45.92446" lon="4.73814">
        <ele>172</ele>
        <time>2016-11-08T09:49:36Z</time>
      </trkpt>
      <trkpt lat="45.9245" lon="4.73806">
        <ele>172</ele>
        <time>2016-11-08T09:49:38Z</time>
      </trkpt>
      <trkpt lat="45.92451" lon="4.73802">
        <ele>172</ele>
        <time>2016-11-08T09:49:39Z</time>
      </trkpt>
      <trkpt lat="45.92454" lon="4.73793">
        <ele>172</ele>
        <time>2016-11-08T09:49:41Z</time>
      </trkpt>
      <trkpt lat="45.92455" lon="4.73787">
        <ele>172</ele>
        <time>2016-11-08T09:49:42Z</time>
      </trkpt>
      <trkpt lat="45.92456" lon="4.73776">
        <ele>173</ele>
        <time>2016-11-08T09:49:44Z</time>
      </trkpt>
      <trkpt lat="45.92456" lon="4.7377">
        <ele>173</ele>
        <time>2016-11-08T09:49:45Z</time>
      </trkpt>
      <trkpt lat="45.92457" lon="4.73757">
        <ele>173</ele>
        <time>2016-11-08T09:49:47Z</time>
      </trkpt>
      <trkpt lat="45.92458" lon="4.73751">
        <ele>173</ele>
        <time>2016-11-08T09:49:48Z</time>
      </trkpt>
      <trkpt lat="45.92458" lon="4.73744">
        <ele>174</ele>
        <time>2016-11-08T09:49:49Z</time>
      </trkpt>
      <trkpt lat="45.9246" lon="4.73737">
        <ele>174</ele>
        <time>2016-11-08T09:49:50Z</time>
      </trkpt>
      <trkpt lat="45.92461" lon="4.73725">
        <ele>174</ele>
        <time>2016-11-08T09:49:52Z</time>
      </trkpt>
      <trkpt lat="45.92462" lon="4.73718">
        <ele>174</ele>
        <time>2016-11-08T09:49:53Z</time>
      </trkpt>
      <trkpt lat="45.92462" lon="4.73706">
        <ele>174</ele>
        <time>2016-11-08T09:49:55Z</time>
      </trkpt>
      <trkpt lat="45.9249" lon="4.73706">
        <ele>174</ele>
        <time>2016-11-08T09:49:56Z</time>
      </trkpt>
      <trkpt lat="45.92497" lon="4.73698">
        <ele>174</ele>
        <time>2016-11-08T09:49:58Z</time>
      </trkpt>
      <trkpt lat="45.9251" lon="4.73687">
        <ele>174</ele>
        <time>2016-11-08T09:49:59Z</time>
      </trkpt>
      <trkpt lat="45.92513" lon="4.73677">
        <ele>174</ele>
        <time>2016-11-08T09:50:00Z</time>
      </trkpt>
      <trkpt lat="45.92515" lon="4.73667">
        <ele>174</ele>
        <time>2016-11-08T09:50:01Z</time>
      </trkpt>
      <trkpt lat="45.92514" lon="4.73658">
        <ele>174</ele>
        <time>2016-11-08T09:50:02Z</time>
      </trkpt>
      <trkpt lat="45.92514" lon="4.73649">
        <ele>174</ele>
        <time>2016-11-08T09:50:03Z</time>
      </trkpt>
      <trkpt lat="45.92514" lon="4.7364">
        <ele>174</ele>
        <time>2016-11-08T09:50:04Z</time>
      </trkpt>
      <trkpt lat="45.92513" lon="4.73633">
        <ele>173</ele>
        <time>2016-11-08T09:50:05Z</time>
      </trkpt>
      <trkpt lat="45.92513" lon="4.73626">
        <ele>173</ele>
        <time>2016-11-08T09:50:06Z</time>
      </trkpt>
      <trkpt lat="45.92508" lon="4.73619">
        <ele>173</ele>
        <time>2016-11-08T09:50:07Z</time>
      </trkpt>
      <trkpt lat="45.92504" lon="4.73614">
        <ele>173</ele>
        <time>2016-11-08T09:50:08Z</time>
      </trkpt>
      <trkpt lat="45.925" lon="4.73612">
        <ele>173</ele>
        <time>2016-11-08T09:50:09Z</time>
      </trkpt>
      <trkpt lat="45.92492" lon="4.73612">
        <ele>174</ele>
        <time>2016-11-08T09:50:11Z</time>
      </trkpt>
      <trkpt lat="45.92488" lon="4.73613">
        <ele>174</ele>
        <time>2016-11-08T09:50:12Z</time>
      </trkpt>
      <trkpt lat="45.92484" lon="4.73615">
        <ele>174</ele>
        <time>2016-11-08T09:50:13Z</time>
      </trkpt>
      <trkpt lat="45.92479" lon="4.73618">
        <ele>174</ele>
        <time>2016-11-08T09:50:14Z</time>
      </trkpt>
      <trkpt lat="45.92475" lon="4.73621">
        <ele>174</ele>
        <time>2016-11-08T09:50:15Z</time>
      </trkpt>
      <trkpt lat="45.9247" lon="4.73623">
        <ele>174</ele>
        <time>2016-11-08T09:50:16Z</time>
      </trkpt>
      <trkpt lat="45.92466" lon="4.73626">
        <ele>174</ele>
        <time>2016-11-08T09:50:17Z</time>
      </trkpt>
      <trkpt lat="45.92461" lon="4.73628">
        <ele>174</ele>
        <time>2016-11-08T09:50:18Z</time>
      </trkpt>
      <trkpt lat="45.92457" lon="4.7363">
        <ele>174</ele>
        <time>2016-11-08T09:50:19Z</time>
      </trkpt>
      <trkpt lat="45.92444" lon="4.73638">
        <ele>174</ele>
        <time>2016-11-08T09:50:22Z</time>
      </trkpt>
      <trkpt lat="45.92426" lon="4.73644">
        <ele>174</ele>
        <time>2016-11-08T09:50:26Z</time>
      </trkpt>
      <trkpt lat="45.92422" lon="4.73646">
        <ele>174</ele>
        <time>2016-11-08T09:50:27Z</time>
      </trkpt>
      <trkpt lat="45.92417" lon="4.73648">
        <ele>174</ele>
        <time>2016-11-08T09:50:28Z</time>
      </trkpt>
      <trkpt lat="45.92413" lon="4.73648">
        <ele>174</ele>
        <time>2016-11-08T09:50:29Z</time>
      </trkpt>
      <trkpt lat="45.92408" lon="4.7365">
        <ele>173</ele>
        <time>2016-11-08T09:50:30Z</time>
      </trkpt>
      <trkpt lat="45.92403" lon="4.73651">
        <ele>173</ele>
        <time>2016-11-08T09:50:31Z</time>
      </trkpt>
      <trkpt lat="45.92398" lon="4.73653">
        <ele>173</ele>
        <time>2016-11-08T09:50:32Z</time>
      </trkpt>
      <trkpt lat="45.9239" lon="4.73655">
        <ele>173</ele>
        <time>2016-11-08T09:50:35Z</time>
      </trkpt>
      <trkpt lat="45.92386" lon="4.73657">
        <ele>173</ele>
        <time>2016-11-08T09:50:36Z</time>
      </trkpt>
      <trkpt lat="45.92379" lon="4.73661">
        <ele>173</ele>
        <time>2016-11-08T09:50:38Z</time>
      </trkpt>
      <trkpt lat="45.92375" lon="4.73663">
        <ele>173</ele>
        <time>2016-11-08T09:50:39Z</time>
      </trkpt>
      <trkpt lat="45.9237" lon="4.73665">
        <ele>173</ele>
        <time>2016-11-08T09:50:40Z</time>
      </trkpt>
      <trkpt lat="45.92365" lon="4.73667">
        <ele>173</ele>
        <time>2016-11-08T09:50:41Z</time>
      </trkpt>
      <trkpt lat="45.9236" lon="4.73668">
        <ele>173</ele>
        <time>2016-11-08T09:50:42Z</time>
      </trkpt>
      <trkpt lat="45.92355" lon="4.7367">
        <ele>173</ele>
        <time>2016-11-08T09:50:43Z</time>
      </trkpt>
      <trkpt lat="45.9235" lon="4.73672">
        <ele>173</ele>
        <time>2016-11-08T09:50:44Z</time>
      </trkpt>
      <trkpt lat="45.92345" lon="4.73675">
        <ele>172</ele>
        <time>2016-11-08T09:50:45Z</time>
      </trkpt>
      <trkpt lat="45.9234" lon="4.73678">
        <ele>172</ele>
        <time>2016-11-08T09:50:46Z</time>
      </trkpt>
      <trkpt lat="45.92335" lon="4.7368">
        <ele>172</ele>
        <time>2016-11-08T09:50:47Z</time>
      </trkpt>
      <trkpt lat="45.9233" lon="4.73685">
        <ele>172</ele>
        <time>2016-11-08T09:50:48Z</time>
      </trkpt>
      <trkpt lat="45.92325" lon="4.7369">
        <ele>172</ele>
        <time>2016-11-08T09:50:49Z</time>
      </trkpt>
      <trkpt lat="45.92319" lon="4.73692">
        <ele>172</ele>
        <time>2016-11-08T09:50:50Z</time>
      </trkpt>
      <trkpt lat="45.92314" lon="4.73695">
        <ele>172</ele>
        <time>2016-11-08T09:50:51Z</time>
      </trkpt>
      <trkpt lat="45.92309" lon="4.73698">
        <ele>172</ele>
        <time>2016-11-08T09:50:52Z</time>
      </trkpt>
      <trkpt lat="45.92303" lon="4.73701">
        <ele>172</ele>
        <time>2016-11-08T09:50:53Z</time>
      </trkpt>
      <trkpt lat="45.92299" lon="4.73703">
        <ele>172</ele>
        <time>2016-11-08T09:50:54Z</time>
      </trkpt>
      <trkpt lat="45.92293" lon="4.73706">
        <ele>172</ele>
        <time>2016-11-08T09:50:55Z</time>
      </trkpt>
      <trkpt lat="45.92288" lon="4.73709">
        <ele>172</ele>
        <time>2016-11-08T09:50:56Z</time>
      </trkpt>
      <trkpt lat="45.92282" lon="4.73712">
        <ele>172</ele>
        <time>2016-11-08T09:50:57Z</time>
      </trkpt>
      <trkpt lat="45.92277" lon="4.73715">
        <ele>172</ele>
        <time>2016-11-08T09:50:58Z</time>
      </trkpt>
      <trkpt lat="45.92271" lon="4.73717">
        <ele>172</ele>
        <time>2016-11-08T09:50:59Z</time>
      </trkpt>
      <trkpt lat="45.92265" lon="4.73719">
        <ele>172</ele>
        <time>2016-11-08T09:51:00Z</time>
      </trkpt>
      <trkpt lat="45.9226" lon="4.73722">
        <ele>172</ele>
        <time>2016-11-08T09:51:01Z</time>
      </trkpt>
      <trkpt lat="45.92254" lon="4.73725">
        <ele>172</ele>
        <time>2016-11-08T09:51:02Z</time>
      </trkpt>
      <trkpt lat="45.92249" lon="4.73728">
        <ele>172</ele>
        <time>2016-11-08T09:51:03Z</time>
      </trkpt>
      <trkpt lat="45.92243" lon="4.73731">
        <ele>172</ele>
        <time>2016-11-08T09:51:04Z</time>
      </trkpt>
      <trkpt lat="45.92237" lon="4.73733">
        <ele>172</ele>
        <time>2016-11-08T09:51:05Z</time>
      </trkpt>
      <trkpt lat="45.92232" lon="4.73736">
        <ele>172</ele>
        <time>2016-11-08T09:51:06Z</time>
      </trkpt>
      <trkpt lat="45.92225" lon="4.73738">
        <ele>172</ele>
        <time>2016-11-08T09:51:07Z</time>
      </trkpt>
      <trkpt lat="45.9222" lon="4.7374">
        <ele>172</ele>
        <time>2016-11-08T09:51:08Z</time>
      </trkpt>
      <trkpt lat="45.92214" lon="4.73742">
        <ele>172</ele>
        <time>2016-11-08T09:51:09Z</time>
      </trkpt>
      <trkpt lat="45.92208" lon="4.73745">
        <ele>172</ele>
        <time>2016-11-08T09:51:10Z</time>
      </trkpt>
      <trkpt lat="45.92202" lon="4.73747">
        <ele>172</ele>
        <time>2016-11-08T09:51:11Z</time>
      </trkpt>
      <trkpt lat="45.92197" lon="4.73749">
        <ele>172</ele>
        <time>2016-11-08T09:51:12Z</time>
      </trkpt>
      <trkpt lat="45.92191" lon="4.73751">
        <ele>172</ele>
        <time>2016-11-08T09:51:13Z</time>
      </trkpt>
      <trkpt lat="45.92185" lon="4.73753">
        <ele>172</ele>
        <time>2016-11-08T09:51:14Z</time>
      </trkpt>
      <trkpt lat="45.92179" lon="4.73754">
        <ele>172</ele>
        <time>2016-11-08T09:51:15Z</time>
      </trkpt>
      <trkpt lat="45.92173" lon="4.73755">
        <ele>172</ele>
        <time>2016-11-08T09:51:16Z</time>
      </trkpt>
      <trkpt lat="45.92167" lon="4.73757">
        <ele>172</ele>
        <time>2016-11-08T09:51:17Z</time>
      </trkpt>
      <trkpt lat="45.92161" lon="4.73757">
        <ele>172</ele>
        <time>2016-11-08T09:51:18Z</time>
      </trkpt>
      <trkpt lat="45.92155" lon="4.73757">
        <ele>172</ele>
        <time>2016-11-08T09:51:19Z</time>
      </trkpt>
      <trkpt lat="45.9215" lon="4.73755">
        <ele>172</ele>
        <time>2016-11-08T09:51:20Z</time>
      </trkpt>
      <trkpt lat="45.92144" lon="4.73756">
        <ele>172</ele>
        <time>2016-11-08T09:51:21Z</time>
      </trkpt>
      <trkpt lat="45.92138" lon="4.73756">
        <ele>172</ele>
        <time>2016-11-08T09:51:22Z</time>
      </trkpt>
      <trkpt lat="45.92132" lon="4.73756">
        <ele>172</ele>
        <time>2016-11-08T09:51:23Z</time>
      </trkpt>
      <trkpt lat="45.92126" lon="4.73756">
        <ele>172</ele>
        <time>2016-11-08T09:51:24Z</time>
      </trkpt>
      <trkpt lat="45.9212" lon="4.73756">
        <ele>171</ele>
        <time>2016-11-08T09:51:25Z</time>
      </trkpt>
      <trkpt lat="45.92114" lon="4.73756">
        <ele>171</ele>
        <time>2016-11-08T09:51:26Z</time>
      </trkpt>
      <trkpt lat="45.92108" lon="4.73756">
        <ele>171</ele>
        <time>2016-11-08T09:51:27Z</time>
      </trkpt>
      <trkpt lat="45.92102" lon="4.73756">
        <ele>171</ele>
        <time>2016-11-08T09:51:28Z</time>
      </trkpt>
      <trkpt lat="45.92096" lon="4.73756">
        <ele>171</ele>
        <time>2016-11-08T09:51:29Z</time>
      </trkpt>
      <trkpt lat="45.92089" lon="4.73755">
        <ele>171</ele>
        <time>2016-11-08T09:51:30Z</time>
      </trkpt>
      <trkpt lat="45.92083" lon="4.73754">
        <ele>171</ele>
        <time>2016-11-08T09:51:31Z</time>
      </trkpt>
      <trkpt lat="45.92075" lon="4.73753">
        <ele>171</ele>
        <time>2016-11-08T09:51:32Z</time>
      </trkpt>
      <trkpt lat="45.92067" lon="4.73751">
        <ele>171</ele>
        <time>2016-11-08T09:51:33Z</time>
      </trkpt>
      <trkpt lat="45.9206" lon="4.73751">
        <ele>171</ele>
        <time>2016-11-08T09:51:34Z</time>
      </trkpt>
      <trkpt lat="45.92053" lon="4.7375">
        <ele>171</ele>
        <time>2016-11-08T09:51:35Z</time>
      </trkpt>
      <trkpt lat="45.92046" lon="4.73749">
        <ele>171</ele>
        <time>2016-11-08T09:51:36Z</time>
      </trkpt>
      <trkpt lat="45.92039" lon="4.73748">
        <ele>171</ele>
        <time>2016-11-08T09:51:37Z</time>
      </trkpt>
      <trkpt lat="45.92032" lon="4.73747">
        <ele>171</ele>
        <time>2016-11-08T09:51:38Z</time>
      </trkpt>
      <trkpt lat="45.92026" lon="4.73747">
        <ele>171</ele>
        <time>2016-11-08T09:51:39Z</time>
      </trkpt>
      <trkpt lat="45.92019" lon="4.73747">
        <ele>171</ele>
        <time>2016-11-08T09:51:40Z</time>
      </trkpt>
      <trkpt lat="45.92014" lon="4.73747">
        <ele>171</ele>
        <time>2016-11-08T09:51:41Z</time>
      </trkpt>
      <trkpt lat="45.92008" lon="4.73747">
        <ele>171</ele>
        <time>2016-11-08T09:51:42Z</time>
      </trkpt>
      <trkpt lat="45.92002" lon="4.73747">
        <ele>171</ele>
        <time>2016-11-08T09:51:43Z</time>
      </trkpt>
      <trkpt lat="45.91995" lon="4.73746">
        <ele>171</ele>
        <time>2016-11-08T09:51:44Z</time>
      </trkpt>
      <trkpt lat="45.91988" lon="4.73746">
        <ele>171</ele>
        <time>2016-11-08T09:51:45Z</time>
      </trkpt>
      <trkpt lat="45.91981" lon="4.73746">
        <ele>171</ele>
        <time>2016-11-08T09:51:46Z</time>
      </trkpt>
      <trkpt lat="45.91975" lon="4.73745">
        <ele>171</ele>
        <time>2016-11-08T09:51:47Z</time>
      </trkpt>
      <trkpt lat="45.91968" lon="4.73746">
        <ele>171</ele>
        <time>2016-11-08T09:51:48Z</time>
      </trkpt>
      <trkpt lat="45.91961" lon="4.73745">
        <ele>171</ele>
        <time>2016-11-08T09:51:49Z</time>
      </trkpt>
      <trkpt lat="45.91955" lon="4.73745">
        <ele>170</ele>
        <time>2016-11-08T09:51:50Z</time>
      </trkpt>
      <trkpt lat="45.91946" lon="4.73745">
        <ele>170</ele>
        <time>2016-11-08T09:51:51Z</time>
      </trkpt>
      <trkpt lat="45.91938" lon="4.73744">
        <ele>170</ele>
        <time>2016-11-08T09:51:52Z</time>
      </trkpt>
      <trkpt lat="45.91931" lon="4.73743">
        <ele>170</ele>
        <time>2016-11-08T09:51:53Z</time>
      </trkpt>
      <trkpt lat="45.91924" lon="4.73743">
        <ele>170</ele>
        <time>2016-11-08T09:51:54Z</time>
      </trkpt>
      <trkpt lat="45.91917" lon="4.73743">
        <ele>170</ele>
        <time>2016-11-08T09:51:55Z</time>
      </trkpt>
      <trkpt lat="45.9191" lon="4.73742">
        <ele>170</ele>
        <time>2016-11-08T09:51:56Z</time>
      </trkpt>
      <trkpt lat="45.91904" lon="4.73742">
        <ele>171</ele>
        <time>2016-11-08T09:51:57Z</time>
      </trkpt>
      <trkpt lat="45.91897" lon="4.73741">
        <ele>171</ele>
        <time>2016-11-08T09:51:58Z</time>
      </trkpt>
      <trkpt lat="45.91891" lon="4.73741">
        <ele>171</ele>
        <time>2016-11-08T09:51:59Z</time>
      </trkpt>
      <trkpt lat="45.91884" lon="4.73741">
        <ele>171</ele>
        <time>2016-11-08T09:52:00Z</time>
      </trkpt>
      <trkpt lat="45.91878" lon="4.7374">
        <ele>171</ele>
        <time>2016-11-08T09:52:01Z</time>
      </trkpt>
      <trkpt lat="45.91871" lon="4.7374">
        <ele>171</ele>
        <time>2016-11-08T09:52:02Z</time>
      </trkpt>
      <trkpt lat="45.91864" lon="4.7374">
        <ele>171</ele>
        <time>2016-11-08T09:52:03Z</time>
      </trkpt>
      <trkpt lat="45.91858" lon="4.7374">
        <ele>171</ele>
        <time>2016-11-08T09:52:04Z</time>
      </trkpt>
      <trkpt lat="45.91852" lon="4.7374">
        <ele>172</ele>
        <time>2016-11-08T09:52:05Z</time>
      </trkpt>
      <trkpt lat="45.91846" lon="4.7374">
        <ele>172</ele>
        <time>2016-11-08T09:52:06Z</time>
      </trkpt>
      <trkpt lat="45.9184" lon="4.7374">
        <ele>172</ele>
        <time>2016-11-08T09:52:07Z</time>
      </trkpt>
      <trkpt lat="45.91834" lon="4.7374">
        <ele>172</ele>
        <time>2016-11-08T09:52:08Z</time>
      </trkpt>
      <trkpt lat="45.91829" lon="4.7374">
        <ele>172</ele>
        <time>2016-11-08T09:52:09Z</time>
      </trkpt>
      <trkpt lat="45.91823" lon="4.7374">
        <ele>172</ele>
        <time>2016-11-08T09:52:10Z</time>
      </trkpt>
      <trkpt lat="45.91817" lon="4.7374">
        <ele>172</ele>
        <time>2016-11-08T09:52:11Z</time>
      </trkpt>
      <trkpt lat="45.91812" lon="4.7374">
        <ele>172</ele>
        <time>2016-11-08T09:52:12Z</time>
      </trkpt>
      <trkpt lat="45.91806" lon="4.73741">
        <ele>172</ele>
        <time>2016-11-08T09:52:13Z</time>
      </trkpt>
      <trkpt lat="45.918" lon="4.73742">
        <ele>172</ele>
        <time>2016-11-08T09:52:14Z</time>
      </trkpt>
      <trkpt lat="45.91794" lon="4.73742">
        <ele>172</ele>
        <time>2016-11-08T09:52:15Z</time>
      </trkpt>
      <trkpt lat="45.91789" lon="4.73743">
        <ele>173</ele>
        <time>2016-11-08T09:52:16Z</time>
      </trkpt>
      <trkpt lat="45.91783" lon="4.73743">
        <ele>173</ele>
        <time>2016-11-08T09:52:17Z</time>
      </trkpt>
      <trkpt lat="45.91777" lon="4.73743">
        <ele>173</ele>
        <time>2016-11-08T09:52:18Z</time>
      </trkpt>
      <trkpt lat="45.91771" lon="4.73743">
        <ele>173</ele>
        <time>2016-11-08T09:52:19Z</time>
      </trkpt>
      <trkpt lat="45.91765" lon="4.73743">
        <ele>173</ele>
        <time>2016-11-08T09:52:20Z</time>
      </trkpt>
      <trkpt lat="45.91759" lon="4.73744">
        <ele>173</ele>
        <time>2016-11-08T09:52:21Z</time>
      </trkpt>
      <trkpt lat="45.91752" lon="4.73743">
        <ele>173</ele>
        <time>2016-11-08T09:52:22Z</time>
      </trkpt>
      <trkpt lat="45.91745" lon="4.73744">
        <ele>173</ele>
        <time>2016-11-08T09:52:23Z</time>
      </trkpt>
      <trkpt lat="45.91734" lon="4.73747">
        <ele>173</ele>
        <time>2016-11-08T09:52:24Z</time>
      </trkpt>
      <trkpt lat="45.91728" lon="4.73747">
        <ele>173</ele>
        <time>2016-11-08T09:52:25Z</time>
      </trkpt>
      <trkpt lat="45.91721" lon="4.73748">
        <ele>173</ele>
        <time>2016-11-08T09:52:26Z</time>
      </trkpt>
      <trkpt lat="45.91713" lon="4.73747">
        <ele>173</ele>
        <time>2016-11-08T09:52:27Z</time>
      </trkpt>
      <trkpt lat="45.91706" lon="4.73745">
        <ele>172</ele>
        <time>2016-11-08T09:52:28Z</time>
      </trkpt>
      <trkpt lat="45.91701" lon="4.73744">
        <ele>172</ele>
        <time>2016-11-08T09:52:29Z</time>
      </trkpt>
      <trkpt lat="45.91694" lon="4.73744">
        <ele>172</ele>
        <time>2016-11-08T09:52:30Z</time>
      </trkpt>
      <trkpt lat="45.91684" lon="4.73741">
        <ele>172</ele>
        <time>2016-11-08T09:52:31Z</time>
      </trkpt>
      <trkpt lat="45.91675" lon="4.73739">
        <ele>172</ele>
        <time>2016-11-08T09:52:32Z</time>
      </trkpt>
      <trkpt lat="45.91666" lon="4.73738">
        <ele>172</ele>
        <time>2016-11-08T09:52:33Z</time>
      </trkpt>
      <trkpt lat="45.91657" lon="4.73736">
        <ele>172</ele>
        <time>2016-11-08T09:52:34Z</time>
      </trkpt>
      <trkpt lat="45.91649" lon="4.73735">
        <ele>172</ele>
        <time>2016-11-08T09:52:35Z</time>
      </trkpt>
      <trkpt lat="45.91642" lon="4.73734">
        <ele>172</ele>
        <time>2016-11-08T09:52:36Z</time>
      </trkpt>
      <trkpt lat="45.91635" lon="4.73734">
        <ele>172</ele>
        <time>2016-11-08T09:52:37Z</time>
      </trkpt>
      <trkpt lat="45.91628" lon="4.73734">
        <ele>172</ele>
        <time>2016-11-08T09:52:38Z</time>
      </trkpt>
      <trkpt lat="45.91622" lon="4.73734">
        <ele>173</ele>
        <time>2016-11-08T09:52:39Z</time>
      </trkpt>
      <trkpt lat="45.91616" lon="4.73734">
        <ele>173</ele>
        <time>2016-11-08T09:52:40Z</time>
      </trkpt>
      <trkpt lat="45.9161" lon="4.73734">
        <ele>173</ele>
        <time>2016-11-08T09:52:41Z</time>
      </trkpt>
      <trkpt lat="45.91603" lon="4.73734">
        <ele>173</ele>
        <time>2016-11-08T09:52:42Z</time>
      </trkpt>
      <trkpt lat="45.91597" lon="4.73733">
        <ele>173</ele>
        <time>2016-11-08T09:52:43Z</time>
      </trkpt>
      <trkpt lat="45.91591" lon="4.73733">
        <ele>173</ele>
        <time>2016-11-08T09:52:44Z</time>
      </trkpt>
      <trkpt lat="45.91585" lon="4.73733">
        <ele>173</ele>
        <time>2016-11-08T09:52:45Z</time>
      </trkpt>
      <trkpt lat="45.91579" lon="4.73733">
        <ele>173</ele>
        <time>2016-11-08T09:52:46Z</time>
      </trkpt>
      <trkpt lat="45.91573" lon="4.73733">
        <ele>173</ele>
        <time>2016-11-08T09:52:47Z</time>
      </trkpt>
      <trkpt lat="45.91567" lon="4.73733">
        <ele>173</ele>
        <time>2016-11-08T09:52:48Z</time>
      </trkpt>
      <trkpt lat="45.91561" lon="4.73733">
        <ele>173</ele>
        <time>2016-11-08T09:52:49Z</time>
      </trkpt>
      <trkpt lat="45.91555" lon="4.73733">
        <ele>174</ele>
        <time>2016-11-08T09:52:50Z</time>
      </trkpt>
      <trkpt lat="45.91549" lon="4.73733">
        <ele>174</ele>
        <time>2016-11-08T09:52:51Z</time>
      </trkpt>
      <trkpt lat="45.91543" lon="4.73733">
        <ele>174</ele>
        <time>2016-11-08T09:52:52Z</time>
      </trkpt>
      <trkpt lat="45.91537" lon="4.73733">
        <ele>174</ele>
        <time>2016-11-08T09:52:53Z</time>
      </trkpt>
      <trkpt lat="45.91532" lon="4.73733">
        <ele>174</ele>
        <time>2016-11-08T09:52:54Z</time>
      </trkpt>
      <trkpt lat="45.91526" lon="4.73734">
        <ele>174</ele>
        <time>2016-11-08T09:52:55Z</time>
      </trkpt>
      <trkpt lat="45.9152" lon="4.73734">
        <ele>174</ele>
        <time>2016-11-08T09:52:56Z</time>
      </trkpt>
      <trkpt lat="45.91514" lon="4.73734">
        <ele>174</ele>
        <time>2016-11-08T09:52:57Z</time>
      </trkpt>
      <trkpt lat="45.91508" lon="4.73734">
        <ele>174</ele>
        <time>2016-11-08T09:52:58Z</time>
      </trkpt>
      <trkpt lat="45.91502" lon="4.73735">
        <ele>174</ele>
        <time>2016-11-08T09:52:59Z</time>
      </trkpt>
      <trkpt lat="45.91497" lon="4.73735">
        <ele>174</ele>
        <time>2016-11-08T09:53:00Z</time>
      </trkpt>
      <trkpt lat="45.91491" lon="4.73735">
        <ele>174</ele>
        <time>2016-11-08T09:53:01Z</time>
      </trkpt>
      <trkpt lat="45.91486" lon="4.73735">
        <ele>174</ele>
        <time>2016-11-08T09:53:02Z</time>
      </trkpt>
      <trkpt lat="45.91481" lon="4.73735">
        <ele>174</ele>
        <time>2016-11-08T09:53:03Z</time>
      </trkpt>
      <trkpt lat="45.91475" lon="4.73735">
        <ele>174</ele>
        <time>2016-11-08T09:53:04Z</time>
      </trkpt>
      <trkpt lat="45.91469" lon="4.73735">
        <ele>174</ele>
        <time>2016-11-08T09:53:05Z</time>
      </trkpt>
      <trkpt lat="45.91464" lon="4.73735">
        <ele>174</ele>
        <time>2016-11-08T09:53:06Z</time>
      </trkpt>
      <trkpt lat="45.91458" lon="4.73735">
        <ele>174</ele>
        <time>2016-11-08T09:53:07Z</time>
      </trkpt>
      <trkpt lat="45.91452" lon="4.73735">
        <ele>173</ele>
        <time>2016-11-08T09:53:08Z</time>
      </trkpt>
      <trkpt lat="45.91446" lon="4.73735">
        <ele>173</ele>
        <time>2016-11-08T09:53:09Z</time>
      </trkpt>
      <trkpt lat="45.9144" lon="4.73736">
        <ele>173</ele>
        <time>2016-11-08T09:53:10Z</time>
      </trkpt>
      <trkpt lat="45.91434" lon="4.73736">
        <ele>173</ele>
        <time>2016-11-08T09:53:11Z</time>
      </trkpt>
      <trkpt lat="45.91428" lon="4.73736">
        <ele>173</ele>
        <time>2016-11-08T09:53:12Z</time>
      </trkpt>
      <trkpt lat="45.91423" lon="4.73736">
        <ele>173</ele>
        <time>2016-11-08T09:53:13Z</time>
      </trkpt>
      <trkpt lat="45.91417" lon="4.73736">
        <ele>173</ele>
        <time>2016-11-08T09:53:14Z</time>
      </trkpt>
      <trkpt lat="45.91411" lon="4.73736">
        <ele>173</ele>
        <time>2016-11-08T09:53:15Z</time>
      </trkpt>
      <trkpt lat="45.91405" lon="4.73736">
        <ele>173</ele>
        <time>2016-11-08T09:53:16Z</time>
      </trkpt>
      <trkpt lat="45.91399" lon="4.73736">
        <ele>173</ele>
        <time>2016-11-08T09:53:17Z</time>
      </trkpt>
      <trkpt lat="45.91393" lon="4.73736">
        <ele>173</ele>
        <time>2016-11-08T09:53:18Z</time>
      </trkpt>
      <trkpt lat="45.91387" lon="4.73736">
        <ele>173</ele>
        <time>2016-11-08T09:53:19Z</time>
      </trkpt>
      <trkpt lat="45.91382" lon="4.73736">
        <ele>173</ele>
        <time>2016-11-08T09:53:20Z</time>
      </trkpt>
      <trkpt lat="45.91376" lon="4.73736">
        <ele>173</ele>
        <time>2016-11-08T09:53:21Z</time>
      </trkpt>
      <trkpt lat="45.9137" lon="4.73736">
        <ele>173</ele>
        <time>2016-11-08T09:53:22Z</time>
      </trkpt>
      <trkpt lat="45.91365" lon="4.73736">
        <ele>173</ele>
        <time>2016-11-08T09:53:23Z</time>
      </trkpt>
      <trkpt lat="45.91359" lon="4.73735">
        <ele>173</ele>
        <time>2016-11-08T09:53:24Z</time>
      </trkpt>
      <trkpt lat="45.91353" lon="4.73735">
        <ele>173</ele>
        <time>2016-11-08T09:53:25Z</time>
      </trkpt>
      <trkpt lat="45.91348" lon="4.73735">
        <ele>173</ele>
        <time>2016-11-08T09:53:26Z</time>
      </trkpt>
      <trkpt lat="45.91342" lon="4.73736">
        <ele>173</ele>
        <time>2016-11-08T09:53:27Z</time>
      </trkpt>
      <trkpt lat="45.91336" lon="4.73736">
        <ele>173</ele>
        <time>2016-11-08T09:53:28Z</time>
      </trkpt>
      <trkpt lat="45.9133" lon="4.73736">
        <ele>173</ele>
        <time>2016-11-08T09:53:29Z</time>
      </trkpt>
      <trkpt lat="45.91325" lon="4.73736">
        <ele>174</ele>
        <time>2016-11-08T09:53:30Z</time>
      </trkpt>
      <trkpt lat="45.91319" lon="4.73736">
        <ele>174</ele>
        <time>2016-11-08T09:53:31Z</time>
      </trkpt>
      <trkpt lat="45.91313" lon="4.73736">
        <ele>174</ele>
        <time>2016-11-08T09:53:32Z</time>
      </trkpt>
      <trkpt lat="45.91307" lon="4.73737">
        <ele>174</ele>
        <time>2016-11-08T09:53:33Z</time>
      </trkpt>
      <trkpt lat="45.91301" lon="4.73737">
        <ele>174</ele>
        <time>2016-11-08T09:53:34Z</time>
      </trkpt>
      <trkpt lat="45.91295" lon="4.73738">
        <ele>174</ele>
        <time>2016-11-08T09:53:35Z</time>
      </trkpt>
      <trkpt lat="45.91289" lon="4.73738">
        <ele>174</ele>
        <time>2016-11-08T09:53:36Z</time>
      </trkpt>
      <trkpt lat="45.91283" lon="4.73738">
        <ele>174</ele>
        <time>2016-11-08T09:53:37Z</time>
      </trkpt>
      <trkpt lat="45.91277" lon="4.73738">
        <ele>174</ele>
        <time>2016-11-08T09:53:38Z</time>
      </trkpt>
      <trkpt lat="45.91272" lon="4.73738">
        <ele>174</ele>
        <time>2016-11-08T09:53:39Z</time>
      </trkpt>
      <trkpt lat="45.91266" lon="4.73738">
        <ele>174</ele>
        <time>2016-11-08T09:53:40Z</time>
      </trkpt>
      <trkpt lat="45.9126" lon="4.73738">
        <ele>175</ele>
        <time>2016-11-08T09:53:41Z</time>
      </trkpt>
      <trkpt lat="45.91254" lon="4.73738">
        <ele>175</ele>
        <time>2016-11-08T09:53:42Z</time>
      </trkpt>
      <trkpt lat="45.91248" lon="4.73737">
        <ele>175</ele>
        <time>2016-11-08T09:53:43Z</time>
      </trkpt>
      <trkpt lat="45.91242" lon="4.73737">
        <ele>175</ele>
        <time>2016-11-08T09:53:44Z</time>
      </trkpt>
      <trkpt lat="45.91236" lon="4.73737">
        <ele>175</ele>
        <time>2016-11-08T09:53:45Z</time>
      </trkpt>
      <trkpt lat="45.91231" lon="4.73737">
        <ele>175</ele>
        <time>2016-11-08T09:53:46Z</time>
      </trkpt>
      <trkpt lat="45.91225" lon="4.73737">
        <ele>175</ele>
        <time>2016-11-08T09:53:47Z</time>
      </trkpt>
      <trkpt lat="45.91219" lon="4.73738">
        <ele>175</ele>
        <time>2016-11-08T09:53:48Z</time>
      </trkpt>
      <trkpt lat="45.91214" lon="4.73738">
        <ele>175</ele>
        <time>2016-11-08T09:53:49Z</time>
      </trkpt>
      <trkpt lat="45.91208" lon="4.73739">
        <ele>175</ele>
        <time>2016-11-08T09:53:50Z</time>
      </trkpt>
      <trkpt lat="45.91204" lon="4.73739">
        <ele>175</ele>
        <time>2016-11-08T09:53:51Z</time>
      </trkpt>
      <trkpt lat="45.91199" lon="4.73739">
        <ele>175</ele>
        <time>2016-11-08T09:53:52Z</time>
      </trkpt>
      <trkpt lat="45.91194" lon="4.73738">
        <ele>175</ele>
        <time>2016-11-08T09:53:53Z</time>
      </trkpt>
      <trkpt lat="45.91188" lon="4.73736">
        <ele>175</ele>
        <time>2016-11-08T09:53:54Z</time>
      </trkpt>
      <trkpt lat="45.91183" lon="4.73734">
        <ele>175</ele>
        <time>2016-11-08T09:53:55Z</time>
      </trkpt>
      <trkpt lat="45.91178" lon="4.73732">
        <ele>175</ele>
        <time>2016-11-08T09:53:56Z</time>
      </trkpt>
      <trkpt lat="45.91172" lon="4.7373">
        <ele>175</ele>
        <time>2016-11-08T09:53:57Z</time>
      </trkpt>
      <trkpt lat="45.91167" lon="4.73729">
        <ele>175</ele>
        <time>2016-11-08T09:53:58Z</time>
      </trkpt>
      <trkpt lat="45.91162" lon="4.73728">
        <ele>175</ele>
        <time>2016-11-08T09:53:59Z</time>
      </trkpt>
      <trkpt lat="45.91158" lon="4.73727">
        <ele>175</ele>
        <time>2016-11-08T09:54:00Z</time>
      </trkpt>
      <trkpt lat="45.91153" lon="4.73724">
        <ele>175</ele>
        <time>2016-11-08T09:54:01Z</time>
      </trkpt>
      <trkpt lat="45.9115" lon="4.7372">
        <ele>174</ele>
        <time>2016-11-08T09:54:02Z</time>
      </trkpt>
      <trkpt lat="45.91146" lon="4.73715">
        <ele>174</ele>
        <time>2016-11-08T09:54:03Z</time>
      </trkpt>
      <trkpt lat="45.91144" lon="4.73709">
        <ele>174</ele>
        <time>2016-11-08T09:54:04Z</time>
      </trkpt>
      <trkpt lat="45.91142" lon="4.73703">
        <ele>174</ele>
        <time>2016-11-08T09:54:05Z</time>
      </trkpt>
      <trkpt lat="45.9114" lon="4.73697">
        <ele>174</ele>
        <time>2016-11-08T09:54:06Z</time>
      </trkpt>
      <trkpt lat="45.91137" lon="4.7369">
        <ele>174</ele>
        <time>2016-11-08T09:54:07Z</time>
      </trkpt>
      <trkpt lat="45.91134" lon="4.73684">
        <ele>174</ele>
        <time>2016-11-08T09:54:08Z</time>
      </trkpt>
      <trkpt lat="45.91131" lon="4.73678">
        <ele>174</ele>
        <time>2016-11-08T09:54:09Z</time>
      </trkpt>
      <trkpt lat="45.91129" lon="4.73671">
        <ele>174</ele>
        <time>2016-11-08T09:54:10Z</time>
      </trkpt>
      <trkpt lat="45.91126" lon="4.73665">
        <ele>174</ele>
        <time>2016-11-08T09:54:11Z</time>
      </trkpt>
      <trkpt lat="45.91123" lon="4.73659">
        <ele>174</ele>
        <time>2016-11-08T09:54:12Z</time>
      </trkpt>
      <trkpt lat="45.9112" lon="4.73653">
        <ele>174</ele>
        <time>2016-11-08T09:54:13Z</time>
      </trkpt>
      <trkpt lat="45.91117" lon="4.73647">
        <ele>174</ele>
        <time>2016-11-08T09:54:14Z</time>
      </trkpt>
      <trkpt lat="45.91115" lon="4.73641">
        <ele>174</ele>
        <time>2016-11-08T09:54:15Z</time>
      </trkpt>
      <trkpt lat="45.91112" lon="4.73634">
        <ele>174</ele>
        <time>2016-11-08T09:54:16Z</time>
      </trkpt>
      <trkpt lat="45.91109" lon="4.73628">
        <ele>174</ele>
        <time>2016-11-08T09:54:17Z</time>
      </trkpt>
      <trkpt lat="45.91106" lon="4.73622">
        <ele>174</ele>
        <time>2016-11-08T09:54:18Z</time>
      </trkpt>
      <trkpt lat="45.91103" lon="4.73616">
        <ele>174</ele>
        <time>2016-11-08T09:54:19Z</time>
      </trkpt>
      <trkpt lat="45.911" lon="4.7361">
        <ele>174</ele>
        <time>2016-11-08T09:54:20Z</time>
      </trkpt>
      <trkpt lat="45.91098" lon="4.73604">
        <ele>174</ele>
        <time>2016-11-08T09:54:21Z</time>
      </trkpt>
      <trkpt lat="45.91095" lon="4.73598">
        <ele>174</ele>
        <time>2016-11-08T09:54:22Z</time>
      </trkpt>
      <trkpt lat="45.91093" lon="4.73591">
        <ele>174</ele>
        <time>2016-11-08T09:54:23Z</time>
      </trkpt>
      <trkpt lat="45.9109" lon="4.73585">
        <ele>174</ele>
        <time>2016-11-08T09:54:24Z</time>
      </trkpt>
      <trkpt lat="45.91087" lon="4.73579">
        <ele>174</ele>
        <time>2016-11-08T09:54:25Z</time>
      </trkpt>
      <trkpt lat="45.91085" lon="4.73573">
        <ele>174</ele>
        <time>2016-11-08T09:54:26Z</time>
      </trkpt>
      <trkpt lat="45.91082" lon="4.73567">
        <ele>174</ele>
        <time>2016-11-08T09:54:27Z</time>
      </trkpt>
      <trkpt lat="45.9108" lon="4.73561">
        <ele>174</ele>
        <time>2016-11-08T09:54:28Z</time>
      </trkpt>
      <trkpt lat="45.91077" lon="4.73555">
        <ele>174</ele>
        <time>2016-11-08T09:54:29Z</time>
      </trkpt>
      <trkpt lat="45.91074" lon="4.73549">
        <ele>174</ele>
        <time>2016-11-08T09:54:30Z</time>
      </trkpt>
      <trkpt lat="45.91071" lon="4.73544">
        <ele>174</ele>
        <time>2016-11-08T09:54:31Z</time>
      </trkpt>
      <trkpt lat="45.91068" lon="4.73538">
        <ele>175</ele>
        <time>2016-11-08T09:54:32Z</time>
      </trkpt>
      <trkpt lat="45.91065" lon="4.73532">
        <ele>175</ele>
        <time>2016-11-08T09:54:33Z</time>
      </trkpt>
      <trkpt lat="45.91062" lon="4.73525">
        <ele>175</ele>
        <time>2016-11-08T09:54:34Z</time>
      </trkpt>
      <trkpt lat="45.9106" lon="4.73519">
        <ele>175</ele>
        <time>2016-11-08T09:54:35Z</time>
      </trkpt>
      <trkpt lat="45.91057" lon="4.73513">
        <ele>175</ele>
        <time>2016-11-08T09:54:36Z</time>
      </trkpt>
      <trkpt lat="45.91054" lon="4.73507">
        <ele>175</ele>
        <time>2016-11-08T09:54:37Z</time>
      </trkpt>
      <trkpt lat="45.91051" lon="4.735">
        <ele>175</ele>
        <time>2016-11-08T09:54:38Z</time>
      </trkpt>
      <trkpt lat="45.91048" lon="4.73494">
        <ele>175</ele>
        <time>2016-11-08T09:54:39Z</time>
      </trkpt>
      <trkpt lat="45.91045" lon="4.73488">
        <ele>175</ele>
        <time>2016-11-08T09:54:40Z</time>
      </trkpt>
      <trkpt lat="45.91043" lon="4.73482">
        <ele>175</ele>
        <time>2016-11-08T09:54:41Z</time>
      </trkpt>
      <trkpt lat="45.9104" lon="4.73476">
        <ele>175</ele>
        <time>2016-11-08T09:54:42Z</time>
      </trkpt>
      <trkpt lat="45.91037" lon="4.73465">
        <ele>175</ele>
        <time>2016-11-08T09:54:44Z</time>
      </trkpt>
      <trkpt lat="45.91036" lon="4.7346">
        <ele>175</ele>
        <time>2016-11-08T09:54:45Z</time>
      </trkpt>
      <trkpt lat="45.91034" lon="4.73448">
        <ele>175</ele>
        <time>2016-11-08T09:54:48Z</time>
      </trkpt>
      <trkpt lat="45.91035" lon="4.73444">
        <ele>175</ele>
        <time>2016-11-08T09:54:49Z</time>
      </trkpt>
      <trkpt lat="45.91036" lon="4.73434">
        <ele>175</ele>
        <time>2016-11-08T09:54:51Z</time>
      </trkpt>
      <trkpt lat="45.91036" lon="4.73428">
        <ele>175</ele>
        <time>2016-11-08T09:54:52Z</time>
      </trkpt>
      <trkpt lat="45.91033" lon="4.73417">
        <ele>174</ele>
        <time>2016-11-08T09:54:54Z</time>
      </trkpt>
      <trkpt lat="45.9103" lon="4.73412">
        <ele>174</ele>
        <time>2016-11-08T09:54:55Z</time>
      </trkpt>
      <trkpt lat="45.91026" lon="4.7341">
        <ele>174</ele>
        <time>2016-11-08T09:54:56Z</time>
      </trkpt>
      <trkpt lat="45.91021" lon="4.73409">
        <ele>174</ele>
        <time>2016-11-08T09:54:57Z</time>
      </trkpt>
      <trkpt lat="45.91013" lon="4.73412">
        <ele>175</ele>
        <time>2016-11-08T09:54:59Z</time>
      </trkpt>
      <trkpt lat="45.91009" lon="4.73416">
        <ele>175</ele>
        <time>2016-11-08T09:55:00Z</time>
      </trkpt>
      <trkpt lat="45.91005" lon="4.73421">
        <ele>175</ele>
        <time>2016-11-08T09:55:01Z</time>
      </trkpt>
      <trkpt lat="45.91001" lon="4.73426">
        <ele>175</ele>
        <time>2016-11-08T09:55:02Z</time>
      </trkpt>
      <trkpt lat="45.90997" lon="4.73431">
        <ele>175</ele>
        <time>2016-11-08T09:55:03Z</time>
      </trkpt>
      <trkpt lat="45.90993" lon="4.73435">
        <ele>175</ele>
        <time>2016-11-08T09:55:04Z</time>
      </trkpt>
      <trkpt lat="45.90988" lon="4.73439">
        <ele>175</ele>
        <time>2016-11-08T09:55:05Z</time>
      </trkpt>
      <trkpt lat="45.90983" lon="4.73442">
        <ele>175</ele>
        <time>2016-11-08T09:55:06Z</time>
      </trkpt>
      <trkpt lat="45.90977" lon="4.73445">
        <ele>175</ele>
        <time>2016-11-08T09:55:07Z</time>
      </trkpt>
      <trkpt lat="45.90972" lon="4.73447">
        <ele>175</ele>
        <time>2016-11-08T09:55:08Z</time>
      </trkpt>
      <trkpt lat="45.90967" lon="4.7345">
        <ele>175</ele>
        <time>2016-11-08T09:55:09Z</time>
      </trkpt>
      <trkpt lat="45.90962" lon="4.73452">
        <ele>175</ele>
        <time>2016-11-08T09:55:10Z</time>
      </trkpt>
      <trkpt lat="45.90957" lon="4.73455">
        <ele>175</ele>
        <time>2016-11-08T09:55:11Z</time>
      </trkpt>
      <trkpt lat="45.90951" lon="4.73457">
        <ele>175</ele>
        <time>2016-11-08T09:55:12Z</time>
      </trkpt>
      <trkpt lat="45.90946" lon="4.73459">
        <ele>175</ele>
        <time>2016-11-08T09:55:13Z</time>
      </trkpt>
      <trkpt lat="45.90941" lon="4.73461">
        <ele>175</ele>
        <time>2016-11-08T09:55:14Z</time>
      </trkpt>
      <trkpt lat="45.90935" lon="4.73463">
        <ele>175</ele>
        <time>2016-11-08T09:55:15Z</time>
      </trkpt>
      <trkpt lat="45.9093" lon="4.73465">
        <ele>175</ele>
        <time>2016-11-08T09:55:16Z</time>
      </trkpt>
      <trkpt lat="45.90925" lon="4.73468">
        <ele>175</ele>
        <time>2016-11-08T09:55:17Z</time>
      </trkpt>
      <trkpt lat="45.90919" lon="4.7347">
        <ele>175</ele>
        <time>2016-11-08T09:55:18Z</time>
      </trkpt>
      <trkpt lat="45.90914" lon="4.73473">
        <ele>175</ele>
        <time>2016-11-08T09:55:19Z</time>
      </trkpt>
      <trkpt lat="45.90909" lon="4.73475">
        <ele>175</ele>
        <time>2016-11-08T09:55:20Z</time>
      </trkpt>
      <trkpt lat="45.90903" lon="4.73477">
        <ele>175</ele>
        <time>2016-11-08T09:55:21Z</time>
      </trkpt>
      <trkpt lat="45.90898" lon="4.7348">
        <ele>175</ele>
        <time>2016-11-08T09:55:22Z</time>
      </trkpt>
      <trkpt lat="45.90892" lon="4.73482">
        <ele>175</ele>
        <time>2016-11-08T09:55:23Z</time>
      </trkpt>
      <trkpt lat="45.90886" lon="4.73484">
        <ele>175</ele>
        <time>2016-11-08T09:55:24Z</time>
      </trkpt>
      <trkpt lat="45.90881" lon="4.73487">
        <ele>175</ele>
        <time>2016-11-08T09:55:25Z</time>
      </trkpt>
      <trkpt lat="45.90876" lon="4.7349">
        <ele>175</ele>
        <time>2016-11-08T09:55:26Z</time>
      </trkpt>
      <trkpt lat="45.9087" lon="4.73492">
        <ele>175</ele>
        <time>2016-11-08T09:55:27Z</time>
      </trkpt>
      <trkpt lat="45.90865" lon="4.73494">
        <ele>175</ele>
        <time>2016-11-08T09:55:28Z</time>
      </trkpt>
      <trkpt lat="45.9086" lon="4.73497">
        <ele>175</ele>
        <time>2016-11-08T09:55:29Z</time>
      </trkpt>
      <trkpt lat="45.90854" lon="4.73498">
        <ele>174</ele>
        <time>2016-11-08T09:55:30Z</time>
      </trkpt>
      <trkpt lat="45.90849" lon="4.73501">
        <ele>174</ele>
        <time>2016-11-08T09:55:31Z</time>
      </trkpt>
      <trkpt lat="45.90843" lon="4.73503">
        <ele>174</ele>
        <time>2016-11-08T09:55:32Z</time>
      </trkpt>
      <trkpt lat="45.90837" lon="4.73505">
        <ele>174</ele>
        <time>2016-11-08T09:55:33Z</time>
      </trkpt>
      <trkpt lat="45.90832" lon="4.73508">
        <ele>174</ele>
        <time>2016-11-08T09:55:34Z</time>
      </trkpt>
      <trkpt lat="45.90827" lon="4.7351">
        <ele>175</ele>
        <time>2016-11-08T09:55:35Z</time>
      </trkpt>
      <trkpt lat="45.90821" lon="4.73512">
        <ele>175</ele>
        <time>2016-11-08T09:55:36Z</time>
      </trkpt>
      <trkpt lat="45.90816" lon="4.73514">
        <ele>175</ele>
        <time>2016-11-08T09:55:37Z</time>
      </trkpt>
      <trkpt lat="45.90811" lon="4.73516">
        <ele>175</ele>
        <time>2016-11-08T09:55:38Z</time>
      </trkpt>
      <trkpt lat="45.90806" lon="4.73518">
        <ele>175</ele>
        <time>2016-11-08T09:55:39Z</time>
      </trkpt>
      <trkpt lat="45.90801" lon="4.7352">
        <ele>175</ele>
        <time>2016-11-08T09:55:40Z</time>
      </trkpt>
      <trkpt lat="45.90796" lon="4.73522">
        <ele>175</ele>
        <time>2016-11-08T09:55:41Z</time>
      </trkpt>
      <trkpt lat="45.90791" lon="4.73524">
        <ele>176</ele>
        <time>2016-11-08T09:55:42Z</time>
      </trkpt>
      <trkpt lat="45.90786" lon="4.73526">
        <ele>176</ele>
        <time>2016-11-08T09:55:43Z</time>
      </trkpt>
      <trkpt lat="45.90781" lon="4.73528">
        <ele>176</ele>
        <time>2016-11-08T09:55:44Z</time>
      </trkpt>
      <trkpt lat="45.90776" lon="4.73531">
        <ele>176</ele>
        <time>2016-11-08T09:55:45Z</time>
      </trkpt>
      <trkpt lat="45.90771" lon="4.73533">
        <ele>176</ele>
        <time>2016-11-08T09:55:46Z</time>
      </trkpt>
      <trkpt lat="45.90766" lon="4.73535">
        <ele>176</ele>
        <time>2016-11-08T09:55:47Z</time>
      </trkpt>
      <trkpt lat="45.90761" lon="4.73537">
        <ele>176</ele>
        <time>2016-11-08T09:55:48Z</time>
      </trkpt>
      <trkpt lat="45.90755" lon="4.73539">
        <ele>176</ele>
        <time>2016-11-08T09:55:49Z</time>
      </trkpt>
      <trkpt lat="45.9075" lon="4.73541">
        <ele>176</ele>
        <time>2016-11-08T09:55:50Z</time>
      </trkpt>
      <trkpt lat="45.90745" lon="4.73543">
        <ele>177</ele>
        <time>2016-11-08T09:55:51Z</time>
      </trkpt>
      <trkpt lat="45.9074" lon="4.73545">
        <ele>177</ele>
        <time>2016-11-08T09:55:52Z</time>
      </trkpt>
      <trkpt lat="45.90735" lon="4.73546">
        <ele>178</ele>
        <time>2016-11-08T09:55:53Z</time>
      </trkpt>
      <trkpt lat="45.90729" lon="4.73548">
        <ele>178</ele>
        <time>2016-11-08T09:55:54Z</time>
      </trkpt>
      <trkpt lat="45.90725" lon="4.7355">
        <ele>178</ele>
        <time>2016-11-08T09:55:55Z</time>
      </trkpt>
      <trkpt lat="45.9072" lon="4.73553">
        <ele>178</ele>
        <time>2016-11-08T09:55:56Z</time>
      </trkpt>
      <trkpt lat="45.90715" lon="4.73555">
        <ele>178</ele>
        <time>2016-11-08T09:55:57Z</time>
      </trkpt>
      <trkpt lat="45.9071" lon="4.73557">
        <ele>178</ele>
        <time>2016-11-08T09:55:58Z</time>
      </trkpt>
      <trkpt lat="45.90705" lon="4.73559">
        <ele>178</ele>
        <time>2016-11-08T09:55:59Z</time>
      </trkpt>
      <trkpt lat="45.907" lon="4.73561">
        <ele>178</ele>
        <time>2016-11-08T09:56:00Z</time>
      </trkpt>
      <trkpt lat="45.90695" lon="4.73563">
        <ele>178</ele>
        <time>2016-11-08T09:56:01Z</time>
      </trkpt>
      <trkpt lat="45.9069" lon="4.73565">
        <ele>178</ele>
        <time>2016-11-08T09:56:02Z</time>
      </trkpt>
      <trkpt lat="45.90685" lon="4.73567">
        <ele>178</ele>
        <time>2016-11-08T09:56:03Z</time>
      </trkpt>
      <trkpt lat="45.90681" lon="4.7357">
        <ele>179</ele>
        <time>2016-11-08T09:56:04Z</time>
      </trkpt>
      <trkpt lat="45.90676" lon="4.73571">
        <ele>179</ele>
        <time>2016-11-08T09:56:05Z</time>
      </trkpt>
      <trkpt lat="45.90671" lon="4.73574">
        <ele>179</ele>
        <time>2016-11-08T09:56:06Z</time>
      </trkpt>
      <trkpt lat="45.90667" lon="4.73576">
        <ele>179</ele>
        <time>2016-11-08T09:56:07Z</time>
      </trkpt>
      <trkpt lat="45.90663" lon="4.7358">
        <ele>179</ele>
        <time>2016-11-08T09:56:08Z</time>
      </trkpt>
      <trkpt lat="45.90658" lon="4.73582">
        <ele>179</ele>
        <time>2016-11-08T09:56:09Z</time>
      </trkpt>
      <trkpt lat="45.90653" lon="4.73584">
        <ele>180</ele>
        <time>2016-11-08T09:56:10Z</time>
      </trkpt>
      <trkpt lat="45.90649" lon="4.73586">
        <ele>181</ele>
        <time>2016-11-08T09:56:11Z</time>
      </trkpt>
      <trkpt lat="45.90645" lon="4.73588">
        <ele>181</ele>
        <time>2016-11-08T09:56:12Z</time>
      </trkpt>
      <trkpt lat="45.9064" lon="4.73589">
        <ele>181</ele>
        <time>2016-11-08T09:56:13Z</time>
      </trkpt>
      <trkpt lat="45.90636" lon="4.73591">
        <ele>181</ele>
        <time>2016-11-08T09:56:14Z</time>
      </trkpt>
      <trkpt lat="45.90631" lon="4.73593">
        <ele>181</ele>
        <time>2016-11-08T09:56:15Z</time>
      </trkpt>
      <trkpt lat="45.90627" lon="4.73595">
        <ele>181</ele>
        <time>2016-11-08T09:56:16Z</time>
      </trkpt>
      <trkpt lat="45.90622" lon="4.73597">
        <ele>181</ele>
        <time>2016-11-08T09:56:17Z</time>
      </trkpt>
      <trkpt lat="45.90618" lon="4.73599">
        <ele>180</ele>
        <time>2016-11-08T09:56:18Z</time>
      </trkpt>
      <trkpt lat="45.90613" lon="4.73601">
        <ele>180</ele>
        <time>2016-11-08T09:56:19Z</time>
      </trkpt>
      <trkpt lat="45.90609" lon="4.73603">
        <ele>180</ele>
        <time>2016-11-08T09:56:20Z</time>
      </trkpt>
      <trkpt lat="45.90604" lon="4.73605">
        <ele>180</ele>
        <time>2016-11-08T09:56:21Z</time>
      </trkpt>
      <trkpt lat="45.906" lon="4.73607">
        <ele>180</ele>
        <time>2016-11-08T09:56:22Z</time>
      </trkpt>
      <trkpt lat="45.90596" lon="4.73609">
        <ele>180</ele>
        <time>2016-11-08T09:56:23Z</time>
      </trkpt>
      <trkpt lat="45.90591" lon="4.73611">
        <ele>180</ele>
        <time>2016-11-08T09:56:24Z</time>
      </trkpt>
      <trkpt lat="45.90587" lon="4.73612">
        <ele>180</ele>
        <time>2016-11-08T09:56:25Z</time>
      </trkpt>
      <trkpt lat="45.90582" lon="4.73614">
        <ele>178</ele>
        <time>2016-11-08T09:56:26Z</time>
      </trkpt>
      <trkpt lat="45.90578" lon="4.73616">
        <ele>178</ele>
        <time>2016-11-08T09:56:27Z</time>
      </trkpt>
      <trkpt lat="45.90573" lon="4.73618">
        <ele>179</ele>
        <time>2016-11-08T09:56:28Z</time>
      </trkpt>
      <trkpt lat="45.90569" lon="4.7362">
        <ele>179</ele>
        <time>2016-11-08T09:56:29Z</time>
      </trkpt>
      <trkpt lat="45.90564" lon="4.73622">
        <ele>179</ele>
        <time>2016-11-08T09:56:30Z</time>
      </trkpt>
      <trkpt lat="45.9056" lon="4.73624">
        <ele>178</ele>
        <time>2016-11-08T09:56:31Z</time>
      </trkpt>
      <trkpt lat="45.90556" lon="4.73625">
        <ele>178</ele>
        <time>2016-11-08T09:56:32Z</time>
      </trkpt>
      <trkpt lat="45.90551" lon="4.73627">
        <ele>178</ele>
        <time>2016-11-08T09:56:33Z</time>
      </trkpt>
      <trkpt lat="45.90547" lon="4.73629">
        <ele>178</ele>
        <time>2016-11-08T09:56:34Z</time>
      </trkpt>
      <trkpt lat="45.90542" lon="4.73631">
        <ele>178</ele>
        <time>2016-11-08T09:56:35Z</time>
      </trkpt>
      <trkpt lat="45.90538" lon="4.73633">
        <ele>178</ele>
        <time>2016-11-08T09:56:36Z</time>
      </trkpt>
      <trkpt lat="45.90533" lon="4.73635">
        <ele>178</ele>
        <time>2016-11-08T09:56:37Z</time>
      </trkpt>
      <trkpt lat="45.90528" lon="4.73637">
        <ele>178</ele>
        <time>2016-11-08T09:56:38Z</time>
      </trkpt>
      <trkpt lat="45.90524" lon="4.7364">
        <ele>178</ele>
        <time>2016-11-08T09:56:39Z</time>
      </trkpt>
      <trkpt lat="45.90519" lon="4.73642">
        <ele>178</ele>
        <time>2016-11-08T09:56:40Z</time>
      </trkpt>
      <trkpt lat="45.90514" lon="4.73644">
        <ele>178</ele>
        <time>2016-11-08T09:56:41Z</time>
      </trkpt>
      <trkpt lat="45.90509" lon="4.73646">
        <ele>178</ele>
        <time>2016-11-08T09:56:42Z</time>
      </trkpt>
      <trkpt lat="45.90504" lon="4.73648">
        <ele>178</ele>
        <time>2016-11-08T09:56:43Z</time>
      </trkpt>
      <trkpt lat="45.90499" lon="4.7365">
        <ele>177</ele>
        <time>2016-11-08T09:56:44Z</time>
      </trkpt>
      <trkpt lat="45.90494" lon="4.73652">
        <ele>177</ele>
        <time>2016-11-08T09:56:45Z</time>
      </trkpt>
      <trkpt lat="45.90489" lon="4.73654">
        <ele>177</ele>
        <time>2016-11-08T09:56:46Z</time>
      </trkpt>
      <trkpt lat="45.90483" lon="4.73656">
        <ele>177</ele>
        <time>2016-11-08T09:56:47Z</time>
      </trkpt>
      <trkpt lat="45.90478" lon="4.73658">
        <ele>177</ele>
        <time>2016-11-08T09:56:48Z</time>
      </trkpt>
      <trkpt lat="45.90473" lon="4.7366">
        <ele>177</ele>
        <time>2016-11-08T09:56:49Z</time>
      </trkpt>
      <trkpt lat="45.90467" lon="4.73662">
        <ele>177</ele>
        <time>2016-11-08T09:56:50Z</time>
      </trkpt>
      <trkpt lat="45.90462" lon="4.73664">
        <ele>177</ele>
        <time>2016-11-08T09:56:51Z</time>
      </trkpt>
      <trkpt lat="45.90456" lon="4.73667">
        <ele>176</ele>
        <time>2016-11-08T09:56:52Z</time>
      </trkpt>
      <trkpt lat="45.90451" lon="4.7367">
        <ele>176</ele>
        <time>2016-11-08T09:56:53Z</time>
      </trkpt>
      <trkpt lat="45.90446" lon="4.73672">
        <ele>176</ele>
        <time>2016-11-08T09:56:54Z</time>
      </trkpt>
      <trkpt lat="45.90441" lon="4.73674">
        <ele>176</ele>
        <time>2016-11-08T09:56:55Z</time>
      </trkpt>
      <trkpt lat="45.90435" lon="4.73676">
        <ele>176</ele>
        <time>2016-11-08T09:56:56Z</time>
      </trkpt>
      <trkpt lat="45.90429" lon="4.73679">
        <ele>177</ele>
        <time>2016-11-08T09:56:57Z</time>
      </trkpt>
      <trkpt lat="45.90424" lon="4.73681">
        <ele>177</ele>
        <time>2016-11-08T09:56:58Z</time>
      </trkpt>
      <trkpt lat="45.90418" lon="4.73684">
        <ele>177</ele>
        <time>2016-11-08T09:56:59Z</time>
      </trkpt>
      <trkpt lat="45.90412" lon="4.73686">
        <ele>177</ele>
        <time>2016-11-08T09:57:00Z</time>
      </trkpt>
      <trkpt lat="45.90405" lon="4.73689">
        <ele>177</ele>
        <time>2016-11-08T09:57:01Z</time>
      </trkpt>
      <trkpt lat="45.90399" lon="4.73692">
        <ele>177</ele>
        <time>2016-11-08T09:57:02Z</time>
      </trkpt>
      <trkpt lat="45.90392" lon="4.73695">
        <ele>177</ele>
        <time>2016-11-08T09:57:03Z</time>
      </trkpt>
      <trkpt lat="45.90385" lon="4.73698">
        <ele>177</ele>
        <time>2016-11-08T09:57:04Z</time>
      </trkpt>
      <trkpt lat="45.90378" lon="4.73701">
        <ele>177</ele>
        <time>2016-11-08T09:57:05Z</time>
      </trkpt>
      <trkpt lat="45.90371" lon="4.73704">
        <ele>177</ele>
        <time>2016-11-08T09:57:06Z</time>
      </trkpt>
      <trkpt lat="45.90363" lon="4.73708">
        <ele>177</ele>
        <time>2016-11-08T09:57:07Z</time>
      </trkpt>
      <trkpt lat="45.90356" lon="4.73711">
        <ele>177</ele>
        <time>2016-11-08T09:57:08Z</time>
      </trkpt>
      <trkpt lat="45.90348" lon="4.73714">
        <ele>177</ele>
        <time>2016-11-08T09:57:09Z</time>
      </trkpt>
      <trkpt lat="45.90341" lon="4.73717">
        <ele>177</ele>
        <time>2016-11-08T09:57:10Z</time>
      </trkpt>
      <trkpt lat="45.90333" lon="4.7372">
        <ele>177</ele>
        <time>2016-11-08T09:57:11Z</time>
      </trkpt>
      <trkpt lat="45.90325" lon="4.73723">
        <ele>177</ele>
        <time>2016-11-08T09:57:12Z</time>
      </trkpt>
      <trkpt lat="45.90318" lon="4.73726">
        <ele>177</ele>
        <time>2016-11-08T09:57:13Z</time>
      </trkpt>
      <trkpt lat="45.9031" lon="4.73729">
        <ele>177</ele>
        <time>2016-11-08T09:57:14Z</time>
      </trkpt>
      <trkpt lat="45.90303" lon="4.73732">
        <ele>177</ele>
        <time>2016-11-08T09:57:15Z</time>
      </trkpt>
      <trkpt lat="45.90296" lon="4.73736">
        <ele>177</ele>
        <time>2016-11-08T09:57:16Z</time>
      </trkpt>
      <trkpt lat="45.90289" lon="4.73739">
        <ele>177</ele>
        <time>2016-11-08T09:57:17Z</time>
      </trkpt>
      <trkpt lat="45.90282" lon="4.73742">
        <ele>177</ele>
        <time>2016-11-08T09:57:18Z</time>
      </trkpt>
      <trkpt lat="45.90276" lon="4.73745">
        <ele>177</ele>
        <time>2016-11-08T09:57:19Z</time>
      </trkpt>
      <trkpt lat="45.90269" lon="4.73748">
        <ele>178</ele>
        <time>2016-11-08T09:57:20Z</time>
      </trkpt>
      <trkpt lat="45.90263" lon="4.7375">
        <ele>178</ele>
        <time>2016-11-08T09:57:21Z</time>
      </trkpt>
      <trkpt lat="45.90257" lon="4.73753">
        <ele>178</ele>
        <time>2016-11-08T09:57:22Z</time>
      </trkpt>
      <trkpt lat="45.90251" lon="4.73755">
        <ele>178</ele>
        <time>2016-11-08T09:57:23Z</time>
      </trkpt>
      <trkpt lat="45.90245" lon="4.73758">
        <ele>178</ele>
        <time>2016-11-08T09:57:24Z</time>
      </trkpt>
      <trkpt lat="45.90239" lon="4.73761">
        <ele>178</ele>
        <time>2016-11-08T09:57:25Z</time>
      </trkpt>
      <trkpt lat="45.90233" lon="4.73763">
        <ele>177</ele>
        <time>2016-11-08T09:57:26Z</time>
      </trkpt>
      <trkpt lat="45.90227" lon="4.73766">
        <ele>177</ele>
        <time>2016-11-08T09:57:27Z</time>
      </trkpt>
      <trkpt lat="45.90222" lon="4.73768">
        <ele>177</ele>
        <time>2016-11-08T09:57:28Z</time>
      </trkpt>
      <trkpt lat="45.90216" lon="4.7377">
        <ele>177</ele>
        <time>2016-11-08T09:57:29Z</time>
      </trkpt>
      <trkpt lat="45.9021" lon="4.73773">
        <ele>177</ele>
        <time>2016-11-08T09:57:30Z</time>
      </trkpt>
      <trkpt lat="45.90204" lon="4.73775">
        <ele>177</ele>
        <time>2016-11-08T09:57:31Z</time>
      </trkpt>
      <trkpt lat="45.90198" lon="4.73778">
        <ele>177</ele>
        <time>2016-11-08T09:57:32Z</time>
      </trkpt>
      <trkpt lat="45.90192" lon="4.7378">
        <ele>177</ele>
        <time>2016-11-08T09:57:33Z</time>
      </trkpt>
      <trkpt lat="45.90186" lon="4.73782">
        <ele>177</ele>
        <time>2016-11-08T09:57:34Z</time>
      </trkpt>
      <trkpt lat="45.9018" lon="4.73785">
        <ele>177</ele>
        <time>2016-11-08T09:57:35Z</time>
      </trkpt>
      <trkpt lat="45.90174" lon="4.73788">
        <ele>177</ele>
        <time>2016-11-08T09:57:36Z</time>
      </trkpt>
      <trkpt lat="45.90168" lon="4.7379">
        <ele>177</ele>
        <time>2016-11-08T09:57:37Z</time>
      </trkpt>
      <trkpt lat="45.90163" lon="4.73792">
        <ele>176</ele>
        <time>2016-11-08T09:57:38Z</time>
      </trkpt>
      <trkpt lat="45.90157" lon="4.73794">
        <ele>177</ele>
        <time>2016-11-08T09:57:39Z</time>
      </trkpt>
      <trkpt lat="45.90151" lon="4.73796">
        <ele>177</ele>
        <time>2016-11-08T09:57:40Z</time>
      </trkpt>
      <trkpt lat="45.90146" lon="4.73798">
        <ele>177</ele>
        <time>2016-11-08T09:57:41Z</time>
      </trkpt>
      <trkpt lat="45.90141" lon="4.738">
        <ele>177</ele>
        <time>2016-11-08T09:57:42Z</time>
      </trkpt>
      <trkpt lat="45.90135" lon="4.73803">
        <ele>177</ele>
        <time>2016-11-08T09:57:43Z</time>
      </trkpt>
      <trkpt lat="45.9013" lon="4.73806">
        <ele>177</ele>
        <time>2016-11-08T09:57:44Z</time>
      </trkpt>
      <trkpt lat="45.90124" lon="4.73808">
        <ele>177</ele>
        <time>2016-11-08T09:57:45Z</time>
      </trkpt>
      <trkpt lat="45.90119" lon="4.73811">
        <ele>177</ele>
        <time>2016-11-08T09:57:46Z</time>
      </trkpt>
      <trkpt lat="45.90113" lon="4.73813">
        <ele>177</ele>
        <time>2016-11-08T09:57:47Z</time>
      </trkpt>
      <trkpt lat="45.90107" lon="4.73815">
        <ele>177</ele>
        <time>2016-11-08T09:57:48Z</time>
      </trkpt>
      <trkpt lat="45.90101" lon="4.73817">
        <ele>177</ele>
        <time>2016-11-08T09:57:49Z</time>
      </trkpt>
      <trkpt lat="45.90095" lon="4.7382">
        <ele>177</ele>
        <time>2016-11-08T09:57:50Z</time>
      </trkpt>
      <trkpt lat="45.90089" lon="4.73823">
        <ele>178</ele>
        <time>2016-11-08T09:57:51Z</time>
      </trkpt>
      <trkpt lat="45.90083" lon="4.73826">
        <ele>178</ele>
        <time>2016-11-08T09:57:52Z</time>
      </trkpt>
      <trkpt lat="45.90077" lon="4.73828">
        <ele>178</ele>
        <time>2016-11-08T09:57:53Z</time>
      </trkpt>
      <trkpt lat="45.90071" lon="4.73831">
        <ele>178</ele>
        <time>2016-11-08T09:57:54Z</time>
      </trkpt>
      <trkpt lat="45.90066" lon="4.73833">
        <ele>178</ele>
        <time>2016-11-08T09:57:55Z</time>
      </trkpt>
      <trkpt lat="45.9006" lon="4.73835">
        <ele>178</ele>
        <time>2016-11-08T09:57:56Z</time>
      </trkpt>
      <trkpt lat="45.90055" lon="4.73838">
        <ele>178</ele>
        <time>2016-11-08T09:57:57Z</time>
      </trkpt>
      <trkpt lat="45.90049" lon="4.7384">
        <ele>178</ele>
        <time>2016-11-08T09:57:58Z</time>
      </trkpt>
      <trkpt lat="45.90044" lon="4.73843">
        <ele>178</ele>
        <time>2016-11-08T09:57:59Z</time>
      </trkpt>
      <trkpt lat="45.90038" lon="4.73845">
        <ele>178</ele>
        <time>2016-11-08T09:58:00Z</time>
      </trkpt>
      <trkpt lat="45.90033" lon="4.73847">
        <ele>178</ele>
        <time>2016-11-08T09:58:01Z</time>
      </trkpt>
      <trkpt lat="45.90027" lon="4.73849">
        <ele>178</ele>
        <time>2016-11-08T09:58:02Z</time>
      </trkpt>
      <trkpt lat="45.90022" lon="4.73851">
        <ele>178</ele>
        <time>2016-11-08T09:58:03Z</time>
      </trkpt>
      <trkpt lat="45.90016" lon="4.73853">
        <ele>178</ele>
        <time>2016-11-08T09:58:04Z</time>
      </trkpt>
      <trkpt lat="45.90011" lon="4.73856">
        <ele>178</ele>
        <time>2016-11-08T09:58:05Z</time>
      </trkpt>
      <trkpt lat="45.90006" lon="4.73858">
        <ele>178</ele>
        <time>2016-11-08T09:58:06Z</time>
      </trkpt>
      <trkpt lat="45.90001" lon="4.7386">
        <ele>178</ele>
        <time>2016-11-08T09:58:07Z</time>
      </trkpt>
      <trkpt lat="45.89996" lon="4.73862">
        <ele>178</ele>
        <time>2016-11-08T09:58:08Z</time>
      </trkpt>
      <trkpt lat="45.8999" lon="4.73865">
        <ele>178</ele>
        <time>2016-11-08T09:58:09Z</time>
      </trkpt>
      <trkpt lat="45.89985" lon="4.73867">
        <ele>178</ele>
        <time>2016-11-08T09:58:10Z</time>
      </trkpt>
      <trkpt lat="45.8998" lon="4.73869">
        <ele>178</ele>
        <time>2016-11-08T09:58:11Z</time>
      </trkpt>
      <trkpt lat="45.89974" lon="4.73872">
        <ele>178</ele>
        <time>2016-11-08T09:58:12Z</time>
      </trkpt>
      <trkpt lat="45.89968" lon="4.73875">
        <ele>178</ele>
        <time>2016-11-08T09:58:13Z</time>
      </trkpt>
      <trkpt lat="45.89962" lon="4.73877">
        <ele>178</ele>
        <time>2016-11-08T09:58:14Z</time>
      </trkpt>
      <trkpt lat="45.89956" lon="4.73879">
        <ele>178</ele>
        <time>2016-11-08T09:58:15Z</time>
      </trkpt>
      <trkpt lat="45.89951" lon="4.73882">
        <ele>178</ele>
        <time>2016-11-08T09:58:16Z</time>
      </trkpt>
      <trkpt lat="45.89945" lon="4.73884">
        <ele>178</ele>
        <time>2016-11-08T09:58:17Z</time>
      </trkpt>
      <trkpt lat="45.89939" lon="4.73886">
        <ele>178</ele>
        <time>2016-11-08T09:58:18Z</time>
      </trkpt>
      <trkpt lat="45.89933" lon="4.73888">
        <ele>178</ele>
        <time>2016-11-08T09:58:19Z</time>
      </trkpt>
      <trkpt lat="45.89928" lon="4.73891">
        <ele>178</ele>
        <time>2016-11-08T09:58:20Z</time>
      </trkpt>
      <trkpt lat="45.89922" lon="4.73893">
        <ele>178</ele>
        <time>2016-11-08T09:58:21Z</time>
      </trkpt>
      <trkpt lat="45.89916" lon="4.73896">
        <ele>178</ele>
        <time>2016-11-08T09:58:22Z</time>
      </trkpt>
      <trkpt lat="45.89911" lon="4.73898">
        <ele>178</ele>
        <time>2016-11-08T09:58:23Z</time>
      </trkpt>
      <trkpt lat="45.89905" lon="4.739">
        <ele>178</ele>
        <time>2016-11-08T09:58:24Z</time>
      </trkpt>
      <trkpt lat="45.899" lon="4.73903">
        <ele>178</ele>
        <time>2016-11-08T09:58:25Z</time>
      </trkpt>
      <trkpt lat="45.89896" lon="4.73906">
        <ele>178</ele>
        <time>2016-11-08T09:58:26Z</time>
      </trkpt>
      <trkpt lat="45.89891" lon="4.73908">
        <ele>179</ele>
        <time>2016-11-08T09:58:27Z</time>
      </trkpt>
      <trkpt lat="45.89886" lon="4.7391">
        <ele>179</ele>
        <time>2016-11-08T09:58:28Z</time>
      </trkpt>
      <trkpt lat="45.89881" lon="4.73911">
        <ele>179</ele>
        <time>2016-11-08T09:58:29Z</time>
      </trkpt>
      <trkpt lat="45.89875" lon="4.73914">
        <ele>179</ele>
        <time>2016-11-08T09:58:30Z</time>
      </trkpt>
      <trkpt lat="45.8987" lon="4.73916">
        <ele>179</ele>
        <time>2016-11-08T09:58:31Z</time>
      </trkpt>
      <trkpt lat="45.89864" lon="4.73919">
        <ele>179</ele>
        <time>2016-11-08T09:58:32Z</time>
      </trkpt>
      <trkpt lat="45.89858" lon="4.73921">
        <ele>179</ele>
        <time>2016-11-08T09:58:33Z</time>
      </trkpt>
      <trkpt lat="45.89853" lon="4.73924">
        <ele>179</ele>
        <time>2016-11-08T09:58:34Z</time>
      </trkpt>
      <trkpt lat="45.89847" lon="4.73927">
        <ele>179</ele>
        <time>2016-11-08T09:58:35Z</time>
      </trkpt>
      <trkpt lat="45.89841" lon="4.73929">
        <ele>179</ele>
        <time>2016-11-08T09:58:36Z</time>
      </trkpt>
      <trkpt lat="45.89835" lon="4.73931">
        <ele>179</ele>
        <time>2016-11-08T09:58:37Z</time>
      </trkpt>
      <trkpt lat="45.8983" lon="4.73933">
        <ele>179</ele>
        <time>2016-11-08T09:58:38Z</time>
      </trkpt>
      <trkpt lat="45.89825" lon="4.73936">
        <ele>179</ele>
        <time>2016-11-08T09:58:39Z</time>
      </trkpt>
      <trkpt lat="45.8982" lon="4.73938">
        <ele>179</ele>
        <time>2016-11-08T09:58:40Z</time>
      </trkpt>
      <trkpt lat="45.89814" lon="4.73941">
        <ele>179</ele>
        <time>2016-11-08T09:58:41Z</time>
      </trkpt>
      <trkpt lat="45.89809" lon="4.73943">
        <ele>179</ele>
        <time>2016-11-08T09:58:42Z</time>
      </trkpt>
      <trkpt lat="45.89804" lon="4.73945">
        <ele>179</ele>
        <time>2016-11-08T09:58:43Z</time>
      </trkpt>
      <trkpt lat="45.89798" lon="4.73948">
        <ele>179</ele>
        <time>2016-11-08T09:58:44Z</time>
      </trkpt>
      <trkpt lat="45.89793" lon="4.7395">
        <ele>179</ele>
        <time>2016-11-08T09:58:45Z</time>
      </trkpt>
      <trkpt lat="45.89787" lon="4.73952">
        <ele>179</ele>
        <time>2016-11-08T09:58:46Z</time>
      </trkpt>
      <trkpt lat="45.89782" lon="4.73954">
        <ele>179</ele>
        <time>2016-11-08T09:58:47Z</time>
      </trkpt>
      <trkpt lat="45.89776" lon="4.73956">
        <ele>179</ele>
        <time>2016-11-08T09:58:48Z</time>
      </trkpt>
      <trkpt lat="45.89771" lon="4.73958">
        <ele>179</ele>
        <time>2016-11-08T09:58:49Z</time>
      </trkpt>
      <trkpt lat="45.89765" lon="4.73961">
        <ele>179</ele>
        <time>2016-11-08T09:58:50Z</time>
      </trkpt>
      <trkpt lat="45.8976" lon="4.73963">
        <ele>178</ele>
        <time>2016-11-08T09:58:51Z</time>
      </trkpt>
      <trkpt lat="45.89755" lon="4.73965">
        <ele>178</ele>
        <time>2016-11-08T09:58:52Z</time>
      </trkpt>
      <trkpt lat="45.89749" lon="4.73967">
        <ele>178</ele>
        <time>2016-11-08T09:58:53Z</time>
      </trkpt>
      <trkpt lat="45.89744" lon="4.73969">
        <ele>178</ele>
        <time>2016-11-08T09:58:54Z</time>
      </trkpt>
      <trkpt lat="45.89739" lon="4.73972">
        <ele>178</ele>
        <time>2016-11-08T09:58:55Z</time>
      </trkpt>
      <trkpt lat="45.89734" lon="4.73974">
        <ele>178</ele>
        <time>2016-11-08T09:58:56Z</time>
      </trkpt>
      <trkpt lat="45.89728" lon="4.73976">
        <ele>178</ele>
        <time>2016-11-08T09:58:57Z</time>
      </trkpt>
      <trkpt lat="45.89723" lon="4.73979">
        <ele>178</ele>
        <time>2016-11-08T09:58:58Z</time>
      </trkpt>
      <trkpt lat="45.89718" lon="4.73981">
        <ele>178</ele>
        <time>2016-11-08T09:58:59Z</time>
      </trkpt>
      <trkpt lat="45.89712" lon="4.73983">
        <ele>178</ele>
        <time>2016-11-08T09:59:00Z</time>
      </trkpt>
      <trkpt lat="45.89706" lon="4.73986">
        <ele>178</ele>
        <time>2016-11-08T09:59:01Z</time>
      </trkpt>
      <trkpt lat="45.89701" lon="4.73988">
        <ele>178</ele>
        <time>2016-11-08T09:59:02Z</time>
      </trkpt>
      <trkpt lat="45.89696" lon="4.7399">
        <ele>178</ele>
        <time>2016-11-08T09:59:03Z</time>
      </trkpt>
      <trkpt lat="45.8969" lon="4.73993">
        <ele>179</ele>
        <time>2016-11-08T09:59:04Z</time>
      </trkpt>
      <trkpt lat="45.89685" lon="4.73994">
        <ele>179</ele>
        <time>2016-11-08T09:59:05Z</time>
      </trkpt>
      <trkpt lat="45.89679" lon="4.73996">
        <ele>179</ele>
        <time>2016-11-08T09:59:06Z</time>
      </trkpt>
      <trkpt lat="45.89674" lon="4.73999">
        <ele>179</ele>
        <time>2016-11-08T09:59:07Z</time>
      </trkpt>
      <trkpt lat="45.89668" lon="4.74001">
        <ele>179</ele>
        <time>2016-11-08T09:59:08Z</time>
      </trkpt>
      <trkpt lat="45.89663" lon="4.74004">
        <ele>179</ele>
        <time>2016-11-08T09:59:09Z</time>
      </trkpt>
      <trkpt lat="45.89657" lon="4.74007">
        <ele>179</ele>
        <time>2016-11-08T09:59:10Z</time>
      </trkpt>
      <trkpt lat="45.89652" lon="4.74009">
        <ele>179</ele>
        <time>2016-11-08T09:59:11Z</time>
      </trkpt>
      <trkpt lat="45.89647" lon="4.74011">
        <ele>180</ele>
        <time>2016-11-08T09:59:12Z</time>
      </trkpt>
      <trkpt lat="45.89642" lon="4.74014">
        <ele>180</ele>
        <time>2016-11-08T09:59:13Z</time>
      </trkpt>
      <trkpt lat="45.89637" lon="4.74016">
        <ele>180</ele>
        <time>2016-11-08T09:59:14Z</time>
      </trkpt>
      <trkpt lat="45.89632" lon="4.74018">
        <ele>180</ele>
        <time>2016-11-08T09:59:15Z</time>
      </trkpt>
      <trkpt lat="45.89627" lon="4.7402">
        <ele>180</ele>
        <time>2016-11-08T09:59:16Z</time>
      </trkpt>
      <trkpt lat="45.89621" lon="4.74023">
        <ele>180</ele>
        <time>2016-11-08T09:59:17Z</time>
      </trkpt>
      <trkpt lat="45.89616" lon="4.74025">
        <ele>180</ele>
        <time>2016-11-08T09:59:18Z</time>
      </trkpt>
      <trkpt lat="45.8961" lon="4.74027">
        <ele>180</ele>
        <time>2016-11-08T09:59:19Z</time>
      </trkpt>
      <trkpt lat="45.89604" lon="4.7403">
        <ele>180</ele>
        <time>2016-11-08T09:59:20Z</time>
      </trkpt>
      <trkpt lat="45.89599" lon="4.74032">
        <ele>180</ele>
        <time>2016-11-08T09:59:21Z</time>
      </trkpt>
      <trkpt lat="45.89593" lon="4.74034">
        <ele>180</ele>
        <time>2016-11-08T09:59:22Z</time>
      </trkpt>
      <trkpt lat="45.89588" lon="4.74037">
        <ele>180</ele>
        <time>2016-11-08T09:59:23Z</time>
      </trkpt>
      <trkpt lat="45.89582" lon="4.74039">
        <ele>181</ele>
        <time>2016-11-08T09:59:24Z</time>
      </trkpt>
      <trkpt lat="45.89577" lon="4.74041">
        <ele>181</ele>
        <time>2016-11-08T09:59:25Z</time>
      </trkpt>
      <trkpt lat="45.89572" lon="4.74042">
        <ele>181</ele>
        <time>2016-11-08T09:59:26Z</time>
      </trkpt>
      <trkpt lat="45.89567" lon="4.74044">
        <ele>181</ele>
        <time>2016-11-08T09:59:27Z</time>
      </trkpt>
      <trkpt lat="45.89562" lon="4.74046">
        <ele>181</ele>
        <time>2016-11-08T09:59:28Z</time>
      </trkpt>
      <trkpt lat="45.89557" lon="4.74049">
        <ele>181</ele>
        <time>2016-11-08T09:59:29Z</time>
      </trkpt>
      <trkpt lat="45.89551" lon="4.74051">
        <ele>181</ele>
        <time>2016-11-08T09:59:30Z</time>
      </trkpt>
      <trkpt lat="45.89546" lon="4.74053">
        <ele>181</ele>
        <time>2016-11-08T09:59:31Z</time>
      </trkpt>
      <trkpt lat="45.89541" lon="4.74055">
        <ele>181</ele>
        <time>2016-11-08T09:59:32Z</time>
      </trkpt>
      <trkpt lat="45.89535" lon="4.74057">
        <ele>181</ele>
        <time>2016-11-08T09:59:33Z</time>
      </trkpt>
      <trkpt lat="45.8953" lon="4.7406">
        <ele>181</ele>
        <time>2016-11-08T09:59:34Z</time>
      </trkpt>
      <trkpt lat="45.89525" lon="4.74063">
        <ele>181</ele>
        <time>2016-11-08T09:59:35Z</time>
      </trkpt>
      <trkpt lat="45.89519" lon="4.74065">
        <ele>181</ele>
        <time>2016-11-08T09:59:36Z</time>
      </trkpt>
      <trkpt lat="45.89514" lon="4.74068">
        <ele>181</ele>
        <time>2016-11-08T09:59:37Z</time>
      </trkpt>
      <trkpt lat="45.89508" lon="4.74069">
        <ele>181</ele>
        <time>2016-11-08T09:59:38Z</time>
      </trkpt>
      <trkpt lat="45.89502" lon="4.74071">
        <ele>181</ele>
        <time>2016-11-08T09:59:39Z</time>
      </trkpt>
      <trkpt lat="45.89497" lon="4.74074">
        <ele>181</ele>
        <time>2016-11-08T09:59:40Z</time>
      </trkpt>
      <trkpt lat="45.89492" lon="4.74076">
        <ele>181</ele>
        <time>2016-11-08T09:59:41Z</time>
      </trkpt>
      <trkpt lat="45.89487" lon="4.74078">
        <ele>181</ele>
        <time>2016-11-08T09:59:42Z</time>
      </trkpt>
      <trkpt lat="45.89482" lon="4.74081">
        <ele>181</ele>
        <time>2016-11-08T09:59:43Z</time>
      </trkpt>
      <trkpt lat="45.89477" lon="4.74083">
        <ele>181</ele>
        <time>2016-11-08T09:59:44Z</time>
      </trkpt>
      <trkpt lat="45.89472" lon="4.74085">
        <ele>182</ele>
        <time>2016-11-08T09:59:45Z</time>
      </trkpt>
      <trkpt lat="45.89467" lon="4.74088">
        <ele>182</ele>
        <time>2016-11-08T09:59:46Z</time>
      </trkpt>
      <trkpt lat="45.89462" lon="4.7409">
        <ele>182</ele>
        <time>2016-11-08T09:59:47Z</time>
      </trkpt>
      <trkpt lat="45.89457" lon="4.74093">
        <ele>182</ele>
        <time>2016-11-08T09:59:48Z</time>
      </trkpt>
      <trkpt lat="45.89452" lon="4.74095">
        <ele>182</ele>
        <time>2016-11-08T09:59:49Z</time>
      </trkpt>
      <trkpt lat="45.89447" lon="4.74097">
        <ele>182</ele>
        <time>2016-11-08T09:59:50Z</time>
      </trkpt>
      <trkpt lat="45.89442" lon="4.74099">
        <ele>182</ele>
        <time>2016-11-08T09:59:51Z</time>
      </trkpt>
      <trkpt lat="45.89437" lon="4.74101">
        <ele>182</ele>
        <time>2016-11-08T09:59:52Z</time>
      </trkpt>
      <trkpt lat="45.89431" lon="4.74102">
        <ele>182</ele>
        <time>2016-11-08T09:59:53Z</time>
      </trkpt>
      <trkpt lat="45.89426" lon="4.74104">
        <ele>182</ele>
        <time>2016-11-08T09:59:54Z</time>
      </trkpt>
      <trkpt lat="45.89421" lon="4.74106">
        <ele>182</ele>
        <time>2016-11-08T09:59:55Z</time>
      </trkpt>
      <trkpt lat="45.89416" lon="4.74108">
        <ele>183</ele>
        <time>2016-11-08T09:59:56Z</time>
      </trkpt>
      <trkpt lat="45.89411" lon="4.7411">
        <ele>183</ele>
        <time>2016-11-08T09:59:57Z</time>
      </trkpt>
      <trkpt lat="45.89406" lon="4.74113">
        <ele>183</ele>
        <time>2016-11-08T09:59:58Z</time>
      </trkpt>
      <trkpt lat="45.894" lon="4.74115">
        <ele>184</ele>
        <time>2016-11-08T09:59:59Z</time>
      </trkpt>
      <trkpt lat="45.89395" lon="4.74117">
        <ele>184</ele>
        <time>2016-11-08T10:00:00Z</time>
      </trkpt>
      <trkpt lat="45.8939" lon="4.7412">
        <ele>184</ele>
        <time>2016-11-08T10:00:01Z</time>
      </trkpt>
      <trkpt lat="45.89385" lon="4.74122">
        <ele>184</ele>
        <time>2016-11-08T10:00:02Z</time>
      </trkpt>
      <trkpt lat="45.89381" lon="4.74125">
        <ele>184</ele>
        <time>2016-11-08T10:00:03Z</time>
      </trkpt>
      <trkpt lat="45.89376" lon="4.74127">
        <ele>184</ele>
        <time>2016-11-08T10:00:04Z</time>
      </trkpt>
      <trkpt lat="45.89371" lon="4.74129">
        <ele>184</ele>
        <time>2016-11-08T10:00:05Z</time>
      </trkpt>
      <trkpt lat="45.89366" lon="4.74131">
        <ele>184</ele>
        <time>2016-11-08T10:00:06Z</time>
      </trkpt>
      <trkpt lat="45.8936" lon="4.74133">
        <ele>184</ele>
        <time>2016-11-08T10:00:07Z</time>
      </trkpt>
      <trkpt lat="45.89355" lon="4.74135">
        <ele>184</ele>
        <time>2016-11-08T10:00:08Z</time>
      </trkpt>
      <trkpt lat="45.8935" lon="4.74136">
        <ele>184</ele>
        <time>2016-11-08T10:00:09Z</time>
      </trkpt>
      <trkpt lat="45.89345" lon="4.74138">
        <ele>185</ele>
        <time>2016-11-08T10:00:10Z</time>
      </trkpt>
      <trkpt lat="45.8934" lon="4.74139">
        <ele>185</ele>
        <time>2016-11-08T10:00:11Z</time>
      </trkpt>
      <trkpt lat="45.89334" lon="4.74141">
        <ele>185</ele>
        <time>2016-11-08T10:00:12Z</time>
      </trkpt>
      <trkpt lat="45.89329" lon="4.74143">
        <ele>185</ele>
        <time>2016-11-08T10:00:13Z</time>
      </trkpt>
      <trkpt lat="45.89324" lon="4.74146">
        <ele>185</ele>
        <time>2016-11-08T10:00:14Z</time>
      </trkpt>
      <trkpt lat="45.8932" lon="4.74148">
        <ele>185</ele>
        <time>2016-11-08T10:00:15Z</time>
      </trkpt>
      <trkpt lat="45.89315" lon="4.74151">
        <ele>185</ele>
        <time>2016-11-08T10:00:16Z</time>
      </trkpt>
      <trkpt lat="45.8931" lon="4.74153">
        <ele>185</ele>
        <time>2016-11-08T10:00:17Z</time>
      </trkpt>
      <trkpt lat="45.89292" lon="4.74165">
        <ele>185</ele>
        <time>2016-11-08T10:00:21Z</time>
      </trkpt>
      <trkpt lat="45.89287" lon="4.74168">
        <ele>186</ele>
        <time>2016-11-08T10:00:22Z</time>
      </trkpt>
      <trkpt lat="45.89282" lon="4.74171">
        <ele>186</ele>
        <time>2016-11-08T10:00:23Z</time>
      </trkpt>
      <trkpt lat="45.89277" lon="4.74173">
        <ele>186</ele>
        <time>2016-11-08T10:00:24Z</time>
      </trkpt>
      <trkpt lat="45.89273" lon="4.74176">
        <ele>186</ele>
        <time>2016-11-08T10:00:25Z</time>
      </trkpt>
      <trkpt lat="45.89268" lon="4.74178">
        <ele>186</ele>
        <time>2016-11-08T10:00:26Z</time>
      </trkpt>
      <trkpt lat="45.89262" lon="4.7418">
        <ele>186</ele>
        <time>2016-11-08T10:00:27Z</time>
      </trkpt>
      <trkpt lat="45.89257" lon="4.74182">
        <ele>186</ele>
        <time>2016-11-08T10:00:28Z</time>
      </trkpt>
      <trkpt lat="45.89252" lon="4.74184">
        <ele>186</ele>
        <time>2016-11-08T10:00:29Z</time>
      </trkpt>
      <trkpt lat="45.89247" lon="4.74186">
        <ele>186</ele>
        <time>2016-11-08T10:00:30Z</time>
      </trkpt>
      <trkpt lat="45.89242" lon="4.74188">
        <ele>186</ele>
        <time>2016-11-08T10:00:31Z</time>
      </trkpt>
      <trkpt lat="45.89237" lon="4.7419">
        <ele>186</ele>
        <time>2016-11-08T10:00:32Z</time>
      </trkpt>
      <trkpt lat="45.89231" lon="4.74192">
        <ele>186</ele>
        <time>2016-11-08T10:00:33Z</time>
      </trkpt>
      <trkpt lat="45.89226" lon="4.74194">
        <ele>186</ele>
        <time>2016-11-08T10:00:34Z</time>
      </trkpt>
      <trkpt lat="45.89221" lon="4.74196">
        <ele>186</ele>
        <time>2016-11-08T10:00:35Z</time>
      </trkpt>
      <trkpt lat="45.89216" lon="4.74198">
        <ele>186</ele>
        <time>2016-11-08T10:00:36Z</time>
      </trkpt>
      <trkpt lat="45.89211" lon="4.742">
        <ele>186</ele>
        <time>2016-11-08T10:00:37Z</time>
      </trkpt>
      <trkpt lat="45.89201" lon="4.74204">
        <ele>186</ele>
        <time>2016-11-08T10:00:39Z</time>
      </trkpt>
      <trkpt lat="45.89196" lon="4.74206">
        <ele>186</ele>
        <time>2016-11-08T10:00:40Z</time>
      </trkpt>
      <trkpt lat="45.89191" lon="4.74209">
        <ele>186</ele>
        <time>2016-11-08T10:00:41Z</time>
      </trkpt>
      <trkpt lat="45.89186" lon="4.74209">
        <ele>186</ele>
        <time>2016-11-08T10:00:42Z</time>
      </trkpt>
      <trkpt lat="45.89181" lon="4.74212">
        <ele>186</ele>
        <time>2016-11-08T10:00:43Z</time>
      </trkpt>
      <trkpt lat="45.89176" lon="4.74214">
        <ele>186</ele>
        <time>2016-11-08T10:00:44Z</time>
      </trkpt>
      <trkpt lat="45.89172" lon="4.74215">
        <ele>186</ele>
        <time>2016-11-08T10:00:45Z</time>
      </trkpt>
      <trkpt lat="45.89167" lon="4.74218">
        <ele>186</ele>
        <time>2016-11-08T10:00:46Z</time>
      </trkpt>
      <trkpt lat="45.89162" lon="4.7422">
        <ele>186</ele>
        <time>2016-11-08T10:00:47Z</time>
      </trkpt>
      <trkpt lat="45.89157" lon="4.74223">
        <ele>186</ele>
        <time>2016-11-08T10:00:48Z</time>
      </trkpt>
      <trkpt lat="45.89152" lon="4.74225">
        <ele>186</ele>
        <time>2016-11-08T10:00:49Z</time>
      </trkpt>
      <trkpt lat="45.89147" lon="4.74227">
        <ele>186</ele>
        <time>2016-11-08T10:00:50Z</time>
      </trkpt>
      <trkpt lat="45.89142" lon="4.74229">
        <ele>186</ele>
        <time>2016-11-08T10:00:51Z</time>
      </trkpt>
      <trkpt lat="45.89137" lon="4.7423">
        <ele>186</ele>
        <time>2016-11-08T10:00:52Z</time>
      </trkpt>
      <trkpt lat="45.89129" lon="4.74233">
        <ele>186</ele>
        <time>2016-11-08T10:00:54Z</time>
      </trkpt>
      <trkpt lat="45.89124" lon="4.74236">
        <ele>186</ele>
        <time>2016-11-08T10:00:55Z</time>
      </trkpt>
      <trkpt lat="45.89118" lon="4.74238">
        <ele>186</ele>
        <time>2016-11-08T10:00:56Z</time>
      </trkpt>
      <trkpt lat="45.8911" lon="4.7424">
        <ele>186</ele>
        <time>2016-11-08T10:00:58Z</time>
      </trkpt>
      <trkpt lat="45.89106" lon="4.74241">
        <ele>186</ele>
        <time>2016-11-08T10:00:59Z</time>
      </trkpt>
      <trkpt lat="45.89101" lon="4.74243">
        <ele>186</ele>
        <time>2016-11-08T10:01:00Z</time>
      </trkpt>
      <trkpt lat="45.89097" lon="4.74244">
        <ele>186</ele>
        <time>2016-11-08T10:01:01Z</time>
      </trkpt>
      <trkpt lat="45.89092" lon="4.74245">
        <ele>186</ele>
        <time>2016-11-08T10:01:02Z</time>
      </trkpt>
      <trkpt lat="45.89086" lon="4.74247">
        <ele>186</ele>
        <time>2016-11-08T10:01:03Z</time>
      </trkpt>
      <trkpt lat="45.89081" lon="4.74249">
        <ele>186</ele>
        <time>2016-11-08T10:01:04Z</time>
      </trkpt>
      <trkpt lat="45.89076" lon="4.74251">
        <ele>186</ele>
        <time>2016-11-08T10:01:05Z</time>
      </trkpt>
      <trkpt lat="45.89071" lon="4.74252">
        <ele>186</ele>
        <time>2016-11-08T10:01:06Z</time>
      </trkpt>
      <trkpt lat="45.89065" lon="4.74254">
        <ele>186</ele>
        <time>2016-11-08T10:01:07Z</time>
      </trkpt>
      <trkpt lat="45.89061" lon="4.74256">
        <ele>186</ele>
        <time>2016-11-08T10:01:08Z</time>
      </trkpt>
      <trkpt lat="45.89056" lon="4.74258">
        <ele>187</ele>
        <time>2016-11-08T10:01:09Z</time>
      </trkpt>
      <trkpt lat="45.89051" lon="4.74259">
        <ele>187</ele>
        <time>2016-11-08T10:01:10Z</time>
      </trkpt>
      <trkpt lat="45.89046" lon="4.74262">
        <ele>187</ele>
        <time>2016-11-08T10:01:11Z</time>
      </trkpt>
      <trkpt lat="45.8904" lon="4.74264">
        <ele>187</ele>
        <time>2016-11-08T10:01:12Z</time>
      </trkpt>
      <trkpt lat="45.89034" lon="4.74265">
        <ele>187</ele>
        <time>2016-11-08T10:01:13Z</time>
      </trkpt>
      <trkpt lat="45.89029" lon="4.74266">
        <ele>187</ele>
        <time>2016-11-08T10:01:14Z</time>
      </trkpt>
      <trkpt lat="45.89023" lon="4.74268">
        <ele>187</ele>
        <time>2016-11-08T10:01:15Z</time>
      </trkpt>
      <trkpt lat="45.89018" lon="4.74269">
        <ele>187</ele>
        <time>2016-11-08T10:01:16Z</time>
      </trkpt>
      <trkpt lat="45.89012" lon="4.74271">
        <ele>187</ele>
        <time>2016-11-08T10:01:17Z</time>
      </trkpt>
      <trkpt lat="45.89007" lon="4.74272">
        <ele>187</ele>
        <time>2016-11-08T10:01:18Z</time>
      </trkpt>
      <trkpt lat="45.89001" lon="4.74274">
        <ele>187</ele>
        <time>2016-11-08T10:01:19Z</time>
      </trkpt>
      <trkpt lat="45.88995" lon="4.74275">
        <ele>187</ele>
        <time>2016-11-08T10:01:20Z</time>
      </trkpt>
      <trkpt lat="45.8899" lon="4.74276">
        <ele>187</ele>
        <time>2016-11-08T10:01:21Z</time>
      </trkpt>
      <trkpt lat="45.88984" lon="4.74277">
        <ele>187</ele>
        <time>2016-11-08T10:01:22Z</time>
      </trkpt>
      <trkpt lat="45.88978" lon="4.74277">
        <ele>187</ele>
        <time>2016-11-08T10:01:23Z</time>
      </trkpt>
      <trkpt lat="45.88971" lon="4.74279">
        <ele>187</ele>
        <time>2016-11-08T10:01:24Z</time>
      </trkpt>
      <trkpt lat="45.88966" lon="4.74278">
        <ele>187</ele>
        <time>2016-11-08T10:01:25Z</time>
      </trkpt>
      <trkpt lat="45.88957" lon="4.74276">
        <ele>187</ele>
        <time>2016-11-08T10:01:27Z</time>
      </trkpt>
      <trkpt lat="45.88953" lon="4.74274">
        <ele>187</ele>
        <time>2016-11-08T10:01:28Z</time>
      </trkpt>
      <trkpt lat="45.88945" lon="4.74271">
        <ele>187</ele>
        <time>2016-11-08T10:01:30Z</time>
      </trkpt>
      <trkpt lat="45.88942" lon="4.74269">
        <ele>187</ele>
        <time>2016-11-08T10:01:31Z</time>
      </trkpt>
      <trkpt lat="45.88934" lon="4.74267">
        <ele>187</ele>
        <time>2016-11-08T10:01:33Z</time>
      </trkpt>
      <trkpt lat="45.8893" lon="4.74266">
        <ele>187</ele>
        <time>2016-11-08T10:01:34Z</time>
      </trkpt>
      <trkpt lat="45.88926" lon="4.74261">
        <ele>187</ele>
        <time>2016-11-08T10:01:36Z</time>
      </trkpt>
      <trkpt lat="45.88922" lon="4.74257">
        <ele>187</ele>
        <time>2016-11-08T10:01:37Z</time>
      </trkpt>
      <trkpt lat="45.88914" lon="4.74257">
        <ele>187</ele>
        <time>2016-11-08T10:01:39Z</time>
      </trkpt>
      <trkpt lat="45.8891" lon="4.74253">
        <ele>187</ele>
        <time>2016-11-08T10:01:40Z</time>
      </trkpt>
      <trkpt lat="45.88905" lon="4.74254">
        <ele>187</ele>
        <time>2016-11-08T10:01:41Z</time>
      </trkpt>
      <trkpt lat="45.889" lon="4.74249">
        <ele>187</ele>
        <time>2016-11-08T10:01:42Z</time>
      </trkpt>
      <trkpt lat="45.88892" lon="4.74244">
        <ele>187</ele>
        <time>2016-11-08T10:01:44Z</time>
      </trkpt>
      <trkpt lat="45.88886" lon="4.74243">
        <ele>187</ele>
        <time>2016-11-08T10:01:45Z</time>
      </trkpt>
      <trkpt lat="45.88881" lon="4.7424">
        <ele>187</ele>
        <time>2016-11-08T10:01:46Z</time>
      </trkpt>
      <trkpt lat="45.88877" lon="4.74237">
        <ele>187</ele>
        <time>2016-11-08T10:01:47Z</time>
      </trkpt>
      <trkpt lat="45.8887" lon="4.74234">
        <ele>187</ele>
        <time>2016-11-08T10:01:48Z</time>
      </trkpt>
      <trkpt lat="45.88866" lon="4.74228">
        <ele>187</ele>
        <time>2016-11-08T10:01:49Z</time>
      </trkpt>
      <trkpt lat="45.88861" lon="4.74221">
        <ele>187</ele>
        <time>2016-11-08T10:01:50Z</time>
      </trkpt>
      <trkpt lat="45.88858" lon="4.7422">
        <ele>187</ele>
        <time>2016-11-08T10:01:51Z</time>
      </trkpt>
      <trkpt lat="45.88854" lon="4.74217">
        <ele>187</ele>
        <time>2016-11-08T10:01:52Z</time>
      </trkpt>
      <trkpt lat="45.8885" lon="4.74213">
        <ele>187</ele>
        <time>2016-11-08T10:01:53Z</time>
      </trkpt>
      <trkpt lat="45.88845" lon="4.7421">
        <ele>187</ele>
        <time>2016-11-08T10:01:54Z</time>
      </trkpt>
      <trkpt lat="45.8884" lon="4.74206">
        <ele>187</ele>
        <time>2016-11-08T10:01:55Z</time>
      </trkpt>
      <trkpt lat="45.88835" lon="4.74203">
        <ele>187</ele>
        <time>2016-11-08T10:01:56Z</time>
      </trkpt>
      <trkpt lat="45.88831" lon="4.742">
        <ele>187</ele>
        <time>2016-11-08T10:01:57Z</time>
      </trkpt>
      <trkpt lat="45.88826" lon="4.74197">
        <ele>187</ele>
        <time>2016-11-08T10:01:58Z</time>
      </trkpt>
      <trkpt lat="45.88822" lon="4.74194">
        <ele>187</ele>
        <time>2016-11-08T10:01:59Z</time>
      </trkpt>
      <trkpt lat="45.88817" lon="4.74191">
        <ele>187</ele>
        <time>2016-11-08T10:02:00Z</time>
      </trkpt>
      <trkpt lat="45.88813" lon="4.74188">
        <ele>187</ele>
        <time>2016-11-08T10:02:01Z</time>
      </trkpt>
      <trkpt lat="45.88808" lon="4.74186">
        <ele>187</ele>
        <time>2016-11-08T10:02:02Z</time>
      </trkpt>
      <trkpt lat="45.88803" lon="4.74184">
        <ele>187</ele>
        <time>2016-11-08T10:02:03Z</time>
      </trkpt>
      <trkpt lat="45.88798" lon="4.74182">
        <ele>187</ele>
        <time>2016-11-08T10:02:04Z</time>
      </trkpt>
      <trkpt lat="45.88794" lon="4.74179">
        <ele>187</ele>
        <time>2016-11-08T10:02:05Z</time>
      </trkpt>
      <trkpt lat="45.88789" lon="4.74176">
        <ele>188</ele>
        <time>2016-11-08T10:02:06Z</time>
      </trkpt>
      <trkpt lat="45.88784" lon="4.74174">
        <ele>188</ele>
        <time>2016-11-08T10:02:07Z</time>
      </trkpt>
      <trkpt lat="45.88779" lon="4.74172">
        <ele>188</ele>
        <time>2016-11-08T10:02:08Z</time>
      </trkpt>
      <trkpt lat="45.88775" lon="4.74169">
        <ele>188</ele>
        <time>2016-11-08T10:02:09Z</time>
      </trkpt>
      <trkpt lat="45.8877" lon="4.74166">
        <ele>187</ele>
        <time>2016-11-08T10:02:10Z</time>
      </trkpt>
      <trkpt lat="45.88766" lon="4.74163">
        <ele>187</ele>
        <time>2016-11-08T10:02:11Z</time>
      </trkpt>
      <trkpt lat="45.88762" lon="4.7416">
        <ele>187</ele>
        <time>2016-11-08T10:02:12Z</time>
      </trkpt>
      <trkpt lat="45.88758" lon="4.74157">
        <ele>187</ele>
        <time>2016-11-08T10:02:13Z</time>
      </trkpt>
      <trkpt lat="45.88753" lon="4.74154">
        <ele>187</ele>
        <time>2016-11-08T10:02:14Z</time>
      </trkpt>
      <trkpt lat="45.88749" lon="4.74151">
        <ele>188</ele>
        <time>2016-11-08T10:02:15Z</time>
      </trkpt>
      <trkpt lat="45.88745" lon="4.74148">
        <ele>188</ele>
        <time>2016-11-08T10:02:16Z</time>
      </trkpt>
      <trkpt lat="45.8874" lon="4.74145">
        <ele>188</ele>
        <time>2016-11-08T10:02:17Z</time>
      </trkpt>
      <trkpt lat="45.88736" lon="4.74142">
        <ele>188</ele>
        <time>2016-11-08T10:02:18Z</time>
      </trkpt>
      <trkpt lat="45.88732" lon="4.74139">
        <ele>188</ele>
        <time>2016-11-08T10:02:19Z</time>
      </trkpt>
      <trkpt lat="45.88727" lon="4.74135">
        <ele>188</ele>
        <time>2016-11-08T10:02:20Z</time>
      </trkpt>
      <trkpt lat="45.88723" lon="4.7413">
        <ele>188</ele>
        <time>2016-11-08T10:02:21Z</time>
      </trkpt>
      <trkpt lat="45.88719" lon="4.74126">
        <ele>188</ele>
        <time>2016-11-08T10:02:22Z</time>
      </trkpt>
      <trkpt lat="45.88714" lon="4.74122">
        <ele>188</ele>
        <time>2016-11-08T10:02:23Z</time>
      </trkpt>
      <trkpt lat="45.88706" lon="4.74114">
        <ele>188</ele>
        <time>2016-11-08T10:02:25Z</time>
      </trkpt>
      <trkpt lat="45.88701" lon="4.74111">
        <ele>188</ele>
        <time>2016-11-08T10:02:26Z</time>
      </trkpt>
      <trkpt lat="45.88696" lon="4.74109">
        <ele>188</ele>
        <time>2016-11-08T10:02:27Z</time>
      </trkpt>
      <trkpt lat="45.88691" lon="4.74108">
        <ele>188</ele>
        <time>2016-11-08T10:02:28Z</time>
      </trkpt>
      <trkpt lat="45.88668" lon="4.74085">
        <ele>188</ele>
        <time>2016-11-08T10:02:34Z</time>
      </trkpt>
      <trkpt lat="45.88666" lon="4.74078">
        <ele>188</ele>
        <time>2016-11-08T10:02:35Z</time>
      </trkpt>
      <trkpt lat="45.88663" lon="4.74071">
        <ele>188</ele>
        <time>2016-11-08T10:02:36Z</time>
      </trkpt>
      <trkpt lat="45.88661" lon="4.74065">
        <ele>188</ele>
        <time>2016-11-08T10:02:37Z</time>
      </trkpt>
      <trkpt lat="45.88659" lon="4.74058">
        <ele>187</ele>
        <time>2016-11-08T10:02:38Z</time>
      </trkpt>
      <trkpt lat="45.88657" lon="4.7405">
        <ele>187</ele>
        <time>2016-11-08T10:02:39Z</time>
      </trkpt>
      <trkpt lat="45.88655" lon="4.74043">
        <ele>187</ele>
        <time>2016-11-08T10:02:40Z</time>
      </trkpt>
      <trkpt lat="45.88653" lon="4.74035">
        <ele>187</ele>
        <time>2016-11-08T10:02:41Z</time>
      </trkpt>
      <trkpt lat="45.88652" lon="4.74028">
        <ele>187</ele>
        <time>2016-11-08T10:02:42Z</time>
      </trkpt>
      <trkpt lat="45.8865" lon="4.74012">
        <ele>187</ele>
        <time>2016-11-08T10:02:44Z</time>
      </trkpt>
      <trkpt lat="45.88649" lon="4.74005">
        <ele>187</ele>
        <time>2016-11-08T10:02:45Z</time>
      </trkpt>
      <trkpt lat="45.88648" lon="4.73996">
        <ele>186</ele>
        <time>2016-11-08T10:02:46Z</time>
      </trkpt>
      <trkpt lat="45.88647" lon="4.73988">
        <ele>187</ele>
        <time>2016-11-08T10:02:47Z</time>
      </trkpt>
      <trkpt lat="45.88647" lon="4.7398">
        <ele>187</ele>
        <time>2016-11-08T10:02:48Z</time>
      </trkpt>
      <trkpt lat="45.88646" lon="4.73973">
        <ele>187</ele>
        <time>2016-11-08T10:02:49Z</time>
      </trkpt>
      <trkpt lat="45.88645" lon="4.73966">
        <ele>187</ele>
        <time>2016-11-08T10:02:50Z</time>
      </trkpt>
      <trkpt lat="45.88644" lon="4.73959">
        <ele>187</ele>
        <time>2016-11-08T10:02:51Z</time>
      </trkpt>
      <trkpt lat="45.88643" lon="4.73951">
        <ele>187</ele>
        <time>2016-11-08T10:02:52Z</time>
      </trkpt>
      <trkpt lat="45.88643" lon="4.73944">
        <ele>187</ele>
        <time>2016-11-08T10:02:53Z</time>
      </trkpt>
      <trkpt lat="45.88643" lon="4.73936">
        <ele>187</ele>
        <time>2016-11-08T10:02:54Z</time>
      </trkpt>
      <trkpt lat="45.88643" lon="4.73929">
        <ele>187</ele>
        <time>2016-11-08T10:02:55Z</time>
      </trkpt>
      <trkpt lat="45.88642" lon="4.73921">
        <ele>187</ele>
        <time>2016-11-08T10:02:56Z</time>
      </trkpt>
      <trkpt lat="45.88642" lon="4.73914">
        <ele>187</ele>
        <time>2016-11-08T10:02:57Z</time>
      </trkpt>
      <trkpt lat="45.88642" lon="4.73906">
        <ele>187</ele>
        <time>2016-11-08T10:02:58Z</time>
      </trkpt>
      <trkpt lat="45.88642" lon="4.73898">
        <ele>187</ele>
        <time>2016-11-08T10:02:59Z</time>
      </trkpt>
      <trkpt lat="45.88642" lon="4.73891">
        <ele>187</ele>
        <time>2016-11-08T10:03:00Z</time>
      </trkpt>
      <trkpt lat="45.88643" lon="4.73884">
        <ele>187</ele>
        <time>2016-11-08T10:03:01Z</time>
      </trkpt>
      <trkpt lat="45.88643" lon="4.73877">
        <ele>187</ele>
        <time>2016-11-08T10:03:02Z</time>
      </trkpt>
      <trkpt lat="45.88643" lon="4.73869">
        <ele>187</ele>
        <time>2016-11-08T10:03:03Z</time>
      </trkpt>
      <trkpt lat="45.88643" lon="4.73862">
        <ele>187</ele>
        <time>2016-11-08T10:03:04Z</time>
      </trkpt>
      <trkpt lat="45.88643" lon="4.73855">
        <ele>187</ele>
        <time>2016-11-08T10:03:05Z</time>
      </trkpt>
      <trkpt lat="45.88643" lon="4.73848">
        <ele>187</ele>
        <time>2016-11-08T10:03:06Z</time>
      </trkpt>
      <trkpt lat="45.88643" lon="4.7384">
        <ele>187</ele>
        <time>2016-11-08T10:03:07Z</time>
      </trkpt>
      <trkpt lat="45.88643" lon="4.73833">
        <ele>187</ele>
        <time>2016-11-08T10:03:08Z</time>
      </trkpt>
      <trkpt lat="45.88644" lon="4.73825">
        <ele>187</ele>
        <time>2016-11-08T10:03:09Z</time>
      </trkpt>
      <trkpt lat="45.88644" lon="4.73818">
        <ele>187</ele>
        <time>2016-11-08T10:03:10Z</time>
      </trkpt>
      <trkpt lat="45.88643" lon="4.73811">
        <ele>187</ele>
        <time>2016-11-08T10:03:11Z</time>
      </trkpt>
      <trkpt lat="45.88644" lon="4.73804">
        <ele>187</ele>
        <time>2016-11-08T10:03:12Z</time>
      </trkpt>
      <trkpt lat="45.88644" lon="4.73797">
        <ele>187</ele>
        <time>2016-11-08T10:03:13Z</time>
      </trkpt>
      <trkpt lat="45.88644" lon="4.7379">
        <ele>187</ele>
        <time>2016-11-08T10:03:14Z</time>
      </trkpt>
      <trkpt lat="45.88645" lon="4.73778">
        <ele>187</ele>
        <time>2016-11-08T10:03:16Z</time>
      </trkpt>
      <trkpt lat="45.88645" lon="4.73772">
        <ele>187</ele>
        <time>2016-11-08T10:03:17Z</time>
      </trkpt>
      <trkpt lat="45.88646" lon="4.7376">
        <ele>187</ele>
        <time>2016-11-08T10:03:19Z</time>
      </trkpt>
      <trkpt lat="45.88647" lon="4.73754">
        <ele>187</ele>
        <time>2016-11-08T10:03:20Z</time>
      </trkpt>
      <trkpt lat="45.88647" lon="4.73743">
        <ele>187</ele>
        <time>2016-11-08T10:03:22Z</time>
      </trkpt>
      <trkpt lat="45.88647" lon="4.73737">
        <ele>187</ele>
        <time>2016-11-08T10:03:23Z</time>
      </trkpt>
      <trkpt lat="45.88648" lon="4.73726">
        <ele>186</ele>
        <time>2016-11-08T10:03:25Z</time>
      </trkpt>
      <trkpt lat="45.88648" lon="4.7372">
        <ele>186</ele>
        <time>2016-11-08T10:03:26Z</time>
      </trkpt>
      <trkpt lat="45.88648" lon="4.73709">
        <ele>186</ele>
        <time>2016-11-08T10:03:28Z</time>
      </trkpt>
      <trkpt lat="45.88648" lon="4.73704">
        <ele>186</ele>
        <time>2016-11-08T10:03:29Z</time>
      </trkpt>
      <trkpt lat="45.88648" lon="4.73693">
        <ele>186</ele>
        <time>2016-11-08T10:03:31Z</time>
      </trkpt>
      <trkpt lat="45.88648" lon="4.73686">
        <ele>186</ele>
        <time>2016-11-08T10:03:32Z</time>
      </trkpt>
      <trkpt lat="45.88648" lon="4.73675">
        <ele>186</ele>
        <time>2016-11-08T10:03:34Z</time>
      </trkpt>
      <trkpt lat="45.88648" lon="4.73669">
        <ele>186</ele>
        <time>2016-11-08T10:03:35Z</time>
      </trkpt>
      <trkpt lat="45.88648" lon="4.73656">
        <ele>186</ele>
        <time>2016-11-08T10:03:37Z</time>
      </trkpt>
      <trkpt lat="45.88648" lon="4.7365">
        <ele>186</ele>
        <time>2016-11-08T10:03:38Z</time>
      </trkpt>
      <trkpt lat="45.88648" lon="4.73644">
        <ele>186</ele>
        <time>2016-11-08T10:03:39Z</time>
      </trkpt>
      <trkpt lat="45.88648" lon="4.73637">
        <ele>186</ele>
        <time>2016-11-08T10:03:40Z</time>
      </trkpt>
      <trkpt lat="45.88648" lon="4.7363">
        <ele>186</ele>
        <time>2016-11-08T10:03:41Z</time>
      </trkpt>
      <trkpt lat="45.88648" lon="4.73624">
        <ele>186</ele>
        <time>2016-11-08T10:03:42Z</time>
      </trkpt>
      <trkpt lat="45.88649" lon="4.73617">
        <ele>186</ele>
        <time>2016-11-08T10:03:43Z</time>
      </trkpt>
      <trkpt lat="45.88649" lon="4.7361">
        <ele>186</ele>
        <time>2016-11-08T10:03:44Z</time>
      </trkpt>
      <trkpt lat="45.88649" lon="4.73602">
        <ele>186</ele>
        <time>2016-11-08T10:03:45Z</time>
      </trkpt>
      <trkpt lat="45.88649" lon="4.73594">
        <ele>185</ele>
        <time>2016-11-08T10:03:46Z</time>
      </trkpt>
      <trkpt lat="45.88649" lon="4.73587">
        <ele>185</ele>
        <time>2016-11-08T10:03:47Z</time>
      </trkpt>
      <trkpt lat="45.88649" lon="4.73578">
        <ele>185</ele>
        <time>2016-11-08T10:03:48Z</time>
      </trkpt>
      <trkpt lat="45.8865" lon="4.7357">
        <ele>185</ele>
        <time>2016-11-08T10:03:49Z</time>
      </trkpt>
      <trkpt lat="45.8865" lon="4.73561">
        <ele>185</ele>
        <time>2016-11-08T10:03:50Z</time>
      </trkpt>
      <trkpt lat="45.88649" lon="4.73553">
        <ele>185</ele>
        <time>2016-11-08T10:03:51Z</time>
      </trkpt>
      <trkpt lat="45.88649" lon="4.73543">
        <ele>185</ele>
        <time>2016-11-08T10:03:52Z</time>
      </trkpt>
      <trkpt lat="45.8865" lon="4.73534">
        <ele>185</ele>
        <time>2016-11-08T10:03:53Z</time>
      </trkpt>
      <trkpt lat="45.88651" lon="4.73524">
        <ele>185</ele>
        <time>2016-11-08T10:03:54Z</time>
      </trkpt>
      <trkpt lat="45.88652" lon="4.73515">
        <ele>185</ele>
        <time>2016-11-08T10:03:55Z</time>
      </trkpt>
      <trkpt lat="45.88655" lon="4.73505">
        <ele>184</ele>
        <time>2016-11-08T10:03:56Z</time>
      </trkpt>
      <trkpt lat="45.88657" lon="4.73495">
        <ele>184</ele>
        <time>2016-11-08T10:03:57Z</time>
      </trkpt>
      <trkpt lat="45.88659" lon="4.73484">
        <ele>184</ele>
        <time>2016-11-08T10:03:58Z</time>
      </trkpt>
      <trkpt lat="45.88661" lon="4.73474">
        <ele>184</ele>
        <time>2016-11-08T10:03:59Z</time>
      </trkpt>
      <trkpt lat="45.88661" lon="4.73463">
        <ele>184</ele>
        <time>2016-11-08T10:04:00Z</time>
      </trkpt>
      <trkpt lat="45.8866" lon="4.73453">
        <ele>184</ele>
        <time>2016-11-08T10:04:01Z</time>
      </trkpt>
      <trkpt lat="45.88659" lon="4.73443">
        <ele>184</ele>
        <time>2016-11-08T10:04:02Z</time>
      </trkpt>
      <trkpt lat="45.88658" lon="4.73433">
        <ele>184</ele>
        <time>2016-11-08T10:04:03Z</time>
      </trkpt>
      <trkpt lat="45.88656" lon="4.73424">
        <ele>184</ele>
        <time>2016-11-08T10:04:04Z</time>
      </trkpt>
      <trkpt lat="45.88654" lon="4.73414">
        <ele>184</ele>
        <time>2016-11-08T10:04:05Z</time>
      </trkpt>
      <trkpt lat="45.88651" lon="4.73405">
        <ele>184</ele>
        <time>2016-11-08T10:04:06Z</time>
      </trkpt>
      <trkpt lat="45.88648" lon="4.73397">
        <ele>184</ele>
        <time>2016-11-08T10:04:07Z</time>
      </trkpt>
      <trkpt lat="45.88644" lon="4.7339">
        <ele>184</ele>
        <time>2016-11-08T10:04:08Z</time>
      </trkpt>
      <trkpt lat="45.88639" lon="4.73384">
        <ele>184</ele>
        <time>2016-11-08T10:04:09Z</time>
      </trkpt>
      <trkpt lat="45.88633" lon="4.73381">
        <ele>184</ele>
        <time>2016-11-08T10:04:10Z</time>
      </trkpt>
      <trkpt lat="45.88627" lon="4.7338">
        <ele>183</ele>
        <time>2016-11-08T10:04:11Z</time>
      </trkpt>
      <trkpt lat="45.88621" lon="4.73381">
        <ele>183</ele>
        <time>2016-11-08T10:04:12Z</time>
      </trkpt>
      <trkpt lat="45.88615" lon="4.73382">
        <ele>183</ele>
        <time>2016-11-08T10:04:13Z</time>
      </trkpt>
      <trkpt lat="45.88609" lon="4.73384">
        <ele>183</ele>
        <time>2016-11-08T10:04:14Z</time>
      </trkpt>
      <trkpt lat="45.88603" lon="4.73386">
        <ele>183</ele>
        <time>2016-11-08T10:04:15Z</time>
      </trkpt>
      <trkpt lat="45.88598" lon="4.73388">
        <ele>183</ele>
        <time>2016-11-08T10:04:16Z</time>
      </trkpt>
      <trkpt lat="45.88592" lon="4.73389">
        <ele>183</ele>
        <time>2016-11-08T10:04:17Z</time>
      </trkpt>
      <trkpt lat="45.88586" lon="4.73391">
        <ele>183</ele>
        <time>2016-11-08T10:04:18Z</time>
      </trkpt>
      <trkpt lat="45.8858" lon="4.73393">
        <ele>183</ele>
        <time>2016-11-08T10:04:19Z</time>
      </trkpt>
      <trkpt lat="45.88575" lon="4.73395">
        <ele>183</ele>
        <time>2016-11-08T10:04:20Z</time>
      </trkpt>
      <trkpt lat="45.88569" lon="4.73396">
        <ele>183</ele>
        <time>2016-11-08T10:04:21Z</time>
      </trkpt>
      <trkpt lat="45.88564" lon="4.73398">
        <ele>183</ele>
        <time>2016-11-08T10:04:22Z</time>
      </trkpt>
      <trkpt lat="45.88558" lon="4.734">
        <ele>183</ele>
        <time>2016-11-08T10:04:23Z</time>
      </trkpt>
      <trkpt lat="45.88552" lon="4.73401">
        <ele>183</ele>
        <time>2016-11-08T10:04:24Z</time>
      </trkpt>
      <trkpt lat="45.88547" lon="4.73403">
        <ele>183</ele>
        <time>2016-11-08T10:04:25Z</time>
      </trkpt>
      <trkpt lat="45.88541" lon="4.73404">
        <ele>183</ele>
        <time>2016-11-08T10:04:26Z</time>
      </trkpt>
      <trkpt lat="45.88535" lon="4.73405">
        <ele>183</ele>
        <time>2016-11-08T10:04:27Z</time>
      </trkpt>
      <trkpt lat="45.88529" lon="4.73407">
        <ele>183</ele>
        <time>2016-11-08T10:04:28Z</time>
      </trkpt>
      <trkpt lat="45.88523" lon="4.73409">
        <ele>183</ele>
        <time>2016-11-08T10:04:29Z</time>
      </trkpt>
      <trkpt lat="45.88517" lon="4.7341">
        <ele>184</ele>
        <time>2016-11-08T10:04:30Z</time>
      </trkpt>
      <trkpt lat="45.88512" lon="4.73412">
        <ele>184</ele>
        <time>2016-11-08T10:04:31Z</time>
      </trkpt>
      <trkpt lat="45.88507" lon="4.73414">
        <ele>184</ele>
        <time>2016-11-08T10:04:32Z</time>
      </trkpt>
      <trkpt lat="45.88502" lon="4.73416">
        <ele>184</ele>
        <time>2016-11-08T10:04:33Z</time>
      </trkpt>
      <trkpt lat="45.88498" lon="4.73418">
        <ele>184</ele>
        <time>2016-11-08T10:04:34Z</time>
      </trkpt>
      <trkpt lat="45.88493" lon="4.73419">
        <ele>184</ele>
        <time>2016-11-08T10:04:35Z</time>
      </trkpt>
      <trkpt lat="45.88488" lon="4.7342">
        <ele>184</ele>
        <time>2016-11-08T10:04:36Z</time>
      </trkpt>
      <trkpt lat="45.88483" lon="4.73421">
        <ele>184</ele>
        <time>2016-11-08T10:04:37Z</time>
      </trkpt>
      <trkpt lat="45.88477" lon="4.73423">
        <ele>184</ele>
        <time>2016-11-08T10:04:38Z</time>
      </trkpt>
      <trkpt lat="45.88472" lon="4.73424">
        <ele>184</ele>
        <time>2016-11-08T10:04:39Z</time>
      </trkpt>
      <trkpt lat="45.88466" lon="4.73426">
        <ele>184</ele>
        <time>2016-11-08T10:04:40Z</time>
      </trkpt>
      <trkpt lat="45.8846" lon="4.73428">
        <ele>184</ele>
        <time>2016-11-08T10:04:41Z</time>
      </trkpt>
      <trkpt lat="45.88455" lon="4.7343">
        <ele>184</ele>
        <time>2016-11-08T10:04:42Z</time>
      </trkpt>
      <trkpt lat="45.88449" lon="4.73432">
        <ele>184</ele>
        <time>2016-11-08T10:04:43Z</time>
      </trkpt>
      <trkpt lat="45.88444" lon="4.73433">
        <ele>184</ele>
        <time>2016-11-08T10:04:44Z</time>
      </trkpt>
      <trkpt lat="45.88439" lon="4.73434">
        <ele>184</ele>
        <time>2016-11-08T10:04:45Z</time>
      </trkpt>
      <trkpt lat="45.88434" lon="4.73435">
        <ele>184</ele>
        <time>2016-11-08T10:04:46Z</time>
      </trkpt>
      <trkpt lat="45.88429" lon="4.73437">
        <ele>184</ele>
        <time>2016-11-08T10:04:47Z</time>
      </trkpt>
      <trkpt lat="45.88424" lon="4.73438">
        <ele>184</ele>
        <time>2016-11-08T10:04:48Z</time>
      </trkpt>
      <trkpt lat="45.88419" lon="4.7344">
        <ele>184</ele>
        <time>2016-11-08T10:04:49Z</time>
      </trkpt>
      <trkpt lat="45.88414" lon="4.73442">
        <ele>184</ele>
        <time>2016-11-08T10:04:50Z</time>
      </trkpt>
      <trkpt lat="45.88409" lon="4.73444">
        <ele>184</ele>
        <time>2016-11-08T10:04:51Z</time>
      </trkpt>
      <trkpt lat="45.88404" lon="4.73445">
        <ele>184</ele>
        <time>2016-11-08T10:04:52Z</time>
      </trkpt>
      <trkpt lat="45.88399" lon="4.73446">
        <ele>184</ele>
        <time>2016-11-08T10:04:53Z</time>
      </trkpt>
      <trkpt lat="45.88394" lon="4.73448">
        <ele>184</ele>
        <time>2016-11-08T10:04:54Z</time>
      </trkpt>
      <trkpt lat="45.88388" lon="4.73449">
        <ele>184</ele>
        <time>2016-11-08T10:04:55Z</time>
      </trkpt>
      <trkpt lat="45.88383" lon="4.73451">
        <ele>184</ele>
        <time>2016-11-08T10:04:56Z</time>
      </trkpt>
      <trkpt lat="45.88378" lon="4.73452">
        <ele>184</ele>
        <time>2016-11-08T10:04:57Z</time>
      </trkpt>
      <trkpt lat="45.88373" lon="4.73453">
        <ele>184</ele>
        <time>2016-11-08T10:04:58Z</time>
      </trkpt>
      <trkpt lat="45.88368" lon="4.73455">
        <ele>184</ele>
        <time>2016-11-08T10:04:59Z</time>
      </trkpt>
      <trkpt lat="45.88362" lon="4.73456">
        <ele>184</ele>
        <time>2016-11-08T10:05:00Z</time>
      </trkpt>
      <trkpt lat="45.88357" lon="4.73458">
        <ele>184</ele>
        <time>2016-11-08T10:05:01Z</time>
      </trkpt>
      <trkpt lat="45.88351" lon="4.73459">
        <ele>184</ele>
        <time>2016-11-08T10:05:02Z</time>
      </trkpt>
      <trkpt lat="45.88346" lon="4.73461">
        <ele>184</ele>
        <time>2016-11-08T10:05:03Z</time>
      </trkpt>
      <trkpt lat="45.8834" lon="4.73463">
        <ele>184</ele>
        <time>2016-11-08T10:05:04Z</time>
      </trkpt>
      <trkpt lat="45.88335" lon="4.73464">
        <ele>184</ele>
        <time>2016-11-08T10:05:05Z</time>
      </trkpt>
      <trkpt lat="45.8833" lon="4.73465">
        <ele>184</ele>
        <time>2016-11-08T10:05:06Z</time>
      </trkpt>
      <trkpt lat="45.88325" lon="4.73467">
        <ele>184</ele>
        <time>2016-11-08T10:05:07Z</time>
      </trkpt>
      <trkpt lat="45.8832" lon="4.73468">
        <ele>184</ele>
        <time>2016-11-08T10:05:08Z</time>
      </trkpt>
      <trkpt lat="45.88315" lon="4.73469">
        <ele>184</ele>
        <time>2016-11-08T10:05:09Z</time>
      </trkpt>
      <trkpt lat="45.8831" lon="4.73471">
        <ele>184</ele>
        <time>2016-11-08T10:05:10Z</time>
      </trkpt>
      <trkpt lat="45.88306" lon="4.73473">
        <ele>184</ele>
        <time>2016-11-08T10:05:11Z</time>
      </trkpt>
      <trkpt lat="45.88301" lon="4.73475">
        <ele>184</ele>
        <time>2016-11-08T10:05:12Z</time>
      </trkpt>
      <trkpt lat="45.88297" lon="4.73478">
        <ele>184</ele>
        <time>2016-11-08T10:05:13Z</time>
      </trkpt>
      <trkpt lat="45.88292" lon="4.7348">
        <ele>184</ele>
        <time>2016-11-08T10:05:14Z</time>
      </trkpt>
      <trkpt lat="45.88287" lon="4.73483">
        <ele>184</ele>
        <time>2016-11-08T10:05:15Z</time>
      </trkpt>
      <trkpt lat="45.88282" lon="4.73485">
        <ele>184</ele>
        <time>2016-11-08T10:05:16Z</time>
      </trkpt>
      <trkpt lat="45.88277" lon="4.73488">
        <ele>184</ele>
        <time>2016-11-08T10:05:17Z</time>
      </trkpt>
      <trkpt lat="45.88272" lon="4.7349">
        <ele>184</ele>
        <time>2016-11-08T10:05:18Z</time>
      </trkpt>
      <trkpt lat="45.88268" lon="4.73494">
        <ele>184</ele>
        <time>2016-11-08T10:05:19Z</time>
      </trkpt>
      <trkpt lat="45.88263" lon="4.73497">
        <ele>185</ele>
        <time>2016-11-08T10:05:20Z</time>
      </trkpt>
      <trkpt lat="45.88258" lon="4.735">
        <ele>185</ele>
        <time>2016-11-08T10:05:21Z</time>
      </trkpt>
      <trkpt lat="45.88254" lon="4.73504">
        <ele>185</ele>
        <time>2016-11-08T10:05:22Z</time>
      </trkpt>
      <trkpt lat="45.88249" lon="4.73507">
        <ele>185</ele>
        <time>2016-11-08T10:05:23Z</time>
      </trkpt>
      <trkpt lat="45.88244" lon="4.7351">
        <ele>185</ele>
        <time>2016-11-08T10:05:24Z</time>
      </trkpt>
      <trkpt lat="45.88239" lon="4.73513">
        <ele>185</ele>
        <time>2016-11-08T10:05:25Z</time>
      </trkpt>
      <trkpt lat="45.88234" lon="4.73516">
        <ele>185</ele>
        <time>2016-11-08T10:05:26Z</time>
      </trkpt>
      <trkpt lat="45.88229" lon="4.73519">
        <ele>185</ele>
        <time>2016-11-08T10:05:27Z</time>
      </trkpt>
      <trkpt lat="45.88225" lon="4.73522">
        <ele>185</ele>
        <time>2016-11-08T10:05:28Z</time>
      </trkpt>
      <trkpt lat="45.8822" lon="4.73525">
        <ele>185</ele>
        <time>2016-11-08T10:05:29Z</time>
      </trkpt>
      <trkpt lat="45.88216" lon="4.73528">
        <ele>185</ele>
        <time>2016-11-08T10:05:30Z</time>
      </trkpt>
      <trkpt lat="45.88212" lon="4.73531">
        <ele>185</ele>
        <time>2016-11-08T10:05:31Z</time>
      </trkpt>
      <trkpt lat="45.88207" lon="4.73533">
        <ele>186</ele>
        <time>2016-11-08T10:05:32Z</time>
      </trkpt>
      <trkpt lat="45.88203" lon="4.73536">
        <ele>186</ele>
        <time>2016-11-08T10:05:33Z</time>
      </trkpt>
      <trkpt lat="45.88198" lon="4.7354">
        <ele>186</ele>
        <time>2016-11-08T10:05:34Z</time>
      </trkpt>
      <trkpt lat="45.88194" lon="4.73543">
        <ele>186</ele>
        <time>2016-11-08T10:05:35Z</time>
      </trkpt>
      <trkpt lat="45.88189" lon="4.73546">
        <ele>186</ele>
        <time>2016-11-08T10:05:36Z</time>
      </trkpt>
      <trkpt lat="45.88185" lon="4.73549">
        <ele>186</ele>
        <time>2016-11-08T10:05:37Z</time>
      </trkpt>
      <trkpt lat="45.88181" lon="4.73552">
        <ele>186</ele>
        <time>2016-11-08T10:05:38Z</time>
      </trkpt>
      <trkpt lat="45.88176" lon="4.73555">
        <ele>186</ele>
        <time>2016-11-08T10:05:39Z</time>
      </trkpt>
      <trkpt lat="45.88172" lon="4.73558">
        <ele>186</ele>
        <time>2016-11-08T10:05:40Z</time>
      </trkpt>
      <trkpt lat="45.88167" lon="4.73561">
        <ele>186</ele>
        <time>2016-11-08T10:05:41Z</time>
      </trkpt>
      <trkpt lat="45.88163" lon="4.73564">
        <ele>186</ele>
        <time>2016-11-08T10:05:42Z</time>
      </trkpt>
      <trkpt lat="45.88158" lon="4.73567">
        <ele>186</ele>
        <time>2016-11-08T10:05:43Z</time>
      </trkpt>
      <trkpt lat="45.88153" lon="4.7357">
        <ele>186</ele>
        <time>2016-11-08T10:05:44Z</time>
      </trkpt>
      <trkpt lat="45.88149" lon="4.73573">
        <ele>186</ele>
        <time>2016-11-08T10:05:45Z</time>
      </trkpt>
      <trkpt lat="45.88144" lon="4.73576">
        <ele>186</ele>
        <time>2016-11-08T10:05:46Z</time>
      </trkpt>
      <trkpt lat="45.8814" lon="4.73579">
        <ele>186</ele>
        <time>2016-11-08T10:05:47Z</time>
      </trkpt>
      <trkpt lat="45.88135" lon="4.73582">
        <ele>186</ele>
        <time>2016-11-08T10:05:48Z</time>
      </trkpt>
      <trkpt lat="45.88131" lon="4.73585">
        <ele>187</ele>
        <time>2016-11-08T10:05:49Z</time>
      </trkpt>
      <trkpt lat="45.88126" lon="4.73588">
        <ele>187</ele>
        <time>2016-11-08T10:05:50Z</time>
      </trkpt>
      <trkpt lat="45.88121" lon="4.73591">
        <ele>187</ele>
        <time>2016-11-08T10:05:51Z</time>
      </trkpt>
      <trkpt lat="45.88117" lon="4.73594">
        <ele>187</ele>
        <time>2016-11-08T10:05:52Z</time>
      </trkpt>
      <trkpt lat="45.88112" lon="4.73597">
        <ele>187</ele>
        <time>2016-11-08T10:05:53Z</time>
      </trkpt>
      <trkpt lat="45.88108" lon="4.73601">
        <ele>188</ele>
        <time>2016-11-08T10:05:54Z</time>
      </trkpt>
      <trkpt lat="45.88103" lon="4.73604">
        <ele>188</ele>
        <time>2016-11-08T10:05:55Z</time>
      </trkpt>
      <trkpt lat="45.88099" lon="4.73608">
        <ele>188</ele>
        <time>2016-11-08T10:05:56Z</time>
      </trkpt>
      <trkpt lat="45.88094" lon="4.73611">
        <ele>188</ele>
        <time>2016-11-08T10:05:57Z</time>
      </trkpt>
      <trkpt lat="45.88089" lon="4.73615">
        <ele>188</ele>
        <time>2016-11-08T10:05:58Z</time>
      </trkpt>
      <trkpt lat="45.88084" lon="4.73618">
        <ele>188</ele>
        <time>2016-11-08T10:05:59Z</time>
      </trkpt>
      <trkpt lat="45.88079" lon="4.73621">
        <ele>189</ele>
        <time>2016-11-08T10:06:00Z</time>
      </trkpt>
      <trkpt lat="45.88074" lon="4.73624">
        <ele>189</ele>
        <time>2016-11-08T10:06:01Z</time>
      </trkpt>
      <trkpt lat="45.88069" lon="4.73627">
        <ele>189</ele>
        <time>2016-11-08T10:06:02Z</time>
      </trkpt>
      <trkpt lat="45.88064" lon="4.7363">
        <ele>189</ele>
        <time>2016-11-08T10:06:03Z</time>
      </trkpt>
      <trkpt lat="45.8806" lon="4.73633">
        <ele>189</ele>
        <time>2016-11-08T10:06:04Z</time>
      </trkpt>
      <trkpt lat="45.88055" lon="4.73636">
        <ele>189</ele>
        <time>2016-11-08T10:06:05Z</time>
      </trkpt>
      <trkpt lat="45.8805" lon="4.73639">
        <ele>189</ele>
        <time>2016-11-08T10:06:06Z</time>
      </trkpt>
      <trkpt lat="45.88045" lon="4.73642">
        <ele>189</ele>
        <time>2016-11-08T10:06:07Z</time>
      </trkpt>
      <trkpt lat="45.8804" lon="4.73645">
        <ele>189</ele>
        <time>2016-11-08T10:06:08Z</time>
      </trkpt>
      <trkpt lat="45.88035" lon="4.73648">
        <ele>189</ele>
        <time>2016-11-08T10:06:09Z</time>
      </trkpt>
      <trkpt lat="45.88031" lon="4.73651">
        <ele>189</ele>
        <time>2016-11-08T10:06:10Z</time>
      </trkpt>
      <trkpt lat="45.88025" lon="4.73653">
        <ele>189</ele>
        <time>2016-11-08T10:06:11Z</time>
      </trkpt>
      <trkpt lat="45.8802" lon="4.73655">
        <ele>189</ele>
        <time>2016-11-08T10:06:12Z</time>
      </trkpt>
      <trkpt lat="45.88015" lon="4.73655">
        <ele>189</ele>
        <time>2016-11-08T10:06:13Z</time>
      </trkpt>
      <trkpt lat="45.88009" lon="4.73654">
        <ele>189</ele>
        <time>2016-11-08T10:06:14Z</time>
      </trkpt>
      <trkpt lat="45.88004" lon="4.73653">
        <ele>189</ele>
        <time>2016-11-08T10:06:15Z</time>
      </trkpt>
      <trkpt lat="45.87998" lon="4.73651">
        <ele>190</ele>
        <time>2016-11-08T10:06:16Z</time>
      </trkpt>
      <trkpt lat="45.87993" lon="4.7365">
        <ele>190</ele>
        <time>2016-11-08T10:06:17Z</time>
      </trkpt>
      <trkpt lat="45.87988" lon="4.73648">
        <ele>190</ele>
        <time>2016-11-08T10:06:18Z</time>
      </trkpt>
      <trkpt lat="45.87982" lon="4.73646">
        <ele>190</ele>
        <time>2016-11-08T10:06:19Z</time>
      </trkpt>
      <trkpt lat="45.87976" lon="4.73644">
        <ele>189</ele>
        <time>2016-11-08T10:06:20Z</time>
      </trkpt>
      <trkpt lat="45.8797" lon="4.73642">
        <ele>189</ele>
        <time>2016-11-08T10:06:21Z</time>
      </trkpt>
      <trkpt lat="45.87964" lon="4.73641">
        <ele>189</ele>
        <time>2016-11-08T10:06:22Z</time>
      </trkpt>
      <trkpt lat="45.87959" lon="4.73639">
        <ele>189</ele>
        <time>2016-11-08T10:06:23Z</time>
      </trkpt>
      <trkpt lat="45.87953" lon="4.73637">
        <ele>189</ele>
        <time>2016-11-08T10:06:24Z</time>
      </trkpt>
      <trkpt lat="45.87948" lon="4.73636">
        <ele>189</ele>
        <time>2016-11-08T10:06:25Z</time>
      </trkpt>
      <trkpt lat="45.87942" lon="4.73634">
        <ele>189</ele>
        <time>2016-11-08T10:06:26Z</time>
      </trkpt>
      <trkpt lat="45.87937" lon="4.73633">
        <ele>189</ele>
        <time>2016-11-08T10:06:27Z</time>
      </trkpt>
      <trkpt lat="45.87932" lon="4.73632">
        <ele>189</ele>
        <time>2016-11-08T10:06:28Z</time>
      </trkpt>
      <trkpt lat="45.87927" lon="4.7363">
        <ele>189</ele>
        <time>2016-11-08T10:06:29Z</time>
      </trkpt>
      <trkpt lat="45.87923" lon="4.73629">
        <ele>189</ele>
        <time>2016-11-08T10:06:30Z</time>
      </trkpt>
      <trkpt lat="45.87918" lon="4.73627">
        <ele>189</ele>
        <time>2016-11-08T10:06:31Z</time>
      </trkpt>
      <trkpt lat="45.87913" lon="4.73626">
        <ele>190</ele>
        <time>2016-11-08T10:06:32Z</time>
      </trkpt>
      <trkpt lat="45.87908" lon="4.73625">
        <ele>190</ele>
        <time>2016-11-08T10:06:33Z</time>
      </trkpt>
      <trkpt lat="45.87902" lon="4.73624">
        <ele>190</ele>
        <time>2016-11-08T10:06:34Z</time>
      </trkpt>
      <trkpt lat="45.87898" lon="4.73622">
        <ele>190</ele>
        <time>2016-11-08T10:06:35Z</time>
      </trkpt>
      <trkpt lat="45.87893" lon="4.73621">
        <ele>190</ele>
        <time>2016-11-08T10:06:36Z</time>
      </trkpt>
      <trkpt lat="45.87888" lon="4.73619">
        <ele>190</ele>
        <time>2016-11-08T10:06:37Z</time>
      </trkpt>
      <trkpt lat="45.87883" lon="4.73617">
        <ele>190</ele>
        <time>2016-11-08T10:06:38Z</time>
      </trkpt>
      <trkpt lat="45.87878" lon="4.73616">
        <ele>190</ele>
        <time>2016-11-08T10:06:39Z</time>
      </trkpt>
      <trkpt lat="45.87873" lon="4.73616">
        <ele>190</ele>
        <time>2016-11-08T10:06:40Z</time>
      </trkpt>
      <trkpt lat="45.87868" lon="4.73617">
        <ele>190</ele>
        <time>2016-11-08T10:06:41Z</time>
      </trkpt>
      <trkpt lat="45.87863" lon="4.73619">
        <ele>190</ele>
        <time>2016-11-08T10:06:42Z</time>
      </trkpt>
      <trkpt lat="45.87858" lon="4.73622">
        <ele>190</ele>
        <time>2016-11-08T10:06:43Z</time>
      </trkpt>
      <trkpt lat="45.87854" lon="4.73625">
        <ele>190</ele>
        <time>2016-11-08T10:06:44Z</time>
      </trkpt>
      <trkpt lat="45.87849" lon="4.73628">
        <ele>191</ele>
        <time>2016-11-08T10:06:45Z</time>
      </trkpt>
      <trkpt lat="45.87846" lon="4.73632">
        <ele>191</ele>
        <time>2016-11-08T10:06:46Z</time>
      </trkpt>
      <trkpt lat="45.87838" lon="4.73631">
        <ele>191</ele>
        <time>2016-11-08T10:06:48Z</time>
      </trkpt>
      <trkpt lat="45.87835" lon="4.73627">
        <ele>191</ele>
        <time>2016-11-08T10:06:49Z</time>
      </trkpt>
      <trkpt lat="45.8783" lon="4.73618">
        <ele>190</ele>
        <time>2016-11-08T10:06:51Z</time>
      </trkpt>
      <trkpt lat="45.87828" lon="4.73611">
        <ele>190</ele>
        <time>2016-11-08T10:06:52Z</time>
      </trkpt>
      <trkpt lat="45.87826" lon="4.73604">
        <ele>190</ele>
        <time>2016-11-08T10:06:53Z</time>
      </trkpt>
      <trkpt lat="45.87823" lon="4.73597">
        <ele>190</ele>
        <time>2016-11-08T10:06:54Z</time>
      </trkpt>
      <trkpt lat="45.87821" lon="4.7359">
        <ele>190</ele>
        <time>2016-11-08T10:06:55Z</time>
      </trkpt>
      <trkpt lat="45.87817" lon="4.73583">
        <ele>189</ele>
        <time>2016-11-08T10:06:56Z</time>
      </trkpt>
      <trkpt lat="45.87814" lon="4.73577">
        <ele>189</ele>
        <time>2016-11-08T10:06:57Z</time>
      </trkpt>
      <trkpt lat="45.8781" lon="4.7357">
        <ele>189</ele>
        <time>2016-11-08T10:06:58Z</time>
      </trkpt>
      <trkpt lat="45.87807" lon="4.73564">
        <ele>189</ele>
        <time>2016-11-08T10:06:59Z</time>
      </trkpt>
      <trkpt lat="45.87804" lon="4.73557">
        <ele>189</ele>
        <time>2016-11-08T10:07:00Z</time>
      </trkpt>
      <trkpt lat="45.87801" lon="4.73551">
        <ele>189</ele>
        <time>2016-11-08T10:07:01Z</time>
      </trkpt>
      <trkpt lat="45.87798" lon="4.73545">
        <ele>189</ele>
        <time>2016-11-08T10:07:02Z</time>
      </trkpt>
      <trkpt lat="45.87795" lon="4.73539">
        <ele>189</ele>
        <time>2016-11-08T10:07:03Z</time>
      </trkpt>
      <trkpt lat="45.87792" lon="4.73533">
        <ele>189</ele>
        <time>2016-11-08T10:07:04Z</time>
      </trkpt>
      <trkpt lat="45.87789" lon="4.73527">
        <ele>189</ele>
        <time>2016-11-08T10:07:05Z</time>
      </trkpt>
      <trkpt lat="45.87786" lon="4.73521">
        <ele>189</ele>
        <time>2016-11-08T10:07:06Z</time>
      </trkpt>
      <trkpt lat="45.87783" lon="4.73515">
        <ele>189</ele>
        <time>2016-11-08T10:07:07Z</time>
      </trkpt>
      <trkpt lat="45.8778" lon="4.73509">
        <ele>189</ele>
        <time>2016-11-08T10:07:08Z</time>
      </trkpt>
      <trkpt lat="45.87777" lon="4.73503">
        <ele>189</ele>
        <time>2016-11-08T10:07:09Z</time>
      </trkpt>
      <trkpt lat="45.87774" lon="4.73497">
        <ele>188</ele>
        <time>2016-11-08T10:07:10Z</time>
      </trkpt>
      <trkpt lat="45.87771" lon="4.73491">
        <ele>188</ele>
        <time>2016-11-08T10:07:11Z</time>
      </trkpt>
      <trkpt lat="45.87768" lon="4.73485">
        <ele>188</ele>
        <time>2016-11-08T10:07:12Z</time>
      </trkpt>
      <trkpt lat="45.87766" lon="4.73479">
        <ele>188</ele>
        <time>2016-11-08T10:07:13Z</time>
      </trkpt>
      <trkpt lat="45.87763" lon="4.73473">
        <ele>188</ele>
        <time>2016-11-08T10:07:14Z</time>
      </trkpt>
      <trkpt lat="45.8776" lon="4.73467">
        <ele>188</ele>
        <time>2016-11-08T10:07:15Z</time>
      </trkpt>
      <trkpt lat="45.87757" lon="4.73461">
        <ele>188</ele>
        <time>2016-11-08T10:07:16Z</time>
      </trkpt>
      <trkpt lat="45.87754" lon="4.73455">
        <ele>188</ele>
        <time>2016-11-08T10:07:17Z</time>
      </trkpt>
      <trkpt lat="45.87752" lon="4.7345">
        <ele>188</ele>
        <time>2016-11-08T10:07:18Z</time>
      </trkpt>
      <trkpt lat="45.87749" lon="4.73444">
        <ele>189</ele>
        <time>2016-11-08T10:07:19Z</time>
      </trkpt>
      <trkpt lat="45.87746" lon="4.73438">
        <ele>189</ele>
        <time>2016-11-08T10:07:20Z</time>
      </trkpt>
      <trkpt lat="45.87743" lon="4.73432">
        <ele>188</ele>
        <time>2016-11-08T10:07:21Z</time>
      </trkpt>
      <trkpt lat="45.8774" lon="4.73425">
        <ele>188</ele>
        <time>2016-11-08T10:07:22Z</time>
      </trkpt>
      <trkpt lat="45.87738" lon="4.73418">
        <ele>188</ele>
        <time>2016-11-08T10:07:23Z</time>
      </trkpt>
      <trkpt lat="45.87735" lon="4.73412">
        <ele>188</ele>
        <time>2016-11-08T10:07:24Z</time>
      </trkpt>
      <trkpt lat="45.87732" lon="4.73406">
        <ele>188</ele>
        <time>2016-11-08T10:07:25Z</time>
      </trkpt>
      <trkpt lat="45.87729" lon="4.734">
        <ele>188</ele>
        <time>2016-11-08T10:07:26Z</time>
      </trkpt>
      <trkpt lat="45.87726" lon="4.73393">
        <ele>188</ele>
        <time>2016-11-08T10:07:27Z</time>
      </trkpt>
      <trkpt lat="45.87723" lon="4.73388">
        <ele>188</ele>
        <time>2016-11-08T10:07:28Z</time>
      </trkpt>
      <trkpt lat="45.8772" lon="4.73382">
        <ele>187</ele>
        <time>2016-11-08T10:07:29Z</time>
      </trkpt>
      <trkpt lat="45.87717" lon="4.73376">
        <ele>187</ele>
        <time>2016-11-08T10:07:30Z</time>
      </trkpt>
      <trkpt lat="45.87714" lon="4.7337">
        <ele>187</ele>
        <time>2016-11-08T10:07:31Z</time>
      </trkpt>
      <trkpt lat="45.87712" lon="4.73364">
        <ele>187</ele>
        <time>2016-11-08T10:07:32Z</time>
      </trkpt>
      <trkpt lat="45.87709" lon="4.73357">
        <ele>187</ele>
        <time>2016-11-08T10:07:33Z</time>
      </trkpt>
      <trkpt lat="45.87706" lon="4.73351">
        <ele>187</ele>
        <time>2016-11-08T10:07:34Z</time>
      </trkpt>
      <trkpt lat="45.87703" lon="4.73345">
        <ele>187</ele>
        <time>2016-11-08T10:07:35Z</time>
      </trkpt>
      <trkpt lat="45.877" lon="4.73339">
        <ele>187</ele>
        <time>2016-11-08T10:07:36Z</time>
      </trkpt>
      <trkpt lat="45.87698" lon="4.73334">
        <ele>187</ele>
        <time>2016-11-08T10:07:37Z</time>
      </trkpt>
      <trkpt lat="45.87695" lon="4.73328">
        <ele>188</ele>
        <time>2016-11-08T10:07:38Z</time>
      </trkpt>
      <trkpt lat="45.87692" lon="4.73322">
        <ele>188</ele>
        <time>2016-11-08T10:07:39Z</time>
      </trkpt>
      <trkpt lat="45.87689" lon="4.73316">
        <ele>188</ele>
        <time>2016-11-08T10:07:40Z</time>
      </trkpt>
      <trkpt lat="45.87686" lon="4.7331">
        <ele>188</ele>
        <time>2016-11-08T10:07:41Z</time>
      </trkpt>
      <trkpt lat="45.87683" lon="4.73304">
        <ele>188</ele>
        <time>2016-11-08T10:07:42Z</time>
      </trkpt>
      <trkpt lat="45.8768" lon="4.73298">
        <ele>188</ele>
        <time>2016-11-08T10:07:43Z</time>
      </trkpt>
      <trkpt lat="45.87677" lon="4.73291">
        <ele>188</ele>
        <time>2016-11-08T10:07:44Z</time>
      </trkpt>
      <trkpt lat="45.87673" lon="4.73284">
        <ele>188</ele>
        <time>2016-11-08T10:07:45Z</time>
      </trkpt>
      <trkpt lat="45.8767" lon="4.73277">
        <ele>188</ele>
        <time>2016-11-08T10:07:46Z</time>
      </trkpt>
      <trkpt lat="45.87667" lon="4.73271">
        <ele>188</ele>
        <time>2016-11-08T10:07:47Z</time>
      </trkpt>
      <trkpt lat="45.87664" lon="4.73265">
        <ele>189</ele>
        <time>2016-11-08T10:07:48Z</time>
      </trkpt>
      <trkpt lat="45.8766" lon="4.73259">
        <ele>189</ele>
        <time>2016-11-08T10:07:49Z</time>
      </trkpt>
      <trkpt lat="45.87657" lon="4.73253">
        <ele>189</ele>
        <time>2016-11-08T10:07:50Z</time>
      </trkpt>
      <trkpt lat="45.87654" lon="4.73247">
        <ele>188</ele>
        <time>2016-11-08T10:07:51Z</time>
      </trkpt>
      <trkpt lat="45.87652" lon="4.73241">
        <ele>188</ele>
        <time>2016-11-08T10:07:52Z</time>
      </trkpt>
      <trkpt lat="45.87649" lon="4.73235">
        <ele>188</ele>
        <time>2016-11-08T10:07:53Z</time>
      </trkpt>
      <trkpt lat="45.87646" lon="4.7323">
        <ele>188</ele>
        <time>2016-11-08T10:07:54Z</time>
      </trkpt>
      <trkpt lat="45.87643" lon="4.73224">
        <ele>188</ele>
        <time>2016-11-08T10:07:55Z</time>
      </trkpt>
      <trkpt lat="45.8764" lon="4.73218">
        <ele>188</ele>
        <time>2016-11-08T10:07:56Z</time>
      </trkpt>
      <trkpt lat="45.87637" lon="4.73212">
        <ele>188</ele>
        <time>2016-11-08T10:07:57Z</time>
      </trkpt>
      <trkpt lat="45.87634" lon="4.73206">
        <ele>188</ele>
        <time>2016-11-08T10:07:58Z</time>
      </trkpt>
      <trkpt lat="45.87631" lon="4.732">
        <ele>188</ele>
        <time>2016-11-08T10:07:59Z</time>
      </trkpt>
      <trkpt lat="45.87628" lon="4.73194">
        <ele>188</ele>
        <time>2016-11-08T10:08:00Z</time>
      </trkpt>
      <trkpt lat="45.87625" lon="4.73187">
        <ele>188</ele>
        <time>2016-11-08T10:08:01Z</time>
      </trkpt>
      <trkpt lat="45.87622" lon="4.73181">
        <ele>188</ele>
        <time>2016-11-08T10:08:02Z</time>
      </trkpt>
      <trkpt lat="45.87619" lon="4.73175">
        <ele>187</ele>
        <time>2016-11-08T10:08:03Z</time>
      </trkpt>
      <trkpt lat="45.87615" lon="4.73168">
        <ele>187</ele>
        <time>2016-11-08T10:08:04Z</time>
      </trkpt>
      <trkpt lat="45.87612" lon="4.73161">
        <ele>187</ele>
        <time>2016-11-08T10:08:05Z</time>
      </trkpt>
      <trkpt lat="45.87608" lon="4.73155">
        <ele>187</ele>
        <time>2016-11-08T10:08:06Z</time>
      </trkpt>
      <trkpt lat="45.87605" lon="4.73148">
        <ele>187</ele>
        <time>2016-11-08T10:08:07Z</time>
      </trkpt>
      <trkpt lat="45.87602" lon="4.73142">
        <ele>187</ele>
        <time>2016-11-08T10:08:08Z</time>
      </trkpt>
      <trkpt lat="45.87598" lon="4.73136">
        <ele>187</ele>
        <time>2016-11-08T10:08:09Z</time>
      </trkpt>
      <trkpt lat="45.87595" lon="4.73129">
        <ele>187</ele>
        <time>2016-11-08T10:08:10Z</time>
      </trkpt>
      <trkpt lat="45.87592" lon="4.73122">
        <ele>188</ele>
        <time>2016-11-08T10:08:11Z</time>
      </trkpt>
      <trkpt lat="45.87588" lon="4.73116">
        <ele>188</ele>
        <time>2016-11-08T10:08:12Z</time>
      </trkpt>
      <trkpt lat="45.87585" lon="4.73109">
        <ele>188</ele>
        <time>2016-11-08T10:08:13Z</time>
      </trkpt>
      <trkpt lat="45.87582" lon="4.73103">
        <ele>188</ele>
        <time>2016-11-08T10:08:14Z</time>
      </trkpt>
      <trkpt lat="45.87579" lon="4.73096">
        <ele>188</ele>
        <time>2016-11-08T10:08:15Z</time>
      </trkpt>
      <trkpt lat="45.87575" lon="4.7309">
        <ele>188</ele>
        <time>2016-11-08T10:08:16Z</time>
      </trkpt>
      <trkpt lat="45.87572" lon="4.73083">
        <ele>188</ele>
        <time>2016-11-08T10:08:17Z</time>
      </trkpt>
      <trkpt lat="45.87569" lon="4.73077">
        <ele>188</ele>
        <time>2016-11-08T10:08:18Z</time>
      </trkpt>
      <trkpt lat="45.87566" lon="4.73071">
        <ele>188</ele>
        <time>2016-11-08T10:08:19Z</time>
      </trkpt>
      <trkpt lat="45.87562" lon="4.73065">
        <ele>188</ele>
        <time>2016-11-08T10:08:20Z</time>
      </trkpt>
      <trkpt lat="45.87559" lon="4.73059">
        <ele>188</ele>
        <time>2016-11-08T10:08:21Z</time>
      </trkpt>
      <trkpt lat="45.87557" lon="4.73053">
        <ele>188</ele>
        <time>2016-11-08T10:08:22Z</time>
      </trkpt>
      <trkpt lat="45.87554" lon="4.73047">
        <ele>188</ele>
        <time>2016-11-08T10:08:23Z</time>
      </trkpt>
      <trkpt lat="45.87552" lon="4.7304">
        <ele>188</ele>
        <time>2016-11-08T10:08:24Z</time>
      </trkpt>
      <trkpt lat="45.87549" lon="4.73034">
        <ele>188</ele>
        <time>2016-11-08T10:08:25Z</time>
      </trkpt>
      <trkpt lat="45.87546" lon="4.73028">
        <ele>188</ele>
        <time>2016-11-08T10:08:26Z</time>
      </trkpt>
      <trkpt lat="45.87543" lon="4.73022">
        <ele>188</ele>
        <time>2016-11-08T10:08:27Z</time>
      </trkpt>
      <trkpt lat="45.8754" lon="4.73016">
        <ele>187</ele>
        <time>2016-11-08T10:08:28Z</time>
      </trkpt>
      <trkpt lat="45.87537" lon="4.7301">
        <ele>187</ele>
        <time>2016-11-08T10:08:29Z</time>
      </trkpt>
      <trkpt lat="45.87535" lon="4.73004">
        <ele>187</ele>
        <time>2016-11-08T10:08:30Z</time>
      </trkpt>
      <trkpt lat="45.87532" lon="4.72998">
        <ele>187</ele>
        <time>2016-11-08T10:08:31Z</time>
      </trkpt>
      <trkpt lat="45.87529" lon="4.72993">
        <ele>187</ele>
        <time>2016-11-08T10:08:32Z</time>
      </trkpt>
      <trkpt lat="45.87527" lon="4.72987">
        <ele>187</ele>
        <time>2016-11-08T10:08:33Z</time>
      </trkpt>
      <trkpt lat="45.87524" lon="4.72981">
        <ele>187</ele>
        <time>2016-11-08T10:08:34Z</time>
      </trkpt>
      <trkpt lat="45.87521" lon="4.72976">
        <ele>187</ele>
        <time>2016-11-08T10:08:35Z</time>
      </trkpt>
      <trkpt lat="45.87519" lon="4.7297">
        <ele>187</ele>
        <time>2016-11-08T10:08:36Z</time>
      </trkpt>
      <trkpt lat="45.87516" lon="4.72964">
        <ele>187</ele>
        <time>2016-11-08T10:08:37Z</time>
      </trkpt>
      <trkpt lat="45.87513" lon="4.72959">
        <ele>187</ele>
        <time>2016-11-08T10:08:38Z</time>
      </trkpt>
      <trkpt lat="45.8751" lon="4.72954">
        <ele>187</ele>
        <time>2016-11-08T10:08:39Z</time>
      </trkpt>
      <trkpt lat="45.87507" lon="4.72949">
        <ele>187</ele>
        <time>2016-11-08T10:08:40Z</time>
      </trkpt>
      <trkpt lat="45.87503" lon="4.72945">
        <ele>187</ele>
        <time>2016-11-08T10:08:41Z</time>
      </trkpt>
      <trkpt lat="45.87499" lon="4.72941">
        <ele>188</ele>
        <time>2016-11-08T10:08:42Z</time>
      </trkpt>
      <trkpt lat="45.87495" lon="4.72938">
        <ele>188</ele>
        <time>2016-11-08T10:08:43Z</time>
      </trkpt>
      <trkpt lat="45.87491" lon="4.72936">
        <ele>188</ele>
        <time>2016-11-08T10:08:44Z</time>
      </trkpt>
      <trkpt lat="45.87487" lon="4.72933">
        <ele>188</ele>
        <time>2016-11-08T10:08:45Z</time>
      </trkpt>
      <trkpt lat="45.87483" lon="4.72929">
        <ele>188</ele>
        <time>2016-11-08T10:08:46Z</time>
      </trkpt>
      <trkpt lat="45.87479" lon="4.72925">
        <ele>188</ele>
        <time>2016-11-08T10:08:47Z</time>
      </trkpt>
      <trkpt lat="45.87476" lon="4.72921">
        <ele>188</ele>
        <time>2016-11-08T10:08:48Z</time>
      </trkpt>
      <trkpt lat="45.8747" lon="4.72911">
        <ele>188</ele>
        <time>2016-11-08T10:08:50Z</time>
      </trkpt>
      <trkpt lat="45.87468" lon="4.72906">
        <ele>188</ele>
        <time>2016-11-08T10:08:51Z</time>
      </trkpt>
      <trkpt lat="45.87465" lon="4.72895">
        <ele>188</ele>
        <time>2016-11-08T10:08:53Z</time>
      </trkpt>
      <trkpt lat="45.87464" lon="4.72889">
        <ele>188</ele>
        <time>2016-11-08T10:08:54Z</time>
      </trkpt>
      <trkpt lat="45.8746" lon="4.72879">
        <ele>188</ele>
        <time>2016-11-08T10:08:56Z</time>
      </trkpt>
      <trkpt lat="45.87457" lon="4.72873">
        <ele>188</ele>
        <time>2016-11-08T10:08:57Z</time>
      </trkpt>
      <trkpt lat="45.87455" lon="4.72866">
        <ele>188</ele>
        <time>2016-11-08T10:08:58Z</time>
      </trkpt>
      <trkpt lat="45.87453" lon="4.72859">
        <ele>188</ele>
        <time>2016-11-08T10:08:59Z</time>
      </trkpt>
      <trkpt lat="45.8745" lon="4.72852">
        <ele>188</ele>
        <time>2016-11-08T10:09:00Z</time>
      </trkpt>
      <trkpt lat="45.87447" lon="4.72845">
        <ele>188</ele>
        <time>2016-11-08T10:09:01Z</time>
      </trkpt>
      <trkpt lat="45.87445" lon="4.72838">
        <ele>188</ele>
        <time>2016-11-08T10:09:02Z</time>
      </trkpt>
      <trkpt lat="45.87443" lon="4.72832">
        <ele>189</ele>
        <time>2016-11-08T10:09:03Z</time>
      </trkpt>
      <trkpt lat="45.8744" lon="4.72825">
        <ele>189</ele>
        <time>2016-11-08T10:09:04Z</time>
      </trkpt>
      <trkpt lat="45.87438" lon="4.72819">
        <ele>189</ele>
        <time>2016-11-08T10:09:05Z</time>
      </trkpt>
      <trkpt lat="45.87435" lon="4.72812">
        <ele>189</ele>
        <time>2016-11-08T10:09:06Z</time>
      </trkpt>
      <trkpt lat="45.87433" lon="4.72806">
        <ele>189</ele>
        <time>2016-11-08T10:09:07Z</time>
      </trkpt>
      <trkpt lat="45.8743" lon="4.72799">
        <ele>189</ele>
        <time>2016-11-08T10:09:08Z</time>
      </trkpt>
      <trkpt lat="45.87427" lon="4.72793">
        <ele>189</ele>
        <time>2016-11-08T10:09:09Z</time>
      </trkpt>
      <trkpt lat="45.87425" lon="4.72787">
        <ele>189</ele>
        <time>2016-11-08T10:09:10Z</time>
      </trkpt>
      <trkpt lat="45.87422" lon="4.72781">
        <ele>189</ele>
        <time>2016-11-08T10:09:11Z</time>
      </trkpt>
      <trkpt lat="45.87419" lon="4.72775">
        <ele>189</ele>
        <time>2016-11-08T10:09:12Z</time>
      </trkpt>
      <trkpt lat="45.87416" lon="4.72769">
        <ele>189</ele>
        <time>2016-11-08T10:09:13Z</time>
      </trkpt>
      <trkpt lat="45.87413" lon="4.72763">
        <ele>189</ele>
        <time>2016-11-08T10:09:14Z</time>
      </trkpt>
      <trkpt lat="45.87411" lon="4.72757">
        <ele>189</ele>
        <time>2016-11-08T10:09:15Z</time>
      </trkpt>
      <trkpt lat="45.87408" lon="4.72752">
        <ele>189</ele>
        <time>2016-11-08T10:09:16Z</time>
      </trkpt>
      <trkpt lat="45.87405" lon="4.72747">
        <ele>189</ele>
        <time>2016-11-08T10:09:17Z</time>
      </trkpt>
      <trkpt lat="45.87402" lon="4.72742">
        <ele>189</ele>
        <time>2016-11-08T10:09:18Z</time>
      </trkpt>
      <trkpt lat="45.87398" lon="4.72738">
        <ele>189</ele>
        <time>2016-11-08T10:09:19Z</time>
      </trkpt>
      <trkpt lat="45.87394" lon="4.72733">
        <ele>190</ele>
        <time>2016-11-08T10:09:20Z</time>
      </trkpt>
      <trkpt lat="45.87391" lon="4.72729">
        <ele>190</ele>
        <time>2016-11-08T10:09:21Z</time>
      </trkpt>
      <trkpt lat="45.87388" lon="4.72723">
        <ele>190</ele>
        <time>2016-11-08T10:09:22Z</time>
      </trkpt>
      <trkpt lat="45.87387" lon="4.72717">
        <ele>190</ele>
        <time>2016-11-08T10:09:23Z</time>
      </trkpt>
      <trkpt lat="45.87384" lon="4.72711">
        <ele>190</ele>
        <time>2016-11-08T10:09:24Z</time>
      </trkpt>
      <trkpt lat="45.87382" lon="4.72704">
        <ele>190</ele>
        <time>2016-11-08T10:09:25Z</time>
      </trkpt>
      <trkpt lat="45.87379" lon="4.72698">
        <ele>190</ele>
        <time>2016-11-08T10:09:26Z</time>
      </trkpt>
      <trkpt lat="45.87376" lon="4.72693">
        <ele>190</ele>
        <time>2016-11-08T10:09:27Z</time>
      </trkpt>
      <trkpt lat="45.87372" lon="4.72688">
        <ele>190</ele>
        <time>2016-11-08T10:09:28Z</time>
      </trkpt>
      <trkpt lat="45.87368" lon="4.72683">
        <ele>190</ele>
        <time>2016-11-08T10:09:29Z</time>
      </trkpt>
      <trkpt lat="45.87363" lon="4.72678">
        <ele>190</ele>
        <time>2016-11-08T10:09:30Z</time>
      </trkpt>
      <trkpt lat="45.87359" lon="4.72673">
        <ele>190</ele>
        <time>2016-11-08T10:09:31Z</time>
      </trkpt>
      <trkpt lat="45.87354" lon="4.72669">
        <ele>190</ele>
        <time>2016-11-08T10:09:32Z</time>
      </trkpt>
      <trkpt lat="45.87349" lon="4.72665">
        <ele>190</ele>
        <time>2016-11-08T10:09:33Z</time>
      </trkpt>
      <trkpt lat="45.87345" lon="4.72661">
        <ele>190</ele>
        <time>2016-11-08T10:09:34Z</time>
      </trkpt>
      <trkpt lat="45.87341" lon="4.72657">
        <ele>190</ele>
        <time>2016-11-08T10:09:35Z</time>
      </trkpt>
      <trkpt lat="45.87337" lon="4.72653">
        <ele>190</ele>
        <time>2016-11-08T10:09:36Z</time>
      </trkpt>
      <trkpt lat="45.87333" lon="4.72649">
        <ele>192</ele>
        <time>2016-11-08T10:09:37Z</time>
      </trkpt>
      <trkpt lat="45.87329" lon="4.72646">
        <ele>192</ele>
        <time>2016-11-08T10:09:38Z</time>
      </trkpt>
      <trkpt lat="45.87325" lon="4.72642">
        <ele>192</ele>
        <time>2016-11-08T10:09:39Z</time>
      </trkpt>
      <trkpt lat="45.87321" lon="4.72638">
        <ele>193</ele>
        <time>2016-11-08T10:09:40Z</time>
      </trkpt>
      <trkpt lat="45.87306" lon="4.72619">
        <ele>193</ele>
        <time>2016-11-08T10:09:44Z</time>
      </trkpt>
      <trkpt lat="45.87302" lon="4.72615">
        <ele>194</ele>
        <time>2016-11-08T10:09:45Z</time>
      </trkpt>
      <trkpt lat="45.87297" lon="4.72611">
        <ele>194</ele>
        <time>2016-11-08T10:09:46Z</time>
      </trkpt>
      <trkpt lat="45.87291" lon="4.72603">
        <ele>194</ele>
        <time>2016-11-08T10:09:48Z</time>
      </trkpt>
      <trkpt lat="45.87287" lon="4.72598">
        <ele>194</ele>
        <time>2016-11-08T10:09:49Z</time>
      </trkpt>
      <trkpt lat="45.87283" lon="4.72594">
        <ele>194</ele>
        <time>2016-11-08T10:09:50Z</time>
      </trkpt>
      <trkpt lat="45.87278" lon="4.72591">
        <ele>195</ele>
        <time>2016-11-08T10:09:51Z</time>
      </trkpt>
      <trkpt lat="45.87273" lon="4.72586">
        <ele>195</ele>
        <time>2016-11-08T10:09:52Z</time>
      </trkpt>
      <trkpt lat="45.87269" lon="4.72581">
        <ele>195</ele>
        <time>2016-11-08T10:09:53Z</time>
      </trkpt>
      <trkpt lat="45.87261" lon="4.72573">
        <ele>195</ele>
        <time>2016-11-08T10:09:55Z</time>
      </trkpt>
      <trkpt lat="45.87259" lon="4.72571">
        <ele>195</ele>
        <time>2016-11-08T10:09:56Z</time>
      </trkpt>
      <trkpt lat="45.87256" lon="4.72562">
        <ele>195</ele>
        <time>2016-11-08T10:09:59Z</time>
      </trkpt>
      <trkpt lat="45.87254" lon="4.72559">
        <ele>195</ele>
        <time>2016-11-08T10:10:00Z</time>
      </trkpt>
      <trkpt lat="45.8725" lon="4.7255">
        <ele>197</ele>
        <time>2016-11-08T10:10:02Z</time>
      </trkpt>
      <trkpt lat="45.87249" lon="4.72547">
        <ele>197</ele>
        <time>2016-11-08T10:10:03Z</time>
      </trkpt>
      <trkpt lat="45.87249" lon="4.72536">
        <ele>197</ele>
        <time>2016-11-08T10:10:07Z</time>
      </trkpt>
      <trkpt lat="45.8725" lon="4.72533">
        <ele>194</ele>
        <time>2016-11-08T10:10:08Z</time>
      </trkpt>
      <trkpt lat="45.87247" lon="4.72522">
        <ele>196</ele>
        <time>2016-11-08T10:10:11Z</time>
      </trkpt>
      <trkpt lat="45.87244" lon="4.72518">
        <ele>196</ele>
        <time>2016-11-08T10:10:12Z</time>
      </trkpt>
      <trkpt lat="45.87238" lon="4.72512">
        <ele>196</ele>
        <time>2016-11-08T10:10:14Z</time>
      </trkpt>
      <trkpt lat="45.87235" lon="4.72507">
        <ele>196</ele>
        <time>2016-11-08T10:10:15Z</time>
      </trkpt>
      <trkpt lat="45.8723" lon="4.72498">
        <ele>194</ele>
        <time>2016-11-08T10:10:17Z</time>
      </trkpt>
      <trkpt lat="45.87227" lon="4.72494">
        <ele>194</ele>
        <time>2016-11-08T10:10:18Z</time>
      </trkpt>
      <trkpt lat="45.87222" lon="4.72485">
        <ele>194</ele>
        <time>2016-11-08T10:10:20Z</time>
      </trkpt>
      <trkpt lat="45.87219" lon="4.7248">
        <ele>194</ele>
        <time>2016-11-08T10:10:21Z</time>
      </trkpt>
      <trkpt lat="45.87213" lon="4.72472">
        <ele>194</ele>
        <time>2016-11-08T10:10:23Z</time>
      </trkpt>
      <trkpt lat="45.8721" lon="4.72467">
        <ele>194</ele>
        <time>2016-11-08T10:10:24Z</time>
      </trkpt>
      <trkpt lat="45.87204" lon="4.72458">
        <ele>194</ele>
        <time>2016-11-08T10:10:26Z</time>
      </trkpt>
      <trkpt lat="45.87201" lon="4.72454">
        <ele>194</ele>
        <time>2016-11-08T10:10:27Z</time>
      </trkpt>
      <trkpt lat="45.87196" lon="4.72445">
        <ele>194</ele>
        <time>2016-11-08T10:10:29Z</time>
      </trkpt>
      <trkpt lat="45.87194" lon="4.7244">
        <ele>194</ele>
        <time>2016-11-08T10:10:30Z</time>
      </trkpt>
      <trkpt lat="45.87188" lon="4.72432">
        <ele>194</ele>
        <time>2016-11-08T10:10:32Z</time>
      </trkpt>
      <trkpt lat="45.87185" lon="4.72429">
        <ele>194</ele>
        <time>2016-11-08T10:10:33Z</time>
      </trkpt>
      <trkpt lat="45.8718" lon="4.72421">
        <ele>194</ele>
        <time>2016-11-08T10:10:35Z</time>
      </trkpt>
      <trkpt lat="45.87177" lon="4.72418">
        <ele>194</ele>
        <time>2016-11-08T10:10:36Z</time>
      </trkpt>
      <trkpt lat="45.87172" lon="4.7241">
        <ele>193</ele>
        <time>2016-11-08T10:10:38Z</time>
      </trkpt>
      <trkpt lat="45.87169" lon="4.72406">
        <ele>192</ele>
        <time>2016-11-08T10:10:39Z</time>
      </trkpt>
      <trkpt lat="45.87165" lon="4.72396">
        <ele>196</ele>
        <time>2016-11-08T10:10:41Z</time>
      </trkpt>
      <trkpt lat="45.87162" lon="4.72391">
        <ele>197</ele>
        <time>2016-11-08T10:10:42Z</time>
      </trkpt>
      <trkpt lat="45.87158" lon="4.72381">
        <ele>197</ele>
        <time>2016-11-08T10:10:44Z</time>
      </trkpt>
      <trkpt lat="45.87156" lon="4.72375">
        <ele>197</ele>
        <time>2016-11-08T10:10:45Z</time>
      </trkpt>
      <trkpt lat="45.87151" lon="4.72365">
        <ele>197</ele>
        <time>2016-11-08T10:10:47Z</time>
      </trkpt>
      <trkpt lat="45.87149" lon="4.72359">
        <ele>197</ele>
        <time>2016-11-08T10:10:48Z</time>
      </trkpt>
      <trkpt lat="45.87144" lon="4.72349">
        <ele>196</ele>
        <time>2016-11-08T10:10:50Z</time>
      </trkpt>
      <trkpt lat="45.87142" lon="4.72343">
        <ele>196</ele>
        <time>2016-11-08T10:10:51Z</time>
      </trkpt>
      <trkpt lat="45.8714" lon="4.72337">
        <ele>196</ele>
        <time>2016-11-08T10:10:52Z</time>
      </trkpt>
      <trkpt lat="45.87138" lon="4.72332">
        <ele>195</ele>
        <time>2016-11-08T10:10:53Z</time>
      </trkpt>
      <trkpt lat="45.87133" lon="4.72321">
        <ele>196</ele>
        <time>2016-11-08T10:10:55Z</time>
      </trkpt>
      <trkpt lat="45.87131" lon="4.72316">
        <ele>196</ele>
        <time>2016-11-08T10:10:56Z</time>
      </trkpt>
      <trkpt lat="45.87126" lon="4.72306">
        <ele>196</ele>
        <time>2016-11-08T10:10:58Z</time>
      </trkpt>
      <trkpt lat="45.87123" lon="4.723">
        <ele>196</ele>
        <time>2016-11-08T10:10:59Z</time>
      </trkpt>
      <trkpt lat="45.87121" lon="4.72294">
        <ele>196</ele>
        <time>2016-11-08T10:11:00Z</time>
      </trkpt>
      <trkpt lat="45.87119" lon="4.72288">
        <ele>196</ele>
        <time>2016-11-08T10:11:01Z</time>
      </trkpt>
      <trkpt lat="45.87116" lon="4.72283">
        <ele>196</ele>
        <time>2016-11-08T10:11:02Z</time>
      </trkpt>
      <trkpt lat="45.87113" lon="4.72279">
        <ele>197</ele>
        <time>2016-11-08T10:11:03Z</time>
      </trkpt>
      <trkpt lat="45.8711" lon="4.72274">
        <ele>197</ele>
        <time>2016-11-08T10:11:04Z</time>
      </trkpt>
      <trkpt lat="45.87106" lon="4.7227">
        <ele>197</ele>
        <time>2016-11-08T10:11:05Z</time>
      </trkpt>
      <trkpt lat="45.87103" lon="4.72266">
        <ele>197</ele>
        <time>2016-11-08T10:11:06Z</time>
      </trkpt>
      <trkpt lat="45.87099" lon="4.72261">
        <ele>197</ele>
        <time>2016-11-08T10:11:07Z</time>
      </trkpt>
      <trkpt lat="45.87095" lon="4.72257">
        <ele>198</ele>
        <time>2016-11-08T10:11:08Z</time>
      </trkpt>
      <trkpt lat="45.87092" lon="4.72253">
        <ele>198</ele>
        <time>2016-11-08T10:11:09Z</time>
      </trkpt>
      <trkpt lat="45.87085" lon="4.72245">
        <ele>198</ele>
        <time>2016-11-08T10:11:11Z</time>
      </trkpt>
      <trkpt lat="45.87081" lon="4.72241">
        <ele>199</ele>
        <time>2016-11-08T10:11:12Z</time>
      </trkpt>
      <trkpt lat="45.87077" lon="4.72238">
        <ele>200</ele>
        <time>2016-11-08T10:11:13Z</time>
      </trkpt>
      <trkpt lat="45.87074" lon="4.72233">
        <ele>200</ele>
        <time>2016-11-08T10:11:14Z</time>
      </trkpt>
      <trkpt lat="45.8707" lon="4.7223">
        <ele>200</ele>
        <time>2016-11-08T10:11:15Z</time>
      </trkpt>
      <trkpt lat="45.87065" lon="4.72226">
        <ele>200</ele>
        <time>2016-11-08T10:11:16Z</time>
      </trkpt>
      <trkpt lat="45.87061" lon="4.72222">
        <ele>200</ele>
        <time>2016-11-08T10:11:17Z</time>
      </trkpt>
      <trkpt lat="45.87057" lon="4.72219">
        <ele>200</ele>
        <time>2016-11-08T10:11:18Z</time>
      </trkpt>
      <trkpt lat="45.87053" lon="4.72215">
        <ele>200</ele>
        <time>2016-11-08T10:11:19Z</time>
      </trkpt>
      <trkpt lat="45.87049" lon="4.72212">
        <ele>200</ele>
        <time>2016-11-08T10:11:20Z</time>
      </trkpt>
      <trkpt lat="45.87045" lon="4.72209">
        <ele>201</ele>
        <time>2016-11-08T10:11:21Z</time>
      </trkpt>
      <trkpt lat="45.87041" lon="4.72206">
        <ele>201</ele>
        <time>2016-11-08T10:11:22Z</time>
      </trkpt>
      <trkpt lat="45.87037" lon="4.72202">
        <ele>201</ele>
        <time>2016-11-08T10:11:23Z</time>
      </trkpt>
      <trkpt lat="45.87033" lon="4.72199">
        <ele>201</ele>
        <time>2016-11-08T10:11:24Z</time>
      </trkpt>
      <trkpt lat="45.87029" lon="4.72196">
        <ele>201</ele>
        <time>2016-11-08T10:11:25Z</time>
      </trkpt>
      <trkpt lat="45.87025" lon="4.72193">
        <ele>201</ele>
        <time>2016-11-08T10:11:26Z</time>
      </trkpt>
      <trkpt lat="45.8702" lon="4.72191">
        <ele>201</ele>
        <time>2016-11-08T10:11:27Z</time>
      </trkpt>
      <trkpt lat="45.87016" lon="4.72188">
        <ele>201</ele>
        <time>2016-11-08T10:11:28Z</time>
      </trkpt>
      <trkpt lat="45.87012" lon="4.72185">
        <ele>201</ele>
        <time>2016-11-08T10:11:29Z</time>
      </trkpt>
      <trkpt lat="45.87007" lon="4.72181">
        <ele>201</ele>
        <time>2016-11-08T10:11:30Z</time>
      </trkpt>
      <trkpt lat="45.87002" lon="4.72178">
        <ele>201</ele>
        <time>2016-11-08T10:11:31Z</time>
      </trkpt>
      <trkpt lat="45.86998" lon="4.72175">
        <ele>204</ele>
        <time>2016-11-08T10:11:32Z</time>
      </trkpt>
      <trkpt lat="45.86994" lon="4.72173">
        <ele>204</ele>
        <time>2016-11-08T10:11:33Z</time>
      </trkpt>
      <trkpt lat="45.86989" lon="4.7217">
        <ele>205</ele>
        <time>2016-11-08T10:11:34Z</time>
      </trkpt>
      <trkpt lat="45.86985" lon="4.72167">
        <ele>206</ele>
        <time>2016-11-08T10:11:35Z</time>
      </trkpt>
      <trkpt lat="45.86981" lon="4.72164">
        <ele>201</ele>
        <time>2016-11-08T10:11:36Z</time>
      </trkpt>
      <trkpt lat="45.86977" lon="4.72161">
        <ele>201</ele>
        <time>2016-11-08T10:11:37Z</time>
      </trkpt>
      <trkpt lat="45.86973" lon="4.72158">
        <ele>201</ele>
        <time>2016-11-08T10:11:38Z</time>
      </trkpt>
      <trkpt lat="45.86968" lon="4.72154">
        <ele>201</ele>
        <time>2016-11-08T10:11:39Z</time>
      </trkpt>
      <trkpt lat="45.86964" lon="4.72152">
        <ele>201</ele>
        <time>2016-11-08T10:11:40Z</time>
      </trkpt>
      <trkpt lat="45.8696" lon="4.72148">
        <ele>201</ele>
        <time>2016-11-08T10:11:41Z</time>
      </trkpt>
      <trkpt lat="45.86955" lon="4.72145">
        <ele>201</ele>
        <time>2016-11-08T10:11:42Z</time>
      </trkpt>
      <trkpt lat="45.86951" lon="4.72142">
        <ele>201</ele>
        <time>2016-11-08T10:11:43Z</time>
      </trkpt>
      <trkpt lat="45.86947" lon="4.72139">
        <ele>201</ele>
        <time>2016-11-08T10:11:44Z</time>
      </trkpt>
      <trkpt lat="45.86937" lon="4.72131">
        <ele>200</ele>
        <time>2016-11-08T10:11:46Z</time>
      </trkpt>
      <trkpt lat="45.86932" lon="4.72125">
        <ele>200</ele>
        <time>2016-11-08T10:11:47Z</time>
      </trkpt>
      <trkpt lat="45.86927" lon="4.7212">
        <ele>199</ele>
        <time>2016-11-08T10:11:48Z</time>
      </trkpt>
      <trkpt lat="45.8692" lon="4.72111">
        <ele>197</ele>
        <time>2016-11-08T10:11:49Z</time>
      </trkpt>
      <trkpt lat="45.86912" lon="4.72114">
        <ele>200</ele>
        <time>2016-11-08T10:11:51Z</time>
      </trkpt>
      <trkpt lat="45.86907" lon="4.72111">
        <ele>200</ele>
        <time>2016-11-08T10:11:52Z</time>
      </trkpt>
      <trkpt lat="45.86902" lon="4.72111">
        <ele>200</ele>
        <time>2016-11-08T10:11:53Z</time>
      </trkpt>
      <trkpt lat="45.86898" lon="4.72111">
        <ele>200</ele>
        <time>2016-11-08T10:11:54Z</time>
      </trkpt>
      <trkpt lat="45.86893" lon="4.72111">
        <ele>200</ele>
        <time>2016-11-08T10:11:55Z</time>
      </trkpt>
      <trkpt lat="45.86888" lon="4.7211">
        <ele>201</ele>
        <time>2016-11-08T10:11:56Z</time>
      </trkpt>
      <trkpt lat="45.86883" lon="4.72112">
        <ele>201</ele>
        <time>2016-11-08T10:11:57Z</time>
      </trkpt>
      <trkpt lat="45.86877" lon="4.72104">
        <ele>200</ele>
        <time>2016-11-08T10:11:58Z</time>
      </trkpt>
      <trkpt lat="45.86871" lon="4.72104">
        <ele>200</ele>
        <time>2016-11-08T10:11:59Z</time>
      </trkpt>
      <trkpt lat="45.86866" lon="4.72104">
        <ele>200</ele>
        <time>2016-11-08T10:12:00Z</time>
      </trkpt>
      <trkpt lat="45.86861" lon="4.72102">
        <ele>200</ele>
        <time>2016-11-08T10:12:01Z</time>
      </trkpt>
      <trkpt lat="45.86856" lon="4.72098">
        <ele>199</ele>
        <time>2016-11-08T10:12:02Z</time>
      </trkpt>
      <trkpt lat="45.8685" lon="4.72092">
        <ele>198</ele>
        <time>2016-11-08T10:12:03Z</time>
      </trkpt>
      <trkpt lat="45.86845" lon="4.72085">
        <ele>196</ele>
        <time>2016-11-08T10:12:04Z</time>
      </trkpt>
      <trkpt lat="45.8684" lon="4.72084">
        <ele>195</ele>
        <time>2016-11-08T10:12:05Z</time>
      </trkpt>
      <trkpt lat="45.86834" lon="4.72082">
        <ele>193</ele>
        <time>2016-11-08T10:12:06Z</time>
      </trkpt>
      <trkpt lat="45.86828" lon="4.7208">
        <ele>193</ele>
        <time>2016-11-08T10:12:07Z</time>
      </trkpt>
      <trkpt lat="45.86823" lon="4.72076">
        <ele>193</ele>
        <time>2016-11-08T10:12:08Z</time>
      </trkpt>
      <trkpt lat="45.86817" lon="4.72073">
        <ele>194</ele>
        <time>2016-11-08T10:12:09Z</time>
      </trkpt>
      <trkpt lat="45.86812" lon="4.72073">
        <ele>194</ele>
        <time>2016-11-08T10:12:10Z</time>
      </trkpt>
      <trkpt lat="45.86807" lon="4.72073">
        <ele>194</ele>
        <time>2016-11-08T10:12:11Z</time>
      </trkpt>
      <trkpt lat="45.86802" lon="4.72073">
        <ele>194</ele>
        <time>2016-11-08T10:12:12Z</time>
      </trkpt>
      <trkpt lat="45.86797" lon="4.72071">
        <ele>194</ele>
        <time>2016-11-08T10:12:13Z</time>
      </trkpt>
      <trkpt lat="45.86792" lon="4.72069">
        <ele>194</ele>
        <time>2016-11-08T10:12:14Z</time>
      </trkpt>
      <trkpt lat="45.86787" lon="4.72067">
        <ele>194</ele>
        <time>2016-11-08T10:12:15Z</time>
      </trkpt>
      <trkpt lat="45.86782" lon="4.72065">
        <ele>194</ele>
        <time>2016-11-08T10:12:16Z</time>
      </trkpt>
      <trkpt lat="45.86777" lon="4.72063">
        <ele>194</ele>
        <time>2016-11-08T10:12:17Z</time>
      </trkpt>
      <trkpt lat="45.86773" lon="4.72062">
        <ele>195</ele>
        <time>2016-11-08T10:12:18Z</time>
      </trkpt>
      <trkpt lat="45.86767" lon="4.72061">
        <ele>195</ele>
        <time>2016-11-08T10:12:19Z</time>
      </trkpt>
      <trkpt lat="45.86762" lon="4.72059">
        <ele>195</ele>
        <time>2016-11-08T10:12:20Z</time>
      </trkpt>
      <trkpt lat="45.86757" lon="4.72057">
        <ele>195</ele>
        <time>2016-11-08T10:12:21Z</time>
      </trkpt>
      <trkpt lat="45.86752" lon="4.72055">
        <ele>195</ele>
        <time>2016-11-08T10:12:22Z</time>
      </trkpt>
      <trkpt lat="45.86748" lon="4.72052">
        <ele>197</ele>
        <time>2016-11-08T10:12:23Z</time>
      </trkpt>
      <trkpt lat="45.86743" lon="4.7205">
        <ele>197</ele>
        <time>2016-11-08T10:12:24Z</time>
      </trkpt>
      <trkpt lat="45.86738" lon="4.72047">
        <ele>197</ele>
        <time>2016-11-08T10:12:25Z</time>
      </trkpt>
      <trkpt lat="45.86734" lon="4.72045">
        <ele>197</ele>
        <time>2016-11-08T10:12:26Z</time>
      </trkpt>
      <trkpt lat="45.86729" lon="4.72043">
        <ele>197</ele>
        <time>2016-11-08T10:12:27Z</time>
      </trkpt>
      <trkpt lat="45.86724" lon="4.7204">
        <ele>197</ele>
        <time>2016-11-08T10:12:28Z</time>
      </trkpt>
      <trkpt lat="45.8672" lon="4.72038">
        <ele>197</ele>
        <time>2016-11-08T10:12:29Z</time>
      </trkpt>
      <trkpt lat="45.86716" lon="4.72035">
        <ele>197</ele>
        <time>2016-11-08T10:12:30Z</time>
      </trkpt>
      <trkpt lat="45.86712" lon="4.72032">
        <ele>197</ele>
        <time>2016-11-08T10:12:31Z</time>
      </trkpt>
      <trkpt lat="45.86707" lon="4.72029">
        <ele>197</ele>
        <time>2016-11-08T10:12:32Z</time>
      </trkpt>
      <trkpt lat="45.86703" lon="4.72026">
        <ele>197</ele>
        <time>2016-11-08T10:12:33Z</time>
      </trkpt>
      <trkpt lat="45.86699" lon="4.72023">
        <ele>197</ele>
        <time>2016-11-08T10:12:34Z</time>
      </trkpt>
      <trkpt lat="45.86694" lon="4.7202">
        <ele>197</ele>
        <time>2016-11-08T10:12:35Z</time>
      </trkpt>
      <trkpt lat="45.8669" lon="4.72016">
        <ele>196</ele>
        <time>2016-11-08T10:12:36Z</time>
      </trkpt>
      <trkpt lat="45.86686" lon="4.72013">
        <ele>196</ele>
        <time>2016-11-08T10:12:37Z</time>
      </trkpt>
      <trkpt lat="45.86682" lon="4.72009">
        <ele>196</ele>
        <time>2016-11-08T10:12:38Z</time>
      </trkpt>
      <trkpt lat="45.86677" lon="4.72006">
        <ele>196</ele>
        <time>2016-11-08T10:12:39Z</time>
      </trkpt>
      <trkpt lat="45.86673" lon="4.72003">
        <ele>196</ele>
        <time>2016-11-08T10:12:40Z</time>
      </trkpt>
      <trkpt lat="45.86668" lon="4.72">
        <ele>195</ele>
        <time>2016-11-08T10:12:41Z</time>
      </trkpt>
      <trkpt lat="45.86664" lon="4.71996">
        <ele>195</ele>
        <time>2016-11-08T10:12:42Z</time>
      </trkpt>
      <trkpt lat="45.8666" lon="4.71993">
        <ele>195</ele>
        <time>2016-11-08T10:12:43Z</time>
      </trkpt>
      <trkpt lat="45.86656" lon="4.7199">
        <ele>195</ele>
        <time>2016-11-08T10:12:44Z</time>
      </trkpt>
      <trkpt lat="45.86651" lon="4.71987">
        <ele>195</ele>
        <time>2016-11-08T10:12:45Z</time>
      </trkpt>
      <trkpt lat="45.86647" lon="4.71984">
        <ele>195</ele>
        <time>2016-11-08T10:12:46Z</time>
      </trkpt>
      <trkpt lat="45.86643" lon="4.7198">
        <ele>195</ele>
        <time>2016-11-08T10:12:47Z</time>
      </trkpt>
      <trkpt lat="45.86639" lon="4.71977">
        <ele>195</ele>
        <time>2016-11-08T10:12:48Z</time>
      </trkpt>
      <trkpt lat="45.86635" lon="4.71973">
        <ele>195</ele>
        <time>2016-11-08T10:12:49Z</time>
      </trkpt>
      <trkpt lat="45.86631" lon="4.7197">
        <ele>195</ele>
        <time>2016-11-08T10:12:50Z</time>
      </trkpt>
      <trkpt lat="45.86627" lon="4.71967">
        <ele>195</ele>
        <time>2016-11-08T10:12:51Z</time>
      </trkpt>
      <trkpt lat="45.86623" lon="4.71963">
        <ele>195</ele>
        <time>2016-11-08T10:12:52Z</time>
      </trkpt>
      <trkpt lat="45.86619" lon="4.7196">
        <ele>195</ele>
        <time>2016-11-08T10:12:53Z</time>
      </trkpt>
      <trkpt lat="45.86615" lon="4.71957">
        <ele>194</ele>
        <time>2016-11-08T10:12:54Z</time>
      </trkpt>
      <trkpt lat="45.86611" lon="4.71954">
        <ele>194</ele>
        <time>2016-11-08T10:12:55Z</time>
      </trkpt>
      <trkpt lat="45.86607" lon="4.71951">
        <ele>194</ele>
        <time>2016-11-08T10:12:56Z</time>
      </trkpt>
      <trkpt lat="45.86603" lon="4.71948">
        <ele>194</ele>
        <time>2016-11-08T10:12:57Z</time>
      </trkpt>
      <trkpt lat="45.86598" lon="4.71945">
        <ele>194</ele>
        <time>2016-11-08T10:12:58Z</time>
      </trkpt>
      <trkpt lat="45.86594" lon="4.71942">
        <ele>194</ele>
        <time>2016-11-08T10:12:59Z</time>
      </trkpt>
      <trkpt lat="45.8659" lon="4.71938">
        <ele>194</ele>
        <time>2016-11-08T10:13:00Z</time>
      </trkpt>
      <trkpt lat="45.86586" lon="4.71935">
        <ele>194</ele>
        <time>2016-11-08T10:13:01Z</time>
      </trkpt>
      <trkpt lat="45.86582" lon="4.71932">
        <ele>195</ele>
        <time>2016-11-08T10:13:02Z</time>
      </trkpt>
      <trkpt lat="45.86578" lon="4.71928">
        <ele>195</ele>
        <time>2016-11-08T10:13:03Z</time>
      </trkpt>
      <trkpt lat="45.86574" lon="4.71924">
        <ele>195</ele>
        <time>2016-11-08T10:13:04Z</time>
      </trkpt>
      <trkpt lat="45.8657" lon="4.71921">
        <ele>195</ele>
        <time>2016-11-08T10:13:05Z</time>
      </trkpt>
      <trkpt lat="45.86566" lon="4.71917">
        <ele>195</ele>
        <time>2016-11-08T10:13:06Z</time>
      </trkpt>
      <trkpt lat="45.86558" lon="4.71911">
        <ele>195</ele>
        <time>2016-11-08T10:13:08Z</time>
      </trkpt>
      <trkpt lat="45.86554" lon="4.71908">
        <ele>195</ele>
        <time>2016-11-08T10:13:09Z</time>
      </trkpt>
      <trkpt lat="45.86549" lon="4.71904">
        <ele>195</ele>
        <time>2016-11-08T10:13:10Z</time>
      </trkpt>
      <trkpt lat="45.86545" lon="4.71901">
        <ele>195</ele>
        <time>2016-11-08T10:13:11Z</time>
      </trkpt>
      <trkpt lat="45.86541" lon="4.71898">
        <ele>195</ele>
        <time>2016-11-08T10:13:12Z</time>
      </trkpt>
      <trkpt lat="45.86537" lon="4.71894">
        <ele>195</ele>
        <time>2016-11-08T10:13:13Z</time>
      </trkpt>
      <trkpt lat="45.86533" lon="4.71891">
        <ele>195</ele>
        <time>2016-11-08T10:13:14Z</time>
      </trkpt>
      <trkpt lat="45.86529" lon="4.71888">
        <ele>195</ele>
        <time>2016-11-08T10:13:15Z</time>
      </trkpt>
      <trkpt lat="45.86525" lon="4.71884">
        <ele>195</ele>
        <time>2016-11-08T10:13:16Z</time>
      </trkpt>
      <trkpt lat="45.86521" lon="4.71881">
        <ele>195</ele>
        <time>2016-11-08T10:13:17Z</time>
      </trkpt>
      <trkpt lat="45.86513" lon="4.71874">
        <ele>195</ele>
        <time>2016-11-08T10:13:19Z</time>
      </trkpt>
      <trkpt lat="45.8651" lon="4.7187">
        <ele>195</ele>
        <time>2016-11-08T10:13:20Z</time>
      </trkpt>
      <trkpt lat="45.86503" lon="4.71865">
        <ele>195</ele>
        <time>2016-11-08T10:13:22Z</time>
      </trkpt>
      <trkpt lat="45.86499" lon="4.71861">
        <ele>198</ele>
        <time>2016-11-08T10:13:23Z</time>
      </trkpt>
      <trkpt lat="45.86495" lon="4.71858">
        <ele>198</ele>
        <time>2016-11-08T10:13:24Z</time>
      </trkpt>
      <trkpt lat="45.86491" lon="4.71855">
        <ele>198</ele>
        <time>2016-11-08T10:13:25Z</time>
      </trkpt>
      <trkpt lat="45.86487" lon="4.71852">
        <ele>198</ele>
        <time>2016-11-08T10:13:26Z</time>
      </trkpt>
      <trkpt lat="45.86483" lon="4.71849">
        <ele>198</ele>
        <time>2016-11-08T10:13:27Z</time>
      </trkpt>
      <trkpt lat="45.86479" lon="4.71846">
        <ele>198</ele>
        <time>2016-11-08T10:13:28Z</time>
      </trkpt>
      <trkpt lat="45.86475" lon="4.71842">
        <ele>198</ele>
        <time>2016-11-08T10:13:29Z</time>
      </trkpt>
      <trkpt lat="45.8647" lon="4.71839">
        <ele>199</ele>
        <time>2016-11-08T10:13:30Z</time>
      </trkpt>
      <trkpt lat="45.86466" lon="4.71836">
        <ele>199</ele>
        <time>2016-11-08T10:13:31Z</time>
      </trkpt>
      <trkpt lat="45.86462" lon="4.71833">
        <ele>196</ele>
        <time>2016-11-08T10:13:32Z</time>
      </trkpt>
      <trkpt lat="45.86458" lon="4.7183">
        <ele>196</ele>
        <time>2016-11-08T10:13:33Z</time>
      </trkpt>
      <trkpt lat="45.86454" lon="4.71827">
        <ele>197</ele>
        <time>2016-11-08T10:13:34Z</time>
      </trkpt>
      <trkpt lat="45.8645" lon="4.71823">
        <ele>197</ele>
        <time>2016-11-08T10:13:35Z</time>
      </trkpt>
      <trkpt lat="45.86445" lon="4.7182">
        <ele>197</ele>
        <time>2016-11-08T10:13:36Z</time>
      </trkpt>
      <trkpt lat="45.86441" lon="4.71817">
        <ele>197</ele>
        <time>2016-11-08T10:13:37Z</time>
      </trkpt>
      <trkpt lat="45.86437" lon="4.71814">
        <ele>197</ele>
        <time>2016-11-08T10:13:38Z</time>
      </trkpt>
      <trkpt lat="45.86433" lon="4.71811">
        <ele>197</ele>
        <time>2016-11-08T10:13:39Z</time>
      </trkpt>
      <trkpt lat="45.86429" lon="4.71808">
        <ele>197</ele>
        <time>2016-11-08T10:13:40Z</time>
      </trkpt>
      <trkpt lat="45.86424" lon="4.71805">
        <ele>197</ele>
        <time>2016-11-08T10:13:41Z</time>
      </trkpt>
      <trkpt lat="45.8642" lon="4.71802">
        <ele>197</ele>
        <time>2016-11-08T10:13:42Z</time>
      </trkpt>
      <trkpt lat="45.86416" lon="4.71799">
        <ele>199</ele>
        <time>2016-11-08T10:13:43Z</time>
      </trkpt>
      <trkpt lat="45.86412" lon="4.71796">
        <ele>199</ele>
        <time>2016-11-08T10:13:44Z</time>
      </trkpt>
      <trkpt lat="45.86407" lon="4.71792">
        <ele>199</ele>
        <time>2016-11-08T10:13:45Z</time>
      </trkpt>
      <trkpt lat="45.86403" lon="4.71789">
        <ele>198</ele>
        <time>2016-11-08T10:13:46Z</time>
      </trkpt>
      <trkpt lat="45.86399" lon="4.71785">
        <ele>198</ele>
        <time>2016-11-08T10:13:47Z</time>
      </trkpt>
      <trkpt lat="45.86394" lon="4.71782">
        <ele>198</ele>
        <time>2016-11-08T10:13:48Z</time>
      </trkpt>
      <trkpt lat="45.8639" lon="4.71779">
        <ele>198</ele>
        <time>2016-11-08T10:13:49Z</time>
      </trkpt>
      <trkpt lat="45.86386" lon="4.71775">
        <ele>198</ele>
        <time>2016-11-08T10:13:50Z</time>
      </trkpt>
      <trkpt lat="45.86382" lon="4.71772">
        <ele>198</ele>
        <time>2016-11-08T10:13:51Z</time>
      </trkpt>
      <trkpt lat="45.86378" lon="4.71768">
        <ele>198</ele>
        <time>2016-11-08T10:13:52Z</time>
      </trkpt>
      <trkpt lat="45.86373" lon="4.71765">
        <ele>198</ele>
        <time>2016-11-08T10:13:53Z</time>
      </trkpt>
      <trkpt lat="45.86369" lon="4.71762">
        <ele>198</ele>
        <time>2016-11-08T10:13:54Z</time>
      </trkpt>
      <trkpt lat="45.86365" lon="4.71759">
        <ele>198</ele>
        <time>2016-11-08T10:13:55Z</time>
      </trkpt>
      <trkpt lat="45.8636" lon="4.71756">
        <ele>198</ele>
        <time>2016-11-08T10:13:56Z</time>
      </trkpt>
      <trkpt lat="45.86342" lon="4.71742">
        <ele>195</ele>
        <time>2016-11-08T10:14:00Z</time>
      </trkpt>
      <trkpt lat="45.86338" lon="4.71739">
        <ele>195</ele>
        <time>2016-11-08T10:14:01Z</time>
      </trkpt>
      <trkpt lat="45.86334" lon="4.71736">
        <ele>195</ele>
        <time>2016-11-08T10:14:02Z</time>
      </trkpt>
      <trkpt lat="45.8633" lon="4.71733">
        <ele>196</ele>
        <time>2016-11-08T10:14:03Z</time>
      </trkpt>
      <trkpt lat="45.86326" lon="4.7173">
        <ele>196</ele>
        <time>2016-11-08T10:14:04Z</time>
      </trkpt>
      <trkpt lat="45.86321" lon="4.71726">
        <ele>196</ele>
        <time>2016-11-08T10:14:05Z</time>
      </trkpt>
      <trkpt lat="45.86317" lon="4.71723">
        <ele>196</ele>
        <time>2016-11-08T10:14:06Z</time>
      </trkpt>
      <trkpt lat="45.86312" lon="4.71718">
        <ele>196</ele>
        <time>2016-11-08T10:14:07Z</time>
      </trkpt>
      <trkpt lat="45.86306" lon="4.71714">
        <ele>195</ele>
        <time>2016-11-08T10:14:08Z</time>
      </trkpt>
      <trkpt lat="45.86302" lon="4.71709">
        <ele>195</ele>
        <time>2016-11-08T10:14:09Z</time>
      </trkpt>
      <trkpt lat="45.86297" lon="4.71705">
        <ele>195</ele>
        <time>2016-11-08T10:14:10Z</time>
      </trkpt>
      <trkpt lat="45.86278" lon="4.7169">
        <ele>195</ele>
        <time>2016-11-08T10:14:14Z</time>
      </trkpt>
      <trkpt lat="45.86273" lon="4.71687">
        <ele>195</ele>
        <time>2016-11-08T10:14:15Z</time>
      </trkpt>
      <trkpt lat="45.86269" lon="4.71683">
        <ele>195</ele>
        <time>2016-11-08T10:14:16Z</time>
      </trkpt>
      <trkpt lat="45.86264" lon="4.7168">
        <ele>195</ele>
        <time>2016-11-08T10:14:17Z</time>
      </trkpt>
      <trkpt lat="45.86255" lon="4.71672">
        <ele>195</ele>
        <time>2016-11-08T10:14:19Z</time>
      </trkpt>
      <trkpt lat="45.86251" lon="4.71669">
        <ele>195</ele>
        <time>2016-11-08T10:14:20Z</time>
      </trkpt>
      <trkpt lat="45.86246" lon="4.71666">
        <ele>195</ele>
        <time>2016-11-08T10:14:21Z</time>
      </trkpt>
      <trkpt lat="45.86242" lon="4.71663">
        <ele>195</ele>
        <time>2016-11-08T10:14:22Z</time>
      </trkpt>
      <trkpt lat="45.86238" lon="4.71659">
        <ele>195</ele>
        <time>2016-11-08T10:14:23Z</time>
      </trkpt>
      <trkpt lat="45.86234" lon="4.71655">
        <ele>195</ele>
        <time>2016-11-08T10:14:24Z</time>
      </trkpt>
      <trkpt lat="45.86228" lon="4.71651">
        <ele>195</ele>
        <time>2016-11-08T10:14:25Z</time>
      </trkpt>
      <trkpt lat="45.86216" lon="4.7164">
        <ele>195</ele>
        <time>2016-11-08T10:14:28Z</time>
      </trkpt>
      <trkpt lat="45.86213" lon="4.71634">
        <ele>195</ele>
        <time>2016-11-08T10:14:29Z</time>
      </trkpt>
      <trkpt lat="45.8621" lon="4.71628">
        <ele>195</ele>
        <time>2016-11-08T10:14:30Z</time>
      </trkpt>
      <trkpt lat="45.86208" lon="4.7162">
        <ele>195</ele>
        <time>2016-11-08T10:14:31Z</time>
      </trkpt>
      <trkpt lat="45.86206" lon="4.71613">
        <ele>195</ele>
        <time>2016-11-08T10:14:32Z</time>
      </trkpt>
      <trkpt lat="45.86204" lon="4.71607">
        <ele>195</ele>
        <time>2016-11-08T10:14:33Z</time>
      </trkpt>
      <trkpt lat="45.86201" lon="4.71602">
        <ele>195</ele>
        <time>2016-11-08T10:14:34Z</time>
      </trkpt>
      <trkpt lat="45.86196" lon="4.71596">
        <ele>195</ele>
        <time>2016-11-08T10:14:35Z</time>
      </trkpt>
      <trkpt lat="45.86192" lon="4.71591">
        <ele>195</ele>
        <time>2016-11-08T10:14:36Z</time>
      </trkpt>
      <trkpt lat="45.86189" lon="4.71587">
        <ele>195</ele>
        <time>2016-11-08T10:14:37Z</time>
      </trkpt>
      <trkpt lat="45.86184" lon="4.71581">
        <ele>195</ele>
        <time>2016-11-08T10:14:38Z</time>
      </trkpt>
      <trkpt lat="45.86181" lon="4.71575">
        <ele>195</ele>
        <time>2016-11-08T10:14:39Z</time>
      </trkpt>
      <trkpt lat="45.86178" lon="4.7157">
        <ele>195</ele>
        <time>2016-11-08T10:14:40Z</time>
      </trkpt>
      <trkpt lat="45.86175" lon="4.71564">
        <ele>195</ele>
        <time>2016-11-08T10:14:41Z</time>
      </trkpt>
      <trkpt lat="45.86171" lon="4.71559">
        <ele>195</ele>
        <time>2016-11-08T10:14:42Z</time>
      </trkpt>
      <trkpt lat="45.86166" lon="4.71549">
        <ele>196</ele>
        <time>2016-11-08T10:14:44Z</time>
      </trkpt>
      <trkpt lat="45.86163" lon="4.71544">
        <ele>196</ele>
        <time>2016-11-08T10:14:45Z</time>
      </trkpt>
      <trkpt lat="45.8616" lon="4.71539">
        <ele>195</ele>
        <time>2016-11-08T10:14:46Z</time>
      </trkpt>
      <trkpt lat="45.86157" lon="4.71534">
        <ele>195</ele>
        <time>2016-11-08T10:14:47Z</time>
      </trkpt>
      <trkpt lat="45.86155" lon="4.71528">
        <ele>195</ele>
        <time>2016-11-08T10:14:48Z</time>
      </trkpt>
      <trkpt lat="45.86152" lon="4.71522">
        <ele>195</ele>
        <time>2016-11-08T10:14:49Z</time>
      </trkpt>
      <trkpt lat="45.86147" lon="4.71517">
        <ele>195</ele>
        <time>2016-11-08T10:14:50Z</time>
      </trkpt>
      <trkpt lat="45.86144" lon="4.71512">
        <ele>195</ele>
        <time>2016-11-08T10:14:51Z</time>
      </trkpt>
      <trkpt lat="45.86141" lon="4.71505">
        <ele>195</ele>
        <time>2016-11-08T10:14:52Z</time>
      </trkpt>
      <trkpt lat="45.86138" lon="4.71499">
        <ele>195</ele>
        <time>2016-11-08T10:14:53Z</time>
      </trkpt>
      <trkpt lat="45.86135" lon="4.71493">
        <ele>195</ele>
        <time>2016-11-08T10:14:54Z</time>
      </trkpt>
      <trkpt lat="45.86132" lon="4.71488">
        <ele>195</ele>
        <time>2016-11-08T10:14:55Z</time>
      </trkpt>
      <trkpt lat="45.86128" lon="4.71476">
        <ele>195</ele>
        <time>2016-11-08T10:14:57Z</time>
      </trkpt>
      <trkpt lat="45.86126" lon="4.71471">
        <ele>195</ele>
        <time>2016-11-08T10:14:58Z</time>
      </trkpt>
      <trkpt lat="45.86123" lon="4.71452">
        <ele>195</ele>
        <time>2016-11-08T10:15:01Z</time>
      </trkpt>
      <trkpt lat="45.86121" lon="4.7144">
        <ele>195</ele>
        <time>2016-11-08T10:15:03Z</time>
      </trkpt>
      <trkpt lat="45.86121" lon="4.71434">
        <ele>195</ele>
        <time>2016-11-08T10:15:04Z</time>
      </trkpt>
      <trkpt lat="45.8612" lon="4.71428">
        <ele>195</ele>
        <time>2016-11-08T10:15:05Z</time>
      </trkpt>
      <trkpt lat="45.86118" lon="4.71421">
        <ele>195</ele>
        <time>2016-11-08T10:15:06Z</time>
      </trkpt>
      <trkpt lat="45.86118" lon="4.71416">
        <ele>196</ele>
        <time>2016-11-08T10:15:07Z</time>
      </trkpt>
      <trkpt lat="45.86117" lon="4.71408">
        <ele>196</ele>
        <time>2016-11-08T10:15:08Z</time>
      </trkpt>
      <trkpt lat="45.86115" lon="4.714">
        <ele>196</ele>
        <time>2016-11-08T10:15:09Z</time>
      </trkpt>
      <trkpt lat="45.86113" lon="4.71392">
        <ele>196</ele>
        <time>2016-11-08T10:15:10Z</time>
      </trkpt>
      <trkpt lat="45.86113" lon="4.71386">
        <ele>196</ele>
        <time>2016-11-08T10:15:11Z</time>
      </trkpt>
      <trkpt lat="45.86112" lon="4.71378">
        <ele>196</ele>
        <time>2016-11-08T10:15:12Z</time>
      </trkpt>
      <trkpt lat="45.86111" lon="4.71371">
        <ele>196</ele>
        <time>2016-11-08T10:15:13Z</time>
      </trkpt>
      <trkpt lat="45.86107" lon="4.71363">
        <ele>196</ele>
        <time>2016-11-08T10:15:14Z</time>
      </trkpt>
      <trkpt lat="45.86105" lon="4.71357">
        <ele>196</ele>
        <time>2016-11-08T10:15:15Z</time>
      </trkpt>
      <trkpt lat="45.86104" lon="4.71351">
        <ele>196</ele>
        <time>2016-11-08T10:15:16Z</time>
      </trkpt>
      <trkpt lat="45.86103" lon="4.71343">
        <ele>196</ele>
        <time>2016-11-08T10:15:17Z</time>
      </trkpt>
      <trkpt lat="45.86103" lon="4.71336">
        <ele>196</ele>
        <time>2016-11-08T10:15:18Z</time>
      </trkpt>
      <trkpt lat="45.86102" lon="4.71328">
        <ele>197</ele>
        <time>2016-11-08T10:15:19Z</time>
      </trkpt>
      <trkpt lat="45.86101" lon="4.7132">
        <ele>197</ele>
        <time>2016-11-08T10:15:20Z</time>
      </trkpt>
      <trkpt lat="45.86099" lon="4.71308">
        <ele>197</ele>
        <time>2016-11-08T10:15:22Z</time>
      </trkpt>
      <trkpt lat="45.86098" lon="4.71301">
        <ele>197</ele>
        <time>2016-11-08T10:15:23Z</time>
      </trkpt>
      <trkpt lat="45.86097" lon="4.71294">
        <ele>197</ele>
        <time>2016-11-08T10:15:24Z</time>
      </trkpt>
      <trkpt lat="45.86097" lon="4.71288">
        <ele>197</ele>
        <time>2016-11-08T10:15:25Z</time>
      </trkpt>
      <trkpt lat="45.86096" lon="4.71281">
        <ele>197</ele>
        <time>2016-11-08T10:15:26Z</time>
      </trkpt>
      <trkpt lat="45.86094" lon="4.71275">
        <ele>197</ele>
        <time>2016-11-08T10:15:27Z</time>
      </trkpt>
      <trkpt lat="45.86091" lon="4.71269">
        <ele>197</ele>
        <time>2016-11-08T10:15:28Z</time>
      </trkpt>
      <trkpt lat="45.86089" lon="4.71263">
        <ele>197</ele>
        <time>2016-11-08T10:15:29Z</time>
      </trkpt>
      <trkpt lat="45.86083" lon="4.71253">
        <ele>198</ele>
        <time>2016-11-08T10:15:31Z</time>
      </trkpt>
      <trkpt lat="45.86081" lon="4.71249">
        <ele>198</ele>
        <time>2016-11-08T10:15:32Z</time>
      </trkpt>
      <trkpt lat="45.86079" lon="4.71243">
        <ele>198</ele>
        <time>2016-11-08T10:15:33Z</time>
      </trkpt>
      <trkpt lat="45.86079" lon="4.71236">
        <ele>198</ele>
        <time>2016-11-08T10:15:34Z</time>
      </trkpt>
      <trkpt lat="45.86079" lon="4.71228">
        <ele>198</ele>
        <time>2016-11-08T10:15:35Z</time>
      </trkpt>
      <trkpt lat="45.8608" lon="4.71221">
        <ele>198</ele>
        <time>2016-11-08T10:15:36Z</time>
      </trkpt>
      <trkpt lat="45.86081" lon="4.71209">
        <ele>198</ele>
        <time>2016-11-08T10:15:38Z</time>
      </trkpt>
      <trkpt lat="45.86082" lon="4.71204">
        <ele>198</ele>
        <time>2016-11-08T10:15:39Z</time>
      </trkpt>
      <trkpt lat="45.86085" lon="4.71192">
        <ele>197</ele>
        <time>2016-11-08T10:15:41Z</time>
      </trkpt>
      <trkpt lat="45.86087" lon="4.71186">
        <ele>197</ele>
        <time>2016-11-08T10:15:42Z</time>
      </trkpt>
      <trkpt lat="45.86088" lon="4.71179">
        <ele>197</ele>
        <time>2016-11-08T10:15:43Z</time>
      </trkpt>
      <trkpt lat="45.86089" lon="4.71172">
        <ele>198</ele>
        <time>2016-11-08T10:15:44Z</time>
      </trkpt>
      <trkpt lat="45.86086" lon="4.71162">
        <ele>198</ele>
        <time>2016-11-08T10:15:45Z</time>
      </trkpt>
      <trkpt lat="45.86086" lon="4.71154">
        <ele>197</ele>
        <time>2016-11-08T10:15:46Z</time>
      </trkpt>
      <trkpt lat="45.86083" lon="4.71141">
        <ele>197</ele>
        <time>2016-11-08T10:15:48Z</time>
      </trkpt>
      <trkpt lat="45.86076" lon="4.71132">
        <ele>197</ele>
        <time>2016-11-08T10:15:50Z</time>
      </trkpt>
      <trkpt lat="45.86073" lon="4.71127">
        <ele>197</ele>
        <time>2016-11-08T10:15:51Z</time>
      </trkpt>
      <trkpt lat="45.86069" lon="4.71123">
        <ele>197</ele>
        <time>2016-11-08T10:15:52Z</time>
      </trkpt>
      <trkpt lat="45.86064" lon="4.7112">
        <ele>197</ele>
        <time>2016-11-08T10:15:53Z</time>
      </trkpt>
      <trkpt lat="45.86059" lon="4.71116">
        <ele>197</ele>
        <time>2016-11-08T10:15:54Z</time>
      </trkpt>
      <trkpt lat="45.86055" lon="4.71112">
        <ele>197</ele>
        <time>2016-11-08T10:15:55Z</time>
      </trkpt>
      <trkpt lat="45.86051" lon="4.71108">
        <ele>197</ele>
        <time>2016-11-08T10:15:56Z</time>
      </trkpt>
      <trkpt lat="45.86048" lon="4.71103">
        <ele>197</ele>
        <time>2016-11-08T10:15:57Z</time>
      </trkpt>
      <trkpt lat="45.86045" lon="4.71098">
        <ele>197</ele>
        <time>2016-11-08T10:15:58Z</time>
      </trkpt>
      <trkpt lat="45.86042" lon="4.71093">
        <ele>197</ele>
        <time>2016-11-08T10:15:59Z</time>
      </trkpt>
      <trkpt lat="45.86039" lon="4.71088">
        <ele>197</ele>
        <time>2016-11-08T10:16:00Z</time>
      </trkpt>
      <trkpt lat="45.86036" lon="4.71082">
        <ele>197</ele>
        <time>2016-11-08T10:16:01Z</time>
      </trkpt>
      <trkpt lat="45.86034" lon="4.71075">
        <ele>197</ele>
        <time>2016-11-08T10:16:02Z</time>
      </trkpt>
      <trkpt lat="45.86033" lon="4.71068">
        <ele>197</ele>
        <time>2016-11-08T10:16:03Z</time>
      </trkpt>
      <trkpt lat="45.86032" lon="4.71061">
        <ele>197</ele>
        <time>2016-11-08T10:16:04Z</time>
      </trkpt>
      <trkpt lat="45.86031" lon="4.71054">
        <ele>197</ele>
        <time>2016-11-08T10:16:05Z</time>
      </trkpt>
      <trkpt lat="45.8603" lon="4.71041">
        <ele>197</ele>
        <time>2016-11-08T10:16:07Z</time>
      </trkpt>
      <trkpt lat="45.86029" lon="4.71035">
        <ele>197</ele>
        <time>2016-11-08T10:16:08Z</time>
      </trkpt>
      <trkpt lat="45.86026" lon="4.71024">
        <ele>197</ele>
        <time>2016-11-08T10:16:10Z</time>
      </trkpt>
      <trkpt lat="45.86024" lon="4.71019">
        <ele>197</ele>
        <time>2016-11-08T10:16:11Z</time>
      </trkpt>
      <trkpt lat="45.86019" lon="4.71009">
        <ele>197</ele>
        <time>2016-11-08T10:16:13Z</time>
      </trkpt>
      <trkpt lat="45.86016" lon="4.71004">
        <ele>197</ele>
        <time>2016-11-08T10:16:14Z</time>
      </trkpt>
      <trkpt lat="45.86013" lon="4.70998">
        <ele>197</ele>
        <time>2016-11-08T10:16:15Z</time>
      </trkpt>
      <trkpt lat="45.8601" lon="4.70994">
        <ele>197</ele>
        <time>2016-11-08T10:16:16Z</time>
      </trkpt>
      <trkpt lat="45.86006" lon="4.70989">
        <ele>197</ele>
        <time>2016-11-08T10:16:17Z</time>
      </trkpt>
      <trkpt lat="45.86002" lon="4.70984">
        <ele>197</ele>
        <time>2016-11-08T10:16:18Z</time>
      </trkpt>
      <trkpt lat="45.85998" lon="4.7098">
        <ele>197</ele>
        <time>2016-11-08T10:16:19Z</time>
      </trkpt>
      <trkpt lat="45.85993" lon="4.70977">
        <ele>197</ele>
        <time>2016-11-08T10:16:20Z</time>
      </trkpt>
      <trkpt lat="45.85989" lon="4.70975">
        <ele>197</ele>
        <time>2016-11-08T10:16:21Z</time>
      </trkpt>
      <trkpt lat="45.85984" lon="4.70973">
        <ele>197</ele>
        <time>2016-11-08T10:16:22Z</time>
      </trkpt>
      <trkpt lat="45.85979" lon="4.7097">
        <ele>197</ele>
        <time>2016-11-08T10:16:23Z</time>
      </trkpt>
      <trkpt lat="45.85975" lon="4.70969">
        <ele>197</ele>
        <time>2016-11-08T10:16:24Z</time>
      </trkpt>
      <trkpt lat="45.8597" lon="4.70969">
        <ele>197</ele>
        <time>2016-11-08T10:16:25Z</time>
      </trkpt>
      <trkpt lat="45.85966" lon="4.70968">
        <ele>197</ele>
        <time>2016-11-08T10:16:26Z</time>
      </trkpt>
      <trkpt lat="45.85961" lon="4.70968">
        <ele>197</ele>
        <time>2016-11-08T10:16:27Z</time>
      </trkpt>
      <trkpt lat="45.85956" lon="4.70968">
        <ele>197</ele>
        <time>2016-11-08T10:16:28Z</time>
      </trkpt>
      <trkpt lat="45.85951" lon="4.70968">
        <ele>197</ele>
        <time>2016-11-08T10:16:29Z</time>
      </trkpt>
      <trkpt lat="45.85946" lon="4.70968">
        <ele>197</ele>
        <time>2016-11-08T10:16:30Z</time>
      </trkpt>
      <trkpt lat="45.8594" lon="4.70964">
        <ele>197</ele>
        <time>2016-11-08T10:16:32Z</time>
      </trkpt>
      <trkpt lat="45.85938" lon="4.70961">
        <ele>197</ele>
        <time>2016-11-08T10:16:33Z</time>
      </trkpt>
      <trkpt lat="45.85941" lon="4.70949">
        <ele>197</ele>
        <time>2016-11-08T10:16:35Z</time>
      </trkpt>
      <trkpt lat="45.85942" lon="4.70941">
        <ele>197</ele>
        <time>2016-11-08T10:16:36Z</time>
      </trkpt>
      <trkpt lat="45.85944" lon="4.70934">
        <ele>197</ele>
        <time>2016-11-08T10:16:37Z</time>
      </trkpt>
      <trkpt lat="45.85945" lon="4.70926">
        <ele>197</ele>
        <time>2016-11-08T10:16:38Z</time>
      </trkpt>
      <trkpt lat="45.85946" lon="4.70918">
        <ele>197</ele>
        <time>2016-11-08T10:16:39Z</time>
      </trkpt>
      <trkpt lat="45.85946" lon="4.70911">
        <ele>197</ele>
        <time>2016-11-08T10:16:40Z</time>
      </trkpt>
      <trkpt lat="45.85948" lon="4.70904">
        <ele>197</ele>
        <time>2016-11-08T10:16:41Z</time>
      </trkpt>
      <trkpt lat="45.85951" lon="4.70898">
        <ele>197</ele>
        <time>2016-11-08T10:16:42Z</time>
      </trkpt>
      <trkpt lat="45.85953" lon="4.70892">
        <ele>197</ele>
        <time>2016-11-08T10:16:43Z</time>
      </trkpt>
      <trkpt lat="45.85955" lon="4.70885">
        <ele>197</ele>
        <time>2016-11-08T10:16:44Z</time>
      </trkpt>
      <trkpt lat="45.85956" lon="4.70879">
        <ele>197</ele>
        <time>2016-11-08T10:16:45Z</time>
      </trkpt>
      <trkpt lat="45.85958" lon="4.70872">
        <ele>196</ele>
        <time>2016-11-08T10:16:46Z</time>
      </trkpt>
      <trkpt lat="45.85959" lon="4.70865">
        <ele>196</ele>
        <time>2016-11-08T10:16:47Z</time>
      </trkpt>
      <trkpt lat="45.8596" lon="4.70858">
        <ele>196</ele>
        <time>2016-11-08T10:16:48Z</time>
      </trkpt>
      <trkpt lat="45.8596" lon="4.70851">
        <ele>196</ele>
        <time>2016-11-08T10:16:49Z</time>
      </trkpt>
      <trkpt lat="45.8596" lon="4.70844">
        <ele>196</ele>
        <time>2016-11-08T10:16:50Z</time>
      </trkpt>
      <trkpt lat="45.8596" lon="4.70837">
        <ele>196</ele>
        <time>2016-11-08T10:16:51Z</time>
      </trkpt>
      <trkpt lat="45.8596" lon="4.7083">
        <ele>196</ele>
        <time>2016-11-08T10:16:52Z</time>
      </trkpt>
      <trkpt lat="45.85959" lon="4.70818">
        <ele>195</ele>
        <time>2016-11-08T10:16:54Z</time>
      </trkpt>
      <trkpt lat="45.85958" lon="4.70811">
        <ele>195</ele>
        <time>2016-11-08T10:16:55Z</time>
      </trkpt>
      <trkpt lat="45.85956" lon="4.70803">
        <ele>195</ele>
        <time>2016-11-08T10:16:56Z</time>
      </trkpt>
      <trkpt lat="45.85956" lon="4.70796">
        <ele>195</ele>
        <time>2016-11-08T10:16:57Z</time>
      </trkpt>
      <trkpt lat="45.85955" lon="4.70788">
        <ele>195</ele>
        <time>2016-11-08T10:16:58Z</time>
      </trkpt>
      <trkpt lat="45.85957" lon="4.70781">
        <ele>195</ele>
        <time>2016-11-08T10:16:59Z</time>
      </trkpt>
      <trkpt lat="45.85957" lon="4.70773">
        <ele>195</ele>
        <time>2016-11-08T10:17:00Z</time>
      </trkpt>
      <trkpt lat="45.85958" lon="4.70765">
        <ele>195</ele>
        <time>2016-11-08T10:17:01Z</time>
      </trkpt>
      <trkpt lat="45.85959" lon="4.70757">
        <ele>195</ele>
        <time>2016-11-08T10:17:02Z</time>
      </trkpt>
      <trkpt lat="45.85959" lon="4.70749">
        <ele>194</ele>
        <time>2016-11-08T10:17:03Z</time>
      </trkpt>
      <trkpt lat="45.85959" lon="4.70742">
        <ele>194</ele>
        <time>2016-11-08T10:17:04Z</time>
      </trkpt>
      <trkpt lat="45.8596" lon="4.70735">
        <ele>194</ele>
        <time>2016-11-08T10:17:05Z</time>
      </trkpt>
      <trkpt lat="45.85961" lon="4.70728">
        <ele>194</ele>
        <time>2016-11-08T10:17:06Z</time>
      </trkpt>
      <trkpt lat="45.85962" lon="4.70721">
        <ele>194</ele>
        <time>2016-11-08T10:17:07Z</time>
      </trkpt>
      <trkpt lat="45.85962" lon="4.70713">
        <ele>194</ele>
        <time>2016-11-08T10:17:08Z</time>
      </trkpt>
      <trkpt lat="45.85963" lon="4.70706">
        <ele>194</ele>
        <time>2016-11-08T10:17:09Z</time>
      </trkpt>
      <trkpt lat="45.85963" lon="4.70694">
        <ele>194</ele>
        <time>2016-11-08T10:17:11Z</time>
      </trkpt>
      <trkpt lat="45.85962" lon="4.70687">
        <ele>194</ele>
        <time>2016-11-08T10:17:12Z</time>
      </trkpt>
      <trkpt lat="45.8596" lon="4.7068">
        <ele>194</ele>
        <time>2016-11-08T10:17:13Z</time>
      </trkpt>
      <trkpt lat="45.85958" lon="4.70673">
        <ele>194</ele>
        <time>2016-11-08T10:17:14Z</time>
      </trkpt>
      <trkpt lat="45.85955" lon="4.70667">
        <ele>194</ele>
        <time>2016-11-08T10:17:15Z</time>
      </trkpt>
      <trkpt lat="45.85953" lon="4.70661">
        <ele>194</ele>
        <time>2016-11-08T10:17:16Z</time>
      </trkpt>
      <trkpt lat="45.8595" lon="4.70655">
        <ele>194</ele>
        <time>2016-11-08T10:17:17Z</time>
      </trkpt>
      <trkpt lat="45.85947" lon="4.7065">
        <ele>194</ele>
        <time>2016-11-08T10:17:18Z</time>
      </trkpt>
      <trkpt lat="45.85944" lon="4.70645">
        <ele>194</ele>
        <time>2016-11-08T10:17:19Z</time>
      </trkpt>
      <trkpt lat="45.85941" lon="4.7064">
        <ele>194</ele>
        <time>2016-11-08T10:17:20Z</time>
      </trkpt>
      <trkpt lat="45.85938" lon="4.70634">
        <ele>194</ele>
        <time>2016-11-08T10:17:21Z</time>
      </trkpt>
      <trkpt lat="45.85935" lon="4.70629">
        <ele>194</ele>
        <time>2016-11-08T10:17:22Z</time>
      </trkpt>
      <trkpt lat="45.85931" lon="4.70623">
        <ele>194</ele>
        <time>2016-11-08T10:17:23Z</time>
      </trkpt>
      <trkpt lat="45.85928" lon="4.70617">
        <ele>194</ele>
        <time>2016-11-08T10:17:24Z</time>
      </trkpt>
      <trkpt lat="45.85924" lon="4.70611">
        <ele>194</ele>
        <time>2016-11-08T10:17:25Z</time>
      </trkpt>
      <trkpt lat="45.85921" lon="4.70605">
        <ele>194</ele>
        <time>2016-11-08T10:17:26Z</time>
      </trkpt>
      <trkpt lat="45.85918" lon="4.706">
        <ele>194</ele>
        <time>2016-11-08T10:17:27Z</time>
      </trkpt>
      <trkpt lat="45.85914" lon="4.70595">
        <ele>195</ele>
        <time>2016-11-08T10:17:28Z</time>
      </trkpt>
      <trkpt lat="45.85911" lon="4.7059">
        <ele>195</ele>
        <time>2016-11-08T10:17:29Z</time>
      </trkpt>
      <trkpt lat="45.85907" lon="4.70586">
        <ele>195</ele>
        <time>2016-11-08T10:17:30Z</time>
      </trkpt>
      <trkpt lat="45.859" lon="4.70579">
        <ele>195</ele>
        <time>2016-11-08T10:17:32Z</time>
      </trkpt>
      <trkpt lat="45.85895" lon="4.70577">
        <ele>195</ele>
        <time>2016-11-08T10:17:33Z</time>
      </trkpt>
      <trkpt lat="45.85891" lon="4.70576">
        <ele>195</ele>
        <time>2016-11-08T10:17:34Z</time>
      </trkpt>
      <trkpt lat="45.85886" lon="4.70575">
        <ele>195</ele>
        <time>2016-11-08T10:17:35Z</time>
      </trkpt>
      <trkpt lat="45.85882" lon="4.70574">
        <ele>195</ele>
        <time>2016-11-08T10:17:36Z</time>
      </trkpt>
      <trkpt lat="45.85877" lon="4.70573">
        <ele>195</ele>
        <time>2016-11-08T10:17:37Z</time>
      </trkpt>
      <trkpt lat="45.85872" lon="4.70571">
        <ele>195</ele>
        <time>2016-11-08T10:17:38Z</time>
      </trkpt>
      <trkpt lat="45.85867" lon="4.70569">
        <ele>195</ele>
        <time>2016-11-08T10:17:39Z</time>
      </trkpt>
      <trkpt lat="45.85862" lon="4.70567">
        <ele>195</ele>
        <time>2016-11-08T10:17:40Z</time>
      </trkpt>
      <trkpt lat="45.85856" lon="4.70565">
        <ele>195</ele>
        <time>2016-11-08T10:17:41Z</time>
      </trkpt>
      <trkpt lat="45.85851" lon="4.70564">
        <ele>195</ele>
        <time>2016-11-08T10:17:42Z</time>
      </trkpt>
      <trkpt lat="45.85846" lon="4.70563">
        <ele>195</ele>
        <time>2016-11-08T10:17:43Z</time>
      </trkpt>
      <trkpt lat="45.85842" lon="4.70561">
        <ele>195</ele>
        <time>2016-11-08T10:17:44Z</time>
      </trkpt>
      <trkpt lat="45.85837" lon="4.70558">
        <ele>195</ele>
        <time>2016-11-08T10:17:45Z</time>
      </trkpt>
      <trkpt lat="45.85833" lon="4.70556">
        <ele>195</ele>
        <time>2016-11-08T10:17:46Z</time>
      </trkpt>
      <trkpt lat="45.85828" lon="4.70554">
        <ele>195</ele>
        <time>2016-11-08T10:17:47Z</time>
      </trkpt>
      <trkpt lat="45.85821" lon="4.70548">
        <ele>195</ele>
        <time>2016-11-08T10:17:49Z</time>
      </trkpt>
      <trkpt lat="45.85816" lon="4.70547">
        <ele>195</ele>
        <time>2016-11-08T10:17:50Z</time>
      </trkpt>
      <trkpt lat="45.85812" lon="4.70545">
        <ele>195</ele>
        <time>2016-11-08T10:17:51Z</time>
      </trkpt>
      <trkpt lat="45.85807" lon="4.70543">
        <ele>195</ele>
        <time>2016-11-08T10:17:52Z</time>
      </trkpt>
      <trkpt lat="45.85803" lon="4.70541">
        <ele>195</ele>
        <time>2016-11-08T10:17:53Z</time>
      </trkpt>
      <trkpt lat="45.85798" lon="4.70538">
        <ele>195</ele>
        <time>2016-11-08T10:17:54Z</time>
      </trkpt>
      <trkpt lat="45.85793" lon="4.70536">
        <ele>195</ele>
        <time>2016-11-08T10:17:55Z</time>
      </trkpt>
      <trkpt lat="45.85788" lon="4.70533">
        <ele>196</ele>
        <time>2016-11-08T10:17:56Z</time>
      </trkpt>
      <trkpt lat="45.85783" lon="4.7053">
        <ele>196</ele>
        <time>2016-11-08T10:17:57Z</time>
      </trkpt>
      <trkpt lat="45.85778" lon="4.70527">
        <ele>196</ele>
        <time>2016-11-08T10:17:58Z</time>
      </trkpt>
      <trkpt lat="45.85773" lon="4.70524">
        <ele>196</ele>
        <time>2016-11-08T10:17:59Z</time>
      </trkpt>
      <trkpt lat="45.85756" lon="4.70511">
        <ele>196</ele>
        <time>2016-11-08T10:18:03Z</time>
      </trkpt>
      <trkpt lat="45.85748" lon="4.70507">
        <ele>196</ele>
        <time>2016-11-08T10:18:05Z</time>
      </trkpt>
      <trkpt lat="45.85744" lon="4.70503">
        <ele>196</ele>
        <time>2016-11-08T10:18:06Z</time>
      </trkpt>
      <trkpt lat="45.85741" lon="4.70498">
        <ele>196</ele>
        <time>2016-11-08T10:18:07Z</time>
      </trkpt>
      <trkpt lat="45.85737" lon="4.70493">
        <ele>196</ele>
        <time>2016-11-08T10:18:08Z</time>
      </trkpt>
      <trkpt lat="45.85734" lon="4.70488">
        <ele>196</ele>
        <time>2016-11-08T10:18:09Z</time>
      </trkpt>
      <trkpt lat="45.85731" lon="4.70482">
        <ele>196</ele>
        <time>2016-11-08T10:18:10Z</time>
      </trkpt>
      <trkpt lat="45.85729" lon="4.70476">
        <ele>196</ele>
        <time>2016-11-08T10:18:11Z</time>
      </trkpt>
      <trkpt lat="45.85727" lon="4.70469">
        <ele>196</ele>
        <time>2016-11-08T10:18:12Z</time>
      </trkpt>
      <trkpt lat="45.85725" lon="4.70463">
        <ele>196</ele>
        <time>2016-11-08T10:18:13Z</time>
      </trkpt>
      <trkpt lat="45.85724" lon="4.70456">
        <ele>196</ele>
        <time>2016-11-08T10:18:14Z</time>
      </trkpt>
      <trkpt lat="45.85723" lon="4.70449">
        <ele>196</ele>
        <time>2016-11-08T10:18:15Z</time>
      </trkpt>
      <trkpt lat="45.85722" lon="4.70442">
        <ele>196</ele>
        <time>2016-11-08T10:18:16Z</time>
      </trkpt>
      <trkpt lat="45.85721" lon="4.70434">
        <ele>196</ele>
        <time>2016-11-08T10:18:17Z</time>
      </trkpt>
      <trkpt lat="45.8572" lon="4.70427">
        <ele>196</ele>
        <time>2016-11-08T10:18:18Z</time>
      </trkpt>
      <trkpt lat="45.85719" lon="4.70421">
        <ele>196</ele>
        <time>2016-11-08T10:18:19Z</time>
      </trkpt>
      <trkpt lat="45.85717" lon="4.70413">
        <ele>196</ele>
        <time>2016-11-08T10:18:20Z</time>
      </trkpt>
      <trkpt lat="45.85716" lon="4.70407">
        <ele>196</ele>
        <time>2016-11-08T10:18:21Z</time>
      </trkpt>
      <trkpt lat="45.85715" lon="4.704">
        <ele>196</ele>
        <time>2016-11-08T10:18:22Z</time>
      </trkpt>
      <trkpt lat="45.85714" lon="4.70392">
        <ele>196</ele>
        <time>2016-11-08T10:18:23Z</time>
      </trkpt>
      <trkpt lat="45.85713" lon="4.70385">
        <ele>196</ele>
        <time>2016-11-08T10:18:24Z</time>
      </trkpt>
      <trkpt lat="45.85713" lon="4.70378">
        <ele>196</ele>
        <time>2016-11-08T10:18:25Z</time>
      </trkpt>
      <trkpt lat="45.85712" lon="4.7037">
        <ele>196</ele>
        <time>2016-11-08T10:18:26Z</time>
      </trkpt>
      <trkpt lat="45.85711" lon="4.70363">
        <ele>196</ele>
        <time>2016-11-08T10:18:27Z</time>
      </trkpt>
      <trkpt lat="45.8571" lon="4.70356">
        <ele>196</ele>
        <time>2016-11-08T10:18:28Z</time>
      </trkpt>
      <trkpt lat="45.8571" lon="4.70348">
        <ele>196</ele>
        <time>2016-11-08T10:18:29Z</time>
      </trkpt>
      <trkpt lat="45.85709" lon="4.70341">
        <ele>196</ele>
        <time>2016-11-08T10:18:30Z</time>
      </trkpt>
      <trkpt lat="45.85708" lon="4.70334">
        <ele>196</ele>
        <time>2016-11-08T10:18:31Z</time>
      </trkpt>
      <trkpt lat="45.85707" lon="4.70326">
        <ele>197</ele>
        <time>2016-11-08T10:18:32Z</time>
      </trkpt>
      <trkpt lat="45.85706" lon="4.70318">
        <ele>197</ele>
        <time>2016-11-08T10:18:33Z</time>
      </trkpt>
      <trkpt lat="45.85706" lon="4.7031">
        <ele>197</ele>
        <time>2016-11-08T10:18:34Z</time>
      </trkpt>
      <trkpt lat="45.85705" lon="4.70303">
        <ele>197</ele>
        <time>2016-11-08T10:18:35Z</time>
      </trkpt>
      <trkpt lat="45.85704" lon="4.70295">
        <ele>197</ele>
        <time>2016-11-08T10:18:36Z</time>
      </trkpt>
      <trkpt lat="45.85703" lon="4.70287">
        <ele>197</ele>
        <time>2016-11-08T10:18:37Z</time>
      </trkpt>
      <trkpt lat="45.85702" lon="4.7028">
        <ele>197</ele>
        <time>2016-11-08T10:18:38Z</time>
      </trkpt>
      <trkpt lat="45.85701" lon="4.70272">
        <ele>197</ele>
        <time>2016-11-08T10:18:39Z</time>
      </trkpt>
      <trkpt lat="45.857" lon="4.70265">
        <ele>197</ele>
        <time>2016-11-08T10:18:40Z</time>
      </trkpt>
      <trkpt lat="45.85699" lon="4.70257">
        <ele>197</ele>
        <time>2016-11-08T10:18:41Z</time>
      </trkpt>
      <trkpt lat="45.85698" lon="4.7025">
        <ele>197</ele>
        <time>2016-11-08T10:18:42Z</time>
      </trkpt>
      <trkpt lat="45.85698" lon="4.70242">
        <ele>197</ele>
        <time>2016-11-08T10:18:43Z</time>
      </trkpt>
      <trkpt lat="45.85697" lon="4.70235">
        <ele>197</ele>
        <time>2016-11-08T10:18:44Z</time>
      </trkpt>
      <trkpt lat="45.85696" lon="4.70228">
        <ele>197</ele>
        <time>2016-11-08T10:18:45Z</time>
      </trkpt>
      <trkpt lat="45.85695" lon="4.70221">
        <ele>197</ele>
        <time>2016-11-08T10:18:46Z</time>
      </trkpt>
      <trkpt lat="45.85694" lon="4.70214">
        <ele>197</ele>
        <time>2016-11-08T10:18:47Z</time>
      </trkpt>
      <trkpt lat="45.85693" lon="4.70207">
        <ele>197</ele>
        <time>2016-11-08T10:18:48Z</time>
      </trkpt>
      <trkpt lat="45.85692" lon="4.702">
        <ele>197</ele>
        <time>2016-11-08T10:18:49Z</time>
      </trkpt>
      <trkpt lat="45.8569" lon="4.70193">
        <ele>197</ele>
        <time>2016-11-08T10:18:50Z</time>
      </trkpt>
      <trkpt lat="45.85689" lon="4.70186">
        <ele>197</ele>
        <time>2016-11-08T10:18:51Z</time>
      </trkpt>
      <trkpt lat="45.85688" lon="4.7018">
        <ele>197</ele>
        <time>2016-11-08T10:18:52Z</time>
      </trkpt>
      <trkpt lat="45.85686" lon="4.70173">
        <ele>197</ele>
        <time>2016-11-08T10:18:53Z</time>
      </trkpt>
      <trkpt lat="45.85685" lon="4.70166">
        <ele>197</ele>
        <time>2016-11-08T10:18:54Z</time>
      </trkpt>
      <trkpt lat="45.85683" lon="4.70159">
        <ele>197</ele>
        <time>2016-11-08T10:18:55Z</time>
      </trkpt>
      <trkpt lat="45.85681" lon="4.70152">
        <ele>197</ele>
        <time>2016-11-08T10:18:56Z</time>
      </trkpt>
      <trkpt lat="45.8568" lon="4.70145">
        <ele>197</ele>
        <time>2016-11-08T10:18:57Z</time>
      </trkpt>
      <trkpt lat="45.85679" lon="4.70139">
        <ele>197</ele>
        <time>2016-11-08T10:18:58Z</time>
      </trkpt>
      <trkpt lat="45.85678" lon="4.70132">
        <ele>197</ele>
        <time>2016-11-08T10:18:59Z</time>
      </trkpt>
      <trkpt lat="45.85677" lon="4.70125">
        <ele>197</ele>
        <time>2016-11-08T10:19:00Z</time>
      </trkpt>
      <trkpt lat="45.85676" lon="4.70111">
        <ele>197</ele>
        <time>2016-11-08T10:19:02Z</time>
      </trkpt>
      <trkpt lat="45.85677" lon="4.70105">
        <ele>196</ele>
        <time>2016-11-08T10:19:03Z</time>
      </trkpt>
      <trkpt lat="45.85677" lon="4.70098">
        <ele>196</ele>
        <time>2016-11-08T10:19:04Z</time>
      </trkpt>
      <trkpt lat="45.85678" lon="4.70091">
        <ele>196</ele>
        <time>2016-11-08T10:19:05Z</time>
      </trkpt>
      <trkpt lat="45.85678" lon="4.70085">
        <ele>196</ele>
        <time>2016-11-08T10:19:06Z</time>
      </trkpt>
      <trkpt lat="45.85682" lon="4.70064">
        <ele>196</ele>
        <time>2016-11-08T10:19:10Z</time>
      </trkpt>
      <trkpt lat="45.85685" lon="4.70053">
        <ele>195</ele>
        <time>2016-11-08T10:19:12Z</time>
      </trkpt>
      <trkpt lat="45.85686" lon="4.70048">
        <ele>195</ele>
        <time>2016-11-08T10:19:13Z</time>
      </trkpt>
      <trkpt lat="45.85687" lon="4.70042">
        <ele>195</ele>
        <time>2016-11-08T10:19:14Z</time>
      </trkpt>
      <trkpt lat="45.85689" lon="4.70035">
        <ele>195</ele>
        <time>2016-11-08T10:19:15Z</time>
      </trkpt>
      <trkpt lat="45.8569" lon="4.70028">
        <ele>195</ele>
        <time>2016-11-08T10:19:16Z</time>
      </trkpt>
      <trkpt lat="45.85691" lon="4.70021">
        <ele>195</ele>
        <time>2016-11-08T10:19:17Z</time>
      </trkpt>
      <trkpt lat="45.85692" lon="4.70013">
        <ele>195</ele>
        <time>2016-11-08T10:19:18Z</time>
      </trkpt>
      <trkpt lat="45.85693" lon="4.70006">
        <ele>195</ele>
        <time>2016-11-08T10:19:19Z</time>
      </trkpt>
      <trkpt lat="45.85693" lon="4.69999">
        <ele>195</ele>
        <time>2016-11-08T10:19:20Z</time>
      </trkpt>
      <trkpt lat="45.85693" lon="4.69992">
        <ele>195</ele>
        <time>2016-11-08T10:19:21Z</time>
      </trkpt>
      <trkpt lat="45.85692" lon="4.69985">
        <ele>195</ele>
        <time>2016-11-08T10:19:22Z</time>
      </trkpt>
      <trkpt lat="45.85692" lon="4.69978">
        <ele>195</ele>
        <time>2016-11-08T10:19:23Z</time>
      </trkpt>
      <trkpt lat="45.8569" lon="4.6997">
        <ele>195</ele>
        <time>2016-11-08T10:19:24Z</time>
      </trkpt>
      <trkpt lat="45.85689" lon="4.69963">
        <ele>195</ele>
        <time>2016-11-08T10:19:25Z</time>
      </trkpt>
      <trkpt lat="45.85687" lon="4.69955">
        <ele>195</ele>
        <time>2016-11-08T10:19:26Z</time>
      </trkpt>
      <trkpt lat="45.85685" lon="4.69948">
        <ele>195</ele>
        <time>2016-11-08T10:19:27Z</time>
      </trkpt>
      <trkpt lat="45.85683" lon="4.6994">
        <ele>195</ele>
        <time>2016-11-08T10:19:28Z</time>
      </trkpt>
      <trkpt lat="45.85681" lon="4.69933">
        <ele>195</ele>
        <time>2016-11-08T10:19:29Z</time>
      </trkpt>
      <trkpt lat="45.85678" lon="4.69917">
        <ele>195</ele>
        <time>2016-11-08T10:19:31Z</time>
      </trkpt>
      <trkpt lat="45.85676" lon="4.69909">
        <ele>195</ele>
        <time>2016-11-08T10:19:32Z</time>
      </trkpt>
      <trkpt lat="45.85675" lon="4.69902">
        <ele>195</ele>
        <time>2016-11-08T10:19:33Z</time>
      </trkpt>
      <trkpt lat="45.85673" lon="4.69896">
        <ele>195</ele>
        <time>2016-11-08T10:19:34Z</time>
      </trkpt>
      <trkpt lat="45.85671" lon="4.69889">
        <ele>195</ele>
        <time>2016-11-08T10:19:35Z</time>
      </trkpt>
      <trkpt lat="45.8567" lon="4.69882">
        <ele>195</ele>
        <time>2016-11-08T10:19:36Z</time>
      </trkpt>
      <trkpt lat="45.8567" lon="4.69876">
        <ele>195</ele>
        <time>2016-11-08T10:19:37Z</time>
      </trkpt>
      <trkpt lat="45.85669" lon="4.69869">
        <ele>195</ele>
        <time>2016-11-08T10:19:38Z</time>
      </trkpt>
      <trkpt lat="45.85669" lon="4.69862">
        <ele>195</ele>
        <time>2016-11-08T10:19:39Z</time>
      </trkpt>
      <trkpt lat="45.85668" lon="4.69856">
        <ele>195</ele>
        <time>2016-11-08T10:19:40Z</time>
      </trkpt>
      <trkpt lat="45.85668" lon="4.69849">
        <ele>195</ele>
        <time>2016-11-08T10:19:41Z</time>
      </trkpt>
      <trkpt lat="45.85667" lon="4.69843">
        <ele>195</ele>
        <time>2016-11-08T10:19:42Z</time>
      </trkpt>
      <trkpt lat="45.85666" lon="4.69836">
        <ele>195</ele>
        <time>2016-11-08T10:19:43Z</time>
      </trkpt>
      <trkpt lat="45.85665" lon="4.69829">
        <ele>195</ele>
        <time>2016-11-08T10:19:44Z</time>
      </trkpt>
      <trkpt lat="45.85664" lon="4.69822">
        <ele>195</ele>
        <time>2016-11-08T10:19:45Z</time>
      </trkpt>
      <trkpt lat="45.85664" lon="4.69814">
        <ele>195</ele>
        <time>2016-11-08T10:19:46Z</time>
      </trkpt>
      <trkpt lat="45.85663" lon="4.69806">
        <ele>195</ele>
        <time>2016-11-08T10:19:47Z</time>
      </trkpt>
      <trkpt lat="45.85663" lon="4.69799">
        <ele>195</ele>
        <time>2016-11-08T10:19:48Z</time>
      </trkpt>
      <trkpt lat="45.85662" lon="4.69791">
        <ele>195</ele>
        <time>2016-11-08T10:19:49Z</time>
      </trkpt>
      <trkpt lat="45.85661" lon="4.69784">
        <ele>195</ele>
        <time>2016-11-08T10:19:50Z</time>
      </trkpt>
      <trkpt lat="45.8566" lon="4.69778">
        <ele>195</ele>
        <time>2016-11-08T10:19:51Z</time>
      </trkpt>
      <trkpt lat="45.85659" lon="4.69771">
        <ele>195</ele>
        <time>2016-11-08T10:19:52Z</time>
      </trkpt>
      <trkpt lat="45.85659" lon="4.69764">
        <ele>195</ele>
        <time>2016-11-08T10:19:53Z</time>
      </trkpt>
      <trkpt lat="45.85658" lon="4.69757">
        <ele>195</ele>
        <time>2016-11-08T10:19:54Z</time>
      </trkpt>
      <trkpt lat="45.85657" lon="4.6975">
        <ele>195</ele>
        <time>2016-11-08T10:19:55Z</time>
      </trkpt>
      <trkpt lat="45.85656" lon="4.69743">
        <ele>195</ele>
        <time>2016-11-08T10:19:56Z</time>
      </trkpt>
      <trkpt lat="45.85656" lon="4.69737">
        <ele>195</ele>
        <time>2016-11-08T10:19:57Z</time>
      </trkpt>
      <trkpt lat="45.85655" lon="4.6973">
        <ele>195</ele>
        <time>2016-11-08T10:19:58Z</time>
      </trkpt>
      <trkpt lat="45.85654" lon="4.69723">
        <ele>195</ele>
        <time>2016-11-08T10:19:59Z</time>
      </trkpt>
      <trkpt lat="45.85653" lon="4.69716">
        <ele>196</ele>
        <time>2016-11-08T10:20:00Z</time>
      </trkpt>
      <trkpt lat="45.85652" lon="4.69709">
        <ele>196</ele>
        <time>2016-11-08T10:20:01Z</time>
      </trkpt>
      <trkpt lat="45.85651" lon="4.69702">
        <ele>196</ele>
        <time>2016-11-08T10:20:02Z</time>
      </trkpt>
      <trkpt lat="45.85651" lon="4.69695">
        <ele>196</ele>
        <time>2016-11-08T10:20:03Z</time>
      </trkpt>
      <trkpt lat="45.8565" lon="4.69688">
        <ele>196</ele>
        <time>2016-11-08T10:20:04Z</time>
      </trkpt>
      <trkpt lat="45.85649" lon="4.69681">
        <ele>196</ele>
        <time>2016-11-08T10:20:05Z</time>
      </trkpt>
      <trkpt lat="45.85649" lon="4.69674">
        <ele>196</ele>
        <time>2016-11-08T10:20:06Z</time>
      </trkpt>
      <trkpt lat="45.85648" lon="4.69667">
        <ele>197</ele>
        <time>2016-11-08T10:20:07Z</time>
      </trkpt>
      <trkpt lat="45.85647" lon="4.69659">
        <ele>197</ele>
        <time>2016-11-08T10:20:08Z</time>
      </trkpt>
      <trkpt lat="45.85646" lon="4.69652">
        <ele>197</ele>
        <time>2016-11-08T10:20:09Z</time>
      </trkpt>
      <trkpt lat="45.85646" lon="4.69645">
        <ele>197</ele>
        <time>2016-11-08T10:20:10Z</time>
      </trkpt>
      <trkpt lat="45.85645" lon="4.69638">
        <ele>197</ele>
        <time>2016-11-08T10:20:11Z</time>
      </trkpt>
      <trkpt lat="45.85645" lon="4.69632">
        <ele>197</ele>
        <time>2016-11-08T10:20:12Z</time>
      </trkpt>
      <trkpt lat="45.85644" lon="4.69625">
        <ele>197</ele>
        <time>2016-11-08T10:20:13Z</time>
      </trkpt>
      <trkpt lat="45.85644" lon="4.69618">
        <ele>197</ele>
        <time>2016-11-08T10:20:14Z</time>
      </trkpt>
      <trkpt lat="45.85643" lon="4.69611">
        <ele>197</ele>
        <time>2016-11-08T10:20:15Z</time>
      </trkpt>
      <trkpt lat="45.85642" lon="4.69604">
        <ele>197</ele>
        <time>2016-11-08T10:20:16Z</time>
      </trkpt>
      <trkpt lat="45.85642" lon="4.69597">
        <ele>197</ele>
        <time>2016-11-08T10:20:17Z</time>
      </trkpt>
      <trkpt lat="45.85641" lon="4.6959">
        <ele>197</ele>
        <time>2016-11-08T10:20:18Z</time>
      </trkpt>
      <trkpt lat="45.85641" lon="4.69583">
        <ele>198</ele>
        <time>2016-11-08T10:20:19Z</time>
      </trkpt>
      <trkpt lat="45.8564" lon="4.69576">
        <ele>198</ele>
        <time>2016-11-08T10:20:20Z</time>
      </trkpt>
      <trkpt lat="45.8564" lon="4.69569">
        <ele>198</ele>
        <time>2016-11-08T10:20:21Z</time>
      </trkpt>
      <trkpt lat="45.85639" lon="4.69563">
        <ele>198</ele>
        <time>2016-11-08T10:20:22Z</time>
      </trkpt>
      <trkpt lat="45.85638" lon="4.69556">
        <ele>198</ele>
        <time>2016-11-08T10:20:23Z</time>
      </trkpt>
      <trkpt lat="45.85638" lon="4.69549">
        <ele>198</ele>
        <time>2016-11-08T10:20:24Z</time>
      </trkpt>
      <trkpt lat="45.85637" lon="4.69542">
        <ele>198</ele>
        <time>2016-11-08T10:20:25Z</time>
      </trkpt>
      <trkpt lat="45.85637" lon="4.69534">
        <ele>198</ele>
        <time>2016-11-08T10:20:26Z</time>
      </trkpt>
      <trkpt lat="45.85636" lon="4.69527">
        <ele>198</ele>
        <time>2016-11-08T10:20:27Z</time>
      </trkpt>
      <trkpt lat="45.85635" lon="4.6952">
        <ele>198</ele>
        <time>2016-11-08T10:20:28Z</time>
      </trkpt>
      <trkpt lat="45.85634" lon="4.69513">
        <ele>198</ele>
        <time>2016-11-08T10:20:29Z</time>
      </trkpt>
      <trkpt lat="45.85633" lon="4.69506">
        <ele>198</ele>
        <time>2016-11-08T10:20:30Z</time>
      </trkpt>
      <trkpt lat="45.85633" lon="4.69499">
        <ele>198</ele>
        <time>2016-11-08T10:20:31Z</time>
      </trkpt>
      <trkpt lat="45.85632" lon="4.69492">
        <ele>198</ele>
        <time>2016-11-08T10:20:32Z</time>
      </trkpt>
      <trkpt lat="45.85631" lon="4.69485">
        <ele>198</ele>
        <time>2016-11-08T10:20:33Z</time>
      </trkpt>
      <trkpt lat="45.85631" lon="4.69478">
        <ele>198</ele>
        <time>2016-11-08T10:20:34Z</time>
      </trkpt>
      <trkpt lat="45.8563" lon="4.69471">
        <ele>198</ele>
        <time>2016-11-08T10:20:35Z</time>
      </trkpt>
      <trkpt lat="45.85629" lon="4.69465">
        <ele>198</ele>
        <time>2016-11-08T10:20:36Z</time>
      </trkpt>
      <trkpt lat="45.85629" lon="4.69458">
        <ele>198</ele>
        <time>2016-11-08T10:20:37Z</time>
      </trkpt>
      <trkpt lat="45.85628" lon="4.69452">
        <ele>198</ele>
        <time>2016-11-08T10:20:38Z</time>
      </trkpt>
      <trkpt lat="45.85628" lon="4.69444">
        <ele>198</ele>
        <time>2016-11-08T10:20:39Z</time>
      </trkpt>
      <trkpt lat="45.85628" lon="4.69437">
        <ele>198</ele>
        <time>2016-11-08T10:20:40Z</time>
      </trkpt>
      <trkpt lat="45.85627" lon="4.6943">
        <ele>198</ele>
        <time>2016-11-08T10:20:41Z</time>
      </trkpt>
      <trkpt lat="45.85626" lon="4.69424">
        <ele>198</ele>
        <time>2016-11-08T10:20:42Z</time>
      </trkpt>
      <trkpt lat="45.85625" lon="4.69417">
        <ele>198</ele>
        <time>2016-11-08T10:20:43Z</time>
      </trkpt>
      <trkpt lat="45.85623" lon="4.69405">
        <ele>198</ele>
        <time>2016-11-08T10:20:45Z</time>
      </trkpt>
      <trkpt lat="45.85622" lon="4.69398">
        <ele>198</ele>
        <time>2016-11-08T10:20:46Z</time>
      </trkpt>
      <trkpt lat="45.85622" lon="4.69392">
        <ele>198</ele>
        <time>2016-11-08T10:20:47Z</time>
      </trkpt>
      <trkpt lat="45.85621" lon="4.69385">
        <ele>198</ele>
        <time>2016-11-08T10:20:48Z</time>
      </trkpt>
      <trkpt lat="45.8562" lon="4.69379">
        <ele>198</ele>
        <time>2016-11-08T10:20:49Z</time>
      </trkpt>
      <trkpt lat="45.85619" lon="4.69372">
        <ele>198</ele>
        <time>2016-11-08T10:20:50Z</time>
      </trkpt>
      <trkpt lat="45.85619" lon="4.69366">
        <ele>198</ele>
        <time>2016-11-08T10:20:51Z</time>
      </trkpt>
      <trkpt lat="45.85618" lon="4.69359">
        <ele>198</ele>
        <time>2016-11-08T10:20:52Z</time>
      </trkpt>
      <trkpt lat="45.85618" lon="4.69353">
        <ele>198</ele>
        <time>2016-11-08T10:20:53Z</time>
      </trkpt>
      <trkpt lat="45.85617" lon="4.69346">
        <ele>198</ele>
        <time>2016-11-08T10:20:54Z</time>
      </trkpt>
      <trkpt lat="45.85616" lon="4.6934">
        <ele>198</ele>
        <time>2016-11-08T10:20:55Z</time>
      </trkpt>
      <trkpt lat="45.85615" lon="4.69333">
        <ele>198</ele>
        <time>2016-11-08T10:20:56Z</time>
      </trkpt>
      <trkpt lat="45.85614" lon="4.69327">
        <ele>198</ele>
        <time>2016-11-08T10:20:57Z</time>
      </trkpt>
      <trkpt lat="45.85614" lon="4.6932">
        <ele>198</ele>
        <time>2016-11-08T10:20:58Z</time>
      </trkpt>
      <trkpt lat="45.85613" lon="4.69314">
        <ele>198</ele>
        <time>2016-11-08T10:20:59Z</time>
      </trkpt>
      <trkpt lat="45.85612" lon="4.69307">
        <ele>198</ele>
        <time>2016-11-08T10:21:00Z</time>
      </trkpt>
      <trkpt lat="45.85612" lon="4.693">
        <ele>198</ele>
        <time>2016-11-08T10:21:01Z</time>
      </trkpt>
      <trkpt lat="45.85611" lon="4.69293">
        <ele>198</ele>
        <time>2016-11-08T10:21:02Z</time>
      </trkpt>
      <trkpt lat="45.85611" lon="4.69287">
        <ele>198</ele>
        <time>2016-11-08T10:21:03Z</time>
      </trkpt>
      <trkpt lat="45.85611" lon="4.6928">
        <ele>198</ele>
        <time>2016-11-08T10:21:04Z</time>
      </trkpt>
      <trkpt lat="45.85612" lon="4.69273">
        <ele>198</ele>
        <time>2016-11-08T10:21:05Z</time>
      </trkpt>
      <trkpt lat="45.85612" lon="4.69267">
        <ele>198</ele>
        <time>2016-11-08T10:21:06Z</time>
      </trkpt>
      <trkpt lat="45.85612" lon="4.6926">
        <ele>198</ele>
        <time>2016-11-08T10:21:07Z</time>
      </trkpt>
      <trkpt lat="45.85611" lon="4.69254">
        <ele>198</ele>
        <time>2016-11-08T10:21:08Z</time>
      </trkpt>
      <trkpt lat="45.85608" lon="4.69242">
        <ele>199</ele>
        <time>2016-11-08T10:21:10Z</time>
      </trkpt>
      <trkpt lat="45.85607" lon="4.69236">
        <ele>199</ele>
        <time>2016-11-08T10:21:11Z</time>
      </trkpt>
      <trkpt lat="45.85605" lon="4.69224">
        <ele>199</ele>
        <time>2016-11-08T10:21:13Z</time>
      </trkpt>
      <trkpt lat="45.85604" lon="4.69218">
        <ele>199</ele>
        <time>2016-11-08T10:21:14Z</time>
      </trkpt>
      <trkpt lat="45.85604" lon="4.69205">
        <ele>199</ele>
        <time>2016-11-08T10:21:16Z</time>
      </trkpt>
      <trkpt lat="45.85604" lon="4.69199">
        <ele>199</ele>
        <time>2016-11-08T10:21:17Z</time>
      </trkpt>
      <trkpt lat="45.85603" lon="4.69193">
        <ele>199</ele>
        <time>2016-11-08T10:21:18Z</time>
      </trkpt>
      <trkpt lat="45.85603" lon="4.69186">
        <ele>199</ele>
        <time>2016-11-08T10:21:19Z</time>
      </trkpt>
      <trkpt lat="45.85602" lon="4.6918">
        <ele>199</ele>
        <time>2016-11-08T10:21:20Z</time>
      </trkpt>
      <trkpt lat="45.85601" lon="4.69173">
        <ele>199</ele>
        <time>2016-11-08T10:21:21Z</time>
      </trkpt>
      <trkpt lat="45.85601" lon="4.69167">
        <ele>199</ele>
        <time>2016-11-08T10:21:22Z</time>
      </trkpt>
      <trkpt lat="45.856" lon="4.6916">
        <ele>199</ele>
        <time>2016-11-08T10:21:23Z</time>
      </trkpt>
      <trkpt lat="45.85599" lon="4.69153">
        <ele>199</ele>
        <time>2016-11-08T10:21:24Z</time>
      </trkpt>
      <trkpt lat="45.85599" lon="4.69147">
        <ele>199</ele>
        <time>2016-11-08T10:21:25Z</time>
      </trkpt>
      <trkpt lat="45.85598" lon="4.69134">
        <ele>198</ele>
        <time>2016-11-08T10:21:27Z</time>
      </trkpt>
      <trkpt lat="45.85597" lon="4.69127">
        <ele>198</ele>
        <time>2016-11-08T10:21:28Z</time>
      </trkpt>
      <trkpt lat="45.85596" lon="4.69121">
        <ele>198</ele>
        <time>2016-11-08T10:21:29Z</time>
      </trkpt>
      <trkpt lat="45.85596" lon="4.69114">
        <ele>198</ele>
        <time>2016-11-08T10:21:30Z</time>
      </trkpt>
      <trkpt lat="45.85595" lon="4.69107">
        <ele>199</ele>
        <time>2016-11-08T10:21:31Z</time>
      </trkpt>
      <trkpt lat="45.85595" lon="4.691">
        <ele>199</ele>
        <time>2016-11-08T10:21:32Z</time>
      </trkpt>
      <trkpt lat="45.85594" lon="4.69092">
        <ele>199</ele>
        <time>2016-11-08T10:21:33Z</time>
      </trkpt>
      <trkpt lat="45.85593" lon="4.69085">
        <ele>199</ele>
        <time>2016-11-08T10:21:34Z</time>
      </trkpt>
      <trkpt lat="45.85593" lon="4.69078">
        <ele>199</ele>
        <time>2016-11-08T10:21:35Z</time>
      </trkpt>
      <trkpt lat="45.85592" lon="4.69072">
        <ele>199</ele>
        <time>2016-11-08T10:21:36Z</time>
      </trkpt>
      <trkpt lat="45.85591" lon="4.69065">
        <ele>199</ele>
        <time>2016-11-08T10:21:37Z</time>
      </trkpt>
      <trkpt lat="45.85591" lon="4.69058">
        <ele>199</ele>
        <time>2016-11-08T10:21:38Z</time>
      </trkpt>
      <trkpt lat="45.8559" lon="4.69051">
        <ele>199</ele>
        <time>2016-11-08T10:21:39Z</time>
      </trkpt>
      <trkpt lat="45.8559" lon="4.69045">
        <ele>199</ele>
        <time>2016-11-08T10:21:40Z</time>
      </trkpt>
      <trkpt lat="45.85589" lon="4.69037">
        <ele>199</ele>
        <time>2016-11-08T10:21:41Z</time>
      </trkpt>
      <trkpt lat="45.85589" lon="4.69031">
        <ele>199</ele>
        <time>2016-11-08T10:21:42Z</time>
      </trkpt>
      <trkpt lat="45.85588" lon="4.69024">
        <ele>199</ele>
        <time>2016-11-08T10:21:43Z</time>
      </trkpt>
      <trkpt lat="45.85587" lon="4.69017">
        <ele>199</ele>
        <time>2016-11-08T10:21:44Z</time>
      </trkpt>
      <trkpt lat="45.85587" lon="4.6901">
        <ele>200</ele>
        <time>2016-11-08T10:21:45Z</time>
      </trkpt>
      <trkpt lat="45.85586" lon="4.69002">
        <ele>200</ele>
        <time>2016-11-08T10:21:46Z</time>
      </trkpt>
      <trkpt lat="45.85585" lon="4.68995">
        <ele>200</ele>
        <time>2016-11-08T10:21:47Z</time>
      </trkpt>
      <trkpt lat="45.85584" lon="4.68988">
        <ele>200</ele>
        <time>2016-11-08T10:21:48Z</time>
      </trkpt>
      <trkpt lat="45.85583" lon="4.6898">
        <ele>200</ele>
        <time>2016-11-08T10:21:49Z</time>
      </trkpt>
      <trkpt lat="45.85582" lon="4.68973">
        <ele>200</ele>
        <time>2016-11-08T10:21:50Z</time>
      </trkpt>
      <trkpt lat="45.85582" lon="4.68965">
        <ele>200</ele>
        <time>2016-11-08T10:21:51Z</time>
      </trkpt>
      <trkpt lat="45.85581" lon="4.68957">
        <ele>200</ele>
        <time>2016-11-08T10:21:52Z</time>
      </trkpt>
      <trkpt lat="45.8558" lon="4.6895">
        <ele>200</ele>
        <time>2016-11-08T10:21:53Z</time>
      </trkpt>
      <trkpt lat="45.8558" lon="4.68942">
        <ele>200</ele>
        <time>2016-11-08T10:21:54Z</time>
      </trkpt>
      <trkpt lat="45.85579" lon="4.68934">
        <ele>200</ele>
        <time>2016-11-08T10:21:55Z</time>
      </trkpt>
      <trkpt lat="45.85578" lon="4.68926">
        <ele>200</ele>
        <time>2016-11-08T10:21:56Z</time>
      </trkpt>
      <trkpt lat="45.85578" lon="4.68918">
        <ele>200</ele>
        <time>2016-11-08T10:21:57Z</time>
      </trkpt>
      <trkpt lat="45.85578" lon="4.68911">
        <ele>200</ele>
        <time>2016-11-08T10:21:58Z</time>
      </trkpt>
      <trkpt lat="45.85577" lon="4.68903">
        <ele>200</ele>
        <time>2016-11-08T10:21:59Z</time>
      </trkpt>
      <trkpt lat="45.85576" lon="4.68896">
        <ele>200</ele>
        <time>2016-11-08T10:22:00Z</time>
      </trkpt>
      <trkpt lat="45.85576" lon="4.68888">
        <ele>200</ele>
        <time>2016-11-08T10:22:01Z</time>
      </trkpt>
      <trkpt lat="45.85575" lon="4.68881">
        <ele>200</ele>
        <time>2016-11-08T10:22:02Z</time>
      </trkpt>
      <trkpt lat="45.85574" lon="4.68873">
        <ele>200</ele>
        <time>2016-11-08T10:22:03Z</time>
      </trkpt>
      <trkpt lat="45.85574" lon="4.68866">
        <ele>200</ele>
        <time>2016-11-08T10:22:04Z</time>
      </trkpt>
      <trkpt lat="45.85573" lon="4.68859">
        <ele>200</ele>
        <time>2016-11-08T10:22:05Z</time>
      </trkpt>
      <trkpt lat="45.85572" lon="4.68852">
        <ele>200</ele>
        <time>2016-11-08T10:22:06Z</time>
      </trkpt>
      <trkpt lat="45.85571" lon="4.68845">
        <ele>200</ele>
        <time>2016-11-08T10:22:07Z</time>
      </trkpt>
      <trkpt lat="45.85571" lon="4.68837">
        <ele>200</ele>
        <time>2016-11-08T10:22:08Z</time>
      </trkpt>
      <trkpt lat="45.8557" lon="4.6883">
        <ele>200</ele>
        <time>2016-11-08T10:22:09Z</time>
      </trkpt>
      <trkpt lat="45.8557" lon="4.68823">
        <ele>200</ele>
        <time>2016-11-08T10:22:10Z</time>
      </trkpt>
      <trkpt lat="45.8557" lon="4.68815">
        <ele>200</ele>
        <time>2016-11-08T10:22:11Z</time>
      </trkpt>
      <trkpt lat="45.8557" lon="4.68807">
        <ele>200</ele>
        <time>2016-11-08T10:22:12Z</time>
      </trkpt>
      <trkpt lat="45.85569" lon="4.688">
        <ele>200</ele>
        <time>2016-11-08T10:22:13Z</time>
      </trkpt>
      <trkpt lat="45.85568" lon="4.68792">
        <ele>200</ele>
        <time>2016-11-08T10:22:14Z</time>
      </trkpt>
      <trkpt lat="45.85567" lon="4.68785">
        <ele>200</ele>
        <time>2016-11-08T10:22:15Z</time>
      </trkpt>
      <trkpt lat="45.85567" lon="4.68777">
        <ele>200</ele>
        <time>2016-11-08T10:22:16Z</time>
      </trkpt>
      <trkpt lat="45.85565" lon="4.68769">
        <ele>200</ele>
        <time>2016-11-08T10:22:17Z</time>
      </trkpt>
      <trkpt lat="45.85565" lon="4.68761">
        <ele>200</ele>
        <time>2016-11-08T10:22:18Z</time>
      </trkpt>
      <trkpt lat="45.85564" lon="4.68753">
        <ele>200</ele>
        <time>2016-11-08T10:22:19Z</time>
      </trkpt>
      <trkpt lat="45.85563" lon="4.68746">
        <ele>200</ele>
        <time>2016-11-08T10:22:20Z</time>
      </trkpt>
      <trkpt lat="45.85562" lon="4.68739">
        <ele>200</ele>
        <time>2016-11-08T10:22:21Z</time>
      </trkpt>
      <trkpt lat="45.85561" lon="4.68731">
        <ele>200</ele>
        <time>2016-11-08T10:22:22Z</time>
      </trkpt>
      <trkpt lat="45.8556" lon="4.68724">
        <ele>200</ele>
        <time>2016-11-08T10:22:23Z</time>
      </trkpt>
      <trkpt lat="45.85559" lon="4.68717">
        <ele>200</ele>
        <time>2016-11-08T10:22:24Z</time>
      </trkpt>
      <trkpt lat="45.85558" lon="4.6871">
        <ele>200</ele>
        <time>2016-11-08T10:22:25Z</time>
      </trkpt>
      <trkpt lat="45.85557" lon="4.68702">
        <ele>200</ele>
        <time>2016-11-08T10:22:26Z</time>
      </trkpt>
      <trkpt lat="45.85557" lon="4.68694">
        <ele>200</ele>
        <time>2016-11-08T10:22:27Z</time>
      </trkpt>
      <trkpt lat="45.85556" lon="4.68686">
        <ele>200</ele>
        <time>2016-11-08T10:22:28Z</time>
      </trkpt>
      <trkpt lat="45.85555" lon="4.68677">
        <ele>200</ele>
        <time>2016-11-08T10:22:29Z</time>
      </trkpt>
      <trkpt lat="45.85554" lon="4.68669">
        <ele>200</ele>
        <time>2016-11-08T10:22:30Z</time>
      </trkpt>
      <trkpt lat="45.85553" lon="4.6866">
        <ele>200</ele>
        <time>2016-11-08T10:22:31Z</time>
      </trkpt>
      <trkpt lat="45.85552" lon="4.68652">
        <ele>201</ele>
        <time>2016-11-08T10:22:32Z</time>
      </trkpt>
      <trkpt lat="45.85551" lon="4.68644">
        <ele>201</ele>
        <time>2016-11-08T10:22:33Z</time>
      </trkpt>
      <trkpt lat="45.8555" lon="4.68636">
        <ele>201</ele>
        <time>2016-11-08T10:22:34Z</time>
      </trkpt>
      <trkpt lat="45.85549" lon="4.68629">
        <ele>201</ele>
        <time>2016-11-08T10:22:35Z</time>
      </trkpt>
      <trkpt lat="45.85549" lon="4.68622">
        <ele>201</ele>
        <time>2016-11-08T10:22:36Z</time>
      </trkpt>
      <trkpt lat="45.85548" lon="4.68615">
        <ele>201</ele>
        <time>2016-11-08T10:22:37Z</time>
      </trkpt>
      <trkpt lat="45.85548" lon="4.68608">
        <ele>201</ele>
        <time>2016-11-08T10:22:38Z</time>
      </trkpt>
      <trkpt lat="45.85547" lon="4.68602">
        <ele>201</ele>
        <time>2016-11-08T10:22:39Z</time>
      </trkpt>
      <trkpt lat="45.85546" lon="4.68595">
        <ele>201</ele>
        <time>2016-11-08T10:22:40Z</time>
      </trkpt>
      <trkpt lat="45.85546" lon="4.68588">
        <ele>201</ele>
        <time>2016-11-08T10:22:41Z</time>
      </trkpt>
      <trkpt lat="45.85547" lon="4.68581">
        <ele>201</ele>
        <time>2016-11-08T10:22:42Z</time>
      </trkpt>
      <trkpt lat="45.85547" lon="4.68573">
        <ele>201</ele>
        <time>2016-11-08T10:22:43Z</time>
      </trkpt>
      <trkpt lat="45.85547" lon="4.68565">
        <ele>201</ele>
        <time>2016-11-08T10:22:44Z</time>
      </trkpt>
      <trkpt lat="45.85546" lon="4.68558">
        <ele>201</ele>
        <time>2016-11-08T10:22:45Z</time>
      </trkpt>
      <trkpt lat="45.85545" lon="4.68551">
        <ele>201</ele>
        <time>2016-11-08T10:22:46Z</time>
      </trkpt>
      <trkpt lat="45.85544" lon="4.68545">
        <ele>201</ele>
        <time>2016-11-08T10:22:47Z</time>
      </trkpt>
      <trkpt lat="45.85542" lon="4.68539">
        <ele>201</ele>
        <time>2016-11-08T10:22:48Z</time>
      </trkpt>
      <trkpt lat="45.85541" lon="4.68531">
        <ele>201</ele>
        <time>2016-11-08T10:22:49Z</time>
      </trkpt>
      <trkpt lat="45.8554" lon="4.68523">
        <ele>201</ele>
        <time>2016-11-08T10:22:50Z</time>
      </trkpt>
      <trkpt lat="45.85539" lon="4.68515">
        <ele>201</ele>
        <time>2016-11-08T10:22:51Z</time>
      </trkpt>
      <trkpt lat="45.85538" lon="4.68507">
        <ele>201</ele>
        <time>2016-11-08T10:22:52Z</time>
      </trkpt>
      <trkpt lat="45.85538" lon="4.685">
        <ele>200</ele>
        <time>2016-11-08T10:22:53Z</time>
      </trkpt>
      <trkpt lat="45.85537" lon="4.68492">
        <ele>200</ele>
        <time>2016-11-08T10:22:54Z</time>
      </trkpt>
      <trkpt lat="45.85536" lon="4.68485">
        <ele>200</ele>
        <time>2016-11-08T10:22:55Z</time>
      </trkpt>
      <trkpt lat="45.85535" lon="4.68478">
        <ele>200</ele>
        <time>2016-11-08T10:22:56Z</time>
      </trkpt>
      <trkpt lat="45.85534" lon="4.6847">
        <ele>200</ele>
        <time>2016-11-08T10:22:57Z</time>
      </trkpt>
      <trkpt lat="45.85533" lon="4.68462">
        <ele>200</ele>
        <time>2016-11-08T10:22:58Z</time>
      </trkpt>
      <trkpt lat="45.85531" lon="4.68454">
        <ele>200</ele>
        <time>2016-11-08T10:22:59Z</time>
      </trkpt>
      <trkpt lat="45.85531" lon="4.68446">
        <ele>200</ele>
        <time>2016-11-08T10:23:00Z</time>
      </trkpt>
      <trkpt lat="45.8553" lon="4.68438">
        <ele>200</ele>
        <time>2016-11-08T10:23:01Z</time>
      </trkpt>
      <trkpt lat="45.8553" lon="4.68431">
        <ele>200</ele>
        <time>2016-11-08T10:23:02Z</time>
      </trkpt>
      <trkpt lat="45.85529" lon="4.68423">
        <ele>200</ele>
        <time>2016-11-08T10:23:03Z</time>
      </trkpt>
      <trkpt lat="45.85529" lon="4.68416">
        <ele>200</ele>
        <time>2016-11-08T10:23:04Z</time>
      </trkpt>
      <trkpt lat="45.85529" lon="4.68408">
        <ele>200</ele>
        <time>2016-11-08T10:23:05Z</time>
      </trkpt>
      <trkpt lat="45.85529" lon="4.68401">
        <ele>200</ele>
        <time>2016-11-08T10:23:06Z</time>
      </trkpt>
      <trkpt lat="45.85528" lon="4.68394">
        <ele>200</ele>
        <time>2016-11-08T10:23:07Z</time>
      </trkpt>
      <trkpt lat="45.85528" lon="4.68386">
        <ele>200</ele>
        <time>2016-11-08T10:23:08Z</time>
      </trkpt>
      <trkpt lat="45.85527" lon="4.68379">
        <ele>201</ele>
        <time>2016-11-08T10:23:09Z</time>
      </trkpt>
      <trkpt lat="45.85526" lon="4.68371">
        <ele>201</ele>
        <time>2016-11-08T10:23:10Z</time>
      </trkpt>
      <trkpt lat="45.85525" lon="4.68364">
        <ele>201</ele>
        <time>2016-11-08T10:23:11Z</time>
      </trkpt>
      <trkpt lat="45.85524" lon="4.68356">
        <ele>201</ele>
        <time>2016-11-08T10:23:12Z</time>
      </trkpt>
      <trkpt lat="45.85524" lon="4.68348">
        <ele>201</ele>
        <time>2016-11-08T10:23:13Z</time>
      </trkpt>
      <trkpt lat="45.85524" lon="4.68341">
        <ele>201</ele>
        <time>2016-11-08T10:23:14Z</time>
      </trkpt>
      <trkpt lat="45.85523" lon="4.68334">
        <ele>201</ele>
        <time>2016-11-08T10:23:15Z</time>
      </trkpt>
      <trkpt lat="45.85521" lon="4.68327">
        <ele>202</ele>
        <time>2016-11-08T10:23:16Z</time>
      </trkpt>
      <trkpt lat="45.8552" lon="4.68319">
        <ele>202</ele>
        <time>2016-11-08T10:23:17Z</time>
      </trkpt>
      <trkpt lat="45.8552" lon="4.68312">
        <ele>202</ele>
        <time>2016-11-08T10:23:18Z</time>
      </trkpt>
      <trkpt lat="45.85519" lon="4.68282">
        <ele>202</ele>
        <time>2016-11-08T10:23:22Z</time>
      </trkpt>
      <trkpt lat="45.85519" lon="4.68275">
        <ele>202</ele>
        <time>2016-11-08T10:23:23Z</time>
      </trkpt>
      <trkpt lat="45.85519" lon="4.68267">
        <ele>202</ele>
        <time>2016-11-08T10:23:24Z</time>
      </trkpt>
      <trkpt lat="45.85518" lon="4.68261">
        <ele>202</ele>
        <time>2016-11-08T10:23:25Z</time>
      </trkpt>
      <trkpt lat="45.85517" lon="4.68254">
        <ele>203</ele>
        <time>2016-11-08T10:23:26Z</time>
      </trkpt>
      <trkpt lat="45.85517" lon="4.68247">
        <ele>203</ele>
        <time>2016-11-08T10:23:27Z</time>
      </trkpt>
      <trkpt lat="45.85516" lon="4.6824">
        <ele>203</ele>
        <time>2016-11-08T10:23:28Z</time>
      </trkpt>
      <trkpt lat="45.85515" lon="4.68233">
        <ele>203</ele>
        <time>2016-11-08T10:23:29Z</time>
      </trkpt>
      <trkpt lat="45.85514" lon="4.68226">
        <ele>203</ele>
        <time>2016-11-08T10:23:30Z</time>
      </trkpt>
      <trkpt lat="45.85513" lon="4.68219">
        <ele>203</ele>
        <time>2016-11-08T10:23:31Z</time>
      </trkpt>
      <trkpt lat="45.85513" lon="4.68212">
        <ele>203</ele>
        <time>2016-11-08T10:23:32Z</time>
      </trkpt>
      <trkpt lat="45.85512" lon="4.68205">
        <ele>203</ele>
        <time>2016-11-08T10:23:33Z</time>
      </trkpt>
      <trkpt lat="45.85511" lon="4.68198">
        <ele>203</ele>
        <time>2016-11-08T10:23:34Z</time>
      </trkpt>
      <trkpt lat="45.8551" lon="4.6819">
        <ele>203</ele>
        <time>2016-11-08T10:23:35Z</time>
      </trkpt>
      <trkpt lat="45.85509" lon="4.68183">
        <ele>203</ele>
        <time>2016-11-08T10:23:36Z</time>
      </trkpt>
      <trkpt lat="45.85508" lon="4.68176">
        <ele>204</ele>
        <time>2016-11-08T10:23:37Z</time>
      </trkpt>
      <trkpt lat="45.85508" lon="4.68169">
        <ele>204</ele>
        <time>2016-11-08T10:23:38Z</time>
      </trkpt>
      <trkpt lat="45.85507" lon="4.68162">
        <ele>204</ele>
        <time>2016-11-08T10:23:39Z</time>
      </trkpt>
      <trkpt lat="45.85506" lon="4.68156">
        <ele>203</ele>
        <time>2016-11-08T10:23:40Z</time>
      </trkpt>
      <trkpt lat="45.85505" lon="4.68143">
        <ele>203</ele>
        <time>2016-11-08T10:23:42Z</time>
      </trkpt>
      <trkpt lat="45.85505" lon="4.68137">
        <ele>203</ele>
        <time>2016-11-08T10:23:43Z</time>
      </trkpt>
      <trkpt lat="45.85505" lon="4.6813">
        <ele>203</ele>
        <time>2016-11-08T10:23:44Z</time>
      </trkpt>
      <trkpt lat="45.85505" lon="4.68123">
        <ele>203</ele>
        <time>2016-11-08T10:23:45Z</time>
      </trkpt>
      <trkpt lat="45.85504" lon="4.68116">
        <ele>203</ele>
        <time>2016-11-08T10:23:46Z</time>
      </trkpt>
      <trkpt lat="45.85504" lon="4.68109">
        <ele>203</ele>
        <time>2016-11-08T10:23:47Z</time>
      </trkpt>
      <trkpt lat="45.85503" lon="4.68102">
        <ele>203</ele>
        <time>2016-11-08T10:23:48Z</time>
      </trkpt>
      <trkpt lat="45.85502" lon="4.68094">
        <ele>203</ele>
        <time>2016-11-08T10:23:49Z</time>
      </trkpt>
      <trkpt lat="45.85501" lon="4.6808">
        <ele>204</ele>
        <time>2016-11-08T10:23:51Z</time>
      </trkpt>
      <trkpt lat="45.855" lon="4.68071">
        <ele>203</ele>
        <time>2016-11-08T10:23:52Z</time>
      </trkpt>
      <trkpt lat="45.855" lon="4.68064">
        <ele>206</ele>
        <time>2016-11-08T10:23:53Z</time>
      </trkpt>
      <trkpt lat="45.85498" lon="4.68056">
        <ele>206</ele>
        <time>2016-11-08T10:23:54Z</time>
      </trkpt>
      <trkpt lat="45.85497" lon="4.68049">
        <ele>206</ele>
        <time>2016-11-08T10:23:55Z</time>
      </trkpt>
      <trkpt lat="45.85495" lon="4.68038">
        <ele>207</ele>
        <time>2016-11-08T10:23:57Z</time>
      </trkpt>
      <trkpt lat="45.85494" lon="4.68033">
        <ele>207</ele>
        <time>2016-11-08T10:23:58Z</time>
      </trkpt>
      <trkpt lat="45.85494" lon="4.68022">
        <ele>207</ele>
        <time>2016-11-08T10:24:00Z</time>
      </trkpt>
      <trkpt lat="45.85495" lon="4.68016">
        <ele>207</ele>
        <time>2016-11-08T10:24:01Z</time>
      </trkpt>
      <trkpt lat="45.85499" lon="4.68005">
        <ele>206</ele>
        <time>2016-11-08T10:24:03Z</time>
      </trkpt>
      <trkpt lat="45.85502" lon="4.68">
        <ele>206</ele>
        <time>2016-11-08T10:24:04Z</time>
      </trkpt>
      <trkpt lat="45.85505" lon="4.67994">
        <ele>206</ele>
        <time>2016-11-08T10:24:05Z</time>
      </trkpt>
      <trkpt lat="45.85508" lon="4.67987">
        <ele>206</ele>
        <time>2016-11-08T10:24:06Z</time>
      </trkpt>
      <trkpt lat="45.85514" lon="4.67982">
        <ele>206</ele>
        <time>2016-11-08T10:24:07Z</time>
      </trkpt>
      <trkpt lat="45.85518" lon="4.67977">
        <ele>206</ele>
        <time>2016-11-08T10:24:08Z</time>
      </trkpt>
      <trkpt lat="45.85523" lon="4.67973">
        <ele>206</ele>
        <time>2016-11-08T10:24:09Z</time>
      </trkpt>
      <trkpt lat="45.85527" lon="4.67969">
        <ele>206</ele>
        <time>2016-11-08T10:24:10Z</time>
      </trkpt>
      <trkpt lat="45.85531" lon="4.67964">
        <ele>205</ele>
        <time>2016-11-08T10:24:11Z</time>
      </trkpt>
      <trkpt lat="45.85534" lon="4.6796">
        <ele>205</ele>
        <time>2016-11-08T10:24:12Z</time>
      </trkpt>
      <trkpt lat="45.85538" lon="4.67956">
        <ele>205</ele>
        <time>2016-11-08T10:24:13Z</time>
      </trkpt>
      <trkpt lat="45.85542" lon="4.67952">
        <ele>205</ele>
        <time>2016-11-08T10:24:14Z</time>
      </trkpt>
      <trkpt lat="45.85546" lon="4.67948">
        <ele>205</ele>
        <time>2016-11-08T10:24:15Z</time>
      </trkpt>
      <trkpt lat="45.8555" lon="4.67944">
        <ele>205</ele>
        <time>2016-11-08T10:24:16Z</time>
      </trkpt>
      <trkpt lat="45.85553" lon="4.67939">
        <ele>205</ele>
        <time>2016-11-08T10:24:17Z</time>
      </trkpt>
      <trkpt lat="45.85557" lon="4.67935">
        <ele>205</ele>
        <time>2016-11-08T10:24:18Z</time>
      </trkpt>
      <trkpt lat="45.85565" lon="4.6793">
        <ele>205</ele>
        <time>2016-11-08T10:24:20Z</time>
      </trkpt>
      <trkpt lat="45.85569" lon="4.67929">
        <ele>205</ele>
        <time>2016-11-08T10:24:21Z</time>
      </trkpt>
      <trkpt lat="45.85575" lon="4.67919">
        <ele>204</ele>
        <time>2016-11-08T10:24:23Z</time>
      </trkpt>
      <trkpt lat="45.85575" lon="4.67913">
        <ele>205</ele>
        <time>2016-11-08T10:24:24Z</time>
      </trkpt>
      <trkpt lat="45.85574" lon="4.67906">
        <ele>205</ele>
        <time>2016-11-08T10:24:25Z</time>
      </trkpt>
      <trkpt lat="45.85573" lon="4.679">
        <ele>206</ele>
        <time>2016-11-08T10:24:26Z</time>
      </trkpt>
      <trkpt lat="45.85573" lon="4.67892">
        <ele>206</ele>
        <time>2016-11-08T10:24:27Z</time>
      </trkpt>
      <trkpt lat="45.85573" lon="4.67885">
        <ele>206</ele>
        <time>2016-11-08T10:24:28Z</time>
      </trkpt>
      <trkpt lat="45.85573" lon="4.67877">
        <ele>207</ele>
        <time>2016-11-08T10:24:29Z</time>
      </trkpt>
      <trkpt lat="45.85573" lon="4.67869">
        <ele>207</ele>
        <time>2016-11-08T10:24:30Z</time>
      </trkpt>
      <trkpt lat="45.85573" lon="4.67861">
        <ele>207</ele>
        <time>2016-11-08T10:24:31Z</time>
      </trkpt>
      <trkpt lat="45.85574" lon="4.67853">
        <ele>206</ele>
        <time>2016-11-08T10:24:32Z</time>
      </trkpt>
      <trkpt lat="45.85575" lon="4.67846">
        <ele>206</ele>
        <time>2016-11-08T10:24:33Z</time>
      </trkpt>
      <trkpt lat="45.85575" lon="4.67839">
        <ele>206</ele>
        <time>2016-11-08T10:24:34Z</time>
      </trkpt>
      <trkpt lat="45.85576" lon="4.67833">
        <ele>206</ele>
        <time>2016-11-08T10:24:35Z</time>
      </trkpt>
      <trkpt lat="45.85578" lon="4.67826">
        <ele>206</ele>
        <time>2016-11-08T10:24:36Z</time>
      </trkpt>
      <trkpt lat="45.8558" lon="4.67819">
        <ele>206</ele>
        <time>2016-11-08T10:24:37Z</time>
      </trkpt>
      <trkpt lat="45.85581" lon="4.67813">
        <ele>206</ele>
        <time>2016-11-08T10:24:38Z</time>
      </trkpt>
      <trkpt lat="45.85584" lon="4.67808">
        <ele>209</ele>
        <time>2016-11-08T10:24:39Z</time>
      </trkpt>
      <trkpt lat="45.85586" lon="4.67802">
        <ele>209</ele>
        <time>2016-11-08T10:24:40Z</time>
      </trkpt>
      <trkpt lat="45.85587" lon="4.67795">
        <ele>210</ele>
        <time>2016-11-08T10:24:41Z</time>
      </trkpt>
      <trkpt lat="45.85588" lon="4.67788">
        <ele>210</ele>
        <time>2016-11-08T10:24:42Z</time>
      </trkpt>
      <trkpt lat="45.8559" lon="4.67782">
        <ele>209</ele>
        <time>2016-11-08T10:24:43Z</time>
      </trkpt>
      <trkpt lat="45.85592" lon="4.67775">
        <ele>209</ele>
        <time>2016-11-08T10:24:44Z</time>
      </trkpt>
      <trkpt lat="45.85595" lon="4.67769">
        <ele>209</ele>
        <time>2016-11-08T10:24:45Z</time>
      </trkpt>
      <trkpt lat="45.85597" lon="4.67763">
        <ele>208</ele>
        <time>2016-11-08T10:24:46Z</time>
      </trkpt>
      <trkpt lat="45.856" lon="4.67757">
        <ele>208</ele>
        <time>2016-11-08T10:24:47Z</time>
      </trkpt>
      <trkpt lat="45.85603" lon="4.67751">
        <ele>209</ele>
        <time>2016-11-08T10:24:48Z</time>
      </trkpt>
      <trkpt lat="45.85606" lon="4.67744">
        <ele>207</ele>
        <time>2016-11-08T10:24:49Z</time>
      </trkpt>
      <trkpt lat="45.8561" lon="4.67738">
        <ele>208</ele>
        <time>2016-11-08T10:24:50Z</time>
      </trkpt>
      <trkpt lat="45.85613" lon="4.67733">
        <ele>208</ele>
        <time>2016-11-08T10:24:51Z</time>
      </trkpt>
      <trkpt lat="45.85616" lon="4.67727">
        <ele>209</ele>
        <time>2016-11-08T10:24:52Z</time>
      </trkpt>
      <trkpt lat="45.8562" lon="4.67722">
        <ele>209</ele>
        <time>2016-11-08T10:24:53Z</time>
      </trkpt>
      <trkpt lat="45.85623" lon="4.67717">
        <ele>209</ele>
        <time>2016-11-08T10:24:54Z</time>
      </trkpt>
      <trkpt lat="45.85627" lon="4.67711">
        <ele>209</ele>
        <time>2016-11-08T10:24:55Z</time>
      </trkpt>
      <trkpt lat="45.85632" lon="4.67705">
        <ele>209</ele>
        <time>2016-11-08T10:24:56Z</time>
      </trkpt>
      <trkpt lat="45.85637" lon="4.677">
        <ele>209</ele>
        <time>2016-11-08T10:24:57Z</time>
      </trkpt>
      <trkpt lat="45.85641" lon="4.67696">
        <ele>209</ele>
        <time>2016-11-08T10:24:58Z</time>
      </trkpt>
      <trkpt lat="45.85646" lon="4.67691">
        <ele>209</ele>
        <time>2016-11-08T10:24:59Z</time>
      </trkpt>
      <trkpt lat="45.85651" lon="4.67687">
        <ele>209</ele>
        <time>2016-11-08T10:25:00Z</time>
      </trkpt>
      <trkpt lat="45.85656" lon="4.67683">
        <ele>209</ele>
        <time>2016-11-08T10:25:01Z</time>
      </trkpt>
      <trkpt lat="45.85662" lon="4.6768">
        <ele>209</ele>
        <time>2016-11-08T10:25:02Z</time>
      </trkpt>
      <trkpt lat="45.85667" lon="4.67676">
        <ele>213</ele>
        <time>2016-11-08T10:25:03Z</time>
      </trkpt>
      <trkpt lat="45.85672" lon="4.67672">
        <ele>213</ele>
        <time>2016-11-08T10:25:04Z</time>
      </trkpt>
      <trkpt lat="45.85677" lon="4.67669">
        <ele>214</ele>
        <time>2016-11-08T10:25:05Z</time>
      </trkpt>
      <trkpt lat="45.85682" lon="4.67665">
        <ele>210</ele>
        <time>2016-11-08T10:25:06Z</time>
      </trkpt>
      <trkpt lat="45.85687" lon="4.67662">
        <ele>210</ele>
        <time>2016-11-08T10:25:07Z</time>
      </trkpt>
      <trkpt lat="45.85693" lon="4.67659">
        <ele>211</ele>
        <time>2016-11-08T10:25:08Z</time>
      </trkpt>
      <trkpt lat="45.85698" lon="4.67655">
        <ele>211</ele>
        <time>2016-11-08T10:25:09Z</time>
      </trkpt>
      <trkpt lat="45.85703" lon="4.67652">
        <ele>211</ele>
        <time>2016-11-08T10:25:10Z</time>
      </trkpt>
      <trkpt lat="45.85709" lon="4.67649">
        <ele>212</ele>
        <time>2016-11-08T10:25:11Z</time>
      </trkpt>
      <trkpt lat="45.85713" lon="4.67646">
        <ele>212</ele>
        <time>2016-11-08T10:25:12Z</time>
      </trkpt>
      <trkpt lat="45.85718" lon="4.67642">
        <ele>212</ele>
        <time>2016-11-08T10:25:13Z</time>
      </trkpt>
      <trkpt lat="45.85723" lon="4.67639">
        <ele>212</ele>
        <time>2016-11-08T10:25:14Z</time>
      </trkpt>
      <trkpt lat="45.85728" lon="4.67636">
        <ele>212</ele>
        <time>2016-11-08T10:25:15Z</time>
      </trkpt>
      <trkpt lat="45.85733" lon="4.67633">
        <ele>212</ele>
        <time>2016-11-08T10:25:16Z</time>
      </trkpt>
      <trkpt lat="45.85738" lon="4.67631">
        <ele>212</ele>
        <time>2016-11-08T10:25:17Z</time>
      </trkpt>
      <trkpt lat="45.85743" lon="4.67627">
        <ele>212</ele>
        <time>2016-11-08T10:25:18Z</time>
      </trkpt>
      <trkpt lat="45.85748" lon="4.67624">
        <ele>212</ele>
        <time>2016-11-08T10:25:19Z</time>
      </trkpt>
      <trkpt lat="45.85753" lon="4.67621">
        <ele>219</ele>
        <time>2016-11-08T10:25:20Z</time>
      </trkpt>
      <trkpt lat="45.85757" lon="4.67617">
        <ele>218</ele>
        <time>2016-11-08T10:25:21Z</time>
      </trkpt>
      <trkpt lat="45.85762" lon="4.67614">
        <ele>218</ele>
        <time>2016-11-08T10:25:22Z</time>
      </trkpt>
      <trkpt lat="45.85767" lon="4.6761">
        <ele>218</ele>
        <time>2016-11-08T10:25:23Z</time>
      </trkpt>
      <trkpt lat="45.85771" lon="4.67606">
        <ele>218</ele>
        <time>2016-11-08T10:25:24Z</time>
      </trkpt>
      <trkpt lat="45.85776" lon="4.67602">
        <ele>218</ele>
        <time>2016-11-08T10:25:25Z</time>
      </trkpt>
      <trkpt lat="45.85781" lon="4.67597">
        <ele>218</ele>
        <time>2016-11-08T10:25:26Z</time>
      </trkpt>
      <trkpt lat="45.85785" lon="4.67593">
        <ele>219</ele>
        <time>2016-11-08T10:25:27Z</time>
      </trkpt>
      <trkpt lat="45.8579" lon="4.67588">
        <ele>219</ele>
        <time>2016-11-08T10:25:28Z</time>
      </trkpt>
      <trkpt lat="45.85794" lon="4.67583">
        <ele>211</ele>
        <time>2016-11-08T10:25:29Z</time>
      </trkpt>
      <trkpt lat="45.85798" lon="4.67578">
        <ele>212</ele>
        <time>2016-11-08T10:25:30Z</time>
      </trkpt>
      <trkpt lat="45.85802" lon="4.67573">
        <ele>212</ele>
        <time>2016-11-08T10:25:31Z</time>
      </trkpt>
      <trkpt lat="45.85806" lon="4.67568">
        <ele>212</ele>
        <time>2016-11-08T10:25:32Z</time>
      </trkpt>
      <trkpt lat="45.8581" lon="4.67562">
        <ele>212</ele>
        <time>2016-11-08T10:25:33Z</time>
      </trkpt>
      <trkpt lat="45.85814" lon="4.67557">
        <ele>212</ele>
        <time>2016-11-08T10:25:34Z</time>
      </trkpt>
      <trkpt lat="45.85818" lon="4.67552">
        <ele>212</ele>
        <time>2016-11-08T10:25:35Z</time>
      </trkpt>
      <trkpt lat="45.85821" lon="4.67546">
        <ele>211</ele>
        <time>2016-11-08T10:25:36Z</time>
      </trkpt>
      <trkpt lat="45.85825" lon="4.67541">
        <ele>211</ele>
        <time>2016-11-08T10:25:37Z</time>
      </trkpt>
      <trkpt lat="45.85828" lon="4.67535">
        <ele>210</ele>
        <time>2016-11-08T10:25:38Z</time>
      </trkpt>
      <trkpt lat="45.85829" lon="4.67527">
        <ele>209</ele>
        <time>2016-11-08T10:25:39Z</time>
      </trkpt>
      <trkpt lat="45.85835" lon="4.67514">
        <ele>215</ele>
        <time>2016-11-08T10:25:41Z</time>
      </trkpt>
      <trkpt lat="45.85838" lon="4.67507">
        <ele>212</ele>
        <time>2016-11-08T10:25:42Z</time>
      </trkpt>
      <trkpt lat="45.85841" lon="4.67501">
        <ele>211</ele>
        <time>2016-11-08T10:25:43Z</time>
      </trkpt>
      <trkpt lat="45.85845" lon="4.67496">
        <ele>210</ele>
        <time>2016-11-08T10:25:44Z</time>
      </trkpt>
      <trkpt lat="45.85848" lon="4.67491">
        <ele>211</ele>
        <time>2016-11-08T10:25:45Z</time>
      </trkpt>
      <trkpt lat="45.8585" lon="4.67484">
        <ele>212</ele>
        <time>2016-11-08T10:25:46Z</time>
      </trkpt>
      <trkpt lat="45.85849" lon="4.67475">
        <ele>212</ele>
        <time>2016-11-08T10:25:47Z</time>
      </trkpt>
      <trkpt lat="45.85853" lon="4.67469">
        <ele>213</ele>
        <time>2016-11-08T10:25:48Z</time>
      </trkpt>
      <trkpt lat="45.85856" lon="4.67462">
        <ele>213</ele>
        <time>2016-11-08T10:25:49Z</time>
      </trkpt>
      <trkpt lat="45.8586" lon="4.6745">
        <ele>213</ele>
        <time>2016-11-08T10:25:51Z</time>
      </trkpt>
      <trkpt lat="45.85861" lon="4.67443">
        <ele>213</ele>
        <time>2016-11-08T10:25:52Z</time>
      </trkpt>
      <trkpt lat="45.85862" lon="4.67434">
        <ele>212</ele>
        <time>2016-11-08T10:25:53Z</time>
      </trkpt>
      <trkpt lat="45.85862" lon="4.67425">
        <ele>212</ele>
        <time>2016-11-08T10:25:54Z</time>
      </trkpt>
      <trkpt lat="45.85862" lon="4.67417">
        <ele>208</ele>
        <time>2016-11-08T10:25:55Z</time>
      </trkpt>
      <trkpt lat="45.85863" lon="4.67408">
        <ele>208</ele>
        <time>2016-11-08T10:25:56Z</time>
      </trkpt>
      <trkpt lat="45.85864" lon="4.674">
        <ele>209</ele>
        <time>2016-11-08T10:25:57Z</time>
      </trkpt>
      <trkpt lat="45.85866" lon="4.67391">
        <ele>209</ele>
        <time>2016-11-08T10:25:58Z</time>
      </trkpt>
      <trkpt lat="45.85867" lon="4.67383">
        <ele>209</ele>
        <time>2016-11-08T10:25:59Z</time>
      </trkpt>
      <trkpt lat="45.85868" lon="4.67376">
        <ele>209</ele>
        <time>2016-11-08T10:26:00Z</time>
      </trkpt>
      <trkpt lat="45.85869" lon="4.67368">
        <ele>209</ele>
        <time>2016-11-08T10:26:01Z</time>
      </trkpt>
      <trkpt lat="45.8587" lon="4.6736">
        <ele>208</ele>
        <time>2016-11-08T10:26:02Z</time>
      </trkpt>
      <trkpt lat="45.85871" lon="4.67353">
        <ele>208</ele>
        <time>2016-11-08T10:26:03Z</time>
      </trkpt>
      <trkpt lat="45.85872" lon="4.67345">
        <ele>208</ele>
        <time>2016-11-08T10:26:04Z</time>
      </trkpt>
      <trkpt lat="45.85873" lon="4.67337">
        <ele>208</ele>
        <time>2016-11-08T10:26:05Z</time>
      </trkpt>
      <trkpt lat="45.85874" lon="4.67328">
        <ele>206</ele>
        <time>2016-11-08T10:26:06Z</time>
      </trkpt>
      <trkpt lat="45.85875" lon="4.6732">
        <ele>206</ele>
        <time>2016-11-08T10:26:07Z</time>
      </trkpt>
      <trkpt lat="45.85875" lon="4.67313">
        <ele>206</ele>
        <time>2016-11-08T10:26:08Z</time>
      </trkpt>
      <trkpt lat="45.85875" lon="4.67304">
        <ele>205</ele>
        <time>2016-11-08T10:26:09Z</time>
      </trkpt>
      <trkpt lat="45.85876" lon="4.67295">
        <ele>205</ele>
        <time>2016-11-08T10:26:10Z</time>
      </trkpt>
      <trkpt lat="45.85876" lon="4.67287">
        <ele>205</ele>
        <time>2016-11-08T10:26:11Z</time>
      </trkpt>
      <trkpt lat="45.85877" lon="4.67279">
        <ele>205</ele>
        <time>2016-11-08T10:26:12Z</time>
      </trkpt>
      <trkpt lat="45.85878" lon="4.67272">
        <ele>205</ele>
        <time>2016-11-08T10:26:13Z</time>
      </trkpt>
      <trkpt lat="45.85879" lon="4.67264">
        <ele>205</ele>
        <time>2016-11-08T10:26:14Z</time>
      </trkpt>
      <trkpt lat="45.85879" lon="4.67256">
        <ele>205</ele>
        <time>2016-11-08T10:26:15Z</time>
      </trkpt>
      <trkpt lat="45.8588" lon="4.67248">
        <ele>204</ele>
        <time>2016-11-08T10:26:16Z</time>
      </trkpt>
      <trkpt lat="45.85881" lon="4.6724">
        <ele>204</ele>
        <time>2016-11-08T10:26:17Z</time>
      </trkpt>
      <trkpt lat="45.85882" lon="4.67233">
        <ele>204</ele>
        <time>2016-11-08T10:26:18Z</time>
      </trkpt>
      <trkpt lat="45.85883" lon="4.67225">
        <ele>204</ele>
        <time>2016-11-08T10:26:19Z</time>
      </trkpt>
      <trkpt lat="45.85883" lon="4.67218">
        <ele>204</ele>
        <time>2016-11-08T10:26:20Z</time>
      </trkpt>
      <trkpt lat="45.85884" lon="4.67211">
        <ele>204</ele>
        <time>2016-11-08T10:26:21Z</time>
      </trkpt>
      <trkpt lat="45.85885" lon="4.67203">
        <ele>204</ele>
        <time>2016-11-08T10:26:22Z</time>
      </trkpt>
      <trkpt lat="45.85886" lon="4.67196">
        <ele>204</ele>
        <time>2016-11-08T10:26:23Z</time>
      </trkpt>
      <trkpt lat="45.85887" lon="4.67189">
        <ele>204</ele>
        <time>2016-11-08T10:26:24Z</time>
      </trkpt>
      <trkpt lat="45.85888" lon="4.6718">
        <ele>204</ele>
        <time>2016-11-08T10:26:25Z</time>
      </trkpt>
      <trkpt lat="45.85889" lon="4.67164">
        <ele>204</ele>
        <time>2016-11-08T10:26:27Z</time>
      </trkpt>
      <trkpt lat="45.8589" lon="4.67156">
        <ele>204</ele>
        <time>2016-11-08T10:26:28Z</time>
      </trkpt>
      <trkpt lat="45.85891" lon="4.67148">
        <ele>204</ele>
        <time>2016-11-08T10:26:29Z</time>
      </trkpt>
      <trkpt lat="45.85892" lon="4.6714">
        <ele>204</ele>
        <time>2016-11-08T10:26:30Z</time>
      </trkpt>
      <trkpt lat="45.85893" lon="4.67132">
        <ele>204</ele>
        <time>2016-11-08T10:26:31Z</time>
      </trkpt>
      <trkpt lat="45.85894" lon="4.67124">
        <ele>204</ele>
        <time>2016-11-08T10:26:32Z</time>
      </trkpt>
      <trkpt lat="45.85895" lon="4.67116">
        <ele>204</ele>
        <time>2016-11-08T10:26:33Z</time>
      </trkpt>
      <trkpt lat="45.85896" lon="4.67109">
        <ele>204</ele>
        <time>2016-11-08T10:26:34Z</time>
      </trkpt>
      <trkpt lat="45.85897" lon="4.67101">
        <ele>204</ele>
        <time>2016-11-08T10:26:35Z</time>
      </trkpt>
      <trkpt lat="45.85898" lon="4.67094">
        <ele>204</ele>
        <time>2016-11-08T10:26:36Z</time>
      </trkpt>
      <trkpt lat="45.85899" lon="4.67086">
        <ele>204</ele>
        <time>2016-11-08T10:26:37Z</time>
      </trkpt>
      <trkpt lat="45.85901" lon="4.67079">
        <ele>204</ele>
        <time>2016-11-08T10:26:38Z</time>
      </trkpt>
      <trkpt lat="45.85902" lon="4.67072">
        <ele>205</ele>
        <time>2016-11-08T10:26:39Z</time>
      </trkpt>
      <trkpt lat="45.85903" lon="4.67065">
        <ele>205</ele>
        <time>2016-11-08T10:26:40Z</time>
      </trkpt>
      <trkpt lat="45.85904" lon="4.67057">
        <ele>205</ele>
        <time>2016-11-08T10:26:41Z</time>
      </trkpt>
      <trkpt lat="45.85906" lon="4.6705">
        <ele>205</ele>
        <time>2016-11-08T10:26:42Z</time>
      </trkpt>
      <trkpt lat="45.85907" lon="4.67042">
        <ele>205</ele>
        <time>2016-11-08T10:26:43Z</time>
      </trkpt>
      <trkpt lat="45.85908" lon="4.67034">
        <ele>205</ele>
        <time>2016-11-08T10:26:44Z</time>
      </trkpt>
      <trkpt lat="45.85909" lon="4.67027">
        <ele>205</ele>
        <time>2016-11-08T10:26:45Z</time>
      </trkpt>
      <trkpt lat="45.8591" lon="4.6702">
        <ele>205</ele>
        <time>2016-11-08T10:26:46Z</time>
      </trkpt>
      <trkpt lat="45.85912" lon="4.67014">
        <ele>206</ele>
        <time>2016-11-08T10:26:47Z</time>
      </trkpt>
      <trkpt lat="45.85913" lon="4.67008">
        <ele>206</ele>
        <time>2016-11-08T10:26:48Z</time>
      </trkpt>
      <trkpt lat="45.85915" lon="4.67002">
        <ele>206</ele>
        <time>2016-11-08T10:26:49Z</time>
      </trkpt>
      <trkpt lat="45.85918" lon="4.66996">
        <ele>207</ele>
        <time>2016-11-08T10:26:50Z</time>
      </trkpt>
      <trkpt lat="45.8592" lon="4.66991">
        <ele>207</ele>
        <time>2016-11-08T10:26:51Z</time>
      </trkpt>
      <trkpt lat="45.85924" lon="4.66982">
        <ele>208</ele>
        <time>2016-11-08T10:26:53Z</time>
      </trkpt>
      <trkpt lat="45.85925" lon="4.66974">
        <ele>208</ele>
        <time>2016-11-08T10:26:54Z</time>
      </trkpt>
      <trkpt lat="45.85926" lon="4.66966">
        <ele>209</ele>
        <time>2016-11-08T10:26:55Z</time>
      </trkpt>
      <trkpt lat="45.85925" lon="4.66958">
        <ele>209</ele>
        <time>2016-11-08T10:26:56Z</time>
      </trkpt>
      <trkpt lat="45.85923" lon="4.66949">
        <ele>209</ele>
        <time>2016-11-08T10:26:57Z</time>
      </trkpt>
      <trkpt lat="45.85923" lon="4.66941">
        <ele>208</ele>
        <time>2016-11-08T10:26:58Z</time>
      </trkpt>
      <trkpt lat="45.85924" lon="4.66931">
        <ele>208</ele>
        <time>2016-11-08T10:26:59Z</time>
      </trkpt>
      <trkpt lat="45.85925" lon="4.66922">
        <ele>208</ele>
        <time>2016-11-08T10:27:00Z</time>
      </trkpt>
      <trkpt lat="45.85925" lon="4.66913">
        <ele>208</ele>
        <time>2016-11-08T10:27:01Z</time>
      </trkpt>
      <trkpt lat="45.85932" lon="4.66895">
        <ele>209</ele>
        <time>2016-11-08T10:27:04Z</time>
      </trkpt>
      <trkpt lat="45.85934" lon="4.66888">
        <ele>210</ele>
        <time>2016-11-08T10:27:05Z</time>
      </trkpt>
      <trkpt lat="45.85935" lon="4.66882">
        <ele>210</ele>
        <time>2016-11-08T10:27:06Z</time>
      </trkpt>
      <trkpt lat="45.85937" lon="4.66875">
        <ele>210</ele>
        <time>2016-11-08T10:27:07Z</time>
      </trkpt>
      <trkpt lat="45.85939" lon="4.66869">
        <ele>210</ele>
        <time>2016-11-08T10:27:08Z</time>
      </trkpt>
      <trkpt lat="45.85941" lon="4.66862">
        <ele>210</ele>
        <time>2016-11-08T10:27:09Z</time>
      </trkpt>
      <trkpt lat="45.85943" lon="4.66856">
        <ele>210</ele>
        <time>2016-11-08T10:27:10Z</time>
      </trkpt>
      <trkpt lat="45.85945" lon="4.6685">
        <ele>210</ele>
        <time>2016-11-08T10:27:11Z</time>
      </trkpt>
      <trkpt lat="45.85947" lon="4.66843">
        <ele>211</ele>
        <time>2016-11-08T10:27:12Z</time>
      </trkpt>
      <trkpt lat="45.85951" lon="4.66827">
        <ele>212</ele>
        <time>2016-11-08T10:27:14Z</time>
      </trkpt>
      <trkpt lat="45.85953" lon="4.6682">
        <ele>213</ele>
        <time>2016-11-08T10:27:15Z</time>
      </trkpt>
      <trkpt lat="45.85956" lon="4.66814">
        <ele>213</ele>
        <time>2016-11-08T10:27:16Z</time>
      </trkpt>
      <trkpt lat="45.85959" lon="4.66802">
        <ele>213</ele>
        <time>2016-11-08T10:27:18Z</time>
      </trkpt>
      <trkpt lat="45.85961" lon="4.66796">
        <ele>213</ele>
        <time>2016-11-08T10:27:19Z</time>
      </trkpt>
      <trkpt lat="45.85965" lon="4.66785">
        <ele>214</ele>
        <time>2016-11-08T10:27:21Z</time>
      </trkpt>
      <trkpt lat="45.85967" lon="4.6678">
        <ele>214</ele>
        <time>2016-11-08T10:27:22Z</time>
      </trkpt>
      <trkpt lat="45.85969" lon="4.66769">
        <ele>214</ele>
        <time>2016-11-08T10:27:24Z</time>
      </trkpt>
      <trkpt lat="45.85971" lon="4.66763">
        <ele>214</ele>
        <time>2016-11-08T10:27:25Z</time>
      </trkpt>
      <trkpt lat="45.85974" lon="4.66758">
        <ele>215</ele>
        <time>2016-11-08T10:27:26Z</time>
      </trkpt>
      <trkpt lat="45.85976" lon="4.66752">
        <ele>215</ele>
        <time>2016-11-08T10:27:27Z</time>
      </trkpt>
      <trkpt lat="45.8598" lon="4.6674">
        <ele>216</ele>
        <time>2016-11-08T10:27:29Z</time>
      </trkpt>
      <trkpt lat="45.85982" lon="4.66735">
        <ele>216</ele>
        <time>2016-11-08T10:27:30Z</time>
      </trkpt>
      <trkpt lat="45.85987" lon="4.66725">
        <ele>216</ele>
        <time>2016-11-08T10:27:32Z</time>
      </trkpt>
      <trkpt lat="45.85989" lon="4.66719">
        <ele>215</ele>
        <time>2016-11-08T10:27:33Z</time>
      </trkpt>
      <trkpt lat="45.85993" lon="4.66714">
        <ele>215</ele>
        <time>2016-11-08T10:27:34Z</time>
      </trkpt>
      <trkpt lat="45.85996" lon="4.66709">
        <ele>215</ele>
        <time>2016-11-08T10:27:35Z</time>
      </trkpt>
      <trkpt lat="45.86" lon="4.66704">
        <ele>215</ele>
        <time>2016-11-08T10:27:36Z</time>
      </trkpt>
      <trkpt lat="45.86003" lon="4.66698">
        <ele>219</ele>
        <time>2016-11-08T10:27:37Z</time>
      </trkpt>
      <trkpt lat="45.86006" lon="4.66693">
        <ele>218</ele>
        <time>2016-11-08T10:27:38Z</time>
      </trkpt>
      <trkpt lat="45.8601" lon="4.66687">
        <ele>218</ele>
        <time>2016-11-08T10:27:39Z</time>
      </trkpt>
      <trkpt lat="45.86014" lon="4.66682">
        <ele>217</ele>
        <time>2016-11-08T10:27:40Z</time>
      </trkpt>
      <trkpt lat="45.86018" lon="4.66677">
        <ele>217</ele>
        <time>2016-11-08T10:27:41Z</time>
      </trkpt>
      <trkpt lat="45.86022" lon="4.66672">
        <ele>218</ele>
        <time>2016-11-08T10:27:42Z</time>
      </trkpt>
      <trkpt lat="45.86026" lon="4.66667">
        <ele>213</ele>
        <time>2016-11-08T10:27:43Z</time>
      </trkpt>
      <trkpt lat="45.86031" lon="4.66662">
        <ele>214</ele>
        <time>2016-11-08T10:27:44Z</time>
      </trkpt>
      <trkpt lat="45.86035" lon="4.66658">
        <ele>214</ele>
        <time>2016-11-08T10:27:45Z</time>
      </trkpt>
      <trkpt lat="45.86038" lon="4.66653">
        <ele>214</ele>
        <time>2016-11-08T10:27:46Z</time>
      </trkpt>
      <trkpt lat="45.86041" lon="4.66649">
        <ele>214</ele>
        <time>2016-11-08T10:27:47Z</time>
      </trkpt>
      <trkpt lat="45.86045" lon="4.66645">
        <ele>214</ele>
        <time>2016-11-08T10:27:48Z</time>
      </trkpt>
      <trkpt lat="45.86049" lon="4.66642">
        <ele>215</ele>
        <time>2016-11-08T10:27:49Z</time>
      </trkpt>
      <trkpt lat="45.86053" lon="4.66638">
        <ele>215</ele>
        <time>2016-11-08T10:27:50Z</time>
      </trkpt>
      <trkpt lat="45.86057" lon="4.66634">
        <ele>215</ele>
        <time>2016-11-08T10:27:51Z</time>
      </trkpt>
      <trkpt lat="45.86062" lon="4.66631">
        <ele>215</ele>
        <time>2016-11-08T10:27:52Z</time>
      </trkpt>
      <trkpt lat="45.86066" lon="4.66628">
        <ele>214</ele>
        <time>2016-11-08T10:27:53Z</time>
      </trkpt>
      <trkpt lat="45.8607" lon="4.66624">
        <ele>214</ele>
        <time>2016-11-08T10:27:54Z</time>
      </trkpt>
      <trkpt lat="45.86074" lon="4.66621">
        <ele>214</ele>
        <time>2016-11-08T10:27:55Z</time>
      </trkpt>
      <trkpt lat="45.86078" lon="4.66618">
        <ele>214</ele>
        <time>2016-11-08T10:27:56Z</time>
      </trkpt>
      <trkpt lat="45.86083" lon="4.66614">
        <ele>213</ele>
        <time>2016-11-08T10:27:57Z</time>
      </trkpt>
      <trkpt lat="45.86088" lon="4.66611">
        <ele>219</ele>
        <time>2016-11-08T10:27:58Z</time>
      </trkpt>
      <trkpt lat="45.86092" lon="4.66608">
        <ele>219</ele>
        <time>2016-11-08T10:27:59Z</time>
      </trkpt>
      <trkpt lat="45.86097" lon="4.66605">
        <ele>219</ele>
        <time>2016-11-08T10:28:00Z</time>
      </trkpt>
      <trkpt lat="45.86102" lon="4.66602">
        <ele>219</ele>
        <time>2016-11-08T10:28:01Z</time>
      </trkpt>
      <trkpt lat="45.86106" lon="4.66599">
        <ele>219</ele>
        <time>2016-11-08T10:28:02Z</time>
      </trkpt>
      <trkpt lat="45.86111" lon="4.66596">
        <ele>220</ele>
        <time>2016-11-08T10:28:03Z</time>
      </trkpt>
      <trkpt lat="45.86115" lon="4.66593">
        <ele>220</ele>
        <time>2016-11-08T10:28:04Z</time>
      </trkpt>
      <trkpt lat="45.8612" lon="4.6659">
        <ele>221</ele>
        <time>2016-11-08T10:28:05Z</time>
      </trkpt>
      <trkpt lat="45.86125" lon="4.66586">
        <ele>221</ele>
        <time>2016-11-08T10:28:06Z</time>
      </trkpt>
      <trkpt lat="45.86129" lon="4.66583">
        <ele>214</ele>
        <time>2016-11-08T10:28:07Z</time>
      </trkpt>
      <trkpt lat="45.86133" lon="4.66579">
        <ele>215</ele>
        <time>2016-11-08T10:28:08Z</time>
      </trkpt>
      <trkpt lat="45.86137" lon="4.66574">
        <ele>215</ele>
        <time>2016-11-08T10:28:09Z</time>
      </trkpt>
      <trkpt lat="45.86141" lon="4.66569">
        <ele>215</ele>
        <time>2016-11-08T10:28:10Z</time>
      </trkpt>
      <trkpt lat="45.86146" lon="4.66565">
        <ele>215</ele>
        <time>2016-11-08T10:28:11Z</time>
      </trkpt>
      <trkpt lat="45.8615" lon="4.6656">
        <ele>215</ele>
        <time>2016-11-08T10:28:12Z</time>
      </trkpt>
      <trkpt lat="45.86155" lon="4.66556">
        <ele>215</ele>
        <time>2016-11-08T10:28:13Z</time>
      </trkpt>
      <trkpt lat="45.86158" lon="4.66551">
        <ele>215</ele>
        <time>2016-11-08T10:28:14Z</time>
      </trkpt>
      <trkpt lat="45.86162" lon="4.66546">
        <ele>214</ele>
        <time>2016-11-08T10:28:15Z</time>
      </trkpt>
      <trkpt lat="45.86166" lon="4.6654">
        <ele>214</ele>
        <time>2016-11-08T10:28:16Z</time>
      </trkpt>
      <trkpt lat="45.86171" lon="4.66533">
        <ele>219</ele>
        <time>2016-11-08T10:28:17Z</time>
      </trkpt>
      <trkpt lat="45.86175" lon="4.66527">
        <ele>218</ele>
        <time>2016-11-08T10:28:18Z</time>
      </trkpt>
      <trkpt lat="45.86179" lon="4.66519">
        <ele>217</ele>
        <time>2016-11-08T10:28:19Z</time>
      </trkpt>
      <trkpt lat="45.86183" lon="4.66511">
        <ele>216</ele>
        <time>2016-11-08T10:28:20Z</time>
      </trkpt>
      <trkpt lat="45.86187" lon="4.66504">
        <ele>216</ele>
        <time>2016-11-08T10:28:21Z</time>
      </trkpt>
      <trkpt lat="45.86191" lon="4.66497">
        <ele>212</ele>
        <time>2016-11-08T10:28:22Z</time>
      </trkpt>
      <trkpt lat="45.86194" lon="4.66491">
        <ele>213</ele>
        <time>2016-11-08T10:28:23Z</time>
      </trkpt>
      <trkpt lat="45.86198" lon="4.66485">
        <ele>213</ele>
        <time>2016-11-08T10:28:24Z</time>
      </trkpt>
      <trkpt lat="45.86202" lon="4.66479">
        <ele>213</ele>
        <time>2016-11-08T10:28:25Z</time>
      </trkpt>
      <trkpt lat="45.86205" lon="4.66472">
        <ele>213</ele>
        <time>2016-11-08T10:28:26Z</time>
      </trkpt>
      <trkpt lat="45.86208" lon="4.66467">
        <ele>213</ele>
        <time>2016-11-08T10:28:27Z</time>
      </trkpt>
      <trkpt lat="45.86212" lon="4.66461">
        <ele>213</ele>
        <time>2016-11-08T10:28:28Z</time>
      </trkpt>
      <trkpt lat="45.86215" lon="4.66456">
        <ele>213</ele>
        <time>2016-11-08T10:28:29Z</time>
      </trkpt>
      <trkpt lat="45.86219" lon="4.6645">
        <ele>213</ele>
        <time>2016-11-08T10:28:30Z</time>
      </trkpt>
      <trkpt lat="45.86222" lon="4.66444">
        <ele>213</ele>
        <time>2016-11-08T10:28:31Z</time>
      </trkpt>
      <trkpt lat="45.86226" lon="4.66437">
        <ele>214</ele>
        <time>2016-11-08T10:28:32Z</time>
      </trkpt>
      <trkpt lat="45.8623" lon="4.6643">
        <ele>214</ele>
        <time>2016-11-08T10:28:33Z</time>
      </trkpt>
      <trkpt lat="45.86233" lon="4.66424">
        <ele>214</ele>
        <time>2016-11-08T10:28:34Z</time>
      </trkpt>
      <trkpt lat="45.86236" lon="4.66417">
        <ele>214</ele>
        <time>2016-11-08T10:28:35Z</time>
      </trkpt>
      <trkpt lat="45.8624" lon="4.6641">
        <ele>213</ele>
        <time>2016-11-08T10:28:36Z</time>
      </trkpt>
      <trkpt lat="45.86243" lon="4.66404">
        <ele>213</ele>
        <time>2016-11-08T10:28:37Z</time>
      </trkpt>
      <trkpt lat="45.86246" lon="4.66398">
        <ele>213</ele>
        <time>2016-11-08T10:28:38Z</time>
      </trkpt>
      <trkpt lat="45.8625" lon="4.66392">
        <ele>212</ele>
        <time>2016-11-08T10:28:39Z</time>
      </trkpt>
      <trkpt lat="45.86253" lon="4.66387">
        <ele>216</ele>
        <time>2016-11-08T10:28:40Z</time>
      </trkpt>
      <trkpt lat="45.86256" lon="4.66381">
        <ele>216</ele>
        <time>2016-11-08T10:28:41Z</time>
      </trkpt>
      <trkpt lat="45.86259" lon="4.66375">
        <ele>216</ele>
        <time>2016-11-08T10:28:42Z</time>
      </trkpt>
      <trkpt lat="45.86262" lon="4.66369">
        <ele>216</ele>
        <time>2016-11-08T10:28:43Z</time>
      </trkpt>
      <trkpt lat="45.86265" lon="4.66363">
        <ele>216</ele>
        <time>2016-11-08T10:28:44Z</time>
      </trkpt>
      <trkpt lat="45.86268" lon="4.66358">
        <ele>216</ele>
        <time>2016-11-08T10:28:45Z</time>
      </trkpt>
      <trkpt lat="45.86271" lon="4.66353">
        <ele>216</ele>
        <time>2016-11-08T10:28:46Z</time>
      </trkpt>
      <trkpt lat="45.86274" lon="4.66347">
        <ele>216</ele>
        <time>2016-11-08T10:28:47Z</time>
      </trkpt>
      <trkpt lat="45.86278" lon="4.66341">
        <ele>216</ele>
        <time>2016-11-08T10:28:48Z</time>
      </trkpt>
      <trkpt lat="45.86281" lon="4.66335">
        <ele>216</ele>
        <time>2016-11-08T10:28:49Z</time>
      </trkpt>
      <trkpt lat="45.86284" lon="4.66329">
        <ele>214</ele>
        <time>2016-11-08T10:28:50Z</time>
      </trkpt>
      <trkpt lat="45.86287" lon="4.66324">
        <ele>214</ele>
        <time>2016-11-08T10:28:51Z</time>
      </trkpt>
      <trkpt lat="45.86292" lon="4.66319">
        <ele>214</ele>
        <time>2016-11-08T10:28:52Z</time>
      </trkpt>
      <trkpt lat="45.86296" lon="4.66314">
        <ele>215</ele>
        <time>2016-11-08T10:28:53Z</time>
      </trkpt>
      <trkpt lat="45.86301" lon="4.66309">
        <ele>215</ele>
        <time>2016-11-08T10:28:54Z</time>
      </trkpt>
      <trkpt lat="45.86306" lon="4.66305">
        <ele>215</ele>
        <time>2016-11-08T10:28:55Z</time>
      </trkpt>
      <trkpt lat="45.8631" lon="4.663">
        <ele>215</ele>
        <time>2016-11-08T10:28:56Z</time>
      </trkpt>
      <trkpt lat="45.86314" lon="4.66295">
        <ele>215</ele>
        <time>2016-11-08T10:28:57Z</time>
      </trkpt>
      <trkpt lat="45.86319" lon="4.6629">
        <ele>215</ele>
        <time>2016-11-08T10:28:58Z</time>
      </trkpt>
      <trkpt lat="45.86323" lon="4.66286">
        <ele>214</ele>
        <time>2016-11-08T10:28:59Z</time>
      </trkpt>
      <trkpt lat="45.86328" lon="4.66282">
        <ele>214</ele>
        <time>2016-11-08T10:29:00Z</time>
      </trkpt>
      <trkpt lat="45.86333" lon="4.66279">
        <ele>214</ele>
        <time>2016-11-08T10:29:01Z</time>
      </trkpt>
      <trkpt lat="45.86338" lon="4.66275">
        <ele>218</ele>
        <time>2016-11-08T10:29:02Z</time>
      </trkpt>
      <trkpt lat="45.86343" lon="4.66271">
        <ele>218</ele>
        <time>2016-11-08T10:29:03Z</time>
      </trkpt>
      <trkpt lat="45.86348" lon="4.66267">
        <ele>217</ele>
        <time>2016-11-08T10:29:04Z</time>
      </trkpt>
      <trkpt lat="45.86352" lon="4.66263">
        <ele>218</ele>
        <time>2016-11-08T10:29:05Z</time>
      </trkpt>
      <trkpt lat="45.86356" lon="4.6626">
        <ele>218</ele>
        <time>2016-11-08T10:29:06Z</time>
      </trkpt>
      <trkpt lat="45.86361" lon="4.66257">
        <ele>218</ele>
        <time>2016-11-08T10:29:07Z</time>
      </trkpt>
      <trkpt lat="45.86366" lon="4.66254">
        <ele>218</ele>
        <time>2016-11-08T10:29:08Z</time>
      </trkpt>
      <trkpt lat="45.8637" lon="4.66251">
        <ele>219</ele>
        <time>2016-11-08T10:29:09Z</time>
      </trkpt>
      <trkpt lat="45.86375" lon="4.66249">
        <ele>214</ele>
        <time>2016-11-08T10:29:10Z</time>
      </trkpt>
      <trkpt lat="45.8638" lon="4.66247">
        <ele>214</ele>
        <time>2016-11-08T10:29:11Z</time>
      </trkpt>
      <trkpt lat="45.86385" lon="4.66244">
        <ele>214</ele>
        <time>2016-11-08T10:29:12Z</time>
      </trkpt>
      <trkpt lat="45.8639" lon="4.66241">
        <ele>215</ele>
        <time>2016-11-08T10:29:13Z</time>
      </trkpt>
      <trkpt lat="45.86395" lon="4.66239">
        <ele>215</ele>
        <time>2016-11-08T10:29:14Z</time>
      </trkpt>
      <trkpt lat="45.864" lon="4.66235">
        <ele>216</ele>
        <time>2016-11-08T10:29:15Z</time>
      </trkpt>
      <trkpt lat="45.86405" lon="4.66233">
        <ele>216</ele>
        <time>2016-11-08T10:29:16Z</time>
      </trkpt>
      <trkpt lat="45.8641" lon="4.66231">
        <ele>216</ele>
        <time>2016-11-08T10:29:17Z</time>
      </trkpt>
      <trkpt lat="45.86415" lon="4.6623">
        <ele>216</ele>
        <time>2016-11-08T10:29:18Z</time>
      </trkpt>
      <trkpt lat="45.86419" lon="4.66228">
        <ele>218</ele>
        <time>2016-11-08T10:29:19Z</time>
      </trkpt>
      <trkpt lat="45.86423" lon="4.66225">
        <ele>218</ele>
        <time>2016-11-08T10:29:20Z</time>
      </trkpt>
      <trkpt lat="45.86428" lon="4.66224">
        <ele>218</ele>
        <time>2016-11-08T10:29:21Z</time>
      </trkpt>
      <trkpt lat="45.86435" lon="4.6622">
        <ele>218</ele>
        <time>2016-11-08T10:29:23Z</time>
      </trkpt>
      <trkpt lat="45.8644" lon="4.66219">
        <ele>218</ele>
        <time>2016-11-08T10:29:24Z</time>
      </trkpt>
      <trkpt lat="45.86444" lon="4.66218">
        <ele>218</ele>
        <time>2016-11-08T10:29:25Z</time>
      </trkpt>
      <trkpt lat="45.86449" lon="4.66217">
        <ele>218</ele>
        <time>2016-11-08T10:29:26Z</time>
      </trkpt>
      <trkpt lat="45.86454" lon="4.66215">
        <ele>218</ele>
        <time>2016-11-08T10:29:27Z</time>
      </trkpt>
      <trkpt lat="45.86459" lon="4.66213">
        <ele>218</ele>
        <time>2016-11-08T10:29:28Z</time>
      </trkpt>
      <trkpt lat="45.86464" lon="4.66212">
        <ele>218</ele>
        <time>2016-11-08T10:29:29Z</time>
      </trkpt>
      <trkpt lat="45.86469" lon="4.6621">
        <ele>218</ele>
        <time>2016-11-08T10:29:30Z</time>
      </trkpt>
      <trkpt lat="45.86474" lon="4.66209">
        <ele>218</ele>
        <time>2016-11-08T10:29:31Z</time>
      </trkpt>
      <trkpt lat="45.86479" lon="4.66207">
        <ele>218</ele>
        <time>2016-11-08T10:29:32Z</time>
      </trkpt>
      <trkpt lat="45.86484" lon="4.66206">
        <ele>218</ele>
        <time>2016-11-08T10:29:33Z</time>
      </trkpt>
      <trkpt lat="45.86489" lon="4.66204">
        <ele>218</ele>
        <time>2016-11-08T10:29:34Z</time>
      </trkpt>
      <trkpt lat="45.86494" lon="4.66202">
        <ele>218</ele>
        <time>2016-11-08T10:29:35Z</time>
      </trkpt>
      <trkpt lat="45.86498" lon="4.662">
        <ele>218</ele>
        <time>2016-11-08T10:29:36Z</time>
      </trkpt>
      <trkpt lat="45.86506" lon="4.66195">
        <ele>223</ele>
        <time>2016-11-08T10:29:38Z</time>
      </trkpt>
      <trkpt lat="45.8651" lon="4.66193">
        <ele>223</ele>
        <time>2016-11-08T10:29:39Z</time>
      </trkpt>
      <trkpt lat="45.86514" lon="4.66191">
        <ele>223</ele>
        <time>2016-11-08T10:29:40Z</time>
      </trkpt>
      <trkpt lat="45.86519" lon="4.66188">
        <ele>223</ele>
        <time>2016-11-08T10:29:41Z</time>
      </trkpt>
      <trkpt lat="45.86523" lon="4.66186">
        <ele>223</ele>
        <time>2016-11-08T10:29:42Z</time>
      </trkpt>
      <trkpt lat="45.86527" lon="4.66183">
        <ele>224</ele>
        <time>2016-11-08T10:29:43Z</time>
      </trkpt>
      <trkpt lat="45.86531" lon="4.6618">
        <ele>224</ele>
        <time>2016-11-08T10:29:44Z</time>
      </trkpt>
      <trkpt lat="45.86535" lon="4.66177">
        <ele>224</ele>
        <time>2016-11-08T10:29:45Z</time>
      </trkpt>
      <trkpt lat="45.8654" lon="4.66174">
        <ele>225</ele>
        <time>2016-11-08T10:29:46Z</time>
      </trkpt>
      <trkpt lat="45.86544" lon="4.6617">
        <ele>225</ele>
        <time>2016-11-08T10:29:47Z</time>
      </trkpt>
      <trkpt lat="45.86548" lon="4.66166">
        <ele>218</ele>
        <time>2016-11-08T10:29:48Z</time>
      </trkpt>
      <trkpt lat="45.86552" lon="4.66163">
        <ele>218</ele>
        <time>2016-11-08T10:29:49Z</time>
      </trkpt>
      <trkpt lat="45.86556" lon="4.6616">
        <ele>219</ele>
        <time>2016-11-08T10:29:50Z</time>
      </trkpt>
      <trkpt lat="45.86561" lon="4.66156">
        <ele>219</ele>
        <time>2016-11-08T10:29:51Z</time>
      </trkpt>
      <trkpt lat="45.86565" lon="4.66152">
        <ele>220</ele>
        <time>2016-11-08T10:29:52Z</time>
      </trkpt>
      <trkpt lat="45.86569" lon="4.66147">
        <ele>219</ele>
        <time>2016-11-08T10:29:53Z</time>
      </trkpt>
      <trkpt lat="45.86573" lon="4.66143">
        <ele>219</ele>
        <time>2016-11-08T10:29:54Z</time>
      </trkpt>
      <trkpt lat="45.86578" lon="4.6614">
        <ele>219</ele>
        <time>2016-11-08T10:29:55Z</time>
      </trkpt>
      <trkpt lat="45.86582" lon="4.66136">
        <ele>218</ele>
        <time>2016-11-08T10:29:56Z</time>
      </trkpt>
      <trkpt lat="45.86587" lon="4.66132">
        <ele>225</ele>
        <time>2016-11-08T10:29:57Z</time>
      </trkpt>
      <trkpt lat="45.86591" lon="4.66128">
        <ele>224</ele>
        <time>2016-11-08T10:29:58Z</time>
      </trkpt>
      <trkpt lat="45.86595" lon="4.66125">
        <ele>224</ele>
        <time>2016-11-08T10:29:59Z</time>
      </trkpt>
      <trkpt lat="45.866" lon="4.66122">
        <ele>224</ele>
        <time>2016-11-08T10:30:00Z</time>
      </trkpt>
      <trkpt lat="45.86604" lon="4.66118">
        <ele>223</ele>
        <time>2016-11-08T10:30:01Z</time>
      </trkpt>
      <trkpt lat="45.86609" lon="4.66115">
        <ele>223</ele>
        <time>2016-11-08T10:30:02Z</time>
      </trkpt>
      <trkpt lat="45.86613" lon="4.66113">
        <ele>223</ele>
        <time>2016-11-08T10:30:03Z</time>
      </trkpt>
      <trkpt lat="45.86618" lon="4.6611">
        <ele>223</ele>
        <time>2016-11-08T10:30:04Z</time>
      </trkpt>
      <trkpt lat="45.86623" lon="4.66108">
        <ele>223</ele>
        <time>2016-11-08T10:30:05Z</time>
      </trkpt>
      <trkpt lat="45.86627" lon="4.66105">
        <ele>224</ele>
        <time>2016-11-08T10:30:06Z</time>
      </trkpt>
      <trkpt lat="45.86632" lon="4.66102">
        <ele>224</ele>
        <time>2016-11-08T10:30:07Z</time>
      </trkpt>
      <trkpt lat="45.86636" lon="4.661">
        <ele>223</ele>
        <time>2016-11-08T10:30:08Z</time>
      </trkpt>
      <trkpt lat="45.86641" lon="4.66097">
        <ele>223</ele>
        <time>2016-11-08T10:30:09Z</time>
      </trkpt>
      <trkpt lat="45.86645" lon="4.66095">
        <ele>223</ele>
        <time>2016-11-08T10:30:10Z</time>
      </trkpt>
      <trkpt lat="45.8665" lon="4.66094">
        <ele>223</ele>
        <time>2016-11-08T10:30:11Z</time>
      </trkpt>
      <trkpt lat="45.86654" lon="4.66092">
        <ele>222</ele>
        <time>2016-11-08T10:30:12Z</time>
      </trkpt>
      <trkpt lat="45.86659" lon="4.6609">
        <ele>222</ele>
        <time>2016-11-08T10:30:13Z</time>
      </trkpt>
      <trkpt lat="45.86664" lon="4.66088">
        <ele>221</ele>
        <time>2016-11-08T10:30:14Z</time>
      </trkpt>
      <trkpt lat="45.86669" lon="4.66087">
        <ele>222</ele>
        <time>2016-11-08T10:30:15Z</time>
      </trkpt>
      <trkpt lat="45.86674" lon="4.66086">
        <ele>225</ele>
        <time>2016-11-08T10:30:16Z</time>
      </trkpt>
      <trkpt lat="45.86678" lon="4.66083">
        <ele>220</ele>
        <time>2016-11-08T10:30:17Z</time>
      </trkpt>
      <trkpt lat="45.86683" lon="4.66081">
        <ele>221</ele>
        <time>2016-11-08T10:30:18Z</time>
      </trkpt>
      <trkpt lat="45.86688" lon="4.66079">
        <ele>221</ele>
        <time>2016-11-08T10:30:19Z</time>
      </trkpt>
      <trkpt lat="45.86696" lon="4.66075">
        <ele>222</ele>
        <time>2016-11-08T10:30:21Z</time>
      </trkpt>
      <trkpt lat="45.86701" lon="4.66073">
        <ele>223</ele>
        <time>2016-11-08T10:30:22Z</time>
      </trkpt>
      <trkpt lat="45.86709" lon="4.66069">
        <ele>224</ele>
        <time>2016-11-08T10:30:24Z</time>
      </trkpt>
      <trkpt lat="45.86713" lon="4.66066">
        <ele>224</ele>
        <time>2016-11-08T10:30:25Z</time>
      </trkpt>
      <trkpt lat="45.86721" lon="4.6606">
        <ele>225</ele>
        <time>2016-11-08T10:30:27Z</time>
      </trkpt>
      <trkpt lat="45.86725" lon="4.66057">
        <ele>225</ele>
        <time>2016-11-08T10:30:28Z</time>
      </trkpt>
      <trkpt lat="45.86729" lon="4.66054">
        <ele>225</ele>
        <time>2016-11-08T10:30:29Z</time>
      </trkpt>
      <trkpt lat="45.86734" lon="4.66051">
        <ele>225</ele>
        <time>2016-11-08T10:30:30Z</time>
      </trkpt>
      <trkpt lat="45.86738" lon="4.66048">
        <ele>225</ele>
        <time>2016-11-08T10:30:31Z</time>
      </trkpt>
      <trkpt lat="45.86743" lon="4.66045">
        <ele>224</ele>
        <time>2016-11-08T10:30:32Z</time>
      </trkpt>
      <trkpt lat="45.86747" lon="4.66042">
        <ele>224</ele>
        <time>2016-11-08T10:30:33Z</time>
      </trkpt>
      <trkpt lat="45.86751" lon="4.66038">
        <ele>233</ele>
        <time>2016-11-08T10:30:34Z</time>
      </trkpt>
      <trkpt lat="45.86758" lon="4.66032">
        <ele>232</ele>
        <time>2016-11-08T10:30:36Z</time>
      </trkpt>
      <trkpt lat="45.86762" lon="4.66028">
        <ele>231</ele>
        <time>2016-11-08T10:30:37Z</time>
      </trkpt>
      <trkpt lat="45.86766" lon="4.66024">
        <ele>231</ele>
        <time>2016-11-08T10:30:38Z</time>
      </trkpt>
      <trkpt lat="45.86769" lon="4.6602">
        <ele>230</ele>
        <time>2016-11-08T10:30:39Z</time>
      </trkpt>
      <trkpt lat="45.86773" lon="4.66016">
        <ele>231</ele>
        <time>2016-11-08T10:30:40Z</time>
      </trkpt>
      <trkpt lat="45.86777" lon="4.66011">
        <ele>231</ele>
        <time>2016-11-08T10:30:41Z</time>
      </trkpt>
      <trkpt lat="45.8678" lon="4.66006">
        <ele>231</ele>
        <time>2016-11-08T10:30:42Z</time>
      </trkpt>
      <trkpt lat="45.86784" lon="4.66002">
        <ele>232</ele>
        <time>2016-11-08T10:30:43Z</time>
      </trkpt>
      <trkpt lat="45.86788" lon="4.65996">
        <ele>222</ele>
        <time>2016-11-08T10:30:44Z</time>
      </trkpt>
      <trkpt lat="45.86791" lon="4.65991">
        <ele>223</ele>
        <time>2016-11-08T10:30:45Z</time>
      </trkpt>
      <trkpt lat="45.86795" lon="4.65987">
        <ele>223</ele>
        <time>2016-11-08T10:30:46Z</time>
      </trkpt>
      <trkpt lat="45.86798" lon="4.65982">
        <ele>223</ele>
        <time>2016-11-08T10:30:47Z</time>
      </trkpt>
      <trkpt lat="45.86801" lon="4.65977">
        <ele>223</ele>
        <time>2016-11-08T10:30:48Z</time>
      </trkpt>
      <trkpt lat="45.86804" lon="4.65972">
        <ele>223</ele>
        <time>2016-11-08T10:30:49Z</time>
      </trkpt>
      <trkpt lat="45.86809" lon="4.65962">
        <ele>223</ele>
        <time>2016-11-08T10:30:51Z</time>
      </trkpt>
      <trkpt lat="45.86812" lon="4.65957">
        <ele>223</ele>
        <time>2016-11-08T10:30:52Z</time>
      </trkpt>
      <trkpt lat="45.86815" lon="4.65951">
        <ele>222</ele>
        <time>2016-11-08T10:30:53Z</time>
      </trkpt>
      <trkpt lat="45.86819" lon="4.65945">
        <ele>222</ele>
        <time>2016-11-08T10:30:54Z</time>
      </trkpt>
      <trkpt lat="45.86822" lon="4.6594">
        <ele>222</ele>
        <time>2016-11-08T10:30:55Z</time>
      </trkpt>
      <trkpt lat="45.86825" lon="4.65934">
        <ele>222</ele>
        <time>2016-11-08T10:30:56Z</time>
      </trkpt>
      <trkpt lat="45.86828" lon="4.65928">
        <ele>221</ele>
        <time>2016-11-08T10:30:57Z</time>
      </trkpt>
      <trkpt lat="45.86831" lon="4.65922">
        <ele>221</ele>
        <time>2016-11-08T10:30:58Z</time>
      </trkpt>
      <trkpt lat="45.86834" lon="4.65917">
        <ele>221</ele>
        <time>2016-11-08T10:30:59Z</time>
      </trkpt>
      <trkpt lat="45.86837" lon="4.65911">
        <ele>223</ele>
        <time>2016-11-08T10:31:00Z</time>
      </trkpt>
      <trkpt lat="45.8684" lon="4.65905">
        <ele>224</ele>
        <time>2016-11-08T10:31:01Z</time>
      </trkpt>
      <trkpt lat="45.86843" lon="4.65898">
        <ele>225</ele>
        <time>2016-11-08T10:31:02Z</time>
      </trkpt>
      <trkpt lat="45.86845" lon="4.65892">
        <ele>226</ele>
        <time>2016-11-08T10:31:03Z</time>
      </trkpt>
      <trkpt lat="45.86849" lon="4.65886">
        <ele>226</ele>
        <time>2016-11-08T10:31:04Z</time>
      </trkpt>
      <trkpt lat="45.86851" lon="4.6588">
        <ele>226</ele>
        <time>2016-11-08T10:31:05Z</time>
      </trkpt>
      <trkpt lat="45.86854" lon="4.65874">
        <ele>226</ele>
        <time>2016-11-08T10:31:06Z</time>
      </trkpt>
      <trkpt lat="45.86856" lon="4.65868">
        <ele>226</ele>
        <time>2016-11-08T10:31:07Z</time>
      </trkpt>
      <trkpt lat="45.86859" lon="4.65862">
        <ele>226</ele>
        <time>2016-11-08T10:31:08Z</time>
      </trkpt>
      <trkpt lat="45.86861" lon="4.65856">
        <ele>226</ele>
        <time>2016-11-08T10:31:09Z</time>
      </trkpt>
      <trkpt lat="45.86863" lon="4.6585">
        <ele>225</ele>
        <time>2016-11-08T10:31:10Z</time>
      </trkpt>
      <trkpt lat="45.86865" lon="4.65845">
        <ele>225</ele>
        <time>2016-11-08T10:31:11Z</time>
      </trkpt>
      <trkpt lat="45.86867" lon="4.65839">
        <ele>226</ele>
        <time>2016-11-08T10:31:12Z</time>
      </trkpt>
      <trkpt lat="45.86869" lon="4.65833">
        <ele>221</ele>
        <time>2016-11-08T10:31:13Z</time>
      </trkpt>
      <trkpt lat="45.86871" lon="4.65827">
        <ele>222</ele>
        <time>2016-11-08T10:31:14Z</time>
      </trkpt>
      <trkpt lat="45.86873" lon="4.6582">
        <ele>222</ele>
        <time>2016-11-08T10:31:15Z</time>
      </trkpt>
      <trkpt lat="45.86874" lon="4.65814">
        <ele>222</ele>
        <time>2016-11-08T10:31:16Z</time>
      </trkpt>
      <trkpt lat="45.86876" lon="4.65808">
        <ele>222</ele>
        <time>2016-11-08T10:31:17Z</time>
      </trkpt>
      <trkpt lat="45.86877" lon="4.65801">
        <ele>222</ele>
        <time>2016-11-08T10:31:18Z</time>
      </trkpt>
      <trkpt lat="45.86879" lon="4.65795">
        <ele>222</ele>
        <time>2016-11-08T10:31:19Z</time>
      </trkpt>
      <trkpt lat="45.8688" lon="4.65788">
        <ele>223</ele>
        <time>2016-11-08T10:31:20Z</time>
      </trkpt>
      <trkpt lat="45.86881" lon="4.65781">
        <ele>223</ele>
        <time>2016-11-08T10:31:21Z</time>
      </trkpt>
      <trkpt lat="45.86883" lon="4.65775">
        <ele>223</ele>
        <time>2016-11-08T10:31:22Z</time>
      </trkpt>
      <trkpt lat="45.86884" lon="4.65768">
        <ele>223</ele>
        <time>2016-11-08T10:31:23Z</time>
      </trkpt>
      <trkpt lat="45.86885" lon="4.65761">
        <ele>223</ele>
        <time>2016-11-08T10:31:24Z</time>
      </trkpt>
      <trkpt lat="45.86886" lon="4.65754">
        <ele>223</ele>
        <time>2016-11-08T10:31:25Z</time>
      </trkpt>
      <trkpt lat="45.86887" lon="4.65746">
        <ele>223</ele>
        <time>2016-11-08T10:31:26Z</time>
      </trkpt>
      <trkpt lat="45.86887" lon="4.65738">
        <ele>223</ele>
        <time>2016-11-08T10:31:27Z</time>
      </trkpt>
      <trkpt lat="45.86888" lon="4.6573">
        <ele>223</ele>
        <time>2016-11-08T10:31:28Z</time>
      </trkpt>
      <trkpt lat="45.86888" lon="4.65723">
        <ele>223</ele>
        <time>2016-11-08T10:31:29Z</time>
      </trkpt>
      <trkpt lat="45.86889" lon="4.65715">
        <ele>223</ele>
        <time>2016-11-08T10:31:30Z</time>
      </trkpt>
      <trkpt lat="45.8689" lon="4.65707">
        <ele>223</ele>
        <time>2016-11-08T10:31:31Z</time>
      </trkpt>
      <trkpt lat="45.8689" lon="4.65698">
        <ele>223</ele>
        <time>2016-11-08T10:31:32Z</time>
      </trkpt>
      <trkpt lat="45.86891" lon="4.6569">
        <ele>223</ele>
        <time>2016-11-08T10:31:33Z</time>
      </trkpt>
      <trkpt lat="45.86892" lon="4.65682">
        <ele>224</ele>
        <time>2016-11-08T10:31:34Z</time>
      </trkpt>
      <trkpt lat="45.86893" lon="4.65674">
        <ele>224</ele>
        <time>2016-11-08T10:31:35Z</time>
      </trkpt>
      <trkpt lat="45.86893" lon="4.65667">
        <ele>224</ele>
        <time>2016-11-08T10:31:36Z</time>
      </trkpt>
      <trkpt lat="45.86894" lon="4.65659">
        <ele>224</ele>
        <time>2016-11-08T10:31:37Z</time>
      </trkpt>
      <trkpt lat="45.86895" lon="4.65651">
        <ele>224</ele>
        <time>2016-11-08T10:31:38Z</time>
      </trkpt>
      <trkpt lat="45.86896" lon="4.65643">
        <ele>223</ele>
        <time>2016-11-08T10:31:39Z</time>
      </trkpt>
      <trkpt lat="45.86897" lon="4.65636">
        <ele>223</ele>
        <time>2016-11-08T10:31:40Z</time>
      </trkpt>
      <trkpt lat="45.86898" lon="4.65628">
        <ele>223</ele>
        <time>2016-11-08T10:31:41Z</time>
      </trkpt>
      <trkpt lat="45.869" lon="4.65619">
        <ele>223</ele>
        <time>2016-11-08T10:31:42Z</time>
      </trkpt>
      <trkpt lat="45.86901" lon="4.65611">
        <ele>223</ele>
        <time>2016-11-08T10:31:43Z</time>
      </trkpt>
      <trkpt lat="45.86902" lon="4.65603">
        <ele>223</ele>
        <time>2016-11-08T10:31:44Z</time>
      </trkpt>
      <trkpt lat="45.86904" lon="4.65594">
        <ele>224</ele>
        <time>2016-11-08T10:31:45Z</time>
      </trkpt>
      <trkpt lat="45.86906" lon="4.65585">
        <ele>224</ele>
        <time>2016-11-08T10:31:46Z</time>
      </trkpt>
      <trkpt lat="45.86909" lon="4.65577">
        <ele>223</ele>
        <time>2016-11-08T10:31:47Z</time>
      </trkpt>
      <trkpt lat="45.86911" lon="4.65568">
        <ele>221</ele>
        <time>2016-11-08T10:31:48Z</time>
      </trkpt>
      <trkpt lat="45.86913" lon="4.65559">
        <ele>220</ele>
        <time>2016-11-08T10:31:49Z</time>
      </trkpt>
      <trkpt lat="45.86916" lon="4.65551">
        <ele>220</ele>
        <time>2016-11-08T10:31:50Z</time>
      </trkpt>
      <trkpt lat="45.86919" lon="4.65543">
        <ele>230</ele>
        <time>2016-11-08T10:31:51Z</time>
      </trkpt>
      <trkpt lat="45.86921" lon="4.65536">
        <ele>229</ele>
        <time>2016-11-08T10:31:52Z</time>
      </trkpt>
      <trkpt lat="45.86924" lon="4.65529">
        <ele>228</ele>
        <time>2016-11-08T10:31:53Z</time>
      </trkpt>
      <trkpt lat="45.86927" lon="4.65522">
        <ele>227</ele>
        <time>2016-11-08T10:31:54Z</time>
      </trkpt>
      <trkpt lat="45.8693" lon="4.65515">
        <ele>227</ele>
        <time>2016-11-08T10:31:55Z</time>
      </trkpt>
      <trkpt lat="45.86933" lon="4.65509">
        <ele>226</ele>
        <time>2016-11-08T10:31:56Z</time>
      </trkpt>
      <trkpt lat="45.86937" lon="4.65503">
        <ele>227</ele>
        <time>2016-11-08T10:31:57Z</time>
      </trkpt>
      <trkpt lat="45.86941" lon="4.65496">
        <ele>221</ele>
        <time>2016-11-08T10:31:58Z</time>
      </trkpt>
      <trkpt lat="45.86944" lon="4.6549">
        <ele>222</ele>
        <time>2016-11-08T10:31:59Z</time>
      </trkpt>
      <trkpt lat="45.86948" lon="4.65483">
        <ele>222</ele>
        <time>2016-11-08T10:32:00Z</time>
      </trkpt>
      <trkpt lat="45.86952" lon="4.65477">
        <ele>222</ele>
        <time>2016-11-08T10:32:01Z</time>
      </trkpt>
      <trkpt lat="45.86956" lon="4.65471">
        <ele>223</ele>
        <time>2016-11-08T10:32:02Z</time>
      </trkpt>
      <trkpt lat="45.8696" lon="4.65466">
        <ele>223</ele>
        <time>2016-11-08T10:32:03Z</time>
      </trkpt>
      <trkpt lat="45.86964" lon="4.6546">
        <ele>223</ele>
        <time>2016-11-08T10:32:04Z</time>
      </trkpt>
      <trkpt lat="45.86967" lon="4.65455">
        <ele>222</ele>
        <time>2016-11-08T10:32:05Z</time>
      </trkpt>
      <trkpt lat="45.86971" lon="4.6545">
        <ele>222</ele>
        <time>2016-11-08T10:32:06Z</time>
      </trkpt>
      <trkpt lat="45.86975" lon="4.65445">
        <ele>222</ele>
        <time>2016-11-08T10:32:07Z</time>
      </trkpt>
      <trkpt lat="45.86979" lon="4.6544">
        <ele>222</ele>
        <time>2016-11-08T10:32:08Z</time>
      </trkpt>
      <trkpt lat="45.86983" lon="4.65435">
        <ele>222</ele>
        <time>2016-11-08T10:32:09Z</time>
      </trkpt>
      <trkpt lat="45.86988" lon="4.6543">
        <ele>222</ele>
        <time>2016-11-08T10:32:10Z</time>
      </trkpt>
      <trkpt lat="45.86992" lon="4.65426">
        <ele>222</ele>
        <time>2016-11-08T10:32:11Z</time>
      </trkpt>
      <trkpt lat="45.86996" lon="4.65421">
        <ele>221</ele>
        <time>2016-11-08T10:32:12Z</time>
      </trkpt>
      <trkpt lat="45.87001" lon="4.65416">
        <ele>221</ele>
        <time>2016-11-08T10:32:13Z</time>
      </trkpt>
      <trkpt lat="45.87005" lon="4.65411">
        <ele>222</ele>
        <time>2016-11-08T10:32:14Z</time>
      </trkpt>
      <trkpt lat="45.8701" lon="4.65406">
        <ele>223</ele>
        <time>2016-11-08T10:32:15Z</time>
      </trkpt>
      <trkpt lat="45.87014" lon="4.65401">
        <ele>223</ele>
        <time>2016-11-08T10:32:16Z</time>
      </trkpt>
      <trkpt lat="45.87018" lon="4.65395">
        <ele>223</ele>
        <time>2016-11-08T10:32:17Z</time>
      </trkpt>
      <trkpt lat="45.87022" lon="4.6539">
        <ele>224</ele>
        <time>2016-11-08T10:32:18Z</time>
      </trkpt>
      <trkpt lat="45.87026" lon="4.65384">
        <ele>224</ele>
        <time>2016-11-08T10:32:19Z</time>
      </trkpt>
      <trkpt lat="45.8703" lon="4.65379">
        <ele>224</ele>
        <time>2016-11-08T10:32:20Z</time>
      </trkpt>
      <trkpt lat="45.87034" lon="4.65373">
        <ele>224</ele>
        <time>2016-11-08T10:32:21Z</time>
      </trkpt>
      <trkpt lat="45.87038" lon="4.65367">
        <ele>224</ele>
        <time>2016-11-08T10:32:22Z</time>
      </trkpt>
      <trkpt lat="45.87041" lon="4.65361">
        <ele>223</ele>
        <time>2016-11-08T10:32:23Z</time>
      </trkpt>
      <trkpt lat="45.87045" lon="4.65355">
        <ele>223</ele>
        <time>2016-11-08T10:32:24Z</time>
      </trkpt>
      <trkpt lat="45.87048" lon="4.65349">
        <ele>223</ele>
        <time>2016-11-08T10:32:25Z</time>
      </trkpt>
      <trkpt lat="45.87052" lon="4.65344">
        <ele>223</ele>
        <time>2016-11-08T10:32:26Z</time>
      </trkpt>
      <trkpt lat="45.87056" lon="4.65339">
        <ele>224</ele>
        <time>2016-11-08T10:32:27Z</time>
      </trkpt>
      <trkpt lat="45.8706" lon="4.65332">
        <ele>219</ele>
        <time>2016-11-08T10:32:28Z</time>
      </trkpt>
      <trkpt lat="45.87063" lon="4.65326">
        <ele>219</ele>
        <time>2016-11-08T10:32:29Z</time>
      </trkpt>
      <trkpt lat="45.87066" lon="4.65319">
        <ele>219</ele>
        <time>2016-11-08T10:32:30Z</time>
      </trkpt>
      <trkpt lat="45.87069" lon="4.65313">
        <ele>218</ele>
        <time>2016-11-08T10:32:31Z</time>
      </trkpt>
      <trkpt lat="45.87072" lon="4.65306">
        <ele>218</ele>
        <time>2016-11-08T10:32:32Z</time>
      </trkpt>
      <trkpt lat="45.87075" lon="4.65299">
        <ele>217</ele>
        <time>2016-11-08T10:32:33Z</time>
      </trkpt>
      <trkpt lat="45.87078" lon="4.65292">
        <ele>216</ele>
        <time>2016-11-08T10:32:34Z</time>
      </trkpt>
      <trkpt lat="45.8708" lon="4.65286">
        <ele>216</ele>
        <time>2016-11-08T10:32:35Z</time>
      </trkpt>
      <trkpt lat="45.87083" lon="4.6528">
        <ele>216</ele>
        <time>2016-11-08T10:32:36Z</time>
      </trkpt>
      <trkpt lat="45.87086" lon="4.65274">
        <ele>224</ele>
        <time>2016-11-08T10:32:37Z</time>
      </trkpt>
      <trkpt lat="45.87089" lon="4.65268">
        <ele>223</ele>
        <time>2016-11-08T10:32:38Z</time>
      </trkpt>
      <trkpt lat="45.87092" lon="4.65262">
        <ele>221</ele>
        <time>2016-11-08T10:32:39Z</time>
      </trkpt>
      <trkpt lat="45.87095" lon="4.65256">
        <ele>221</ele>
        <time>2016-11-08T10:32:40Z</time>
      </trkpt>
      <trkpt lat="45.87097" lon="4.6525">
        <ele>217</ele>
        <time>2016-11-08T10:32:41Z</time>
      </trkpt>
      <trkpt lat="45.87101" lon="4.65244">
        <ele>217</ele>
        <time>2016-11-08T10:32:42Z</time>
      </trkpt>
      <trkpt lat="45.87104" lon="4.65239">
        <ele>218</ele>
        <time>2016-11-08T10:32:43Z</time>
      </trkpt>
      <trkpt lat="45.87108" lon="4.65233">
        <ele>219</ele>
        <time>2016-11-08T10:32:44Z</time>
      </trkpt>
      <trkpt lat="45.87112" lon="4.65227">
        <ele>219</ele>
        <time>2016-11-08T10:32:45Z</time>
      </trkpt>
      <trkpt lat="45.87116" lon="4.65222">
        <ele>220</ele>
        <time>2016-11-08T10:32:46Z</time>
      </trkpt>
      <trkpt lat="45.87119" lon="4.65217">
        <ele>220</ele>
        <time>2016-11-08T10:32:47Z</time>
      </trkpt>
      <trkpt lat="45.87123" lon="4.65212">
        <ele>220</ele>
        <time>2016-11-08T10:32:48Z</time>
      </trkpt>
      <trkpt lat="45.87127" lon="4.65208">
        <ele>220</ele>
        <time>2016-11-08T10:32:49Z</time>
      </trkpt>
      <trkpt lat="45.87131" lon="4.65203">
        <ele>220</ele>
        <time>2016-11-08T10:32:50Z</time>
      </trkpt>
      <trkpt lat="45.87135" lon="4.65199">
        <ele>221</ele>
        <time>2016-11-08T10:32:51Z</time>
      </trkpt>
      <trkpt lat="45.87139" lon="4.65194">
        <ele>221</ele>
        <time>2016-11-08T10:32:52Z</time>
      </trkpt>
      <trkpt lat="45.87143" lon="4.65189">
        <ele>221</ele>
        <time>2016-11-08T10:32:53Z</time>
      </trkpt>
      <trkpt lat="45.87147" lon="4.65185">
        <ele>220</ele>
        <time>2016-11-08T10:32:54Z</time>
      </trkpt>
      <trkpt lat="45.87151" lon="4.65181">
        <ele>220</ele>
        <time>2016-11-08T10:32:55Z</time>
      </trkpt>
      <trkpt lat="45.87155" lon="4.65177">
        <ele>220</ele>
        <time>2016-11-08T10:32:56Z</time>
      </trkpt>
      <trkpt lat="45.8716" lon="4.65173">
        <ele>220</ele>
        <time>2016-11-08T10:32:57Z</time>
      </trkpt>
      <trkpt lat="45.87163" lon="4.6517">
        <ele>220</ele>
        <time>2016-11-08T10:32:58Z</time>
      </trkpt>
      <trkpt lat="45.8717" lon="4.65164">
        <ele>220</ele>
        <time>2016-11-08T10:33:00Z</time>
      </trkpt>
      <trkpt lat="45.87174" lon="4.6516">
        <ele>221</ele>
        <time>2016-11-08T10:33:01Z</time>
      </trkpt>
      <trkpt lat="45.87181" lon="4.65153">
        <ele>221</ele>
        <time>2016-11-08T10:33:03Z</time>
      </trkpt>
      <trkpt lat="45.87185" lon="4.65149">
        <ele>222</ele>
        <time>2016-11-08T10:33:04Z</time>
      </trkpt>
      <trkpt lat="45.87189" lon="4.65144">
        <ele>222</ele>
        <time>2016-11-08T10:33:05Z</time>
      </trkpt>
      <trkpt lat="45.87193" lon="4.6514">
        <ele>222</ele>
        <time>2016-11-08T10:33:06Z</time>
      </trkpt>
      <trkpt lat="45.87196" lon="4.65136">
        <ele>222</ele>
        <time>2016-11-08T10:33:07Z</time>
      </trkpt>
      <trkpt lat="45.872" lon="4.65132">
        <ele>222</ele>
        <time>2016-11-08T10:33:08Z</time>
      </trkpt>
      <trkpt lat="45.87204" lon="4.65129">
        <ele>222</ele>
        <time>2016-11-08T10:33:09Z</time>
      </trkpt>
      <trkpt lat="45.87208" lon="4.65126">
        <ele>222</ele>
        <time>2016-11-08T10:33:10Z</time>
      </trkpt>
      <trkpt lat="45.87212" lon="4.65122">
        <ele>222</ele>
        <time>2016-11-08T10:33:11Z</time>
      </trkpt>
      <trkpt lat="45.87216" lon="4.65119">
        <ele>222</ele>
        <time>2016-11-08T10:33:12Z</time>
      </trkpt>
      <trkpt lat="45.8722" lon="4.65115">
        <ele>222</ele>
        <time>2016-11-08T10:33:13Z</time>
      </trkpt>
      <trkpt lat="45.87223" lon="4.65111">
        <ele>222</ele>
        <time>2016-11-08T10:33:14Z</time>
      </trkpt>
      <trkpt lat="45.87231" lon="4.65105">
        <ele>221</ele>
        <time>2016-11-08T10:33:16Z</time>
      </trkpt>
      <trkpt lat="45.87234" lon="4.65101">
        <ele>221</ele>
        <time>2016-11-08T10:33:17Z</time>
      </trkpt>
      <trkpt lat="45.87239" lon="4.65099">
        <ele>221</ele>
        <time>2016-11-08T10:33:18Z</time>
      </trkpt>
      <trkpt lat="45.87242" lon="4.65094">
        <ele>220</ele>
        <time>2016-11-08T10:33:19Z</time>
      </trkpt>
      <trkpt lat="45.87248" lon="4.65086">
        <ele>219</ele>
        <time>2016-11-08T10:33:21Z</time>
      </trkpt>
      <trkpt lat="45.87252" lon="4.65082">
        <ele>218</ele>
        <time>2016-11-08T10:33:22Z</time>
      </trkpt>
      <trkpt lat="45.87255" lon="4.65078">
        <ele>219</ele>
        <time>2016-11-08T10:33:23Z</time>
      </trkpt>
      <trkpt lat="45.87259" lon="4.65075">
        <ele>219</ele>
        <time>2016-11-08T10:33:24Z</time>
      </trkpt>
      <trkpt lat="45.87263" lon="4.65071">
        <ele>219</ele>
        <time>2016-11-08T10:33:25Z</time>
      </trkpt>
      <trkpt lat="45.87267" lon="4.65067">
        <ele>219</ele>
        <time>2016-11-08T10:33:26Z</time>
      </trkpt>
      <trkpt lat="45.8727" lon="4.65063">
        <ele>219</ele>
        <time>2016-11-08T10:33:27Z</time>
      </trkpt>
      <trkpt lat="45.87274" lon="4.65059">
        <ele>219</ele>
        <time>2016-11-08T10:33:28Z</time>
      </trkpt>
      <trkpt lat="45.87278" lon="4.65055">
        <ele>220</ele>
        <time>2016-11-08T10:33:29Z</time>
      </trkpt>
      <trkpt lat="45.87282" lon="4.6505">
        <ele>220</ele>
        <time>2016-11-08T10:33:30Z</time>
      </trkpt>
      <trkpt lat="45.87286" lon="4.65045">
        <ele>220</ele>
        <time>2016-11-08T10:33:31Z</time>
      </trkpt>
      <trkpt lat="45.87289" lon="4.6504">
        <ele>220</ele>
        <time>2016-11-08T10:33:32Z</time>
      </trkpt>
      <trkpt lat="45.87293" lon="4.65034">
        <ele>219</ele>
        <time>2016-11-08T10:33:33Z</time>
      </trkpt>
      <trkpt lat="45.87297" lon="4.65029">
        <ele>219</ele>
        <time>2016-11-08T10:33:34Z</time>
      </trkpt>
      <trkpt lat="45.873" lon="4.65023">
        <ele>219</ele>
        <time>2016-11-08T10:33:35Z</time>
      </trkpt>
      <trkpt lat="45.87303" lon="4.65018">
        <ele>219</ele>
        <time>2016-11-08T10:33:36Z</time>
      </trkpt>
      <trkpt lat="45.87307" lon="4.65012">
        <ele>219</ele>
        <time>2016-11-08T10:33:37Z</time>
      </trkpt>
      <trkpt lat="45.8731" lon="4.65007">
        <ele>219</ele>
        <time>2016-11-08T10:33:38Z</time>
      </trkpt>
      <trkpt lat="45.87313" lon="4.65001">
        <ele>219</ele>
        <time>2016-11-08T10:33:39Z</time>
      </trkpt>
      <trkpt lat="45.87315" lon="4.64996">
        <ele>215</ele>
        <time>2016-11-08T10:33:40Z</time>
      </trkpt>
      <trkpt lat="45.87321" lon="4.64987">
        <ele>215</ele>
        <time>2016-11-08T10:33:42Z</time>
      </trkpt>
      <trkpt lat="45.87324" lon="4.64982">
        <ele>215</ele>
        <time>2016-11-08T10:33:43Z</time>
      </trkpt>
      <trkpt lat="45.87327" lon="4.64977">
        <ele>215</ele>
        <time>2016-11-08T10:33:44Z</time>
      </trkpt>
      <trkpt lat="45.8733" lon="4.64971">
        <ele>214</ele>
        <time>2016-11-08T10:33:45Z</time>
      </trkpt>
      <trkpt lat="45.87332" lon="4.64965">
        <ele>214</ele>
        <time>2016-11-08T10:33:46Z</time>
      </trkpt>
      <trkpt lat="45.87335" lon="4.64959">
        <ele>218</ele>
        <time>2016-11-08T10:33:47Z</time>
      </trkpt>
      <trkpt lat="45.87338" lon="4.64953">
        <ele>218</ele>
        <time>2016-11-08T10:33:48Z</time>
      </trkpt>
      <trkpt lat="45.87341" lon="4.64947">
        <ele>217</ele>
        <time>2016-11-08T10:33:49Z</time>
      </trkpt>
      <trkpt lat="45.87344" lon="4.64941">
        <ele>217</ele>
        <time>2016-11-08T10:33:50Z</time>
      </trkpt>
      <trkpt lat="45.87347" lon="4.64936">
        <ele>217</ele>
        <time>2016-11-08T10:33:51Z</time>
      </trkpt>
      <trkpt lat="45.87351" lon="4.64931">
        <ele>217</ele>
        <time>2016-11-08T10:33:52Z</time>
      </trkpt>
      <trkpt lat="45.87354" lon="4.64925">
        <ele>217</ele>
        <time>2016-11-08T10:33:53Z</time>
      </trkpt>
      <trkpt lat="45.87357" lon="4.6492">
        <ele>217</ele>
        <time>2016-11-08T10:33:54Z</time>
      </trkpt>
      <trkpt lat="45.87361" lon="4.64915">
        <ele>214</ele>
        <time>2016-11-08T10:33:55Z</time>
      </trkpt>
      <trkpt lat="45.87365" lon="4.6491">
        <ele>214</ele>
        <time>2016-11-08T10:33:56Z</time>
      </trkpt>
      <trkpt lat="45.87369" lon="4.64906">
        <ele>215</ele>
        <time>2016-11-08T10:33:57Z</time>
      </trkpt>
      <trkpt lat="45.87374" lon="4.64901">
        <ele>215</ele>
        <time>2016-11-08T10:33:58Z</time>
      </trkpt>
      <trkpt lat="45.87378" lon="4.64896">
        <ele>215</ele>
        <time>2016-11-08T10:33:59Z</time>
      </trkpt>
      <trkpt lat="45.87381" lon="4.64891">
        <ele>215</ele>
        <time>2016-11-08T10:34:00Z</time>
      </trkpt>
      <trkpt lat="45.87385" lon="4.64886">
        <ele>215</ele>
        <time>2016-11-08T10:34:01Z</time>
      </trkpt>
      <trkpt lat="45.87389" lon="4.64882">
        <ele>215</ele>
        <time>2016-11-08T10:34:02Z</time>
      </trkpt>
      <trkpt lat="45.87393" lon="4.64877">
        <ele>215</ele>
        <time>2016-11-08T10:34:03Z</time>
      </trkpt>
      <trkpt lat="45.87397" lon="4.64872">
        <ele>215</ele>
        <time>2016-11-08T10:34:04Z</time>
      </trkpt>
      <trkpt lat="45.87401" lon="4.64867">
        <ele>215</ele>
        <time>2016-11-08T10:34:05Z</time>
      </trkpt>
      <trkpt lat="45.87405" lon="4.64862">
        <ele>215</ele>
        <time>2016-11-08T10:34:06Z</time>
      </trkpt>
      <trkpt lat="45.87409" lon="4.64857">
        <ele>215</ele>
        <time>2016-11-08T10:34:07Z</time>
      </trkpt>
      <trkpt lat="45.87414" lon="4.64852">
        <ele>215</ele>
        <time>2016-11-08T10:34:08Z</time>
      </trkpt>
      <trkpt lat="45.87418" lon="4.64848">
        <ele>218</ele>
        <time>2016-11-08T10:34:09Z</time>
      </trkpt>
      <trkpt lat="45.87421" lon="4.64842">
        <ele>217</ele>
        <time>2016-11-08T10:34:10Z</time>
      </trkpt>
      <trkpt lat="45.87425" lon="4.64837">
        <ele>217</ele>
        <time>2016-11-08T10:34:11Z</time>
      </trkpt>
      <trkpt lat="45.87429" lon="4.64833">
        <ele>215</ele>
        <time>2016-11-08T10:34:12Z</time>
      </trkpt>
      <trkpt lat="45.87432" lon="4.64827">
        <ele>215</ele>
        <time>2016-11-08T10:34:13Z</time>
      </trkpt>
      <trkpt lat="45.87436" lon="4.64822">
        <ele>215</ele>
        <time>2016-11-08T10:34:14Z</time>
      </trkpt>
      <trkpt lat="45.8744" lon="4.64817">
        <ele>215</ele>
        <time>2016-11-08T10:34:15Z</time>
      </trkpt>
      <trkpt lat="45.87444" lon="4.64813">
        <ele>215</ele>
        <time>2016-11-08T10:34:16Z</time>
      </trkpt>
      <trkpt lat="45.87447" lon="4.64809">
        <ele>215</ele>
        <time>2016-11-08T10:34:17Z</time>
      </trkpt>
      <trkpt lat="45.87451" lon="4.64805">
        <ele>214</ele>
        <time>2016-11-08T10:34:18Z</time>
      </trkpt>
      <trkpt lat="45.87455" lon="4.64801">
        <ele>214</ele>
        <time>2016-11-08T10:34:19Z</time>
      </trkpt>
      <trkpt lat="45.87459" lon="4.64796">
        <ele>214</ele>
        <time>2016-11-08T10:34:20Z</time>
      </trkpt>
      <trkpt lat="45.87462" lon="4.64792">
        <ele>214</ele>
        <time>2016-11-08T10:34:21Z</time>
      </trkpt>
      <trkpt lat="45.87469" lon="4.64783">
        <ele>214</ele>
        <time>2016-11-08T10:34:23Z</time>
      </trkpt>
      <trkpt lat="45.87472" lon="4.64778">
        <ele>214</ele>
        <time>2016-11-08T10:34:24Z</time>
      </trkpt>
      <trkpt lat="45.87476" lon="4.64773">
        <ele>214</ele>
        <time>2016-11-08T10:34:25Z</time>
      </trkpt>
      <trkpt lat="45.87479" lon="4.64768">
        <ele>214</ele>
        <time>2016-11-08T10:34:26Z</time>
      </trkpt>
      <trkpt lat="45.87483" lon="4.64764">
        <ele>214</ele>
        <time>2016-11-08T10:34:27Z</time>
      </trkpt>
      <trkpt lat="45.87486" lon="4.64759">
        <ele>214</ele>
        <time>2016-11-08T10:34:28Z</time>
      </trkpt>
      <trkpt lat="45.87489" lon="4.64754">
        <ele>213</ele>
        <time>2016-11-08T10:34:29Z</time>
      </trkpt>
      <trkpt lat="45.87493" lon="4.6475">
        <ele>213</ele>
        <time>2016-11-08T10:34:30Z</time>
      </trkpt>
      <trkpt lat="45.87497" lon="4.64745">
        <ele>213</ele>
        <time>2016-11-08T10:34:31Z</time>
      </trkpt>
      <trkpt lat="45.875" lon="4.6474">
        <ele>213</ele>
        <time>2016-11-08T10:34:32Z</time>
      </trkpt>
      <trkpt lat="45.87504" lon="4.64734">
        <ele>213</ele>
        <time>2016-11-08T10:34:33Z</time>
      </trkpt>
      <trkpt lat="45.87507" lon="4.6473">
        <ele>213</ele>
        <time>2016-11-08T10:34:34Z</time>
      </trkpt>
      <trkpt lat="45.87513" lon="4.64721">
        <ele>213</ele>
        <time>2016-11-08T10:34:36Z</time>
      </trkpt>
      <trkpt lat="45.87517" lon="4.64716">
        <ele>212</ele>
        <time>2016-11-08T10:34:37Z</time>
      </trkpt>
      <trkpt lat="45.8752" lon="4.64711">
        <ele>212</ele>
        <time>2016-11-08T10:34:38Z</time>
      </trkpt>
      <trkpt lat="45.87524" lon="4.64706">
        <ele>212</ele>
        <time>2016-11-08T10:34:39Z</time>
      </trkpt>
      <trkpt lat="45.87528" lon="4.64701">
        <ele>212</ele>
        <time>2016-11-08T10:34:40Z</time>
      </trkpt>
      <trkpt lat="45.87531" lon="4.64696">
        <ele>212</ele>
        <time>2016-11-08T10:34:41Z</time>
      </trkpt>
      <trkpt lat="45.87534" lon="4.64691">
        <ele>212</ele>
        <time>2016-11-08T10:34:42Z</time>
      </trkpt>
      <trkpt lat="45.87538" lon="4.64686">
        <ele>212</ele>
        <time>2016-11-08T10:34:43Z</time>
      </trkpt>
      <trkpt lat="45.87542" lon="4.64682">
        <ele>212</ele>
        <time>2016-11-08T10:34:44Z</time>
      </trkpt>
      <trkpt lat="45.87545" lon="4.64677">
        <ele>212</ele>
        <time>2016-11-08T10:34:45Z</time>
      </trkpt>
      <trkpt lat="45.87549" lon="4.64671">
        <ele>212</ele>
        <time>2016-11-08T10:34:46Z</time>
      </trkpt>
      <trkpt lat="45.87553" lon="4.64667">
        <ele>212</ele>
        <time>2016-11-08T10:34:47Z</time>
      </trkpt>
      <trkpt lat="45.87556" lon="4.64662">
        <ele>212</ele>
        <time>2016-11-08T10:34:48Z</time>
      </trkpt>
      <trkpt lat="45.8756" lon="4.64657">
        <ele>212</ele>
        <time>2016-11-08T10:34:49Z</time>
      </trkpt>
      <trkpt lat="45.87563" lon="4.64653">
        <ele>212</ele>
        <time>2016-11-08T10:34:50Z</time>
      </trkpt>
      <trkpt lat="45.87566" lon="4.64648">
        <ele>212</ele>
        <time>2016-11-08T10:34:51Z</time>
      </trkpt>
      <trkpt lat="45.8757" lon="4.64643">
        <ele>212</ele>
        <time>2016-11-08T10:34:52Z</time>
      </trkpt>
      <trkpt lat="45.87574" lon="4.64639">
        <ele>212</ele>
        <time>2016-11-08T10:34:53Z</time>
      </trkpt>
      <trkpt lat="45.87577" lon="4.64635">
        <ele>212</ele>
        <time>2016-11-08T10:34:54Z</time>
      </trkpt>
      <trkpt lat="45.87581" lon="4.6463">
        <ele>212</ele>
        <time>2016-11-08T10:34:55Z</time>
      </trkpt>
      <trkpt lat="45.87584" lon="4.64626">
        <ele>212</ele>
        <time>2016-11-08T10:34:56Z</time>
      </trkpt>
      <trkpt lat="45.87588" lon="4.64621">
        <ele>212</ele>
        <time>2016-11-08T10:34:57Z</time>
      </trkpt>
      <trkpt lat="45.87591" lon="4.64617">
        <ele>212</ele>
        <time>2016-11-08T10:34:58Z</time>
      </trkpt>
      <trkpt lat="45.87594" lon="4.64612">
        <ele>212</ele>
        <time>2016-11-08T10:34:59Z</time>
      </trkpt>
      <trkpt lat="45.87598" lon="4.64608">
        <ele>212</ele>
        <time>2016-11-08T10:35:00Z</time>
      </trkpt>
      <trkpt lat="45.87601" lon="4.64603">
        <ele>212</ele>
        <time>2016-11-08T10:35:01Z</time>
      </trkpt>
      <trkpt lat="45.87604" lon="4.64599">
        <ele>212</ele>
        <time>2016-11-08T10:35:02Z</time>
      </trkpt>
      <trkpt lat="45.87608" lon="4.64595">
        <ele>212</ele>
        <time>2016-11-08T10:35:03Z</time>
      </trkpt>
      <trkpt lat="45.87612" lon="4.64591">
        <ele>212</ele>
        <time>2016-11-08T10:35:04Z</time>
      </trkpt>
      <trkpt lat="45.87616" lon="4.64587">
        <ele>212</ele>
        <time>2016-11-08T10:35:05Z</time>
      </trkpt>
      <trkpt lat="45.87619" lon="4.64582">
        <ele>212</ele>
        <time>2016-11-08T10:35:06Z</time>
      </trkpt>
      <trkpt lat="45.87623" lon="4.64578">
        <ele>212</ele>
        <time>2016-11-08T10:35:07Z</time>
      </trkpt>
      <trkpt lat="45.87626" lon="4.64573">
        <ele>212</ele>
        <time>2016-11-08T10:35:08Z</time>
      </trkpt>
      <trkpt lat="45.8763" lon="4.64569">
        <ele>212</ele>
        <time>2016-11-08T10:35:09Z</time>
      </trkpt>
      <trkpt lat="45.87633" lon="4.64564">
        <ele>212</ele>
        <time>2016-11-08T10:35:10Z</time>
      </trkpt>
      <trkpt lat="45.87636" lon="4.64559">
        <ele>212</ele>
        <time>2016-11-08T10:35:11Z</time>
      </trkpt>
      <trkpt lat="45.8764" lon="4.64554">
        <ele>212</ele>
        <time>2016-11-08T10:35:12Z</time>
      </trkpt>
      <trkpt lat="45.87644" lon="4.64549">
        <ele>212</ele>
        <time>2016-11-08T10:35:13Z</time>
      </trkpt>
      <trkpt lat="45.87647" lon="4.64544">
        <ele>213</ele>
        <time>2016-11-08T10:35:14Z</time>
      </trkpt>
      <trkpt lat="45.87651" lon="4.6454">
        <ele>213</ele>
        <time>2016-11-08T10:35:15Z</time>
      </trkpt>
      <trkpt lat="45.87655" lon="4.64535">
        <ele>213</ele>
        <time>2016-11-08T10:35:16Z</time>
      </trkpt>
      <trkpt lat="45.87658" lon="4.6453">
        <ele>213</ele>
        <time>2016-11-08T10:35:17Z</time>
      </trkpt>
      <trkpt lat="45.87661" lon="4.64525">
        <ele>213</ele>
        <time>2016-11-08T10:35:18Z</time>
      </trkpt>
      <trkpt lat="45.87664" lon="4.6452">
        <ele>213</ele>
        <time>2016-11-08T10:35:19Z</time>
      </trkpt>
      <trkpt lat="45.8767" lon="4.64511">
        <ele>215</ele>
        <time>2016-11-08T10:35:21Z</time>
      </trkpt>
      <trkpt lat="45.87673" lon="4.64507">
        <ele>214</ele>
        <time>2016-11-08T10:35:22Z</time>
      </trkpt>
      <trkpt lat="45.87679" lon="4.64499">
        <ele>214</ele>
        <time>2016-11-08T10:35:24Z</time>
      </trkpt>
      <trkpt lat="45.87681" lon="4.64497">
        <ele>214</ele>
        <time>2016-11-08T10:35:25Z</time>
      </trkpt>
      <trkpt lat="45.87688" lon="4.64503">
        <ele>215</ele>
        <time>2016-11-08T10:35:27Z</time>
      </trkpt>
      <trkpt lat="45.8769" lon="4.64507">
        <ele>215</ele>
        <time>2016-11-08T10:35:28Z</time>
      </trkpt>
      <trkpt lat="45.87696" lon="4.64516">
        <ele>215</ele>
        <time>2016-11-08T10:35:30Z</time>
      </trkpt>
      <trkpt lat="45.87699" lon="4.64521">
        <ele>215</ele>
        <time>2016-11-08T10:35:31Z</time>
      </trkpt>
      <trkpt lat="45.87705" lon="4.6453">
        <ele>216</ele>
        <time>2016-11-08T10:35:33Z</time>
      </trkpt>
      <trkpt lat="45.87708" lon="4.64534">
        <ele>216</ele>
        <time>2016-11-08T10:35:34Z</time>
      </trkpt>
      <trkpt lat="45.87715" lon="4.64542">
        <ele>216</ele>
        <time>2016-11-08T10:35:36Z</time>
      </trkpt>
      <trkpt lat="45.87718" lon="4.64546">
        <ele>216</ele>
        <time>2016-11-08T10:35:37Z</time>
      </trkpt>
      <trkpt lat="45.87723" lon="4.64556">
        <ele>216</ele>
        <time>2016-11-08T10:35:39Z</time>
      </trkpt>
      <trkpt lat="45.87723" lon="4.64562">
        <ele>217</ele>
        <time>2016-11-08T10:35:40Z</time>
      </trkpt>
      <trkpt lat="45.87724" lon="4.64573">
        <ele>217</ele>
        <time>2016-11-08T10:35:42Z</time>
      </trkpt>
      <trkpt lat="45.87724" lon="4.6458">
        <ele>217</ele>
        <time>2016-11-08T10:35:43Z</time>
      </trkpt>
      <trkpt lat="45.87724" lon="4.64586">
        <ele>217</ele>
        <time>2016-11-08T10:35:44Z</time>
      </trkpt>
      <trkpt lat="45.87724" lon="4.64593">
        <ele>217</ele>
        <time>2016-11-08T10:35:45Z</time>
      </trkpt>
      <trkpt lat="45.87726" lon="4.64605">
        <ele>217</ele>
        <time>2016-11-08T10:35:47Z</time>
      </trkpt>
      <trkpt lat="45.87728" lon="4.64611">
        <ele>217</ele>
        <time>2016-11-08T10:35:48Z</time>
      </trkpt>
      <trkpt lat="45.87731" lon="4.64617">
        <ele>217</ele>
        <time>2016-11-08T10:35:49Z</time>
      </trkpt>
      <trkpt lat="45.87732" lon="4.64625">
        <ele>217</ele>
        <time>2016-11-08T10:35:50Z</time>
      </trkpt>
      <trkpt lat="45.87734" lon="4.64636">
        <ele>217</ele>
        <time>2016-11-08T10:35:52Z</time>
      </trkpt>
      <trkpt lat="45.87733" lon="4.64643">
        <ele>217</ele>
        <time>2016-11-08T10:35:53Z</time>
      </trkpt>
      <trkpt lat="45.87732" lon="4.64649">
        <ele>217</ele>
        <time>2016-11-08T10:35:54Z</time>
      </trkpt>
      <trkpt lat="45.8773" lon="4.64656">
        <ele>217</ele>
        <time>2016-11-08T10:35:55Z</time>
      </trkpt>
      <trkpt lat="45.87728" lon="4.64668">
        <ele>216</ele>
        <time>2016-11-08T10:35:57Z</time>
      </trkpt>
      <trkpt lat="45.87726" lon="4.64674">
        <ele>216</ele>
        <time>2016-11-08T10:35:58Z</time>
      </trkpt>
      <trkpt lat="45.87725" lon="4.6468">
        <ele>216</ele>
        <time>2016-11-08T10:35:59Z</time>
      </trkpt>
      <trkpt lat="45.87725" lon="4.64687">
        <ele>216</ele>
        <time>2016-11-08T10:36:00Z</time>
      </trkpt>
      <trkpt lat="45.87724" lon="4.64693">
        <ele>216</ele>
        <time>2016-11-08T10:36:01Z</time>
      </trkpt>
      <trkpt lat="45.87723" lon="4.647">
        <ele>215</ele>
        <time>2016-11-08T10:36:02Z</time>
      </trkpt>
      <trkpt lat="45.87724" lon="4.64706">
        <ele>215</ele>
        <time>2016-11-08T10:36:03Z</time>
      </trkpt>
      <trkpt lat="45.87723" lon="4.64713">
        <ele>215</ele>
        <time>2016-11-08T10:36:04Z</time>
      </trkpt>
      <trkpt lat="45.87724" lon="4.64719">
        <ele>215</ele>
        <time>2016-11-08T10:36:05Z</time>
      </trkpt>
      <trkpt lat="45.87726" lon="4.64725">
        <ele>215</ele>
        <time>2016-11-08T10:36:06Z</time>
      </trkpt>
      <trkpt lat="45.8773" lon="4.64731">
        <ele>214</ele>
        <time>2016-11-08T10:36:07Z</time>
      </trkpt>
      <trkpt lat="45.87732" lon="4.64737">
        <ele>214</ele>
        <time>2016-11-08T10:36:08Z</time>
      </trkpt>
      <trkpt lat="45.87735" lon="4.64743">
        <ele>214</ele>
        <time>2016-11-08T10:36:09Z</time>
      </trkpt>
      <trkpt lat="45.87737" lon="4.64748">
        <ele>214</ele>
        <time>2016-11-08T10:36:10Z</time>
      </trkpt>
      <trkpt lat="45.87743" lon="4.64754">
        <ele>213</ele>
        <time>2016-11-08T10:36:11Z</time>
      </trkpt>
      <trkpt lat="45.87743" lon="4.64761">
        <ele>213</ele>
        <time>2016-11-08T10:36:12Z</time>
      </trkpt>
      <trkpt lat="45.87744" lon="4.64767">
        <ele>213</ele>
        <time>2016-11-08T10:36:13Z</time>
      </trkpt>
      <trkpt lat="45.87745" lon="4.64773">
        <ele>213</ele>
        <time>2016-11-08T10:36:14Z</time>
      </trkpt>
      <trkpt lat="45.87749" lon="4.64785">
        <ele>213</ele>
        <time>2016-11-08T10:36:16Z</time>
      </trkpt>
      <trkpt lat="45.8775" lon="4.6479">
        <ele>214</ele>
        <time>2016-11-08T10:36:17Z</time>
      </trkpt>
      <trkpt lat="45.87754" lon="4.648">
        <ele>214</ele>
        <time>2016-11-08T10:36:19Z</time>
      </trkpt>
      <trkpt lat="45.87757" lon="4.64804">
        <ele>214</ele>
        <time>2016-11-08T10:36:20Z</time>
      </trkpt>
      <trkpt lat="45.87762" lon="4.64812">
        <ele>214</ele>
        <time>2016-11-08T10:36:22Z</time>
      </trkpt>
      <trkpt lat="45.87764" lon="4.64816">
        <ele>214</ele>
        <time>2016-11-08T10:36:23Z</time>
      </trkpt>
      <trkpt lat="45.87768" lon="4.64824">
        <ele>214</ele>
        <time>2016-11-08T10:36:25Z</time>
      </trkpt>
      <trkpt lat="45.8777" lon="4.64827">
        <ele>214</ele>
        <time>2016-11-08T10:36:26Z</time>
      </trkpt>
      <trkpt lat="45.87775" lon="4.64837">
        <ele>217</ele>
        <time>2016-11-08T10:36:29Z</time>
      </trkpt>
      <trkpt lat="45.87777" lon="4.64841">
        <ele>217</ele>
        <time>2016-11-08T10:36:30Z</time>
      </trkpt>
      <trkpt lat="45.87781" lon="4.6485">
        <ele>217</ele>
        <time>2016-11-08T10:36:33Z</time>
      </trkpt>
      <trkpt lat="45.87784" lon="4.64853">
        <ele>218</ele>
        <time>2016-11-08T10:36:34Z</time>
      </trkpt>
      <trkpt lat="45.87788" lon="4.64863">
        <ele>218</ele>
        <time>2016-11-08T10:36:37Z</time>
      </trkpt>
      <trkpt lat="45.8779" lon="4.64867">
        <ele>218</ele>
        <time>2016-11-08T10:36:38Z</time>
      </trkpt>
      <trkpt lat="45.87795" lon="4.64877">
        <ele>219</ele>
        <time>2016-11-08T10:36:41Z</time>
      </trkpt>
      <trkpt lat="45.87796" lon="4.6488">
        <ele>219</ele>
        <time>2016-11-08T10:36:42Z</time>
      </trkpt>
      <trkpt lat="45.878" lon="4.6489">
        <ele>219</ele>
        <time>2016-11-08T10:36:45Z</time>
      </trkpt>
      <trkpt lat="45.87801" lon="4.64893">
        <ele>219</ele>
        <time>2016-11-08T10:36:46Z</time>
      </trkpt>
      <trkpt lat="45.87805" lon="4.64902">
        <ele>220</ele>
        <time>2016-11-08T10:36:49Z</time>
      </trkpt>
      <trkpt lat="45.87806" lon="4.64905">
        <ele>220</ele>
        <time>2016-11-08T10:36:50Z</time>
      </trkpt>
      <trkpt lat="45.8781" lon="4.64913">
        <ele>220</ele>
        <time>2016-11-08T10:36:53Z</time>
      </trkpt>
      <trkpt lat="45.87811" lon="4.64916">
        <ele>220</ele>
        <time>2016-11-08T10:36:54Z</time>
      </trkpt>
      <trkpt lat="45.87814" lon="4.64925">
        <ele>224</ele>
        <time>2016-11-08T10:36:57Z</time>
      </trkpt>
      <trkpt lat="45.87815" lon="4.64928">
        <ele>224</ele>
        <time>2016-11-08T10:36:58Z</time>
      </trkpt>
      <trkpt lat="45.8782" lon="4.64937">
        <ele>225</ele>
        <time>2016-11-08T10:37:02Z</time>
      </trkpt>
      <trkpt lat="45.87822" lon="4.64939">
        <ele>225</ele>
        <time>2016-11-08T10:37:03Z</time>
      </trkpt>
      <trkpt lat="45.87828" lon="4.64947">
        <ele>225</ele>
        <time>2016-11-08T10:37:07Z</time>
      </trkpt>
      <trkpt lat="45.8783" lon="4.6495">
        <ele>225</ele>
        <time>2016-11-08T10:37:08Z</time>
      </trkpt>
      <trkpt lat="45.87836" lon="4.64955">
        <ele>228</ele>
        <time>2016-11-08T10:37:12Z</time>
      </trkpt>
      <trkpt lat="45.87838" lon="4.64957">
        <ele>228</ele>
        <time>2016-11-08T10:37:13Z</time>
      </trkpt>
      <trkpt lat="45.87844" lon="4.64965">
        <ele>228</ele>
        <time>2016-11-08T10:37:17Z</time>
      </trkpt>
      <trkpt lat="45.87846" lon="4.64967">
        <ele>229</ele>
        <time>2016-11-08T10:37:18Z</time>
      </trkpt>
      <trkpt lat="45.87853" lon="4.64972">
        <ele>229</ele>
        <time>2016-11-08T10:37:21Z</time>
      </trkpt>
      <trkpt lat="45.87856" lon="4.64973">
        <ele>229</ele>
        <time>2016-11-08T10:37:22Z</time>
      </trkpt>
      <trkpt lat="45.87864" lon="4.64977">
        <ele>230</ele>
        <time>2016-11-08T10:37:26Z</time>
      </trkpt>
      <trkpt lat="45.87866" lon="4.64978">
        <ele>230</ele>
        <time>2016-11-08T10:37:27Z</time>
      </trkpt>
      <trkpt lat="45.87874" lon="4.64981">
        <ele>230</ele>
        <time>2016-11-08T10:37:31Z</time>
      </trkpt>
      <trkpt lat="45.87875" lon="4.64982">
        <ele>230</ele>
        <time>2016-11-08T10:37:32Z</time>
      </trkpt>
      <trkpt lat="45.87883" lon="4.64985">
        <ele>231</ele>
        <time>2016-11-08T10:37:36Z</time>
      </trkpt>
      <trkpt lat="45.87885" lon="4.64985">
        <ele>231</ele>
        <time>2016-11-08T10:37:37Z</time>
      </trkpt>
      <trkpt lat="45.87893" lon="4.64987">
        <ele>232</ele>
        <time>2016-11-08T10:37:41Z</time>
      </trkpt>
      <trkpt lat="45.87895" lon="4.64988">
        <ele>232</ele>
        <time>2016-11-08T10:37:42Z</time>
      </trkpt>
      <trkpt lat="45.87902" lon="4.64989">
        <ele>233</ele>
        <time>2016-11-08T10:37:46Z</time>
      </trkpt>
      <trkpt lat="45.87904" lon="4.6499">
        <ele>233</ele>
        <time>2016-11-08T10:37:47Z</time>
      </trkpt>
      <trkpt lat="45.87913" lon="4.64991">
        <ele>234</ele>
        <time>2016-11-08T10:37:51Z</time>
      </trkpt>
      <trkpt lat="45.87915" lon="4.64991">
        <ele>234</ele>
        <time>2016-11-08T10:37:52Z</time>
      </trkpt>
      <trkpt lat="45.87924" lon="4.64988">
        <ele>237</ele>
        <time>2016-11-08T10:37:56Z</time>
      </trkpt>
      <trkpt lat="45.87926" lon="4.64987">
        <ele>237</ele>
        <time>2016-11-08T10:37:57Z</time>
      </trkpt>
      <trkpt lat="45.87934" lon="4.64984">
        <ele>237</ele>
        <time>2016-11-08T10:38:01Z</time>
      </trkpt>
      <trkpt lat="45.87936" lon="4.64983">
        <ele>237</ele>
        <time>2016-11-08T10:38:02Z</time>
      </trkpt>
      <trkpt lat="45.87942" lon="4.64978">
        <ele>237</ele>
        <time>2016-11-08T10:38:05Z</time>
      </trkpt>
      <trkpt lat="45.87944" lon="4.64976">
        <ele>237</ele>
        <time>2016-11-08T10:38:06Z</time>
      </trkpt>
      <trkpt lat="45.87951" lon="4.64973">
        <ele>237</ele>
        <time>2016-11-08T10:38:09Z</time>
      </trkpt>
      <trkpt lat="45.87953" lon="4.64972">
        <ele>238</ele>
        <time>2016-11-08T10:38:10Z</time>
      </trkpt>
      <trkpt lat="45.87959" lon="4.64966">
        <ele>238</ele>
        <time>2016-11-08T10:38:13Z</time>
      </trkpt>
      <trkpt lat="45.87961" lon="4.64965">
        <ele>238</ele>
        <time>2016-11-08T10:38:14Z</time>
      </trkpt>
      <trkpt lat="45.87968" lon="4.64959">
        <ele>238</ele>
        <time>2016-11-08T10:38:18Z</time>
      </trkpt>
      <trkpt lat="45.87971" lon="4.64958">
        <ele>238</ele>
        <time>2016-11-08T10:38:19Z</time>
      </trkpt>
      <trkpt lat="45.87979" lon="4.64953">
        <ele>238</ele>
        <time>2016-11-08T10:38:23Z</time>
      </trkpt>
      <trkpt lat="45.8798" lon="4.64952">
        <ele>238</ele>
        <time>2016-11-08T10:38:24Z</time>
      </trkpt>
      <trkpt lat="45.87987" lon="4.64945">
        <ele>237</ele>
        <time>2016-11-08T10:38:28Z</time>
      </trkpt>
      <trkpt lat="45.87989" lon="4.64944">
        <ele>237</ele>
        <time>2016-11-08T10:38:29Z</time>
      </trkpt>
      <trkpt lat="45.87996" lon="4.64939">
        <ele>237</ele>
        <time>2016-11-08T10:38:33Z</time>
      </trkpt>
      <trkpt lat="45.87998" lon="4.64938">
        <ele>237</ele>
        <time>2016-11-08T10:38:34Z</time>
      </trkpt>
      <trkpt lat="45.88004" lon="4.6493">
        <ele>242</ele>
        <time>2016-11-08T10:38:38Z</time>
      </trkpt>
      <trkpt lat="45.88006" lon="4.64929">
        <ele>242</ele>
        <time>2016-11-08T10:38:39Z</time>
      </trkpt>
      <trkpt lat="45.88014" lon="4.64923">
        <ele>243</ele>
        <time>2016-11-08T10:38:43Z</time>
      </trkpt>
      <trkpt lat="45.88015" lon="4.64921">
        <ele>243</ele>
        <time>2016-11-08T10:38:44Z</time>
      </trkpt>
      <trkpt lat="45.88021" lon="4.64914">
        <ele>237</ele>
        <time>2016-11-08T10:38:48Z</time>
      </trkpt>
      <trkpt lat="45.88022" lon="4.64913">
        <ele>237</ele>
        <time>2016-11-08T10:38:49Z</time>
      </trkpt>
      <trkpt lat="45.88029" lon="4.64908">
        <ele>238</ele>
        <time>2016-11-08T10:38:53Z</time>
      </trkpt>
      <trkpt lat="45.88031" lon="4.64907">
        <ele>238</ele>
        <time>2016-11-08T10:38:54Z</time>
      </trkpt>
      <trkpt lat="45.88037" lon="4.64901">
        <ele>239</ele>
        <time>2016-11-08T10:38:58Z</time>
      </trkpt>
      <trkpt lat="45.88039" lon="4.64899">
        <ele>239</ele>
        <time>2016-11-08T10:38:59Z</time>
      </trkpt>
      <trkpt lat="45.88046" lon="4.64894">
        <ele>240</ele>
        <time>2016-11-08T10:39:03Z</time>
      </trkpt>
      <trkpt lat="45.88047" lon="4.64892">
        <ele>240</ele>
        <time>2016-11-08T10:39:04Z</time>
      </trkpt>
      <trkpt lat="45.88053" lon="4.64886">
        <ele>240</ele>
        <time>2016-11-08T10:39:07Z</time>
      </trkpt>
      <trkpt lat="45.88055" lon="4.64884">
        <ele>240</ele>
        <time>2016-11-08T10:39:08Z</time>
      </trkpt>
      <trkpt lat="45.88063" lon="4.64877">
        <ele>240</ele>
        <time>2016-11-08T10:39:12Z</time>
      </trkpt>
      <trkpt lat="45.88064" lon="4.64876">
        <ele>240</ele>
        <time>2016-11-08T10:39:13Z</time>
      </trkpt>
      <trkpt lat="45.88071" lon="4.6487">
        <ele>239</ele>
        <time>2016-11-08T10:39:17Z</time>
      </trkpt>
      <trkpt lat="45.88073" lon="4.64868">
        <ele>239</ele>
        <time>2016-11-08T10:39:18Z</time>
      </trkpt>
      <trkpt lat="45.8808" lon="4.64864">
        <ele>239</ele>
        <time>2016-11-08T10:39:22Z</time>
      </trkpt>
      <trkpt lat="45.88082" lon="4.64863">
        <ele>239</ele>
        <time>2016-11-08T10:39:23Z</time>
      </trkpt>
      <trkpt lat="45.8809" lon="4.64861">
        <ele>246</ele>
        <time>2016-11-08T10:39:27Z</time>
      </trkpt>
      <trkpt lat="45.88092" lon="4.6486">
        <ele>245</ele>
        <time>2016-11-08T10:39:28Z</time>
      </trkpt>
      <trkpt lat="45.88099" lon="4.64857">
        <ele>245</ele>
        <time>2016-11-08T10:39:32Z</time>
      </trkpt>
      <trkpt lat="45.88101" lon="4.64857">
        <ele>246</ele>
        <time>2016-11-08T10:39:33Z</time>
      </trkpt>
      <trkpt lat="45.88109" lon="4.64857">
        <ele>246</ele>
        <time>2016-11-08T10:39:37Z</time>
      </trkpt>
      <trkpt lat="45.8811" lon="4.64856">
        <ele>246</ele>
        <time>2016-11-08T10:39:38Z</time>
      </trkpt>
      <trkpt lat="45.88119" lon="4.64854">
        <ele>247</ele>
        <time>2016-11-08T10:39:42Z</time>
      </trkpt>
      <trkpt lat="45.88121" lon="4.64853">
        <ele>247</ele>
        <time>2016-11-08T10:39:43Z</time>
      </trkpt>
      <trkpt lat="45.88128" lon="4.64849">
        <ele>247</ele>
        <time>2016-11-08T10:39:47Z</time>
      </trkpt>
      <trkpt lat="45.88131" lon="4.64849">
        <ele>247</ele>
        <time>2016-11-08T10:39:48Z</time>
      </trkpt>
      <trkpt lat="45.88139" lon="4.64848">
        <ele>247</ele>
        <time>2016-11-08T10:39:52Z</time>
      </trkpt>
      <trkpt lat="45.88141" lon="4.64848">
        <ele>248</ele>
        <time>2016-11-08T10:39:53Z</time>
      </trkpt>
      <trkpt lat="45.8815" lon="4.64844">
        <ele>247</ele>
        <time>2016-11-08T10:39:57Z</time>
      </trkpt>
      <trkpt lat="45.88152" lon="4.64843">
        <ele>247</ele>
        <time>2016-11-08T10:39:58Z</time>
      </trkpt>
      <trkpt lat="45.8816" lon="4.64842">
        <ele>247</ele>
        <time>2016-11-08T10:40:02Z</time>
      </trkpt>
      <trkpt lat="45.88162" lon="4.64842">
        <ele>247</ele>
        <time>2016-11-08T10:40:03Z</time>
      </trkpt>
      <trkpt lat="45.88169" lon="4.64843">
        <ele>249</ele>
        <time>2016-11-08T10:40:07Z</time>
      </trkpt>
      <trkpt lat="45.88172" lon="4.64842">
        <ele>249</ele>
        <time>2016-11-08T10:40:08Z</time>
      </trkpt>
      <trkpt lat="45.8818" lon="4.64837">
        <ele>251</ele>
        <time>2016-11-08T10:40:12Z</time>
      </trkpt>
      <trkpt lat="45.88182" lon="4.64837">
        <ele>251</ele>
        <time>2016-11-08T10:40:13Z</time>
      </trkpt>
      <trkpt lat="45.8819" lon="4.64838">
        <ele>253</ele>
        <time>2016-11-08T10:40:17Z</time>
      </trkpt>
      <trkpt lat="45.88191" lon="4.64837">
        <ele>253</ele>
        <time>2016-11-08T10:40:18Z</time>
      </trkpt>
      <trkpt lat="45.88199" lon="4.64834">
        <ele>254</ele>
        <time>2016-11-08T10:40:22Z</time>
      </trkpt>
      <trkpt lat="45.88201" lon="4.64834">
        <ele>255</ele>
        <time>2016-11-08T10:40:23Z</time>
      </trkpt>
      <trkpt lat="45.88209" lon="4.64834">
        <ele>256</ele>
        <time>2016-11-08T10:40:27Z</time>
      </trkpt>
      <trkpt lat="45.88211" lon="4.64834">
        <ele>256</ele>
        <time>2016-11-08T10:40:28Z</time>
      </trkpt>
      <trkpt lat="45.88219" lon="4.64832">
        <ele>248</ele>
        <time>2016-11-08T10:40:32Z</time>
      </trkpt>
      <trkpt lat="45.88221" lon="4.64831">
        <ele>248</ele>
        <time>2016-11-08T10:40:33Z</time>
      </trkpt>
      <trkpt lat="45.88228" lon="4.64827">
        <ele>249</ele>
        <time>2016-11-08T10:40:37Z</time>
      </trkpt>
      <trkpt lat="45.8823" lon="4.64827">
        <ele>249</ele>
        <time>2016-11-08T10:40:38Z</time>
      </trkpt>
      <trkpt lat="45.88239" lon="4.64826">
        <ele>251</ele>
        <time>2016-11-08T10:40:42Z</time>
      </trkpt>
      <trkpt lat="45.88241" lon="4.64824">
        <ele>251</ele>
        <time>2016-11-08T10:40:43Z</time>
      </trkpt>
      <trkpt lat="45.88248" lon="4.6482">
        <ele>251</ele>
        <time>2016-11-08T10:40:47Z</time>
      </trkpt>
      <trkpt lat="45.8825" lon="4.6482">
        <ele>257</ele>
        <time>2016-11-08T10:40:48Z</time>
      </trkpt>
      <trkpt lat="45.88258" lon="4.6482">
        <ele>257</ele>
        <time>2016-11-08T10:40:53Z</time>
      </trkpt>
      <trkpt lat="45.88259" lon="4.64819">
        <ele>257</ele>
        <time>2016-11-08T10:40:54Z</time>
      </trkpt>
      <trkpt lat="45.88267" lon="4.64817">
        <ele>257</ele>
        <time>2016-11-08T10:40:59Z</time>
      </trkpt>
      <trkpt lat="45.88269" lon="4.64816">
        <ele>257</ele>
        <time>2016-11-08T10:41:00Z</time>
      </trkpt>
      <trkpt lat="45.88275" lon="4.64813">
        <ele>258</ele>
        <time>2016-11-08T10:41:03Z</time>
      </trkpt>
      <trkpt lat="45.88278" lon="4.64812">
        <ele>258</ele>
        <time>2016-11-08T10:41:04Z</time>
      </trkpt>
      <trkpt lat="45.88284" lon="4.6481">
        <ele>258</ele>
        <time>2016-11-08T10:41:07Z</time>
      </trkpt>
      <trkpt lat="45.88287" lon="4.6481">
        <ele>258</ele>
        <time>2016-11-08T10:41:08Z</time>
      </trkpt>
      <trkpt lat="45.88294" lon="4.64806">
        <ele>259</ele>
        <time>2016-11-08T10:41:12Z</time>
      </trkpt>
      <trkpt lat="45.88296" lon="4.64806">
        <ele>259</ele>
        <time>2016-11-08T10:41:13Z</time>
      </trkpt>
      <trkpt lat="45.88304" lon="4.64805">
        <ele>260</ele>
        <time>2016-11-08T10:41:17Z</time>
      </trkpt>
      <trkpt lat="45.88306" lon="4.64805">
        <ele>260</ele>
        <time>2016-11-08T10:41:18Z</time>
      </trkpt>
      <trkpt lat="45.88314" lon="4.64802">
        <ele>260</ele>
        <time>2016-11-08T10:41:22Z</time>
      </trkpt>
      <trkpt lat="45.88317" lon="4.64802">
        <ele>261</ele>
        <time>2016-11-08T10:41:23Z</time>
      </trkpt>
      <trkpt lat="45.88324" lon="4.648">
        <ele>261</ele>
        <time>2016-11-08T10:41:26Z</time>
      </trkpt>
      <trkpt lat="45.88326" lon="4.64799">
        <ele>261</ele>
        <time>2016-11-08T10:41:27Z</time>
      </trkpt>
      <trkpt lat="45.88334" lon="4.64798">
        <ele>267</ele>
        <time>2016-11-08T10:41:31Z</time>
      </trkpt>
      <trkpt lat="45.88337" lon="4.64797">
        <ele>267</ele>
        <time>2016-11-08T10:41:32Z</time>
      </trkpt>
      <trkpt lat="45.88345" lon="4.64795">
        <ele>267</ele>
        <time>2016-11-08T10:41:36Z</time>
      </trkpt>
      <trkpt lat="45.88347" lon="4.64795">
        <ele>267</ele>
        <time>2016-11-08T10:41:37Z</time>
      </trkpt>
      <trkpt lat="45.88356" lon="4.64793">
        <ele>267</ele>
        <time>2016-11-08T10:41:42Z</time>
      </trkpt>
      <trkpt lat="45.88358" lon="4.64792">
        <ele>267</ele>
        <time>2016-11-08T10:41:43Z</time>
      </trkpt>
      <trkpt lat="45.88366" lon="4.64791">
        <ele>267</ele>
        <time>2016-11-08T10:41:47Z</time>
      </trkpt>
      <trkpt lat="45.88368" lon="4.6479">
        <ele>267</ele>
        <time>2016-11-08T10:41:48Z</time>
      </trkpt>
      <trkpt lat="45.88377" lon="4.64788">
        <ele>267</ele>
        <time>2016-11-08T10:41:52Z</time>
      </trkpt>
      <trkpt lat="45.88379" lon="4.64788">
        <ele>267</ele>
        <time>2016-11-08T10:41:53Z</time>
      </trkpt>
      <trkpt lat="45.88386" lon="4.64786">
        <ele>267</ele>
        <time>2016-11-08T10:41:56Z</time>
      </trkpt>
      <trkpt lat="45.88389" lon="4.64785">
        <ele>267</ele>
        <time>2016-11-08T10:41:57Z</time>
      </trkpt>
      <trkpt lat="45.88396" lon="4.64786">
        <ele>268</ele>
        <time>2016-11-08T10:42:00Z</time>
      </trkpt>
      <trkpt lat="45.88398" lon="4.64786">
        <ele>268</ele>
        <time>2016-11-08T10:42:01Z</time>
      </trkpt>
      <trkpt lat="45.88407" lon="4.64787">
        <ele>268</ele>
        <time>2016-11-08T10:42:05Z</time>
      </trkpt>
      <trkpt lat="45.88409" lon="4.64787">
        <ele>268</ele>
        <time>2016-11-08T10:42:06Z</time>
      </trkpt>
      <trkpt lat="45.88415" lon="4.64783">
        <ele>267</ele>
        <time>2016-11-08T10:42:10Z</time>
      </trkpt>
      <trkpt lat="45.88418" lon="4.64782">
        <ele>270</ele>
        <time>2016-11-08T10:42:11Z</time>
      </trkpt>
      <trkpt lat="45.88425" lon="4.64783">
        <ele>270</ele>
        <time>2016-11-08T10:42:15Z</time>
      </trkpt>
      <trkpt lat="45.88427" lon="4.64782">
        <ele>270</ele>
        <time>2016-11-08T10:42:16Z</time>
      </trkpt>
      <trkpt lat="45.88436" lon="4.64779">
        <ele>270</ele>
        <time>2016-11-08T10:42:20Z</time>
      </trkpt>
      <trkpt lat="45.88438" lon="4.64779">
        <ele>270</ele>
        <time>2016-11-08T10:42:21Z</time>
      </trkpt>
      <trkpt lat="45.88445" lon="4.64779">
        <ele>271</ele>
        <time>2016-11-08T10:42:24Z</time>
      </trkpt>
      <trkpt lat="45.88447" lon="4.64778">
        <ele>271</ele>
        <time>2016-11-08T10:42:25Z</time>
      </trkpt>
      <trkpt lat="45.88455" lon="4.64778">
        <ele>271</ele>
        <time>2016-11-08T10:42:29Z</time>
      </trkpt>
      <trkpt lat="45.88457" lon="4.64777">
        <ele>271</ele>
        <time>2016-11-08T10:42:30Z</time>
      </trkpt>
      <trkpt lat="45.88466" lon="4.64776">
        <ele>271</ele>
        <time>2016-11-08T10:42:34Z</time>
      </trkpt>
      <trkpt lat="45.88468" lon="4.64775">
        <ele>271</ele>
        <time>2016-11-08T10:42:35Z</time>
      </trkpt>
      <trkpt lat="45.88476" lon="4.64774">
        <ele>271</ele>
        <time>2016-11-08T10:42:39Z</time>
      </trkpt>
      <trkpt lat="45.88478" lon="4.64775">
        <ele>271</ele>
        <time>2016-11-08T10:42:40Z</time>
      </trkpt>
      <trkpt lat="45.88485" lon="4.64776">
        <ele>271</ele>
        <time>2016-11-08T10:42:43Z</time>
      </trkpt>
      <trkpt lat="45.88488" lon="4.64776">
        <ele>271</ele>
        <time>2016-11-08T10:42:44Z</time>
      </trkpt>
      <trkpt lat="45.88496" lon="4.64776">
        <ele>271</ele>
        <time>2016-11-08T10:42:48Z</time>
      </trkpt>
      <trkpt lat="45.88499" lon="4.64775">
        <ele>271</ele>
        <time>2016-11-08T10:42:49Z</time>
      </trkpt>
      <trkpt lat="45.88506" lon="4.64774">
        <ele>271</ele>
        <time>2016-11-08T10:42:52Z</time>
      </trkpt>
      <trkpt lat="45.88508" lon="4.64774">
        <ele>271</ele>
        <time>2016-11-08T10:42:53Z</time>
      </trkpt>
      <trkpt lat="45.88515" lon="4.64774">
        <ele>271</ele>
        <time>2016-11-08T10:42:56Z</time>
      </trkpt>
      <trkpt lat="45.88518" lon="4.64774">
        <ele>271</ele>
        <time>2016-11-08T10:42:57Z</time>
      </trkpt>
      <trkpt lat="45.88526" lon="4.64776">
        <ele>271</ele>
        <time>2016-11-08T10:43:01Z</time>
      </trkpt>
      <trkpt lat="45.88528" lon="4.64778">
        <ele>271</ele>
        <time>2016-11-08T10:43:02Z</time>
      </trkpt>
      <trkpt lat="45.88535" lon="4.64784">
        <ele>271</ele>
        <time>2016-11-08T10:43:06Z</time>
      </trkpt>
      <trkpt lat="45.88537" lon="4.64786">
        <ele>272</ele>
        <time>2016-11-08T10:43:07Z</time>
      </trkpt>
      <trkpt lat="45.88542" lon="4.64794">
        <ele>272</ele>
        <time>2016-11-08T10:43:10Z</time>
      </trkpt>
      <trkpt lat="45.88543" lon="4.64797">
        <ele>272</ele>
        <time>2016-11-08T10:43:11Z</time>
      </trkpt>
      <trkpt lat="45.88549" lon="4.64806">
        <ele>272</ele>
        <time>2016-11-08T10:43:15Z</time>
      </trkpt>
      <trkpt lat="45.88549" lon="4.64808">
        <ele>272</ele>
        <time>2016-11-08T10:43:16Z</time>
      </trkpt>
      <trkpt lat="45.88551" lon="4.64818">
        <ele>273</ele>
        <time>2016-11-08T10:43:19Z</time>
      </trkpt>
      <trkpt lat="45.88551" lon="4.64821">
        <ele>273</ele>
        <time>2016-11-08T10:43:20Z</time>
      </trkpt>
      <trkpt lat="45.88552" lon="4.64832">
        <ele>273</ele>
        <time>2016-11-08T10:43:24Z</time>
      </trkpt>
      <trkpt lat="45.88551" lon="4.64835">
        <ele>276</ele>
        <time>2016-11-08T10:43:25Z</time>
      </trkpt>
      <trkpt lat="45.88551" lon="4.64845">
        <ele>276</ele>
        <time>2016-11-08T10:43:28Z</time>
      </trkpt>
      <trkpt lat="45.8855" lon="4.64849">
        <ele>276</ele>
        <time>2016-11-08T10:43:29Z</time>
      </trkpt>
      <trkpt lat="45.88548" lon="4.6486">
        <ele>277</ele>
        <time>2016-11-08T10:43:33Z</time>
      </trkpt>
      <trkpt lat="45.88547" lon="4.64863">
        <ele>277</ele>
        <time>2016-11-08T10:43:34Z</time>
      </trkpt>
      <trkpt lat="45.88546" lon="4.64876">
        <ele>277</ele>
        <time>2016-11-08T10:43:38Z</time>
      </trkpt>
      <trkpt lat="45.88545" lon="4.64879">
        <ele>277</ele>
        <time>2016-11-08T10:43:39Z</time>
      </trkpt>
      <trkpt lat="45.88543" lon="4.6489">
        <ele>277</ele>
        <time>2016-11-08T10:43:42Z</time>
      </trkpt>
      <trkpt lat="45.88543" lon="4.64893">
        <ele>277</ele>
        <time>2016-11-08T10:43:43Z</time>
      </trkpt>
      <trkpt lat="45.88542" lon="4.64905">
        <ele>277</ele>
        <time>2016-11-08T10:43:46Z</time>
      </trkpt>
      <trkpt lat="45.88541" lon="4.64908">
        <ele>278</ele>
        <time>2016-11-08T10:43:47Z</time>
      </trkpt>
      <trkpt lat="45.88539" lon="4.64917">
        <ele>278</ele>
        <time>2016-11-08T10:43:50Z</time>
      </trkpt>
      <trkpt lat="45.88539" lon="4.6492">
        <ele>280</ele>
        <time>2016-11-08T10:43:51Z</time>
      </trkpt>
      <trkpt lat="45.88537" lon="4.6493">
        <ele>280</ele>
        <time>2016-11-08T10:43:54Z</time>
      </trkpt>
      <trkpt lat="45.88537" lon="4.64933">
        <ele>280</ele>
        <time>2016-11-08T10:43:55Z</time>
      </trkpt>
      <trkpt lat="45.88535" lon="4.64946">
        <ele>281</ele>
        <time>2016-11-08T10:43:59Z</time>
      </trkpt>
      <trkpt lat="45.88535" lon="4.64949">
        <ele>281</ele>
        <time>2016-11-08T10:44:00Z</time>
      </trkpt>
      <trkpt lat="45.88532" lon="4.64959">
        <ele>281</ele>
        <time>2016-11-08T10:44:04Z</time>
      </trkpt>
      <trkpt lat="45.88531" lon="4.64962">
        <ele>281</ele>
        <time>2016-11-08T10:44:05Z</time>
      </trkpt>
      <trkpt lat="45.8853" lon="4.64973">
        <ele>282</ele>
        <time>2016-11-08T10:44:09Z</time>
      </trkpt>
      <trkpt lat="45.8853" lon="4.64976">
        <ele>282</ele>
        <time>2016-11-08T10:44:10Z</time>
      </trkpt>
      <trkpt lat="45.88527" lon="4.64986">
        <ele>283</ele>
        <time>2016-11-08T10:44:14Z</time>
      </trkpt>
      <trkpt lat="45.88526" lon="4.64989">
        <ele>283</ele>
        <time>2016-11-08T10:44:15Z</time>
      </trkpt>
      <trkpt lat="45.88523" lon="4.65001">
        <ele>285</ele>
        <time>2016-11-08T10:44:19Z</time>
      </trkpt>
      <trkpt lat="45.88523" lon="4.65003">
        <ele>285</ele>
        <time>2016-11-08T10:44:20Z</time>
      </trkpt>
      <trkpt lat="45.88521" lon="4.65014">
        <ele>285</ele>
        <time>2016-11-08T10:44:24Z</time>
      </trkpt>
      <trkpt lat="45.88521" lon="4.65017">
        <ele>285</ele>
        <time>2016-11-08T10:44:25Z</time>
      </trkpt>
      <trkpt lat="45.88518" lon="4.65028">
        <ele>285</ele>
        <time>2016-11-08T10:44:29Z</time>
      </trkpt>
      <trkpt lat="45.88518" lon="4.65031">
        <ele>285</ele>
        <time>2016-11-08T10:44:30Z</time>
      </trkpt>
      <trkpt lat="45.88515" lon="4.6504">
        <ele>285</ele>
        <time>2016-11-08T10:44:33Z</time>
      </trkpt>
      <trkpt lat="45.88514" lon="4.65043">
        <ele>285</ele>
        <time>2016-11-08T10:44:34Z</time>
      </trkpt>
      <trkpt lat="45.88511" lon="4.65054">
        <ele>286</ele>
        <time>2016-11-08T10:44:37Z</time>
      </trkpt>
      <trkpt lat="45.8851" lon="4.65057">
        <ele>286</ele>
        <time>2016-11-08T10:44:38Z</time>
      </trkpt>
      <trkpt lat="45.88506" lon="4.65068">
        <ele>287</ele>
        <time>2016-11-08T10:44:42Z</time>
      </trkpt>
      <trkpt lat="45.88505" lon="4.6507">
        <ele>287</ele>
        <time>2016-11-08T10:44:43Z</time>
      </trkpt>
      <trkpt lat="45.88501" lon="4.65078">
        <ele>289</ele>
        <time>2016-11-08T10:44:46Z</time>
      </trkpt>
      <trkpt lat="45.885" lon="4.65081">
        <ele>289</ele>
        <time>2016-11-08T10:44:47Z</time>
      </trkpt>
      <trkpt lat="45.88497" lon="4.65092">
        <ele>291</ele>
        <time>2016-11-08T10:44:51Z</time>
      </trkpt>
      <trkpt lat="45.88496" lon="4.65095">
        <ele>291</ele>
        <time>2016-11-08T10:44:52Z</time>
      </trkpt>
      <trkpt lat="45.8849" lon="4.65102">
        <ele>292</ele>
        <time>2016-11-08T10:44:56Z</time>
      </trkpt>
      <trkpt lat="45.88489" lon="4.65104">
        <ele>292</ele>
        <time>2016-11-08T10:44:57Z</time>
      </trkpt>
      <trkpt lat="45.88484" lon="4.65113">
        <ele>293</ele>
        <time>2016-11-08T10:45:01Z</time>
      </trkpt>
      <trkpt lat="45.88483" lon="4.65115">
        <ele>293</ele>
        <time>2016-11-08T10:45:02Z</time>
      </trkpt>
      <trkpt lat="45.88477" lon="4.65122">
        <ele>293</ele>
        <time>2016-11-08T10:45:06Z</time>
      </trkpt>
      <trkpt lat="45.88476" lon="4.65124">
        <ele>293</ele>
        <time>2016-11-08T10:45:07Z</time>
      </trkpt>
      <trkpt lat="45.8847" lon="4.65132">
        <ele>294</ele>
        <time>2016-11-08T10:45:11Z</time>
      </trkpt>
      <trkpt lat="45.88468" lon="4.65134">
        <ele>294</ele>
        <time>2016-11-08T10:45:12Z</time>
      </trkpt>
      <trkpt lat="45.88461" lon="4.65141">
        <ele>294</ele>
        <time>2016-11-08T10:45:16Z</time>
      </trkpt>
      <trkpt lat="45.88459" lon="4.65143">
        <ele>294</ele>
        <time>2016-11-08T10:45:17Z</time>
      </trkpt>
      <trkpt lat="45.88454" lon="4.65149">
        <ele>295</ele>
        <time>2016-11-08T10:45:20Z</time>
      </trkpt>
      <trkpt lat="45.88452" lon="4.65151">
        <ele>295</ele>
        <time>2016-11-08T10:45:21Z</time>
      </trkpt>
      <trkpt lat="45.88446" lon="4.65159">
        <ele>295</ele>
        <time>2016-11-08T10:45:25Z</time>
      </trkpt>
      <trkpt lat="45.88444" lon="4.65162">
        <ele>296</ele>
        <time>2016-11-08T10:45:26Z</time>
      </trkpt>
      <trkpt lat="45.88438" lon="4.65169">
        <ele>297</ele>
        <time>2016-11-08T10:45:30Z</time>
      </trkpt>
      <trkpt lat="45.88436" lon="4.65171">
        <ele>298</ele>
        <time>2016-11-08T10:45:31Z</time>
      </trkpt>
      <trkpt lat="45.88429" lon="4.65177">
        <ele>298</ele>
        <time>2016-11-08T10:45:35Z</time>
      </trkpt>
      <trkpt lat="45.88428" lon="4.65179">
        <ele>298</ele>
        <time>2016-11-08T10:45:36Z</time>
      </trkpt>
      <trkpt lat="45.88422" lon="4.65186">
        <ele>298</ele>
        <time>2016-11-08T10:45:40Z</time>
      </trkpt>
      <trkpt lat="45.8842" lon="4.65187">
        <ele>298</ele>
        <time>2016-11-08T10:45:41Z</time>
      </trkpt>
      <trkpt lat="45.88413" lon="4.65194">
        <ele>299</ele>
        <time>2016-11-08T10:45:45Z</time>
      </trkpt>
      <trkpt lat="45.8841" lon="4.65195">
        <ele>299</ele>
        <time>2016-11-08T10:45:46Z</time>
      </trkpt>
      <trkpt lat="45.88405" lon="4.652">
        <ele>299</ele>
        <time>2016-11-08T10:45:49Z</time>
      </trkpt>
      <trkpt lat="45.88403" lon="4.65202">
        <ele>300</ele>
        <time>2016-11-08T10:45:50Z</time>
      </trkpt>
      <trkpt lat="45.88396" lon="4.65209">
        <ele>300</ele>
        <time>2016-11-08T10:45:54Z</time>
      </trkpt>
      <trkpt lat="45.88394" lon="4.65211">
        <ele>300</ele>
        <time>2016-11-08T10:45:55Z</time>
      </trkpt>
      <trkpt lat="45.88388" lon="4.65217">
        <ele>300</ele>
        <time>2016-11-08T10:45:58Z</time>
      </trkpt>
      <trkpt lat="45.88386" lon="4.65219">
        <ele>300</ele>
        <time>2016-11-08T10:45:59Z</time>
      </trkpt>
      <trkpt lat="45.8838" lon="4.65226">
        <ele>300</ele>
        <time>2016-11-08T10:46:02Z</time>
      </trkpt>
      <trkpt lat="45.88378" lon="4.65229">
        <ele>300</ele>
        <time>2016-11-08T10:46:03Z</time>
      </trkpt>
      <trkpt lat="45.88373" lon="4.65238">
        <ele>300</ele>
        <time>2016-11-08T10:46:07Z</time>
      </trkpt>
      <trkpt lat="45.88371" lon="4.6524">
        <ele>300</ele>
        <time>2016-11-08T10:46:08Z</time>
      </trkpt>
      <trkpt lat="45.88364" lon="4.65248">
        <ele>300</ele>
        <time>2016-11-08T10:46:12Z</time>
      </trkpt>
      <trkpt lat="45.88363" lon="4.6525">
        <ele>300</ele>
        <time>2016-11-08T10:46:13Z</time>
      </trkpt>
      <trkpt lat="45.88356" lon="4.65258">
        <ele>301</ele>
        <time>2016-11-08T10:46:17Z</time>
      </trkpt>
      <trkpt lat="45.88354" lon="4.6526">
        <ele>301</ele>
        <time>2016-11-08T10:46:18Z</time>
      </trkpt>
      <trkpt lat="45.88349" lon="4.65266">
        <ele>301</ele>
        <time>2016-11-08T10:46:21Z</time>
      </trkpt>
      <trkpt lat="45.88347" lon="4.65267">
        <ele>301</ele>
        <time>2016-11-08T10:46:22Z</time>
      </trkpt>
      <trkpt lat="45.88339" lon="4.65274">
        <ele>302</ele>
        <time>2016-11-08T10:46:26Z</time>
      </trkpt>
      <trkpt lat="45.88338" lon="4.65276">
        <ele>302</ele>
        <time>2016-11-08T10:46:27Z</time>
      </trkpt>
      <trkpt lat="45.88331" lon="4.65283">
        <ele>304</ele>
        <time>2016-11-08T10:46:31Z</time>
      </trkpt>
      <trkpt lat="45.88329" lon="4.65285">
        <ele>304</ele>
        <time>2016-11-08T10:46:32Z</time>
      </trkpt>
      <trkpt lat="45.88324" lon="4.65294">
        <ele>304</ele>
        <time>2016-11-08T10:46:36Z</time>
      </trkpt>
      <trkpt lat="45.88322" lon="4.65297">
        <ele>304</ele>
        <time>2016-11-08T10:46:37Z</time>
      </trkpt>
      <trkpt lat="45.88317" lon="4.65307">
        <ele>305</ele>
        <time>2016-11-08T10:46:41Z</time>
      </trkpt>
      <trkpt lat="45.88316" lon="4.65309">
        <ele>305</ele>
        <time>2016-11-08T10:46:42Z</time>
      </trkpt>
      <trkpt lat="45.88309" lon="4.65316">
        <ele>305</ele>
        <time>2016-11-08T10:46:46Z</time>
      </trkpt>
      <trkpt lat="45.88308" lon="4.65319">
        <ele>305</ele>
        <time>2016-11-08T10:46:47Z</time>
      </trkpt>
      <trkpt lat="45.88303" lon="4.65329">
        <ele>305</ele>
        <time>2016-11-08T10:46:51Z</time>
      </trkpt>
      <trkpt lat="45.88302" lon="4.65331">
        <ele>305</ele>
        <time>2016-11-08T10:46:52Z</time>
      </trkpt>
      <trkpt lat="45.88298" lon="4.65342">
        <ele>307</ele>
        <time>2016-11-08T10:46:56Z</time>
      </trkpt>
      <trkpt lat="45.88298" lon="4.65344">
        <ele>307</ele>
        <time>2016-11-08T10:46:57Z</time>
      </trkpt>
      <trkpt lat="45.88295" lon="4.65352">
        <ele>307</ele>
        <time>2016-11-08T10:47:00Z</time>
      </trkpt>
      <trkpt lat="45.88294" lon="4.65356">
        <ele>307</ele>
        <time>2016-11-08T10:47:01Z</time>
      </trkpt>
      <trkpt lat="45.8829" lon="4.65364">
        <ele>308</ele>
        <time>2016-11-08T10:47:04Z</time>
      </trkpt>
      <trkpt lat="45.88289" lon="4.65367">
        <ele>308</ele>
        <time>2016-11-08T10:47:05Z</time>
      </trkpt>
      <trkpt lat="45.88286" lon="4.65378">
        <ele>308</ele>
        <time>2016-11-08T10:47:09Z</time>
      </trkpt>
      <trkpt lat="45.88285" lon="4.65381">
        <ele>308</ele>
        <time>2016-11-08T10:47:10Z</time>
      </trkpt>
      <trkpt lat="45.88282" lon="4.6539">
        <ele>308</ele>
        <time>2016-11-08T10:47:13Z</time>
      </trkpt>
      <trkpt lat="45.88281" lon="4.65393">
        <ele>308</ele>
        <time>2016-11-08T10:47:14Z</time>
      </trkpt>
      <trkpt lat="45.88278" lon="4.65402">
        <ele>309</ele>
        <time>2016-11-08T10:47:17Z</time>
      </trkpt>
      <trkpt lat="45.88277" lon="4.65405">
        <ele>309</ele>
        <time>2016-11-08T10:47:18Z</time>
      </trkpt>
      <trkpt lat="45.88272" lon="4.65416">
        <ele>309</ele>
        <time>2016-11-08T10:47:22Z</time>
      </trkpt>
      <trkpt lat="45.8827" lon="4.65418">
        <ele>310</ele>
        <time>2016-11-08T10:47:23Z</time>
      </trkpt>
      <trkpt lat="45.88267" lon="4.6543">
        <ele>311</ele>
        <time>2016-11-08T10:47:27Z</time>
      </trkpt>
      <trkpt lat="45.88266" lon="4.65433">
        <ele>311</ele>
        <time>2016-11-08T10:47:28Z</time>
      </trkpt>
      <trkpt lat="45.88262" lon="4.65441">
        <ele>311</ele>
        <time>2016-11-08T10:47:31Z</time>
      </trkpt>
      <trkpt lat="45.88261" lon="4.65444">
        <ele>311</ele>
        <time>2016-11-08T10:47:32Z</time>
      </trkpt>
      <trkpt lat="45.88259" lon="4.65455">
        <ele>311</ele>
        <time>2016-11-08T10:47:36Z</time>
      </trkpt>
      <trkpt lat="45.88259" lon="4.65458">
        <ele>311</ele>
        <time>2016-11-08T10:47:37Z</time>
      </trkpt>
      <trkpt lat="45.88257" lon="4.65468">
        <ele>312</ele>
        <time>2016-11-08T10:47:41Z</time>
      </trkpt>
      <trkpt lat="45.88256" lon="4.6547">
        <ele>312</ele>
        <time>2016-11-08T10:47:42Z</time>
      </trkpt>
      <trkpt lat="45.88251" lon="4.6548">
        <ele>312</ele>
        <time>2016-11-08T10:47:46Z</time>
      </trkpt>
      <trkpt lat="45.8825" lon="4.65484">
        <ele>313</ele>
        <time>2016-11-08T10:47:47Z</time>
      </trkpt>
      <trkpt lat="45.88247" lon="4.65495">
        <ele>315</ele>
        <time>2016-11-08T10:47:50Z</time>
      </trkpt>
      <trkpt lat="45.88247" lon="4.65498">
        <ele>315</ele>
        <time>2016-11-08T10:47:51Z</time>
      </trkpt>
      <trkpt lat="45.88243" lon="4.65509">
        <ele>317</ele>
        <time>2016-11-08T10:47:55Z</time>
      </trkpt>
      <trkpt lat="45.88242" lon="4.65511">
        <ele>317</ele>
        <time>2016-11-08T10:47:56Z</time>
      </trkpt>
      <trkpt lat="45.88237" lon="4.65522">
        <ele>319</ele>
        <time>2016-11-08T10:48:00Z</time>
      </trkpt>
      <trkpt lat="45.88236" lon="4.65525">
        <ele>319</ele>
        <time>2016-11-08T10:48:01Z</time>
      </trkpt>
      <trkpt lat="45.88231" lon="4.65535">
        <ele>319</ele>
        <time>2016-11-08T10:48:05Z</time>
      </trkpt>
      <trkpt lat="45.8823" lon="4.65538">
        <ele>320</ele>
        <time>2016-11-08T10:48:06Z</time>
      </trkpt>
      <trkpt lat="45.88227" lon="4.65548">
        <ele>320</ele>
        <time>2016-11-08T10:48:09Z</time>
      </trkpt>
      <trkpt lat="45.88226" lon="4.65551">
        <ele>320</ele>
        <time>2016-11-08T10:48:10Z</time>
      </trkpt>
      <trkpt lat="45.88224" lon="4.65562">
        <ele>320</ele>
        <time>2016-11-08T10:48:14Z</time>
      </trkpt>
      <trkpt lat="45.88223" lon="4.65565">
        <ele>320</ele>
        <time>2016-11-08T10:48:15Z</time>
      </trkpt>
      <trkpt lat="45.8822" lon="4.65576">
        <ele>320</ele>
        <time>2016-11-08T10:48:19Z</time>
      </trkpt>
      <trkpt lat="45.88219" lon="4.65578">
        <ele>320</ele>
        <time>2016-11-08T10:48:20Z</time>
      </trkpt>
      <trkpt lat="45.88214" lon="4.65588">
        <ele>321</ele>
        <time>2016-11-08T10:48:24Z</time>
      </trkpt>
      <trkpt lat="45.88213" lon="4.65592">
        <ele>321</ele>
        <time>2016-11-08T10:48:25Z</time>
      </trkpt>
      <trkpt lat="45.8821" lon="4.65601">
        <ele>321</ele>
        <time>2016-11-08T10:48:28Z</time>
      </trkpt>
      <trkpt lat="45.88209" lon="4.65603">
        <ele>321</ele>
        <time>2016-11-08T10:48:29Z</time>
      </trkpt>
      <trkpt lat="45.88205" lon="4.65615">
        <ele>321</ele>
        <time>2016-11-08T10:48:33Z</time>
      </trkpt>
      <trkpt lat="45.88205" lon="4.65618">
        <ele>321</ele>
        <time>2016-11-08T10:48:34Z</time>
      </trkpt>
      <trkpt lat="45.88202" lon="4.65627">
        <ele>321</ele>
        <time>2016-11-08T10:48:37Z</time>
      </trkpt>
      <trkpt lat="45.88201" lon="4.65631">
        <ele>321</ele>
        <time>2016-11-08T10:48:38Z</time>
      </trkpt>
      <trkpt lat="45.88198" lon="4.65641">
        <ele>321</ele>
        <time>2016-11-08T10:48:42Z</time>
      </trkpt>
      <trkpt lat="45.88197" lon="4.65643">
        <ele>322</ele>
        <time>2016-11-08T10:48:43Z</time>
      </trkpt>
      <trkpt lat="45.88193" lon="4.65651">
        <ele>322</ele>
        <time>2016-11-08T10:48:46Z</time>
      </trkpt>
      <trkpt lat="45.88191" lon="4.65654">
        <ele>322</ele>
        <time>2016-11-08T10:48:47Z</time>
      </trkpt>
      <trkpt lat="45.88187" lon="4.65663">
        <ele>323</ele>
        <time>2016-11-08T10:48:50Z</time>
      </trkpt>
      <trkpt lat="45.88186" lon="4.65666">
        <ele>323</ele>
        <time>2016-11-08T10:48:51Z</time>
      </trkpt>
      <trkpt lat="45.88182" lon="4.65676">
        <ele>322</ele>
        <time>2016-11-08T10:48:55Z</time>
      </trkpt>
      <trkpt lat="45.88181" lon="4.65678">
        <ele>322</ele>
        <time>2016-11-08T10:48:56Z</time>
      </trkpt>
      <trkpt lat="45.88175" lon="4.65687">
        <ele>322</ele>
        <time>2016-11-08T10:49:00Z</time>
      </trkpt>
      <trkpt lat="45.88174" lon="4.65689">
        <ele>322</ele>
        <time>2016-11-08T10:49:01Z</time>
      </trkpt>
      <trkpt lat="45.88169" lon="4.657">
        <ele>322</ele>
        <time>2016-11-08T10:49:05Z</time>
      </trkpt>
      <trkpt lat="45.88168" lon="4.65703">
        <ele>322</ele>
        <time>2016-11-08T10:49:06Z</time>
      </trkpt>
      <trkpt lat="45.88163" lon="4.65712">
        <ele>331</ele>
        <time>2016-11-08T10:49:09Z</time>
      </trkpt>
      <trkpt lat="45.88162" lon="4.65715">
        <ele>331</ele>
        <time>2016-11-08T10:49:10Z</time>
      </trkpt>
      <trkpt lat="45.88157" lon="4.65723">
        <ele>331</ele>
        <time>2016-11-08T10:49:14Z</time>
      </trkpt>
      <trkpt lat="45.88156" lon="4.65725">
        <ele>331</ele>
        <time>2016-11-08T10:49:15Z</time>
      </trkpt>
      <trkpt lat="45.8815" lon="4.65732">
        <ele>331</ele>
        <time>2016-11-08T10:49:19Z</time>
      </trkpt>
      <trkpt lat="45.88148" lon="4.65733">
        <ele>331</ele>
        <time>2016-11-08T10:49:20Z</time>
      </trkpt>
      <trkpt lat="45.88143" lon="4.65741">
        <ele>331</ele>
        <time>2016-11-08T10:49:24Z</time>
      </trkpt>
      <trkpt lat="45.88142" lon="4.65743">
        <ele>331</ele>
        <time>2016-11-08T10:49:25Z</time>
      </trkpt>
      <trkpt lat="45.88136" lon="4.6575">
        <ele>332</ele>
        <time>2016-11-08T10:49:29Z</time>
      </trkpt>
      <trkpt lat="45.88134" lon="4.65752">
        <ele>331</ele>
        <time>2016-11-08T10:49:30Z</time>
      </trkpt>
      <trkpt lat="45.88129" lon="4.6576">
        <ele>332</ele>
        <time>2016-11-08T10:49:34Z</time>
      </trkpt>
      <trkpt lat="45.88127" lon="4.65763">
        <ele>332</ele>
        <time>2016-11-08T10:49:35Z</time>
      </trkpt>
      <trkpt lat="45.88122" lon="4.65771">
        <ele>333</ele>
        <time>2016-11-08T10:49:38Z</time>
      </trkpt>
      <trkpt lat="45.88119" lon="4.65773">
        <ele>333</ele>
        <time>2016-11-08T10:49:39Z</time>
      </trkpt>
      <trkpt lat="45.88112" lon="4.6578">
        <ele>334</ele>
        <time>2016-11-08T10:49:42Z</time>
      </trkpt>
      <trkpt lat="45.88109" lon="4.65782">
        <ele>334</ele>
        <time>2016-11-08T10:49:43Z</time>
      </trkpt>
      <trkpt lat="45.88103" lon="4.65786">
        <ele>334</ele>
        <time>2016-11-08T10:49:46Z</time>
      </trkpt>
      <trkpt lat="45.88101" lon="4.65788">
        <ele>334</ele>
        <time>2016-11-08T10:49:47Z</time>
      </trkpt>
      <trkpt lat="45.88095" lon="4.65794">
        <ele>334</ele>
        <time>2016-11-08T10:49:50Z</time>
      </trkpt>
      <trkpt lat="45.88093" lon="4.65796">
        <ele>334</ele>
        <time>2016-11-08T10:49:51Z</time>
      </trkpt>
      <trkpt lat="45.88087" lon="4.65801">
        <ele>334</ele>
        <time>2016-11-08T10:49:54Z</time>
      </trkpt>
      <trkpt lat="45.88085" lon="4.65803">
        <ele>334</ele>
        <time>2016-11-08T10:49:55Z</time>
      </trkpt>
      <trkpt lat="45.88079" lon="4.65808">
        <ele>341</ele>
        <time>2016-11-08T10:49:58Z</time>
      </trkpt>
      <trkpt lat="45.88077" lon="4.6581">
        <ele>340</ele>
        <time>2016-11-08T10:49:59Z</time>
      </trkpt>
      <trkpt lat="45.8807" lon="4.65816">
        <ele>340</ele>
        <time>2016-11-08T10:50:02Z</time>
      </trkpt>
      <trkpt lat="45.88067" lon="4.65817">
        <ele>340</ele>
        <time>2016-11-08T10:50:03Z</time>
      </trkpt>
      <trkpt lat="45.88062" lon="4.65822">
        <ele>340</ele>
        <time>2016-11-08T10:50:05Z</time>
      </trkpt>
      <trkpt lat="45.8806" lon="4.65824">
        <ele>341</ele>
        <time>2016-11-08T10:50:06Z</time>
      </trkpt>
      <trkpt lat="45.88052" lon="4.65827">
        <ele>342</ele>
        <time>2016-11-08T10:50:09Z</time>
      </trkpt>
      <trkpt lat="45.8805" lon="4.65829">
        <ele>342</ele>
        <time>2016-11-08T10:50:10Z</time>
      </trkpt>
      <trkpt lat="45.88043" lon="4.65833">
        <ele>342</ele>
        <time>2016-11-08T10:50:13Z</time>
      </trkpt>
      <trkpt lat="45.8804" lon="4.65835">
        <ele>337</ele>
        <time>2016-11-08T10:50:14Z</time>
      </trkpt>
      <trkpt lat="45.88033" lon="4.6584">
        <ele>338</ele>
        <time>2016-11-08T10:50:17Z</time>
      </trkpt>
      <trkpt lat="45.8803" lon="4.65841">
        <ele>338</ele>
        <time>2016-11-08T10:50:18Z</time>
      </trkpt>
      <trkpt lat="45.88023" lon="4.65846">
        <ele>339</ele>
        <time>2016-11-08T10:50:21Z</time>
      </trkpt>
      <trkpt lat="45.88021" lon="4.65848">
        <ele>339</ele>
        <time>2016-11-08T10:50:22Z</time>
      </trkpt>
      <trkpt lat="45.88013" lon="4.65853">
        <ele>339</ele>
        <time>2016-11-08T10:50:25Z</time>
      </trkpt>
      <trkpt lat="45.88011" lon="4.65854">
        <ele>339</ele>
        <time>2016-11-08T10:50:26Z</time>
      </trkpt>
      <trkpt lat="45.88004" lon="4.65859">
        <ele>339</ele>
        <time>2016-11-08T10:50:29Z</time>
      </trkpt>
      <trkpt lat="45.88001" lon="4.65861">
        <ele>339</ele>
        <time>2016-11-08T10:50:30Z</time>
      </trkpt>
      <trkpt lat="45.87994" lon="4.65867">
        <ele>343</ele>
        <time>2016-11-08T10:50:33Z</time>
      </trkpt>
      <trkpt lat="45.87993" lon="4.65869">
        <ele>343</ele>
        <time>2016-11-08T10:50:34Z</time>
      </trkpt>
      <trkpt lat="45.87987" lon="4.65877">
        <ele>343</ele>
        <time>2016-11-08T10:50:37Z</time>
      </trkpt>
      <trkpt lat="45.87984" lon="4.65879">
        <ele>343</ele>
        <time>2016-11-08T10:50:38Z</time>
      </trkpt>
      <trkpt lat="45.87979" lon="4.65885">
        <ele>342</ele>
        <time>2016-11-08T10:50:40Z</time>
      </trkpt>
      <trkpt lat="45.87977" lon="4.65888">
        <ele>342</ele>
        <time>2016-11-08T10:50:41Z</time>
      </trkpt>
      <trkpt lat="45.8797" lon="4.65895">
        <ele>342</ele>
        <time>2016-11-08T10:50:44Z</time>
      </trkpt>
      <trkpt lat="45.87968" lon="4.65897">
        <ele>342</ele>
        <time>2016-11-08T10:50:45Z</time>
      </trkpt>
      <trkpt lat="45.87963" lon="4.65905">
        <ele>343</ele>
        <time>2016-11-08T10:50:48Z</time>
      </trkpt>
      <trkpt lat="45.8796" lon="4.65908">
        <ele>343</ele>
        <time>2016-11-08T10:50:49Z</time>
      </trkpt>
      <trkpt lat="45.87955" lon="4.65915">
        <ele>343</ele>
        <time>2016-11-08T10:50:52Z</time>
      </trkpt>
      <trkpt lat="45.87953" lon="4.65917">
        <ele>340</ele>
        <time>2016-11-08T10:50:53Z</time>
      </trkpt>
      <trkpt lat="45.87947" lon="4.65926">
        <ele>341</ele>
        <time>2016-11-08T10:50:56Z</time>
      </trkpt>
      <trkpt lat="45.87946" lon="4.65929">
        <ele>341</ele>
        <time>2016-11-08T10:50:57Z</time>
      </trkpt>
      <trkpt lat="45.87941" lon="4.6594">
        <ele>341</ele>
        <time>2016-11-08T10:51:00Z</time>
      </trkpt>
      <trkpt lat="45.8794" lon="4.65943">
        <ele>341</ele>
        <time>2016-11-08T10:51:01Z</time>
      </trkpt>
      <trkpt lat="45.87935" lon="4.65953">
        <ele>341</ele>
        <time>2016-11-08T10:51:04Z</time>
      </trkpt>
      <trkpt lat="45.87934" lon="4.65956">
        <ele>341</ele>
        <time>2016-11-08T10:51:05Z</time>
      </trkpt>
      <trkpt lat="45.87931" lon="4.65967">
        <ele>341</ele>
        <time>2016-11-08T10:51:08Z</time>
      </trkpt>
      <trkpt lat="45.8793" lon="4.65971">
        <ele>341</ele>
        <time>2016-11-08T10:51:09Z</time>
      </trkpt>
      <trkpt lat="45.87928" lon="4.65981">
        <ele>341</ele>
        <time>2016-11-08T10:51:12Z</time>
      </trkpt>
      <trkpt lat="45.87927" lon="4.65985">
        <ele>341</ele>
        <time>2016-11-08T10:51:13Z</time>
      </trkpt>
      <trkpt lat="45.87927" lon="4.65997">
        <ele>342</ele>
        <time>2016-11-08T10:51:17Z</time>
      </trkpt>
      <trkpt lat="45.87927" lon="4.66">
        <ele>342</ele>
        <time>2016-11-08T10:51:18Z</time>
      </trkpt>
      <trkpt lat="45.87925" lon="4.66013">
        <ele>342</ele>
        <time>2016-11-08T10:51:22Z</time>
      </trkpt>
      <trkpt lat="45.87925" lon="4.66016">
        <ele>342</ele>
        <time>2016-11-08T10:51:23Z</time>
      </trkpt>
      <trkpt lat="45.87925" lon="4.66028">
        <ele>342</ele>
        <time>2016-11-08T10:51:26Z</time>
      </trkpt>
      <trkpt lat="45.87925" lon="4.66033">
        <ele>342</ele>
        <time>2016-11-08T10:51:27Z</time>
      </trkpt>
      <trkpt lat="45.87925" lon="4.66045">
        <ele>342</ele>
        <time>2016-11-08T10:51:30Z</time>
      </trkpt>
      <trkpt lat="45.87925" lon="4.66049">
        <ele>342</ele>
        <time>2016-11-08T10:51:31Z</time>
      </trkpt>
      <trkpt lat="45.87925" lon="4.66061">
        <ele>342</ele>
        <time>2016-11-08T10:51:35Z</time>
      </trkpt>
      <trkpt lat="45.87924" lon="4.66064">
        <ele>343</ele>
        <time>2016-11-08T10:51:36Z</time>
      </trkpt>
      <trkpt lat="45.87924" lon="4.66076">
        <ele>343</ele>
        <time>2016-11-08T10:51:40Z</time>
      </trkpt>
      <trkpt lat="45.87925" lon="4.66079">
        <ele>343</ele>
        <time>2016-11-08T10:51:41Z</time>
      </trkpt>
      <trkpt lat="45.87925" lon="4.6609">
        <ele>345</ele>
        <time>2016-11-08T10:51:44Z</time>
      </trkpt>
      <trkpt lat="45.87925" lon="4.66094">
        <ele>345</ele>
        <time>2016-11-08T10:51:45Z</time>
      </trkpt>
      <trkpt lat="45.87925" lon="4.66105">
        <ele>346</ele>
        <time>2016-11-08T10:51:48Z</time>
      </trkpt>
      <trkpt lat="45.87925" lon="4.66109">
        <ele>347</ele>
        <time>2016-11-08T10:51:49Z</time>
      </trkpt>
      <trkpt lat="45.87923" lon="4.66121">
        <ele>347</ele>
        <time>2016-11-08T10:51:52Z</time>
      </trkpt>
      <trkpt lat="45.87923" lon="4.66125">
        <ele>348</ele>
        <time>2016-11-08T10:51:53Z</time>
      </trkpt>
      <trkpt lat="45.87926" lon="4.66136">
        <ele>349</ele>
        <time>2016-11-08T10:51:56Z</time>
      </trkpt>
      <trkpt lat="45.87928" lon="4.66138">
        <ele>349</ele>
        <time>2016-11-08T10:51:57Z</time>
      </trkpt>
      <trkpt lat="45.87937" lon="4.66141">
        <ele>349</ele>
        <time>2016-11-08T10:52:00Z</time>
      </trkpt>
      <trkpt lat="45.8794" lon="4.66142">
        <ele>349</ele>
        <time>2016-11-08T10:52:01Z</time>
      </trkpt>
      <trkpt lat="45.87948" lon="4.66143">
        <ele>349</ele>
        <time>2016-11-08T10:52:04Z</time>
      </trkpt>
      <trkpt lat="45.87951" lon="4.66143">
        <ele>349</ele>
        <time>2016-11-08T10:52:05Z</time>
      </trkpt>
      <trkpt lat="45.87959" lon="4.66143">
        <ele>348</ele>
        <time>2016-11-08T10:52:08Z</time>
      </trkpt>
      <trkpt lat="45.87962" lon="4.66143">
        <ele>348</ele>
        <time>2016-11-08T10:52:09Z</time>
      </trkpt>
      <trkpt lat="45.87969" lon="4.66143">
        <ele>348</ele>
        <time>2016-11-08T10:52:11Z</time>
      </trkpt>
      <trkpt lat="45.87972" lon="4.66143">
        <ele>348</ele>
        <time>2016-11-08T10:52:12Z</time>
      </trkpt>
      <trkpt lat="45.87979" lon="4.66144">
        <ele>348</ele>
        <time>2016-11-08T10:52:14Z</time>
      </trkpt>
      <trkpt lat="45.87982" lon="4.66144">
        <ele>348</ele>
        <time>2016-11-08T10:52:15Z</time>
      </trkpt>
      <trkpt lat="45.87988" lon="4.66143">
        <ele>349</ele>
        <time>2016-11-08T10:52:17Z</time>
      </trkpt>
      <trkpt lat="45.87991" lon="4.66143">
        <ele>349</ele>
        <time>2016-11-08T10:52:18Z</time>
      </trkpt>
      <trkpt lat="45.87998" lon="4.66141">
        <ele>348</ele>
        <time>2016-11-08T10:52:20Z</time>
      </trkpt>
      <trkpt lat="45.88001" lon="4.66141">
        <ele>348</ele>
        <time>2016-11-08T10:52:21Z</time>
      </trkpt>
      <trkpt lat="45.88008" lon="4.6614">
        <ele>348</ele>
        <time>2016-11-08T10:52:23Z</time>
      </trkpt>
      <trkpt lat="45.88012" lon="4.66139">
        <ele>348</ele>
        <time>2016-11-08T10:52:24Z</time>
      </trkpt>
      <trkpt lat="45.88019" lon="4.66138">
        <ele>348</ele>
        <time>2016-11-08T10:52:26Z</time>
      </trkpt>
      <trkpt lat="45.88022" lon="4.66138">
        <ele>348</ele>
        <time>2016-11-08T10:52:27Z</time>
      </trkpt>
      <trkpt lat="45.88029" lon="4.66137">
        <ele>347</ele>
        <time>2016-11-08T10:52:29Z</time>
      </trkpt>
      <trkpt lat="45.88033" lon="4.66138">
        <ele>347</ele>
        <time>2016-11-08T10:52:30Z</time>
      </trkpt>
      <trkpt lat="45.88039" lon="4.66138">
        <ele>347</ele>
        <time>2016-11-08T10:52:32Z</time>
      </trkpt>
      <trkpt lat="45.88042" lon="4.66138">
        <ele>347</ele>
        <time>2016-11-08T10:52:33Z</time>
      </trkpt>
      <trkpt lat="45.8805" lon="4.66137">
        <ele>347</ele>
        <time>2016-11-08T10:52:35Z</time>
      </trkpt>
      <trkpt lat="45.88053" lon="4.66137">
        <ele>347</ele>
        <time>2016-11-08T10:52:36Z</time>
      </trkpt>
      <trkpt lat="45.88062" lon="4.66136">
        <ele>348</ele>
        <time>2016-11-08T10:52:39Z</time>
      </trkpt>
      <trkpt lat="45.88065" lon="4.66136">
        <ele>348</ele>
        <time>2016-11-08T10:52:40Z</time>
      </trkpt>
      <trkpt lat="45.88073" lon="4.66136">
        <ele>348</ele>
        <time>2016-11-08T10:52:43Z</time>
      </trkpt>
      <trkpt lat="45.88076" lon="4.66136">
        <ele>348</ele>
        <time>2016-11-08T10:52:44Z</time>
      </trkpt>
      <trkpt lat="45.88085" lon="4.66134">
        <ele>349</ele>
        <time>2016-11-08T10:52:47Z</time>
      </trkpt>
      <trkpt lat="45.88088" lon="4.66133">
        <ele>349</ele>
        <time>2016-11-08T10:52:48Z</time>
      </trkpt>
      <trkpt lat="45.88094" lon="4.66133">
        <ele>349</ele>
        <time>2016-11-08T10:52:50Z</time>
      </trkpt>
      <trkpt lat="45.88097" lon="4.66134">
        <ele>349</ele>
        <time>2016-11-08T10:52:51Z</time>
      </trkpt>
      <trkpt lat="45.88104" lon="4.66134">
        <ele>349</ele>
        <time>2016-11-08T10:52:53Z</time>
      </trkpt>
      <trkpt lat="45.88107" lon="4.66134">
        <ele>349</ele>
        <time>2016-11-08T10:52:54Z</time>
      </trkpt>
      <trkpt lat="45.88114" lon="4.66134">
        <ele>349</ele>
        <time>2016-11-08T10:52:56Z</time>
      </trkpt>
      <trkpt lat="45.88118" lon="4.66135">
        <ele>349</ele>
        <time>2016-11-08T10:52:57Z</time>
      </trkpt>
      <trkpt lat="45.88126" lon="4.66135">
        <ele>349</ele>
        <time>2016-11-08T10:52:59Z</time>
      </trkpt>
      <trkpt lat="45.88129" lon="4.66135">
        <ele>349</ele>
        <time>2016-11-08T10:53:00Z</time>
      </trkpt>
      <trkpt lat="45.88136" lon="4.66134">
        <ele>349</ele>
        <time>2016-11-08T10:53:02Z</time>
      </trkpt>
      <trkpt lat="45.8814" lon="4.66135">
        <ele>349</ele>
        <time>2016-11-08T10:53:03Z</time>
      </trkpt>
      <trkpt lat="45.88147" lon="4.66133">
        <ele>349</ele>
        <time>2016-11-08T10:53:05Z</time>
      </trkpt>
      <trkpt lat="45.88151" lon="4.66132">
        <ele>349</ele>
        <time>2016-11-08T10:53:06Z</time>
      </trkpt>
      <trkpt lat="45.88158" lon="4.66129">
        <ele>349</ele>
        <time>2016-11-08T10:53:08Z</time>
      </trkpt>
      <trkpt lat="45.88162" lon="4.66129">
        <ele>349</ele>
        <time>2016-11-08T10:53:09Z</time>
      </trkpt>
      <trkpt lat="45.88169" lon="4.66128">
        <ele>350</ele>
        <time>2016-11-08T10:53:11Z</time>
      </trkpt>
      <trkpt lat="45.88173" lon="4.66128">
        <ele>350</ele>
        <time>2016-11-08T10:53:12Z</time>
      </trkpt>
      <trkpt lat="45.88179" lon="4.66129">
        <ele>350</ele>
        <time>2016-11-08T10:53:14Z</time>
      </trkpt>
      <trkpt lat="45.88183" lon="4.66129">
        <ele>350</ele>
        <time>2016-11-08T10:53:15Z</time>
      </trkpt>
      <trkpt lat="45.88192" lon="4.66131">
        <ele>350</ele>
        <time>2016-11-08T10:53:18Z</time>
      </trkpt>
      <trkpt lat="45.88195" lon="4.66131">
        <ele>350</ele>
        <time>2016-11-08T10:53:19Z</time>
      </trkpt>
      <trkpt lat="45.88203" lon="4.66132">
        <ele>350</ele>
        <time>2016-11-08T10:53:22Z</time>
      </trkpt>
      <trkpt lat="45.88207" lon="4.66132">
        <ele>350</ele>
        <time>2016-11-08T10:53:23Z</time>
      </trkpt>
      <trkpt lat="45.88213" lon="4.66132">
        <ele>350</ele>
        <time>2016-11-08T10:53:25Z</time>
      </trkpt>
      <trkpt lat="45.88217" lon="4.66132">
        <ele>350</ele>
        <time>2016-11-08T10:53:26Z</time>
      </trkpt>
      <trkpt lat="45.88223" lon="4.66132">
        <ele>350</ele>
        <time>2016-11-08T10:53:28Z</time>
      </trkpt>
      <trkpt lat="45.88226" lon="4.66132">
        <ele>350</ele>
        <time>2016-11-08T10:53:29Z</time>
      </trkpt>
      <trkpt lat="45.88232" lon="4.66133">
        <ele>350</ele>
        <time>2016-11-08T10:53:31Z</time>
      </trkpt>
      <trkpt lat="45.88235" lon="4.66133">
        <ele>350</ele>
        <time>2016-11-08T10:53:32Z</time>
      </trkpt>
      <trkpt lat="45.88243" lon="4.66133">
        <ele>350</ele>
        <time>2016-11-08T10:53:35Z</time>
      </trkpt>
      <trkpt lat="45.88246" lon="4.66133">
        <ele>350</ele>
        <time>2016-11-08T10:53:36Z</time>
      </trkpt>
      <trkpt lat="45.88252" lon="4.66135">
        <ele>352</ele>
        <time>2016-11-08T10:53:38Z</time>
      </trkpt>
      <trkpt lat="45.88255" lon="4.66135">
        <ele>352</ele>
        <time>2016-11-08T10:53:39Z</time>
      </trkpt>
      <trkpt lat="45.88261" lon="4.66135">
        <ele>352</ele>
        <time>2016-11-08T10:53:41Z</time>
      </trkpt>
      <trkpt lat="45.88264" lon="4.66135">
        <ele>352</ele>
        <time>2016-11-08T10:53:42Z</time>
      </trkpt>
      <trkpt lat="45.88271" lon="4.66135">
        <ele>352</ele>
        <time>2016-11-08T10:53:44Z</time>
      </trkpt>
      <trkpt lat="45.88274" lon="4.66135">
        <ele>352</ele>
        <time>2016-11-08T10:53:45Z</time>
      </trkpt>
      <trkpt lat="45.88282" lon="4.66137">
        <ele>352</ele>
        <time>2016-11-08T10:53:48Z</time>
      </trkpt>
      <trkpt lat="45.88285" lon="4.66137">
        <ele>352</ele>
        <time>2016-11-08T10:53:49Z</time>
      </trkpt>
      <trkpt lat="45.88293" lon="4.66137">
        <ele>352</ele>
        <time>2016-11-08T10:53:52Z</time>
      </trkpt>
      <trkpt lat="45.88296" lon="4.66137">
        <ele>352</ele>
        <time>2016-11-08T10:53:53Z</time>
      </trkpt>
      <trkpt lat="45.88305" lon="4.66138">
        <ele>353</ele>
        <time>2016-11-08T10:53:56Z</time>
      </trkpt>
      <trkpt lat="45.88308" lon="4.66138">
        <ele>353</ele>
        <time>2016-11-08T10:53:57Z</time>
      </trkpt>
      <trkpt lat="45.88316" lon="4.66138">
        <ele>353</ele>
        <time>2016-11-08T10:54:00Z</time>
      </trkpt>
      <trkpt lat="45.88319" lon="4.66138">
        <ele>354</ele>
        <time>2016-11-08T10:54:01Z</time>
      </trkpt>
      <trkpt lat="45.88328" lon="4.6614">
        <ele>354</ele>
        <time>2016-11-08T10:54:04Z</time>
      </trkpt>
      <trkpt lat="45.88331" lon="4.6614">
        <ele>354</ele>
        <time>2016-11-08T10:54:05Z</time>
      </trkpt>
      <trkpt lat="45.88337" lon="4.66141">
        <ele>357</ele>
        <time>2016-11-08T10:54:07Z</time>
      </trkpt>
      <trkpt lat="45.8834" lon="4.66141">
        <ele>357</ele>
        <time>2016-11-08T10:54:08Z</time>
      </trkpt>
      <trkpt lat="45.88347" lon="4.66141">
        <ele>357</ele>
        <time>2016-11-08T10:54:10Z</time>
      </trkpt>
      <trkpt lat="45.8835" lon="4.66141">
        <ele>357</ele>
        <time>2016-11-08T10:54:11Z</time>
      </trkpt>
      <trkpt lat="45.88357" lon="4.66142">
        <ele>357</ele>
        <time>2016-11-08T10:54:14Z</time>
      </trkpt>
      <trkpt lat="45.8836" lon="4.66142">
        <ele>357</ele>
        <time>2016-11-08T10:54:15Z</time>
      </trkpt>
      <trkpt lat="45.88368" lon="4.66143">
        <ele>357</ele>
        <time>2016-11-08T10:54:18Z</time>
      </trkpt>
      <trkpt lat="45.88371" lon="4.66143">
        <ele>357</ele>
        <time>2016-11-08T10:54:19Z</time>
      </trkpt>
      <trkpt lat="45.88379" lon="4.66146">
        <ele>357</ele>
        <time>2016-11-08T10:54:22Z</time>
      </trkpt>
      <trkpt lat="45.88381" lon="4.66146">
        <ele>357</ele>
        <time>2016-11-08T10:54:23Z</time>
      </trkpt>
      <trkpt lat="45.88389" lon="4.66145">
        <ele>358</ele>
        <time>2016-11-08T10:54:26Z</time>
      </trkpt>
      <trkpt lat="45.88392" lon="4.66145">
        <ele>358</ele>
        <time>2016-11-08T10:54:27Z</time>
      </trkpt>
      <trkpt lat="45.88399" lon="4.66146">
        <ele>358</ele>
        <time>2016-11-08T10:54:30Z</time>
      </trkpt>
      <trkpt lat="45.88401" lon="4.66146">
        <ele>359</ele>
        <time>2016-11-08T10:54:31Z</time>
      </trkpt>
      <trkpt lat="45.8841" lon="4.66147">
        <ele>359</ele>
        <time>2016-11-08T10:54:35Z</time>
      </trkpt>
      <trkpt lat="45.88413" lon="4.66146">
        <ele>359</ele>
        <time>2016-11-08T10:54:36Z</time>
      </trkpt>
      <trkpt lat="45.8842" lon="4.66146">
        <ele>361</ele>
        <time>2016-11-08T10:54:39Z</time>
      </trkpt>
      <trkpt lat="45.88422" lon="4.66146">
        <ele>361</ele>
        <time>2016-11-08T10:54:40Z</time>
      </trkpt>
      <trkpt lat="45.8843" lon="4.66146">
        <ele>361</ele>
        <time>2016-11-08T10:54:44Z</time>
      </trkpt>
      <trkpt lat="45.88432" lon="4.66146">
        <ele>361</ele>
        <time>2016-11-08T10:54:45Z</time>
      </trkpt>
      <trkpt lat="45.8844" lon="4.66147">
        <ele>361</ele>
        <time>2016-11-08T10:54:49Z</time>
      </trkpt>
      <trkpt lat="45.88442" lon="4.66147">
        <ele>361</ele>
        <time>2016-11-08T10:54:50Z</time>
      </trkpt>
      <trkpt lat="45.8845" lon="4.66147">
        <ele>361</ele>
        <time>2016-11-08T10:54:54Z</time>
      </trkpt>
      <trkpt lat="45.88453" lon="4.66147">
        <ele>361</ele>
        <time>2016-11-08T10:54:55Z</time>
      </trkpt>
      <trkpt lat="45.8846" lon="4.66148">
        <ele>361</ele>
        <time>2016-11-08T10:54:59Z</time>
      </trkpt>
      <trkpt lat="45.88462" lon="4.66148">
        <ele>361</ele>
        <time>2016-11-08T10:55:00Z</time>
      </trkpt>
      <trkpt lat="45.88468" lon="4.6615">
        <ele>362</ele>
        <time>2016-11-08T10:55:03Z</time>
      </trkpt>
      <trkpt lat="45.88471" lon="4.66151">
        <ele>362</ele>
        <time>2016-11-08T10:55:04Z</time>
      </trkpt>
      <trkpt lat="45.88479" lon="4.66157">
        <ele>363</ele>
        <time>2016-11-08T10:55:08Z</time>
      </trkpt>
      <trkpt lat="45.8848" lon="4.66159">
        <ele>363</ele>
        <time>2016-11-08T10:55:09Z</time>
      </trkpt>
      <trkpt lat="45.88489" lon="4.66163">
        <ele>364</ele>
        <time>2016-11-08T10:55:13Z</time>
      </trkpt>
      <trkpt lat="45.88491" lon="4.66164">
        <ele>365</ele>
        <time>2016-11-08T10:55:14Z</time>
      </trkpt>
      <trkpt lat="45.88498" lon="4.66171">
        <ele>368</ele>
        <time>2016-11-08T10:55:18Z</time>
      </trkpt>
      <trkpt lat="45.885" lon="4.66173">
        <ele>368</ele>
        <time>2016-11-08T10:55:19Z</time>
      </trkpt>
      <trkpt lat="45.88506" lon="4.66178">
        <ele>368</ele>
        <time>2016-11-08T10:55:22Z</time>
      </trkpt>
      <trkpt lat="45.88508" lon="4.6618">
        <ele>369</ele>
        <time>2016-11-08T10:55:23Z</time>
      </trkpt>
      <trkpt lat="45.88516" lon="4.66187">
        <ele>369</ele>
        <time>2016-11-08T10:55:27Z</time>
      </trkpt>
      <trkpt lat="45.88518" lon="4.66188">
        <ele>369</ele>
        <time>2016-11-08T10:55:28Z</time>
      </trkpt>
      <trkpt lat="45.88526" lon="4.66193">
        <ele>369</ele>
        <time>2016-11-08T10:55:32Z</time>
      </trkpt>
      <trkpt lat="45.88528" lon="4.66194">
        <ele>369</ele>
        <time>2016-11-08T10:55:33Z</time>
      </trkpt>
      <trkpt lat="45.88534" lon="4.66199">
        <ele>370</ele>
        <time>2016-11-08T10:55:36Z</time>
      </trkpt>
      <trkpt lat="45.88536" lon="4.66202">
        <ele>370</ele>
        <time>2016-11-08T10:55:37Z</time>
      </trkpt>
      <trkpt lat="45.88543" lon="4.66208">
        <ele>370</ele>
        <time>2016-11-08T10:55:40Z</time>
      </trkpt>
      <trkpt lat="45.88545" lon="4.6621">
        <ele>370</ele>
        <time>2016-11-08T10:55:41Z</time>
      </trkpt>
      <trkpt lat="45.88551" lon="4.66215">
        <ele>370</ele>
        <time>2016-11-08T10:55:44Z</time>
      </trkpt>
      <trkpt lat="45.88553" lon="4.66217">
        <ele>370</ele>
        <time>2016-11-08T10:55:45Z</time>
      </trkpt>
      <trkpt lat="45.88558" lon="4.66223">
        <ele>370</ele>
        <time>2016-11-08T10:55:48Z</time>
      </trkpt>
      <trkpt lat="45.88561" lon="4.66225">
        <ele>370</ele>
        <time>2016-11-08T10:55:49Z</time>
      </trkpt>
      <trkpt lat="45.88567" lon="4.66233">
        <ele>370</ele>
        <time>2016-11-08T10:55:52Z</time>
      </trkpt>
      <trkpt lat="45.88568" lon="4.66235">
        <ele>371</ele>
        <time>2016-11-08T10:55:53Z</time>
      </trkpt>
      <trkpt lat="45.88574" lon="4.66242">
        <ele>371</ele>
        <time>2016-11-08T10:55:56Z</time>
      </trkpt>
      <trkpt lat="45.88576" lon="4.66245">
        <ele>371</ele>
        <time>2016-11-08T10:55:57Z</time>
      </trkpt>
      <trkpt lat="45.88582" lon="4.66251">
        <ele>372</ele>
        <time>2016-11-08T10:56:00Z</time>
      </trkpt>
      <trkpt lat="45.88584" lon="4.66254">
        <ele>371</ele>
        <time>2016-11-08T10:56:01Z</time>
      </trkpt>
      <trkpt lat="45.88589" lon="4.66261">
        <ele>372</ele>
        <time>2016-11-08T10:56:04Z</time>
      </trkpt>
      <trkpt lat="45.88591" lon="4.66264">
        <ele>372</ele>
        <time>2016-11-08T10:56:05Z</time>
      </trkpt>
      <trkpt lat="45.88597" lon="4.66272">
        <ele>372</ele>
        <time>2016-11-08T10:56:08Z</time>
      </trkpt>
      <trkpt lat="45.88599" lon="4.66275">
        <ele>372</ele>
        <time>2016-11-08T10:56:09Z</time>
      </trkpt>
      <trkpt lat="45.88604" lon="4.66284">
        <ele>373</ele>
        <time>2016-11-08T10:56:12Z</time>
      </trkpt>
      <trkpt lat="45.88605" lon="4.66287">
        <ele>373</ele>
        <time>2016-11-08T10:56:13Z</time>
      </trkpt>
      <trkpt lat="45.8861" lon="4.66296">
        <ele>373</ele>
        <time>2016-11-08T10:56:16Z</time>
      </trkpt>
      <trkpt lat="45.88612" lon="4.66299">
        <ele>373</ele>
        <time>2016-11-08T10:56:17Z</time>
      </trkpt>
      <trkpt lat="45.88617" lon="4.66308">
        <ele>373</ele>
        <time>2016-11-08T10:56:20Z</time>
      </trkpt>
      <trkpt lat="45.88619" lon="4.66312">
        <ele>374</ele>
        <time>2016-11-08T10:56:21Z</time>
      </trkpt>
      <trkpt lat="45.88623" lon="4.6632">
        <ele>374</ele>
        <time>2016-11-08T10:56:24Z</time>
      </trkpt>
      <trkpt lat="45.88625" lon="4.66323">
        <ele>374</ele>
        <time>2016-11-08T10:56:25Z</time>
      </trkpt>
      <trkpt lat="45.88631" lon="4.66332">
        <ele>373</ele>
        <time>2016-11-08T10:56:28Z</time>
      </trkpt>
      <trkpt lat="45.88632" lon="4.66336">
        <ele>380</ele>
        <time>2016-11-08T10:56:29Z</time>
      </trkpt>
      <trkpt lat="45.88637" lon="4.66345">
        <ele>379</ele>
        <time>2016-11-08T10:56:32Z</time>
      </trkpt>
      <trkpt lat="45.88639" lon="4.66348">
        <ele>379</ele>
        <time>2016-11-08T10:56:33Z</time>
      </trkpt>
      <trkpt lat="45.88645" lon="4.66357">
        <ele>380</ele>
        <time>2016-11-08T10:56:36Z</time>
      </trkpt>
      <trkpt lat="45.88646" lon="4.66359">
        <ele>380</ele>
        <time>2016-11-08T10:56:37Z</time>
      </trkpt>
      <trkpt lat="45.88653" lon="4.66368">
        <ele>380</ele>
        <time>2016-11-08T10:56:40Z</time>
      </trkpt>
      <trkpt lat="45.88655" lon="4.66371">
        <ele>380</ele>
        <time>2016-11-08T10:56:41Z</time>
      </trkpt>
      <trkpt lat="45.8866" lon="4.66379">
        <ele>381</ele>
        <time>2016-11-08T10:56:44Z</time>
      </trkpt>
      <trkpt lat="45.88662" lon="4.66382">
        <ele>381</ele>
        <time>2016-11-08T10:56:45Z</time>
      </trkpt>
      <trkpt lat="45.88669" lon="4.66389">
        <ele>378</ele>
        <time>2016-11-08T10:56:48Z</time>
      </trkpt>
      <trkpt lat="45.88671" lon="4.66391">
        <ele>378</ele>
        <time>2016-11-08T10:56:49Z</time>
      </trkpt>
      <trkpt lat="45.88679" lon="4.66398">
        <ele>378</ele>
        <time>2016-11-08T10:56:52Z</time>
      </trkpt>
      <trkpt lat="45.88681" lon="4.664">
        <ele>379</ele>
        <time>2016-11-08T10:56:53Z</time>
      </trkpt>
      <trkpt lat="45.88688" lon="4.66407">
        <ele>379</ele>
        <time>2016-11-08T10:56:56Z</time>
      </trkpt>
      <trkpt lat="45.8869" lon="4.66409">
        <ele>378</ele>
        <time>2016-11-08T10:56:57Z</time>
      </trkpt>
      <trkpt lat="45.88697" lon="4.66416">
        <ele>378</ele>
        <time>2016-11-08T10:57:00Z</time>
      </trkpt>
      <trkpt lat="45.88699" lon="4.66417">
        <ele>383</ele>
        <time>2016-11-08T10:57:01Z</time>
      </trkpt>
      <trkpt lat="45.88706" lon="4.66422">
        <ele>383</ele>
        <time>2016-11-08T10:57:04Z</time>
      </trkpt>
      <trkpt lat="45.88708" lon="4.66425">
        <ele>383</ele>
        <time>2016-11-08T10:57:05Z</time>
      </trkpt>
      <trkpt lat="45.88714" lon="4.66432">
        <ele>383</ele>
        <time>2016-11-08T10:57:08Z</time>
      </trkpt>
      <trkpt lat="45.88716" lon="4.66434">
        <ele>383</ele>
        <time>2016-11-08T10:57:09Z</time>
      </trkpt>
      <trkpt lat="45.88722" lon="4.66441">
        <ele>383</ele>
        <time>2016-11-08T10:57:12Z</time>
      </trkpt>
      <trkpt lat="45.88724" lon="4.66443">
        <ele>383</ele>
        <time>2016-11-08T10:57:13Z</time>
      </trkpt>
      <trkpt lat="45.88731" lon="4.66451">
        <ele>384</ele>
        <time>2016-11-08T10:57:16Z</time>
      </trkpt>
      <trkpt lat="45.88733" lon="4.66453">
        <ele>384</ele>
        <time>2016-11-08T10:57:17Z</time>
      </trkpt>
      <trkpt lat="45.8874" lon="4.66461">
        <ele>384</ele>
        <time>2016-11-08T10:57:20Z</time>
      </trkpt>
      <trkpt lat="45.88742" lon="4.66463">
        <ele>384</ele>
        <time>2016-11-08T10:57:21Z</time>
      </trkpt>
      <trkpt lat="45.88747" lon="4.66472">
        <ele>385</ele>
        <time>2016-11-08T10:57:24Z</time>
      </trkpt>
      <trkpt lat="45.88748" lon="4.66474">
        <ele>385</ele>
        <time>2016-11-08T10:57:25Z</time>
      </trkpt>
      <trkpt lat="45.88755" lon="4.6648">
        <ele>384</ele>
        <time>2016-11-08T10:57:28Z</time>
      </trkpt>
      <trkpt lat="45.88756" lon="4.66482">
        <ele>384</ele>
        <time>2016-11-08T10:57:29Z</time>
      </trkpt>
      <trkpt lat="45.88762" lon="4.66489">
        <ele>384</ele>
        <time>2016-11-08T10:57:32Z</time>
      </trkpt>
      <trkpt lat="45.88764" lon="4.66492">
        <ele>384</ele>
        <time>2016-11-08T10:57:33Z</time>
      </trkpt>
      <trkpt lat="45.88769" lon="4.66501">
        <ele>389</ele>
        <time>2016-11-08T10:57:36Z</time>
      </trkpt>
      <trkpt lat="45.88771" lon="4.66503">
        <ele>389</ele>
        <time>2016-11-08T10:57:37Z</time>
      </trkpt>
      <trkpt lat="45.88778" lon="4.66509">
        <ele>390</ele>
        <time>2016-11-08T10:57:40Z</time>
      </trkpt>
      <trkpt lat="45.8878" lon="4.66512">
        <ele>390</ele>
        <time>2016-11-08T10:57:41Z</time>
      </trkpt>
      <trkpt lat="45.88786" lon="4.6652">
        <ele>390</ele>
        <time>2016-11-08T10:57:45Z</time>
      </trkpt>
      <trkpt lat="45.88787" lon="4.66522">
        <ele>390</ele>
        <time>2016-11-08T10:57:46Z</time>
      </trkpt>
      <trkpt lat="45.88793" lon="4.66527">
        <ele>391</ele>
        <time>2016-11-08T10:57:49Z</time>
      </trkpt>
      <trkpt lat="45.88795" lon="4.66529">
        <ele>391</ele>
        <time>2016-11-08T10:57:50Z</time>
      </trkpt>
      <trkpt lat="45.88801" lon="4.66535">
        <ele>391</ele>
        <time>2016-11-08T10:57:53Z</time>
      </trkpt>
      <trkpt lat="45.88803" lon="4.66537">
        <ele>391</ele>
        <time>2016-11-08T10:57:54Z</time>
      </trkpt>
      <trkpt lat="45.88809" lon="4.66543">
        <ele>392</ele>
        <time>2016-11-08T10:57:57Z</time>
      </trkpt>
      <trkpt lat="45.88811" lon="4.66544">
        <ele>392</ele>
        <time>2016-11-08T10:57:58Z</time>
      </trkpt>
      <trkpt lat="45.88818" lon="4.66548">
        <ele>392</ele>
        <time>2016-11-08T10:58:02Z</time>
      </trkpt>
      <trkpt lat="45.8882" lon="4.66548">
        <ele>392</ele>
        <time>2016-11-08T10:58:03Z</time>
      </trkpt>
      <trkpt lat="45.88827" lon="4.66552">
        <ele>392</ele>
        <time>2016-11-08T10:58:07Z</time>
      </trkpt>
      <trkpt lat="45.88828" lon="4.66554">
        <ele>393</ele>
        <time>2016-11-08T10:58:08Z</time>
      </trkpt>
      <trkpt lat="45.88836" lon="4.66556">
        <ele>391</ele>
        <time>2016-11-08T10:58:12Z</time>
      </trkpt>
      <trkpt lat="45.88838" lon="4.66556">
        <ele>391</ele>
        <time>2016-11-08T10:58:13Z</time>
      </trkpt>
      <trkpt lat="45.88846" lon="4.66562">
        <ele>392</ele>
        <time>2016-11-08T10:58:17Z</time>
      </trkpt>
      <trkpt lat="45.88848" lon="4.66564">
        <ele>392</ele>
        <time>2016-11-08T10:58:18Z</time>
      </trkpt>
      <trkpt lat="45.88855" lon="4.66568">
        <ele>392</ele>
        <time>2016-11-08T10:58:21Z</time>
      </trkpt>
      <trkpt lat="45.88858" lon="4.6657">
        <ele>392</ele>
        <time>2016-11-08T10:58:22Z</time>
      </trkpt>
      <trkpt lat="45.88863" lon="4.66579">
        <ele>392</ele>
        <time>2016-11-08T10:58:26Z</time>
      </trkpt>
      <trkpt lat="45.88864" lon="4.66581">
        <ele>392</ele>
        <time>2016-11-08T10:58:27Z</time>
      </trkpt>
      <trkpt lat="45.88871" lon="4.66588">
        <ele>399</ele>
        <time>2016-11-08T10:58:31Z</time>
      </trkpt>
      <trkpt lat="45.88874" lon="4.6659">
        <ele>399</ele>
        <time>2016-11-08T10:58:32Z</time>
      </trkpt>
      <trkpt lat="45.8888" lon="4.66596">
        <ele>399</ele>
        <time>2016-11-08T10:58:35Z</time>
      </trkpt>
      <trkpt lat="45.88881" lon="4.66599">
        <ele>399</ele>
        <time>2016-11-08T10:58:36Z</time>
      </trkpt>
      <trkpt lat="45.88885" lon="4.66607">
        <ele>400</ele>
        <time>2016-11-08T10:58:39Z</time>
      </trkpt>
      <trkpt lat="45.88887" lon="4.6661">
        <ele>400</ele>
        <time>2016-11-08T10:58:40Z</time>
      </trkpt>
      <trkpt lat="45.88892" lon="4.6662">
        <ele>400</ele>
        <time>2016-11-08T10:58:45Z</time>
      </trkpt>
      <trkpt lat="45.88894" lon="4.66622">
        <ele>401</ele>
        <time>2016-11-08T10:58:46Z</time>
      </trkpt>
      <trkpt lat="45.88898" lon="4.6663">
        <ele>401</ele>
        <time>2016-11-08T10:58:49Z</time>
      </trkpt>
      <trkpt lat="45.88899" lon="4.66632">
        <ele>401</ele>
        <time>2016-11-08T10:58:50Z</time>
      </trkpt>
      <trkpt lat="45.88905" lon="4.66641">
        <ele>402</ele>
        <time>2016-11-08T10:58:54Z</time>
      </trkpt>
      <trkpt lat="45.88907" lon="4.66643">
        <ele>403</ele>
        <time>2016-11-08T10:58:55Z</time>
      </trkpt>
      <trkpt lat="45.88913" lon="4.66651">
        <ele>404</ele>
        <time>2016-11-08T10:58:58Z</time>
      </trkpt>
      <trkpt lat="45.88916" lon="4.66654">
        <ele>404</ele>
        <time>2016-11-08T10:58:59Z</time>
      </trkpt>
      <trkpt lat="45.88922" lon="4.66662">
        <ele>404</ele>
        <time>2016-11-08T10:59:02Z</time>
      </trkpt>
      <trkpt lat="45.88924" lon="4.66664">
        <ele>404</ele>
        <time>2016-11-08T10:59:03Z</time>
      </trkpt>
      <trkpt lat="45.8893" lon="4.6667">
        <ele>407</ele>
        <time>2016-11-08T10:59:06Z</time>
      </trkpt>
      <trkpt lat="45.88932" lon="4.66672">
        <ele>408</ele>
        <time>2016-11-08T10:59:07Z</time>
      </trkpt>
      <trkpt lat="45.88938" lon="4.66678">
        <ele>408</ele>
        <time>2016-11-08T10:59:10Z</time>
      </trkpt>
      <trkpt lat="45.8894" lon="4.66679">
        <ele>408</ele>
        <time>2016-11-08T10:59:11Z</time>
      </trkpt>
      <trkpt lat="45.88947" lon="4.66685">
        <ele>409</ele>
        <time>2016-11-08T10:59:14Z</time>
      </trkpt>
      <trkpt lat="45.8895" lon="4.66685">
        <ele>409</ele>
        <time>2016-11-08T10:59:15Z</time>
      </trkpt>
      <trkpt lat="45.88953" lon="4.66686">
        <ele>409</ele>
        <time>2016-11-08T10:59:16Z</time>
      </trkpt>
      <trkpt lat="45.8896" lon="4.6669">
        <ele>409</ele>
        <time>2016-11-08T10:59:19Z</time>
      </trkpt>
      <trkpt lat="45.88966" lon="4.66694">
        <ele>409</ele>
        <time>2016-11-08T10:59:21Z</time>
      </trkpt>
      <trkpt lat="45.88968" lon="4.66695">
        <ele>409</ele>
        <time>2016-11-08T10:59:22Z</time>
      </trkpt>
      <trkpt lat="45.88973" lon="4.66699">
        <ele>409</ele>
        <time>2016-11-08T10:59:24Z</time>
      </trkpt>
      <trkpt lat="45.88982" lon="4.66704">
        <ele>409</ele>
        <time>2016-11-08T10:59:27Z</time>
      </trkpt>
      <trkpt lat="45.88984" lon="4.66704">
        <ele>409</ele>
        <time>2016-11-08T10:59:28Z</time>
      </trkpt>
      <trkpt lat="45.88989" lon="4.66709">
        <ele>409</ele>
        <time>2016-11-08T10:59:30Z</time>
      </trkpt>
      <trkpt lat="45.88994" lon="4.66716">
        <ele>410</ele>
        <time>2016-11-08T10:59:32Z</time>
      </trkpt>
      <trkpt lat="45.88997" lon="4.66718">
        <ele>410</ele>
        <time>2016-11-08T10:59:33Z</time>
      </trkpt>
      <trkpt lat="45.89003" lon="4.66722">
        <ele>408</ele>
        <time>2016-11-08T10:59:35Z</time>
      </trkpt>
      <trkpt lat="45.89005" lon="4.66725">
        <ele>408</ele>
        <time>2016-11-08T10:59:36Z</time>
      </trkpt>
      <trkpt lat="45.89012" lon="4.66729">
        <ele>409</ele>
        <time>2016-11-08T10:59:39Z</time>
      </trkpt>
      <trkpt lat="45.89015" lon="4.66731">
        <ele>409</ele>
        <time>2016-11-08T10:59:40Z</time>
      </trkpt>
      <trkpt lat="45.89023" lon="4.66733">
        <ele>408</ele>
        <time>2016-11-08T10:59:42Z</time>
      </trkpt>
      <trkpt lat="45.89027" lon="4.66728">
        <ele>408</ele>
        <time>2016-11-08T10:59:43Z</time>
      </trkpt>
      <trkpt lat="45.89034" lon="4.66727">
        <ele>407</ele>
        <time>2016-11-08T10:59:44Z</time>
      </trkpt>
      <trkpt lat="45.89037" lon="4.66726">
        <ele>407</ele>
        <time>2016-11-08T10:59:45Z</time>
      </trkpt>
      <trkpt lat="45.89043" lon="4.66725">
        <ele>407</ele>
        <time>2016-11-08T10:59:48Z</time>
      </trkpt>
      <trkpt lat="45.89046" lon="4.66729">
        <ele>407</ele>
        <time>2016-11-08T10:59:49Z</time>
      </trkpt>
      <trkpt lat="45.89052" lon="4.66735">
        <ele>407</ele>
        <time>2016-11-08T10:59:51Z</time>
      </trkpt>
      <trkpt lat="45.89055" lon="4.66737">
        <ele>407</ele>
        <time>2016-11-08T10:59:52Z</time>
      </trkpt>
      <trkpt lat="45.89063" lon="4.6674">
        <ele>407</ele>
        <time>2016-11-08T10:59:55Z</time>
      </trkpt>
      <trkpt lat="45.89066" lon="4.66741">
        <ele>407</ele>
        <time>2016-11-08T10:59:56Z</time>
      </trkpt>
      <trkpt lat="45.89072" lon="4.66744">
        <ele>408</ele>
        <time>2016-11-08T10:59:58Z</time>
      </trkpt>
      <trkpt lat="45.89075" lon="4.66747">
        <ele>408</ele>
        <time>2016-11-08T10:59:59Z</time>
      </trkpt>
      <trkpt lat="45.8908" lon="4.66755">
        <ele>410</ele>
        <time>2016-11-08T11:00:02Z</time>
      </trkpt>
      <trkpt lat="45.89082" lon="4.66757">
        <ele>410</ele>
        <time>2016-11-08T11:00:03Z</time>
      </trkpt>
      <trkpt lat="45.89087" lon="4.66761">
        <ele>409</ele>
        <time>2016-11-08T11:00:05Z</time>
      </trkpt>
      <trkpt lat="45.8909" lon="4.66764">
        <ele>409</ele>
        <time>2016-11-08T11:00:06Z</time>
      </trkpt>
      <trkpt lat="45.89096" lon="4.66773">
        <ele>410</ele>
        <time>2016-11-08T11:00:09Z</time>
      </trkpt>
      <trkpt lat="45.89098" lon="4.66777">
        <ele>410</ele>
        <time>2016-11-08T11:00:10Z</time>
      </trkpt>
      <trkpt lat="45.89102" lon="4.66788">
        <ele>410</ele>
        <time>2016-11-08T11:00:12Z</time>
      </trkpt>
      <trkpt lat="45.89105" lon="4.66792">
        <ele>410</ele>
        <time>2016-11-08T11:00:13Z</time>
      </trkpt>
      <trkpt lat="45.89111" lon="4.66798">
        <ele>410</ele>
        <time>2016-11-08T11:00:15Z</time>
      </trkpt>
      <trkpt lat="45.89116" lon="4.66796">
        <ele>410</ele>
        <time>2016-11-08T11:00:16Z</time>
      </trkpt>
      <trkpt lat="45.89124" lon="4.66794">
        <ele>410</ele>
        <time>2016-11-08T11:00:18Z</time>
      </trkpt>
      <trkpt lat="45.89129" lon="4.6679">
        <ele>410</ele>
        <time>2016-11-08T11:00:19Z</time>
      </trkpt>
      <trkpt lat="45.89136" lon="4.66793">
        <ele>410</ele>
        <time>2016-11-08T11:00:21Z</time>
      </trkpt>
      <trkpt lat="45.89147" lon="4.668">
        <ele>410</ele>
        <time>2016-11-08T11:00:24Z</time>
      </trkpt>
      <trkpt lat="45.89153" lon="4.66808">
        <ele>411</ele>
        <time>2016-11-08T11:00:26Z</time>
      </trkpt>
      <trkpt lat="45.89156" lon="4.66813">
        <ele>411</ele>
        <time>2016-11-08T11:00:27Z</time>
      </trkpt>
      <trkpt lat="45.89157" lon="4.66821">
        <ele>412</ele>
        <time>2016-11-08T11:00:28Z</time>
      </trkpt>
      <trkpt lat="45.89154" lon="4.66829">
        <ele>412</ele>
        <time>2016-11-08T11:00:29Z</time>
      </trkpt>
      <trkpt lat="45.89153" lon="4.66835">
        <ele>414</ele>
        <time>2016-11-08T11:00:30Z</time>
      </trkpt>
      <trkpt lat="45.89151" lon="4.66841">
        <ele>414</ele>
        <time>2016-11-08T11:00:31Z</time>
      </trkpt>
      <trkpt lat="45.89146" lon="4.66852">
        <ele>414</ele>
        <time>2016-11-08T11:00:33Z</time>
      </trkpt>
      <trkpt lat="45.89144" lon="4.66857">
        <ele>414</ele>
        <time>2016-11-08T11:00:34Z</time>
      </trkpt>
      <trkpt lat="45.89146" lon="4.66868">
        <ele>414</ele>
        <time>2016-11-08T11:00:36Z</time>
      </trkpt>
      <trkpt lat="45.89148" lon="4.66873">
        <ele>414</ele>
        <time>2016-11-08T11:00:37Z</time>
      </trkpt>
      <trkpt lat="45.89153" lon="4.66887">
        <ele>414</ele>
        <time>2016-11-08T11:00:40Z</time>
      </trkpt>
      <trkpt lat="45.89158" lon="4.66897">
        <ele>415</ele>
        <time>2016-11-08T11:00:42Z</time>
      </trkpt>
      <trkpt lat="45.89159" lon="4.66903">
        <ele>415</ele>
        <time>2016-11-08T11:00:43Z</time>
      </trkpt>
      <trkpt lat="45.89163" lon="4.66914">
        <ele>415</ele>
        <time>2016-11-08T11:00:45Z</time>
      </trkpt>
      <trkpt lat="45.89164" lon="4.66919">
        <ele>414</ele>
        <time>2016-11-08T11:00:46Z</time>
      </trkpt>
      <trkpt lat="45.89167" lon="4.66931">
        <ele>413</ele>
        <time>2016-11-08T11:00:48Z</time>
      </trkpt>
      <trkpt lat="45.89169" lon="4.66936">
        <ele>415</ele>
        <time>2016-11-08T11:00:49Z</time>
      </trkpt>
      <trkpt lat="45.89172" lon="4.66946">
        <ele>415</ele>
        <time>2016-11-08T11:00:51Z</time>
      </trkpt>
      <trkpt lat="45.89173" lon="4.66951">
        <ele>415</ele>
        <time>2016-11-08T11:00:52Z</time>
      </trkpt>
      <trkpt lat="45.89176" lon="4.66962">
        <ele>415</ele>
        <time>2016-11-08T11:00:55Z</time>
      </trkpt>
      <trkpt lat="45.89177" lon="4.66967">
        <ele>415</ele>
        <time>2016-11-08T11:00:56Z</time>
      </trkpt>
      <trkpt lat="45.89179" lon="4.66972">
        <ele>415</ele>
        <time>2016-11-08T11:00:57Z</time>
      </trkpt>
      <trkpt lat="45.8918" lon="4.66979">
        <ele>414</ele>
        <time>2016-11-08T11:00:58Z</time>
      </trkpt>
      <trkpt lat="45.89182" lon="4.66986">
        <ele>414</ele>
        <time>2016-11-08T11:00:59Z</time>
      </trkpt>
      <trkpt lat="45.89183" lon="4.66993">
        <ele>414</ele>
        <time>2016-11-08T11:01:00Z</time>
      </trkpt>
      <trkpt lat="45.89186" lon="4.67">
        <ele>414</ele>
        <time>2016-11-08T11:01:01Z</time>
      </trkpt>
      <trkpt lat="45.89188" lon="4.67006">
        <ele>413</ele>
        <time>2016-11-08T11:01:02Z</time>
      </trkpt>
      <trkpt lat="45.8919" lon="4.67013">
        <ele>413</ele>
        <time>2016-11-08T11:01:03Z</time>
      </trkpt>
      <trkpt lat="45.89192" lon="4.6702">
        <ele>413</ele>
        <time>2016-11-08T11:01:04Z</time>
      </trkpt>
      <trkpt lat="45.89193" lon="4.67026">
        <ele>413</ele>
        <time>2016-11-08T11:01:05Z</time>
      </trkpt>
      <trkpt lat="45.89194" lon="4.67032">
        <ele>413</ele>
        <time>2016-11-08T11:01:06Z</time>
      </trkpt>
      <trkpt lat="45.89197" lon="4.67043">
        <ele>413</ele>
        <time>2016-11-08T11:01:08Z</time>
      </trkpt>
      <trkpt lat="45.89199" lon="4.67048">
        <ele>413</ele>
        <time>2016-11-08T11:01:09Z</time>
      </trkpt>
      <trkpt lat="45.89203" lon="4.67059">
        <ele>412</ele>
        <time>2016-11-08T11:01:11Z</time>
      </trkpt>
      <trkpt lat="45.89205" lon="4.67065">
        <ele>412</ele>
        <time>2016-11-08T11:01:12Z</time>
      </trkpt>
      <trkpt lat="45.89208" lon="4.67075">
        <ele>412</ele>
        <time>2016-11-08T11:01:14Z</time>
      </trkpt>
      <trkpt lat="45.89209" lon="4.67081">
        <ele>412</ele>
        <time>2016-11-08T11:01:15Z</time>
      </trkpt>
      <trkpt lat="45.89211" lon="4.67087">
        <ele>410</ele>
        <time>2016-11-08T11:01:16Z</time>
      </trkpt>
      <trkpt lat="45.89213" lon="4.67093">
        <ele>410</ele>
        <time>2016-11-08T11:01:17Z</time>
      </trkpt>
      <trkpt lat="45.89216" lon="4.67099">
        <ele>411</ele>
        <time>2016-11-08T11:01:18Z</time>
      </trkpt>
      <trkpt lat="45.89218" lon="4.67104">
        <ele>411</ele>
        <time>2016-11-08T11:01:19Z</time>
      </trkpt>
      <trkpt lat="45.8922" lon="4.6711">
        <ele>411</ele>
        <time>2016-11-08T11:01:20Z</time>
      </trkpt>
      <trkpt lat="45.89224" lon="4.67115">
        <ele>411</ele>
        <time>2016-11-08T11:01:21Z</time>
      </trkpt>
      <trkpt lat="45.89227" lon="4.6712">
        <ele>411</ele>
        <time>2016-11-08T11:01:22Z</time>
      </trkpt>
      <trkpt lat="45.8923" lon="4.67125">
        <ele>411</ele>
        <time>2016-11-08T11:01:23Z</time>
      </trkpt>
      <trkpt lat="45.89233" lon="4.67131">
        <ele>411</ele>
        <time>2016-11-08T11:01:24Z</time>
      </trkpt>
      <trkpt lat="45.89235" lon="4.67137">
        <ele>411</ele>
        <time>2016-11-08T11:01:25Z</time>
      </trkpt>
      <trkpt lat="45.89238" lon="4.67142">
        <ele>411</ele>
        <time>2016-11-08T11:01:26Z</time>
      </trkpt>
      <trkpt lat="45.89242" lon="4.67147">
        <ele>411</ele>
        <time>2016-11-08T11:01:27Z</time>
      </trkpt>
      <trkpt lat="45.89245" lon="4.67151">
        <ele>411</ele>
        <time>2016-11-08T11:01:28Z</time>
      </trkpt>
      <trkpt lat="45.89248" lon="4.67156">
        <ele>412</ele>
        <time>2016-11-08T11:01:29Z</time>
      </trkpt>
      <trkpt lat="45.89252" lon="4.6716">
        <ele>414</ele>
        <time>2016-11-08T11:01:30Z</time>
      </trkpt>
      <trkpt lat="45.89255" lon="4.67165">
        <ele>414</ele>
        <time>2016-11-08T11:01:31Z</time>
      </trkpt>
      <trkpt lat="45.89259" lon="4.67169">
        <ele>412</ele>
        <time>2016-11-08T11:01:32Z</time>
      </trkpt>
      <trkpt lat="45.89263" lon="4.67173">
        <ele>412</ele>
        <time>2016-11-08T11:01:33Z</time>
      </trkpt>
      <trkpt lat="45.89266" lon="4.67177">
        <ele>412</ele>
        <time>2016-11-08T11:01:34Z</time>
      </trkpt>
      <trkpt lat="45.89271" lon="4.67181">
        <ele>412</ele>
        <time>2016-11-08T11:01:35Z</time>
      </trkpt>
      <trkpt lat="45.89275" lon="4.67185">
        <ele>412</ele>
        <time>2016-11-08T11:01:36Z</time>
      </trkpt>
      <trkpt lat="45.89279" lon="4.67188">
        <ele>412</ele>
        <time>2016-11-08T11:01:37Z</time>
      </trkpt>
      <trkpt lat="45.89283" lon="4.67191">
        <ele>412</ele>
        <time>2016-11-08T11:01:38Z</time>
      </trkpt>
      <trkpt lat="45.89287" lon="4.67194">
        <ele>412</ele>
        <time>2016-11-08T11:01:39Z</time>
      </trkpt>
      <trkpt lat="45.89291" lon="4.67197">
        <ele>412</ele>
        <time>2016-11-08T11:01:40Z</time>
      </trkpt>
      <trkpt lat="45.89296" lon="4.67199">
        <ele>412</ele>
        <time>2016-11-08T11:01:41Z</time>
      </trkpt>
      <trkpt lat="45.893" lon="4.67201">
        <ele>412</ele>
        <time>2016-11-08T11:01:42Z</time>
      </trkpt>
      <trkpt lat="45.89304" lon="4.67203">
        <ele>412</ele>
        <time>2016-11-08T11:01:43Z</time>
      </trkpt>
      <trkpt lat="45.89313" lon="4.67207">
        <ele>412</ele>
        <time>2016-11-08T11:01:45Z</time>
      </trkpt>
      <trkpt lat="45.89317" lon="4.67209">
        <ele>412</ele>
        <time>2016-11-08T11:01:46Z</time>
      </trkpt>
      <trkpt lat="45.89325" lon="4.67211">
        <ele>412</ele>
        <time>2016-11-08T11:01:48Z</time>
      </trkpt>
      <trkpt lat="45.89329" lon="4.67212">
        <ele>412</ele>
        <time>2016-11-08T11:01:49Z</time>
      </trkpt>
      <trkpt lat="45.89337" lon="4.67214">
        <ele>415</ele>
        <time>2016-11-08T11:01:51Z</time>
      </trkpt>
      <trkpt lat="45.8934" lon="4.67216">
        <ele>415</ele>
        <time>2016-11-08T11:01:52Z</time>
      </trkpt>
      <trkpt lat="45.89343" lon="4.67226">
        <ele>414</ele>
        <time>2016-11-08T11:04:00Z</time>
      </trkpt>
      <trkpt lat="45.89344" lon="4.67228">
        <ele>414</ele>
        <time>2016-11-08T11:04:01Z</time>
      </trkpt>
      <trkpt lat="45.89348" lon="4.67235">
        <ele>414</ele>
        <time>2016-11-08T11:04:03Z</time>
      </trkpt>
      <trkpt lat="45.89351" lon="4.67239">
        <ele>414</ele>
        <time>2016-11-08T11:04:04Z</time>
      </trkpt>
      <trkpt lat="45.89354" lon="4.67243">
        <ele>414</ele>
        <time>2016-11-08T11:04:05Z</time>
      </trkpt>
      <trkpt lat="45.89357" lon="4.67248">
        <ele>414</ele>
        <time>2016-11-08T11:04:06Z</time>
      </trkpt>
      <trkpt lat="45.89361" lon="4.67253">
        <ele>409</ele>
        <time>2016-11-08T11:04:07Z</time>
      </trkpt>
      <trkpt lat="45.89364" lon="4.67258">
        <ele>409</ele>
        <time>2016-11-08T11:04:08Z</time>
      </trkpt>
      <trkpt lat="45.89367" lon="4.67263">
        <ele>409</ele>
        <time>2016-11-08T11:04:09Z</time>
      </trkpt>
      <trkpt lat="45.8937" lon="4.67268">
        <ele>409</ele>
        <time>2016-11-08T11:04:10Z</time>
      </trkpt>
      <trkpt lat="45.89373" lon="4.67273">
        <ele>408</ele>
        <time>2016-11-08T11:04:11Z</time>
      </trkpt>
      <trkpt lat="45.89375" lon="4.67279">
        <ele>408</ele>
        <time>2016-11-08T11:04:12Z</time>
      </trkpt>
      <trkpt lat="45.89378" lon="4.67284">
        <ele>408</ele>
        <time>2016-11-08T11:04:13Z</time>
      </trkpt>
      <trkpt lat="45.89382" lon="4.67288">
        <ele>408</ele>
        <time>2016-11-08T11:04:14Z</time>
      </trkpt>
      <trkpt lat="45.89385" lon="4.67293">
        <ele>408</ele>
        <time>2016-11-08T11:04:15Z</time>
      </trkpt>
      <trkpt lat="45.89388" lon="4.67297">
        <ele>408</ele>
        <time>2016-11-08T11:04:16Z</time>
      </trkpt>
      <trkpt lat="45.89392" lon="4.67302">
        <ele>408</ele>
        <time>2016-11-08T11:04:17Z</time>
      </trkpt>
      <trkpt lat="45.89395" lon="4.67307">
        <ele>408</ele>
        <time>2016-11-08T11:04:18Z</time>
      </trkpt>
      <trkpt lat="45.89399" lon="4.67312">
        <ele>407</ele>
        <time>2016-11-08T11:04:19Z</time>
      </trkpt>
      <trkpt lat="45.89402" lon="4.67317">
        <ele>407</ele>
        <time>2016-11-08T11:04:20Z</time>
      </trkpt>
      <trkpt lat="45.89406" lon="4.67321">
        <ele>407</ele>
        <time>2016-11-08T11:04:21Z</time>
      </trkpt>
      <trkpt lat="45.8941" lon="4.67325">
        <ele>407</ele>
        <time>2016-11-08T11:04:22Z</time>
      </trkpt>
      <trkpt lat="45.89414" lon="4.6733">
        <ele>407</ele>
        <time>2016-11-08T11:04:23Z</time>
      </trkpt>
      <trkpt lat="45.89418" lon="4.67334">
        <ele>407</ele>
        <time>2016-11-08T11:04:24Z</time>
      </trkpt>
      <trkpt lat="45.89423" lon="4.67339">
        <ele>407</ele>
        <time>2016-11-08T11:04:25Z</time>
      </trkpt>
      <trkpt lat="45.89427" lon="4.67343">
        <ele>407</ele>
        <time>2016-11-08T11:04:26Z</time>
      </trkpt>
      <trkpt lat="45.89431" lon="4.67348">
        <ele>407</ele>
        <time>2016-11-08T11:04:27Z</time>
      </trkpt>
      <trkpt lat="45.89435" lon="4.67353">
        <ele>407</ele>
        <time>2016-11-08T11:04:28Z</time>
      </trkpt>
      <trkpt lat="45.89439" lon="4.67358">
        <ele>407</ele>
        <time>2016-11-08T11:04:29Z</time>
      </trkpt>
      <trkpt lat="45.89443" lon="4.67363">
        <ele>407</ele>
        <time>2016-11-08T11:04:30Z</time>
      </trkpt>
      <trkpt lat="45.89448" lon="4.67367">
        <ele>407</ele>
        <time>2016-11-08T11:04:31Z</time>
      </trkpt>
      <trkpt lat="45.89453" lon="4.67371">
        <ele>407</ele>
        <time>2016-11-08T11:04:32Z</time>
      </trkpt>
      <trkpt lat="45.89458" lon="4.67375">
        <ele>407</ele>
        <time>2016-11-08T11:04:33Z</time>
      </trkpt>
      <trkpt lat="45.89463" lon="4.67379">
        <ele>407</ele>
        <time>2016-11-08T11:04:34Z</time>
      </trkpt>
      <trkpt lat="45.89467" lon="4.67383">
        <ele>407</ele>
        <time>2016-11-08T11:04:35Z</time>
      </trkpt>
      <trkpt lat="45.89472" lon="4.67387">
        <ele>407</ele>
        <time>2016-11-08T11:04:36Z</time>
      </trkpt>
      <trkpt lat="45.89477" lon="4.67391">
        <ele>407</ele>
        <time>2016-11-08T11:04:37Z</time>
      </trkpt>
      <trkpt lat="45.89482" lon="4.67395">
        <ele>406</ele>
        <time>2016-11-08T11:04:38Z</time>
      </trkpt>
      <trkpt lat="45.89487" lon="4.67398">
        <ele>406</ele>
        <time>2016-11-08T11:04:39Z</time>
      </trkpt>
      <trkpt lat="45.89492" lon="4.67402">
        <ele>406</ele>
        <time>2016-11-08T11:04:40Z</time>
      </trkpt>
      <trkpt lat="45.89498" lon="4.67405">
        <ele>405</ele>
        <time>2016-11-08T11:04:41Z</time>
      </trkpt>
      <trkpt lat="45.89503" lon="4.67409">
        <ele>407</ele>
        <time>2016-11-08T11:04:42Z</time>
      </trkpt>
      <trkpt lat="45.89509" lon="4.67413">
        <ele>407</ele>
        <time>2016-11-08T11:04:43Z</time>
      </trkpt>
      <trkpt lat="45.89514" lon="4.67417">
        <ele>403</ele>
        <time>2016-11-08T11:04:44Z</time>
      </trkpt>
      <trkpt lat="45.89519" lon="4.6742">
        <ele>402</ele>
        <time>2016-11-08T11:04:45Z</time>
      </trkpt>
      <trkpt lat="45.89525" lon="4.67423">
        <ele>402</ele>
        <time>2016-11-08T11:04:46Z</time>
      </trkpt>
      <trkpt lat="45.8953" lon="4.67426">
        <ele>402</ele>
        <time>2016-11-08T11:04:47Z</time>
      </trkpt>
      <trkpt lat="45.89536" lon="4.67428">
        <ele>402</ele>
        <time>2016-11-08T11:04:48Z</time>
      </trkpt>
      <trkpt lat="45.89542" lon="4.67431">
        <ele>402</ele>
        <time>2016-11-08T11:04:49Z</time>
      </trkpt>
      <trkpt lat="45.89547" lon="4.67433">
        <ele>402</ele>
        <time>2016-11-08T11:04:50Z</time>
      </trkpt>
      <trkpt lat="45.89553" lon="4.67435">
        <ele>402</ele>
        <time>2016-11-08T11:04:51Z</time>
      </trkpt>
      <trkpt lat="45.89558" lon="4.67436">
        <ele>402</ele>
        <time>2016-11-08T11:04:52Z</time>
      </trkpt>
      <trkpt lat="45.89564" lon="4.67437">
        <ele>403</ele>
        <time>2016-11-08T11:04:53Z</time>
      </trkpt>
      <trkpt lat="45.8957" lon="4.67439">
        <ele>403</ele>
        <time>2016-11-08T11:04:54Z</time>
      </trkpt>
      <trkpt lat="45.89575" lon="4.67442">
        <ele>403</ele>
        <time>2016-11-08T11:04:55Z</time>
      </trkpt>
      <trkpt lat="45.89581" lon="4.67444">
        <ele>403</ele>
        <time>2016-11-08T11:04:56Z</time>
      </trkpt>
      <trkpt lat="45.89587" lon="4.67446">
        <ele>404</ele>
        <time>2016-11-08T11:04:57Z</time>
      </trkpt>
      <trkpt lat="45.89593" lon="4.67448">
        <ele>404</ele>
        <time>2016-11-08T11:04:58Z</time>
      </trkpt>
      <trkpt lat="45.89599" lon="4.6745">
        <ele>404</ele>
        <time>2016-11-08T11:04:59Z</time>
      </trkpt>
      <trkpt lat="45.89605" lon="4.67452">
        <ele>404</ele>
        <time>2016-11-08T11:05:00Z</time>
      </trkpt>
      <trkpt lat="45.89611" lon="4.67454">
        <ele>403</ele>
        <time>2016-11-08T11:05:01Z</time>
      </trkpt>
      <trkpt lat="45.89618" lon="4.67456">
        <ele>403</ele>
        <time>2016-11-08T11:05:02Z</time>
      </trkpt>
      <trkpt lat="45.89625" lon="4.67459">
        <ele>403</ele>
        <time>2016-11-08T11:05:03Z</time>
      </trkpt>
      <trkpt lat="45.89631" lon="4.67461">
        <ele>403</ele>
        <time>2016-11-08T11:05:04Z</time>
      </trkpt>
      <trkpt lat="45.89637" lon="4.67464">
        <ele>403</ele>
        <time>2016-11-08T11:05:05Z</time>
      </trkpt>
      <trkpt lat="45.89643" lon="4.67466">
        <ele>403</ele>
        <time>2016-11-08T11:05:06Z</time>
      </trkpt>
      <trkpt lat="45.89649" lon="4.67468">
        <ele>403</ele>
        <time>2016-11-08T11:05:07Z</time>
      </trkpt>
      <trkpt lat="45.89655" lon="4.6747">
        <ele>403</ele>
        <time>2016-11-08T11:05:08Z</time>
      </trkpt>
      <trkpt lat="45.89661" lon="4.67472">
        <ele>402</ele>
        <time>2016-11-08T11:05:09Z</time>
      </trkpt>
      <trkpt lat="45.89667" lon="4.67474">
        <ele>402</ele>
        <time>2016-11-08T11:05:10Z</time>
      </trkpt>
      <trkpt lat="45.89672" lon="4.67476">
        <ele>402</ele>
        <time>2016-11-08T11:05:11Z</time>
      </trkpt>
      <trkpt lat="45.89678" lon="4.67479">
        <ele>402</ele>
        <time>2016-11-08T11:05:12Z</time>
      </trkpt>
      <trkpt lat="45.89683" lon="4.67481">
        <ele>402</ele>
        <time>2016-11-08T11:05:13Z</time>
      </trkpt>
      <trkpt lat="45.89689" lon="4.67484">
        <ele>402</ele>
        <time>2016-11-08T11:05:14Z</time>
      </trkpt>
      <trkpt lat="45.89694" lon="4.67486">
        <ele>402</ele>
        <time>2016-11-08T11:05:15Z</time>
      </trkpt>
      <trkpt lat="45.897" lon="4.67487">
        <ele>402</ele>
        <time>2016-11-08T11:05:16Z</time>
      </trkpt>
      <trkpt lat="45.89706" lon="4.67489">
        <ele>402</ele>
        <time>2016-11-08T11:05:17Z</time>
      </trkpt>
      <trkpt lat="45.89713" lon="4.67491">
        <ele>402</ele>
        <time>2016-11-08T11:05:18Z</time>
      </trkpt>
      <trkpt lat="45.89719" lon="4.67493">
        <ele>402</ele>
        <time>2016-11-08T11:05:19Z</time>
      </trkpt>
      <trkpt lat="45.89726" lon="4.67496">
        <ele>402</ele>
        <time>2016-11-08T11:05:20Z</time>
      </trkpt>
      <trkpt lat="45.89732" lon="4.67498">
        <ele>401</ele>
        <time>2016-11-08T11:05:21Z</time>
      </trkpt>
      <trkpt lat="45.89739" lon="4.67499">
        <ele>401</ele>
        <time>2016-11-08T11:05:22Z</time>
      </trkpt>
      <trkpt lat="45.89746" lon="4.67499">
        <ele>400</ele>
        <time>2016-11-08T11:05:23Z</time>
      </trkpt>
      <trkpt lat="45.8976" lon="4.67499">
        <ele>399</ele>
        <time>2016-11-08T11:05:25Z</time>
      </trkpt>
      <trkpt lat="45.89766" lon="4.67499">
        <ele>399</ele>
        <time>2016-11-08T11:05:26Z</time>
      </trkpt>
      <trkpt lat="45.89773" lon="4.67497">
        <ele>399</ele>
        <time>2016-11-08T11:05:27Z</time>
      </trkpt>
      <trkpt lat="45.8978" lon="4.67496">
        <ele>399</ele>
        <time>2016-11-08T11:05:28Z</time>
      </trkpt>
      <trkpt lat="45.89787" lon="4.67493">
        <ele>399</ele>
        <time>2016-11-08T11:05:29Z</time>
      </trkpt>
      <trkpt lat="45.89794" lon="4.67488">
        <ele>399</ele>
        <time>2016-11-08T11:05:30Z</time>
      </trkpt>
      <trkpt lat="45.898" lon="4.67483">
        <ele>398</ele>
        <time>2016-11-08T11:05:31Z</time>
      </trkpt>
      <trkpt lat="45.89806" lon="4.67475">
        <ele>398</ele>
        <time>2016-11-08T11:05:32Z</time>
      </trkpt>
      <trkpt lat="45.8981" lon="4.67466">
        <ele>399</ele>
        <time>2016-11-08T11:05:33Z</time>
      </trkpt>
      <trkpt lat="45.89814" lon="4.67456">
        <ele>399</ele>
        <time>2016-11-08T11:05:34Z</time>
      </trkpt>
      <trkpt lat="45.89817" lon="4.67446">
        <ele>399</ele>
        <time>2016-11-08T11:05:35Z</time>
      </trkpt>
      <trkpt lat="45.89819" lon="4.67435">
        <ele>399</ele>
        <time>2016-11-08T11:05:36Z</time>
      </trkpt>
      <trkpt lat="45.8982" lon="4.67425">
        <ele>398</ele>
        <time>2016-11-08T11:05:37Z</time>
      </trkpt>
      <trkpt lat="45.89822" lon="4.67414">
        <ele>400</ele>
        <time>2016-11-08T11:05:38Z</time>
      </trkpt>
      <trkpt lat="45.89825" lon="4.67404">
        <ele>401</ele>
        <time>2016-11-08T11:05:39Z</time>
      </trkpt>
      <trkpt lat="45.89828" lon="4.67394">
        <ele>403</ele>
        <time>2016-11-08T11:05:40Z</time>
      </trkpt>
      <trkpt lat="45.89833" lon="4.67385">
        <ele>404</ele>
        <time>2016-11-08T11:05:41Z</time>
      </trkpt>
      <trkpt lat="45.89838" lon="4.67377">
        <ele>398</ele>
        <time>2016-11-08T11:05:42Z</time>
      </trkpt>
      <trkpt lat="45.89843" lon="4.6737">
        <ele>399</ele>
        <time>2016-11-08T11:05:43Z</time>
      </trkpt>
      <trkpt lat="45.89849" lon="4.67364">
        <ele>399</ele>
        <time>2016-11-08T11:05:44Z</time>
      </trkpt>
      <trkpt lat="45.89855" lon="4.67359">
        <ele>399</ele>
        <time>2016-11-08T11:05:45Z</time>
      </trkpt>
      <trkpt lat="45.89863" lon="4.67356">
        <ele>399</ele>
        <time>2016-11-08T11:05:46Z</time>
      </trkpt>
      <trkpt lat="45.8987" lon="4.67353">
        <ele>399</ele>
        <time>2016-11-08T11:05:47Z</time>
      </trkpt>
      <trkpt lat="45.89878" lon="4.67352">
        <ele>398</ele>
        <time>2016-11-08T11:05:48Z</time>
      </trkpt>
      <trkpt lat="45.89885" lon="4.67351">
        <ele>398</ele>
        <time>2016-11-08T11:05:49Z</time>
      </trkpt>
      <trkpt lat="45.89893" lon="4.67352">
        <ele>398</ele>
        <time>2016-11-08T11:05:50Z</time>
      </trkpt>
      <trkpt lat="45.89901" lon="4.67353">
        <ele>398</ele>
        <time>2016-11-08T11:05:51Z</time>
      </trkpt>
      <trkpt lat="45.89909" lon="4.67355">
        <ele>398</ele>
        <time>2016-11-08T11:05:52Z</time>
      </trkpt>
      <trkpt lat="45.89917" lon="4.67358">
        <ele>396</ele>
        <time>2016-11-08T11:05:53Z</time>
      </trkpt>
      <trkpt lat="45.89925" lon="4.67359">
        <ele>395</ele>
        <time>2016-11-08T11:05:54Z</time>
      </trkpt>
      <trkpt lat="45.89933" lon="4.67362">
        <ele>395</ele>
        <time>2016-11-08T11:05:55Z</time>
      </trkpt>
      <trkpt lat="45.8994" lon="4.67365">
        <ele>395</ele>
        <time>2016-11-08T11:05:56Z</time>
      </trkpt>
      <trkpt lat="45.89948" lon="4.67368">
        <ele>394</ele>
        <time>2016-11-08T11:05:57Z</time>
      </trkpt>
      <trkpt lat="45.89957" lon="4.67369">
        <ele>394</ele>
        <time>2016-11-08T11:05:58Z</time>
      </trkpt>
      <trkpt lat="45.89964" lon="4.67372">
        <ele>394</ele>
        <time>2016-11-08T11:05:59Z</time>
      </trkpt>
      <trkpt lat="45.89972" lon="4.67375">
        <ele>394</ele>
        <time>2016-11-08T11:06:00Z</time>
      </trkpt>
      <trkpt lat="45.8998" lon="4.67377">
        <ele>393</ele>
        <time>2016-11-08T11:06:01Z</time>
      </trkpt>
      <trkpt lat="45.89988" lon="4.6738">
        <ele>393</ele>
        <time>2016-11-08T11:06:02Z</time>
      </trkpt>
      <trkpt lat="45.89995" lon="4.67385">
        <ele>392</ele>
        <time>2016-11-08T11:06:03Z</time>
      </trkpt>
      <trkpt lat="45.90003" lon="4.67391">
        <ele>394</ele>
        <time>2016-11-08T11:06:04Z</time>
      </trkpt>
      <trkpt lat="45.90011" lon="4.67396">
        <ele>393</ele>
        <time>2016-11-08T11:06:05Z</time>
      </trkpt>
      <trkpt lat="45.90019" lon="4.67403">
        <ele>393</ele>
        <time>2016-11-08T11:06:06Z</time>
      </trkpt>
      <trkpt lat="45.90026" lon="4.67408">
        <ele>394</ele>
        <time>2016-11-08T11:06:07Z</time>
      </trkpt>
      <trkpt lat="45.90034" lon="4.67415">
        <ele>394</ele>
        <time>2016-11-08T11:06:08Z</time>
      </trkpt>
      <trkpt lat="45.9004" lon="4.67422">
        <ele>385</ele>
        <time>2016-11-08T11:06:09Z</time>
      </trkpt>
      <trkpt lat="45.90047" lon="4.6743">
        <ele>385</ele>
        <time>2016-11-08T11:06:10Z</time>
      </trkpt>
      <trkpt lat="45.90053" lon="4.67437">
        <ele>385</ele>
        <time>2016-11-08T11:06:11Z</time>
      </trkpt>
      <trkpt lat="45.9006" lon="4.67443">
        <ele>385</ele>
        <time>2016-11-08T11:06:12Z</time>
      </trkpt>
      <trkpt lat="45.90066" lon="4.6745">
        <ele>384</ele>
        <time>2016-11-08T11:06:13Z</time>
      </trkpt>
      <trkpt lat="45.90072" lon="4.67457">
        <ele>383</ele>
        <time>2016-11-08T11:06:14Z</time>
      </trkpt>
      <trkpt lat="45.90079" lon="4.67463">
        <ele>382</ele>
        <time>2016-11-08T11:06:15Z</time>
      </trkpt>
      <trkpt lat="45.90085" lon="4.6747">
        <ele>386</ele>
        <time>2016-11-08T11:06:16Z</time>
      </trkpt>
      <trkpt lat="45.90091" lon="4.67477">
        <ele>385</ele>
        <time>2016-11-08T11:06:17Z</time>
      </trkpt>
      <trkpt lat="45.90097" lon="4.67485">
        <ele>384</ele>
        <time>2016-11-08T11:06:18Z</time>
      </trkpt>
      <trkpt lat="45.90104" lon="4.67493">
        <ele>384</ele>
        <time>2016-11-08T11:06:19Z</time>
      </trkpt>
      <trkpt lat="45.90109" lon="4.67502">
        <ele>377</ele>
        <time>2016-11-08T11:06:20Z</time>
      </trkpt>
      <trkpt lat="45.90115" lon="4.6751">
        <ele>377</ele>
        <time>2016-11-08T11:06:21Z</time>
      </trkpt>
      <trkpt lat="45.9012" lon="4.67519">
        <ele>377</ele>
        <time>2016-11-08T11:06:22Z</time>
      </trkpt>
      <trkpt lat="45.90125" lon="4.67528">
        <ele>377</ele>
        <time>2016-11-08T11:06:23Z</time>
      </trkpt>
      <trkpt lat="45.9013" lon="4.67537">
        <ele>377</ele>
        <time>2016-11-08T11:06:24Z</time>
      </trkpt>
      <trkpt lat="45.90135" lon="4.67546">
        <ele>377</ele>
        <time>2016-11-08T11:06:25Z</time>
      </trkpt>
      <trkpt lat="45.90139" lon="4.67555">
        <ele>377</ele>
        <time>2016-11-08T11:06:26Z</time>
      </trkpt>
      <trkpt lat="45.90144" lon="4.67564">
        <ele>376</ele>
        <time>2016-11-08T11:06:27Z</time>
      </trkpt>
      <trkpt lat="45.90149" lon="4.67572">
        <ele>376</ele>
        <time>2016-11-08T11:06:28Z</time>
      </trkpt>
      <trkpt lat="45.90154" lon="4.6758">
        <ele>376</ele>
        <time>2016-11-08T11:06:29Z</time>
      </trkpt>
      <trkpt lat="45.9016" lon="4.67587">
        <ele>374</ele>
        <time>2016-11-08T11:06:30Z</time>
      </trkpt>
      <trkpt lat="45.90166" lon="4.67595">
        <ele>373</ele>
        <time>2016-11-08T11:06:31Z</time>
      </trkpt>
      <trkpt lat="45.90172" lon="4.67602">
        <ele>376</ele>
        <time>2016-11-08T11:06:32Z</time>
      </trkpt>
      <trkpt lat="45.90179" lon="4.67608">
        <ele>376</ele>
        <time>2016-11-08T11:06:33Z</time>
      </trkpt>
      <trkpt lat="45.90185" lon="4.67615">
        <ele>376</ele>
        <time>2016-11-08T11:06:34Z</time>
      </trkpt>
      <trkpt lat="45.9019" lon="4.67622">
        <ele>375</ele>
        <time>2016-11-08T11:06:35Z</time>
      </trkpt>
      <trkpt lat="45.90195" lon="4.67628">
        <ele>375</ele>
        <time>2016-11-08T11:06:36Z</time>
      </trkpt>
      <trkpt lat="45.90202" lon="4.67635">
        <ele>375</ele>
        <time>2016-11-08T11:06:37Z</time>
      </trkpt>
      <trkpt lat="45.90208" lon="4.67642">
        <ele>375</ele>
        <time>2016-11-08T11:06:38Z</time>
      </trkpt>
      <trkpt lat="45.90215" lon="4.67648">
        <ele>375</ele>
        <time>2016-11-08T11:06:39Z</time>
      </trkpt>
      <trkpt lat="45.90221" lon="4.67655">
        <ele>375</ele>
        <time>2016-11-08T11:06:40Z</time>
      </trkpt>
      <trkpt lat="45.90227" lon="4.67661">
        <ele>375</ele>
        <time>2016-11-08T11:06:41Z</time>
      </trkpt>
      <trkpt lat="45.90233" lon="4.67667">
        <ele>375</ele>
        <time>2016-11-08T11:06:42Z</time>
      </trkpt>
      <trkpt lat="45.9024" lon="4.67671">
        <ele>373</ele>
        <time>2016-11-08T11:06:43Z</time>
      </trkpt>
      <trkpt lat="45.90247" lon="4.67675">
        <ele>373</ele>
        <time>2016-11-08T11:06:44Z</time>
      </trkpt>
      <trkpt lat="45.90253" lon="4.67678">
        <ele>374</ele>
        <time>2016-11-08T11:06:45Z</time>
      </trkpt>
      <trkpt lat="45.9026" lon="4.67681">
        <ele>374</ele>
        <time>2016-11-08T11:06:46Z</time>
      </trkpt>
      <trkpt lat="45.90267" lon="4.67684">
        <ele>374</ele>
        <time>2016-11-08T11:06:47Z</time>
      </trkpt>
      <trkpt lat="45.90274" lon="4.67687">
        <ele>374</ele>
        <time>2016-11-08T11:06:48Z</time>
      </trkpt>
      <trkpt lat="45.9028" lon="4.6769">
        <ele>374</ele>
        <time>2016-11-08T11:06:49Z</time>
      </trkpt>
      <trkpt lat="45.90287" lon="4.67692">
        <ele>374</ele>
        <time>2016-11-08T11:06:50Z</time>
      </trkpt>
      <trkpt lat="45.90294" lon="4.67694">
        <ele>374</ele>
        <time>2016-11-08T11:06:51Z</time>
      </trkpt>
      <trkpt lat="45.90301" lon="4.67697">
        <ele>374</ele>
        <time>2016-11-08T11:06:52Z</time>
      </trkpt>
      <trkpt lat="45.90308" lon="4.67699">
        <ele>374</ele>
        <time>2016-11-08T11:06:53Z</time>
      </trkpt>
      <trkpt lat="45.90315" lon="4.67701">
        <ele>374</ele>
        <time>2016-11-08T11:06:54Z</time>
      </trkpt>
      <trkpt lat="45.90322" lon="4.67703">
        <ele>374</ele>
        <time>2016-11-08T11:06:55Z</time>
      </trkpt>
      <trkpt lat="45.90328" lon="4.67706">
        <ele>374</ele>
        <time>2016-11-08T11:06:56Z</time>
      </trkpt>
      <trkpt lat="45.90334" lon="4.67709">
        <ele>372</ele>
        <time>2016-11-08T11:06:57Z</time>
      </trkpt>
      <trkpt lat="45.90341" lon="4.67711">
        <ele>372</ele>
        <time>2016-11-08T11:06:58Z</time>
      </trkpt>
      <trkpt lat="45.90348" lon="4.67713">
        <ele>372</ele>
        <time>2016-11-08T11:06:59Z</time>
      </trkpt>
      <trkpt lat="45.90355" lon="4.67715">
        <ele>371</ele>
        <time>2016-11-08T11:07:00Z</time>
      </trkpt>
      <trkpt lat="45.90362" lon="4.67717">
        <ele>371</ele>
        <time>2016-11-08T11:07:01Z</time>
      </trkpt>
      <trkpt lat="45.90369" lon="4.6772">
        <ele>371</ele>
        <time>2016-11-08T11:07:02Z</time>
      </trkpt>
      <trkpt lat="45.90376" lon="4.67723">
        <ele>370</ele>
        <time>2016-11-08T11:07:03Z</time>
      </trkpt>
      <trkpt lat="45.90384" lon="4.67726">
        <ele>370</ele>
        <time>2016-11-08T11:07:04Z</time>
      </trkpt>
      <trkpt lat="45.90391" lon="4.67729">
        <ele>370</ele>
        <time>2016-11-08T11:07:05Z</time>
      </trkpt>
      <trkpt lat="45.90399" lon="4.67733">
        <ele>369</ele>
        <time>2016-11-08T11:07:06Z</time>
      </trkpt>
      <trkpt lat="45.90407" lon="4.67736">
        <ele>368</ele>
        <time>2016-11-08T11:07:07Z</time>
      </trkpt>
      <trkpt lat="45.90414" lon="4.67739">
        <ele>367</ele>
        <time>2016-11-08T11:07:08Z</time>
      </trkpt>
      <trkpt lat="45.90422" lon="4.67742">
        <ele>366</ele>
        <time>2016-11-08T11:07:09Z</time>
      </trkpt>
      <trkpt lat="45.9043" lon="4.67745">
        <ele>366</ele>
        <time>2016-11-08T11:07:10Z</time>
      </trkpt>
      <trkpt lat="45.90438" lon="4.67748">
        <ele>366</ele>
        <time>2016-11-08T11:07:11Z</time>
      </trkpt>
      <trkpt lat="45.90445" lon="4.6775">
        <ele>364</ele>
        <time>2016-11-08T11:07:12Z</time>
      </trkpt>
      <trkpt lat="45.90453" lon="4.67753">
        <ele>364</ele>
        <time>2016-11-08T11:07:13Z</time>
      </trkpt>
      <trkpt lat="45.90461" lon="4.67756">
        <ele>364</ele>
        <time>2016-11-08T11:07:14Z</time>
      </trkpt>
      <trkpt lat="45.90468" lon="4.67759">
        <ele>364</ele>
        <time>2016-11-08T11:07:15Z</time>
      </trkpt>
      <trkpt lat="45.90476" lon="4.67762">
        <ele>364</ele>
        <time>2016-11-08T11:07:16Z</time>
      </trkpt>
      <trkpt lat="45.90483" lon="4.67765">
        <ele>364</ele>
        <time>2016-11-08T11:07:17Z</time>
      </trkpt>
      <trkpt lat="45.90489" lon="4.67767">
        <ele>364</ele>
        <time>2016-11-08T11:07:18Z</time>
      </trkpt>
      <trkpt lat="45.90496" lon="4.6777">
        <ele>364</ele>
        <time>2016-11-08T11:07:19Z</time>
      </trkpt>
      <trkpt lat="45.90503" lon="4.67773">
        <ele>364</ele>
        <time>2016-11-08T11:07:20Z</time>
      </trkpt>
      <trkpt lat="45.90509" lon="4.67775">
        <ele>365</ele>
        <time>2016-11-08T11:07:21Z</time>
      </trkpt>
      <trkpt lat="45.90515" lon="4.67777">
        <ele>365</ele>
        <time>2016-11-08T11:07:22Z</time>
      </trkpt>
      <trkpt lat="45.90521" lon="4.67779">
        <ele>365</ele>
        <time>2016-11-08T11:07:23Z</time>
      </trkpt>
      <trkpt lat="45.90527" lon="4.67781">
        <ele>365</ele>
        <time>2016-11-08T11:07:24Z</time>
      </trkpt>
      <trkpt lat="45.90533" lon="4.67783">
        <ele>365</ele>
        <time>2016-11-08T11:07:25Z</time>
      </trkpt>
      <trkpt lat="45.90538" lon="4.67785">
        <ele>365</ele>
        <time>2016-11-08T11:07:26Z</time>
      </trkpt>
      <trkpt lat="45.90544" lon="4.67787">
        <ele>365</ele>
        <time>2016-11-08T11:07:27Z</time>
      </trkpt>
      <trkpt lat="45.90549" lon="4.67788">
        <ele>365</ele>
        <time>2016-11-08T11:07:28Z</time>
      </trkpt>
      <trkpt lat="45.90555" lon="4.6779">
        <ele>365</ele>
        <time>2016-11-08T11:07:29Z</time>
      </trkpt>
      <trkpt lat="45.9056" lon="4.67791">
        <ele>365</ele>
        <time>2016-11-08T11:07:30Z</time>
      </trkpt>
      <trkpt lat="45.90566" lon="4.67792">
        <ele>365</ele>
        <time>2016-11-08T11:07:31Z</time>
      </trkpt>
      <trkpt lat="45.90571" lon="4.67793">
        <ele>365</ele>
        <time>2016-11-08T11:07:32Z</time>
      </trkpt>
      <trkpt lat="45.90576" lon="4.67794">
        <ele>366</ele>
        <time>2016-11-08T11:07:33Z</time>
      </trkpt>
      <trkpt lat="45.90581" lon="4.67795">
        <ele>366</ele>
        <time>2016-11-08T11:07:34Z</time>
      </trkpt>
      <trkpt lat="45.90585" lon="4.67795">
        <ele>367</ele>
        <time>2016-11-08T11:07:35Z</time>
      </trkpt>
      <trkpt lat="45.90594" lon="4.67797">
        <ele>367</ele>
        <time>2016-11-08T11:07:37Z</time>
      </trkpt>
      <trkpt lat="45.90599" lon="4.67797">
        <ele>367</ele>
        <time>2016-11-08T11:07:38Z</time>
      </trkpt>
      <trkpt lat="45.90607" lon="4.67796">
        <ele>367</ele>
        <time>2016-11-08T11:07:40Z</time>
      </trkpt>
      <trkpt lat="45.90611" lon="4.67796">
        <ele>367</ele>
        <time>2016-11-08T11:07:41Z</time>
      </trkpt>
      <trkpt lat="45.90619" lon="4.67796">
        <ele>367</ele>
        <time>2016-11-08T11:07:43Z</time>
      </trkpt>
      <trkpt lat="45.90623" lon="4.67797">
        <ele>367</ele>
        <time>2016-11-08T11:07:44Z</time>
      </trkpt>
      <trkpt lat="45.9063" lon="4.67797">
        <ele>367</ele>
        <time>2016-11-08T11:07:46Z</time>
      </trkpt>
      <trkpt lat="45.90634" lon="4.67797">
        <ele>367</ele>
        <time>2016-11-08T11:07:47Z</time>
      </trkpt>
      <trkpt lat="45.90642" lon="4.67798">
        <ele>367</ele>
        <time>2016-11-08T11:07:49Z</time>
      </trkpt>
      <trkpt lat="45.90646" lon="4.67798">
        <ele>368</ele>
        <time>2016-11-08T11:07:50Z</time>
      </trkpt>
      <trkpt lat="45.90654" lon="4.67798">
        <ele>368</ele>
        <time>2016-11-08T11:07:52Z</time>
      </trkpt>
      <trkpt lat="45.90658" lon="4.67798">
        <ele>368</ele>
        <time>2016-11-08T11:07:53Z</time>
      </trkpt>
      <trkpt lat="45.90665" lon="4.67799">
        <ele>368</ele>
        <time>2016-11-08T11:07:55Z</time>
      </trkpt>
      <trkpt lat="45.90668" lon="4.678">
        <ele>368</ele>
        <time>2016-11-08T11:07:56Z</time>
      </trkpt>
      <trkpt lat="45.90675" lon="4.67801">
        <ele>368</ele>
        <time>2016-11-08T11:07:58Z</time>
      </trkpt>
      <trkpt lat="45.90679" lon="4.67802">
        <ele>368</ele>
        <time>2016-11-08T11:07:59Z</time>
      </trkpt>
      <trkpt lat="45.90686" lon="4.67803">
        <ele>368</ele>
        <time>2016-11-08T11:08:01Z</time>
      </trkpt>
      <trkpt lat="45.9069" lon="4.67803">
        <ele>368</ele>
        <time>2016-11-08T11:08:02Z</time>
      </trkpt>
      <trkpt lat="45.90697" lon="4.67806">
        <ele>368</ele>
        <time>2016-11-08T11:08:04Z</time>
      </trkpt>
      <trkpt lat="45.907" lon="4.67807">
        <ele>368</ele>
        <time>2016-11-08T11:08:05Z</time>
      </trkpt>
      <trkpt lat="45.90707" lon="4.6781">
        <ele>368</ele>
        <time>2016-11-08T11:08:07Z</time>
      </trkpt>
      <trkpt lat="45.90711" lon="4.67812">
        <ele>368</ele>
        <time>2016-11-08T11:08:08Z</time>
      </trkpt>
      <trkpt lat="45.90718" lon="4.67814">
        <ele>369</ele>
        <time>2016-11-08T11:08:10Z</time>
      </trkpt>
      <trkpt lat="45.90721" lon="4.67816">
        <ele>369</ele>
        <time>2016-11-08T11:08:11Z</time>
      </trkpt>
      <trkpt lat="45.90728" lon="4.67818">
        <ele>369</ele>
        <time>2016-11-08T11:08:13Z</time>
      </trkpt>
      <trkpt lat="45.90732" lon="4.6782">
        <ele>369</ele>
        <time>2016-11-08T11:08:14Z</time>
      </trkpt>
      <trkpt lat="45.90738" lon="4.67822">
        <ele>369</ele>
        <time>2016-11-08T11:08:16Z</time>
      </trkpt>
      <trkpt lat="45.90741" lon="4.67823">
        <ele>370</ele>
        <time>2016-11-08T11:08:17Z</time>
      </trkpt>
      <trkpt lat="45.90748" lon="4.67826">
        <ele>370</ele>
        <time>2016-11-08T11:08:19Z</time>
      </trkpt>
      <trkpt lat="45.90751" lon="4.67828">
        <ele>370</ele>
        <time>2016-11-08T11:08:20Z</time>
      </trkpt>
      <trkpt lat="45.90758" lon="4.6783">
        <ele>370</ele>
        <time>2016-11-08T11:08:22Z</time>
      </trkpt>
      <trkpt lat="45.90762" lon="4.67831">
        <ele>370</ele>
        <time>2016-11-08T11:08:23Z</time>
      </trkpt>
      <trkpt lat="45.90769" lon="4.67834">
        <ele>371</ele>
        <time>2016-11-08T11:08:25Z</time>
      </trkpt>
      <trkpt lat="45.90772" lon="4.67836">
        <ele>371</ele>
        <time>2016-11-08T11:08:26Z</time>
      </trkpt>
      <trkpt lat="45.90779" lon="4.67839">
        <ele>371</ele>
        <time>2016-11-08T11:08:28Z</time>
      </trkpt>
      <trkpt lat="45.90782" lon="4.67839">
        <ele>371</ele>
        <time>2016-11-08T11:08:29Z</time>
      </trkpt>
      <trkpt lat="45.90788" lon="4.67841">
        <ele>371</ele>
        <time>2016-11-08T11:08:31Z</time>
      </trkpt>
      <trkpt lat="45.90792" lon="4.67844">
        <ele>371</ele>
        <time>2016-11-08T11:08:32Z</time>
      </trkpt>
      <trkpt lat="45.90801" lon="4.67848">
        <ele>371</ele>
        <time>2016-11-08T11:08:34Z</time>
      </trkpt>
      <trkpt lat="45.90805" lon="4.6785">
        <ele>371</ele>
        <time>2016-11-08T11:08:35Z</time>
      </trkpt>
      <trkpt lat="45.90814" lon="4.67853">
        <ele>371</ele>
        <time>2016-11-08T11:08:37Z</time>
      </trkpt>
      <trkpt lat="45.90818" lon="4.67854">
        <ele>371</ele>
        <time>2016-11-08T11:08:38Z</time>
      </trkpt>
      <trkpt lat="45.90826" lon="4.67856">
        <ele>371</ele>
        <time>2016-11-08T11:08:40Z</time>
      </trkpt>
      <trkpt lat="45.90831" lon="4.67857">
        <ele>371</ele>
        <time>2016-11-08T11:08:41Z</time>
      </trkpt>
      <trkpt lat="45.90839" lon="4.6786">
        <ele>370</ele>
        <time>2016-11-08T11:08:43Z</time>
      </trkpt>
      <trkpt lat="45.90843" lon="4.6786">
        <ele>370</ele>
        <time>2016-11-08T11:08:44Z</time>
      </trkpt>
      <trkpt lat="45.90851" lon="4.67863">
        <ele>370</ele>
        <time>2016-11-08T11:08:46Z</time>
      </trkpt>
      <trkpt lat="45.90855" lon="4.67863">
        <ele>370</ele>
        <time>2016-11-08T11:08:47Z</time>
      </trkpt>
      <trkpt lat="45.90863" lon="4.67866">
        <ele>370</ele>
        <time>2016-11-08T11:08:49Z</time>
      </trkpt>
      <trkpt lat="45.90867" lon="4.67867">
        <ele>370</ele>
        <time>2016-11-08T11:08:50Z</time>
      </trkpt>
      <trkpt lat="45.90875" lon="4.6787">
        <ele>370</ele>
        <time>2016-11-08T11:08:52Z</time>
      </trkpt>
      <trkpt lat="45.90879" lon="4.67872">
        <ele>370</ele>
        <time>2016-11-08T11:08:53Z</time>
      </trkpt>
      <trkpt lat="45.90887" lon="4.67875">
        <ele>370</ele>
        <time>2016-11-08T11:08:55Z</time>
      </trkpt>
      <trkpt lat="45.90891" lon="4.67877">
        <ele>370</ele>
        <time>2016-11-08T11:08:56Z</time>
      </trkpt>
      <trkpt lat="45.909" lon="4.6788">
        <ele>370</ele>
        <time>2016-11-08T11:08:58Z</time>
      </trkpt>
      <trkpt lat="45.90904" lon="4.67882">
        <ele>370</ele>
        <time>2016-11-08T11:08:59Z</time>
      </trkpt>
      <trkpt lat="45.90912" lon="4.67885">
        <ele>370</ele>
        <time>2016-11-08T11:09:01Z</time>
      </trkpt>
      <trkpt lat="45.90916" lon="4.67887">
        <ele>370</ele>
        <time>2016-11-08T11:09:02Z</time>
      </trkpt>
      <trkpt lat="45.90924" lon="4.67891">
        <ele>370</ele>
        <time>2016-11-08T11:09:04Z</time>
      </trkpt>
      <trkpt lat="45.90928" lon="4.67892">
        <ele>370</ele>
        <time>2016-11-08T11:09:05Z</time>
      </trkpt>
      <trkpt lat="45.90936" lon="4.67895">
        <ele>370</ele>
        <time>2016-11-08T11:09:07Z</time>
      </trkpt>
      <trkpt lat="45.9094" lon="4.67897">
        <ele>370</ele>
        <time>2016-11-08T11:09:08Z</time>
      </trkpt>
      <trkpt lat="45.90948" lon="4.67901">
        <ele>370</ele>
        <time>2016-11-08T11:09:10Z</time>
      </trkpt>
      <trkpt lat="45.90952" lon="4.67902">
        <ele>370</ele>
        <time>2016-11-08T11:09:11Z</time>
      </trkpt>
      <trkpt lat="45.9096" lon="4.67905">
        <ele>370</ele>
        <time>2016-11-08T11:09:13Z</time>
      </trkpt>
      <trkpt lat="45.90963" lon="4.67908">
        <ele>370</ele>
        <time>2016-11-08T11:09:14Z</time>
      </trkpt>
      <trkpt lat="45.90971" lon="4.67912">
        <ele>370</ele>
        <time>2016-11-08T11:09:16Z</time>
      </trkpt>
      <trkpt lat="45.90975" lon="4.67914">
        <ele>370</ele>
        <time>2016-11-08T11:09:17Z</time>
      </trkpt>
      <trkpt lat="45.90983" lon="4.67918">
        <ele>372</ele>
        <time>2016-11-08T11:09:19Z</time>
      </trkpt>
      <trkpt lat="45.90987" lon="4.6792">
        <ele>372</ele>
        <time>2016-11-08T11:09:20Z</time>
      </trkpt>
      <trkpt lat="45.90994" lon="4.67923">
        <ele>372</ele>
        <time>2016-11-08T11:09:22Z</time>
      </trkpt>
      <trkpt lat="45.90998" lon="4.67925">
        <ele>372</ele>
        <time>2016-11-08T11:09:23Z</time>
      </trkpt>
      <trkpt lat="45.91007" lon="4.67929">
        <ele>373</ele>
        <time>2016-11-08T11:09:25Z</time>
      </trkpt>
      <trkpt lat="45.91011" lon="4.67931">
        <ele>373</ele>
        <time>2016-11-08T11:09:26Z</time>
      </trkpt>
      <trkpt lat="45.91019" lon="4.67935">
        <ele>374</ele>
        <time>2016-11-08T11:09:28Z</time>
      </trkpt>
      <trkpt lat="45.91023" lon="4.67937">
        <ele>374</ele>
        <time>2016-11-08T11:09:29Z</time>
      </trkpt>
      <trkpt lat="45.9103" lon="4.67938">
        <ele>374</ele>
        <time>2016-11-08T11:09:31Z</time>
      </trkpt>
      <trkpt lat="45.91034" lon="4.6794">
        <ele>374</ele>
        <time>2016-11-08T11:09:32Z</time>
      </trkpt>
      <trkpt lat="45.91041" lon="4.67944">
        <ele>374</ele>
        <time>2016-11-08T11:09:34Z</time>
      </trkpt>
      <trkpt lat="45.91045" lon="4.67946">
        <ele>374</ele>
        <time>2016-11-08T11:09:35Z</time>
      </trkpt>
      <trkpt lat="45.91052" lon="4.6795">
        <ele>375</ele>
        <time>2016-11-08T11:09:37Z</time>
      </trkpt>
      <trkpt lat="45.91055" lon="4.67951">
        <ele>375</ele>
        <time>2016-11-08T11:09:38Z</time>
      </trkpt>
      <trkpt lat="45.91063" lon="4.67953">
        <ele>375</ele>
        <time>2016-11-08T11:09:40Z</time>
      </trkpt>
      <trkpt lat="45.91067" lon="4.67954">
        <ele>375</ele>
        <time>2016-11-08T11:09:41Z</time>
      </trkpt>
      <trkpt lat="45.91076" lon="4.67956">
        <ele>375</ele>
        <time>2016-11-08T11:09:43Z</time>
      </trkpt>
      <trkpt lat="45.9108" lon="4.67957">
        <ele>375</ele>
        <time>2016-11-08T11:09:44Z</time>
      </trkpt>
      <trkpt lat="45.91087" lon="4.67958">
        <ele>376</ele>
        <time>2016-11-08T11:09:46Z</time>
      </trkpt>
      <trkpt lat="45.91091" lon="4.67959">
        <ele>376</ele>
        <time>2016-11-08T11:09:47Z</time>
      </trkpt>
      <trkpt lat="45.91098" lon="4.6796">
        <ele>377</ele>
        <time>2016-11-08T11:09:49Z</time>
      </trkpt>
      <trkpt lat="45.91101" lon="4.67962">
        <ele>377</ele>
        <time>2016-11-08T11:09:50Z</time>
      </trkpt>
      <trkpt lat="45.91107" lon="4.67964">
        <ele>377</ele>
        <time>2016-11-08T11:09:52Z</time>
      </trkpt>
      <trkpt lat="45.91111" lon="4.67965">
        <ele>377</ele>
        <time>2016-11-08T11:09:53Z</time>
      </trkpt>
      <trkpt lat="45.91117" lon="4.67967">
        <ele>377</ele>
        <time>2016-11-08T11:09:55Z</time>
      </trkpt>
      <trkpt lat="45.91121" lon="4.67967">
        <ele>377</ele>
        <time>2016-11-08T11:09:56Z</time>
      </trkpt>
      <trkpt lat="45.91128" lon="4.67969">
        <ele>377</ele>
        <time>2016-11-08T11:09:58Z</time>
      </trkpt>
      <trkpt lat="45.91131" lon="4.67971">
        <ele>377</ele>
        <time>2016-11-08T11:09:59Z</time>
      </trkpt>
      <trkpt lat="45.91138" lon="4.67974">
        <ele>377</ele>
        <time>2016-11-08T11:10:01Z</time>
      </trkpt>
      <trkpt lat="45.91141" lon="4.67976">
        <ele>378</ele>
        <time>2016-11-08T11:10:02Z</time>
      </trkpt>
      <trkpt lat="45.91145" lon="4.67984">
        <ele>378</ele>
        <time>2016-11-08T11:10:04Z</time>
      </trkpt>
      <trkpt lat="45.9115" lon="4.67984">
        <ele>378</ele>
        <time>2016-11-08T11:10:05Z</time>
      </trkpt>
      <trkpt lat="45.91155" lon="4.67985">
        <ele>379</ele>
        <time>2016-11-08T11:10:06Z</time>
      </trkpt>
      <trkpt lat="45.91159" lon="4.67985">
        <ele>379</ele>
        <time>2016-11-08T11:10:07Z</time>
      </trkpt>
      <trkpt lat="45.91164" lon="4.67986">
        <ele>379</ele>
        <time>2016-11-08T11:10:08Z</time>
      </trkpt>
      <trkpt lat="45.91169" lon="4.67986">
        <ele>380</ele>
        <time>2016-11-08T11:10:09Z</time>
      </trkpt>
      <trkpt lat="45.91173" lon="4.67987">
        <ele>380</ele>
        <time>2016-11-08T11:10:10Z</time>
      </trkpt>
      <trkpt lat="45.91178" lon="4.67987">
        <ele>380</ele>
        <time>2016-11-08T11:10:11Z</time>
      </trkpt>
      <trkpt lat="45.91184" lon="4.67989">
        <ele>380</ele>
        <time>2016-11-08T11:10:13Z</time>
      </trkpt>
      <trkpt lat="45.91186" lon="4.67993">
        <ele>380</ele>
        <time>2016-11-08T11:10:14Z</time>
      </trkpt>
      <trkpt lat="45.91191" lon="4.67994">
        <ele>380</ele>
        <time>2016-11-08T11:10:15Z</time>
      </trkpt>
      <trkpt lat="45.91195" lon="4.67994">
        <ele>380</ele>
        <time>2016-11-08T11:10:16Z</time>
      </trkpt>
      <trkpt lat="45.912" lon="4.67994">
        <ele>380</ele>
        <time>2016-11-08T11:10:17Z</time>
      </trkpt>
      <trkpt lat="45.91204" lon="4.67995">
        <ele>380</ele>
        <time>2016-11-08T11:10:18Z</time>
      </trkpt>
      <trkpt lat="45.91211" lon="4.67995">
        <ele>381</ele>
        <time>2016-11-08T11:10:20Z</time>
      </trkpt>
      <trkpt lat="45.91215" lon="4.67996">
        <ele>381</ele>
        <time>2016-11-08T11:10:21Z</time>
      </trkpt>
      <trkpt lat="45.91222" lon="4.67998">
        <ele>381</ele>
        <time>2016-11-08T11:10:23Z</time>
      </trkpt>
      <trkpt lat="45.91225" lon="4.68006">
        <ele>384</ele>
        <time>2016-11-08T11:10:25Z</time>
      </trkpt>
      <trkpt lat="45.91231" lon="4.68007">
        <ele>384</ele>
        <time>2016-11-08T11:10:26Z</time>
      </trkpt>
      <trkpt lat="45.91235" lon="4.68009">
        <ele>384</ele>
        <time>2016-11-08T11:10:27Z</time>
      </trkpt>
      <trkpt lat="45.91243" lon="4.68015">
        <ele>384</ele>
        <time>2016-11-08T11:10:29Z</time>
      </trkpt>
      <trkpt lat="45.91246" lon="4.68018">
        <ele>384</ele>
        <time>2016-11-08T11:10:30Z</time>
      </trkpt>
      <trkpt lat="45.91252" lon="4.68025">
        <ele>385</ele>
        <time>2016-11-08T11:10:33Z</time>
      </trkpt>
      <trkpt lat="45.91255" lon="4.68027">
        <ele>385</ele>
        <time>2016-11-08T11:10:34Z</time>
      </trkpt>
      <trkpt lat="45.91262" lon="4.68029">
        <ele>385</ele>
        <time>2016-11-08T11:10:36Z</time>
      </trkpt>
      <trkpt lat="45.91266" lon="4.6803">
        <ele>385</ele>
        <time>2016-11-08T11:10:37Z</time>
      </trkpt>
      <trkpt lat="45.91272" lon="4.68033">
        <ele>385</ele>
        <time>2016-11-08T11:10:39Z</time>
      </trkpt>
      <trkpt lat="45.91276" lon="4.68034">
        <ele>385</ele>
        <time>2016-11-08T11:10:40Z</time>
      </trkpt>
      <trkpt lat="45.91281" lon="4.68038">
        <ele>385</ele>
        <time>2016-11-08T11:10:42Z</time>
      </trkpt>
      <trkpt lat="45.91285" lon="4.6804">
        <ele>385</ele>
        <time>2016-11-08T11:10:43Z</time>
      </trkpt>
      <trkpt lat="45.91292" lon="4.68044">
        <ele>385</ele>
        <time>2016-11-08T11:10:45Z</time>
      </trkpt>
      <trkpt lat="45.91296" lon="4.68045">
        <ele>384</ele>
        <time>2016-11-08T11:10:46Z</time>
      </trkpt>
      <trkpt lat="45.91305" lon="4.68048">
        <ele>384</ele>
        <time>2016-11-08T11:10:48Z</time>
      </trkpt>
      <trkpt lat="45.9131" lon="4.68048">
        <ele>384</ele>
        <time>2016-11-08T11:10:49Z</time>
      </trkpt>
      <trkpt lat="45.91317" lon="4.68055">
        <ele>384</ele>
        <time>2016-11-08T11:10:51Z</time>
      </trkpt>
      <trkpt lat="45.91323" lon="4.68062">
        <ele>385</ele>
        <time>2016-11-08T11:10:53Z</time>
      </trkpt>
      <trkpt lat="45.91329" lon="4.68065">
        <ele>385</ele>
        <time>2016-11-08T11:10:55Z</time>
      </trkpt>
      <trkpt lat="45.91332" lon="4.68067">
        <ele>385</ele>
        <time>2016-11-08T11:10:56Z</time>
      </trkpt>
      <trkpt lat="45.9134" lon="4.68071">
        <ele>385</ele>
        <time>2016-11-08T11:10:58Z</time>
      </trkpt>
      <trkpt lat="45.91344" lon="4.68073">
        <ele>385</ele>
        <time>2016-11-08T11:10:59Z</time>
      </trkpt>
      <trkpt lat="45.91352" lon="4.68077">
        <ele>385</ele>
        <time>2016-11-08T11:11:01Z</time>
      </trkpt>
      <trkpt lat="45.91356" lon="4.68079">
        <ele>385</ele>
        <time>2016-11-08T11:11:02Z</time>
      </trkpt>
      <trkpt lat="45.9136" lon="4.6808">
        <ele>385</ele>
        <time>2016-11-08T11:11:03Z</time>
      </trkpt>
      <trkpt lat="45.91365" lon="4.68081">
        <ele>385</ele>
        <time>2016-11-08T11:11:04Z</time>
      </trkpt>
      <trkpt lat="45.91369" lon="4.6808">
        <ele>385</ele>
        <time>2016-11-08T11:11:05Z</time>
      </trkpt>
      <trkpt lat="45.91374" lon="4.6808">
        <ele>385</ele>
        <time>2016-11-08T11:11:06Z</time>
      </trkpt>
      <trkpt lat="45.91382" lon="4.68083">
        <ele>385</ele>
        <time>2016-11-08T11:11:08Z</time>
      </trkpt>
      <trkpt lat="45.91386" lon="4.68083">
        <ele>385</ele>
        <time>2016-11-08T11:11:09Z</time>
      </trkpt>
      <trkpt lat="45.91395" lon="4.68084">
        <ele>386</ele>
        <time>2016-11-08T11:11:11Z</time>
      </trkpt>
      <trkpt lat="45.914" lon="4.68084">
        <ele>386</ele>
        <time>2016-11-08T11:11:12Z</time>
      </trkpt>
      <trkpt lat="45.91404" lon="4.68084">
        <ele>386</ele>
        <time>2016-11-08T11:11:13Z</time>
      </trkpt>
      <trkpt lat="45.91409" lon="4.68083">
        <ele>386</ele>
        <time>2016-11-08T11:11:14Z</time>
      </trkpt>
      <trkpt lat="45.91413" lon="4.68082">
        <ele>386</ele>
        <time>2016-11-08T11:11:15Z</time>
      </trkpt>
      <trkpt lat="45.91418" lon="4.6808">
        <ele>386</ele>
        <time>2016-11-08T11:11:16Z</time>
      </trkpt>
      <trkpt lat="45.91427" lon="4.68079">
        <ele>385</ele>
        <time>2016-11-08T11:11:18Z</time>
      </trkpt>
      <trkpt lat="45.91431" lon="4.6808">
        <ele>385</ele>
        <time>2016-11-08T11:11:19Z</time>
      </trkpt>
      <trkpt lat="45.91438" lon="4.68082">
        <ele>385</ele>
        <time>2016-11-08T11:11:21Z</time>
      </trkpt>
      <trkpt lat="45.91446" lon="4.68087">
        <ele>384</ele>
        <time>2016-11-08T11:11:23Z</time>
      </trkpt>
      <trkpt lat="45.91451" lon="4.68089">
        <ele>384</ele>
        <time>2016-11-08T11:11:24Z</time>
      </trkpt>
      <trkpt lat="45.91455" lon="4.68092">
        <ele>384</ele>
        <time>2016-11-08T11:11:25Z</time>
      </trkpt>
      <trkpt lat="45.9146" lon="4.68096">
        <ele>384</ele>
        <time>2016-11-08T11:11:26Z</time>
      </trkpt>
      <trkpt lat="45.91467" lon="4.68098">
        <ele>384</ele>
        <time>2016-11-08T11:11:27Z</time>
      </trkpt>
      <trkpt lat="45.91473" lon="4.681">
        <ele>384</ele>
        <time>2016-11-08T11:11:28Z</time>
      </trkpt>
      <trkpt lat="45.91484" lon="4.68104">
        <ele>383</ele>
        <time>2016-11-08T11:11:30Z</time>
      </trkpt>
      <trkpt lat="45.91491" lon="4.68107">
        <ele>383</ele>
        <time>2016-11-08T11:11:31Z</time>
      </trkpt>
      <trkpt lat="45.91497" lon="4.6811">
        <ele>383</ele>
        <time>2016-11-08T11:11:32Z</time>
      </trkpt>
      <trkpt lat="45.91503" lon="4.68113">
        <ele>380</ele>
        <time>2016-11-08T11:11:33Z</time>
      </trkpt>
      <trkpt lat="45.91509" lon="4.68119">
        <ele>380</ele>
        <time>2016-11-08T11:11:34Z</time>
      </trkpt>
      <trkpt lat="45.91515" lon="4.68122">
        <ele>380</ele>
        <time>2016-11-08T11:11:35Z</time>
      </trkpt>
      <trkpt lat="45.91522" lon="4.68126">
        <ele>379</ele>
        <time>2016-11-08T11:11:36Z</time>
      </trkpt>
      <trkpt lat="45.91529" lon="4.68129">
        <ele>379</ele>
        <time>2016-11-08T11:11:37Z</time>
      </trkpt>
      <trkpt lat="45.91537" lon="4.68133">
        <ele>379</ele>
        <time>2016-11-08T11:11:38Z</time>
      </trkpt>
      <trkpt lat="45.91547" lon="4.68136">
        <ele>379</ele>
        <time>2016-11-08T11:11:39Z</time>
      </trkpt>
      <trkpt lat="45.91555" lon="4.68139">
        <ele>379</ele>
        <time>2016-11-08T11:11:40Z</time>
      </trkpt>
      <trkpt lat="45.91562" lon="4.68142">
        <ele>378</ele>
        <time>2016-11-08T11:11:41Z</time>
      </trkpt>
      <trkpt lat="45.91575" lon="4.68152">
        <ele>378</ele>
        <time>2016-11-08T11:11:43Z</time>
      </trkpt>
      <trkpt lat="45.91582" lon="4.68156">
        <ele>378</ele>
        <time>2016-11-08T11:11:44Z</time>
      </trkpt>
      <trkpt lat="45.9159" lon="4.6816">
        <ele>376</ele>
        <time>2016-11-08T11:11:45Z</time>
      </trkpt>
      <trkpt lat="45.91597" lon="4.68164">
        <ele>375</ele>
        <time>2016-11-08T11:11:46Z</time>
      </trkpt>
      <trkpt lat="45.91604" lon="4.6817">
        <ele>376</ele>
        <time>2016-11-08T11:11:47Z</time>
      </trkpt>
      <trkpt lat="45.91611" lon="4.68176">
        <ele>375</ele>
        <time>2016-11-08T11:11:48Z</time>
      </trkpt>
      <trkpt lat="45.91619" lon="4.68183">
        <ele>375</ele>
        <time>2016-11-08T11:11:49Z</time>
      </trkpt>
      <trkpt lat="45.91626" lon="4.68189">
        <ele>375</ele>
        <time>2016-11-08T11:11:50Z</time>
      </trkpt>
      <trkpt lat="45.91634" lon="4.68194">
        <ele>374</ele>
        <time>2016-11-08T11:11:51Z</time>
      </trkpt>
      <trkpt lat="45.91642" lon="4.68199">
        <ele>374</ele>
        <time>2016-11-08T11:11:52Z</time>
      </trkpt>
      <trkpt lat="45.9165" lon="4.68204">
        <ele>374</ele>
        <time>2016-11-08T11:11:53Z</time>
      </trkpt>
      <trkpt lat="45.91657" lon="4.68209">
        <ele>374</ele>
        <time>2016-11-08T11:11:54Z</time>
      </trkpt>
      <trkpt lat="45.91665" lon="4.68215">
        <ele>374</ele>
        <time>2016-11-08T11:11:55Z</time>
      </trkpt>
      <trkpt lat="45.91672" lon="4.68221">
        <ele>371</ele>
        <time>2016-11-08T11:11:56Z</time>
      </trkpt>
      <trkpt lat="45.9168" lon="4.68227">
        <ele>371</ele>
        <time>2016-11-08T11:11:57Z</time>
      </trkpt>
      <trkpt lat="45.91687" lon="4.68232">
        <ele>371</ele>
        <time>2016-11-08T11:11:58Z</time>
      </trkpt>
      <trkpt lat="45.91695" lon="4.68238">
        <ele>371</ele>
        <time>2016-11-08T11:11:59Z</time>
      </trkpt>
      <trkpt lat="45.91702" lon="4.68243">
        <ele>370</ele>
        <time>2016-11-08T11:12:00Z</time>
      </trkpt>
      <trkpt lat="45.9171" lon="4.68248">
        <ele>370</ele>
        <time>2016-11-08T11:12:01Z</time>
      </trkpt>
      <trkpt lat="45.91717" lon="4.68252">
        <ele>372</ele>
        <time>2016-11-08T11:12:02Z</time>
      </trkpt>
      <trkpt lat="45.91724" lon="4.68254">
        <ele>372</ele>
        <time>2016-11-08T11:12:03Z</time>
      </trkpt>
      <trkpt lat="45.9173" lon="4.68256">
        <ele>372</ele>
        <time>2016-11-08T11:12:04Z</time>
      </trkpt>
      <trkpt lat="45.91737" lon="4.68259">
        <ele>372</ele>
        <time>2016-11-08T11:12:05Z</time>
      </trkpt>
      <trkpt lat="45.91743" lon="4.68261">
        <ele>371</ele>
        <time>2016-11-08T11:12:06Z</time>
      </trkpt>
      <trkpt lat="45.91749" lon="4.68263">
        <ele>371</ele>
        <time>2016-11-08T11:12:07Z</time>
      </trkpt>
      <trkpt lat="45.91755" lon="4.68264">
        <ele>371</ele>
        <time>2016-11-08T11:12:08Z</time>
      </trkpt>
      <trkpt lat="45.91761" lon="4.68265">
        <ele>372</ele>
        <time>2016-11-08T11:12:09Z</time>
      </trkpt>
      <trkpt lat="45.91766" lon="4.68265">
        <ele>372</ele>
        <time>2016-11-08T11:12:10Z</time>
      </trkpt>
      <trkpt lat="45.91771" lon="4.68267">
        <ele>372</ele>
        <time>2016-11-08T11:12:11Z</time>
      </trkpt>
      <trkpt lat="45.91775" lon="4.68268">
        <ele>372</ele>
        <time>2016-11-08T11:12:12Z</time>
      </trkpt>
      <trkpt lat="45.9178" lon="4.68269">
        <ele>372</ele>
        <time>2016-11-08T11:12:13Z</time>
      </trkpt>
      <trkpt lat="45.91788" lon="4.6827">
        <ele>372</ele>
        <time>2016-11-08T11:12:15Z</time>
      </trkpt>
      <trkpt lat="45.91792" lon="4.68271">
        <ele>372</ele>
        <time>2016-11-08T11:12:16Z</time>
      </trkpt>
      <trkpt lat="45.91799" lon="4.68272">
        <ele>372</ele>
        <time>2016-11-08T11:12:18Z</time>
      </trkpt>
      <trkpt lat="45.91803" lon="4.68273">
        <ele>372</ele>
        <time>2016-11-08T11:12:19Z</time>
      </trkpt>
      <trkpt lat="45.91812" lon="4.68274">
        <ele>372</ele>
        <time>2016-11-08T11:12:21Z</time>
      </trkpt>
      <trkpt lat="45.91816" lon="4.68276">
        <ele>372</ele>
        <time>2016-11-08T11:12:22Z</time>
      </trkpt>
      <trkpt lat="45.91824" lon="4.6828">
        <ele>372</ele>
        <time>2016-11-08T11:12:24Z</time>
      </trkpt>
      <trkpt lat="45.91828" lon="4.68281">
        <ele>373</ele>
        <time>2016-11-08T11:12:25Z</time>
      </trkpt>
      <trkpt lat="45.91836" lon="4.68284">
        <ele>374</ele>
        <time>2016-11-08T11:12:27Z</time>
      </trkpt>
      <trkpt lat="45.9184" lon="4.68285">
        <ele>375</ele>
        <time>2016-11-08T11:12:28Z</time>
      </trkpt>
      <trkpt lat="45.91847" lon="4.68288">
        <ele>375</ele>
        <time>2016-11-08T11:12:30Z</time>
      </trkpt>
      <trkpt lat="45.91852" lon="4.68289">
        <ele>375</ele>
        <time>2016-11-08T11:12:31Z</time>
      </trkpt>
      <trkpt lat="45.9186" lon="4.6829">
        <ele>375</ele>
        <time>2016-11-08T11:12:33Z</time>
      </trkpt>
      <trkpt lat="45.91865" lon="4.6829">
        <ele>375</ele>
        <time>2016-11-08T11:12:34Z</time>
      </trkpt>
      <trkpt lat="45.91874" lon="4.68291">
        <ele>376</ele>
        <time>2016-11-08T11:12:36Z</time>
      </trkpt>
      <trkpt lat="45.91878" lon="4.68291">
        <ele>376</ele>
        <time>2016-11-08T11:12:37Z</time>
      </trkpt>
      <trkpt lat="45.91886" lon="4.68291">
        <ele>376</ele>
        <time>2016-11-08T11:12:39Z</time>
      </trkpt>
      <trkpt lat="45.91891" lon="4.68292">
        <ele>376</ele>
        <time>2016-11-08T11:12:40Z</time>
      </trkpt>
      <trkpt lat="45.91895" lon="4.68293">
        <ele>376</ele>
        <time>2016-11-08T11:12:41Z</time>
      </trkpt>
      <trkpt lat="45.91899" lon="4.68294">
        <ele>376</ele>
        <time>2016-11-08T11:12:42Z</time>
      </trkpt>
      <trkpt lat="45.91908" lon="4.68295">
        <ele>377</ele>
        <time>2016-11-08T11:12:44Z</time>
      </trkpt>
      <trkpt lat="45.91911" lon="4.68295">
        <ele>377</ele>
        <time>2016-11-08T11:12:45Z</time>
      </trkpt>
      <trkpt lat="45.91919" lon="4.68297">
        <ele>379</ele>
        <time>2016-11-08T11:12:47Z</time>
      </trkpt>
      <trkpt lat="45.91922" lon="4.68297">
        <ele>379</ele>
        <time>2016-11-08T11:12:48Z</time>
      </trkpt>
      <trkpt lat="45.91929" lon="4.68299">
        <ele>379</ele>
        <time>2016-11-08T11:12:50Z</time>
      </trkpt>
      <trkpt lat="45.91933" lon="4.683">
        <ele>379</ele>
        <time>2016-11-08T11:12:51Z</time>
      </trkpt>
      <trkpt lat="45.9194" lon="4.68302">
        <ele>379</ele>
        <time>2016-11-08T11:12:53Z</time>
      </trkpt>
      <trkpt lat="45.91944" lon="4.68303">
        <ele>379</ele>
        <time>2016-11-08T11:12:54Z</time>
      </trkpt>
      <trkpt lat="45.91952" lon="4.68304">
        <ele>379</ele>
        <time>2016-11-08T11:12:56Z</time>
      </trkpt>
      <trkpt lat="45.91957" lon="4.68305">
        <ele>379</ele>
        <time>2016-11-08T11:12:57Z</time>
      </trkpt>
      <trkpt lat="45.91965" lon="4.68306">
        <ele>380</ele>
        <time>2016-11-08T11:12:59Z</time>
      </trkpt>
      <trkpt lat="45.9197" lon="4.68307">
        <ele>380</ele>
        <time>2016-11-08T11:13:00Z</time>
      </trkpt>
      <trkpt lat="45.91978" lon="4.68309">
        <ele>380</ele>
        <time>2016-11-08T11:13:02Z</time>
      </trkpt>
      <trkpt lat="45.91982" lon="4.6831">
        <ele>380</ele>
        <time>2016-11-08T11:13:03Z</time>
      </trkpt>
      <trkpt lat="45.91991" lon="4.68312">
        <ele>380</ele>
        <time>2016-11-08T11:13:05Z</time>
      </trkpt>
      <trkpt lat="45.91994" lon="4.68314">
        <ele>381</ele>
        <time>2016-11-08T11:13:06Z</time>
      </trkpt>
      <trkpt lat="45.92001" lon="4.68318">
        <ele>381</ele>
        <time>2016-11-08T11:13:08Z</time>
      </trkpt>
      <trkpt lat="45.92005" lon="4.68318">
        <ele>381</ele>
        <time>2016-11-08T11:13:09Z</time>
      </trkpt>
      <trkpt lat="45.92013" lon="4.68318">
        <ele>380</ele>
        <time>2016-11-08T11:13:11Z</time>
      </trkpt>
      <trkpt lat="45.92017" lon="4.68317">
        <ele>380</ele>
        <time>2016-11-08T11:13:12Z</time>
      </trkpt>
      <trkpt lat="45.92024" lon="4.68317">
        <ele>380</ele>
        <time>2016-11-08T11:13:14Z</time>
      </trkpt>
      <trkpt lat="45.92028" lon="4.68318">
        <ele>380</ele>
        <time>2016-11-08T11:13:15Z</time>
      </trkpt>
      <trkpt lat="45.92037" lon="4.68319">
        <ele>380</ele>
        <time>2016-11-08T11:13:17Z</time>
      </trkpt>
      <trkpt lat="45.92041" lon="4.6832">
        <ele>380</ele>
        <time>2016-11-08T11:13:18Z</time>
      </trkpt>
      <trkpt lat="45.9205" lon="4.68322">
        <ele>380</ele>
        <time>2016-11-08T11:13:20Z</time>
      </trkpt>
      <trkpt lat="45.92054" lon="4.68322">
        <ele>380</ele>
        <time>2016-11-08T11:13:21Z</time>
      </trkpt>
      <trkpt lat="45.92062" lon="4.68324">
        <ele>380</ele>
        <time>2016-11-08T11:13:23Z</time>
      </trkpt>
      <trkpt lat="45.92066" lon="4.68325">
        <ele>380</ele>
        <time>2016-11-08T11:13:24Z</time>
      </trkpt>
      <trkpt lat="45.92074" lon="4.68329">
        <ele>381</ele>
        <time>2016-11-08T11:13:26Z</time>
      </trkpt>
      <trkpt lat="45.92078" lon="4.6833">
        <ele>381</ele>
        <time>2016-11-08T11:13:27Z</time>
      </trkpt>
      <trkpt lat="45.92087" lon="4.68332">
        <ele>381</ele>
        <time>2016-11-08T11:13:29Z</time>
      </trkpt>
      <trkpt lat="45.92091" lon="4.68333">
        <ele>380</ele>
        <time>2016-11-08T11:13:30Z</time>
      </trkpt>
      <trkpt lat="45.92099" lon="4.68335">
        <ele>383</ele>
        <time>2016-11-08T11:13:32Z</time>
      </trkpt>
      <trkpt lat="45.92102" lon="4.68336">
        <ele>383</ele>
        <time>2016-11-08T11:13:33Z</time>
      </trkpt>
      <trkpt lat="45.9211" lon="4.6834">
        <ele>383</ele>
        <time>2016-11-08T11:13:35Z</time>
      </trkpt>
      <trkpt lat="45.92114" lon="4.68342">
        <ele>383</ele>
        <time>2016-11-08T11:13:36Z</time>
      </trkpt>
      <trkpt lat="45.92121" lon="4.68348">
        <ele>383</ele>
        <time>2016-11-08T11:13:38Z</time>
      </trkpt>
      <trkpt lat="45.92125" lon="4.68351">
        <ele>383</ele>
        <time>2016-11-08T11:13:39Z</time>
      </trkpt>
      <trkpt lat="45.92131" lon="4.68357">
        <ele>383</ele>
        <time>2016-11-08T11:13:41Z</time>
      </trkpt>
      <trkpt lat="45.92135" lon="4.6836">
        <ele>383</ele>
        <time>2016-11-08T11:13:42Z</time>
      </trkpt>
      <trkpt lat="45.92141" lon="4.68367">
        <ele>383</ele>
        <time>2016-11-08T11:13:44Z</time>
      </trkpt>
      <trkpt lat="45.92145" lon="4.68371">
        <ele>383</ele>
        <time>2016-11-08T11:13:45Z</time>
      </trkpt>
      <trkpt lat="45.92151" lon="4.68379">
        <ele>384</ele>
        <time>2016-11-08T11:13:47Z</time>
      </trkpt>
      <trkpt lat="45.92155" lon="4.68382">
        <ele>384</ele>
        <time>2016-11-08T11:13:48Z</time>
      </trkpt>
      <trkpt lat="45.92162" lon="4.68389">
        <ele>384</ele>
        <time>2016-11-08T11:13:50Z</time>
      </trkpt>
      <trkpt lat="45.92165" lon="4.68393">
        <ele>384</ele>
        <time>2016-11-08T11:13:51Z</time>
      </trkpt>
      <trkpt lat="45.92169" lon="4.68397">
        <ele>384</ele>
        <time>2016-11-08T11:13:52Z</time>
      </trkpt>
      <trkpt lat="45.92172" lon="4.68402">
        <ele>384</ele>
        <time>2016-11-08T11:13:53Z</time>
      </trkpt>
      <trkpt lat="45.92176" lon="4.68407">
        <ele>384</ele>
        <time>2016-11-08T11:13:54Z</time>
      </trkpt>
      <trkpt lat="45.92179" lon="4.68412">
        <ele>384</ele>
        <time>2016-11-08T11:13:55Z</time>
      </trkpt>
      <trkpt lat="45.92183" lon="4.68416">
        <ele>384</ele>
        <time>2016-11-08T11:13:56Z</time>
      </trkpt>
      <trkpt lat="45.92188" lon="4.68419">
        <ele>386</ele>
        <time>2016-11-08T11:13:57Z</time>
      </trkpt>
      <trkpt lat="45.92192" lon="4.68422">
        <ele>386</ele>
        <time>2016-11-08T11:13:58Z</time>
      </trkpt>
      <trkpt lat="45.92196" lon="4.68425">
        <ele>386</ele>
        <time>2016-11-08T11:13:59Z</time>
      </trkpt>
      <trkpt lat="45.92201" lon="4.68427">
        <ele>386</ele>
        <time>2016-11-08T11:14:00Z</time>
      </trkpt>
      <trkpt lat="45.92206" lon="4.6843">
        <ele>386</ele>
        <time>2016-11-08T11:14:01Z</time>
      </trkpt>
      <trkpt lat="45.9221" lon="4.68433">
        <ele>386</ele>
        <time>2016-11-08T11:14:02Z</time>
      </trkpt>
      <trkpt lat="45.92214" lon="4.68437">
        <ele>386</ele>
        <time>2016-11-08T11:14:03Z</time>
      </trkpt>
      <trkpt lat="45.92219" lon="4.6844">
        <ele>386</ele>
        <time>2016-11-08T11:14:04Z</time>
      </trkpt>
      <trkpt lat="45.92223" lon="4.68444">
        <ele>386</ele>
        <time>2016-11-08T11:14:05Z</time>
      </trkpt>
      <trkpt lat="45.92227" lon="4.68448">
        <ele>386</ele>
        <time>2016-11-08T11:14:06Z</time>
      </trkpt>
      <trkpt lat="45.92232" lon="4.68452">
        <ele>386</ele>
        <time>2016-11-08T11:14:07Z</time>
      </trkpt>
      <trkpt lat="45.92236" lon="4.68456">
        <ele>386</ele>
        <time>2016-11-08T11:14:08Z</time>
      </trkpt>
      <trkpt lat="45.9224" lon="4.6846">
        <ele>386</ele>
        <time>2016-11-08T11:14:09Z</time>
      </trkpt>
      <trkpt lat="45.92244" lon="4.68464">
        <ele>386</ele>
        <time>2016-11-08T11:14:10Z</time>
      </trkpt>
      <trkpt lat="45.92248" lon="4.68469">
        <ele>386</ele>
        <time>2016-11-08T11:14:11Z</time>
      </trkpt>
      <trkpt lat="45.92252" lon="4.68473">
        <ele>384</ele>
        <time>2016-11-08T11:14:12Z</time>
      </trkpt>
      <trkpt lat="45.92256" lon="4.68477">
        <ele>384</ele>
        <time>2016-11-08T11:14:13Z</time>
      </trkpt>
      <trkpt lat="45.9226" lon="4.6848">
        <ele>384</ele>
        <time>2016-11-08T11:14:14Z</time>
      </trkpt>
      <trkpt lat="45.92264" lon="4.68484">
        <ele>384</ele>
        <time>2016-11-08T11:14:15Z</time>
      </trkpt>
      <trkpt lat="45.92271" lon="4.68492">
        <ele>384</ele>
        <time>2016-11-08T11:14:17Z</time>
      </trkpt>
      <trkpt lat="45.92274" lon="4.68494">
        <ele>384</ele>
        <time>2016-11-08T11:14:18Z</time>
      </trkpt>
      <trkpt lat="45.92281" lon="4.68502">
        <ele>387</ele>
        <time>2016-11-08T11:14:20Z</time>
      </trkpt>
      <trkpt lat="45.92284" lon="4.68506">
        <ele>387</ele>
        <time>2016-11-08T11:14:21Z</time>
      </trkpt>
      <trkpt lat="45.92288" lon="4.6851">
        <ele>387</ele>
        <time>2016-11-08T11:14:22Z</time>
      </trkpt>
      <trkpt lat="45.92292" lon="4.68514">
        <ele>387</ele>
        <time>2016-11-08T11:14:23Z</time>
      </trkpt>
      <trkpt lat="45.92296" lon="4.68518">
        <ele>387</ele>
        <time>2016-11-08T11:14:24Z</time>
      </trkpt>
      <trkpt lat="45.923" lon="4.68522">
        <ele>387</ele>
        <time>2016-11-08T11:14:25Z</time>
      </trkpt>
      <trkpt lat="45.92305" lon="4.68525">
        <ele>387</ele>
        <time>2016-11-08T11:14:26Z</time>
      </trkpt>
      <trkpt lat="45.92309" lon="4.68529">
        <ele>387</ele>
        <time>2016-11-08T11:14:27Z</time>
      </trkpt>
      <trkpt lat="45.92312" lon="4.68533">
        <ele>387</ele>
        <time>2016-11-08T11:14:28Z</time>
      </trkpt>
      <trkpt lat="45.92316" lon="4.68537">
        <ele>388</ele>
        <time>2016-11-08T11:14:29Z</time>
      </trkpt>
      <trkpt lat="45.9232" lon="4.6854">
        <ele>388</ele>
        <time>2016-11-08T11:14:30Z</time>
      </trkpt>
      <trkpt lat="45.92324" lon="4.68544">
        <ele>388</ele>
        <time>2016-11-08T11:14:31Z</time>
      </trkpt>
      <trkpt lat="45.92329" lon="4.68548">
        <ele>388</ele>
        <time>2016-11-08T11:14:32Z</time>
      </trkpt>
      <trkpt lat="45.92333" lon="4.68552">
        <ele>389</ele>
        <time>2016-11-08T11:14:33Z</time>
      </trkpt>
      <trkpt lat="45.92337" lon="4.68555">
        <ele>385</ele>
        <time>2016-11-08T11:14:34Z</time>
      </trkpt>
      <trkpt lat="45.92342" lon="4.68558">
        <ele>385</ele>
        <time>2016-11-08T11:14:35Z</time>
      </trkpt>
      <trkpt lat="45.92347" lon="4.6856">
        <ele>385</ele>
        <time>2016-11-08T11:14:36Z</time>
      </trkpt>
      <trkpt lat="45.92351" lon="4.68563">
        <ele>385</ele>
        <time>2016-11-08T11:14:37Z</time>
      </trkpt>
      <trkpt lat="45.92356" lon="4.68566">
        <ele>385</ele>
        <time>2016-11-08T11:14:38Z</time>
      </trkpt>
      <trkpt lat="45.9236" lon="4.68569">
        <ele>385</ele>
        <time>2016-11-08T11:14:39Z</time>
      </trkpt>
      <trkpt lat="45.92365" lon="4.68571">
        <ele>385</ele>
        <time>2016-11-08T11:14:40Z</time>
      </trkpt>
      <trkpt lat="45.9237" lon="4.68574">
        <ele>384</ele>
        <time>2016-11-08T11:14:41Z</time>
      </trkpt>
      <trkpt lat="45.92375" lon="4.68576">
        <ele>384</ele>
        <time>2016-11-08T11:14:42Z</time>
      </trkpt>
      <trkpt lat="45.9238" lon="4.68579">
        <ele>384</ele>
        <time>2016-11-08T11:14:43Z</time>
      </trkpt>
      <trkpt lat="45.92385" lon="4.68583">
        <ele>383</ele>
        <time>2016-11-08T11:14:44Z</time>
      </trkpt>
      <trkpt lat="45.9239" lon="4.68587">
        <ele>386</ele>
        <time>2016-11-08T11:14:45Z</time>
      </trkpt>
      <trkpt lat="45.92395" lon="4.6859">
        <ele>386</ele>
        <time>2016-11-08T11:14:46Z</time>
      </trkpt>
      <trkpt lat="45.92399" lon="4.68594">
        <ele>386</ele>
        <time>2016-11-08T11:14:47Z</time>
      </trkpt>
      <trkpt lat="45.92405" lon="4.68596">
        <ele>385</ele>
        <time>2016-11-08T11:14:48Z</time>
      </trkpt>
      <trkpt lat="45.92411" lon="4.68598">
        <ele>385</ele>
        <time>2016-11-08T11:14:49Z</time>
      </trkpt>
      <trkpt lat="45.92416" lon="4.68601">
        <ele>385</ele>
        <time>2016-11-08T11:14:50Z</time>
      </trkpt>
      <trkpt lat="45.92422" lon="4.68604">
        <ele>381</ele>
        <time>2016-11-08T11:14:51Z</time>
      </trkpt>
      <trkpt lat="45.92428" lon="4.68607">
        <ele>381</ele>
        <time>2016-11-08T11:14:52Z</time>
      </trkpt>
      <trkpt lat="45.92434" lon="4.68611">
        <ele>381</ele>
        <time>2016-11-08T11:14:53Z</time>
      </trkpt>
      <trkpt lat="45.9244" lon="4.68614">
        <ele>381</ele>
        <time>2016-11-08T11:14:54Z</time>
      </trkpt>
      <trkpt lat="45.92446" lon="4.68618">
        <ele>380</ele>
        <time>2016-11-08T11:14:55Z</time>
      </trkpt>
      <trkpt lat="45.92452" lon="4.68621">
        <ele>380</ele>
        <time>2016-11-08T11:14:56Z</time>
      </trkpt>
      <trkpt lat="45.92458" lon="4.68624">
        <ele>380</ele>
        <time>2016-11-08T11:14:57Z</time>
      </trkpt>
      <trkpt lat="45.92465" lon="4.68628">
        <ele>380</ele>
        <time>2016-11-08T11:14:58Z</time>
      </trkpt>
      <trkpt lat="45.92472" lon="4.68631">
        <ele>380</ele>
        <time>2016-11-08T11:14:59Z</time>
      </trkpt>
      <trkpt lat="45.92479" lon="4.68634">
        <ele>379</ele>
        <time>2016-11-08T11:15:00Z</time>
      </trkpt>
      <trkpt lat="45.92486" lon="4.68637">
        <ele>379</ele>
        <time>2016-11-08T11:15:01Z</time>
      </trkpt>
      <trkpt lat="45.92494" lon="4.6864">
        <ele>379</ele>
        <time>2016-11-08T11:15:02Z</time>
      </trkpt>
      <trkpt lat="45.92502" lon="4.68643">
        <ele>376</ele>
        <time>2016-11-08T11:15:03Z</time>
      </trkpt>
      <trkpt lat="45.9251" lon="4.68645">
        <ele>376</ele>
        <time>2016-11-08T11:15:04Z</time>
      </trkpt>
      <trkpt lat="45.92517" lon="4.68647">
        <ele>375</ele>
        <time>2016-11-08T11:15:05Z</time>
      </trkpt>
      <trkpt lat="45.92525" lon="4.68649">
        <ele>375</ele>
        <time>2016-11-08T11:15:06Z</time>
      </trkpt>
      <trkpt lat="45.92533" lon="4.68651">
        <ele>375</ele>
        <time>2016-11-08T11:15:07Z</time>
      </trkpt>
      <trkpt lat="45.9254" lon="4.68653">
        <ele>374</ele>
        <time>2016-11-08T11:15:08Z</time>
      </trkpt>
      <trkpt lat="45.92548" lon="4.68654">
        <ele>374</ele>
        <time>2016-11-08T11:15:09Z</time>
      </trkpt>
      <trkpt lat="45.92554" lon="4.68653">
        <ele>374</ele>
        <time>2016-11-08T11:15:10Z</time>
      </trkpt>
      <trkpt lat="45.9256" lon="4.68651">
        <ele>374</ele>
        <time>2016-11-08T11:15:11Z</time>
      </trkpt>
      <trkpt lat="45.92567" lon="4.68647">
        <ele>374</ele>
        <time>2016-11-08T11:15:12Z</time>
      </trkpt>
      <trkpt lat="45.92572" lon="4.68644">
        <ele>374</ele>
        <time>2016-11-08T11:15:13Z</time>
      </trkpt>
      <trkpt lat="45.92577" lon="4.68641">
        <ele>373</ele>
        <time>2016-11-08T11:15:14Z</time>
      </trkpt>
      <trkpt lat="45.92582" lon="4.68639">
        <ele>373</ele>
        <time>2016-11-08T11:15:15Z</time>
      </trkpt>
      <trkpt lat="45.9259" lon="4.68637">
        <ele>370</ele>
        <time>2016-11-08T11:15:17Z</time>
      </trkpt>
      <trkpt lat="45.92594" lon="4.68638">
        <ele>370</ele>
        <time>2016-11-08T11:15:18Z</time>
      </trkpt>
      <trkpt lat="45.92601" lon="4.68634">
        <ele>369</ele>
        <time>2016-11-08T11:15:21Z</time>
      </trkpt>
      <trkpt lat="45.92603" lon="4.68633">
        <ele>369</ele>
        <time>2016-11-08T11:15:22Z</time>
      </trkpt>
      <trkpt lat="45.9261" lon="4.68632">
        <ele>369</ele>
        <time>2016-11-08T11:15:24Z</time>
      </trkpt>
      <trkpt lat="45.92614" lon="4.68631">
        <ele>369</ele>
        <time>2016-11-08T11:15:25Z</time>
      </trkpt>
      <trkpt lat="45.92619" lon="4.68629">
        <ele>369</ele>
        <time>2016-11-08T11:15:26Z</time>
      </trkpt>
      <trkpt lat="45.92623" lon="4.68626">
        <ele>368</ele>
        <time>2016-11-08T11:15:27Z</time>
      </trkpt>
      <trkpt lat="45.92628" lon="4.68623">
        <ele>368</ele>
        <time>2016-11-08T11:15:28Z</time>
      </trkpt>
      <trkpt lat="45.92633" lon="4.68622">
        <ele>368</ele>
        <time>2016-11-08T11:15:29Z</time>
      </trkpt>
      <trkpt lat="45.92638" lon="4.6862">
        <ele>368</ele>
        <time>2016-11-08T11:15:30Z</time>
      </trkpt>
      <trkpt lat="45.92642" lon="4.68618">
        <ele>368</ele>
        <time>2016-11-08T11:15:31Z</time>
      </trkpt>
      <trkpt lat="45.9265" lon="4.68619">
        <ele>367</ele>
        <time>2016-11-08T11:15:33Z</time>
      </trkpt>
      <trkpt lat="45.92654" lon="4.68617">
        <ele>367</ele>
        <time>2016-11-08T11:15:34Z</time>
      </trkpt>
      <trkpt lat="45.92658" lon="4.68614">
        <ele>367</ele>
        <time>2016-11-08T11:15:35Z</time>
      </trkpt>
      <trkpt lat="45.92663" lon="4.68612">
        <ele>367</ele>
        <time>2016-11-08T11:15:36Z</time>
      </trkpt>
      <trkpt lat="45.92668" lon="4.6861">
        <ele>364</ele>
        <time>2016-11-08T11:15:37Z</time>
      </trkpt>
      <trkpt lat="45.92673" lon="4.68608">
        <ele>364</ele>
        <time>2016-11-08T11:15:38Z</time>
      </trkpt>
      <trkpt lat="45.92678" lon="4.68605">
        <ele>364</ele>
        <time>2016-11-08T11:15:39Z</time>
      </trkpt>
      <trkpt lat="45.92683" lon="4.68602">
        <ele>364</ele>
        <time>2016-11-08T11:15:40Z</time>
      </trkpt>
      <trkpt lat="45.92688" lon="4.686">
        <ele>364</ele>
        <time>2016-11-08T11:15:41Z</time>
      </trkpt>
      <trkpt lat="45.92693" lon="4.68598">
        <ele>364</ele>
        <time>2016-11-08T11:15:42Z</time>
      </trkpt>
      <trkpt lat="45.92699" lon="4.68595">
        <ele>364</ele>
        <time>2016-11-08T11:15:43Z</time>
      </trkpt>
      <trkpt lat="45.92704" lon="4.68593">
        <ele>364</ele>
        <time>2016-11-08T11:15:44Z</time>
      </trkpt>
      <trkpt lat="45.9271" lon="4.6859">
        <ele>364</ele>
        <time>2016-11-08T11:15:45Z</time>
      </trkpt>
      <trkpt lat="45.92715" lon="4.68587">
        <ele>364</ele>
        <time>2016-11-08T11:15:46Z</time>
      </trkpt>
      <trkpt lat="45.9272" lon="4.68585">
        <ele>364</ele>
        <time>2016-11-08T11:15:47Z</time>
      </trkpt>
      <trkpt lat="45.92726" lon="4.68584">
        <ele>365</ele>
        <time>2016-11-08T11:15:48Z</time>
      </trkpt>
      <trkpt lat="45.92731" lon="4.68582">
        <ele>366</ele>
        <time>2016-11-08T11:15:49Z</time>
      </trkpt>
      <trkpt lat="45.92736" lon="4.68581">
        <ele>366</ele>
        <time>2016-11-08T11:15:50Z</time>
      </trkpt>
      <trkpt lat="45.92741" lon="4.6858">
        <ele>366</ele>
        <time>2016-11-08T11:15:51Z</time>
      </trkpt>
      <trkpt lat="45.92746" lon="4.68579">
        <ele>366</ele>
        <time>2016-11-08T11:15:52Z</time>
      </trkpt>
      <trkpt lat="45.92752" lon="4.68579">
        <ele>366</ele>
        <time>2016-11-08T11:15:53Z</time>
      </trkpt>
      <trkpt lat="45.92758" lon="4.68577">
        <ele>366</ele>
        <time>2016-11-08T11:15:54Z</time>
      </trkpt>
      <trkpt lat="45.92764" lon="4.68576">
        <ele>365</ele>
        <time>2016-11-08T11:15:55Z</time>
      </trkpt>
      <trkpt lat="45.9277" lon="4.68576">
        <ele>365</ele>
        <time>2016-11-08T11:15:56Z</time>
      </trkpt>
      <trkpt lat="45.92776" lon="4.68576">
        <ele>365</ele>
        <time>2016-11-08T11:15:57Z</time>
      </trkpt>
      <trkpt lat="45.9279" lon="4.68577">
        <ele>364</ele>
        <time>2016-11-08T11:15:59Z</time>
      </trkpt>
      <trkpt lat="45.92794" lon="4.68579">
        <ele>364</ele>
        <time>2016-11-08T11:16:00Z</time>
      </trkpt>
      <trkpt lat="45.928" lon="4.68581">
        <ele>364</ele>
        <time>2016-11-08T11:16:01Z</time>
      </trkpt>
      <trkpt lat="45.92807" lon="4.68583">
        <ele>363</ele>
        <time>2016-11-08T11:16:02Z</time>
      </trkpt>
      <trkpt lat="45.92813" lon="4.68584">
        <ele>361</ele>
        <time>2016-11-08T11:16:03Z</time>
      </trkpt>
      <trkpt lat="45.92834" lon="4.68582">
        <ele>361</ele>
        <time>2016-11-08T11:16:06Z</time>
      </trkpt>
      <trkpt lat="45.92841" lon="4.68582">
        <ele>361</ele>
        <time>2016-11-08T11:16:07Z</time>
      </trkpt>
      <trkpt lat="45.92848" lon="4.68583">
        <ele>361</ele>
        <time>2016-11-08T11:16:08Z</time>
      </trkpt>
      <trkpt lat="45.92855" lon="4.68584">
        <ele>359</ele>
        <time>2016-11-08T11:16:09Z</time>
      </trkpt>
      <trkpt lat="45.92862" lon="4.68584">
        <ele>359</ele>
        <time>2016-11-08T11:16:10Z</time>
      </trkpt>
      <trkpt lat="45.92868" lon="4.68585">
        <ele>359</ele>
        <time>2016-11-08T11:16:11Z</time>
      </trkpt>
      <trkpt lat="45.92875" lon="4.68587">
        <ele>359</ele>
        <time>2016-11-08T11:16:12Z</time>
      </trkpt>
      <trkpt lat="45.92882" lon="4.68589">
        <ele>358</ele>
        <time>2016-11-08T11:16:13Z</time>
      </trkpt>
      <trkpt lat="45.92889" lon="4.6859">
        <ele>358</ele>
        <time>2016-11-08T11:16:14Z</time>
      </trkpt>
      <trkpt lat="45.92896" lon="4.68592">
        <ele>358</ele>
        <time>2016-11-08T11:16:15Z</time>
      </trkpt>
      <trkpt lat="45.92902" lon="4.68594">
        <ele>358</ele>
        <time>2016-11-08T11:16:16Z</time>
      </trkpt>
      <trkpt lat="45.92917" lon="4.68596">
        <ele>359</ele>
        <time>2016-11-08T11:16:18Z</time>
      </trkpt>
      <trkpt lat="45.92924" lon="4.68597">
        <ele>359</ele>
        <time>2016-11-08T11:16:19Z</time>
      </trkpt>
      <trkpt lat="45.92932" lon="4.68598">
        <ele>358</ele>
        <time>2016-11-08T11:16:20Z</time>
      </trkpt>
      <trkpt lat="45.92939" lon="4.686">
        <ele>358</ele>
        <time>2016-11-08T11:16:21Z</time>
      </trkpt>
      <trkpt lat="45.92945" lon="4.68602">
        <ele>358</ele>
        <time>2016-11-08T11:16:22Z</time>
      </trkpt>
      <trkpt lat="45.92952" lon="4.68603">
        <ele>358</ele>
        <time>2016-11-08T11:16:23Z</time>
      </trkpt>
      <trkpt lat="45.92958" lon="4.68605">
        <ele>358</ele>
        <time>2016-11-08T11:16:24Z</time>
      </trkpt>
      <trkpt lat="45.92965" lon="4.68606">
        <ele>358</ele>
        <time>2016-11-08T11:16:25Z</time>
      </trkpt>
      <trkpt lat="45.92972" lon="4.68607">
        <ele>358</ele>
        <time>2016-11-08T11:16:26Z</time>
      </trkpt>
      <trkpt lat="45.92979" lon="4.68609">
        <ele>358</ele>
        <time>2016-11-08T11:16:27Z</time>
      </trkpt>
      <trkpt lat="45.92986" lon="4.68609">
        <ele>358</ele>
        <time>2016-11-08T11:16:28Z</time>
      </trkpt>
      <trkpt lat="45.92992" lon="4.6861">
        <ele>358</ele>
        <time>2016-11-08T11:16:29Z</time>
      </trkpt>
      <trkpt lat="45.92998" lon="4.68611">
        <ele>358</ele>
        <time>2016-11-08T11:16:30Z</time>
      </trkpt>
      <trkpt lat="45.93005" lon="4.68612">
        <ele>356</ele>
        <time>2016-11-08T11:16:31Z</time>
      </trkpt>
      <trkpt lat="45.93011" lon="4.68613">
        <ele>356</ele>
        <time>2016-11-08T11:16:32Z</time>
      </trkpt>
      <trkpt lat="45.93017" lon="4.68613">
        <ele>356</ele>
        <time>2016-11-08T11:16:33Z</time>
      </trkpt>
      <trkpt lat="45.93024" lon="4.68613">
        <ele>355</ele>
        <time>2016-11-08T11:16:34Z</time>
      </trkpt>
      <trkpt lat="45.93029" lon="4.68615">
        <ele>355</ele>
        <time>2016-11-08T11:16:35Z</time>
      </trkpt>
      <trkpt lat="45.93035" lon="4.68617">
        <ele>355</ele>
        <time>2016-11-08T11:16:36Z</time>
      </trkpt>
      <trkpt lat="45.93041" lon="4.68619">
        <ele>355</ele>
        <time>2016-11-08T11:16:37Z</time>
      </trkpt>
      <trkpt lat="45.93047" lon="4.68621">
        <ele>355</ele>
        <time>2016-11-08T11:16:38Z</time>
      </trkpt>
      <trkpt lat="45.93054" lon="4.68624">
        <ele>354</ele>
        <time>2016-11-08T11:16:39Z</time>
      </trkpt>
      <trkpt lat="45.93061" lon="4.68626">
        <ele>354</ele>
        <time>2016-11-08T11:16:40Z</time>
      </trkpt>
      <trkpt lat="45.93068" lon="4.68628">
        <ele>354</ele>
        <time>2016-11-08T11:16:41Z</time>
      </trkpt>
      <trkpt lat="45.93076" lon="4.6863">
        <ele>354</ele>
        <time>2016-11-08T11:16:42Z</time>
      </trkpt>
      <trkpt lat="45.93084" lon="4.68632">
        <ele>349</ele>
        <time>2016-11-08T11:16:43Z</time>
      </trkpt>
      <trkpt lat="45.93092" lon="4.68633">
        <ele>349</ele>
        <time>2016-11-08T11:16:44Z</time>
      </trkpt>
      <trkpt lat="45.93101" lon="4.68635">
        <ele>349</ele>
        <time>2016-11-08T11:16:45Z</time>
      </trkpt>
      <trkpt lat="45.9311" lon="4.68636">
        <ele>348</ele>
        <time>2016-11-08T11:16:46Z</time>
      </trkpt>
      <trkpt lat="45.93118" lon="4.68638">
        <ele>348</ele>
        <time>2016-11-08T11:16:47Z</time>
      </trkpt>
      <trkpt lat="45.93128" lon="4.68639">
        <ele>348</ele>
        <time>2016-11-08T11:16:48Z</time>
      </trkpt>
      <trkpt lat="45.93137" lon="4.68641">
        <ele>347</ele>
        <time>2016-11-08T11:16:49Z</time>
      </trkpt>
      <trkpt lat="45.93146" lon="4.68643">
        <ele>347</ele>
        <time>2016-11-08T11:16:50Z</time>
      </trkpt>
      <trkpt lat="45.93155" lon="4.68645">
        <ele>347</ele>
        <time>2016-11-08T11:16:51Z</time>
      </trkpt>
      <trkpt lat="45.93165" lon="4.68646">
        <ele>347</ele>
        <time>2016-11-08T11:16:52Z</time>
      </trkpt>
      <trkpt lat="45.93174" lon="4.68648">
        <ele>345</ele>
        <time>2016-11-08T11:16:53Z</time>
      </trkpt>
      <trkpt lat="45.93183" lon="4.6865">
        <ele>345</ele>
        <time>2016-11-08T11:16:54Z</time>
      </trkpt>
      <trkpt lat="45.93192" lon="4.68652">
        <ele>345</ele>
        <time>2016-11-08T11:16:55Z</time>
      </trkpt>
      <trkpt lat="45.93201" lon="4.68655">
        <ele>344</ele>
        <time>2016-11-08T11:16:56Z</time>
      </trkpt>
      <trkpt lat="45.9321" lon="4.68657">
        <ele>344</ele>
        <time>2016-11-08T11:16:57Z</time>
      </trkpt>
      <trkpt lat="45.93219" lon="4.6866">
        <ele>344</ele>
        <time>2016-11-08T11:16:58Z</time>
      </trkpt>
      <trkpt lat="45.93228" lon="4.68662">
        <ele>344</ele>
        <time>2016-11-08T11:16:59Z</time>
      </trkpt>
      <trkpt lat="45.93237" lon="4.68665">
        <ele>344</ele>
        <time>2016-11-08T11:17:00Z</time>
      </trkpt>
      <trkpt lat="45.93245" lon="4.68667">
        <ele>344</ele>
        <time>2016-11-08T11:17:01Z</time>
      </trkpt>
      <trkpt lat="45.93253" lon="4.6867">
        <ele>344</ele>
        <time>2016-11-08T11:17:02Z</time>
      </trkpt>
      <trkpt lat="45.93261" lon="4.68672">
        <ele>344</ele>
        <time>2016-11-08T11:17:03Z</time>
      </trkpt>
      <trkpt lat="45.93268" lon="4.68675">
        <ele>344</ele>
        <time>2016-11-08T11:17:04Z</time>
      </trkpt>
      <trkpt lat="45.93275" lon="4.68678">
        <ele>344</ele>
        <time>2016-11-08T11:17:05Z</time>
      </trkpt>
      <trkpt lat="45.93282" lon="4.6868">
        <ele>344</ele>
        <time>2016-11-08T11:17:06Z</time>
      </trkpt>
      <trkpt lat="45.93289" lon="4.68681">
        <ele>344</ele>
        <time>2016-11-08T11:17:07Z</time>
      </trkpt>
      <trkpt lat="45.93296" lon="4.68682">
        <ele>344</ele>
        <time>2016-11-08T11:17:08Z</time>
      </trkpt>
      <trkpt lat="45.93302" lon="4.68684">
        <ele>344</ele>
        <time>2016-11-08T11:17:09Z</time>
      </trkpt>
      <trkpt lat="45.93309" lon="4.68685">
        <ele>344</ele>
        <time>2016-11-08T11:17:10Z</time>
      </trkpt>
      <trkpt lat="45.93316" lon="4.68686">
        <ele>344</ele>
        <time>2016-11-08T11:17:11Z</time>
      </trkpt>
      <trkpt lat="45.93322" lon="4.68687">
        <ele>344</ele>
        <time>2016-11-08T11:17:12Z</time>
      </trkpt>
      <trkpt lat="45.93329" lon="4.68689">
        <ele>344</ele>
        <time>2016-11-08T11:17:13Z</time>
      </trkpt>
      <trkpt lat="45.93336" lon="4.6869">
        <ele>344</ele>
        <time>2016-11-08T11:17:14Z</time>
      </trkpt>
      <trkpt lat="45.93343" lon="4.68691">
        <ele>344</ele>
        <time>2016-11-08T11:17:15Z</time>
      </trkpt>
      <trkpt lat="45.93349" lon="4.68692">
        <ele>344</ele>
        <time>2016-11-08T11:17:16Z</time>
      </trkpt>
      <trkpt lat="45.93356" lon="4.68694">
        <ele>344</ele>
        <time>2016-11-08T11:17:17Z</time>
      </trkpt>
      <trkpt lat="45.93362" lon="4.68695">
        <ele>344</ele>
        <time>2016-11-08T11:17:18Z</time>
      </trkpt>
      <trkpt lat="45.93368" lon="4.68696">
        <ele>344</ele>
        <time>2016-11-08T11:17:19Z</time>
      </trkpt>
      <trkpt lat="45.93374" lon="4.68697">
        <ele>344</ele>
        <time>2016-11-08T11:17:20Z</time>
      </trkpt>
      <trkpt lat="45.9338" lon="4.68698">
        <ele>344</ele>
        <time>2016-11-08T11:17:21Z</time>
      </trkpt>
      <trkpt lat="45.93386" lon="4.68699">
        <ele>344</ele>
        <time>2016-11-08T11:17:22Z</time>
      </trkpt>
      <trkpt lat="45.93391" lon="4.687">
        <ele>344</ele>
        <time>2016-11-08T11:17:23Z</time>
      </trkpt>
      <trkpt lat="45.93397" lon="4.68702">
        <ele>344</ele>
        <time>2016-11-08T11:17:24Z</time>
      </trkpt>
      <trkpt lat="45.93402" lon="4.68703">
        <ele>344</ele>
        <time>2016-11-08T11:17:25Z</time>
      </trkpt>
      <trkpt lat="45.93408" lon="4.68705">
        <ele>344</ele>
        <time>2016-11-08T11:17:26Z</time>
      </trkpt>
      <trkpt lat="45.93414" lon="4.68707">
        <ele>344</ele>
        <time>2016-11-08T11:17:27Z</time>
      </trkpt>
      <trkpt lat="45.9342" lon="4.68708">
        <ele>343</ele>
        <time>2016-11-08T11:17:28Z</time>
      </trkpt>
      <trkpt lat="45.93426" lon="4.6871">
        <ele>343</ele>
        <time>2016-11-08T11:17:29Z</time>
      </trkpt>
      <trkpt lat="45.93433" lon="4.68712">
        <ele>343</ele>
        <time>2016-11-08T11:17:30Z</time>
      </trkpt>
      <trkpt lat="45.9344" lon="4.68714">
        <ele>343</ele>
        <time>2016-11-08T11:17:31Z</time>
      </trkpt>
      <trkpt lat="45.93446" lon="4.68716">
        <ele>343</ele>
        <time>2016-11-08T11:17:32Z</time>
      </trkpt>
      <trkpt lat="45.93453" lon="4.68718">
        <ele>342</ele>
        <time>2016-11-08T11:17:33Z</time>
      </trkpt>
      <trkpt lat="45.9346" lon="4.6872">
        <ele>342</ele>
        <time>2016-11-08T11:17:34Z</time>
      </trkpt>
      <trkpt lat="45.93466" lon="4.68723">
        <ele>342</ele>
        <time>2016-11-08T11:17:35Z</time>
      </trkpt>
      <trkpt lat="45.93473" lon="4.68725">
        <ele>342</ele>
        <time>2016-11-08T11:17:36Z</time>
      </trkpt>
      <trkpt lat="45.9348" lon="4.68728">
        <ele>342</ele>
        <time>2016-11-08T11:17:37Z</time>
      </trkpt>
      <trkpt lat="45.93486" lon="4.68731">
        <ele>342</ele>
        <time>2016-11-08T11:17:38Z</time>
      </trkpt>
      <trkpt lat="45.93492" lon="4.68733">
        <ele>342</ele>
        <time>2016-11-08T11:17:39Z</time>
      </trkpt>
      <trkpt lat="45.93498" lon="4.68734">
        <ele>342</ele>
        <time>2016-11-08T11:17:40Z</time>
      </trkpt>
      <trkpt lat="45.93504" lon="4.68736">
        <ele>342</ele>
        <time>2016-11-08T11:17:41Z</time>
      </trkpt>
      <trkpt lat="45.9351" lon="4.68737">
        <ele>342</ele>
        <time>2016-11-08T11:17:42Z</time>
      </trkpt>
      <trkpt lat="45.93515" lon="4.68738">
        <ele>342</ele>
        <time>2016-11-08T11:17:43Z</time>
      </trkpt>
      <trkpt lat="45.9352" lon="4.68738">
        <ele>342</ele>
        <time>2016-11-08T11:17:44Z</time>
      </trkpt>
      <trkpt lat="45.93526" lon="4.6874">
        <ele>342</ele>
        <time>2016-11-08T11:17:45Z</time>
      </trkpt>
      <trkpt lat="45.93531" lon="4.6874">
        <ele>342</ele>
        <time>2016-11-08T11:17:46Z</time>
      </trkpt>
      <trkpt lat="45.93536" lon="4.68741">
        <ele>342</ele>
        <time>2016-11-08T11:17:47Z</time>
      </trkpt>
      <trkpt lat="45.93541" lon="4.68742">
        <ele>342</ele>
        <time>2016-11-08T11:17:48Z</time>
      </trkpt>
      <trkpt lat="45.93547" lon="4.68743">
        <ele>342</ele>
        <time>2016-11-08T11:17:49Z</time>
      </trkpt>
      <trkpt lat="45.93552" lon="4.68745">
        <ele>342</ele>
        <time>2016-11-08T11:17:50Z</time>
      </trkpt>
      <trkpt lat="45.93557" lon="4.68746">
        <ele>342</ele>
        <time>2016-11-08T11:17:51Z</time>
      </trkpt>
      <trkpt lat="45.93563" lon="4.68748">
        <ele>343</ele>
        <time>2016-11-08T11:17:52Z</time>
      </trkpt>
      <trkpt lat="45.93569" lon="4.6875">
        <ele>343</ele>
        <time>2016-11-08T11:17:53Z</time>
      </trkpt>
      <trkpt lat="45.93575" lon="4.68751">
        <ele>344</ele>
        <time>2016-11-08T11:17:54Z</time>
      </trkpt>
      <trkpt lat="45.93581" lon="4.68753">
        <ele>344</ele>
        <time>2016-11-08T11:17:55Z</time>
      </trkpt>
      <trkpt lat="45.93588" lon="4.68755">
        <ele>344</ele>
        <time>2016-11-08T11:17:56Z</time>
      </trkpt>
      <trkpt lat="45.93594" lon="4.68757">
        <ele>344</ele>
        <time>2016-11-08T11:17:57Z</time>
      </trkpt>
      <trkpt lat="45.93599" lon="4.68758">
        <ele>344</ele>
        <time>2016-11-08T11:17:58Z</time>
      </trkpt>
      <trkpt lat="45.93605" lon="4.6876">
        <ele>344</ele>
        <time>2016-11-08T11:17:59Z</time>
      </trkpt>
      <trkpt lat="45.9361" lon="4.68761">
        <ele>344</ele>
        <time>2016-11-08T11:18:00Z</time>
      </trkpt>
      <trkpt lat="45.93615" lon="4.68763">
        <ele>343</ele>
        <time>2016-11-08T11:18:01Z</time>
      </trkpt>
      <trkpt lat="45.93621" lon="4.68764">
        <ele>343</ele>
        <time>2016-11-08T11:18:02Z</time>
      </trkpt>
      <trkpt lat="45.93626" lon="4.68766">
        <ele>343</ele>
        <time>2016-11-08T11:18:03Z</time>
      </trkpt>
      <trkpt lat="45.93632" lon="4.68768">
        <ele>343</ele>
        <time>2016-11-08T11:18:04Z</time>
      </trkpt>
      <trkpt lat="45.93637" lon="4.68771">
        <ele>343</ele>
        <time>2016-11-08T11:18:05Z</time>
      </trkpt>
      <trkpt lat="45.93643" lon="4.68774">
        <ele>343</ele>
        <time>2016-11-08T11:18:06Z</time>
      </trkpt>
      <trkpt lat="45.93649" lon="4.68776">
        <ele>343</ele>
        <time>2016-11-08T11:18:07Z</time>
      </trkpt>
      <trkpt lat="45.93656" lon="4.68774">
        <ele>343</ele>
        <time>2016-11-08T11:18:08Z</time>
      </trkpt>
      <trkpt lat="45.93662" lon="4.68774">
        <ele>343</ele>
        <time>2016-11-08T11:18:09Z</time>
      </trkpt>
      <trkpt lat="45.93668" lon="4.68775">
        <ele>342</ele>
        <time>2016-11-08T11:18:10Z</time>
      </trkpt>
      <trkpt lat="45.93674" lon="4.68777">
        <ele>342</ele>
        <time>2016-11-08T11:18:11Z</time>
      </trkpt>
      <trkpt lat="45.93679" lon="4.68779">
        <ele>342</ele>
        <time>2016-11-08T11:18:12Z</time>
      </trkpt>
      <trkpt lat="45.93685" lon="4.68781">
        <ele>342</ele>
        <time>2016-11-08T11:18:13Z</time>
      </trkpt>
      <trkpt lat="45.9369" lon="4.68783">
        <ele>342</ele>
        <time>2016-11-08T11:18:14Z</time>
      </trkpt>
      <trkpt lat="45.93696" lon="4.68785">
        <ele>342</ele>
        <time>2016-11-08T11:18:15Z</time>
      </trkpt>
      <trkpt lat="45.93701" lon="4.68786">
        <ele>342</ele>
        <time>2016-11-08T11:18:16Z</time>
      </trkpt>
      <trkpt lat="45.93707" lon="4.68787">
        <ele>342</ele>
        <time>2016-11-08T11:18:17Z</time>
      </trkpt>
      <trkpt lat="45.93712" lon="4.68788">
        <ele>342</ele>
        <time>2016-11-08T11:18:18Z</time>
      </trkpt>
      <trkpt lat="45.93718" lon="4.68789">
        <ele>342</ele>
        <time>2016-11-08T11:18:19Z</time>
      </trkpt>
      <trkpt lat="45.93723" lon="4.6879">
        <ele>342</ele>
        <time>2016-11-08T11:18:20Z</time>
      </trkpt>
      <trkpt lat="45.93728" lon="4.68789">
        <ele>342</ele>
        <time>2016-11-08T11:18:21Z</time>
      </trkpt>
      <trkpt lat="45.93733" lon="4.68791">
        <ele>342</ele>
        <time>2016-11-08T11:18:22Z</time>
      </trkpt>
      <trkpt lat="45.93739" lon="4.68793">
        <ele>342</ele>
        <time>2016-11-08T11:18:23Z</time>
      </trkpt>
      <trkpt lat="45.93744" lon="4.68794">
        <ele>342</ele>
        <time>2016-11-08T11:18:24Z</time>
      </trkpt>
      <trkpt lat="45.93749" lon="4.68796">
        <ele>342</ele>
        <time>2016-11-08T11:18:25Z</time>
      </trkpt>
      <trkpt lat="45.93754" lon="4.68798">
        <ele>341</ele>
        <time>2016-11-08T11:18:26Z</time>
      </trkpt>
      <trkpt lat="45.93759" lon="4.68801">
        <ele>341</ele>
        <time>2016-11-08T11:18:27Z</time>
      </trkpt>
      <trkpt lat="45.93764" lon="4.68803">
        <ele>341</ele>
        <time>2016-11-08T11:18:28Z</time>
      </trkpt>
      <trkpt lat="45.93769" lon="4.68805">
        <ele>341</ele>
        <time>2016-11-08T11:18:29Z</time>
      </trkpt>
      <trkpt lat="45.93775" lon="4.68807">
        <ele>341</ele>
        <time>2016-11-08T11:18:30Z</time>
      </trkpt>
      <trkpt lat="45.9378" lon="4.68809">
        <ele>341</ele>
        <time>2016-11-08T11:18:31Z</time>
      </trkpt>
      <trkpt lat="45.93785" lon="4.68812">
        <ele>341</ele>
        <time>2016-11-08T11:18:32Z</time>
      </trkpt>
      <trkpt lat="45.93791" lon="4.68815">
        <ele>341</ele>
        <time>2016-11-08T11:18:33Z</time>
      </trkpt>
      <trkpt lat="45.93796" lon="4.68818">
        <ele>341</ele>
        <time>2016-11-08T11:18:34Z</time>
      </trkpt>
      <trkpt lat="45.93802" lon="4.68821">
        <ele>341</ele>
        <time>2016-11-08T11:18:35Z</time>
      </trkpt>
      <trkpt lat="45.93807" lon="4.68825">
        <ele>341</ele>
        <time>2016-11-08T11:18:36Z</time>
      </trkpt>
      <trkpt lat="45.93812" lon="4.68829">
        <ele>341</ele>
        <time>2016-11-08T11:18:37Z</time>
      </trkpt>
      <trkpt lat="45.93818" lon="4.68833">
        <ele>341</ele>
        <time>2016-11-08T11:18:38Z</time>
      </trkpt>
      <trkpt lat="45.93824" lon="4.68838">
        <ele>342</ele>
        <time>2016-11-08T11:18:39Z</time>
      </trkpt>
      <trkpt lat="45.93829" lon="4.68841">
        <ele>342</ele>
        <time>2016-11-08T11:18:40Z</time>
      </trkpt>
      <trkpt lat="45.93834" lon="4.68845">
        <ele>342</ele>
        <time>2016-11-08T11:18:41Z</time>
      </trkpt>
      <trkpt lat="45.93839" lon="4.68848">
        <ele>342</ele>
        <time>2016-11-08T11:18:42Z</time>
      </trkpt>
      <trkpt lat="45.93844" lon="4.6885">
        <ele>342</ele>
        <time>2016-11-08T11:18:43Z</time>
      </trkpt>
      <trkpt lat="45.93848" lon="4.68854">
        <ele>342</ele>
        <time>2016-11-08T11:18:44Z</time>
      </trkpt>
      <trkpt lat="45.93853" lon="4.68857">
        <ele>342</ele>
        <time>2016-11-08T11:18:45Z</time>
      </trkpt>
      <trkpt lat="45.93858" lon="4.6886">
        <ele>342</ele>
        <time>2016-11-08T11:18:46Z</time>
      </trkpt>
      <trkpt lat="45.93863" lon="4.68863">
        <ele>342</ele>
        <time>2016-11-08T11:18:47Z</time>
      </trkpt>
      <trkpt lat="45.93868" lon="4.68866">
        <ele>342</ele>
        <time>2016-11-08T11:18:48Z</time>
      </trkpt>
      <trkpt lat="45.93873" lon="4.6887">
        <ele>342</ele>
        <time>2016-11-08T11:18:49Z</time>
      </trkpt>
      <trkpt lat="45.93878" lon="4.68874">
        <ele>343</ele>
        <time>2016-11-08T11:18:50Z</time>
      </trkpt>
      <trkpt lat="45.93883" lon="4.68878">
        <ele>342</ele>
        <time>2016-11-08T11:18:51Z</time>
      </trkpt>
      <trkpt lat="45.93888" lon="4.6888">
        <ele>342</ele>
        <time>2016-11-08T11:18:52Z</time>
      </trkpt>
      <trkpt lat="45.93894" lon="4.68882">
        <ele>342</ele>
        <time>2016-11-08T11:18:53Z</time>
      </trkpt>
      <trkpt lat="45.939" lon="4.68884">
        <ele>342</ele>
        <time>2016-11-08T11:18:54Z</time>
      </trkpt>
      <trkpt lat="45.93905" lon="4.68887">
        <ele>342</ele>
        <time>2016-11-08T11:18:55Z</time>
      </trkpt>
      <trkpt lat="45.93911" lon="4.68889">
        <ele>342</ele>
        <time>2016-11-08T11:18:56Z</time>
      </trkpt>
      <trkpt lat="45.93917" lon="4.6889">
        <ele>342</ele>
        <time>2016-11-08T11:18:57Z</time>
      </trkpt>
      <trkpt lat="45.93923" lon="4.68891">
        <ele>342</ele>
        <time>2016-11-08T11:18:58Z</time>
      </trkpt>
      <trkpt lat="45.93929" lon="4.68893">
        <ele>342</ele>
        <time>2016-11-08T11:18:59Z</time>
      </trkpt>
      <trkpt lat="45.93935" lon="4.68895">
        <ele>342</ele>
        <time>2016-11-08T11:19:00Z</time>
      </trkpt>
      <trkpt lat="45.93941" lon="4.68897">
        <ele>342</ele>
        <time>2016-11-08T11:19:01Z</time>
      </trkpt>
      <trkpt lat="45.93946" lon="4.68899">
        <ele>342</ele>
        <time>2016-11-08T11:19:02Z</time>
      </trkpt>
      <trkpt lat="45.93951" lon="4.68901">
        <ele>342</ele>
        <time>2016-11-08T11:19:03Z</time>
      </trkpt>
      <trkpt lat="45.93956" lon="4.68903">
        <ele>342</ele>
        <time>2016-11-08T11:19:04Z</time>
      </trkpt>
      <trkpt lat="45.93961" lon="4.68905">
        <ele>342</ele>
        <time>2016-11-08T11:19:05Z</time>
      </trkpt>
      <trkpt lat="45.93966" lon="4.68906">
        <ele>342</ele>
        <time>2016-11-08T11:19:06Z</time>
      </trkpt>
      <trkpt lat="45.9397" lon="4.68908">
        <ele>342</ele>
        <time>2016-11-08T11:19:07Z</time>
      </trkpt>
      <trkpt lat="45.93976" lon="4.68909">
        <ele>342</ele>
        <time>2016-11-08T11:19:08Z</time>
      </trkpt>
      <trkpt lat="45.9398" lon="4.68911">
        <ele>342</ele>
        <time>2016-11-08T11:19:09Z</time>
      </trkpt>
      <trkpt lat="45.93985" lon="4.68913">
        <ele>342</ele>
        <time>2016-11-08T11:19:10Z</time>
      </trkpt>
      <trkpt lat="45.9399" lon="4.68915">
        <ele>342</ele>
        <time>2016-11-08T11:19:11Z</time>
      </trkpt>
      <trkpt lat="45.93995" lon="4.68916">
        <ele>342</ele>
        <time>2016-11-08T11:19:12Z</time>
      </trkpt>
      <trkpt lat="45.94" lon="4.68917">
        <ele>342</ele>
        <time>2016-11-08T11:19:13Z</time>
      </trkpt>
      <trkpt lat="45.94006" lon="4.68918">
        <ele>342</ele>
        <time>2016-11-08T11:19:14Z</time>
      </trkpt>
      <trkpt lat="45.94011" lon="4.6892">
        <ele>342</ele>
        <time>2016-11-08T11:19:15Z</time>
      </trkpt>
      <trkpt lat="45.94016" lon="4.68922">
        <ele>341</ele>
        <time>2016-11-08T11:19:16Z</time>
      </trkpt>
      <trkpt lat="45.94022" lon="4.68924">
        <ele>341</ele>
        <time>2016-11-08T11:19:17Z</time>
      </trkpt>
      <trkpt lat="45.94027" lon="4.68927">
        <ele>341</ele>
        <time>2016-11-08T11:19:18Z</time>
      </trkpt>
      <trkpt lat="45.94032" lon="4.68929">
        <ele>341</ele>
        <time>2016-11-08T11:19:19Z</time>
      </trkpt>
      <trkpt lat="45.94037" lon="4.68931">
        <ele>341</ele>
        <time>2016-11-08T11:19:20Z</time>
      </trkpt>
      <trkpt lat="45.94042" lon="4.68933">
        <ele>341</ele>
        <time>2016-11-08T11:19:21Z</time>
      </trkpt>
      <trkpt lat="45.94047" lon="4.68934">
        <ele>341</ele>
        <time>2016-11-08T11:19:22Z</time>
      </trkpt>
      <trkpt lat="45.94052" lon="4.68937">
        <ele>341</ele>
        <time>2016-11-08T11:19:23Z</time>
      </trkpt>
      <trkpt lat="45.94057" lon="4.68941">
        <ele>341</ele>
        <time>2016-11-08T11:19:24Z</time>
      </trkpt>
      <trkpt lat="45.94061" lon="4.68946">
        <ele>341</ele>
        <time>2016-11-08T11:19:25Z</time>
      </trkpt>
      <trkpt lat="45.94067" lon="4.6895">
        <ele>341</ele>
        <time>2016-11-08T11:19:26Z</time>
      </trkpt>
      <trkpt lat="45.94073" lon="4.68952">
        <ele>341</ele>
        <time>2016-11-08T11:19:27Z</time>
      </trkpt>
      <trkpt lat="45.94079" lon="4.68953">
        <ele>341</ele>
        <time>2016-11-08T11:19:28Z</time>
      </trkpt>
      <trkpt lat="45.94085" lon="4.68953">
        <ele>340</ele>
        <time>2016-11-08T11:19:29Z</time>
      </trkpt>
      <trkpt lat="45.94092" lon="4.68954">
        <ele>340</ele>
        <time>2016-11-08T11:19:30Z</time>
      </trkpt>
      <trkpt lat="45.94098" lon="4.68955">
        <ele>340</ele>
        <time>2016-11-08T11:19:31Z</time>
      </trkpt>
      <trkpt lat="45.94105" lon="4.68957">
        <ele>340</ele>
        <time>2016-11-08T11:19:32Z</time>
      </trkpt>
      <trkpt lat="45.94111" lon="4.68959">
        <ele>340</ele>
        <time>2016-11-08T11:19:33Z</time>
      </trkpt>
      <trkpt lat="45.94117" lon="4.68961">
        <ele>340</ele>
        <time>2016-11-08T11:19:34Z</time>
      </trkpt>
      <trkpt lat="45.94123" lon="4.68963">
        <ele>340</ele>
        <time>2016-11-08T11:19:35Z</time>
      </trkpt>
      <trkpt lat="45.94129" lon="4.68965">
        <ele>340</ele>
        <time>2016-11-08T11:19:36Z</time>
      </trkpt>
      <trkpt lat="45.94135" lon="4.68967">
        <ele>340</ele>
        <time>2016-11-08T11:19:37Z</time>
      </trkpt>
      <trkpt lat="45.94141" lon="4.68969">
        <ele>340</ele>
        <time>2016-11-08T11:19:38Z</time>
      </trkpt>
      <trkpt lat="45.94146" lon="4.6897">
        <ele>340</ele>
        <time>2016-11-08T11:19:39Z</time>
      </trkpt>
      <trkpt lat="45.94152" lon="4.68972">
        <ele>340</ele>
        <time>2016-11-08T11:19:40Z</time>
      </trkpt>
      <trkpt lat="45.94157" lon="4.68974">
        <ele>340</ele>
        <time>2016-11-08T11:19:41Z</time>
      </trkpt>
      <trkpt lat="45.94162" lon="4.68975">
        <ele>340</ele>
        <time>2016-11-08T11:19:42Z</time>
      </trkpt>
      <trkpt lat="45.94168" lon="4.68977">
        <ele>339</ele>
        <time>2016-11-08T11:19:43Z</time>
      </trkpt>
      <trkpt lat="45.94174" lon="4.68978">
        <ele>339</ele>
        <time>2016-11-08T11:19:44Z</time>
      </trkpt>
      <trkpt lat="45.9418" lon="4.68981">
        <ele>339</ele>
        <time>2016-11-08T11:19:45Z</time>
      </trkpt>
      <trkpt lat="45.94186" lon="4.68983">
        <ele>339</ele>
        <time>2016-11-08T11:19:46Z</time>
      </trkpt>
      <trkpt lat="45.94192" lon="4.68984">
        <ele>338</ele>
        <time>2016-11-08T11:19:47Z</time>
      </trkpt>
      <trkpt lat="45.94198" lon="4.68985">
        <ele>338</ele>
        <time>2016-11-08T11:19:48Z</time>
      </trkpt>
      <trkpt lat="45.94204" lon="4.68987">
        <ele>338</ele>
        <time>2016-11-08T11:19:49Z</time>
      </trkpt>
      <trkpt lat="45.9421" lon="4.68989">
        <ele>338</ele>
        <time>2016-11-08T11:19:50Z</time>
      </trkpt>
      <trkpt lat="45.94216" lon="4.68991">
        <ele>338</ele>
        <time>2016-11-08T11:19:51Z</time>
      </trkpt>
      <trkpt lat="45.94222" lon="4.68993">
        <ele>338</ele>
        <time>2016-11-08T11:19:52Z</time>
      </trkpt>
      <trkpt lat="45.94227" lon="4.68995">
        <ele>338</ele>
        <time>2016-11-08T11:19:53Z</time>
      </trkpt>
      <trkpt lat="45.94233" lon="4.68996">
        <ele>338</ele>
        <time>2016-11-08T11:19:54Z</time>
      </trkpt>
      <trkpt lat="45.94239" lon="4.68997">
        <ele>338</ele>
        <time>2016-11-08T11:19:55Z</time>
      </trkpt>
      <trkpt lat="45.94244" lon="4.68998">
        <ele>338</ele>
        <time>2016-11-08T11:19:56Z</time>
      </trkpt>
      <trkpt lat="45.94249" lon="4.68999">
        <ele>338</ele>
        <time>2016-11-08T11:19:57Z</time>
      </trkpt>
      <trkpt lat="45.94254" lon="4.69">
        <ele>338</ele>
        <time>2016-11-08T11:19:58Z</time>
      </trkpt>
      <trkpt lat="45.94259" lon="4.69001">
        <ele>338</ele>
        <time>2016-11-08T11:19:59Z</time>
      </trkpt>
      <trkpt lat="45.94264" lon="4.69002">
        <ele>338</ele>
        <time>2016-11-08T11:20:00Z</time>
      </trkpt>
      <trkpt lat="45.9427" lon="4.69003">
        <ele>337</ele>
        <time>2016-11-08T11:20:01Z</time>
      </trkpt>
      <trkpt lat="45.94276" lon="4.69004">
        <ele>337</ele>
        <time>2016-11-08T11:20:02Z</time>
      </trkpt>
      <trkpt lat="45.94282" lon="4.69006">
        <ele>337</ele>
        <time>2016-11-08T11:20:03Z</time>
      </trkpt>
      <trkpt lat="45.94288" lon="4.69007">
        <ele>337</ele>
        <time>2016-11-08T11:20:04Z</time>
      </trkpt>
      <trkpt lat="45.94294" lon="4.69008">
        <ele>337</ele>
        <time>2016-11-08T11:20:05Z</time>
      </trkpt>
      <trkpt lat="45.94301" lon="4.6901">
        <ele>337</ele>
        <time>2016-11-08T11:20:06Z</time>
      </trkpt>
      <trkpt lat="45.94307" lon="4.69012">
        <ele>337</ele>
        <time>2016-11-08T11:20:07Z</time>
      </trkpt>
      <trkpt lat="45.94312" lon="4.69013">
        <ele>337</ele>
        <time>2016-11-08T11:20:08Z</time>
      </trkpt>
      <trkpt lat="45.94319" lon="4.69013">
        <ele>337</ele>
        <time>2016-11-08T11:20:09Z</time>
      </trkpt>
      <trkpt lat="45.94325" lon="4.69013">
        <ele>337</ele>
        <time>2016-11-08T11:20:10Z</time>
      </trkpt>
      <trkpt lat="45.94331" lon="4.69013">
        <ele>337</ele>
        <time>2016-11-08T11:20:11Z</time>
      </trkpt>
      <trkpt lat="45.94337" lon="4.69013">
        <ele>337</ele>
        <time>2016-11-08T11:20:12Z</time>
      </trkpt>
      <trkpt lat="45.94343" lon="4.69012">
        <ele>338</ele>
        <time>2016-11-08T11:20:13Z</time>
      </trkpt>
      <trkpt lat="45.94348" lon="4.69012">
        <ele>338</ele>
        <time>2016-11-08T11:20:14Z</time>
      </trkpt>
      <trkpt lat="45.94354" lon="4.69012">
        <ele>338</ele>
        <time>2016-11-08T11:20:15Z</time>
      </trkpt>
      <trkpt lat="45.94359" lon="4.69012">
        <ele>338</ele>
        <time>2016-11-08T11:20:16Z</time>
      </trkpt>
      <trkpt lat="45.94364" lon="4.69012">
        <ele>338</ele>
        <time>2016-11-08T11:20:17Z</time>
      </trkpt>
      <trkpt lat="45.94368" lon="4.69011">
        <ele>338</ele>
        <time>2016-11-08T11:20:18Z</time>
      </trkpt>
      <trkpt lat="45.94373" lon="4.69011">
        <ele>338</ele>
        <time>2016-11-08T11:20:19Z</time>
      </trkpt>
      <trkpt lat="45.94378" lon="4.69011">
        <ele>338</ele>
        <time>2016-11-08T11:20:20Z</time>
      </trkpt>
      <trkpt lat="45.94383" lon="4.69011">
        <ele>338</ele>
        <time>2016-11-08T11:20:21Z</time>
      </trkpt>
      <trkpt lat="45.94388" lon="4.69011">
        <ele>338</ele>
        <time>2016-11-08T11:20:22Z</time>
      </trkpt>
      <trkpt lat="45.94393" lon="4.69012">
        <ele>338</ele>
        <time>2016-11-08T11:20:23Z</time>
      </trkpt>
      <trkpt lat="45.94398" lon="4.69012">
        <ele>339</ele>
        <time>2016-11-08T11:20:24Z</time>
      </trkpt>
      <trkpt lat="45.94404" lon="4.69012">
        <ele>339</ele>
        <time>2016-11-08T11:20:25Z</time>
      </trkpt>
      <trkpt lat="45.94409" lon="4.69012">
        <ele>339</ele>
        <time>2016-11-08T11:20:26Z</time>
      </trkpt>
      <trkpt lat="45.94414" lon="4.69012">
        <ele>339</ele>
        <time>2016-11-08T11:20:27Z</time>
      </trkpt>
      <trkpt lat="45.9442" lon="4.69013">
        <ele>340</ele>
        <time>2016-11-08T11:20:28Z</time>
      </trkpt>
      <trkpt lat="45.94425" lon="4.69013">
        <ele>340</ele>
        <time>2016-11-08T11:20:29Z</time>
      </trkpt>
      <trkpt lat="45.9443" lon="4.69013">
        <ele>340</ele>
        <time>2016-11-08T11:20:30Z</time>
      </trkpt>
      <trkpt lat="45.94436" lon="4.69013">
        <ele>340</ele>
        <time>2016-11-08T11:20:31Z</time>
      </trkpt>
      <trkpt lat="45.94442" lon="4.69013">
        <ele>340</ele>
        <time>2016-11-08T11:20:32Z</time>
      </trkpt>
      <trkpt lat="45.94447" lon="4.69014">
        <ele>340</ele>
        <time>2016-11-08T11:20:33Z</time>
      </trkpt>
      <trkpt lat="45.94453" lon="4.69014">
        <ele>340</ele>
        <time>2016-11-08T11:20:34Z</time>
      </trkpt>
      <trkpt lat="45.94458" lon="4.69014">
        <ele>341</ele>
        <time>2016-11-08T11:20:35Z</time>
      </trkpt>
      <trkpt lat="45.94463" lon="4.69015">
        <ele>341</ele>
        <time>2016-11-08T11:20:36Z</time>
      </trkpt>
      <trkpt lat="45.94467" lon="4.69016">
        <ele>341</ele>
        <time>2016-11-08T11:20:37Z</time>
      </trkpt>
      <trkpt lat="45.94472" lon="4.69017">
        <ele>341</ele>
        <time>2016-11-08T11:20:38Z</time>
      </trkpt>
      <trkpt lat="45.94477" lon="4.69018">
        <ele>341</ele>
        <time>2016-11-08T11:20:39Z</time>
      </trkpt>
      <trkpt lat="45.94482" lon="4.69019">
        <ele>341</ele>
        <time>2016-11-08T11:20:40Z</time>
      </trkpt>
      <trkpt lat="45.94486" lon="4.69019">
        <ele>341</ele>
        <time>2016-11-08T11:20:41Z</time>
      </trkpt>
      <trkpt lat="45.94491" lon="4.6902">
        <ele>341</ele>
        <time>2016-11-08T11:20:42Z</time>
      </trkpt>
      <trkpt lat="45.94496" lon="4.69021">
        <ele>341</ele>
        <time>2016-11-08T11:20:43Z</time>
      </trkpt>
      <trkpt lat="45.94501" lon="4.69022">
        <ele>342</ele>
        <time>2016-11-08T11:20:44Z</time>
      </trkpt>
      <trkpt lat="45.94506" lon="4.69023">
        <ele>342</ele>
        <time>2016-11-08T11:20:45Z</time>
      </trkpt>
      <trkpt lat="45.94511" lon="4.69024">
        <ele>342</ele>
        <time>2016-11-08T11:20:46Z</time>
      </trkpt>
      <trkpt lat="45.94515" lon="4.69025">
        <ele>342</ele>
        <time>2016-11-08T11:20:47Z</time>
      </trkpt>
      <trkpt lat="45.9452" lon="4.69027">
        <ele>342</ele>
        <time>2016-11-08T11:20:48Z</time>
      </trkpt>
      <trkpt lat="45.94524" lon="4.69028">
        <ele>342</ele>
        <time>2016-11-08T11:20:49Z</time>
      </trkpt>
      <trkpt lat="45.94529" lon="4.69029">
        <ele>342</ele>
        <time>2016-11-08T11:20:50Z</time>
      </trkpt>
      <trkpt lat="45.94533" lon="4.6903">
        <ele>342</ele>
        <time>2016-11-08T11:20:51Z</time>
      </trkpt>
      <trkpt lat="45.94538" lon="4.69032">
        <ele>342</ele>
        <time>2016-11-08T11:20:52Z</time>
      </trkpt>
      <trkpt lat="45.94543" lon="4.69033">
        <ele>342</ele>
        <time>2016-11-08T11:20:53Z</time>
      </trkpt>
      <trkpt lat="45.94548" lon="4.69034">
        <ele>342</ele>
        <time>2016-11-08T11:20:54Z</time>
      </trkpt>
      <trkpt lat="45.94553" lon="4.69035">
        <ele>342</ele>
        <time>2016-11-08T11:20:55Z</time>
      </trkpt>
      <trkpt lat="45.94558" lon="4.69036">
        <ele>342</ele>
        <time>2016-11-08T11:20:56Z</time>
      </trkpt>
      <trkpt lat="45.94564" lon="4.69038">
        <ele>342</ele>
        <time>2016-11-08T11:20:57Z</time>
      </trkpt>
      <trkpt lat="45.94569" lon="4.69039">
        <ele>342</ele>
        <time>2016-11-08T11:20:58Z</time>
      </trkpt>
      <trkpt lat="45.94575" lon="4.6904">
        <ele>342</ele>
        <time>2016-11-08T11:20:59Z</time>
      </trkpt>
      <trkpt lat="45.9458" lon="4.69041">
        <ele>342</ele>
        <time>2016-11-08T11:21:00Z</time>
      </trkpt>
      <trkpt lat="45.94585" lon="4.69043">
        <ele>342</ele>
        <time>2016-11-08T11:21:01Z</time>
      </trkpt>
      <trkpt lat="45.9459" lon="4.69044">
        <ele>342</ele>
        <time>2016-11-08T11:21:02Z</time>
      </trkpt>
      <trkpt lat="45.94594" lon="4.69046">
        <ele>342</ele>
        <time>2016-11-08T11:21:03Z</time>
      </trkpt>
      <trkpt lat="45.94603" lon="4.69048">
        <ele>342</ele>
        <time>2016-11-08T11:21:05Z</time>
      </trkpt>
      <trkpt lat="45.94607" lon="4.6905">
        <ele>342</ele>
        <time>2016-11-08T11:21:06Z</time>
      </trkpt>
      <trkpt lat="45.94612" lon="4.69052">
        <ele>342</ele>
        <time>2016-11-08T11:21:07Z</time>
      </trkpt>
      <trkpt lat="45.94616" lon="4.69053">
        <ele>342</ele>
        <time>2016-11-08T11:21:08Z</time>
      </trkpt>
      <trkpt lat="45.94621" lon="4.69055">
        <ele>342</ele>
        <time>2016-11-08T11:21:09Z</time>
      </trkpt>
      <trkpt lat="45.94626" lon="4.69057">
        <ele>342</ele>
        <time>2016-11-08T11:21:10Z</time>
      </trkpt>
      <trkpt lat="45.94631" lon="4.69059">
        <ele>342</ele>
        <time>2016-11-08T11:21:11Z</time>
      </trkpt>
      <trkpt lat="45.94636" lon="4.6906">
        <ele>342</ele>
        <time>2016-11-08T11:21:12Z</time>
      </trkpt>
      <trkpt lat="45.94641" lon="4.69062">
        <ele>342</ele>
        <time>2016-11-08T11:21:13Z</time>
      </trkpt>
      <trkpt lat="45.94646" lon="4.69064">
        <ele>342</ele>
        <time>2016-11-08T11:21:14Z</time>
      </trkpt>
      <trkpt lat="45.94651" lon="4.69065">
        <ele>342</ele>
        <time>2016-11-08T11:21:15Z</time>
      </trkpt>
      <trkpt lat="45.94657" lon="4.69067">
        <ele>342</ele>
        <time>2016-11-08T11:21:16Z</time>
      </trkpt>
      <trkpt lat="45.94663" lon="4.69068">
        <ele>342</ele>
        <time>2016-11-08T11:21:17Z</time>
      </trkpt>
      <trkpt lat="45.94668" lon="4.69069">
        <ele>342</ele>
        <time>2016-11-08T11:21:18Z</time>
      </trkpt>
      <trkpt lat="45.94674" lon="4.6907">
        <ele>342</ele>
        <time>2016-11-08T11:21:19Z</time>
      </trkpt>
      <trkpt lat="45.94679" lon="4.69072">
        <ele>342</ele>
        <time>2016-11-08T11:21:20Z</time>
      </trkpt>
      <trkpt lat="45.94684" lon="4.69074">
        <ele>342</ele>
        <time>2016-11-08T11:21:21Z</time>
      </trkpt>
      <trkpt lat="45.94689" lon="4.69076">
        <ele>342</ele>
        <time>2016-11-08T11:21:22Z</time>
      </trkpt>
      <trkpt lat="45.94693" lon="4.69078">
        <ele>342</ele>
        <time>2016-11-08T11:21:23Z</time>
      </trkpt>
      <trkpt lat="45.94698" lon="4.69079">
        <ele>342</ele>
        <time>2016-11-08T11:21:24Z</time>
      </trkpt>
      <trkpt lat="45.94703" lon="4.69081">
        <ele>342</ele>
        <time>2016-11-08T11:21:25Z</time>
      </trkpt>
      <trkpt lat="45.94708" lon="4.69083">
        <ele>343</ele>
        <time>2016-11-08T11:21:26Z</time>
      </trkpt>
      <trkpt lat="45.94712" lon="4.69085">
        <ele>344</ele>
        <time>2016-11-08T11:21:27Z</time>
      </trkpt>
      <trkpt lat="45.94717" lon="4.69086">
        <ele>344</ele>
        <time>2016-11-08T11:21:28Z</time>
      </trkpt>
      <trkpt lat="45.94722" lon="4.69088">
        <ele>344</ele>
        <time>2016-11-08T11:21:29Z</time>
      </trkpt>
      <trkpt lat="45.94727" lon="4.6909">
        <ele>344</ele>
        <time>2016-11-08T11:21:30Z</time>
      </trkpt>
      <trkpt lat="45.94731" lon="4.69092">
        <ele>344</ele>
        <time>2016-11-08T11:21:31Z</time>
      </trkpt>
      <trkpt lat="45.94736" lon="4.69093">
        <ele>344</ele>
        <time>2016-11-08T11:21:32Z</time>
      </trkpt>
      <trkpt lat="45.94741" lon="4.69094">
        <ele>344</ele>
        <time>2016-11-08T11:21:33Z</time>
      </trkpt>
      <trkpt lat="45.94746" lon="4.69095">
        <ele>345</ele>
        <time>2016-11-08T11:21:34Z</time>
      </trkpt>
      <trkpt lat="45.94751" lon="4.69097">
        <ele>345</ele>
        <time>2016-11-08T11:21:35Z</time>
      </trkpt>
      <trkpt lat="45.94755" lon="4.69098">
        <ele>345</ele>
        <time>2016-11-08T11:21:36Z</time>
      </trkpt>
      <trkpt lat="45.9476" lon="4.691">
        <ele>344</ele>
        <time>2016-11-08T11:21:37Z</time>
      </trkpt>
      <trkpt lat="45.94764" lon="4.69101">
        <ele>344</ele>
        <time>2016-11-08T11:21:38Z</time>
      </trkpt>
      <trkpt lat="45.94769" lon="4.69102">
        <ele>344</ele>
        <time>2016-11-08T11:21:39Z</time>
      </trkpt>
      <trkpt lat="45.94774" lon="4.69104">
        <ele>344</ele>
        <time>2016-11-08T11:21:40Z</time>
      </trkpt>
      <trkpt lat="45.94778" lon="4.69105">
        <ele>344</ele>
        <time>2016-11-08T11:21:41Z</time>
      </trkpt>
      <trkpt lat="45.94783" lon="4.69107">
        <ele>344</ele>
        <time>2016-11-08T11:21:42Z</time>
      </trkpt>
      <trkpt lat="45.94788" lon="4.69109">
        <ele>344</ele>
        <time>2016-11-08T11:21:43Z</time>
      </trkpt>
      <trkpt lat="45.94793" lon="4.69111">
        <ele>344</ele>
        <time>2016-11-08T11:21:44Z</time>
      </trkpt>
      <trkpt lat="45.94798" lon="4.69112">
        <ele>344</ele>
        <time>2016-11-08T11:21:45Z</time>
      </trkpt>
      <trkpt lat="45.94802" lon="4.69114">
        <ele>344</ele>
        <time>2016-11-08T11:21:46Z</time>
      </trkpt>
      <trkpt lat="45.94811" lon="4.69117">
        <ele>344</ele>
        <time>2016-11-08T11:21:48Z</time>
      </trkpt>
      <trkpt lat="45.94815" lon="4.69119">
        <ele>344</ele>
        <time>2016-11-08T11:21:49Z</time>
      </trkpt>
      <trkpt lat="45.94819" lon="4.6912">
        <ele>344</ele>
        <time>2016-11-08T11:21:50Z</time>
      </trkpt>
      <trkpt lat="45.94824" lon="4.69122">
        <ele>344</ele>
        <time>2016-11-08T11:21:51Z</time>
      </trkpt>
      <trkpt lat="45.94829" lon="4.69123">
        <ele>344</ele>
        <time>2016-11-08T11:21:52Z</time>
      </trkpt>
      <trkpt lat="45.94833" lon="4.69126">
        <ele>344</ele>
        <time>2016-11-08T11:21:53Z</time>
      </trkpt>
      <trkpt lat="45.94838" lon="4.69129">
        <ele>342</ele>
        <time>2016-11-08T11:21:54Z</time>
      </trkpt>
      <trkpt lat="45.94843" lon="4.69131">
        <ele>342</ele>
        <time>2016-11-08T11:21:55Z</time>
      </trkpt>
      <trkpt lat="45.94848" lon="4.69133">
        <ele>342</ele>
        <time>2016-11-08T11:21:56Z</time>
      </trkpt>
      <trkpt lat="45.94853" lon="4.69134">
        <ele>342</ele>
        <time>2016-11-08T11:21:57Z</time>
      </trkpt>
      <trkpt lat="45.94858" lon="4.69136">
        <ele>342</ele>
        <time>2016-11-08T11:21:58Z</time>
      </trkpt>
      <trkpt lat="45.94863" lon="4.69138">
        <ele>342</ele>
        <time>2016-11-08T11:21:59Z</time>
      </trkpt>
      <trkpt lat="45.94868" lon="4.6914">
        <ele>342</ele>
        <time>2016-11-08T11:22:00Z</time>
      </trkpt>
      <trkpt lat="45.94873" lon="4.69142">
        <ele>342</ele>
        <time>2016-11-08T11:22:01Z</time>
      </trkpt>
      <trkpt lat="45.94878" lon="4.69144">
        <ele>342</ele>
        <time>2016-11-08T11:22:02Z</time>
      </trkpt>
      <trkpt lat="45.94882" lon="4.69146">
        <ele>342</ele>
        <time>2016-11-08T11:22:03Z</time>
      </trkpt>
      <trkpt lat="45.94887" lon="4.69149">
        <ele>342</ele>
        <time>2016-11-08T11:22:04Z</time>
      </trkpt>
      <trkpt lat="45.94892" lon="4.69151">
        <ele>342</ele>
        <time>2016-11-08T11:22:05Z</time>
      </trkpt>
      <trkpt lat="45.94897" lon="4.69153">
        <ele>342</ele>
        <time>2016-11-08T11:22:06Z</time>
      </trkpt>
      <trkpt lat="45.94902" lon="4.69156">
        <ele>342</ele>
        <time>2016-11-08T11:22:07Z</time>
      </trkpt>
      <trkpt lat="45.94907" lon="4.69159">
        <ele>342</ele>
        <time>2016-11-08T11:22:08Z</time>
      </trkpt>
      <trkpt lat="45.94913" lon="4.69162">
        <ele>342</ele>
        <time>2016-11-08T11:22:09Z</time>
      </trkpt>
      <trkpt lat="45.94918" lon="4.69165">
        <ele>342</ele>
        <time>2016-11-08T11:22:10Z</time>
      </trkpt>
      <trkpt lat="45.94923" lon="4.69169">
        <ele>342</ele>
        <time>2016-11-08T11:22:11Z</time>
      </trkpt>
      <trkpt lat="45.94929" lon="4.69172">
        <ele>341</ele>
        <time>2016-11-08T11:22:12Z</time>
      </trkpt>
      <trkpt lat="45.94934" lon="4.69175">
        <ele>341</ele>
        <time>2016-11-08T11:22:13Z</time>
      </trkpt>
      <trkpt lat="45.9494" lon="4.69178">
        <ele>341</ele>
        <time>2016-11-08T11:22:14Z</time>
      </trkpt>
      <trkpt lat="45.94946" lon="4.69182">
        <ele>340</ele>
        <time>2016-11-08T11:22:15Z</time>
      </trkpt>
      <trkpt lat="45.94952" lon="4.69186">
        <ele>340</ele>
        <time>2016-11-08T11:22:16Z</time>
      </trkpt>
      <trkpt lat="45.94958" lon="4.6919">
        <ele>340</ele>
        <time>2016-11-08T11:22:17Z</time>
      </trkpt>
      <trkpt lat="45.94964" lon="4.69195">
        <ele>340</ele>
        <time>2016-11-08T11:22:18Z</time>
      </trkpt>
      <trkpt lat="45.94969" lon="4.692">
        <ele>340</ele>
        <time>2016-11-08T11:22:19Z</time>
      </trkpt>
      <trkpt lat="45.94975" lon="4.69206">
        <ele>340</ele>
        <time>2016-11-08T11:22:20Z</time>
      </trkpt>
      <trkpt lat="45.94981" lon="4.69211">
        <ele>340</ele>
        <time>2016-11-08T11:22:21Z</time>
      </trkpt>
      <trkpt lat="45.94988" lon="4.69215">
        <ele>340</ele>
        <time>2016-11-08T11:22:22Z</time>
      </trkpt>
      <trkpt lat="45.94995" lon="4.69218">
        <ele>340</ele>
        <time>2016-11-08T11:22:23Z</time>
      </trkpt>
      <trkpt lat="45.95002" lon="4.6922">
        <ele>337</ele>
        <time>2016-11-08T11:22:24Z</time>
      </trkpt>
      <trkpt lat="45.95008" lon="4.69225">
        <ele>337</ele>
        <time>2016-11-08T11:22:25Z</time>
      </trkpt>
      <trkpt lat="45.95015" lon="4.69229">
        <ele>337</ele>
        <time>2016-11-08T11:22:26Z</time>
      </trkpt>
      <trkpt lat="45.95022" lon="4.69235">
        <ele>337</ele>
        <time>2016-11-08T11:22:27Z</time>
      </trkpt>
      <trkpt lat="45.95028" lon="4.6924">
        <ele>337</ele>
        <time>2016-11-08T11:22:28Z</time>
      </trkpt>
      <trkpt lat="45.95035" lon="4.69246">
        <ele>336</ele>
        <time>2016-11-08T11:22:29Z</time>
      </trkpt>
      <trkpt lat="45.95041" lon="4.69253">
        <ele>337</ele>
        <time>2016-11-08T11:22:30Z</time>
      </trkpt>
      <trkpt lat="45.95048" lon="4.69259">
        <ele>337</ele>
        <time>2016-11-08T11:22:31Z</time>
      </trkpt>
      <trkpt lat="45.95054" lon="4.69265">
        <ele>336</ele>
        <time>2016-11-08T11:22:32Z</time>
      </trkpt>
      <trkpt lat="45.95061" lon="4.69272">
        <ele>336</ele>
        <time>2016-11-08T11:22:33Z</time>
      </trkpt>
      <trkpt lat="45.95067" lon="4.69278">
        <ele>336</ele>
        <time>2016-11-08T11:22:34Z</time>
      </trkpt>
      <trkpt lat="45.95073" lon="4.69284">
        <ele>336</ele>
        <time>2016-11-08T11:22:35Z</time>
      </trkpt>
      <trkpt lat="45.95079" lon="4.69291">
        <ele>336</ele>
        <time>2016-11-08T11:22:36Z</time>
      </trkpt>
      <trkpt lat="45.95085" lon="4.69297">
        <ele>334</ele>
        <time>2016-11-08T11:22:37Z</time>
      </trkpt>
      <trkpt lat="45.95091" lon="4.69304">
        <ele>334</ele>
        <time>2016-11-08T11:22:38Z</time>
      </trkpt>
      <trkpt lat="45.95096" lon="4.6931">
        <ele>334</ele>
        <time>2016-11-08T11:22:39Z</time>
      </trkpt>
      <trkpt lat="45.95102" lon="4.69316">
        <ele>334</ele>
        <time>2016-11-08T11:22:40Z</time>
      </trkpt>
      <trkpt lat="45.95109" lon="4.69322">
        <ele>334</ele>
        <time>2016-11-08T11:22:41Z</time>
      </trkpt>
      <trkpt lat="45.95114" lon="4.69327">
        <ele>334</ele>
        <time>2016-11-08T11:22:42Z</time>
      </trkpt>
      <trkpt lat="45.9512" lon="4.69333">
        <ele>334</ele>
        <time>2016-11-08T11:22:43Z</time>
      </trkpt>
      <trkpt lat="45.95126" lon="4.69338">
        <ele>336</ele>
        <time>2016-11-08T11:22:44Z</time>
      </trkpt>
      <trkpt lat="45.95131" lon="4.69343">
        <ele>337</ele>
        <time>2016-11-08T11:22:45Z</time>
      </trkpt>
      <trkpt lat="45.95136" lon="4.69348">
        <ele>337</ele>
        <time>2016-11-08T11:22:46Z</time>
      </trkpt>
      <trkpt lat="45.95141" lon="4.69353">
        <ele>337</ele>
        <time>2016-11-08T11:22:47Z</time>
      </trkpt>
      <trkpt lat="45.95145" lon="4.69357">
        <ele>337</ele>
        <time>2016-11-08T11:22:48Z</time>
      </trkpt>
      <trkpt lat="45.9515" lon="4.69362">
        <ele>337</ele>
        <time>2016-11-08T11:22:49Z</time>
      </trkpt>
      <trkpt lat="45.95155" lon="4.69366">
        <ele>337</ele>
        <time>2016-11-08T11:22:50Z</time>
      </trkpt>
      <trkpt lat="45.95159" lon="4.69371">
        <ele>337</ele>
        <time>2016-11-08T11:22:51Z</time>
      </trkpt>
      <trkpt lat="45.95164" lon="4.69375">
        <ele>337</ele>
        <time>2016-11-08T11:22:52Z</time>
      </trkpt>
      <trkpt lat="45.95169" lon="4.6938">
        <ele>337</ele>
        <time>2016-11-08T11:22:53Z</time>
      </trkpt>
      <trkpt lat="45.95173" lon="4.69385">
        <ele>337</ele>
        <time>2016-11-08T11:22:54Z</time>
      </trkpt>
      <trkpt lat="45.95178" lon="4.6939">
        <ele>337</ele>
        <time>2016-11-08T11:22:55Z</time>
      </trkpt>
      <trkpt lat="45.95183" lon="4.69394">
        <ele>337</ele>
        <time>2016-11-08T11:22:56Z</time>
      </trkpt>
      <trkpt lat="45.95188" lon="4.69397">
        <ele>337</ele>
        <time>2016-11-08T11:22:57Z</time>
      </trkpt>
      <trkpt lat="45.95194" lon="4.69401">
        <ele>337</ele>
        <time>2016-11-08T11:22:58Z</time>
      </trkpt>
      <trkpt lat="45.95199" lon="4.69404">
        <ele>337</ele>
        <time>2016-11-08T11:22:59Z</time>
      </trkpt>
      <trkpt lat="45.95205" lon="4.69408">
        <ele>337</ele>
        <time>2016-11-08T11:23:00Z</time>
      </trkpt>
      <trkpt lat="45.9521" lon="4.69411">
        <ele>337</ele>
        <time>2016-11-08T11:23:01Z</time>
      </trkpt>
      <trkpt lat="45.95216" lon="4.69413">
        <ele>337</ele>
        <time>2016-11-08T11:23:02Z</time>
      </trkpt>
      <trkpt lat="45.95221" lon="4.69416">
        <ele>337</ele>
        <time>2016-11-08T11:23:03Z</time>
      </trkpt>
      <trkpt lat="45.95227" lon="4.69418">
        <ele>340</ele>
        <time>2016-11-08T11:23:04Z</time>
      </trkpt>
      <trkpt lat="45.95232" lon="4.69421">
        <ele>339</ele>
        <time>2016-11-08T11:23:05Z</time>
      </trkpt>
      <trkpt lat="45.95238" lon="4.69423">
        <ele>339</ele>
        <time>2016-11-08T11:23:06Z</time>
      </trkpt>
      <trkpt lat="45.95243" lon="4.69425">
        <ele>339</ele>
        <time>2016-11-08T11:23:07Z</time>
      </trkpt>
      <trkpt lat="45.95249" lon="4.69428">
        <ele>339</ele>
        <time>2016-11-08T11:23:08Z</time>
      </trkpt>
      <trkpt lat="45.95255" lon="4.6943">
        <ele>338</ele>
        <time>2016-11-08T11:23:09Z</time>
      </trkpt>
      <trkpt lat="45.95261" lon="4.69432">
        <ele>338</ele>
        <time>2016-11-08T11:23:10Z</time>
      </trkpt>
      <trkpt lat="45.95266" lon="4.69435">
        <ele>338</ele>
        <time>2016-11-08T11:23:11Z</time>
      </trkpt>
      <trkpt lat="45.95272" lon="4.69439">
        <ele>338</ele>
        <time>2016-11-08T11:23:12Z</time>
      </trkpt>
      <trkpt lat="45.95278" lon="4.69442">
        <ele>338</ele>
        <time>2016-11-08T11:23:13Z</time>
      </trkpt>
      <trkpt lat="45.95283" lon="4.69445">
        <ele>338</ele>
        <time>2016-11-08T11:23:14Z</time>
      </trkpt>
      <trkpt lat="45.95289" lon="4.69448">
        <ele>338</ele>
        <time>2016-11-08T11:23:15Z</time>
      </trkpt>
      <trkpt lat="45.95295" lon="4.69451">
        <ele>338</ele>
        <time>2016-11-08T11:23:16Z</time>
      </trkpt>
      <trkpt lat="45.95301" lon="4.69454">
        <ele>338</ele>
        <time>2016-11-08T11:23:17Z</time>
      </trkpt>
      <trkpt lat="45.95307" lon="4.69457">
        <ele>338</ele>
        <time>2016-11-08T11:23:18Z</time>
      </trkpt>
      <trkpt lat="45.95312" lon="4.69459">
        <ele>338</ele>
        <time>2016-11-08T11:23:19Z</time>
      </trkpt>
      <trkpt lat="45.95319" lon="4.69462">
        <ele>338</ele>
        <time>2016-11-08T11:23:20Z</time>
      </trkpt>
      <trkpt lat="45.95324" lon="4.69464">
        <ele>339</ele>
        <time>2016-11-08T11:23:21Z</time>
      </trkpt>
      <trkpt lat="45.9533" lon="4.69467">
        <ele>339</ele>
        <time>2016-11-08T11:23:22Z</time>
      </trkpt>
      <trkpt lat="45.95335" lon="4.6947">
        <ele>337</ele>
        <time>2016-11-08T11:23:23Z</time>
      </trkpt>
      <trkpt lat="45.9534" lon="4.69473">
        <ele>337</ele>
        <time>2016-11-08T11:23:24Z</time>
      </trkpt>
      <trkpt lat="45.95345" lon="4.69476">
        <ele>337</ele>
        <time>2016-11-08T11:23:25Z</time>
      </trkpt>
      <trkpt lat="45.95349" lon="4.69479">
        <ele>337</ele>
        <time>2016-11-08T11:23:26Z</time>
      </trkpt>
      <trkpt lat="45.95353" lon="4.69484">
        <ele>337</ele>
        <time>2016-11-08T11:23:27Z</time>
      </trkpt>
      <trkpt lat="45.95358" lon="4.69489">
        <ele>337</ele>
        <time>2016-11-08T11:23:28Z</time>
      </trkpt>
      <trkpt lat="45.95363" lon="4.69494">
        <ele>337</ele>
        <time>2016-11-08T11:23:29Z</time>
      </trkpt>
      <trkpt lat="45.95368" lon="4.69498">
        <ele>337</ele>
        <time>2016-11-08T11:23:30Z</time>
      </trkpt>
      <trkpt lat="45.95373" lon="4.69502">
        <ele>340</ele>
        <time>2016-11-08T11:23:31Z</time>
      </trkpt>
      <trkpt lat="45.95379" lon="4.69506">
        <ele>340</ele>
        <time>2016-11-08T11:23:32Z</time>
      </trkpt>
      <trkpt lat="45.95384" lon="4.69509">
        <ele>340</ele>
        <time>2016-11-08T11:23:33Z</time>
      </trkpt>
      <trkpt lat="45.95389" lon="4.69513">
        <ele>340</ele>
        <time>2016-11-08T11:23:34Z</time>
      </trkpt>
      <trkpt lat="45.95395" lon="4.69517">
        <ele>339</ele>
        <time>2016-11-08T11:23:35Z</time>
      </trkpt>
      <trkpt lat="45.95401" lon="4.69521">
        <ele>339</ele>
        <time>2016-11-08T11:23:36Z</time>
      </trkpt>
      <trkpt lat="45.95406" lon="4.69525">
        <ele>339</ele>
        <time>2016-11-08T11:23:37Z</time>
      </trkpt>
      <trkpt lat="45.95412" lon="4.69528">
        <ele>339</ele>
        <time>2016-11-08T11:23:38Z</time>
      </trkpt>
      <trkpt lat="45.95418" lon="4.69532">
        <ele>337</ele>
        <time>2016-11-08T11:23:39Z</time>
      </trkpt>
      <trkpt lat="45.95423" lon="4.69535">
        <ele>337</ele>
        <time>2016-11-08T11:23:40Z</time>
      </trkpt>
      <trkpt lat="45.95429" lon="4.69538">
        <ele>337</ele>
        <time>2016-11-08T11:23:41Z</time>
      </trkpt>
      <trkpt lat="45.95434" lon="4.6954">
        <ele>337</ele>
        <time>2016-11-08T11:23:42Z</time>
      </trkpt>
      <trkpt lat="45.9544" lon="4.69543">
        <ele>337</ele>
        <time>2016-11-08T11:23:43Z</time>
      </trkpt>
      <trkpt lat="45.95447" lon="4.69546">
        <ele>337</ele>
        <time>2016-11-08T11:23:44Z</time>
      </trkpt>
      <trkpt lat="45.95453" lon="4.69549">
        <ele>337</ele>
        <time>2016-11-08T11:23:45Z</time>
      </trkpt>
      <trkpt lat="45.9546" lon="4.69552">
        <ele>337</ele>
        <time>2016-11-08T11:23:46Z</time>
      </trkpt>
      <trkpt lat="45.95466" lon="4.69555">
        <ele>337</ele>
        <time>2016-11-08T11:23:47Z</time>
      </trkpt>
      <trkpt lat="45.95472" lon="4.69557">
        <ele>337</ele>
        <time>2016-11-08T11:23:48Z</time>
      </trkpt>
      <trkpt lat="45.95479" lon="4.69559">
        <ele>336</ele>
        <time>2016-11-08T11:23:49Z</time>
      </trkpt>
      <trkpt lat="45.95485" lon="4.69562">
        <ele>337</ele>
        <time>2016-11-08T11:23:50Z</time>
      </trkpt>
      <trkpt lat="45.95492" lon="4.69565">
        <ele>337</ele>
        <time>2016-11-08T11:23:51Z</time>
      </trkpt>
      <trkpt lat="45.95498" lon="4.69568">
        <ele>337</ele>
        <time>2016-11-08T11:23:52Z</time>
      </trkpt>
      <trkpt lat="45.95504" lon="4.69571">
        <ele>335</ele>
        <time>2016-11-08T11:23:53Z</time>
      </trkpt>
      <trkpt lat="45.95511" lon="4.69574">
        <ele>334</ele>
        <time>2016-11-08T11:23:54Z</time>
      </trkpt>
      <trkpt lat="45.95517" lon="4.69577">
        <ele>334</ele>
        <time>2016-11-08T11:23:55Z</time>
      </trkpt>
      <trkpt lat="45.95523" lon="4.69581">
        <ele>333</ele>
        <time>2016-11-08T11:23:56Z</time>
      </trkpt>
      <trkpt lat="45.9553" lon="4.69584">
        <ele>333</ele>
        <time>2016-11-08T11:23:57Z</time>
      </trkpt>
      <trkpt lat="45.95537" lon="4.69587">
        <ele>332</ele>
        <time>2016-11-08T11:23:58Z</time>
      </trkpt>
      <trkpt lat="45.95544" lon="4.6959">
        <ele>331</ele>
        <time>2016-11-08T11:23:59Z</time>
      </trkpt>
      <trkpt lat="45.95551" lon="4.69593">
        <ele>331</ele>
        <time>2016-11-08T11:24:00Z</time>
      </trkpt>
      <trkpt lat="45.95558" lon="4.69596">
        <ele>330</ele>
        <time>2016-11-08T11:24:01Z</time>
      </trkpt>
      <trkpt lat="45.95565" lon="4.69599">
        <ele>330</ele>
        <time>2016-11-08T11:24:02Z</time>
      </trkpt>
      <trkpt lat="45.95573" lon="4.69602">
        <ele>330</ele>
        <time>2016-11-08T11:24:03Z</time>
      </trkpt>
      <trkpt lat="45.9558" lon="4.69604">
        <ele>330</ele>
        <time>2016-11-08T11:24:04Z</time>
      </trkpt>
      <trkpt lat="45.95587" lon="4.69606">
        <ele>328</ele>
        <time>2016-11-08T11:24:05Z</time>
      </trkpt>
      <trkpt lat="45.95595" lon="4.69609">
        <ele>328</ele>
        <time>2016-11-08T11:24:06Z</time>
      </trkpt>
      <trkpt lat="45.95602" lon="4.69612">
        <ele>328</ele>
        <time>2016-11-08T11:24:07Z</time>
      </trkpt>
      <trkpt lat="45.9561" lon="4.69615">
        <ele>328</ele>
        <time>2016-11-08T11:24:08Z</time>
      </trkpt>
      <trkpt lat="45.95617" lon="4.69618">
        <ele>328</ele>
        <time>2016-11-08T11:24:09Z</time>
      </trkpt>
      <trkpt lat="45.95624" lon="4.69622">
        <ele>328</ele>
        <time>2016-11-08T11:24:10Z</time>
      </trkpt>
      <trkpt lat="45.95632" lon="4.69625">
        <ele>328</ele>
        <time>2016-11-08T11:24:11Z</time>
      </trkpt>
      <trkpt lat="45.95639" lon="4.69629">
        <ele>328</ele>
        <time>2016-11-08T11:24:12Z</time>
      </trkpt>
      <trkpt lat="45.95646" lon="4.69632">
        <ele>328</ele>
        <time>2016-11-08T11:24:13Z</time>
      </trkpt>
      <trkpt lat="45.95653" lon="4.69634">
        <ele>328</ele>
        <time>2016-11-08T11:24:14Z</time>
      </trkpt>
      <trkpt lat="45.9566" lon="4.69637">
        <ele>327</ele>
        <time>2016-11-08T11:24:15Z</time>
      </trkpt>
      <trkpt lat="45.95667" lon="4.69641">
        <ele>327</ele>
        <time>2016-11-08T11:24:16Z</time>
      </trkpt>
      <trkpt lat="45.95674" lon="4.69645">
        <ele>326</ele>
        <time>2016-11-08T11:24:17Z</time>
      </trkpt>
      <trkpt lat="45.95681" lon="4.69648">
        <ele>326</ele>
        <time>2016-11-08T11:24:18Z</time>
      </trkpt>
      <trkpt lat="45.95688" lon="4.69651">
        <ele>326</ele>
        <time>2016-11-08T11:24:19Z</time>
      </trkpt>
      <trkpt lat="45.95695" lon="4.69654">
        <ele>326</ele>
        <time>2016-11-08T11:24:20Z</time>
      </trkpt>
      <trkpt lat="45.95702" lon="4.69656">
        <ele>326</ele>
        <time>2016-11-08T11:24:21Z</time>
      </trkpt>
      <trkpt lat="45.95709" lon="4.69659">
        <ele>326</ele>
        <time>2016-11-08T11:24:22Z</time>
      </trkpt>
      <trkpt lat="45.95716" lon="4.69662">
        <ele>326</ele>
        <time>2016-11-08T11:24:23Z</time>
      </trkpt>
      <trkpt lat="45.95723" lon="4.69664">
        <ele>326</ele>
        <time>2016-11-08T11:24:24Z</time>
      </trkpt>
      <trkpt lat="45.95729" lon="4.69667">
        <ele>326</ele>
        <time>2016-11-08T11:24:25Z</time>
      </trkpt>
      <trkpt lat="45.95735" lon="4.6967">
        <ele>326</ele>
        <time>2016-11-08T11:24:26Z</time>
      </trkpt>
      <trkpt lat="45.95741" lon="4.69674">
        <ele>326</ele>
        <time>2016-11-08T11:24:27Z</time>
      </trkpt>
      <trkpt lat="45.95747" lon="4.69678">
        <ele>326</ele>
        <time>2016-11-08T11:24:28Z</time>
      </trkpt>
      <trkpt lat="45.95752" lon="4.69681">
        <ele>326</ele>
        <time>2016-11-08T11:24:29Z</time>
      </trkpt>
      <trkpt lat="45.95757" lon="4.69684">
        <ele>326</ele>
        <time>2016-11-08T11:24:30Z</time>
      </trkpt>
      <trkpt lat="45.95762" lon="4.69686">
        <ele>326</ele>
        <time>2016-11-08T11:24:31Z</time>
      </trkpt>
      <trkpt lat="45.95768" lon="4.69688">
        <ele>326</ele>
        <time>2016-11-08T11:24:32Z</time>
      </trkpt>
      <trkpt lat="45.95773" lon="4.69689">
        <ele>326</ele>
        <time>2016-11-08T11:24:33Z</time>
      </trkpt>
      <trkpt lat="45.95778" lon="4.69692">
        <ele>326</ele>
        <time>2016-11-08T11:24:34Z</time>
      </trkpt>
      <trkpt lat="45.95783" lon="4.69697">
        <ele>326</ele>
        <time>2016-11-08T11:24:35Z</time>
      </trkpt>
      <trkpt lat="45.95788" lon="4.69702">
        <ele>326</ele>
        <time>2016-11-08T11:24:36Z</time>
      </trkpt>
      <trkpt lat="45.95792" lon="4.69708">
        <ele>326</ele>
        <time>2016-11-08T11:24:37Z</time>
      </trkpt>
      <trkpt lat="45.95796" lon="4.69714">
        <ele>326</ele>
        <time>2016-11-08T11:24:38Z</time>
      </trkpt>
      <trkpt lat="45.958" lon="4.6972">
        <ele>326</ele>
        <time>2016-11-08T11:24:39Z</time>
      </trkpt>
      <trkpt lat="45.95804" lon="4.69726">
        <ele>326</ele>
        <time>2016-11-08T11:24:40Z</time>
      </trkpt>
      <trkpt lat="45.95809" lon="4.69732">
        <ele>326</ele>
        <time>2016-11-08T11:24:41Z</time>
      </trkpt>
      <trkpt lat="45.95813" lon="4.69738">
        <ele>327</ele>
        <time>2016-11-08T11:24:42Z</time>
      </trkpt>
      <trkpt lat="45.95816" lon="4.69744">
        <ele>327</ele>
        <time>2016-11-08T11:24:43Z</time>
      </trkpt>
      <trkpt lat="45.9582" lon="4.69751">
        <ele>328</ele>
        <time>2016-11-08T11:24:44Z</time>
      </trkpt>
      <trkpt lat="45.95824" lon="4.69757">
        <ele>328</ele>
        <time>2016-11-08T11:24:45Z</time>
      </trkpt>
      <trkpt lat="45.95828" lon="4.69763">
        <ele>328</ele>
        <time>2016-11-08T11:24:46Z</time>
      </trkpt>
      <trkpt lat="45.95832" lon="4.6977">
        <ele>328</ele>
        <time>2016-11-08T11:24:47Z</time>
      </trkpt>
      <trkpt lat="45.95836" lon="4.69777">
        <ele>327</ele>
        <time>2016-11-08T11:24:48Z</time>
      </trkpt>
      <trkpt lat="45.95839" lon="4.69783">
        <ele>327</ele>
        <time>2016-11-08T11:24:49Z</time>
      </trkpt>
      <trkpt lat="45.95843" lon="4.6979">
        <ele>327</ele>
        <time>2016-11-08T11:24:50Z</time>
      </trkpt>
      <trkpt lat="45.95847" lon="4.69797">
        <ele>327</ele>
        <time>2016-11-08T11:24:51Z</time>
      </trkpt>
      <trkpt lat="45.9585" lon="4.69803">
        <ele>327</ele>
        <time>2016-11-08T11:24:52Z</time>
      </trkpt>
      <trkpt lat="45.95854" lon="4.6981">
        <ele>328</ele>
        <time>2016-11-08T11:24:53Z</time>
      </trkpt>
      <trkpt lat="45.95857" lon="4.69818">
        <ele>328</ele>
        <time>2016-11-08T11:24:54Z</time>
      </trkpt>
      <trkpt lat="45.9586" lon="4.69824">
        <ele>328</ele>
        <time>2016-11-08T11:24:55Z</time>
      </trkpt>
      <trkpt lat="45.95863" lon="4.69831">
        <ele>328</ele>
        <time>2016-11-08T11:24:56Z</time>
      </trkpt>
      <trkpt lat="45.95865" lon="4.69837">
        <ele>329</ele>
        <time>2016-11-08T11:24:57Z</time>
      </trkpt>
      <trkpt lat="45.95867" lon="4.69843">
        <ele>329</ele>
        <time>2016-11-08T11:24:58Z</time>
      </trkpt>
      <trkpt lat="45.95868" lon="4.69849">
        <ele>329</ele>
        <time>2016-11-08T11:24:59Z</time>
      </trkpt>
      <trkpt lat="45.9587" lon="4.69855">
        <ele>329</ele>
        <time>2016-11-08T11:25:00Z</time>
      </trkpt>
      <trkpt lat="45.95872" lon="4.69861">
        <ele>329</ele>
        <time>2016-11-08T11:25:01Z</time>
      </trkpt>
      <trkpt lat="45.95873" lon="4.69868">
        <ele>329</ele>
        <time>2016-11-08T11:25:02Z</time>
      </trkpt>
      <trkpt lat="45.95875" lon="4.69875">
        <ele>329</ele>
        <time>2016-11-08T11:25:03Z</time>
      </trkpt>
      <trkpt lat="45.95877" lon="4.69882">
        <ele>329</ele>
        <time>2016-11-08T11:25:04Z</time>
      </trkpt>
      <trkpt lat="45.95878" lon="4.69889">
        <ele>329</ele>
        <time>2016-11-08T11:25:05Z</time>
      </trkpt>
      <trkpt lat="45.9588" lon="4.69896">
        <ele>329</ele>
        <time>2016-11-08T11:25:06Z</time>
      </trkpt>
      <trkpt lat="45.95882" lon="4.69903">
        <ele>329</ele>
        <time>2016-11-08T11:25:07Z</time>
      </trkpt>
      <trkpt lat="45.95884" lon="4.6991">
        <ele>329</ele>
        <time>2016-11-08T11:25:08Z</time>
      </trkpt>
      <trkpt lat="45.95886" lon="4.69918">
        <ele>328</ele>
        <time>2016-11-08T11:25:09Z</time>
      </trkpt>
      <trkpt lat="45.95888" lon="4.69925">
        <ele>328</ele>
        <time>2016-11-08T11:25:10Z</time>
      </trkpt>
      <trkpt lat="45.95889" lon="4.69932">
        <ele>328</ele>
        <time>2016-11-08T11:25:11Z</time>
      </trkpt>
      <trkpt lat="45.95891" lon="4.69939">
        <ele>328</ele>
        <time>2016-11-08T11:25:12Z</time>
      </trkpt>
      <trkpt lat="45.95892" lon="4.69947">
        <ele>328</ele>
        <time>2016-11-08T11:25:13Z</time>
      </trkpt>
      <trkpt lat="45.95893" lon="4.69954">
        <ele>328</ele>
        <time>2016-11-08T11:25:14Z</time>
      </trkpt>
      <trkpt lat="45.95895" lon="4.69961">
        <ele>328</ele>
        <time>2016-11-08T11:25:15Z</time>
      </trkpt>
      <trkpt lat="45.95897" lon="4.69969">
        <ele>328</ele>
        <time>2016-11-08T11:25:16Z</time>
      </trkpt>
      <trkpt lat="45.959" lon="4.69977">
        <ele>328</ele>
        <time>2016-11-08T11:25:17Z</time>
      </trkpt>
      <trkpt lat="45.95902" lon="4.69984">
        <ele>328</ele>
        <time>2016-11-08T11:25:18Z</time>
      </trkpt>
      <trkpt lat="45.95905" lon="4.69993">
        <ele>328</ele>
        <time>2016-11-08T11:25:19Z</time>
      </trkpt>
      <trkpt lat="45.95908" lon="4.70001">
        <ele>328</ele>
        <time>2016-11-08T11:25:20Z</time>
      </trkpt>
      <trkpt lat="45.95912" lon="4.7001">
        <ele>328</ele>
        <time>2016-11-08T11:25:21Z</time>
      </trkpt>
      <trkpt lat="45.95915" lon="4.70018">
        <ele>328</ele>
        <time>2016-11-08T11:25:22Z</time>
      </trkpt>
      <trkpt lat="45.95919" lon="4.70025">
        <ele>328</ele>
        <time>2016-11-08T11:25:23Z</time>
      </trkpt>
      <trkpt lat="45.95922" lon="4.70032">
        <ele>328</ele>
        <time>2016-11-08T11:25:24Z</time>
      </trkpt>
      <trkpt lat="45.95926" lon="4.70039">
        <ele>328</ele>
        <time>2016-11-08T11:25:25Z</time>
      </trkpt>
      <trkpt lat="45.95929" lon="4.70045">
        <ele>328</ele>
        <time>2016-11-08T11:25:26Z</time>
      </trkpt>
      <trkpt lat="45.95933" lon="4.7005">
        <ele>328</ele>
        <time>2016-11-08T11:25:27Z</time>
      </trkpt>
      <trkpt lat="45.95936" lon="4.70056">
        <ele>328</ele>
        <time>2016-11-08T11:25:28Z</time>
      </trkpt>
      <trkpt lat="45.9594" lon="4.7006">
        <ele>328</ele>
        <time>2016-11-08T11:25:29Z</time>
      </trkpt>
      <trkpt lat="45.95944" lon="4.70065">
        <ele>328</ele>
        <time>2016-11-08T11:25:30Z</time>
      </trkpt>
      <trkpt lat="45.95948" lon="4.70071">
        <ele>328</ele>
        <time>2016-11-08T11:25:31Z</time>
      </trkpt>
      <trkpt lat="45.95953" lon="4.70076">
        <ele>328</ele>
        <time>2016-11-08T11:25:32Z</time>
      </trkpt>
      <trkpt lat="45.95957" lon="4.70081">
        <ele>328</ele>
        <time>2016-11-08T11:25:33Z</time>
      </trkpt>
      <trkpt lat="45.95961" lon="4.70086">
        <ele>328</ele>
        <time>2016-11-08T11:25:34Z</time>
      </trkpt>
      <trkpt lat="45.95965" lon="4.70091">
        <ele>328</ele>
        <time>2016-11-08T11:25:35Z</time>
      </trkpt>
      <trkpt lat="45.9597" lon="4.70096">
        <ele>328</ele>
        <time>2016-11-08T11:25:36Z</time>
      </trkpt>
      <trkpt lat="45.95974" lon="4.70101">
        <ele>328</ele>
        <time>2016-11-08T11:25:37Z</time>
      </trkpt>
      <trkpt lat="45.95979" lon="4.70106">
        <ele>328</ele>
        <time>2016-11-08T11:25:38Z</time>
      </trkpt>
      <trkpt lat="45.95984" lon="4.70111">
        <ele>328</ele>
        <time>2016-11-08T11:25:39Z</time>
      </trkpt>
      <trkpt lat="45.95989" lon="4.70116">
        <ele>328</ele>
        <time>2016-11-08T11:25:40Z</time>
      </trkpt>
      <trkpt lat="45.95994" lon="4.70121">
        <ele>328</ele>
        <time>2016-11-08T11:25:41Z</time>
      </trkpt>
      <trkpt lat="45.96002" lon="4.7013">
        <ele>328</ele>
        <time>2016-11-08T11:25:43Z</time>
      </trkpt>
      <trkpt lat="45.96008" lon="4.70138">
        <ele>328</ele>
        <time>2016-11-08T11:25:45Z</time>
      </trkpt>
      <trkpt lat="45.96013" lon="4.70141">
        <ele>329</ele>
        <time>2016-11-08T11:25:46Z</time>
      </trkpt>
      <trkpt lat="45.96017" lon="4.70143">
        <ele>329</ele>
        <time>2016-11-08T11:25:47Z</time>
      </trkpt>
      <trkpt lat="45.96036" lon="4.70158">
        <ele>329</ele>
        <time>2016-11-08T11:25:51Z</time>
      </trkpt>
      <trkpt lat="45.9604" lon="4.70162">
        <ele>329</ele>
        <time>2016-11-08T11:25:52Z</time>
      </trkpt>
      <trkpt lat="45.96044" lon="4.70168">
        <ele>327</ele>
        <time>2016-11-08T11:25:53Z</time>
      </trkpt>
      <trkpt lat="45.96049" lon="4.70175">
        <ele>327</ele>
        <time>2016-11-08T11:25:54Z</time>
      </trkpt>
      <trkpt lat="45.96054" lon="4.70181">
        <ele>327</ele>
        <time>2016-11-08T11:25:55Z</time>
      </trkpt>
      <trkpt lat="45.9606" lon="4.70188">
        <ele>327</ele>
        <time>2016-11-08T11:25:56Z</time>
      </trkpt>
      <trkpt lat="45.96065" lon="4.70191">
        <ele>327</ele>
        <time>2016-11-08T11:25:57Z</time>
      </trkpt>
      <trkpt lat="45.96071" lon="4.70194">
        <ele>327</ele>
        <time>2016-11-08T11:25:58Z</time>
      </trkpt>
      <trkpt lat="45.96077" lon="4.70196">
        <ele>327</ele>
        <time>2016-11-08T11:25:59Z</time>
      </trkpt>
      <trkpt lat="45.96084" lon="4.70197">
        <ele>327</ele>
        <time>2016-11-08T11:26:00Z</time>
      </trkpt>
      <trkpt lat="45.96087" lon="4.70204">
        <ele>327</ele>
        <time>2016-11-08T11:26:01Z</time>
      </trkpt>
      <trkpt lat="45.96091" lon="4.70208">
        <ele>327</ele>
        <time>2016-11-08T11:26:02Z</time>
      </trkpt>
      <trkpt lat="45.96095" lon="4.70211">
        <ele>327</ele>
        <time>2016-11-08T11:26:03Z</time>
      </trkpt>
      <trkpt lat="45.961" lon="4.70215">
        <ele>327</ele>
        <time>2016-11-08T11:26:04Z</time>
      </trkpt>
      <trkpt lat="45.96104" lon="4.70218">
        <ele>327</ele>
        <time>2016-11-08T11:26:05Z</time>
      </trkpt>
      <trkpt lat="45.96109" lon="4.70222">
        <ele>327</ele>
        <time>2016-11-08T11:26:06Z</time>
      </trkpt>
      <trkpt lat="45.96114" lon="4.70226">
        <ele>327</ele>
        <time>2016-11-08T11:26:07Z</time>
      </trkpt>
      <trkpt lat="45.96118" lon="4.70231">
        <ele>327</ele>
        <time>2016-11-08T11:26:08Z</time>
      </trkpt>
      <trkpt lat="45.96128" lon="4.7024">
        <ele>327</ele>
        <time>2016-11-08T11:26:10Z</time>
      </trkpt>
      <trkpt lat="45.96133" lon="4.70246">
        <ele>327</ele>
        <time>2016-11-08T11:26:11Z</time>
      </trkpt>
      <trkpt lat="45.96139" lon="4.70251">
        <ele>324</ele>
        <time>2016-11-08T11:26:12Z</time>
      </trkpt>
      <trkpt lat="45.96143" lon="4.70256">
        <ele>324</ele>
        <time>2016-11-08T11:26:13Z</time>
      </trkpt>
      <trkpt lat="45.96147" lon="4.70262">
        <ele>324</ele>
        <time>2016-11-08T11:26:14Z</time>
      </trkpt>
      <trkpt lat="45.96152" lon="4.70268">
        <ele>324</ele>
        <time>2016-11-08T11:26:15Z</time>
      </trkpt>
      <trkpt lat="45.96156" lon="4.70274">
        <ele>324</ele>
        <time>2016-11-08T11:26:16Z</time>
      </trkpt>
      <trkpt lat="45.96161" lon="4.70279">
        <ele>323</ele>
        <time>2016-11-08T11:26:17Z</time>
      </trkpt>
      <trkpt lat="45.96165" lon="4.70285">
        <ele>323</ele>
        <time>2016-11-08T11:26:18Z</time>
      </trkpt>
      <trkpt lat="45.9617" lon="4.7029">
        <ele>326</ele>
        <time>2016-11-08T11:26:19Z</time>
      </trkpt>
      <trkpt lat="45.96175" lon="4.70295">
        <ele>326</ele>
        <time>2016-11-08T11:26:20Z</time>
      </trkpt>
      <trkpt lat="45.96179" lon="4.70301">
        <ele>325</ele>
        <time>2016-11-08T11:26:21Z</time>
      </trkpt>
      <trkpt lat="45.96184" lon="4.70307">
        <ele>325</ele>
        <time>2016-11-08T11:26:22Z</time>
      </trkpt>
      <trkpt lat="45.96188" lon="4.70314">
        <ele>325</ele>
        <time>2016-11-08T11:26:23Z</time>
      </trkpt>
      <trkpt lat="45.96192" lon="4.7032">
        <ele>325</ele>
        <time>2016-11-08T11:26:24Z</time>
      </trkpt>
      <trkpt lat="45.96196" lon="4.70327">
        <ele>325</ele>
        <time>2016-11-08T11:26:25Z</time>
      </trkpt>
      <trkpt lat="45.96199" lon="4.70334">
        <ele>320</ele>
        <time>2016-11-08T11:26:26Z</time>
      </trkpt>
      <trkpt lat="45.96203" lon="4.7034">
        <ele>320</ele>
        <time>2016-11-08T11:26:27Z</time>
      </trkpt>
      <trkpt lat="45.96207" lon="4.70347">
        <ele>320</ele>
        <time>2016-11-08T11:26:28Z</time>
      </trkpt>
      <trkpt lat="45.96211" lon="4.70353">
        <ele>321</ele>
        <time>2016-11-08T11:26:29Z</time>
      </trkpt>
      <trkpt lat="45.96215" lon="4.70359">
        <ele>321</ele>
        <time>2016-11-08T11:26:30Z</time>
      </trkpt>
      <trkpt lat="45.96219" lon="4.70366">
        <ele>320</ele>
        <time>2016-11-08T11:26:31Z</time>
      </trkpt>
      <trkpt lat="45.96224" lon="4.70373">
        <ele>320</ele>
        <time>2016-11-08T11:26:32Z</time>
      </trkpt>
      <trkpt lat="45.96228" lon="4.70379">
        <ele>320</ele>
        <time>2016-11-08T11:26:33Z</time>
      </trkpt>
      <trkpt lat="45.96232" lon="4.70385">
        <ele>320</ele>
        <time>2016-11-08T11:26:34Z</time>
      </trkpt>
      <trkpt lat="45.96237" lon="4.70391">
        <ele>320</ele>
        <time>2016-11-08T11:26:35Z</time>
      </trkpt>
      <trkpt lat="45.96241" lon="4.70398">
        <ele>320</ele>
        <time>2016-11-08T11:26:36Z</time>
      </trkpt>
      <trkpt lat="45.96245" lon="4.70404">
        <ele>320</ele>
        <time>2016-11-08T11:26:37Z</time>
      </trkpt>
      <trkpt lat="45.96249" lon="4.70411">
        <ele>320</ele>
        <time>2016-11-08T11:26:38Z</time>
      </trkpt>
      <trkpt lat="45.96255" lon="4.70416">
        <ele>321</ele>
        <time>2016-11-08T11:26:39Z</time>
      </trkpt>
      <trkpt lat="45.96259" lon="4.70423">
        <ele>320</ele>
        <time>2016-11-08T11:26:40Z</time>
      </trkpt>
      <trkpt lat="45.96263" lon="4.7043">
        <ele>320</ele>
        <time>2016-11-08T11:26:41Z</time>
      </trkpt>
      <trkpt lat="45.96268" lon="4.70436">
        <ele>321</ele>
        <time>2016-11-08T11:26:42Z</time>
      </trkpt>
      <trkpt lat="45.96272" lon="4.70443">
        <ele>321</ele>
        <time>2016-11-08T11:26:43Z</time>
      </trkpt>
      <trkpt lat="45.96277" lon="4.70449">
        <ele>321</ele>
        <time>2016-11-08T11:26:44Z</time>
      </trkpt>
      <trkpt lat="45.96281" lon="4.70455">
        <ele>320</ele>
        <time>2016-11-08T11:26:45Z</time>
      </trkpt>
      <trkpt lat="45.96286" lon="4.70462">
        <ele>320</ele>
        <time>2016-11-08T11:26:46Z</time>
      </trkpt>
      <trkpt lat="45.96291" lon="4.70469">
        <ele>320</ele>
        <time>2016-11-08T11:26:47Z</time>
      </trkpt>
      <trkpt lat="45.96296" lon="4.70476">
        <ele>320</ele>
        <time>2016-11-08T11:26:48Z</time>
      </trkpt>
      <trkpt lat="45.96301" lon="4.70482">
        <ele>320</ele>
        <time>2016-11-08T11:26:49Z</time>
      </trkpt>
      <trkpt lat="45.96306" lon="4.70489">
        <ele>320</ele>
        <time>2016-11-08T11:26:50Z</time>
      </trkpt>
      <trkpt lat="45.96311" lon="4.70496">
        <ele>320</ele>
        <time>2016-11-08T11:26:51Z</time>
      </trkpt>
      <trkpt lat="45.96316" lon="4.70503">
        <ele>316</ele>
        <time>2016-11-08T11:26:52Z</time>
      </trkpt>
      <trkpt lat="45.96321" lon="4.7051">
        <ele>316</ele>
        <time>2016-11-08T11:26:53Z</time>
      </trkpt>
      <trkpt lat="45.96327" lon="4.70517">
        <ele>316</ele>
        <time>2016-11-08T11:26:54Z</time>
      </trkpt>
      <trkpt lat="45.96332" lon="4.70524">
        <ele>315</ele>
        <time>2016-11-08T11:26:55Z</time>
      </trkpt>
      <trkpt lat="45.96337" lon="4.70531">
        <ele>319</ele>
        <time>2016-11-08T11:26:56Z</time>
      </trkpt>
      <trkpt lat="45.96342" lon="4.70538">
        <ele>318</ele>
        <time>2016-11-08T11:26:57Z</time>
      </trkpt>
      <trkpt lat="45.96347" lon="4.70546">
        <ele>318</ele>
        <time>2016-11-08T11:26:58Z</time>
      </trkpt>
      <trkpt lat="45.96353" lon="4.70554">
        <ele>318</ele>
        <time>2016-11-08T11:26:59Z</time>
      </trkpt>
      <trkpt lat="45.96359" lon="4.70561">
        <ele>317</ele>
        <time>2016-11-08T11:27:00Z</time>
      </trkpt>
      <trkpt lat="45.96365" lon="4.70568">
        <ele>317</ele>
        <time>2016-11-08T11:27:01Z</time>
      </trkpt>
      <trkpt lat="45.96371" lon="4.70576">
        <ele>318</ele>
        <time>2016-11-08T11:27:02Z</time>
      </trkpt>
      <trkpt lat="45.96377" lon="4.70583">
        <ele>318</ele>
        <time>2016-11-08T11:27:03Z</time>
      </trkpt>
      <trkpt lat="45.96383" lon="4.70589">
        <ele>312</ele>
        <time>2016-11-08T11:27:04Z</time>
      </trkpt>
      <trkpt lat="45.9639" lon="4.70597">
        <ele>312</ele>
        <time>2016-11-08T11:27:05Z</time>
      </trkpt>
      <trkpt lat="45.96396" lon="4.70604">
        <ele>312</ele>
        <time>2016-11-08T11:27:06Z</time>
      </trkpt>
      <trkpt lat="45.96403" lon="4.70612">
        <ele>312</ele>
        <time>2016-11-08T11:27:07Z</time>
      </trkpt>
      <trkpt lat="45.96409" lon="4.7062">
        <ele>311</ele>
        <time>2016-11-08T11:27:08Z</time>
      </trkpt>
      <trkpt lat="45.96416" lon="4.70628">
        <ele>311</ele>
        <time>2016-11-08T11:27:09Z</time>
      </trkpt>
      <trkpt lat="45.96422" lon="4.70636">
        <ele>313</ele>
        <time>2016-11-08T11:27:10Z</time>
      </trkpt>
      <trkpt lat="45.96428" lon="4.70645">
        <ele>312</ele>
        <time>2016-11-08T11:27:11Z</time>
      </trkpt>
      <trkpt lat="45.96435" lon="4.70653">
        <ele>312</ele>
        <time>2016-11-08T11:27:12Z</time>
      </trkpt>
      <trkpt lat="45.96442" lon="4.7066">
        <ele>312</ele>
        <time>2016-11-08T11:27:13Z</time>
      </trkpt>
      <trkpt lat="45.9645" lon="4.70667">
        <ele>305</ele>
        <time>2016-11-08T11:27:14Z</time>
      </trkpt>
      <trkpt lat="45.96457" lon="4.70674">
        <ele>305</ele>
        <time>2016-11-08T11:27:15Z</time>
      </trkpt>
      <trkpt lat="45.96464" lon="4.70681">
        <ele>305</ele>
        <time>2016-11-08T11:27:16Z</time>
      </trkpt>
      <trkpt lat="45.96472" lon="4.70688">
        <ele>305</ele>
        <time>2016-11-08T11:27:17Z</time>
      </trkpt>
      <trkpt lat="45.9648" lon="4.70695">
        <ele>305</ele>
        <time>2016-11-08T11:27:18Z</time>
      </trkpt>
      <trkpt lat="45.96487" lon="4.70701">
        <ele>305</ele>
        <time>2016-11-08T11:27:19Z</time>
      </trkpt>
      <trkpt lat="45.96496" lon="4.70707">
        <ele>304</ele>
        <time>2016-11-08T11:27:20Z</time>
      </trkpt>
      <trkpt lat="45.96504" lon="4.70714">
        <ele>306</ele>
        <time>2016-11-08T11:27:21Z</time>
      </trkpt>
      <trkpt lat="45.96512" lon="4.7072">
        <ele>305</ele>
        <time>2016-11-08T11:27:22Z</time>
      </trkpt>
      <trkpt lat="45.9652" lon="4.70727">
        <ele>305</ele>
        <time>2016-11-08T11:27:23Z</time>
      </trkpt>
      <trkpt lat="45.96528" lon="4.70734">
        <ele>305</ele>
        <time>2016-11-08T11:27:24Z</time>
      </trkpt>
      <trkpt lat="45.96537" lon="4.7074">
        <ele>305</ele>
        <time>2016-11-08T11:27:25Z</time>
      </trkpt>
      <trkpt lat="45.96546" lon="4.70747">
        <ele>305</ele>
        <time>2016-11-08T11:27:26Z</time>
      </trkpt>
      <trkpt lat="45.96554" lon="4.70754">
        <ele>298</ele>
        <time>2016-11-08T11:27:27Z</time>
      </trkpt>
      <trkpt lat="45.96562" lon="4.7076">
        <ele>299</ele>
        <time>2016-11-08T11:27:28Z</time>
      </trkpt>
      <trkpt lat="45.96571" lon="4.70766">
        <ele>299</ele>
        <time>2016-11-08T11:27:29Z</time>
      </trkpt>
      <trkpt lat="45.96579" lon="4.70772">
        <ele>299</ele>
        <time>2016-11-08T11:27:30Z</time>
      </trkpt>
      <trkpt lat="45.96588" lon="4.70779">
        <ele>299</ele>
        <time>2016-11-08T11:27:31Z</time>
      </trkpt>
      <trkpt lat="45.96596" lon="4.70785">
        <ele>299</ele>
        <time>2016-11-08T11:27:32Z</time>
      </trkpt>
      <trkpt lat="45.96605" lon="4.70791">
        <ele>298</ele>
        <time>2016-11-08T11:27:33Z</time>
      </trkpt>
      <trkpt lat="45.96614" lon="4.70797">
        <ele>298</ele>
        <time>2016-11-08T11:27:34Z</time>
      </trkpt>
      <trkpt lat="45.96623" lon="4.70803">
        <ele>298</ele>
        <time>2016-11-08T11:27:35Z</time>
      </trkpt>
      <trkpt lat="45.96632" lon="4.70809">
        <ele>298</ele>
        <time>2016-11-08T11:27:36Z</time>
      </trkpt>
      <trkpt lat="45.96641" lon="4.70815">
        <ele>297</ele>
        <time>2016-11-08T11:27:37Z</time>
      </trkpt>
      <trkpt lat="45.9665" lon="4.70821">
        <ele>297</ele>
        <time>2016-11-08T11:27:38Z</time>
      </trkpt>
      <trkpt lat="45.96659" lon="4.70827">
        <ele>296</ele>
        <time>2016-11-08T11:27:39Z</time>
      </trkpt>
      <trkpt lat="45.96668" lon="4.70833">
        <ele>295</ele>
        <time>2016-11-08T11:27:40Z</time>
      </trkpt>
      <trkpt lat="45.96677" lon="4.70838">
        <ele>293</ele>
        <time>2016-11-08T11:27:41Z</time>
      </trkpt>
      <trkpt lat="45.96686" lon="4.70844">
        <ele>291</ele>
        <time>2016-11-08T11:27:42Z</time>
      </trkpt>
      <trkpt lat="45.96695" lon="4.7085">
        <ele>290</ele>
        <time>2016-11-08T11:27:43Z</time>
      </trkpt>
      <trkpt lat="45.96704" lon="4.70856">
        <ele>290</ele>
        <time>2016-11-08T11:27:44Z</time>
      </trkpt>
      <trkpt lat="45.96714" lon="4.70861">
        <ele>289</ele>
        <time>2016-11-08T11:27:45Z</time>
      </trkpt>
      <trkpt lat="45.96723" lon="4.70867">
        <ele>289</ele>
        <time>2016-11-08T11:27:46Z</time>
      </trkpt>
      <trkpt lat="45.96731" lon="4.70873">
        <ele>289</ele>
        <time>2016-11-08T11:27:47Z</time>
      </trkpt>
      <trkpt lat="45.9674" lon="4.70878">
        <ele>288</ele>
        <time>2016-11-08T11:27:48Z</time>
      </trkpt>
      <trkpt lat="45.96749" lon="4.70884">
        <ele>287</ele>
        <time>2016-11-08T11:27:49Z</time>
      </trkpt>
      <trkpt lat="45.96758" lon="4.7089">
        <ele>288</ele>
        <time>2016-11-08T11:27:50Z</time>
      </trkpt>
      <trkpt lat="45.96767" lon="4.70896">
        <ele>288</ele>
        <time>2016-11-08T11:27:51Z</time>
      </trkpt>
      <trkpt lat="45.96776" lon="4.70901">
        <ele>288</ele>
        <time>2016-11-08T11:27:52Z</time>
      </trkpt>
      <trkpt lat="45.96784" lon="4.70907">
        <ele>288</ele>
        <time>2016-11-08T11:27:53Z</time>
      </trkpt>
      <trkpt lat="45.96793" lon="4.70912">
        <ele>288</ele>
        <time>2016-11-08T11:27:54Z</time>
      </trkpt>
      <trkpt lat="45.96802" lon="4.70917">
        <ele>280</ele>
        <time>2016-11-08T11:27:55Z</time>
      </trkpt>
      <trkpt lat="45.9681" lon="4.70922">
        <ele>281</ele>
        <time>2016-11-08T11:27:56Z</time>
      </trkpt>
      <trkpt lat="45.96819" lon="4.70927">
        <ele>282</ele>
        <time>2016-11-08T11:27:57Z</time>
      </trkpt>
      <trkpt lat="45.96827" lon="4.70932">
        <ele>282</ele>
        <time>2016-11-08T11:27:58Z</time>
      </trkpt>
      <trkpt lat="45.96836" lon="4.70937">
        <ele>282</ele>
        <time>2016-11-08T11:27:59Z</time>
      </trkpt>
      <trkpt lat="45.96844" lon="4.70943">
        <ele>281</ele>
        <time>2016-11-08T11:28:00Z</time>
      </trkpt>
      <trkpt lat="45.96853" lon="4.70949">
        <ele>280</ele>
        <time>2016-11-08T11:28:01Z</time>
      </trkpt>
      <trkpt lat="45.96861" lon="4.70955">
        <ele>280</ele>
        <time>2016-11-08T11:28:02Z</time>
      </trkpt>
      <trkpt lat="45.9687" lon="4.7096">
        <ele>279</ele>
        <time>2016-11-08T11:28:03Z</time>
      </trkpt>
      <trkpt lat="45.96879" lon="4.70964">
        <ele>279</ele>
        <time>2016-11-08T11:28:04Z</time>
      </trkpt>
      <trkpt lat="45.96888" lon="4.70968">
        <ele>278</ele>
        <time>2016-11-08T11:28:05Z</time>
      </trkpt>
      <trkpt lat="45.96897" lon="4.70971">
        <ele>278</ele>
        <time>2016-11-08T11:28:06Z</time>
      </trkpt>
      <trkpt lat="45.96906" lon="4.70974">
        <ele>278</ele>
        <time>2016-11-08T11:28:07Z</time>
      </trkpt>
      <trkpt lat="45.96916" lon="4.70976">
        <ele>277</ele>
        <time>2016-11-08T11:28:08Z</time>
      </trkpt>
      <trkpt lat="45.96925" lon="4.70978">
        <ele>275</ele>
        <time>2016-11-08T11:28:09Z</time>
      </trkpt>
      <trkpt lat="45.96934" lon="4.7098">
        <ele>275</ele>
        <time>2016-11-08T11:28:10Z</time>
      </trkpt>
      <trkpt lat="45.96944" lon="4.70982">
        <ele>275</ele>
        <time>2016-11-08T11:28:11Z</time>
      </trkpt>
      <trkpt lat="45.96953" lon="4.70986">
        <ele>275</ele>
        <time>2016-11-08T11:28:12Z</time>
      </trkpt>
      <trkpt lat="45.96962" lon="4.70989">
        <ele>274</ele>
        <time>2016-11-08T11:28:13Z</time>
      </trkpt>
      <trkpt lat="45.96971" lon="4.7099">
        <ele>274</ele>
        <time>2016-11-08T11:28:14Z</time>
      </trkpt>
      <trkpt lat="45.96981" lon="4.70991">
        <ele>273</ele>
        <time>2016-11-08T11:28:15Z</time>
      </trkpt>
      <trkpt lat="45.9699" lon="4.70991">
        <ele>271</ele>
        <time>2016-11-08T11:28:16Z</time>
      </trkpt>
      <trkpt lat="45.96999" lon="4.70992">
        <ele>270</ele>
        <time>2016-11-08T11:28:17Z</time>
      </trkpt>
      <trkpt lat="45.97008" lon="4.70992">
        <ele>269</ele>
        <time>2016-11-08T11:28:18Z</time>
      </trkpt>
      <trkpt lat="45.97018" lon="4.70992">
        <ele>269</ele>
        <time>2016-11-08T11:28:19Z</time>
      </trkpt>
      <trkpt lat="45.97027" lon="4.70992">
        <ele>269</ele>
        <time>2016-11-08T11:28:20Z</time>
      </trkpt>
      <trkpt lat="45.97036" lon="4.70991">
        <ele>269</ele>
        <time>2016-11-08T11:28:21Z</time>
      </trkpt>
      <trkpt lat="45.97045" lon="4.7099">
        <ele>269</ele>
        <time>2016-11-08T11:28:22Z</time>
      </trkpt>
      <trkpt lat="45.97054" lon="4.70989">
        <ele>268</ele>
        <time>2016-11-08T11:28:23Z</time>
      </trkpt>
      <trkpt lat="45.97063" lon="4.70988">
        <ele>268</ele>
        <time>2016-11-08T11:28:24Z</time>
      </trkpt>
      <trkpt lat="45.97072" lon="4.70986">
        <ele>267</ele>
        <time>2016-11-08T11:28:25Z</time>
      </trkpt>
      <trkpt lat="45.97081" lon="4.70984">
        <ele>267</ele>
        <time>2016-11-08T11:28:26Z</time>
      </trkpt>
      <trkpt lat="45.97089" lon="4.70981">
        <ele>264</ele>
        <time>2016-11-08T11:28:27Z</time>
      </trkpt>
      <trkpt lat="45.97098" lon="4.70978">
        <ele>264</ele>
        <time>2016-11-08T11:28:28Z</time>
      </trkpt>
      <trkpt lat="45.97106" lon="4.70975">
        <ele>264</ele>
        <time>2016-11-08T11:28:29Z</time>
      </trkpt>
      <trkpt lat="45.97115" lon="4.70972">
        <ele>264</ele>
        <time>2016-11-08T11:28:30Z</time>
      </trkpt>
      <trkpt lat="45.97123" lon="4.70968">
        <ele>264</ele>
        <time>2016-11-08T11:28:31Z</time>
      </trkpt>
      <trkpt lat="45.97132" lon="4.70964">
        <ele>263</ele>
        <time>2016-11-08T11:28:32Z</time>
      </trkpt>
      <trkpt lat="45.9714" lon="4.7096">
        <ele>263</ele>
        <time>2016-11-08T11:28:33Z</time>
      </trkpt>
      <trkpt lat="45.97148" lon="4.70956">
        <ele>263</ele>
        <time>2016-11-08T11:28:34Z</time>
      </trkpt>
      <trkpt lat="45.97157" lon="4.70953">
        <ele>263</ele>
        <time>2016-11-08T11:28:35Z</time>
      </trkpt>
      <trkpt lat="45.97165" lon="4.70949">
        <ele>263</ele>
        <time>2016-11-08T11:28:36Z</time>
      </trkpt>
      <trkpt lat="45.97173" lon="4.70944">
        <ele>258</ele>
        <time>2016-11-08T11:28:37Z</time>
      </trkpt>
      <trkpt lat="45.97182" lon="4.70939">
        <ele>258</ele>
        <time>2016-11-08T11:28:38Z</time>
      </trkpt>
      <trkpt lat="45.9719" lon="4.70934">
        <ele>258</ele>
        <time>2016-11-08T11:28:39Z</time>
      </trkpt>
      <trkpt lat="45.97197" lon="4.70928">
        <ele>257</ele>
        <time>2016-11-08T11:28:40Z</time>
      </trkpt>
      <trkpt lat="45.97205" lon="4.70921">
        <ele>256</ele>
        <time>2016-11-08T11:28:41Z</time>
      </trkpt>
      <trkpt lat="45.97212" lon="4.70914">
        <ele>260</ele>
        <time>2016-11-08T11:28:42Z</time>
      </trkpt>
      <trkpt lat="45.97219" lon="4.70907">
        <ele>259</ele>
        <time>2016-11-08T11:28:43Z</time>
      </trkpt>
      <trkpt lat="45.97226" lon="4.709">
        <ele>259</ele>
        <time>2016-11-08T11:28:44Z</time>
      </trkpt>
      <trkpt lat="45.97234" lon="4.70893">
        <ele>258</ele>
        <time>2016-11-08T11:28:45Z</time>
      </trkpt>
      <trkpt lat="45.9724" lon="4.70884">
        <ele>259</ele>
        <time>2016-11-08T11:28:46Z</time>
      </trkpt>
      <trkpt lat="45.97247" lon="4.70875">
        <ele>259</ele>
        <time>2016-11-08T11:28:47Z</time>
      </trkpt>
      <trkpt lat="45.97253" lon="4.70866">
        <ele>252</ele>
        <time>2016-11-08T11:28:48Z</time>
      </trkpt>
      <trkpt lat="45.97259" lon="4.70856">
        <ele>253</ele>
        <time>2016-11-08T11:28:49Z</time>
      </trkpt>
      <trkpt lat="45.97265" lon="4.70846">
        <ele>254</ele>
        <time>2016-11-08T11:28:50Z</time>
      </trkpt>
      <trkpt lat="45.97271" lon="4.70837">
        <ele>253</ele>
        <time>2016-11-08T11:28:51Z</time>
      </trkpt>
      <trkpt lat="45.97278" lon="4.70828">
        <ele>255</ele>
        <time>2016-11-08T11:28:52Z</time>
      </trkpt>
      <trkpt lat="45.97285" lon="4.70819">
        <ele>254</ele>
        <time>2016-11-08T11:28:53Z</time>
      </trkpt>
      <trkpt lat="45.97291" lon="4.7081">
        <ele>254</ele>
        <time>2016-11-08T11:28:54Z</time>
      </trkpt>
      <trkpt lat="45.97296" lon="4.70801">
        <ele>253</ele>
        <time>2016-11-08T11:28:55Z</time>
      </trkpt>
      <trkpt lat="45.97303" lon="4.70793">
        <ele>253</ele>
        <time>2016-11-08T11:28:56Z</time>
      </trkpt>
      <trkpt lat="45.97311" lon="4.70786">
        <ele>253</ele>
        <time>2016-11-08T11:28:57Z</time>
      </trkpt>
      <trkpt lat="45.9732" lon="4.70779">
        <ele>252</ele>
        <time>2016-11-08T11:28:58Z</time>
      </trkpt>
      <trkpt lat="45.97328" lon="4.70774">
        <ele>252</ele>
        <time>2016-11-08T11:28:59Z</time>
      </trkpt>
      <trkpt lat="45.97336" lon="4.70769">
        <ele>246</ele>
        <time>2016-11-08T11:29:00Z</time>
      </trkpt>
      <trkpt lat="45.97345" lon="4.70765">
        <ele>246</ele>
        <time>2016-11-08T11:29:01Z</time>
      </trkpt>
      <trkpt lat="45.97354" lon="4.7076">
        <ele>246</ele>
        <time>2016-11-08T11:29:02Z</time>
      </trkpt>
      <trkpt lat="45.97362" lon="4.70755">
        <ele>245</ele>
        <time>2016-11-08T11:29:03Z</time>
      </trkpt>
      <trkpt lat="45.97371" lon="4.70751">
        <ele>244</ele>
        <time>2016-11-08T11:29:04Z</time>
      </trkpt>
      <trkpt lat="45.9738" lon="4.70748">
        <ele>244</ele>
        <time>2016-11-08T11:29:05Z</time>
      </trkpt>
      <trkpt lat="45.97388" lon="4.70746">
        <ele>243</ele>
        <time>2016-11-08T11:29:06Z</time>
      </trkpt>
      <trkpt lat="45.97397" lon="4.70745">
        <ele>242</ele>
        <time>2016-11-08T11:29:07Z</time>
      </trkpt>
      <trkpt lat="45.97405" lon="4.70746">
        <ele>242</ele>
        <time>2016-11-08T11:29:08Z</time>
      </trkpt>
      <trkpt lat="45.97414" lon="4.70747">
        <ele>241</ele>
        <time>2016-11-08T11:29:09Z</time>
      </trkpt>
      <trkpt lat="45.97422" lon="4.70748">
        <ele>240</ele>
        <time>2016-11-08T11:29:10Z</time>
      </trkpt>
      <trkpt lat="45.97431" lon="4.70748">
        <ele>239</ele>
        <time>2016-11-08T11:29:11Z</time>
      </trkpt>
      <trkpt lat="45.97439" lon="4.70749">
        <ele>239</ele>
        <time>2016-11-08T11:29:12Z</time>
      </trkpt>
      <trkpt lat="45.97449" lon="4.70748">
        <ele>238</ele>
        <time>2016-11-08T11:29:13Z</time>
      </trkpt>
      <trkpt lat="45.97457" lon="4.70749">
        <ele>238</ele>
        <time>2016-11-08T11:29:14Z</time>
      </trkpt>
      <trkpt lat="45.97466" lon="4.70748">
        <ele>238</ele>
        <time>2016-11-08T11:29:15Z</time>
      </trkpt>
      <trkpt lat="45.97474" lon="4.70746">
        <ele>237</ele>
        <time>2016-11-08T11:29:16Z</time>
      </trkpt>
      <trkpt lat="45.97482" lon="4.70745">
        <ele>237</ele>
        <time>2016-11-08T11:29:17Z</time>
      </trkpt>
      <trkpt lat="45.97491" lon="4.70743">
        <ele>237</ele>
        <time>2016-11-08T11:29:18Z</time>
      </trkpt>
      <trkpt lat="45.97499" lon="4.70742">
        <ele>237</ele>
        <time>2016-11-08T11:29:19Z</time>
      </trkpt>
      <trkpt lat="45.97507" lon="4.7074">
        <ele>235</ele>
        <time>2016-11-08T11:29:20Z</time>
      </trkpt>
      <trkpt lat="45.97515" lon="4.70738">
        <ele>235</ele>
        <time>2016-11-08T11:29:21Z</time>
      </trkpt>
      <trkpt lat="45.97523" lon="4.70736">
        <ele>234</ele>
        <time>2016-11-08T11:29:22Z</time>
      </trkpt>
      <trkpt lat="45.97531" lon="4.70734">
        <ele>234</ele>
        <time>2016-11-08T11:29:23Z</time>
      </trkpt>
      <trkpt lat="45.97538" lon="4.70733">
        <ele>234</ele>
        <time>2016-11-08T11:29:24Z</time>
      </trkpt>
      <trkpt lat="45.97546" lon="4.70731">
        <ele>233</ele>
        <time>2016-11-08T11:29:25Z</time>
      </trkpt>
      <trkpt lat="45.97554" lon="4.7073">
        <ele>233</ele>
        <time>2016-11-08T11:29:26Z</time>
      </trkpt>
      <trkpt lat="45.97562" lon="4.70729">
        <ele>233</ele>
        <time>2016-11-08T11:29:27Z</time>
      </trkpt>
      <trkpt lat="45.97569" lon="4.70727">
        <ele>233</ele>
        <time>2016-11-08T11:29:28Z</time>
      </trkpt>
      <trkpt lat="45.97577" lon="4.70726">
        <ele>232</ele>
        <time>2016-11-08T11:29:29Z</time>
      </trkpt>
      <trkpt lat="45.97584" lon="4.70725">
        <ele>229</ele>
        <time>2016-11-08T11:29:30Z</time>
      </trkpt>
      <trkpt lat="45.97592" lon="4.70727">
        <ele>229</ele>
        <time>2016-11-08T11:29:31Z</time>
      </trkpt>
      <trkpt lat="45.976" lon="4.70729">
        <ele>229</ele>
        <time>2016-11-08T11:29:32Z</time>
      </trkpt>
      <trkpt lat="45.97608" lon="4.70731">
        <ele>229</ele>
        <time>2016-11-08T11:29:33Z</time>
      </trkpt>
      <trkpt lat="45.97615" lon="4.70734">
        <ele>228</ele>
        <time>2016-11-08T11:29:34Z</time>
      </trkpt>
      <trkpt lat="45.97623" lon="4.70736">
        <ele>228</ele>
        <time>2016-11-08T11:29:35Z</time>
      </trkpt>
      <trkpt lat="45.97631" lon="4.70738">
        <ele>227</ele>
        <time>2016-11-08T11:29:36Z</time>
      </trkpt>
      <trkpt lat="45.97639" lon="4.70741">
        <ele>227</ele>
        <time>2016-11-08T11:29:37Z</time>
      </trkpt>
      <trkpt lat="45.97647" lon="4.70744">
        <ele>226</ele>
        <time>2016-11-08T11:29:38Z</time>
      </trkpt>
      <trkpt lat="45.97655" lon="4.70748">
        <ele>226</ele>
        <time>2016-11-08T11:29:39Z</time>
      </trkpt>
      <trkpt lat="45.97664" lon="4.70752">
        <ele>224</ele>
        <time>2016-11-08T11:29:40Z</time>
      </trkpt>
      <trkpt lat="45.97672" lon="4.70754">
        <ele>224</ele>
        <time>2016-11-08T11:29:41Z</time>
      </trkpt>
      <trkpt lat="45.9768" lon="4.70757">
        <ele>223</ele>
        <time>2016-11-08T11:29:42Z</time>
      </trkpt>
      <trkpt lat="45.97688" lon="4.70759">
        <ele>223</ele>
        <time>2016-11-08T11:29:43Z</time>
      </trkpt>
      <trkpt lat="45.97696" lon="4.70761">
        <ele>223</ele>
        <time>2016-11-08T11:29:44Z</time>
      </trkpt>
      <trkpt lat="45.97704" lon="4.70764">
        <ele>223</ele>
        <time>2016-11-08T11:29:45Z</time>
      </trkpt>
      <trkpt lat="45.97711" lon="4.70767">
        <ele>223</ele>
        <time>2016-11-08T11:29:46Z</time>
      </trkpt>
      <trkpt lat="45.97719" lon="4.7077">
        <ele>222</ele>
        <time>2016-11-08T11:29:47Z</time>
      </trkpt>
      <trkpt lat="45.97727" lon="4.70773">
        <ele>222</ele>
        <time>2016-11-08T11:29:48Z</time>
      </trkpt>
      <trkpt lat="45.97735" lon="4.70775">
        <ele>222</ele>
        <time>2016-11-08T11:29:49Z</time>
      </trkpt>
      <trkpt lat="45.97742" lon="4.70778">
        <ele>222</ele>
        <time>2016-11-08T11:29:50Z</time>
      </trkpt>
      <trkpt lat="45.97749" lon="4.70781">
        <ele>222</ele>
        <time>2016-11-08T11:29:51Z</time>
      </trkpt>
      <trkpt lat="45.97756" lon="4.70784">
        <ele>221</ele>
        <time>2016-11-08T11:29:52Z</time>
      </trkpt>
      <trkpt lat="45.97762" lon="4.70785">
        <ele>221</ele>
        <time>2016-11-08T11:29:53Z</time>
      </trkpt>
      <trkpt lat="45.97767" lon="4.70785">
        <ele>221</ele>
        <time>2016-11-08T11:29:54Z</time>
      </trkpt>
      <trkpt lat="45.97771" lon="4.70786">
        <ele>221</ele>
        <time>2016-11-08T11:29:55Z</time>
      </trkpt>
      <trkpt lat="45.9778" lon="4.70788">
        <ele>221</ele>
        <time>2016-11-08T11:29:57Z</time>
      </trkpt>
      <trkpt lat="45.97784" lon="4.70792">
        <ele>221</ele>
        <time>2016-11-08T11:29:58Z</time>
      </trkpt>
      <trkpt lat="45.97788" lon="4.70796">
        <ele>221</ele>
        <time>2016-11-08T11:29:59Z</time>
      </trkpt>
      <trkpt lat="45.97792" lon="4.708">
        <ele>221</ele>
        <time>2016-11-08T11:30:00Z</time>
      </trkpt>
      <trkpt lat="45.97797" lon="4.70804">
        <ele>221</ele>
        <time>2016-11-08T11:30:01Z</time>
      </trkpt>
      <trkpt lat="45.97801" lon="4.70809">
        <ele>221</ele>
        <time>2016-11-08T11:30:02Z</time>
      </trkpt>
      <trkpt lat="45.97805" lon="4.70815">
        <ele>221</ele>
        <time>2016-11-08T11:30:03Z</time>
      </trkpt>
      <trkpt lat="45.97808" lon="4.70821">
        <ele>221</ele>
        <time>2016-11-08T11:30:04Z</time>
      </trkpt>
      <trkpt lat="45.97811" lon="4.70829">
        <ele>221</ele>
        <time>2016-11-08T11:30:05Z</time>
      </trkpt>
      <trkpt lat="45.97814" lon="4.70837">
        <ele>220</ele>
        <time>2016-11-08T11:30:06Z</time>
      </trkpt>
      <trkpt lat="45.97816" lon="4.70846">
        <ele>220</ele>
        <time>2016-11-08T11:30:07Z</time>
      </trkpt>
      <trkpt lat="45.97817" lon="4.70855">
        <ele>220</ele>
        <time>2016-11-08T11:30:08Z</time>
      </trkpt>
      <trkpt lat="45.97818" lon="4.70865">
        <ele>220</ele>
        <time>2016-11-08T11:30:09Z</time>
      </trkpt>
      <trkpt lat="45.97818" lon="4.70876">
        <ele>220</ele>
        <time>2016-11-08T11:30:10Z</time>
      </trkpt>
      <trkpt lat="45.97819" lon="4.70887">
        <ele>220</ele>
        <time>2016-11-08T11:30:11Z</time>
      </trkpt>
      <trkpt lat="45.97819" lon="4.70897">
        <ele>220</ele>
        <time>2016-11-08T11:30:12Z</time>
      </trkpt>
      <trkpt lat="45.97819" lon="4.70909">
        <ele>219</ele>
        <time>2016-11-08T11:30:13Z</time>
      </trkpt>
      <trkpt lat="45.97818" lon="4.7092">
        <ele>219</ele>
        <time>2016-11-08T11:30:14Z</time>
      </trkpt>
      <trkpt lat="45.97818" lon="4.70931">
        <ele>219</ele>
        <time>2016-11-08T11:30:15Z</time>
      </trkpt>
      <trkpt lat="45.9782" lon="4.70942">
        <ele>218</ele>
        <time>2016-11-08T11:30:16Z</time>
      </trkpt>
      <trkpt lat="45.97824" lon="4.70952">
        <ele>218</ele>
        <time>2016-11-08T11:30:17Z</time>
      </trkpt>
      <trkpt lat="45.97827" lon="4.70962">
        <ele>218</ele>
        <time>2016-11-08T11:30:18Z</time>
      </trkpt>
      <trkpt lat="45.97829" lon="4.70973">
        <ele>218</ele>
        <time>2016-11-08T11:30:19Z</time>
      </trkpt>
      <trkpt lat="45.97831" lon="4.70985">
        <ele>217</ele>
        <time>2016-11-08T11:30:20Z</time>
      </trkpt>
      <trkpt lat="45.97833" lon="4.70997">
        <ele>216</ele>
        <time>2016-11-08T11:30:21Z</time>
      </trkpt>
      <trkpt lat="45.97834" lon="4.71009">
        <ele>216</ele>
        <time>2016-11-08T11:30:22Z</time>
      </trkpt>
      <trkpt lat="45.97835" lon="4.71022">
        <ele>216</ele>
        <time>2016-11-08T11:30:23Z</time>
      </trkpt>
      <trkpt lat="45.97837" lon="4.71035">
        <ele>216</ele>
        <time>2016-11-08T11:30:24Z</time>
      </trkpt>
      <trkpt lat="45.97838" lon="4.71047">
        <ele>215</ele>
        <time>2016-11-08T11:30:25Z</time>
      </trkpt>
      <trkpt lat="45.97839" lon="4.7106">
        <ele>215</ele>
        <time>2016-11-08T11:30:26Z</time>
      </trkpt>
      <trkpt lat="45.97841" lon="4.71073">
        <ele>215</ele>
        <time>2016-11-08T11:30:27Z</time>
      </trkpt>
      <trkpt lat="45.97843" lon="4.71084">
        <ele>214</ele>
        <time>2016-11-08T11:30:28Z</time>
      </trkpt>
      <trkpt lat="45.97844" lon="4.71095">
        <ele>213</ele>
        <time>2016-11-08T11:30:29Z</time>
      </trkpt>
      <trkpt lat="45.97845" lon="4.71105">
        <ele>213</ele>
        <time>2016-11-08T11:30:30Z</time>
      </trkpt>
      <trkpt lat="45.97846" lon="4.71115">
        <ele>213</ele>
        <time>2016-11-08T11:30:31Z</time>
      </trkpt>
      <trkpt lat="45.97846" lon="4.71125">
        <ele>213</ele>
        <time>2016-11-08T11:30:32Z</time>
      </trkpt>
      <trkpt lat="45.97846" lon="4.71134">
        <ele>212</ele>
        <time>2016-11-08T11:30:33Z</time>
      </trkpt>
      <trkpt lat="45.97846" lon="4.71142">
        <ele>212</ele>
        <time>2016-11-08T11:30:34Z</time>
      </trkpt>
      <trkpt lat="45.97846" lon="4.71151">
        <ele>212</ele>
        <time>2016-11-08T11:30:35Z</time>
      </trkpt>
      <trkpt lat="45.97846" lon="4.7116">
        <ele>212</ele>
        <time>2016-11-08T11:30:36Z</time>
      </trkpt>
      <trkpt lat="45.97848" lon="4.71169">
        <ele>210</ele>
        <time>2016-11-08T11:30:37Z</time>
      </trkpt>
      <trkpt lat="45.97849" lon="4.71177">
        <ele>210</ele>
        <time>2016-11-08T11:30:38Z</time>
      </trkpt>
      <trkpt lat="45.9785" lon="4.71186">
        <ele>209</ele>
        <time>2016-11-08T11:30:39Z</time>
      </trkpt>
      <trkpt lat="45.9785" lon="4.71196">
        <ele>209</ele>
        <time>2016-11-08T11:30:40Z</time>
      </trkpt>
      <trkpt lat="45.97851" lon="4.71206">
        <ele>209</ele>
        <time>2016-11-08T11:30:41Z</time>
      </trkpt>
      <trkpt lat="45.97851" lon="4.71216">
        <ele>208</ele>
        <time>2016-11-08T11:30:42Z</time>
      </trkpt>
      <trkpt lat="45.97851" lon="4.71226">
        <ele>208</ele>
        <time>2016-11-08T11:30:43Z</time>
      </trkpt>
      <trkpt lat="45.97851" lon="4.71236">
        <ele>208</ele>
        <time>2016-11-08T11:30:44Z</time>
      </trkpt>
      <trkpt lat="45.97851" lon="4.71247">
        <ele>208</ele>
        <time>2016-11-08T11:30:45Z</time>
      </trkpt>
      <trkpt lat="45.9785" lon="4.71258">
        <ele>207</ele>
        <time>2016-11-08T11:30:46Z</time>
      </trkpt>
      <trkpt lat="45.9785" lon="4.71269">
        <ele>206</ele>
        <time>2016-11-08T11:30:47Z</time>
      </trkpt>
      <trkpt lat="45.9785" lon="4.7128">
        <ele>206</ele>
        <time>2016-11-08T11:30:48Z</time>
      </trkpt>
      <trkpt lat="45.9785" lon="4.71291">
        <ele>206</ele>
        <time>2016-11-08T11:30:49Z</time>
      </trkpt>
      <trkpt lat="45.9785" lon="4.71303">
        <ele>206</ele>
        <time>2016-11-08T11:30:50Z</time>
      </trkpt>
      <trkpt lat="45.97851" lon="4.71314">
        <ele>205</ele>
        <time>2016-11-08T11:30:51Z</time>
      </trkpt>
      <trkpt lat="45.97851" lon="4.71325">
        <ele>205</ele>
        <time>2016-11-08T11:30:52Z</time>
      </trkpt>
      <trkpt lat="45.9785" lon="4.71337">
        <ele>204</ele>
        <time>2016-11-08T11:30:53Z</time>
      </trkpt>
      <trkpt lat="45.97849" lon="4.71348">
        <ele>204</ele>
        <time>2016-11-08T11:30:54Z</time>
      </trkpt>
      <trkpt lat="45.97849" lon="4.71359">
        <ele>204</ele>
        <time>2016-11-08T11:30:55Z</time>
      </trkpt>
      <trkpt lat="45.97849" lon="4.71369">
        <ele>203</ele>
        <time>2016-11-08T11:30:56Z</time>
      </trkpt>
      <trkpt lat="45.97849" lon="4.7138">
        <ele>203</ele>
        <time>2016-11-08T11:30:57Z</time>
      </trkpt>
      <trkpt lat="45.9785" lon="4.71391">
        <ele>203</ele>
        <time>2016-11-08T11:30:58Z</time>
      </trkpt>
      <trkpt lat="45.97851" lon="4.71402">
        <ele>203</ele>
        <time>2016-11-08T11:30:59Z</time>
      </trkpt>
      <trkpt lat="45.97852" lon="4.71413">
        <ele>203</ele>
        <time>2016-11-08T11:31:00Z</time>
      </trkpt>
      <trkpt lat="45.97854" lon="4.71424">
        <ele>202</ele>
        <time>2016-11-08T11:31:01Z</time>
      </trkpt>
      <trkpt lat="45.97856" lon="4.71435">
        <ele>201</ele>
        <time>2016-11-08T11:31:02Z</time>
      </trkpt>
      <trkpt lat="45.97859" lon="4.71446">
        <ele>201</ele>
        <time>2016-11-08T11:31:03Z</time>
      </trkpt>
      <trkpt lat="45.97861" lon="4.71458">
        <ele>201</ele>
        <time>2016-11-08T11:31:04Z</time>
      </trkpt>
      <trkpt lat="45.97863" lon="4.71469">
        <ele>201</ele>
        <time>2016-11-08T11:31:05Z</time>
      </trkpt>
      <trkpt lat="45.97865" lon="4.71481">
        <ele>201</ele>
        <time>2016-11-08T11:31:06Z</time>
      </trkpt>
      <trkpt lat="45.97867" lon="4.71492">
        <ele>201</ele>
        <time>2016-11-08T11:31:07Z</time>
      </trkpt>
      <trkpt lat="45.97869" lon="4.71502">
        <ele>199</ele>
        <time>2016-11-08T11:31:08Z</time>
      </trkpt>
      <trkpt lat="45.97872" lon="4.71513">
        <ele>199</ele>
        <time>2016-11-08T11:31:09Z</time>
      </trkpt>
      <trkpt lat="45.97874" lon="4.71522">
        <ele>199</ele>
        <time>2016-11-08T11:31:10Z</time>
      </trkpt>
      <trkpt lat="45.97875" lon="4.71532">
        <ele>199</ele>
        <time>2016-11-08T11:31:11Z</time>
      </trkpt>
      <trkpt lat="45.97877" lon="4.71542">
        <ele>199</ele>
        <time>2016-11-08T11:31:12Z</time>
      </trkpt>
      <trkpt lat="45.97878" lon="4.71554">
        <ele>199</ele>
        <time>2016-11-08T11:31:13Z</time>
      </trkpt>
      <trkpt lat="45.9788" lon="4.71565">
        <ele>198</ele>
        <time>2016-11-08T11:31:14Z</time>
      </trkpt>
      <trkpt lat="45.97886" lon="4.71612">
        <ele>197</ele>
        <time>2016-11-08T11:31:18Z</time>
      </trkpt>
      <trkpt lat="45.97887" lon="4.71625">
        <ele>197</ele>
        <time>2016-11-08T11:31:19Z</time>
      </trkpt>
      <trkpt lat="45.97886" lon="4.71633">
        <ele>197</ele>
        <time>2016-11-08T11:31:20Z</time>
      </trkpt>
      <trkpt lat="45.97886" lon="4.71643">
        <ele>197</ele>
        <time>2016-11-08T11:31:21Z</time>
      </trkpt>
      <trkpt lat="45.97886" lon="4.71653">
        <ele>197</ele>
        <time>2016-11-08T11:31:22Z</time>
      </trkpt>
      <trkpt lat="45.97884" lon="4.71662">
        <ele>197</ele>
        <time>2016-11-08T11:31:23Z</time>
      </trkpt>
      <trkpt lat="45.97882" lon="4.71671">
        <ele>196</ele>
        <time>2016-11-08T11:31:24Z</time>
      </trkpt>
      <trkpt lat="45.97878" lon="4.7169">
        <ele>196</ele>
        <time>2016-11-08T11:31:26Z</time>
      </trkpt>
      <trkpt lat="45.97876" lon="4.71699">
        <ele>196</ele>
        <time>2016-11-08T11:31:27Z</time>
      </trkpt>
      <trkpt lat="45.97873" lon="4.71708">
        <ele>196</ele>
        <time>2016-11-08T11:31:28Z</time>
      </trkpt>
      <trkpt lat="45.9787" lon="4.71716">
        <ele>196</ele>
        <time>2016-11-08T11:31:29Z</time>
      </trkpt>
      <trkpt lat="45.97866" lon="4.71723">
        <ele>196</ele>
        <time>2016-11-08T11:31:30Z</time>
      </trkpt>
      <trkpt lat="45.97862" lon="4.7173">
        <ele>196</ele>
        <time>2016-11-08T11:31:31Z</time>
      </trkpt>
      <trkpt lat="45.97857" lon="4.71736">
        <ele>196</ele>
        <time>2016-11-08T11:31:32Z</time>
      </trkpt>
      <trkpt lat="45.97852" lon="4.7174">
        <ele>196</ele>
        <time>2016-11-08T11:31:33Z</time>
      </trkpt>
      <trkpt lat="45.97846" lon="4.71744">
        <ele>195</ele>
        <time>2016-11-08T11:31:34Z</time>
      </trkpt>
      <trkpt lat="45.9784" lon="4.71746">
        <ele>195</ele>
        <time>2016-11-08T11:31:35Z</time>
      </trkpt>
      <trkpt lat="45.97833" lon="4.71747">
        <ele>195</ele>
        <time>2016-11-08T11:31:36Z</time>
      </trkpt>
      <trkpt lat="45.97827" lon="4.71746">
        <ele>195</ele>
        <time>2016-11-08T11:31:37Z</time>
      </trkpt>
      <trkpt lat="45.97821" lon="4.71745">
        <ele>196</ele>
        <time>2016-11-08T11:31:38Z</time>
      </trkpt>
      <trkpt lat="45.97814" lon="4.71744">
        <ele>196</ele>
        <time>2016-11-08T11:31:39Z</time>
      </trkpt>
      <trkpt lat="45.97808" lon="4.71743">
        <ele>196</ele>
        <time>2016-11-08T11:31:40Z</time>
      </trkpt>
      <trkpt lat="45.97802" lon="4.71742">
        <ele>196</ele>
        <time>2016-11-08T11:31:41Z</time>
      </trkpt>
      <trkpt lat="45.97796" lon="4.71741">
        <ele>196</ele>
        <time>2016-11-08T11:31:42Z</time>
      </trkpt>
      <trkpt lat="45.9779" lon="4.7174">
        <ele>196</ele>
        <time>2016-11-08T11:31:43Z</time>
      </trkpt>
      <trkpt lat="45.97784" lon="4.71741">
        <ele>196</ele>
        <time>2016-11-08T11:31:44Z</time>
      </trkpt>
      <trkpt lat="45.97778" lon="4.71741">
        <ele>196</ele>
        <time>2016-11-08T11:31:45Z</time>
      </trkpt>
      <trkpt lat="45.97771" lon="4.7174">
        <ele>196</ele>
        <time>2016-11-08T11:31:46Z</time>
      </trkpt>
      <trkpt lat="45.97765" lon="4.71739">
        <ele>196</ele>
        <time>2016-11-08T11:31:47Z</time>
      </trkpt>
      <trkpt lat="45.97758" lon="4.71738">
        <ele>196</ele>
        <time>2016-11-08T11:31:48Z</time>
      </trkpt>
      <trkpt lat="45.97745" lon="4.71736">
        <ele>196</ele>
        <time>2016-11-08T11:31:50Z</time>
      </trkpt>
      <trkpt lat="45.97739" lon="4.71735">
        <ele>196</ele>
        <time>2016-11-08T11:31:51Z</time>
      </trkpt>
      <trkpt lat="45.97732" lon="4.71734">
        <ele>196</ele>
        <time>2016-11-08T11:31:52Z</time>
      </trkpt>
      <trkpt lat="45.97726" lon="4.71733">
        <ele>196</ele>
        <time>2016-11-08T11:31:53Z</time>
      </trkpt>
      <trkpt lat="45.97719" lon="4.71733">
        <ele>196</ele>
        <time>2016-11-08T11:31:54Z</time>
      </trkpt>
      <trkpt lat="45.97714" lon="4.71733">
        <ele>196</ele>
        <time>2016-11-08T11:31:55Z</time>
      </trkpt>
      <trkpt lat="45.97708" lon="4.71732">
        <ele>196</ele>
        <time>2016-11-08T11:31:56Z</time>
      </trkpt>
      <trkpt lat="45.97702" lon="4.71732">
        <ele>196</ele>
        <time>2016-11-08T11:31:57Z</time>
      </trkpt>
      <trkpt lat="45.97697" lon="4.71731">
        <ele>196</ele>
        <time>2016-11-08T11:31:58Z</time>
      </trkpt>
      <trkpt lat="45.97691" lon="4.71731">
        <ele>196</ele>
        <time>2016-11-08T11:31:59Z</time>
      </trkpt>
      <trkpt lat="45.97684" lon="4.7173">
        <ele>196</ele>
        <time>2016-11-08T11:32:00Z</time>
      </trkpt>
      <trkpt lat="45.97678" lon="4.7173">
        <ele>196</ele>
        <time>2016-11-08T11:32:01Z</time>
      </trkpt>
      <trkpt lat="45.97672" lon="4.71729">
        <ele>196</ele>
        <time>2016-11-08T11:32:02Z</time>
      </trkpt>
      <trkpt lat="45.97666" lon="4.71728">
        <ele>196</ele>
        <time>2016-11-08T11:32:03Z</time>
      </trkpt>
      <trkpt lat="45.97659" lon="4.71728">
        <ele>196</ele>
        <time>2016-11-08T11:32:04Z</time>
      </trkpt>
      <trkpt lat="45.97653" lon="4.71729">
        <ele>196</ele>
        <time>2016-11-08T11:32:05Z</time>
      </trkpt>
      <trkpt lat="45.97647" lon="4.71728">
        <ele>196</ele>
        <time>2016-11-08T11:32:06Z</time>
      </trkpt>
      <trkpt lat="45.9764" lon="4.71727">
        <ele>196</ele>
        <time>2016-11-08T11:32:08Z</time>
      </trkpt>
      <trkpt lat="45.97638" lon="4.71723">
        <ele>196</ele>
        <time>2016-11-08T11:32:09Z</time>
      </trkpt>
      <trkpt lat="45.97635" lon="4.71716">
        <ele>197</ele>
        <time>2016-11-08T11:32:11Z</time>
      </trkpt>
      <trkpt lat="45.97634" lon="4.71712">
        <ele>197</ele>
        <time>2016-11-08T11:32:12Z</time>
      </trkpt>
      <trkpt lat="45.97628" lon="4.71706">
        <ele>197</ele>
        <time>2016-11-08T11:32:14Z</time>
      </trkpt>
      <trkpt lat="45.97624" lon="4.71705">
        <ele>197</ele>
        <time>2016-11-08T11:32:15Z</time>
      </trkpt>
      <trkpt lat="45.9762" lon="4.71705">
        <ele>197</ele>
        <time>2016-11-08T11:32:16Z</time>
      </trkpt>
      <trkpt lat="45.97615" lon="4.71706">
        <ele>197</ele>
        <time>2016-11-08T11:32:17Z</time>
      </trkpt>
      <trkpt lat="45.97611" lon="4.7171">
        <ele>197</ele>
        <time>2016-11-08T11:32:18Z</time>
      </trkpt>
      <trkpt lat="45.97606" lon="4.71712">
        <ele>197</ele>
        <time>2016-11-08T11:32:19Z</time>
      </trkpt>
      <trkpt lat="45.97599" lon="4.71715">
        <ele>197</ele>
        <time>2016-11-08T11:32:20Z</time>
      </trkpt>
      <trkpt lat="45.97593" lon="4.71716">
        <ele>197</ele>
        <time>2016-11-08T11:32:21Z</time>
      </trkpt>
      <trkpt lat="45.97588" lon="4.71717">
        <ele>197</ele>
        <time>2016-11-08T11:32:22Z</time>
      </trkpt>
      <trkpt lat="45.97582" lon="4.71717">
        <ele>198</ele>
        <time>2016-11-08T11:32:23Z</time>
      </trkpt>
      <trkpt lat="45.97576" lon="4.71717">
        <ele>198</ele>
        <time>2016-11-08T11:32:24Z</time>
      </trkpt>
      <trkpt lat="45.97571" lon="4.71717">
        <ele>198</ele>
        <time>2016-11-08T11:32:25Z</time>
      </trkpt>
      <trkpt lat="45.97566" lon="4.71717">
        <ele>198</ele>
        <time>2016-11-08T11:32:26Z</time>
      </trkpt>
      <trkpt lat="45.9756" lon="4.71717">
        <ele>198</ele>
        <time>2016-11-08T11:32:27Z</time>
      </trkpt>
      <trkpt lat="45.97555" lon="4.71717">
        <ele>198</ele>
        <time>2016-11-08T11:32:28Z</time>
      </trkpt>
      <trkpt lat="45.97549" lon="4.71717">
        <ele>198</ele>
        <time>2016-11-08T11:32:29Z</time>
      </trkpt>
      <trkpt lat="45.97544" lon="4.71717">
        <ele>198</ele>
        <time>2016-11-08T11:32:30Z</time>
      </trkpt>
      <trkpt lat="45.97539" lon="4.71717">
        <ele>198</ele>
        <time>2016-11-08T11:32:31Z</time>
      </trkpt>
      <trkpt lat="45.97533" lon="4.71717">
        <ele>198</ele>
        <time>2016-11-08T11:32:32Z</time>
      </trkpt>
      <trkpt lat="45.97527" lon="4.71717">
        <ele>198</ele>
        <time>2016-11-08T11:32:33Z</time>
      </trkpt>
      <trkpt lat="45.97521" lon="4.71717">
        <ele>198</ele>
        <time>2016-11-08T11:32:34Z</time>
      </trkpt>
      <trkpt lat="45.97515" lon="4.71718">
        <ele>198</ele>
        <time>2016-11-08T11:32:35Z</time>
      </trkpt>
      <trkpt lat="45.9751" lon="4.71717">
        <ele>198</ele>
        <time>2016-11-08T11:32:36Z</time>
      </trkpt>
      <trkpt lat="45.97505" lon="4.71716">
        <ele>198</ele>
        <time>2016-11-08T11:32:37Z</time>
      </trkpt>
      <trkpt lat="45.97499" lon="4.71716">
        <ele>198</ele>
        <time>2016-11-08T11:32:38Z</time>
      </trkpt>
      <trkpt lat="45.97494" lon="4.71715">
        <ele>198</ele>
        <time>2016-11-08T11:32:39Z</time>
      </trkpt>
      <trkpt lat="45.97488" lon="4.71715">
        <ele>198</ele>
        <time>2016-11-08T11:32:40Z</time>
      </trkpt>
      <trkpt lat="45.97482" lon="4.71715">
        <ele>198</ele>
        <time>2016-11-08T11:32:41Z</time>
      </trkpt>
      <trkpt lat="45.97476" lon="4.71715">
        <ele>197</ele>
        <time>2016-11-08T11:32:42Z</time>
      </trkpt>
      <trkpt lat="45.9747" lon="4.71715">
        <ele>197</ele>
        <time>2016-11-08T11:32:43Z</time>
      </trkpt>
      <trkpt lat="45.97463" lon="4.71714">
        <ele>197</ele>
        <time>2016-11-08T11:32:44Z</time>
      </trkpt>
      <trkpt lat="45.97459" lon="4.71711">
        <ele>197</ele>
        <time>2016-11-08T11:32:45Z</time>
      </trkpt>
      <trkpt lat="45.97453" lon="4.71709">
        <ele>197</ele>
        <time>2016-11-08T11:32:46Z</time>
      </trkpt>
      <trkpt lat="45.97447" lon="4.71709">
        <ele>197</ele>
        <time>2016-11-08T11:32:47Z</time>
      </trkpt>
      <trkpt lat="45.97442" lon="4.71708">
        <ele>197</ele>
        <time>2016-11-08T11:32:48Z</time>
      </trkpt>
      <trkpt lat="45.97436" lon="4.71708">
        <ele>197</ele>
        <time>2016-11-08T11:32:49Z</time>
      </trkpt>
      <trkpt lat="45.97429" lon="4.71707">
        <ele>197</ele>
        <time>2016-11-08T11:32:50Z</time>
      </trkpt>
      <trkpt lat="45.97424" lon="4.71707">
        <ele>197</ele>
        <time>2016-11-08T11:32:51Z</time>
      </trkpt>
      <trkpt lat="45.97419" lon="4.71706">
        <ele>197</ele>
        <time>2016-11-08T11:32:52Z</time>
      </trkpt>
      <trkpt lat="45.97413" lon="4.71706">
        <ele>195</ele>
        <time>2016-11-08T11:32:53Z</time>
      </trkpt>
      <trkpt lat="45.97407" lon="4.71706">
        <ele>195</ele>
        <time>2016-11-08T11:32:54Z</time>
      </trkpt>
      <trkpt lat="45.97401" lon="4.71706">
        <ele>195</ele>
        <time>2016-11-08T11:32:55Z</time>
      </trkpt>
      <trkpt lat="45.97395" lon="4.71706">
        <ele>195</ele>
        <time>2016-11-08T11:32:56Z</time>
      </trkpt>
      <trkpt lat="45.9739" lon="4.71706">
        <ele>195</ele>
        <time>2016-11-08T11:32:57Z</time>
      </trkpt>
      <trkpt lat="45.97385" lon="4.71707">
        <ele>195</ele>
        <time>2016-11-08T11:32:58Z</time>
      </trkpt>
      <trkpt lat="45.97379" lon="4.71705">
        <ele>195</ele>
        <time>2016-11-08T11:32:59Z</time>
      </trkpt>
      <trkpt lat="45.97373" lon="4.71705">
        <ele>195</ele>
        <time>2016-11-08T11:33:00Z</time>
      </trkpt>
      <trkpt lat="45.97368" lon="4.71704">
        <ele>195</ele>
        <time>2016-11-08T11:33:01Z</time>
      </trkpt>
      <trkpt lat="45.97363" lon="4.71704">
        <ele>195</ele>
        <time>2016-11-08T11:33:02Z</time>
      </trkpt>
      <trkpt lat="45.97358" lon="4.71704">
        <ele>195</ele>
        <time>2016-11-08T11:33:03Z</time>
      </trkpt>
      <trkpt lat="45.97352" lon="4.71704">
        <ele>195</ele>
        <time>2016-11-08T11:33:04Z</time>
      </trkpt>
      <trkpt lat="45.97347" lon="4.71704">
        <ele>195</ele>
        <time>2016-11-08T11:33:05Z</time>
      </trkpt>
      <trkpt lat="45.97342" lon="4.71702">
        <ele>195</ele>
        <time>2016-11-08T11:33:06Z</time>
      </trkpt>
      <trkpt lat="45.97336" lon="4.71702">
        <ele>196</ele>
        <time>2016-11-08T11:33:07Z</time>
      </trkpt>
      <trkpt lat="45.97331" lon="4.71702">
        <ele>196</ele>
        <time>2016-11-08T11:33:08Z</time>
      </trkpt>
      <trkpt lat="45.97327" lon="4.71699">
        <ele>196</ele>
        <time>2016-11-08T11:33:09Z</time>
      </trkpt>
      <trkpt lat="45.97322" lon="4.71696">
        <ele>196</ele>
        <time>2016-11-08T11:33:10Z</time>
      </trkpt>
      <trkpt lat="45.97317" lon="4.71693">
        <ele>196</ele>
        <time>2016-11-08T11:33:11Z</time>
      </trkpt>
      <trkpt lat="45.97311" lon="4.71691">
        <ele>196</ele>
        <time>2016-11-08T11:33:12Z</time>
      </trkpt>
      <trkpt lat="45.97305" lon="4.71691">
        <ele>196</ele>
        <time>2016-11-08T11:33:13Z</time>
      </trkpt>
      <trkpt lat="45.97298" lon="4.71693">
        <ele>197</ele>
        <time>2016-11-08T11:33:14Z</time>
      </trkpt>
      <trkpt lat="45.97291" lon="4.71695">
        <ele>197</ele>
        <time>2016-11-08T11:33:15Z</time>
      </trkpt>
      <trkpt lat="45.97284" lon="4.71698">
        <ele>197</ele>
        <time>2016-11-08T11:33:16Z</time>
      </trkpt>
      <trkpt lat="45.97277" lon="4.71699">
        <ele>197</ele>
        <time>2016-11-08T11:33:17Z</time>
      </trkpt>
      <trkpt lat="45.97271" lon="4.71698">
        <ele>197</ele>
        <time>2016-11-08T11:33:18Z</time>
      </trkpt>
      <trkpt lat="45.97258" lon="4.71697">
        <ele>197</ele>
        <time>2016-11-08T11:33:20Z</time>
      </trkpt>
      <trkpt lat="45.97251" lon="4.71694">
        <ele>197</ele>
        <time>2016-11-08T11:33:21Z</time>
      </trkpt>
      <trkpt lat="45.97244" lon="4.71694">
        <ele>197</ele>
        <time>2016-11-08T11:33:22Z</time>
      </trkpt>
      <trkpt lat="45.97238" lon="4.71693">
        <ele>197</ele>
        <time>2016-11-08T11:33:23Z</time>
      </trkpt>
      <trkpt lat="45.97232" lon="4.71692">
        <ele>197</ele>
        <time>2016-11-08T11:33:24Z</time>
      </trkpt>
      <trkpt lat="45.97226" lon="4.71692">
        <ele>197</ele>
        <time>2016-11-08T11:33:25Z</time>
      </trkpt>
      <trkpt lat="45.9722" lon="4.71692">
        <ele>197</ele>
        <time>2016-11-08T11:33:26Z</time>
      </trkpt>
      <trkpt lat="45.97214" lon="4.71692">
        <ele>197</ele>
        <time>2016-11-08T11:33:27Z</time>
      </trkpt>
      <trkpt lat="45.97207" lon="4.71692">
        <ele>197</ele>
        <time>2016-11-08T11:33:28Z</time>
      </trkpt>
      <trkpt lat="45.972" lon="4.71691">
        <ele>197</ele>
        <time>2016-11-08T11:33:29Z</time>
      </trkpt>
      <trkpt lat="45.97194" lon="4.7169">
        <ele>197</ele>
        <time>2016-11-08T11:33:30Z</time>
      </trkpt>
      <trkpt lat="45.97187" lon="4.7169">
        <ele>197</ele>
        <time>2016-11-08T11:33:31Z</time>
      </trkpt>
      <trkpt lat="45.9718" lon="4.71689">
        <ele>197</ele>
        <time>2016-11-08T11:33:32Z</time>
      </trkpt>
      <trkpt lat="45.97173" lon="4.71689">
        <ele>197</ele>
        <time>2016-11-08T11:33:33Z</time>
      </trkpt>
      <trkpt lat="45.97166" lon="4.71688">
        <ele>196</ele>
        <time>2016-11-08T11:33:34Z</time>
      </trkpt>
      <trkpt lat="45.97159" lon="4.71688">
        <ele>196</ele>
        <time>2016-11-08T11:33:35Z</time>
      </trkpt>
      <trkpt lat="45.97152" lon="4.71687">
        <ele>195</ele>
        <time>2016-11-08T11:33:36Z</time>
      </trkpt>
      <trkpt lat="45.97145" lon="4.71686">
        <ele>195</ele>
        <time>2016-11-08T11:33:37Z</time>
      </trkpt>
      <trkpt lat="45.97138" lon="4.71686">
        <ele>195</ele>
        <time>2016-11-08T11:33:38Z</time>
      </trkpt>
      <trkpt lat="45.97131" lon="4.71686">
        <ele>195</ele>
        <time>2016-11-08T11:33:39Z</time>
      </trkpt>
      <trkpt lat="45.97125" lon="4.71686">
        <ele>195</ele>
        <time>2016-11-08T11:33:40Z</time>
      </trkpt>
      <trkpt lat="45.9712" lon="4.71683">
        <ele>195</ele>
        <time>2016-11-08T11:33:41Z</time>
      </trkpt>
      <trkpt lat="45.97113" lon="4.71685">
        <ele>194</ele>
        <time>2016-11-08T11:33:42Z</time>
      </trkpt>
      <trkpt lat="45.97106" lon="4.71686">
        <ele>194</ele>
        <time>2016-11-08T11:33:43Z</time>
      </trkpt>
      <trkpt lat="45.971" lon="4.71689">
        <ele>194</ele>
        <time>2016-11-08T11:33:44Z</time>
      </trkpt>
      <trkpt lat="45.97086" lon="4.71691">
        <ele>194</ele>
        <time>2016-11-08T11:33:46Z</time>
      </trkpt>
      <trkpt lat="45.97079" lon="4.71691">
        <ele>193</ele>
        <time>2016-11-08T11:33:47Z</time>
      </trkpt>
      <trkpt lat="45.97073" lon="4.71685">
        <ele>193</ele>
        <time>2016-11-08T11:33:48Z</time>
      </trkpt>
      <trkpt lat="45.97066" lon="4.71682">
        <ele>193</ele>
        <time>2016-11-08T11:33:49Z</time>
      </trkpt>
      <trkpt lat="45.97059" lon="4.7168">
        <ele>193</ele>
        <time>2016-11-08T11:33:50Z</time>
      </trkpt>
      <trkpt lat="45.97052" lon="4.71679">
        <ele>193</ele>
        <time>2016-11-08T11:33:51Z</time>
      </trkpt>
      <trkpt lat="45.97046" lon="4.71678">
        <ele>193</ele>
        <time>2016-11-08T11:33:52Z</time>
      </trkpt>
      <trkpt lat="45.9704" lon="4.71677">
        <ele>193</ele>
        <time>2016-11-08T11:33:53Z</time>
      </trkpt>
      <trkpt lat="45.97033" lon="4.71675">
        <ele>193</ele>
        <time>2016-11-08T11:33:54Z</time>
      </trkpt>
      <trkpt lat="45.97027" lon="4.71674">
        <ele>193</ele>
        <time>2016-11-08T11:33:55Z</time>
      </trkpt>
      <trkpt lat="45.9702" lon="4.71673">
        <ele>193</ele>
        <time>2016-11-08T11:33:56Z</time>
      </trkpt>
      <trkpt lat="45.97015" lon="4.71673">
        <ele>193</ele>
        <time>2016-11-08T11:33:57Z</time>
      </trkpt>
      <trkpt lat="45.97008" lon="4.71673">
        <ele>193</ele>
        <time>2016-11-08T11:33:58Z</time>
      </trkpt>
      <trkpt lat="45.97002" lon="4.71673">
        <ele>194</ele>
        <time>2016-11-08T11:33:59Z</time>
      </trkpt>
      <trkpt lat="45.96995" lon="4.71674">
        <ele>193</ele>
        <time>2016-11-08T11:34:00Z</time>
      </trkpt>
      <trkpt lat="45.96989" lon="4.71674">
        <ele>193</ele>
        <time>2016-11-08T11:34:01Z</time>
      </trkpt>
      <trkpt lat="45.96983" lon="4.71675">
        <ele>192</ele>
        <time>2016-11-08T11:34:02Z</time>
      </trkpt>
      <trkpt lat="45.96976" lon="4.71675">
        <ele>192</ele>
        <time>2016-11-08T11:34:03Z</time>
      </trkpt>
      <trkpt lat="45.9697" lon="4.71675">
        <ele>192</ele>
        <time>2016-11-08T11:34:04Z</time>
      </trkpt>
      <trkpt lat="45.96963" lon="4.71675">
        <ele>192</ele>
        <time>2016-11-08T11:34:05Z</time>
      </trkpt>
      <trkpt lat="45.96957" lon="4.71674">
        <ele>192</ele>
        <time>2016-11-08T11:34:06Z</time>
      </trkpt>
      <trkpt lat="45.96951" lon="4.71673">
        <ele>192</ele>
        <time>2016-11-08T11:34:07Z</time>
      </trkpt>
      <trkpt lat="45.96944" lon="4.71672">
        <ele>192</ele>
        <time>2016-11-08T11:34:08Z</time>
      </trkpt>
      <trkpt lat="45.96938" lon="4.71672">
        <ele>193</ele>
        <time>2016-11-08T11:34:09Z</time>
      </trkpt>
      <trkpt lat="45.96932" lon="4.71671">
        <ele>193</ele>
        <time>2016-11-08T11:34:10Z</time>
      </trkpt>
      <trkpt lat="45.96925" lon="4.7167">
        <ele>194</ele>
        <time>2016-11-08T11:34:11Z</time>
      </trkpt>
      <trkpt lat="45.96919" lon="4.71669">
        <ele>194</ele>
        <time>2016-11-08T11:34:12Z</time>
      </trkpt>
      <trkpt lat="45.96914" lon="4.71669">
        <ele>194</ele>
        <time>2016-11-08T11:34:13Z</time>
      </trkpt>
      <trkpt lat="45.96908" lon="4.71668">
        <ele>193</ele>
        <time>2016-11-08T11:34:14Z</time>
      </trkpt>
      <trkpt lat="45.96902" lon="4.71667">
        <ele>192</ele>
        <time>2016-11-08T11:34:15Z</time>
      </trkpt>
      <trkpt lat="45.96896" lon="4.71667">
        <ele>192</ele>
        <time>2016-11-08T11:34:16Z</time>
      </trkpt>
      <trkpt lat="45.96889" lon="4.71667">
        <ele>191</ele>
        <time>2016-11-08T11:34:17Z</time>
      </trkpt>
      <trkpt lat="45.96881" lon="4.71667">
        <ele>191</ele>
        <time>2016-11-08T11:34:18Z</time>
      </trkpt>
      <trkpt lat="45.96874" lon="4.71666">
        <ele>195</ele>
        <time>2016-11-08T11:34:19Z</time>
      </trkpt>
      <trkpt lat="45.96867" lon="4.71665">
        <ele>195</ele>
        <time>2016-11-08T11:34:20Z</time>
      </trkpt>
      <trkpt lat="45.9686" lon="4.71663">
        <ele>194</ele>
        <time>2016-11-08T11:34:21Z</time>
      </trkpt>
      <trkpt lat="45.96853" lon="4.71662">
        <ele>194</ele>
        <time>2016-11-08T11:34:22Z</time>
      </trkpt>
      <trkpt lat="45.96846" lon="4.71661">
        <ele>194</ele>
        <time>2016-11-08T11:34:23Z</time>
      </trkpt>
      <trkpt lat="45.96839" lon="4.7166">
        <ele>193</ele>
        <time>2016-11-08T11:34:24Z</time>
      </trkpt>
      <trkpt lat="45.96832" lon="4.71659">
        <ele>192</ele>
        <time>2016-11-08T11:34:25Z</time>
      </trkpt>
      <trkpt lat="45.96825" lon="4.71658">
        <ele>192</ele>
        <time>2016-11-08T11:34:26Z</time>
      </trkpt>
      <trkpt lat="45.96819" lon="4.71657">
        <ele>193</ele>
        <time>2016-11-08T11:34:27Z</time>
      </trkpt>
      <trkpt lat="45.96812" lon="4.71656">
        <ele>193</ele>
        <time>2016-11-08T11:34:28Z</time>
      </trkpt>
      <trkpt lat="45.96805" lon="4.71654">
        <ele>193</ele>
        <time>2016-11-08T11:34:29Z</time>
      </trkpt>
      <trkpt lat="45.96798" lon="4.71653">
        <ele>193</ele>
        <time>2016-11-08T11:34:30Z</time>
      </trkpt>
      <trkpt lat="45.96791" lon="4.71652">
        <ele>192</ele>
        <time>2016-11-08T11:34:31Z</time>
      </trkpt>
      <trkpt lat="45.96784" lon="4.71651">
        <ele>192</ele>
        <time>2016-11-08T11:34:32Z</time>
      </trkpt>
      <trkpt lat="45.96777" lon="4.7165">
        <ele>192</ele>
        <time>2016-11-08T11:34:33Z</time>
      </trkpt>
      <trkpt lat="45.9677" lon="4.71649">
        <ele>192</ele>
        <time>2016-11-08T11:34:34Z</time>
      </trkpt>
      <trkpt lat="45.96763" lon="4.71648">
        <ele>192</ele>
        <time>2016-11-08T11:34:35Z</time>
      </trkpt>
      <trkpt lat="45.96756" lon="4.71646">
        <ele>191</ele>
        <time>2016-11-08T11:34:36Z</time>
      </trkpt>
      <trkpt lat="45.96749" lon="4.71645">
        <ele>190</ele>
        <time>2016-11-08T11:34:37Z</time>
      </trkpt>
      <trkpt lat="45.96742" lon="4.71644">
        <ele>190</ele>
        <time>2016-11-08T11:34:38Z</time>
      </trkpt>
      <trkpt lat="45.96736" lon="4.71644">
        <ele>190</ele>
        <time>2016-11-08T11:34:39Z</time>
      </trkpt>
      <trkpt lat="45.96729" lon="4.71643">
        <ele>190</ele>
        <time>2016-11-08T11:34:40Z</time>
      </trkpt>
      <trkpt lat="45.96723" lon="4.71642">
        <ele>190</ele>
        <time>2016-11-08T11:34:41Z</time>
      </trkpt>
      <trkpt lat="45.96716" lon="4.7164">
        <ele>190</ele>
        <time>2016-11-08T11:34:42Z</time>
      </trkpt>
      <trkpt lat="45.9671" lon="4.71639">
        <ele>190</ele>
        <time>2016-11-08T11:34:43Z</time>
      </trkpt>
      <trkpt lat="45.96703" lon="4.71638">
        <ele>190</ele>
        <time>2016-11-08T11:34:44Z</time>
      </trkpt>
      <trkpt lat="45.96697" lon="4.71637">
        <ele>190</ele>
        <time>2016-11-08T11:34:45Z</time>
      </trkpt>
      <trkpt lat="45.9669" lon="4.71636">
        <ele>190</ele>
        <time>2016-11-08T11:34:46Z</time>
      </trkpt>
      <trkpt lat="45.96684" lon="4.71635">
        <ele>190</ele>
        <time>2016-11-08T11:34:47Z</time>
      </trkpt>
      <trkpt lat="45.96677" lon="4.71634">
        <ele>190</ele>
        <time>2016-11-08T11:34:48Z</time>
      </trkpt>
      <trkpt lat="45.9667" lon="4.71633">
        <ele>190</ele>
        <time>2016-11-08T11:34:49Z</time>
      </trkpt>
      <trkpt lat="45.96664" lon="4.71632">
        <ele>188</ele>
        <time>2016-11-08T11:34:50Z</time>
      </trkpt>
      <trkpt lat="45.96657" lon="4.71631">
        <ele>188</ele>
        <time>2016-11-08T11:34:51Z</time>
      </trkpt>
      <trkpt lat="45.9665" lon="4.7163">
        <ele>188</ele>
        <time>2016-11-08T11:34:52Z</time>
      </trkpt>
      <trkpt lat="45.96643" lon="4.71629">
        <ele>188</ele>
        <time>2016-11-08T11:34:53Z</time>
      </trkpt>
      <trkpt lat="45.96637" lon="4.71628">
        <ele>188</ele>
        <time>2016-11-08T11:34:54Z</time>
      </trkpt>
      <trkpt lat="45.9663" lon="4.71626">
        <ele>188</ele>
        <time>2016-11-08T11:34:55Z</time>
      </trkpt>
      <trkpt lat="45.96623" lon="4.71625">
        <ele>188</ele>
        <time>2016-11-08T11:34:56Z</time>
      </trkpt>
      <trkpt lat="45.96616" lon="4.71624">
        <ele>188</ele>
        <time>2016-11-08T11:34:57Z</time>
      </trkpt>
      <trkpt lat="45.9661" lon="4.71623">
        <ele>188</ele>
        <time>2016-11-08T11:34:58Z</time>
      </trkpt>
      <trkpt lat="45.96603" lon="4.71622">
        <ele>187</ele>
        <time>2016-11-08T11:34:59Z</time>
      </trkpt>
      <trkpt lat="45.96596" lon="4.7162">
        <ele>187</ele>
        <time>2016-11-08T11:35:00Z</time>
      </trkpt>
      <trkpt lat="45.9659" lon="4.71619">
        <ele>187</ele>
        <time>2016-11-08T11:35:01Z</time>
      </trkpt>
      <trkpt lat="45.96583" lon="4.71618">
        <ele>185</ele>
        <time>2016-11-08T11:35:02Z</time>
      </trkpt>
      <trkpt lat="45.96577" lon="4.71617">
        <ele>185</ele>
        <time>2016-11-08T11:35:03Z</time>
      </trkpt>
      <trkpt lat="45.9657" lon="4.71616">
        <ele>185</ele>
        <time>2016-11-08T11:35:04Z</time>
      </trkpt>
      <trkpt lat="45.96564" lon="4.71615">
        <ele>185</ele>
        <time>2016-11-08T11:35:05Z</time>
      </trkpt>
      <trkpt lat="45.96558" lon="4.71614">
        <ele>185</ele>
        <time>2016-11-08T11:35:06Z</time>
      </trkpt>
      <trkpt lat="45.96554" lon="4.71612">
        <ele>185</ele>
        <time>2016-11-08T11:35:07Z</time>
      </trkpt>
      <trkpt lat="45.96549" lon="4.71609">
        <ele>185</ele>
        <time>2016-11-08T11:35:08Z</time>
      </trkpt>
      <trkpt lat="45.96545" lon="4.71605">
        <ele>185</ele>
        <time>2016-11-08T11:35:09Z</time>
      </trkpt>
      <trkpt lat="45.96541" lon="4.71601">
        <ele>185</ele>
        <time>2016-11-08T11:35:10Z</time>
      </trkpt>
      <trkpt lat="45.96536" lon="4.71598">
        <ele>185</ele>
        <time>2016-11-08T11:35:11Z</time>
      </trkpt>
      <trkpt lat="45.96531" lon="4.71597">
        <ele>185</ele>
        <time>2016-11-08T11:35:12Z</time>
      </trkpt>
      <trkpt lat="45.96525" lon="4.71598">
        <ele>185</ele>
        <time>2016-11-08T11:35:13Z</time>
      </trkpt>
      <trkpt lat="45.96519" lon="4.71601">
        <ele>185</ele>
        <time>2016-11-08T11:35:14Z</time>
      </trkpt>
      <trkpt lat="45.96512" lon="4.71604">
        <ele>184</ele>
        <time>2016-11-08T11:35:15Z</time>
      </trkpt>
      <trkpt lat="45.96506" lon="4.71605">
        <ele>184</ele>
        <time>2016-11-08T11:35:16Z</time>
      </trkpt>
      <trkpt lat="45.965" lon="4.71604">
        <ele>184</ele>
        <time>2016-11-08T11:35:17Z</time>
      </trkpt>
      <trkpt lat="45.96492" lon="4.71605">
        <ele>183</ele>
        <time>2016-11-08T11:35:18Z</time>
      </trkpt>
      <trkpt lat="45.96485" lon="4.71604">
        <ele>183</ele>
        <time>2016-11-08T11:35:19Z</time>
      </trkpt>
      <trkpt lat="45.96478" lon="4.71603">
        <ele>183</ele>
        <time>2016-11-08T11:35:20Z</time>
      </trkpt>
      <trkpt lat="45.96471" lon="4.71602">
        <ele>183</ele>
        <time>2016-11-08T11:35:21Z</time>
      </trkpt>
      <trkpt lat="45.96464" lon="4.71601">
        <ele>183</ele>
        <time>2016-11-08T11:35:22Z</time>
      </trkpt>
      <trkpt lat="45.96457" lon="4.716">
        <ele>183</ele>
        <time>2016-11-08T11:35:23Z</time>
      </trkpt>
      <trkpt lat="45.9645" lon="4.71598">
        <ele>183</ele>
        <time>2016-11-08T11:35:24Z</time>
      </trkpt>
      <trkpt lat="45.96443" lon="4.71597">
        <ele>183</ele>
        <time>2016-11-08T11:35:25Z</time>
      </trkpt>
      <trkpt lat="45.96437" lon="4.71597">
        <ele>184</ele>
        <time>2016-11-08T11:35:26Z</time>
      </trkpt>
      <trkpt lat="45.96431" lon="4.71596">
        <ele>184</ele>
        <time>2016-11-08T11:35:27Z</time>
      </trkpt>
      <trkpt lat="45.96424" lon="4.71595">
        <ele>184</ele>
        <time>2016-11-08T11:35:28Z</time>
      </trkpt>
      <trkpt lat="45.96418" lon="4.71595">
        <ele>184</ele>
        <time>2016-11-08T11:35:29Z</time>
      </trkpt>
      <trkpt lat="45.96411" lon="4.71593">
        <ele>184</ele>
        <time>2016-11-08T11:35:30Z</time>
      </trkpt>
      <trkpt lat="45.96405" lon="4.71592">
        <ele>183</ele>
        <time>2016-11-08T11:35:31Z</time>
      </trkpt>
      <trkpt lat="45.96399" lon="4.71591">
        <ele>183</ele>
        <time>2016-11-08T11:35:32Z</time>
      </trkpt>
      <trkpt lat="45.96393" lon="4.7159">
        <ele>183</ele>
        <time>2016-11-08T11:35:33Z</time>
      </trkpt>
      <trkpt lat="45.96386" lon="4.71589">
        <ele>183</ele>
        <time>2016-11-08T11:35:34Z</time>
      </trkpt>
      <trkpt lat="45.96379" lon="4.71589">
        <ele>182</ele>
        <time>2016-11-08T11:35:35Z</time>
      </trkpt>
      <trkpt lat="45.96373" lon="4.71588">
        <ele>182</ele>
        <time>2016-11-08T11:35:36Z</time>
      </trkpt>
      <trkpt lat="45.96366" lon="4.71586">
        <ele>182</ele>
        <time>2016-11-08T11:35:37Z</time>
      </trkpt>
      <trkpt lat="45.96359" lon="4.71585">
        <ele>182</ele>
        <time>2016-11-08T11:35:38Z</time>
      </trkpt>
      <trkpt lat="45.96352" lon="4.71584">
        <ele>182</ele>
        <time>2016-11-08T11:35:39Z</time>
      </trkpt>
      <trkpt lat="45.96346" lon="4.71582">
        <ele>184</ele>
        <time>2016-11-08T11:35:40Z</time>
      </trkpt>
      <trkpt lat="45.96339" lon="4.71581">
        <ele>184</ele>
        <time>2016-11-08T11:35:41Z</time>
      </trkpt>
      <trkpt lat="45.96332" lon="4.7158">
        <ele>183</ele>
        <time>2016-11-08T11:35:42Z</time>
      </trkpt>
      <trkpt lat="45.96326" lon="4.71578">
        <ele>184</ele>
        <time>2016-11-08T11:35:43Z</time>
      </trkpt>
      <trkpt lat="45.9632" lon="4.71577">
        <ele>184</ele>
        <time>2016-11-08T11:35:44Z</time>
      </trkpt>
      <trkpt lat="45.96313" lon="4.71576">
        <ele>184</ele>
        <time>2016-11-08T11:35:45Z</time>
      </trkpt>
      <trkpt lat="45.96307" lon="4.71575">
        <ele>184</ele>
        <time>2016-11-08T11:35:46Z</time>
      </trkpt>
      <trkpt lat="45.963" lon="4.71574">
        <ele>184</ele>
        <time>2016-11-08T11:35:47Z</time>
      </trkpt>
      <trkpt lat="45.96293" lon="4.71573">
        <ele>184</ele>
        <time>2016-11-08T11:35:48Z</time>
      </trkpt>
      <trkpt lat="45.96287" lon="4.71571">
        <ele>184</ele>
        <time>2016-11-08T11:35:49Z</time>
      </trkpt>
      <trkpt lat="45.96281" lon="4.7157">
        <ele>184</ele>
        <time>2016-11-08T11:35:50Z</time>
      </trkpt>
      <trkpt lat="45.96274" lon="4.71569">
        <ele>184</ele>
        <time>2016-11-08T11:35:51Z</time>
      </trkpt>
      <trkpt lat="45.96268" lon="4.71568">
        <ele>184</ele>
        <time>2016-11-08T11:35:52Z</time>
      </trkpt>
      <trkpt lat="45.96262" lon="4.71567">
        <ele>183</ele>
        <time>2016-11-08T11:35:53Z</time>
      </trkpt>
      <trkpt lat="45.96255" lon="4.71566">
        <ele>183</ele>
        <time>2016-11-08T11:35:54Z</time>
      </trkpt>
      <trkpt lat="45.96249" lon="4.71565">
        <ele>183</ele>
        <time>2016-11-08T11:35:55Z</time>
      </trkpt>
      <trkpt lat="45.96242" lon="4.71565">
        <ele>183</ele>
        <time>2016-11-08T11:35:56Z</time>
      </trkpt>
      <trkpt lat="45.96235" lon="4.71564">
        <ele>183</ele>
        <time>2016-11-08T11:35:57Z</time>
      </trkpt>
      <trkpt lat="45.96228" lon="4.71564">
        <ele>183</ele>
        <time>2016-11-08T11:35:58Z</time>
      </trkpt>
      <trkpt lat="45.96221" lon="4.71563">
        <ele>183</ele>
        <time>2016-11-08T11:35:59Z</time>
      </trkpt>
      <trkpt lat="45.96214" lon="4.71561">
        <ele>183</ele>
        <time>2016-11-08T11:36:00Z</time>
      </trkpt>
      <trkpt lat="45.96207" lon="4.71561">
        <ele>183</ele>
        <time>2016-11-08T11:36:01Z</time>
      </trkpt>
      <trkpt lat="45.96201" lon="4.71558">
        <ele>183</ele>
        <time>2016-11-08T11:36:02Z</time>
      </trkpt>
      <trkpt lat="45.96195" lon="4.71557">
        <ele>183</ele>
        <time>2016-11-08T11:36:03Z</time>
      </trkpt>
      <trkpt lat="45.96189" lon="4.71552">
        <ele>184</ele>
        <time>2016-11-08T11:36:04Z</time>
      </trkpt>
      <trkpt lat="45.96183" lon="4.71553">
        <ele>183</ele>
        <time>2016-11-08T11:36:05Z</time>
      </trkpt>
      <trkpt lat="45.96176" lon="4.71554">
        <ele>183</ele>
        <time>2016-11-08T11:36:06Z</time>
      </trkpt>
      <trkpt lat="45.96171" lon="4.71554">
        <ele>183</ele>
        <time>2016-11-08T11:36:07Z</time>
      </trkpt>
      <trkpt lat="45.96165" lon="4.71556">
        <ele>183</ele>
        <time>2016-11-08T11:36:08Z</time>
      </trkpt>
      <trkpt lat="45.96158" lon="4.71562">
        <ele>183</ele>
        <time>2016-11-08T11:36:09Z</time>
      </trkpt>
      <trkpt lat="45.96155" lon="4.71566">
        <ele>183</ele>
        <time>2016-11-08T11:36:10Z</time>
      </trkpt>
      <trkpt lat="45.96153" lon="4.71565">
        <ele>183</ele>
        <time>2016-11-08T11:36:11Z</time>
      </trkpt>
      <trkpt lat="45.96141" lon="4.71559">
        <ele>184</ele>
        <time>2016-11-08T11:36:12Z</time>
      </trkpt>
      <trkpt lat="45.96127" lon="4.71556">
        <ele>184</ele>
        <time>2016-11-08T11:36:14Z</time>
      </trkpt>
      <trkpt lat="45.96119" lon="4.71553">
        <ele>184</ele>
        <time>2016-11-08T11:36:15Z</time>
      </trkpt>
      <trkpt lat="45.96113" lon="4.71552">
        <ele>184</ele>
        <time>2016-11-08T11:36:16Z</time>
      </trkpt>
      <trkpt lat="45.96106" lon="4.71551">
        <ele>185</ele>
        <time>2016-11-08T11:36:17Z</time>
      </trkpt>
      <trkpt lat="45.96099" lon="4.71549">
        <ele>185</ele>
        <time>2016-11-08T11:36:18Z</time>
      </trkpt>
      <trkpt lat="45.96092" lon="4.71547">
        <ele>185</ele>
        <time>2016-11-08T11:36:19Z</time>
      </trkpt>
      <trkpt lat="45.96086" lon="4.71545">
        <ele>185</ele>
        <time>2016-11-08T11:36:20Z</time>
      </trkpt>
      <trkpt lat="45.9608" lon="4.71544">
        <ele>185</ele>
        <time>2016-11-08T11:36:21Z</time>
      </trkpt>
      <trkpt lat="45.96074" lon="4.71543">
        <ele>185</ele>
        <time>2016-11-08T11:36:22Z</time>
      </trkpt>
      <trkpt lat="45.96068" lon="4.71541">
        <ele>185</ele>
        <time>2016-11-08T11:36:23Z</time>
      </trkpt>
      <trkpt lat="45.96062" lon="4.71539">
        <ele>185</ele>
        <time>2016-11-08T11:36:24Z</time>
      </trkpt>
      <trkpt lat="45.96057" lon="4.71538">
        <ele>185</ele>
        <time>2016-11-08T11:36:25Z</time>
      </trkpt>
      <trkpt lat="45.96052" lon="4.71537">
        <ele>185</ele>
        <time>2016-11-08T11:36:26Z</time>
      </trkpt>
      <trkpt lat="45.96047" lon="4.71535">
        <ele>185</ele>
        <time>2016-11-08T11:36:27Z</time>
      </trkpt>
      <trkpt lat="45.96042" lon="4.71534">
        <ele>186</ele>
        <time>2016-11-08T11:36:28Z</time>
      </trkpt>
      <trkpt lat="45.96036" lon="4.71532">
        <ele>186</ele>
        <time>2016-11-08T11:36:29Z</time>
      </trkpt>
      <trkpt lat="45.96031" lon="4.71531">
        <ele>186</ele>
        <time>2016-11-08T11:36:30Z</time>
      </trkpt>
      <trkpt lat="45.96025" lon="4.7153">
        <ele>186</ele>
        <time>2016-11-08T11:36:31Z</time>
      </trkpt>
      <trkpt lat="45.9602" lon="4.7153">
        <ele>186</ele>
        <time>2016-11-08T11:36:32Z</time>
      </trkpt>
      <trkpt lat="45.96014" lon="4.71528">
        <ele>186</ele>
        <time>2016-11-08T11:36:33Z</time>
      </trkpt>
      <trkpt lat="45.96007" lon="4.71526">
        <ele>186</ele>
        <time>2016-11-08T11:36:34Z</time>
      </trkpt>
      <trkpt lat="45.96002" lon="4.71524">
        <ele>186</ele>
        <time>2016-11-08T11:36:35Z</time>
      </trkpt>
      <trkpt lat="45.95996" lon="4.71521">
        <ele>185</ele>
        <time>2016-11-08T11:36:36Z</time>
      </trkpt>
      <trkpt lat="45.95991" lon="4.71517">
        <ele>185</ele>
        <time>2016-11-08T11:36:37Z</time>
      </trkpt>
      <trkpt lat="45.95986" lon="4.71513">
        <ele>185</ele>
        <time>2016-11-08T11:36:38Z</time>
      </trkpt>
      <trkpt lat="45.9598" lon="4.71511">
        <ele>185</ele>
        <time>2016-11-08T11:36:39Z</time>
      </trkpt>
      <trkpt lat="45.95975" lon="4.71511">
        <ele>185</ele>
        <time>2016-11-08T11:36:40Z</time>
      </trkpt>
      <trkpt lat="45.9597" lon="4.71514">
        <ele>185</ele>
        <time>2016-11-08T11:36:41Z</time>
      </trkpt>
      <trkpt lat="45.95964" lon="4.71517">
        <ele>184</ele>
        <time>2016-11-08T11:36:42Z</time>
      </trkpt>
      <trkpt lat="45.95958" lon="4.71519">
        <ele>184</ele>
        <time>2016-11-08T11:36:43Z</time>
      </trkpt>
      <trkpt lat="45.95952" lon="4.7152">
        <ele>184</ele>
        <time>2016-11-08T11:36:44Z</time>
      </trkpt>
      <trkpt lat="45.95945" lon="4.71521">
        <ele>184</ele>
        <time>2016-11-08T11:36:45Z</time>
      </trkpt>
      <trkpt lat="45.95938" lon="4.71521">
        <ele>184</ele>
        <time>2016-11-08T11:36:46Z</time>
      </trkpt>
      <trkpt lat="45.95931" lon="4.71521">
        <ele>184</ele>
        <time>2016-11-08T11:36:47Z</time>
      </trkpt>
      <trkpt lat="45.95924" lon="4.71521">
        <ele>184</ele>
        <time>2016-11-08T11:36:48Z</time>
      </trkpt>
      <trkpt lat="45.95917" lon="4.71522">
        <ele>183</ele>
        <time>2016-11-08T11:36:49Z</time>
      </trkpt>
      <trkpt lat="45.95909" lon="4.71522">
        <ele>183</ele>
        <time>2016-11-08T11:36:50Z</time>
      </trkpt>
      <trkpt lat="45.95902" lon="4.71522">
        <ele>182</ele>
        <time>2016-11-08T11:36:51Z</time>
      </trkpt>
      <trkpt lat="45.95895" lon="4.71522">
        <ele>182</ele>
        <time>2016-11-08T11:36:52Z</time>
      </trkpt>
      <trkpt lat="45.95887" lon="4.71521">
        <ele>182</ele>
        <time>2016-11-08T11:36:53Z</time>
      </trkpt>
      <trkpt lat="45.9588" lon="4.71521">
        <ele>182</ele>
        <time>2016-11-08T11:36:54Z</time>
      </trkpt>
      <trkpt lat="45.95873" lon="4.71521">
        <ele>182</ele>
        <time>2016-11-08T11:36:55Z</time>
      </trkpt>
      <trkpt lat="45.95866" lon="4.71521">
        <ele>182</ele>
        <time>2016-11-08T11:36:56Z</time>
      </trkpt>
      <trkpt lat="45.95858" lon="4.7152">
        <ele>182</ele>
        <time>2016-11-08T11:36:57Z</time>
      </trkpt>
      <trkpt lat="45.95851" lon="4.7152">
        <ele>182</ele>
        <time>2016-11-08T11:36:58Z</time>
      </trkpt>
      <trkpt lat="45.95844" lon="4.71519">
        <ele>182</ele>
        <time>2016-11-08T11:36:59Z</time>
      </trkpt>
      <trkpt lat="45.95837" lon="4.71519">
        <ele>182</ele>
        <time>2016-11-08T11:37:00Z</time>
      </trkpt>
      <trkpt lat="45.9583" lon="4.71518">
        <ele>182</ele>
        <time>2016-11-08T11:37:01Z</time>
      </trkpt>
      <trkpt lat="45.95823" lon="4.71518">
        <ele>182</ele>
        <time>2016-11-08T11:37:02Z</time>
      </trkpt>
      <trkpt lat="45.95817" lon="4.71518">
        <ele>182</ele>
        <time>2016-11-08T11:37:03Z</time>
      </trkpt>
      <trkpt lat="45.9581" lon="4.71517">
        <ele>181</ele>
        <time>2016-11-08T11:37:04Z</time>
      </trkpt>
      <trkpt lat="45.95802" lon="4.71517">
        <ele>181</ele>
        <time>2016-11-08T11:37:05Z</time>
      </trkpt>
      <trkpt lat="45.95795" lon="4.71516">
        <ele>181</ele>
        <time>2016-11-08T11:37:06Z</time>
      </trkpt>
      <trkpt lat="45.95788" lon="4.71516">
        <ele>181</ele>
        <time>2016-11-08T11:37:07Z</time>
      </trkpt>
      <trkpt lat="45.9578" lon="4.71516">
        <ele>181</ele>
        <time>2016-11-08T11:37:08Z</time>
      </trkpt>
      <trkpt lat="45.95773" lon="4.71515">
        <ele>181</ele>
        <time>2016-11-08T11:37:09Z</time>
      </trkpt>
      <trkpt lat="45.95765" lon="4.71515">
        <ele>181</ele>
        <time>2016-11-08T11:37:10Z</time>
      </trkpt>
      <trkpt lat="45.95757" lon="4.71514">
        <ele>181</ele>
        <time>2016-11-08T11:37:11Z</time>
      </trkpt>
      <trkpt lat="45.9575" lon="4.71514">
        <ele>181</ele>
        <time>2016-11-08T11:37:12Z</time>
      </trkpt>
      <trkpt lat="45.95742" lon="4.71513">
        <ele>181</ele>
        <time>2016-11-08T11:37:13Z</time>
      </trkpt>
      <trkpt lat="45.95734" lon="4.71512">
        <ele>181</ele>
        <time>2016-11-08T11:37:14Z</time>
      </trkpt>
      <trkpt lat="45.95727" lon="4.71512">
        <ele>180</ele>
        <time>2016-11-08T11:37:15Z</time>
      </trkpt>
      <trkpt lat="45.95719" lon="4.71511">
        <ele>180</ele>
        <time>2016-11-08T11:37:16Z</time>
      </trkpt>
      <trkpt lat="45.95711" lon="4.71511">
        <ele>180</ele>
        <time>2016-11-08T11:37:17Z</time>
      </trkpt>
      <trkpt lat="45.95704" lon="4.71511">
        <ele>180</ele>
        <time>2016-11-08T11:37:18Z</time>
      </trkpt>
      <trkpt lat="45.95696" lon="4.71509">
        <ele>180</ele>
        <time>2016-11-08T11:37:19Z</time>
      </trkpt>
      <trkpt lat="45.95689" lon="4.71509">
        <ele>181</ele>
        <time>2016-11-08T11:37:20Z</time>
      </trkpt>
      <trkpt lat="45.95681" lon="4.71508">
        <ele>181</ele>
        <time>2016-11-08T11:37:21Z</time>
      </trkpt>
      <trkpt lat="45.95674" lon="4.71507">
        <ele>181</ele>
        <time>2016-11-08T11:37:22Z</time>
      </trkpt>
      <trkpt lat="45.95666" lon="4.71507">
        <ele>181</ele>
        <time>2016-11-08T11:37:23Z</time>
      </trkpt>
      <trkpt lat="45.95659" lon="4.71506">
        <ele>181</ele>
        <time>2016-11-08T11:37:24Z</time>
      </trkpt>
      <trkpt lat="45.95651" lon="4.71506">
        <ele>180</ele>
        <time>2016-11-08T11:37:25Z</time>
      </trkpt>
      <trkpt lat="45.95644" lon="4.71505">
        <ele>180</ele>
        <time>2016-11-08T11:37:26Z</time>
      </trkpt>
      <trkpt lat="45.95637" lon="4.71504">
        <ele>180</ele>
        <time>2016-11-08T11:37:27Z</time>
      </trkpt>
      <trkpt lat="45.95629" lon="4.71503">
        <ele>180</ele>
        <time>2016-11-08T11:37:28Z</time>
      </trkpt>
      <trkpt lat="45.95622" lon="4.71502">
        <ele>180</ele>
        <time>2016-11-08T11:37:29Z</time>
      </trkpt>
      <trkpt lat="45.95614" lon="4.71502">
        <ele>179</ele>
        <time>2016-11-08T11:37:30Z</time>
      </trkpt>
      <trkpt lat="45.95607" lon="4.71502">
        <ele>179</ele>
        <time>2016-11-08T11:37:31Z</time>
      </trkpt>
      <trkpt lat="45.95599" lon="4.71501">
        <ele>180</ele>
        <time>2016-11-08T11:37:32Z</time>
      </trkpt>
      <trkpt lat="45.95591" lon="4.71501">
        <ele>180</ele>
        <time>2016-11-08T11:37:33Z</time>
      </trkpt>
      <trkpt lat="45.95583" lon="4.715">
        <ele>180</ele>
        <time>2016-11-08T11:37:34Z</time>
      </trkpt>
      <trkpt lat="45.95575" lon="4.71499">
        <ele>180</ele>
        <time>2016-11-08T11:37:35Z</time>
      </trkpt>
      <trkpt lat="45.95567" lon="4.71499">
        <ele>179</ele>
        <time>2016-11-08T11:37:36Z</time>
      </trkpt>
      <trkpt lat="45.95558" lon="4.71498">
        <ele>179</ele>
        <time>2016-11-08T11:37:37Z</time>
      </trkpt>
      <trkpt lat="45.9555" lon="4.71497">
        <ele>179</ele>
        <time>2016-11-08T11:37:38Z</time>
      </trkpt>
      <trkpt lat="45.95542" lon="4.71497">
        <ele>179</ele>
        <time>2016-11-08T11:37:39Z</time>
      </trkpt>
      <trkpt lat="45.95533" lon="4.71496">
        <ele>179</ele>
        <time>2016-11-08T11:37:40Z</time>
      </trkpt>
      <trkpt lat="45.95525" lon="4.71496">
        <ele>178</ele>
        <time>2016-11-08T11:37:41Z</time>
      </trkpt>
      <trkpt lat="45.95517" lon="4.71495">
        <ele>178</ele>
        <time>2016-11-08T11:37:42Z</time>
      </trkpt>
      <trkpt lat="45.95509" lon="4.71495">
        <ele>178</ele>
        <time>2016-11-08T11:37:43Z</time>
      </trkpt>
      <trkpt lat="45.95502" lon="4.71495">
        <ele>177</ele>
        <time>2016-11-08T11:37:44Z</time>
      </trkpt>
      <trkpt lat="45.95494" lon="4.71494">
        <ele>177</ele>
        <time>2016-11-08T11:37:45Z</time>
      </trkpt>
      <trkpt lat="45.95487" lon="4.71493">
        <ele>177</ele>
        <time>2016-11-08T11:37:46Z</time>
      </trkpt>
      <trkpt lat="45.9548" lon="4.71491">
        <ele>176</ele>
        <time>2016-11-08T11:37:47Z</time>
      </trkpt>
      <trkpt lat="45.95473" lon="4.7149">
        <ele>176</ele>
        <time>2016-11-08T11:37:48Z</time>
      </trkpt>
      <trkpt lat="45.95466" lon="4.71489">
        <ele>176</ele>
        <time>2016-11-08T11:37:49Z</time>
      </trkpt>
      <trkpt lat="45.95459" lon="4.71489">
        <ele>176</ele>
        <time>2016-11-08T11:37:50Z</time>
      </trkpt>
      <trkpt lat="45.95452" lon="4.71488">
        <ele>176</ele>
        <time>2016-11-08T11:37:51Z</time>
      </trkpt>
      <trkpt lat="45.95445" lon="4.71488">
        <ele>176</ele>
        <time>2016-11-08T11:37:52Z</time>
      </trkpt>
      <trkpt lat="45.95437" lon="4.71488">
        <ele>175</ele>
        <time>2016-11-08T11:37:53Z</time>
      </trkpt>
      <trkpt lat="45.9543" lon="4.71488">
        <ele>175</ele>
        <time>2016-11-08T11:37:54Z</time>
      </trkpt>
      <trkpt lat="45.95402" lon="4.71486">
        <ele>175</ele>
        <time>2016-11-08T11:37:58Z</time>
      </trkpt>
      <trkpt lat="45.95394" lon="4.71486">
        <ele>175</ele>
        <time>2016-11-08T11:37:59Z</time>
      </trkpt>
      <trkpt lat="45.95386" lon="4.71485">
        <ele>175</ele>
        <time>2016-11-08T11:38:00Z</time>
      </trkpt>
      <trkpt lat="45.95379" lon="4.71484">
        <ele>175</ele>
        <time>2016-11-08T11:38:01Z</time>
      </trkpt>
      <trkpt lat="45.95371" lon="4.71484">
        <ele>175</ele>
        <time>2016-11-08T11:38:02Z</time>
      </trkpt>
      <trkpt lat="45.95363" lon="4.71483">
        <ele>175</ele>
        <time>2016-11-08T11:38:03Z</time>
      </trkpt>
      <trkpt lat="45.95355" lon="4.71482">
        <ele>175</ele>
        <time>2016-11-08T11:38:04Z</time>
      </trkpt>
      <trkpt lat="45.95348" lon="4.71481">
        <ele>175</ele>
        <time>2016-11-08T11:38:05Z</time>
      </trkpt>
      <trkpt lat="45.95341" lon="4.71481">
        <ele>175</ele>
        <time>2016-11-08T11:38:06Z</time>
      </trkpt>
      <trkpt lat="45.95333" lon="4.71481">
        <ele>175</ele>
        <time>2016-11-08T11:38:07Z</time>
      </trkpt>
      <trkpt lat="45.95327" lon="4.71481">
        <ele>175</ele>
        <time>2016-11-08T11:38:08Z</time>
      </trkpt>
      <trkpt lat="45.9532" lon="4.71481">
        <ele>175</ele>
        <time>2016-11-08T11:38:09Z</time>
      </trkpt>
      <trkpt lat="45.95313" lon="4.7148">
        <ele>175</ele>
        <time>2016-11-08T11:38:10Z</time>
      </trkpt>
      <trkpt lat="45.95301" lon="4.71478">
        <ele>176</ele>
        <time>2016-11-08T11:38:12Z</time>
      </trkpt>
      <trkpt lat="45.95293" lon="4.71479">
        <ele>176</ele>
        <time>2016-11-08T11:38:13Z</time>
      </trkpt>
      <trkpt lat="45.95286" lon="4.71479">
        <ele>176</ele>
        <time>2016-11-08T11:38:14Z</time>
      </trkpt>
      <trkpt lat="45.95278" lon="4.71477">
        <ele>176</ele>
        <time>2016-11-08T11:38:15Z</time>
      </trkpt>
      <trkpt lat="45.95272" lon="4.71477">
        <ele>176</ele>
        <time>2016-11-08T11:38:16Z</time>
      </trkpt>
      <trkpt lat="45.95265" lon="4.71479">
        <ele>176</ele>
        <time>2016-11-08T11:38:17Z</time>
      </trkpt>
      <trkpt lat="45.95259" lon="4.71478">
        <ele>176</ele>
        <time>2016-11-08T11:38:18Z</time>
      </trkpt>
      <trkpt lat="45.95252" lon="4.71478">
        <ele>176</ele>
        <time>2016-11-08T11:38:19Z</time>
      </trkpt>
      <trkpt lat="45.95246" lon="4.71477">
        <ele>177</ele>
        <time>2016-11-08T11:38:20Z</time>
      </trkpt>
      <trkpt lat="45.95239" lon="4.71477">
        <ele>177</ele>
        <time>2016-11-08T11:38:21Z</time>
      </trkpt>
      <trkpt lat="45.95233" lon="4.71477">
        <ele>177</ele>
        <time>2016-11-08T11:38:22Z</time>
      </trkpt>
      <trkpt lat="45.95226" lon="4.71477">
        <ele>177</ele>
        <time>2016-11-08T11:38:23Z</time>
      </trkpt>
      <trkpt lat="45.95219" lon="4.71476">
        <ele>177</ele>
        <time>2016-11-08T11:38:24Z</time>
      </trkpt>
      <trkpt lat="45.95212" lon="4.71476">
        <ele>177</ele>
        <time>2016-11-08T11:38:25Z</time>
      </trkpt>
      <trkpt lat="45.95206" lon="4.71475">
        <ele>177</ele>
        <time>2016-11-08T11:38:26Z</time>
      </trkpt>
      <trkpt lat="45.95199" lon="4.71475">
        <ele>177</ele>
        <time>2016-11-08T11:38:27Z</time>
      </trkpt>
      <trkpt lat="45.95193" lon="4.71473">
        <ele>177</ele>
        <time>2016-11-08T11:38:28Z</time>
      </trkpt>
      <trkpt lat="45.95187" lon="4.71472">
        <ele>177</ele>
        <time>2016-11-08T11:38:29Z</time>
      </trkpt>
      <trkpt lat="45.95181" lon="4.71472">
        <ele>177</ele>
        <time>2016-11-08T11:38:30Z</time>
      </trkpt>
      <trkpt lat="45.95175" lon="4.71472">
        <ele>177</ele>
        <time>2016-11-08T11:38:31Z</time>
      </trkpt>
      <trkpt lat="45.95169" lon="4.71472">
        <ele>177</ele>
        <time>2016-11-08T11:38:32Z</time>
      </trkpt>
      <trkpt lat="45.95163" lon="4.71471">
        <ele>178</ele>
        <time>2016-11-08T11:38:33Z</time>
      </trkpt>
      <trkpt lat="45.95158" lon="4.71471">
        <ele>178</ele>
        <time>2016-11-08T11:38:34Z</time>
      </trkpt>
      <trkpt lat="45.95152" lon="4.71471">
        <ele>178</ele>
        <time>2016-11-08T11:38:35Z</time>
      </trkpt>
      <trkpt lat="45.95147" lon="4.71471">
        <ele>178</ele>
        <time>2016-11-08T11:38:36Z</time>
      </trkpt>
      <trkpt lat="45.95141" lon="4.71471">
        <ele>178</ele>
        <time>2016-11-08T11:38:37Z</time>
      </trkpt>
      <trkpt lat="45.95135" lon="4.7147">
        <ele>178</ele>
        <time>2016-11-08T11:38:38Z</time>
      </trkpt>
      <trkpt lat="45.9513" lon="4.7147">
        <ele>178</ele>
        <time>2016-11-08T11:38:39Z</time>
      </trkpt>
      <trkpt lat="45.95124" lon="4.71469">
        <ele>178</ele>
        <time>2016-11-08T11:38:40Z</time>
      </trkpt>
      <trkpt lat="45.95118" lon="4.71469">
        <ele>179</ele>
        <time>2016-11-08T11:38:41Z</time>
      </trkpt>
      <trkpt lat="45.95113" lon="4.71469">
        <ele>179</ele>
        <time>2016-11-08T11:38:42Z</time>
      </trkpt>
      <trkpt lat="45.95107" lon="4.71468">
        <ele>179</ele>
        <time>2016-11-08T11:38:43Z</time>
      </trkpt>
      <trkpt lat="45.95101" lon="4.71468">
        <ele>179</ele>
        <time>2016-11-08T11:38:44Z</time>
      </trkpt>
      <trkpt lat="45.95096" lon="4.71467">
        <ele>179</ele>
        <time>2016-11-08T11:38:45Z</time>
      </trkpt>
      <trkpt lat="45.95091" lon="4.71467">
        <ele>179</ele>
        <time>2016-11-08T11:38:46Z</time>
      </trkpt>
      <trkpt lat="45.95086" lon="4.71467">
        <ele>179</ele>
        <time>2016-11-08T11:38:47Z</time>
      </trkpt>
      <trkpt lat="45.9508" lon="4.71467">
        <ele>181</ele>
        <time>2016-11-08T11:38:48Z</time>
      </trkpt>
      <trkpt lat="45.95075" lon="4.71466">
        <ele>181</ele>
        <time>2016-11-08T11:38:49Z</time>
      </trkpt>
      <trkpt lat="45.95069" lon="4.71465">
        <ele>181</ele>
        <time>2016-11-08T11:38:50Z</time>
      </trkpt>
      <trkpt lat="45.95065" lon="4.71465">
        <ele>181</ele>
        <time>2016-11-08T11:38:51Z</time>
      </trkpt>
      <trkpt lat="45.9506" lon="4.71465">
        <ele>181</ele>
        <time>2016-11-08T11:38:52Z</time>
      </trkpt>
      <trkpt lat="45.95055" lon="4.71465">
        <ele>181</ele>
        <time>2016-11-08T11:38:53Z</time>
      </trkpt>
      <trkpt lat="45.9505" lon="4.71464">
        <ele>181</ele>
        <time>2016-11-08T11:38:54Z</time>
      </trkpt>
      <trkpt lat="45.95045" lon="4.71464">
        <ele>182</ele>
        <time>2016-11-08T11:38:55Z</time>
      </trkpt>
      <trkpt lat="45.9504" lon="4.71464">
        <ele>182</ele>
        <time>2016-11-08T11:38:56Z</time>
      </trkpt>
      <trkpt lat="45.95035" lon="4.71463">
        <ele>182</ele>
        <time>2016-11-08T11:38:57Z</time>
      </trkpt>
      <trkpt lat="45.9503" lon="4.71463">
        <ele>182</ele>
        <time>2016-11-08T11:38:58Z</time>
      </trkpt>
      <trkpt lat="45.95022" lon="4.71463">
        <ele>182</ele>
        <time>2016-11-08T11:39:00Z</time>
      </trkpt>
      <trkpt lat="45.95017" lon="4.71463">
        <ele>182</ele>
        <time>2016-11-08T11:39:01Z</time>
      </trkpt>
      <trkpt lat="45.95009" lon="4.71462">
        <ele>182</ele>
        <time>2016-11-08T11:39:03Z</time>
      </trkpt>
      <trkpt lat="45.95005" lon="4.71462">
        <ele>182</ele>
        <time>2016-11-08T11:39:04Z</time>
      </trkpt>
      <trkpt lat="45.95" lon="4.7146">
        <ele>182</ele>
        <time>2016-11-08T11:39:05Z</time>
      </trkpt>
      <trkpt lat="45.94996" lon="4.71458">
        <ele>184</ele>
        <time>2016-11-08T11:39:06Z</time>
      </trkpt>
      <trkpt lat="45.94992" lon="4.71455">
        <ele>184</ele>
        <time>2016-11-08T11:39:07Z</time>
      </trkpt>
      <trkpt lat="45.94988" lon="4.7145">
        <ele>184</ele>
        <time>2016-11-08T11:39:08Z</time>
      </trkpt>
      <trkpt lat="45.94985" lon="4.71444">
        <ele>184</ele>
        <time>2016-11-08T11:39:09Z</time>
      </trkpt>
      <trkpt lat="45.94981" lon="4.71439">
        <ele>184</ele>
        <time>2016-11-08T11:39:10Z</time>
      </trkpt>
      <trkpt lat="45.94977" lon="4.71436">
        <ele>185</ele>
        <time>2016-11-08T11:39:11Z</time>
      </trkpt>
      <trkpt lat="45.94973" lon="4.71433">
        <ele>185</ele>
        <time>2016-11-08T11:39:12Z</time>
      </trkpt>
      <trkpt lat="45.94968" lon="4.71433">
        <ele>185</ele>
        <time>2016-11-08T11:39:13Z</time>
      </trkpt>
      <trkpt lat="45.94963" lon="4.71434">
        <ele>184</ele>
        <time>2016-11-08T11:39:14Z</time>
      </trkpt>
      <trkpt lat="45.94959" lon="4.71437">
        <ele>184</ele>
        <time>2016-11-08T11:39:15Z</time>
      </trkpt>
      <trkpt lat="45.94954" lon="4.71441">
        <ele>184</ele>
        <time>2016-11-08T11:39:16Z</time>
      </trkpt>
      <trkpt lat="45.94949" lon="4.71445">
        <ele>184</ele>
        <time>2016-11-08T11:39:17Z</time>
      </trkpt>
      <trkpt lat="45.94944" lon="4.71448">
        <ele>184</ele>
        <time>2016-11-08T11:39:18Z</time>
      </trkpt>
      <trkpt lat="45.9494" lon="4.71451">
        <ele>184</ele>
        <time>2016-11-08T11:39:19Z</time>
      </trkpt>
      <trkpt lat="45.94935" lon="4.71454">
        <ele>184</ele>
        <time>2016-11-08T11:39:20Z</time>
      </trkpt>
      <trkpt lat="45.9493" lon="4.71455">
        <ele>184</ele>
        <time>2016-11-08T11:39:21Z</time>
      </trkpt>
      <trkpt lat="45.94925" lon="4.71456">
        <ele>184</ele>
        <time>2016-11-08T11:39:22Z</time>
      </trkpt>
      <trkpt lat="45.9492" lon="4.71456">
        <ele>184</ele>
        <time>2016-11-08T11:39:23Z</time>
      </trkpt>
      <trkpt lat="45.94915" lon="4.71455">
        <ele>184</ele>
        <time>2016-11-08T11:39:24Z</time>
      </trkpt>
      <trkpt lat="45.9491" lon="4.71455">
        <ele>184</ele>
        <time>2016-11-08T11:39:25Z</time>
      </trkpt>
      <trkpt lat="45.94905" lon="4.71455">
        <ele>184</ele>
        <time>2016-11-08T11:39:26Z</time>
      </trkpt>
      <trkpt lat="45.949" lon="4.71454">
        <ele>184</ele>
        <time>2016-11-08T11:39:27Z</time>
      </trkpt>
      <trkpt lat="45.94895" lon="4.71454">
        <ele>184</ele>
        <time>2016-11-08T11:39:28Z</time>
      </trkpt>
      <trkpt lat="45.9489" lon="4.71454">
        <ele>184</ele>
        <time>2016-11-08T11:39:29Z</time>
      </trkpt>
      <trkpt lat="45.94885" lon="4.71454">
        <ele>184</ele>
        <time>2016-11-08T11:39:30Z</time>
      </trkpt>
      <trkpt lat="45.9488" lon="4.71454">
        <ele>184</ele>
        <time>2016-11-08T11:39:31Z</time>
      </trkpt>
      <trkpt lat="45.94874" lon="4.71453">
        <ele>184</ele>
        <time>2016-11-08T11:39:32Z</time>
      </trkpt>
      <trkpt lat="45.94869" lon="4.71453">
        <ele>184</ele>
        <time>2016-11-08T11:39:33Z</time>
      </trkpt>
      <trkpt lat="45.94865" lon="4.71452">
        <ele>184</ele>
        <time>2016-11-08T11:39:34Z</time>
      </trkpt>
      <trkpt lat="45.9486" lon="4.71451">
        <ele>184</ele>
        <time>2016-11-08T11:39:35Z</time>
      </trkpt>
      <trkpt lat="45.94855" lon="4.71451">
        <ele>184</ele>
        <time>2016-11-08T11:39:36Z</time>
      </trkpt>
      <trkpt lat="45.9485" lon="4.71451">
        <ele>184</ele>
        <time>2016-11-08T11:39:37Z</time>
      </trkpt>
      <trkpt lat="45.94845" lon="4.7145">
        <ele>184</ele>
        <time>2016-11-08T11:39:38Z</time>
      </trkpt>
      <trkpt lat="45.94839" lon="4.71451">
        <ele>184</ele>
        <time>2016-11-08T11:39:39Z</time>
      </trkpt>
      <trkpt lat="45.94834" lon="4.71451">
        <ele>184</ele>
        <time>2016-11-08T11:39:40Z</time>
      </trkpt>
      <trkpt lat="45.94828" lon="4.71451">
        <ele>184</ele>
        <time>2016-11-08T11:39:41Z</time>
      </trkpt>
      <trkpt lat="45.94822" lon="4.7145">
        <ele>184</ele>
        <time>2016-11-08T11:39:42Z</time>
      </trkpt>
      <trkpt lat="45.94815" lon="4.7145">
        <ele>183</ele>
        <time>2016-11-08T11:39:43Z</time>
      </trkpt>
      <trkpt lat="45.94809" lon="4.71449">
        <ele>183</ele>
        <time>2016-11-08T11:39:44Z</time>
      </trkpt>
      <trkpt lat="45.94803" lon="4.71449">
        <ele>183</ele>
        <time>2016-11-08T11:39:45Z</time>
      </trkpt>
      <trkpt lat="45.94798" lon="4.71449">
        <ele>183</ele>
        <time>2016-11-08T11:39:46Z</time>
      </trkpt>
      <trkpt lat="45.94792" lon="4.71447">
        <ele>183</ele>
        <time>2016-11-08T11:39:47Z</time>
      </trkpt>
      <trkpt lat="45.94787" lon="4.71447">
        <ele>183</ele>
        <time>2016-11-08T11:39:48Z</time>
      </trkpt>
      <trkpt lat="45.94782" lon="4.71446">
        <ele>183</ele>
        <time>2016-11-08T11:39:49Z</time>
      </trkpt>
      <trkpt lat="45.94777" lon="4.71445">
        <ele>183</ele>
        <time>2016-11-08T11:39:50Z</time>
      </trkpt>
      <trkpt lat="45.94771" lon="4.71445">
        <ele>184</ele>
        <time>2016-11-08T11:39:51Z</time>
      </trkpt>
      <trkpt lat="45.94766" lon="4.71444">
        <ele>184</ele>
        <time>2016-11-08T11:39:52Z</time>
      </trkpt>
      <trkpt lat="45.94761" lon="4.71444">
        <ele>184</ele>
        <time>2016-11-08T11:39:53Z</time>
      </trkpt>
      <trkpt lat="45.94756" lon="4.71444">
        <ele>184</ele>
        <time>2016-11-08T11:39:54Z</time>
      </trkpt>
      <trkpt lat="45.94751" lon="4.71444">
        <ele>184</ele>
        <time>2016-11-08T11:39:55Z</time>
      </trkpt>
      <trkpt lat="45.94746" lon="4.71444">
        <ele>183</ele>
        <time>2016-11-08T11:39:56Z</time>
      </trkpt>
      <trkpt lat="45.9474" lon="4.71443">
        <ele>183</ele>
        <time>2016-11-08T11:39:57Z</time>
      </trkpt>
      <trkpt lat="45.94734" lon="4.71443">
        <ele>183</ele>
        <time>2016-11-08T11:39:58Z</time>
      </trkpt>
      <trkpt lat="45.94728" lon="4.71442">
        <ele>183</ele>
        <time>2016-11-08T11:39:59Z</time>
      </trkpt>
      <trkpt lat="45.94721" lon="4.71442">
        <ele>182</ele>
        <time>2016-11-08T11:40:00Z</time>
      </trkpt>
      <trkpt lat="45.94715" lon="4.71442">
        <ele>182</ele>
        <time>2016-11-08T11:40:01Z</time>
      </trkpt>
      <trkpt lat="45.94708" lon="4.71443">
        <ele>182</ele>
        <time>2016-11-08T11:40:02Z</time>
      </trkpt>
      <trkpt lat="45.94702" lon="4.71443">
        <ele>182</ele>
        <time>2016-11-08T11:40:03Z</time>
      </trkpt>
      <trkpt lat="45.94695" lon="4.71443">
        <ele>182</ele>
        <time>2016-11-08T11:40:04Z</time>
      </trkpt>
      <trkpt lat="45.94689" lon="4.71443">
        <ele>182</ele>
        <time>2016-11-08T11:40:05Z</time>
      </trkpt>
      <trkpt lat="45.94683" lon="4.71442">
        <ele>182</ele>
        <time>2016-11-08T11:40:06Z</time>
      </trkpt>
      <trkpt lat="45.94677" lon="4.71441">
        <ele>182</ele>
        <time>2016-11-08T11:40:07Z</time>
      </trkpt>
      <trkpt lat="45.94671" lon="4.7144">
        <ele>182</ele>
        <time>2016-11-08T11:40:08Z</time>
      </trkpt>
      <trkpt lat="45.94665" lon="4.7144">
        <ele>182</ele>
        <time>2016-11-08T11:40:09Z</time>
      </trkpt>
      <trkpt lat="45.9466" lon="4.71439">
        <ele>182</ele>
        <time>2016-11-08T11:40:10Z</time>
      </trkpt>
      <trkpt lat="45.94654" lon="4.71439">
        <ele>182</ele>
        <time>2016-11-08T11:40:11Z</time>
      </trkpt>
      <trkpt lat="45.94649" lon="4.71438">
        <ele>182</ele>
        <time>2016-11-08T11:40:12Z</time>
      </trkpt>
      <trkpt lat="45.94643" lon="4.71438">
        <ele>182</ele>
        <time>2016-11-08T11:40:13Z</time>
      </trkpt>
      <trkpt lat="45.94637" lon="4.71437">
        <ele>181</ele>
        <time>2016-11-08T11:40:14Z</time>
      </trkpt>
      <trkpt lat="45.94632" lon="4.71436">
        <ele>181</ele>
        <time>2016-11-08T11:40:15Z</time>
      </trkpt>
      <trkpt lat="45.94626" lon="4.71436">
        <ele>181</ele>
        <time>2016-11-08T11:40:16Z</time>
      </trkpt>
      <trkpt lat="45.94621" lon="4.71436">
        <ele>182</ele>
        <time>2016-11-08T11:40:17Z</time>
      </trkpt>
      <trkpt lat="45.94615" lon="4.71436">
        <ele>182</ele>
        <time>2016-11-08T11:40:18Z</time>
      </trkpt>
      <trkpt lat="45.9461" lon="4.71435">
        <ele>182</ele>
        <time>2016-11-08T11:40:19Z</time>
      </trkpt>
      <trkpt lat="45.94605" lon="4.71434">
        <ele>182</ele>
        <time>2016-11-08T11:40:20Z</time>
      </trkpt>
      <trkpt lat="45.94599" lon="4.71434">
        <ele>182</ele>
        <time>2016-11-08T11:40:21Z</time>
      </trkpt>
      <trkpt lat="45.94592" lon="4.71433">
        <ele>183</ele>
        <time>2016-11-08T11:40:22Z</time>
      </trkpt>
      <trkpt lat="45.94586" lon="4.71432">
        <ele>183</ele>
        <time>2016-11-08T11:40:23Z</time>
      </trkpt>
      <trkpt lat="45.9458" lon="4.71432">
        <ele>183</ele>
        <time>2016-11-08T11:40:24Z</time>
      </trkpt>
      <trkpt lat="45.94573" lon="4.71432">
        <ele>182</ele>
        <time>2016-11-08T11:40:25Z</time>
      </trkpt>
      <trkpt lat="45.94567" lon="4.71433">
        <ele>182</ele>
        <time>2016-11-08T11:40:26Z</time>
      </trkpt>
      <trkpt lat="45.9456" lon="4.71434">
        <ele>181</ele>
        <time>2016-11-08T11:40:27Z</time>
      </trkpt>
      <trkpt lat="45.94553" lon="4.71436">
        <ele>181</ele>
        <time>2016-11-08T11:40:28Z</time>
      </trkpt>
      <trkpt lat="45.94547" lon="4.71438">
        <ele>181</ele>
        <time>2016-11-08T11:40:29Z</time>
      </trkpt>
      <trkpt lat="45.9454" lon="4.7144">
        <ele>181</ele>
        <time>2016-11-08T11:40:30Z</time>
      </trkpt>
      <trkpt lat="45.94533" lon="4.71442">
        <ele>181</ele>
        <time>2016-11-08T11:40:31Z</time>
      </trkpt>
      <trkpt lat="45.94527" lon="4.71445">
        <ele>180</ele>
        <time>2016-11-08T11:40:32Z</time>
      </trkpt>
      <trkpt lat="45.9452" lon="4.71448">
        <ele>180</ele>
        <time>2016-11-08T11:40:33Z</time>
      </trkpt>
      <trkpt lat="45.94512" lon="4.71451">
        <ele>180</ele>
        <time>2016-11-08T11:40:34Z</time>
      </trkpt>
      <trkpt lat="45.94505" lon="4.71454">
        <ele>180</ele>
        <time>2016-11-08T11:40:35Z</time>
      </trkpt>
      <trkpt lat="45.94498" lon="4.71457">
        <ele>179</ele>
        <time>2016-11-08T11:40:36Z</time>
      </trkpt>
      <trkpt lat="45.94491" lon="4.7146">
        <ele>179</ele>
        <time>2016-11-08T11:40:37Z</time>
      </trkpt>
      <trkpt lat="45.94485" lon="4.71462">
        <ele>179</ele>
        <time>2016-11-08T11:40:38Z</time>
      </trkpt>
      <trkpt lat="45.94477" lon="4.71465">
        <ele>179</ele>
        <time>2016-11-08T11:40:39Z</time>
      </trkpt>
      <trkpt lat="45.9447" lon="4.71468">
        <ele>179</ele>
        <time>2016-11-08T11:40:40Z</time>
      </trkpt>
      <trkpt lat="45.94463" lon="4.71471">
        <ele>179</ele>
        <time>2016-11-08T11:40:41Z</time>
      </trkpt>
      <trkpt lat="45.94456" lon="4.71474">
        <ele>179</ele>
        <time>2016-11-08T11:40:42Z</time>
      </trkpt>
      <trkpt lat="45.94449" lon="4.71477">
        <ele>179</ele>
        <time>2016-11-08T11:40:43Z</time>
      </trkpt>
      <trkpt lat="45.94442" lon="4.71479">
        <ele>179</ele>
        <time>2016-11-08T11:40:44Z</time>
      </trkpt>
      <trkpt lat="45.94435" lon="4.71481">
        <ele>179</ele>
        <time>2016-11-08T11:40:45Z</time>
      </trkpt>
      <trkpt lat="45.94428" lon="4.71483">
        <ele>178</ele>
        <time>2016-11-08T11:40:46Z</time>
      </trkpt>
      <trkpt lat="45.94422" lon="4.71485">
        <ele>178</ele>
        <time>2016-11-08T11:40:47Z</time>
      </trkpt>
      <trkpt lat="45.94415" lon="4.71489">
        <ele>178</ele>
        <time>2016-11-08T11:40:48Z</time>
      </trkpt>
      <trkpt lat="45.94408" lon="4.71492">
        <ele>178</ele>
        <time>2016-11-08T11:40:49Z</time>
      </trkpt>
      <trkpt lat="45.94402" lon="4.71494">
        <ele>178</ele>
        <time>2016-11-08T11:40:50Z</time>
      </trkpt>
      <trkpt lat="45.94393" lon="4.71499">
        <ele>177</ele>
        <time>2016-11-08T11:40:51Z</time>
      </trkpt>
      <trkpt lat="45.94387" lon="4.71502">
        <ele>177</ele>
        <time>2016-11-08T11:40:52Z</time>
      </trkpt>
      <trkpt lat="45.94366" lon="4.71512">
        <ele>176</ele>
        <time>2016-11-08T11:40:55Z</time>
      </trkpt>
      <trkpt lat="45.94359" lon="4.71515">
        <ele>176</ele>
        <time>2016-11-08T11:40:56Z</time>
      </trkpt>
      <trkpt lat="45.94351" lon="4.71519">
        <ele>176</ele>
        <time>2016-11-08T11:40:57Z</time>
      </trkpt>
      <trkpt lat="45.94344" lon="4.71521">
        <ele>176</ele>
        <time>2016-11-08T11:40:58Z</time>
      </trkpt>
      <trkpt lat="45.94336" lon="4.71524">
        <ele>176</ele>
        <time>2016-11-08T11:40:59Z</time>
      </trkpt>
      <trkpt lat="45.9433" lon="4.71526">
        <ele>176</ele>
        <time>2016-11-08T11:41:00Z</time>
      </trkpt>
      <trkpt lat="45.94322" lon="4.7153">
        <ele>176</ele>
        <time>2016-11-08T11:41:01Z</time>
      </trkpt>
      <trkpt lat="45.94315" lon="4.71533">
        <ele>175</ele>
        <time>2016-11-08T11:41:02Z</time>
      </trkpt>
      <trkpt lat="45.94308" lon="4.71537">
        <ele>175</ele>
        <time>2016-11-08T11:41:03Z</time>
      </trkpt>
      <trkpt lat="45.943" lon="4.7154">
        <ele>175</ele>
        <time>2016-11-08T11:41:04Z</time>
      </trkpt>
      <trkpt lat="45.94292" lon="4.71543">
        <ele>175</ele>
        <time>2016-11-08T11:41:05Z</time>
      </trkpt>
      <trkpt lat="45.94285" lon="4.71545">
        <ele>175</ele>
        <time>2016-11-08T11:41:06Z</time>
      </trkpt>
      <trkpt lat="45.94278" lon="4.71549">
        <ele>175</ele>
        <time>2016-11-08T11:41:07Z</time>
      </trkpt>
      <trkpt lat="45.94272" lon="4.71552">
        <ele>175</ele>
        <time>2016-11-08T11:41:08Z</time>
      </trkpt>
      <trkpt lat="45.94265" lon="4.71555">
        <ele>175</ele>
        <time>2016-11-08T11:41:09Z</time>
      </trkpt>
      <trkpt lat="45.94258" lon="4.71557">
        <ele>175</ele>
        <time>2016-11-08T11:41:10Z</time>
      </trkpt>
      <trkpt lat="45.9425" lon="4.7156">
        <ele>175</ele>
        <time>2016-11-08T11:41:11Z</time>
      </trkpt>
      <trkpt lat="45.94244" lon="4.71562">
        <ele>174</ele>
        <time>2016-11-08T11:41:12Z</time>
      </trkpt>
      <trkpt lat="45.94237" lon="4.71564">
        <ele>174</ele>
        <time>2016-11-08T11:41:13Z</time>
      </trkpt>
      <trkpt lat="45.94231" lon="4.71567">
        <ele>174</ele>
        <time>2016-11-08T11:41:14Z</time>
      </trkpt>
      <trkpt lat="45.94225" lon="4.71569">
        <ele>174</ele>
        <time>2016-11-08T11:41:15Z</time>
      </trkpt>
      <trkpt lat="45.94218" lon="4.71572">
        <ele>174</ele>
        <time>2016-11-08T11:41:16Z</time>
      </trkpt>
      <trkpt lat="45.94212" lon="4.71575">
        <ele>174</ele>
        <time>2016-11-08T11:41:17Z</time>
      </trkpt>
      <trkpt lat="45.94207" lon="4.71578">
        <ele>174</ele>
        <time>2016-11-08T11:41:18Z</time>
      </trkpt>
      <trkpt lat="45.94201" lon="4.71581">
        <ele>174</ele>
        <time>2016-11-08T11:41:19Z</time>
      </trkpt>
      <trkpt lat="45.94195" lon="4.71583">
        <ele>174</ele>
        <time>2016-11-08T11:41:20Z</time>
      </trkpt>
      <trkpt lat="45.94189" lon="4.71586">
        <ele>173</ele>
        <time>2016-11-08T11:41:21Z</time>
      </trkpt>
      <trkpt lat="45.94184" lon="4.71587">
        <ele>173</ele>
        <time>2016-11-08T11:41:22Z</time>
      </trkpt>
      <trkpt lat="45.94178" lon="4.71589">
        <ele>173</ele>
        <time>2016-11-08T11:41:23Z</time>
      </trkpt>
      <trkpt lat="45.94173" lon="4.71592">
        <ele>174</ele>
        <time>2016-11-08T11:41:24Z</time>
      </trkpt>
      <trkpt lat="45.94168" lon="4.71594">
        <ele>174</ele>
        <time>2016-11-08T11:41:25Z</time>
      </trkpt>
      <trkpt lat="45.94162" lon="4.71596">
        <ele>173</ele>
        <time>2016-11-08T11:41:26Z</time>
      </trkpt>
      <trkpt lat="45.94157" lon="4.71598">
        <ele>173</ele>
        <time>2016-11-08T11:41:27Z</time>
      </trkpt>
      <trkpt lat="45.94151" lon="4.716">
        <ele>173</ele>
        <time>2016-11-08T11:41:28Z</time>
      </trkpt>
      <trkpt lat="45.94146" lon="4.71603">
        <ele>173</ele>
        <time>2016-11-08T11:41:29Z</time>
      </trkpt>
      <trkpt lat="45.9414" lon="4.71605">
        <ele>173</ele>
        <time>2016-11-08T11:41:30Z</time>
      </trkpt>
      <trkpt lat="45.94134" lon="4.71608">
        <ele>173</ele>
        <time>2016-11-08T11:41:31Z</time>
      </trkpt>
      <trkpt lat="45.94127" lon="4.7161">
        <ele>173</ele>
        <time>2016-11-08T11:41:32Z</time>
      </trkpt>
      <trkpt lat="45.94121" lon="4.71612">
        <ele>173</ele>
        <time>2016-11-08T11:41:33Z</time>
      </trkpt>
      <trkpt lat="45.94114" lon="4.71614">
        <ele>173</ele>
        <time>2016-11-08T11:41:34Z</time>
      </trkpt>
      <trkpt lat="45.94107" lon="4.71617">
        <ele>173</ele>
        <time>2016-11-08T11:41:35Z</time>
      </trkpt>
      <trkpt lat="45.94101" lon="4.71619">
        <ele>173</ele>
        <time>2016-11-08T11:41:36Z</time>
      </trkpt>
      <trkpt lat="45.94094" lon="4.71621">
        <ele>173</ele>
        <time>2016-11-08T11:41:37Z</time>
      </trkpt>
      <trkpt lat="45.94088" lon="4.71623">
        <ele>173</ele>
        <time>2016-11-08T11:41:38Z</time>
      </trkpt>
      <trkpt lat="45.94083" lon="4.71625">
        <ele>174</ele>
        <time>2016-11-08T11:41:39Z</time>
      </trkpt>
      <trkpt lat="45.94077" lon="4.71628">
        <ele>174</ele>
        <time>2016-11-08T11:41:40Z</time>
      </trkpt>
      <trkpt lat="45.94072" lon="4.7163">
        <ele>174</ele>
        <time>2016-11-08T11:41:41Z</time>
      </trkpt>
      <trkpt lat="45.94066" lon="4.71632">
        <ele>174</ele>
        <time>2016-11-08T11:41:42Z</time>
      </trkpt>
      <trkpt lat="45.94061" lon="4.71633">
        <ele>174</ele>
        <time>2016-11-08T11:41:43Z</time>
      </trkpt>
      <trkpt lat="45.94055" lon="4.71635">
        <ele>174</ele>
        <time>2016-11-08T11:41:44Z</time>
      </trkpt>
      <trkpt lat="45.94049" lon="4.71637">
        <ele>175</ele>
        <time>2016-11-08T11:41:45Z</time>
      </trkpt>
      <trkpt lat="45.94043" lon="4.7164">
        <ele>175</ele>
        <time>2016-11-08T11:41:46Z</time>
      </trkpt>
      <trkpt lat="45.94037" lon="4.71643">
        <ele>175</ele>
        <time>2016-11-08T11:41:47Z</time>
      </trkpt>
      <trkpt lat="45.94031" lon="4.71646">
        <ele>175</ele>
        <time>2016-11-08T11:41:48Z</time>
      </trkpt>
      <trkpt lat="45.94026" lon="4.71648">
        <ele>175</ele>
        <time>2016-11-08T11:41:49Z</time>
      </trkpt>
      <trkpt lat="45.94022" lon="4.7165">
        <ele>175</ele>
        <time>2016-11-08T11:41:50Z</time>
      </trkpt>
      <trkpt lat="45.94017" lon="4.71653">
        <ele>176</ele>
        <time>2016-11-08T11:41:51Z</time>
      </trkpt>
      <trkpt lat="45.94012" lon="4.71658">
        <ele>176</ele>
        <time>2016-11-08T11:41:53Z</time>
      </trkpt>
      <trkpt lat="45.94009" lon="4.7166">
        <ele>176</ele>
        <time>2016-11-08T11:41:54Z</time>
      </trkpt>
      <trkpt lat="45.94004" lon="4.71661">
        <ele>176</ele>
        <time>2016-11-08T11:41:55Z</time>
      </trkpt>
      <trkpt lat="45.93998" lon="4.71661">
        <ele>177</ele>
        <time>2016-11-08T11:41:56Z</time>
      </trkpt>
      <trkpt lat="45.93994" lon="4.71662">
        <ele>177</ele>
        <time>2016-11-08T11:41:57Z</time>
      </trkpt>
      <trkpt lat="45.93989" lon="4.71662">
        <ele>177</ele>
        <time>2016-11-08T11:41:58Z</time>
      </trkpt>
      <trkpt lat="45.93983" lon="4.71663">
        <ele>177</ele>
        <time>2016-11-08T11:41:59Z</time>
      </trkpt>
      <trkpt lat="45.93979" lon="4.71665">
        <ele>177</ele>
        <time>2016-11-08T11:42:00Z</time>
      </trkpt>
      <trkpt lat="45.93973" lon="4.71667">
        <ele>177</ele>
        <time>2016-11-08T11:42:01Z</time>
      </trkpt>
      <trkpt lat="45.93968" lon="4.7167">
        <ele>175</ele>
        <time>2016-11-08T11:42:02Z</time>
      </trkpt>
      <trkpt lat="45.93963" lon="4.71671">
        <ele>175</ele>
        <time>2016-11-08T11:42:03Z</time>
      </trkpt>
      <trkpt lat="45.93956" lon="4.71673">
        <ele>175</ele>
        <time>2016-11-08T11:42:04Z</time>
      </trkpt>
      <trkpt lat="45.9395" lon="4.71674">
        <ele>175</ele>
        <time>2016-11-08T11:42:05Z</time>
      </trkpt>
      <trkpt lat="45.93931" lon="4.71682">
        <ele>175</ele>
        <time>2016-11-08T11:42:08Z</time>
      </trkpt>
      <trkpt lat="45.93925" lon="4.71685">
        <ele>175</ele>
        <time>2016-11-08T11:42:09Z</time>
      </trkpt>
      <trkpt lat="45.9392" lon="4.71687">
        <ele>175</ele>
        <time>2016-11-08T11:42:10Z</time>
      </trkpt>
      <trkpt lat="45.93914" lon="4.7169">
        <ele>174</ele>
        <time>2016-11-08T11:42:11Z</time>
      </trkpt>
      <trkpt lat="45.93908" lon="4.71692">
        <ele>174</ele>
        <time>2016-11-08T11:42:12Z</time>
      </trkpt>
      <trkpt lat="45.93902" lon="4.71693">
        <ele>174</ele>
        <time>2016-11-08T11:42:13Z</time>
      </trkpt>
      <trkpt lat="45.93896" lon="4.71696">
        <ele>174</ele>
        <time>2016-11-08T11:42:14Z</time>
      </trkpt>
      <trkpt lat="45.9389" lon="4.71698">
        <ele>174</ele>
        <time>2016-11-08T11:42:15Z</time>
      </trkpt>
      <trkpt lat="45.93883" lon="4.71701">
        <ele>174</ele>
        <time>2016-11-08T11:42:16Z</time>
      </trkpt>
      <trkpt lat="45.93877" lon="4.71703">
        <ele>174</ele>
        <time>2016-11-08T11:42:17Z</time>
      </trkpt>
      <trkpt lat="45.9387" lon="4.71705">
        <ele>174</ele>
        <time>2016-11-08T11:42:18Z</time>
      </trkpt>
      <trkpt lat="45.93863" lon="4.71708">
        <ele>174</ele>
        <time>2016-11-08T11:42:19Z</time>
      </trkpt>
      <trkpt lat="45.93857" lon="4.7171">
        <ele>174</ele>
        <time>2016-11-08T11:42:20Z</time>
      </trkpt>
      <trkpt lat="45.93851" lon="4.71713">
        <ele>174</ele>
        <time>2016-11-08T11:42:21Z</time>
      </trkpt>
      <trkpt lat="45.93845" lon="4.71715">
        <ele>174</ele>
        <time>2016-11-08T11:42:22Z</time>
      </trkpt>
      <trkpt lat="45.93839" lon="4.71718">
        <ele>175</ele>
        <time>2016-11-08T11:42:23Z</time>
      </trkpt>
      <trkpt lat="45.93833" lon="4.7172">
        <ele>175</ele>
        <time>2016-11-08T11:42:24Z</time>
      </trkpt>
      <trkpt lat="45.93827" lon="4.71723">
        <ele>175</ele>
        <time>2016-11-08T11:42:25Z</time>
      </trkpt>
      <trkpt lat="45.93821" lon="4.71725">
        <ele>175</ele>
        <time>2016-11-08T11:42:26Z</time>
      </trkpt>
      <trkpt lat="45.93815" lon="4.71729">
        <ele>175</ele>
        <time>2016-11-08T11:42:27Z</time>
      </trkpt>
      <trkpt lat="45.93809" lon="4.71731">
        <ele>175</ele>
        <time>2016-11-08T11:42:28Z</time>
      </trkpt>
      <trkpt lat="45.93804" lon="4.71734">
        <ele>175</ele>
        <time>2016-11-08T11:42:29Z</time>
      </trkpt>
      <trkpt lat="45.93799" lon="4.71736">
        <ele>175</ele>
        <time>2016-11-08T11:42:30Z</time>
      </trkpt>
      <trkpt lat="45.93793" lon="4.71738">
        <ele>175</ele>
        <time>2016-11-08T11:42:31Z</time>
      </trkpt>
      <trkpt lat="45.93788" lon="4.71741">
        <ele>175</ele>
        <time>2016-11-08T11:42:32Z</time>
      </trkpt>
      <trkpt lat="45.93783" lon="4.71744">
        <ele>175</ele>
        <time>2016-11-08T11:42:33Z</time>
      </trkpt>
      <trkpt lat="45.93778" lon="4.71746">
        <ele>175</ele>
        <time>2016-11-08T11:42:34Z</time>
      </trkpt>
      <trkpt lat="45.93773" lon="4.71748">
        <ele>175</ele>
        <time>2016-11-08T11:42:35Z</time>
      </trkpt>
      <trkpt lat="45.93767" lon="4.71751">
        <ele>175</ele>
        <time>2016-11-08T11:42:36Z</time>
      </trkpt>
      <trkpt lat="45.93761" lon="4.71753">
        <ele>175</ele>
        <time>2016-11-08T11:42:37Z</time>
      </trkpt>
      <trkpt lat="45.93755" lon="4.71755">
        <ele>175</ele>
        <time>2016-11-08T11:42:38Z</time>
      </trkpt>
      <trkpt lat="45.93749" lon="4.71757">
        <ele>175</ele>
        <time>2016-11-08T11:42:39Z</time>
      </trkpt>
      <trkpt lat="45.93744" lon="4.71759">
        <ele>175</ele>
        <time>2016-11-08T11:42:40Z</time>
      </trkpt>
      <trkpt lat="45.93739" lon="4.71761">
        <ele>176</ele>
        <time>2016-11-08T11:42:41Z</time>
      </trkpt>
      <trkpt lat="45.93734" lon="4.71763">
        <ele>176</ele>
        <time>2016-11-08T11:42:42Z</time>
      </trkpt>
      <trkpt lat="45.93726" lon="4.71767">
        <ele>176</ele>
        <time>2016-11-08T11:42:44Z</time>
      </trkpt>
      <trkpt lat="45.93724" lon="4.7177">
        <ele>176</ele>
        <time>2016-11-08T11:42:45Z</time>
      </trkpt>
      <trkpt lat="45.93719" lon="4.71775">
        <ele>176</ele>
        <time>2016-11-08T11:42:47Z</time>
      </trkpt>
      <trkpt lat="45.93716" lon="4.71779">
        <ele>176</ele>
        <time>2016-11-08T11:42:48Z</time>
      </trkpt>
      <trkpt lat="45.93714" lon="4.71785">
        <ele>176</ele>
        <time>2016-11-08T11:42:49Z</time>
      </trkpt>
      <trkpt lat="45.93711" lon="4.71791">
        <ele>176</ele>
        <time>2016-11-08T11:42:50Z</time>
      </trkpt>
      <trkpt lat="45.93709" lon="4.71797">
        <ele>176</ele>
        <time>2016-11-08T11:42:51Z</time>
      </trkpt>
      <trkpt lat="45.93707" lon="4.71804">
        <ele>176</ele>
        <time>2016-11-08T11:42:52Z</time>
      </trkpt>
      <trkpt lat="45.93705" lon="4.71811">
        <ele>176</ele>
        <time>2016-11-08T11:42:53Z</time>
      </trkpt>
      <trkpt lat="45.93703" lon="4.71818">
        <ele>176</ele>
        <time>2016-11-08T11:42:54Z</time>
      </trkpt>
      <trkpt lat="45.93701" lon="4.71825">
        <ele>176</ele>
        <time>2016-11-08T11:42:55Z</time>
      </trkpt>
      <trkpt lat="45.93698" lon="4.71831">
        <ele>176</ele>
        <time>2016-11-08T11:42:56Z</time>
      </trkpt>
      <trkpt lat="45.93694" lon="4.71838">
        <ele>175</ele>
        <time>2016-11-08T11:42:57Z</time>
      </trkpt>
      <trkpt lat="45.93691" lon="4.71846">
        <ele>175</ele>
        <time>2016-11-08T11:42:58Z</time>
      </trkpt>
      <trkpt lat="45.93689" lon="4.71853">
        <ele>175</ele>
        <time>2016-11-08T11:42:59Z</time>
      </trkpt>
      <trkpt lat="45.93687" lon="4.71859">
        <ele>175</ele>
        <time>2016-11-08T11:43:00Z</time>
      </trkpt>
      <trkpt lat="45.93685" lon="4.71866">
        <ele>175</ele>
        <time>2016-11-08T11:43:01Z</time>
      </trkpt>
      <trkpt lat="45.93683" lon="4.71874">
        <ele>175</ele>
        <time>2016-11-08T11:43:02Z</time>
      </trkpt>
      <trkpt lat="45.9368" lon="4.71882">
        <ele>175</ele>
        <time>2016-11-08T11:43:03Z</time>
      </trkpt>
      <trkpt lat="45.93677" lon="4.7189">
        <ele>175</ele>
        <time>2016-11-08T11:43:04Z</time>
      </trkpt>
      <trkpt lat="45.93673" lon="4.71899">
        <ele>175</ele>
        <time>2016-11-08T11:43:05Z</time>
      </trkpt>
      <trkpt lat="45.93669" lon="4.71908">
        <ele>175</ele>
        <time>2016-11-08T11:43:06Z</time>
      </trkpt>
      <trkpt lat="45.93666" lon="4.71917">
        <ele>175</ele>
        <time>2016-11-08T11:43:07Z</time>
      </trkpt>
      <trkpt lat="45.93662" lon="4.71925">
        <ele>175</ele>
        <time>2016-11-08T11:43:08Z</time>
      </trkpt>
      <trkpt lat="45.93659" lon="4.71933">
        <ele>175</ele>
        <time>2016-11-08T11:43:09Z</time>
      </trkpt>
      <trkpt lat="45.93656" lon="4.71941">
        <ele>175</ele>
        <time>2016-11-08T11:43:10Z</time>
      </trkpt>
      <trkpt lat="45.93653" lon="4.7195">
        <ele>175</ele>
        <time>2016-11-08T11:43:11Z</time>
      </trkpt>
      <trkpt lat="45.9365" lon="4.71958">
        <ele>175</ele>
        <time>2016-11-08T11:43:12Z</time>
      </trkpt>
      <trkpt lat="45.93647" lon="4.71966">
        <ele>175</ele>
        <time>2016-11-08T11:43:13Z</time>
      </trkpt>
      <trkpt lat="45.93644" lon="4.71974">
        <ele>175</ele>
        <time>2016-11-08T11:43:14Z</time>
      </trkpt>
      <trkpt lat="45.93641" lon="4.71982">
        <ele>175</ele>
        <time>2016-11-08T11:43:15Z</time>
      </trkpt>
      <trkpt lat="45.93638" lon="4.7199">
        <ele>175</ele>
        <time>2016-11-08T11:43:16Z</time>
      </trkpt>
      <trkpt lat="45.93636" lon="4.71997">
        <ele>175</ele>
        <time>2016-11-08T11:43:17Z</time>
      </trkpt>
      <trkpt lat="45.93633" lon="4.72005">
        <ele>174</ele>
        <time>2016-11-08T11:43:18Z</time>
      </trkpt>
      <trkpt lat="45.9363" lon="4.72012">
        <ele>174</ele>
        <time>2016-11-08T11:43:19Z</time>
      </trkpt>
      <trkpt lat="45.93627" lon="4.7202">
        <ele>175</ele>
        <time>2016-11-08T11:43:20Z</time>
      </trkpt>
      <trkpt lat="45.93624" lon="4.72028">
        <ele>175</ele>
        <time>2016-11-08T11:43:21Z</time>
      </trkpt>
      <trkpt lat="45.93622" lon="4.72036">
        <ele>175</ele>
        <time>2016-11-08T11:43:22Z</time>
      </trkpt>
      <trkpt lat="45.93619" lon="4.72045">
        <ele>175</ele>
        <time>2016-11-08T11:43:23Z</time>
      </trkpt>
      <trkpt lat="45.93616" lon="4.72053">
        <ele>175</ele>
        <time>2016-11-08T11:43:24Z</time>
      </trkpt>
      <trkpt lat="45.93613" lon="4.72061">
        <ele>175</ele>
        <time>2016-11-08T11:43:25Z</time>
      </trkpt>
      <trkpt lat="45.9361" lon="4.72068">
        <ele>175</ele>
        <time>2016-11-08T11:43:26Z</time>
      </trkpt>
      <trkpt lat="45.93606" lon="4.72075">
        <ele>175</ele>
        <time>2016-11-08T11:43:27Z</time>
      </trkpt>
      <trkpt lat="45.93603" lon="4.72083">
        <ele>175</ele>
        <time>2016-11-08T11:43:28Z</time>
      </trkpt>
      <trkpt lat="45.936" lon="4.7209">
        <ele>175</ele>
        <time>2016-11-08T11:43:29Z</time>
      </trkpt>
      <trkpt lat="45.93596" lon="4.72097">
        <ele>175</ele>
        <time>2016-11-08T11:43:30Z</time>
      </trkpt>
      <trkpt lat="45.93592" lon="4.72104">
        <ele>174</ele>
        <time>2016-11-08T11:43:31Z</time>
      </trkpt>
      <trkpt lat="45.93588" lon="4.72112">
        <ele>174</ele>
        <time>2016-11-08T11:43:32Z</time>
      </trkpt>
      <trkpt lat="45.93585" lon="4.72121">
        <ele>174</ele>
        <time>2016-11-08T11:43:33Z</time>
      </trkpt>
      <trkpt lat="45.93581" lon="4.72129">
        <ele>174</ele>
        <time>2016-11-08T11:43:34Z</time>
      </trkpt>
      <trkpt lat="45.93578" lon="4.72137">
        <ele>174</ele>
        <time>2016-11-08T11:43:35Z</time>
      </trkpt>
      <trkpt lat="45.93575" lon="4.72145">
        <ele>174</ele>
        <time>2016-11-08T11:43:36Z</time>
      </trkpt>
      <trkpt lat="45.93572" lon="4.72153">
        <ele>174</ele>
        <time>2016-11-08T11:43:37Z</time>
      </trkpt>
      <trkpt lat="45.93569" lon="4.72161">
        <ele>174</ele>
        <time>2016-11-08T11:43:38Z</time>
      </trkpt>
      <trkpt lat="45.93567" lon="4.72169">
        <ele>173</ele>
        <time>2016-11-08T11:43:39Z</time>
      </trkpt>
      <trkpt lat="45.93564" lon="4.72176">
        <ele>173</ele>
        <time>2016-11-08T11:43:40Z</time>
      </trkpt>
      <trkpt lat="45.93561" lon="4.72183">
        <ele>173</ele>
        <time>2016-11-08T11:43:41Z</time>
      </trkpt>
      <trkpt lat="45.93558" lon="4.7219">
        <ele>173</ele>
        <time>2016-11-08T11:43:42Z</time>
      </trkpt>
      <trkpt lat="45.93554" lon="4.72197">
        <ele>173</ele>
        <time>2016-11-08T11:43:43Z</time>
      </trkpt>
      <trkpt lat="45.93551" lon="4.72204">
        <ele>173</ele>
        <time>2016-11-08T11:43:44Z</time>
      </trkpt>
      <trkpt lat="45.93547" lon="4.72212">
        <ele>173</ele>
        <time>2016-11-08T11:43:45Z</time>
      </trkpt>
      <trkpt lat="45.93545" lon="4.72219">
        <ele>172</ele>
        <time>2016-11-08T11:43:46Z</time>
      </trkpt>
      <trkpt lat="45.93542" lon="4.72227">
        <ele>172</ele>
        <time>2016-11-08T11:43:47Z</time>
      </trkpt>
      <trkpt lat="45.93539" lon="4.72234">
        <ele>172</ele>
        <time>2016-11-08T11:43:48Z</time>
      </trkpt>
      <trkpt lat="45.93536" lon="4.72242">
        <ele>172</ele>
        <time>2016-11-08T11:43:49Z</time>
      </trkpt>
      <trkpt lat="45.93533" lon="4.7225">
        <ele>172</ele>
        <time>2016-11-08T11:43:50Z</time>
      </trkpt>
      <trkpt lat="45.93529" lon="4.72258">
        <ele>172</ele>
        <time>2016-11-08T11:43:51Z</time>
      </trkpt>
      <trkpt lat="45.93526" lon="4.72266">
        <ele>172</ele>
        <time>2016-11-08T11:43:52Z</time>
      </trkpt>
      <trkpt lat="45.93523" lon="4.72273">
        <ele>172</ele>
        <time>2016-11-08T11:43:53Z</time>
      </trkpt>
      <trkpt lat="45.93519" lon="4.72281">
        <ele>172</ele>
        <time>2016-11-08T11:43:54Z</time>
      </trkpt>
      <trkpt lat="45.93515" lon="4.72289">
        <ele>172</ele>
        <time>2016-11-08T11:43:55Z</time>
      </trkpt>
      <trkpt lat="45.93511" lon="4.72297">
        <ele>172</ele>
        <time>2016-11-08T11:43:56Z</time>
      </trkpt>
      <trkpt lat="45.93507" lon="4.72307">
        <ele>173</ele>
        <time>2016-11-08T11:43:57Z</time>
      </trkpt>
      <trkpt lat="45.93502" lon="4.72314">
        <ele>173</ele>
        <time>2016-11-08T11:43:58Z</time>
      </trkpt>
      <trkpt lat="45.93496" lon="4.72321">
        <ele>173</ele>
        <time>2016-11-08T11:43:59Z</time>
      </trkpt>
      <trkpt lat="45.93491" lon="4.72329">
        <ele>173</ele>
        <time>2016-11-08T11:44:00Z</time>
      </trkpt>
      <trkpt lat="45.93486" lon="4.72337">
        <ele>173</ele>
        <time>2016-11-08T11:44:01Z</time>
      </trkpt>
      <trkpt lat="45.93481" lon="4.72344">
        <ele>173</ele>
        <time>2016-11-08T11:44:02Z</time>
      </trkpt>
      <trkpt lat="45.93476" lon="4.72351">
        <ele>173</ele>
        <time>2016-11-08T11:44:03Z</time>
      </trkpt>
      <trkpt lat="45.93471" lon="4.72358">
        <ele>173</ele>
        <time>2016-11-08T11:44:04Z</time>
      </trkpt>
      <trkpt lat="45.93466" lon="4.72365">
        <ele>173</ele>
        <time>2016-11-08T11:44:05Z</time>
      </trkpt>
      <trkpt lat="45.93462" lon="4.72373">
        <ele>173</ele>
        <time>2016-11-08T11:44:06Z</time>
      </trkpt>
      <trkpt lat="45.93456" lon="4.7238">
        <ele>173</ele>
        <time>2016-11-08T11:44:07Z</time>
      </trkpt>
      <trkpt lat="45.93451" lon="4.72386">
        <ele>173</ele>
        <time>2016-11-08T11:44:08Z</time>
      </trkpt>
      <trkpt lat="45.93445" lon="4.72391">
        <ele>173</ele>
        <time>2016-11-08T11:44:09Z</time>
      </trkpt>
      <trkpt lat="45.9344" lon="4.72395">
        <ele>173</ele>
        <time>2016-11-08T11:44:10Z</time>
      </trkpt>
      <trkpt lat="45.93434" lon="4.72399">
        <ele>174</ele>
        <time>2016-11-08T11:44:11Z</time>
      </trkpt>
      <trkpt lat="45.93428" lon="4.72403">
        <ele>174</ele>
        <time>2016-11-08T11:44:12Z</time>
      </trkpt>
      <trkpt lat="45.93422" lon="4.72406">
        <ele>174</ele>
        <time>2016-11-08T11:44:13Z</time>
      </trkpt>
      <trkpt lat="45.93417" lon="4.72408">
        <ele>174</ele>
        <time>2016-11-08T11:44:14Z</time>
      </trkpt>
      <trkpt lat="45.93411" lon="4.72409">
        <ele>174</ele>
        <time>2016-11-08T11:44:15Z</time>
      </trkpt>
      <trkpt lat="45.93405" lon="4.7241">
        <ele>174</ele>
        <time>2016-11-08T11:44:16Z</time>
      </trkpt>
      <trkpt lat="45.934" lon="4.72409">
        <ele>174</ele>
        <time>2016-11-08T11:44:17Z</time>
      </trkpt>
      <trkpt lat="45.93395" lon="4.72409">
        <ele>174</ele>
        <time>2016-11-08T11:44:18Z</time>
      </trkpt>
      <trkpt lat="45.9339" lon="4.72409">
        <ele>174</ele>
        <time>2016-11-08T11:44:19Z</time>
      </trkpt>
      <trkpt lat="45.93385" lon="4.72412">
        <ele>174</ele>
        <time>2016-11-08T11:44:20Z</time>
      </trkpt>
      <trkpt lat="45.93382" lon="4.72416">
        <ele>174</ele>
        <time>2016-11-08T11:44:21Z</time>
      </trkpt>
      <trkpt lat="45.93381" lon="4.72423">
        <ele>173</ele>
        <time>2016-11-08T11:44:22Z</time>
      </trkpt>
      <trkpt lat="45.93383" lon="4.72431">
        <ele>173</ele>
        <time>2016-11-08T11:44:23Z</time>
      </trkpt>
      <trkpt lat="45.93385" lon="4.72437">
        <ele>173</ele>
        <time>2016-11-08T11:44:24Z</time>
      </trkpt>
      <trkpt lat="45.93387" lon="4.72444">
        <ele>173</ele>
        <time>2016-11-08T11:44:25Z</time>
      </trkpt>
      <trkpt lat="45.93389" lon="4.72452">
        <ele>173</ele>
        <time>2016-11-08T11:44:26Z</time>
      </trkpt>
      <trkpt lat="45.9339" lon="4.72459">
        <ele>173</ele>
        <time>2016-11-08T11:44:27Z</time>
      </trkpt>
      <trkpt lat="45.93386" lon="4.72466">
        <ele>173</ele>
        <time>2016-11-08T11:44:28Z</time>
      </trkpt>
      <trkpt lat="45.93383" lon="4.72472">
        <ele>173</ele>
        <time>2016-11-08T11:44:29Z</time>
      </trkpt>
      <trkpt lat="45.93378" lon="4.72478">
        <ele>173</ele>
        <time>2016-11-08T11:44:30Z</time>
      </trkpt>
      <trkpt lat="45.93373" lon="4.72483">
        <ele>173</ele>
        <time>2016-11-08T11:44:31Z</time>
      </trkpt>
      <trkpt lat="45.93368" lon="4.72488">
        <ele>173</ele>
        <time>2016-11-08T11:44:32Z</time>
      </trkpt>
      <trkpt lat="45.93363" lon="4.72494">
        <ele>173</ele>
        <time>2016-11-08T11:44:33Z</time>
      </trkpt>
      <trkpt lat="45.93359" lon="4.72499">
        <ele>173</ele>
        <time>2016-11-08T11:44:34Z</time>
      </trkpt>
      <trkpt lat="45.93354" lon="4.72504">
        <ele>172</ele>
        <time>2016-11-08T11:44:35Z</time>
      </trkpt>
      <trkpt lat="45.93349" lon="4.72509">
        <ele>172</ele>
        <time>2016-11-08T11:44:36Z</time>
      </trkpt>
      <trkpt lat="45.93344" lon="4.72515">
        <ele>172</ele>
        <time>2016-11-08T11:44:37Z</time>
      </trkpt>
      <trkpt lat="45.93339" lon="4.72521">
        <ele>172</ele>
        <time>2016-11-08T11:44:38Z</time>
      </trkpt>
      <trkpt lat="45.93335" lon="4.72527">
        <ele>172</ele>
        <time>2016-11-08T11:44:39Z</time>
      </trkpt>
      <trkpt lat="45.9333" lon="4.72533">
        <ele>172</ele>
        <time>2016-11-08T11:44:40Z</time>
      </trkpt>
      <trkpt lat="45.93325" lon="4.72538">
        <ele>172</ele>
        <time>2016-11-08T11:44:41Z</time>
      </trkpt>
      <trkpt lat="45.9332" lon="4.72543">
        <ele>172</ele>
        <time>2016-11-08T11:44:42Z</time>
      </trkpt>
      <trkpt lat="45.93315" lon="4.72549">
        <ele>172</ele>
        <time>2016-11-08T11:44:43Z</time>
      </trkpt>
      <trkpt lat="45.93309" lon="4.72556">
        <ele>172</ele>
        <time>2016-11-08T11:44:44Z</time>
      </trkpt>
      <trkpt lat="45.93303" lon="4.72563">
        <ele>172</ele>
        <time>2016-11-08T11:44:45Z</time>
      </trkpt>
      <trkpt lat="45.93298" lon="4.72569">
        <ele>172</ele>
        <time>2016-11-08T11:44:46Z</time>
      </trkpt>
      <trkpt lat="45.93292" lon="4.72576">
        <ele>171</ele>
        <time>2016-11-08T11:44:47Z</time>
      </trkpt>
      <trkpt lat="45.93287" lon="4.72582">
        <ele>171</ele>
        <time>2016-11-08T11:44:48Z</time>
      </trkpt>
      <trkpt lat="45.93281" lon="4.72589">
        <ele>170</ele>
        <time>2016-11-08T11:44:49Z</time>
      </trkpt>
      <trkpt lat="45.93277" lon="4.72595">
        <ele>170</ele>
        <time>2016-11-08T11:44:50Z</time>
      </trkpt>
      <trkpt lat="45.93272" lon="4.72601">
        <ele>170</ele>
        <time>2016-11-08T11:44:51Z</time>
      </trkpt>
      <trkpt lat="45.93267" lon="4.72606">
        <ele>170</ele>
        <time>2016-11-08T11:44:52Z</time>
      </trkpt>
      <trkpt lat="45.93262" lon="4.72612">
        <ele>170</ele>
        <time>2016-11-08T11:44:53Z</time>
      </trkpt>
      <trkpt lat="45.93258" lon="4.72618">
        <ele>170</ele>
        <time>2016-11-08T11:44:54Z</time>
      </trkpt>
      <trkpt lat="45.93253" lon="4.72623">
        <ele>170</ele>
        <time>2016-11-08T11:44:55Z</time>
      </trkpt>
      <trkpt lat="45.93248" lon="4.72629">
        <ele>170</ele>
        <time>2016-11-08T11:44:56Z</time>
      </trkpt>
      <trkpt lat="45.93243" lon="4.72635">
        <ele>170</ele>
        <time>2016-11-08T11:44:57Z</time>
      </trkpt>
      <trkpt lat="45.93238" lon="4.7264">
        <ele>170</ele>
        <time>2016-11-08T11:44:58Z</time>
      </trkpt>
      <trkpt lat="45.93233" lon="4.72646">
        <ele>170</ele>
        <time>2016-11-08T11:44:59Z</time>
      </trkpt>
      <trkpt lat="45.93228" lon="4.72653">
        <ele>170</ele>
        <time>2016-11-08T11:45:00Z</time>
      </trkpt>
      <trkpt lat="45.93223" lon="4.72659">
        <ele>170</ele>
        <time>2016-11-08T11:45:01Z</time>
      </trkpt>
      <trkpt lat="45.93218" lon="4.72665">
        <ele>170</ele>
        <time>2016-11-08T11:45:02Z</time>
      </trkpt>
      <trkpt lat="45.93213" lon="4.7267">
        <ele>169</ele>
        <time>2016-11-08T11:45:03Z</time>
      </trkpt>
      <trkpt lat="45.93208" lon="4.72676">
        <ele>169</ele>
        <time>2016-11-08T11:45:04Z</time>
      </trkpt>
      <trkpt lat="45.93203" lon="4.72682">
        <ele>169</ele>
        <time>2016-11-08T11:45:05Z</time>
      </trkpt>
      <trkpt lat="45.93199" lon="4.72687">
        <ele>169</ele>
        <time>2016-11-08T11:45:06Z</time>
      </trkpt>
      <trkpt lat="45.93195" lon="4.72693">
        <ele>169</ele>
        <time>2016-11-08T11:45:07Z</time>
      </trkpt>
      <trkpt lat="45.93191" lon="4.72698">
        <ele>169</ele>
        <time>2016-11-08T11:45:08Z</time>
      </trkpt>
      <trkpt lat="45.93187" lon="4.72702">
        <ele>169</ele>
        <time>2016-11-08T11:45:09Z</time>
      </trkpt>
      <trkpt lat="45.93183" lon="4.72707">
        <ele>169</ele>
        <time>2016-11-08T11:45:10Z</time>
      </trkpt>
      <trkpt lat="45.93179" lon="4.72711">
        <ele>169</ele>
        <time>2016-11-08T11:45:11Z</time>
      </trkpt>
      <trkpt lat="45.93176" lon="4.72715">
        <ele>170</ele>
        <time>2016-11-08T11:45:12Z</time>
      </trkpt>
      <trkpt lat="45.93172" lon="4.72719">
        <ele>170</ele>
        <time>2016-11-08T11:45:13Z</time>
      </trkpt>
      <trkpt lat="45.93169" lon="4.72723">
        <ele>170</ele>
        <time>2016-11-08T11:45:14Z</time>
      </trkpt>
      <trkpt lat="45.93165" lon="4.72727">
        <ele>170</ele>
        <time>2016-11-08T11:45:15Z</time>
      </trkpt>
      <trkpt lat="45.93162" lon="4.72732">
        <ele>170</ele>
        <time>2016-11-08T11:45:16Z</time>
      </trkpt>
      <trkpt lat="45.93156" lon="4.72739">
        <ele>170</ele>
        <time>2016-11-08T11:45:18Z</time>
      </trkpt>
      <trkpt lat="45.93153" lon="4.72742">
        <ele>170</ele>
        <time>2016-11-08T11:45:19Z</time>
      </trkpt>
      <trkpt lat="45.93147" lon="4.72747">
        <ele>170</ele>
        <time>2016-11-08T11:45:21Z</time>
      </trkpt>
      <trkpt lat="45.93143" lon="4.72751">
        <ele>171</ele>
        <time>2016-11-08T11:45:22Z</time>
      </trkpt>
      <trkpt lat="45.93139" lon="4.72754">
        <ele>171</ele>
        <time>2016-11-08T11:45:23Z</time>
      </trkpt>
      <trkpt lat="45.93135" lon="4.72759">
        <ele>171</ele>
        <time>2016-11-08T11:45:24Z</time>
      </trkpt>
      <trkpt lat="45.93131" lon="4.72764">
        <ele>171</ele>
        <time>2016-11-08T11:45:25Z</time>
      </trkpt>
      <trkpt lat="45.93126" lon="4.72769">
        <ele>171</ele>
        <time>2016-11-08T11:45:26Z</time>
      </trkpt>
      <trkpt lat="45.93121" lon="4.72775">
        <ele>171</ele>
        <time>2016-11-08T11:45:27Z</time>
      </trkpt>
      <trkpt lat="45.93117" lon="4.72781">
        <ele>171</ele>
        <time>2016-11-08T11:45:28Z</time>
      </trkpt>
      <trkpt lat="45.93112" lon="4.72787">
        <ele>171</ele>
        <time>2016-11-08T11:45:29Z</time>
      </trkpt>
      <trkpt lat="45.93108" lon="4.72794">
        <ele>171</ele>
        <time>2016-11-08T11:45:30Z</time>
      </trkpt>
      <trkpt lat="45.93103" lon="4.72799">
        <ele>171</ele>
        <time>2016-11-08T11:45:31Z</time>
      </trkpt>
      <trkpt lat="45.93098" lon="4.72805">
        <ele>171</ele>
        <time>2016-11-08T11:45:32Z</time>
      </trkpt>
      <trkpt lat="45.93093" lon="4.72811">
        <ele>172</ele>
        <time>2016-11-08T11:45:33Z</time>
      </trkpt>
      <trkpt lat="45.93088" lon="4.72817">
        <ele>172</ele>
        <time>2016-11-08T11:45:34Z</time>
      </trkpt>
      <trkpt lat="45.93083" lon="4.72823">
        <ele>173</ele>
        <time>2016-11-08T11:45:35Z</time>
      </trkpt>
      <trkpt lat="45.93079" lon="4.72829">
        <ele>173</ele>
        <time>2016-11-08T11:45:36Z</time>
      </trkpt>
      <trkpt lat="45.93075" lon="4.72834">
        <ele>173</ele>
        <time>2016-11-08T11:45:37Z</time>
      </trkpt>
      <trkpt lat="45.93072" lon="4.7284">
        <ele>173</ele>
        <time>2016-11-08T11:45:38Z</time>
      </trkpt>
      <trkpt lat="45.93068" lon="4.72845">
        <ele>172</ele>
        <time>2016-11-08T11:45:39Z</time>
      </trkpt>
      <trkpt lat="45.93064" lon="4.72851">
        <ele>172</ele>
        <time>2016-11-08T11:45:40Z</time>
      </trkpt>
      <trkpt lat="45.93056" lon="4.72855">
        <ele>172</ele>
        <time>2016-11-08T11:45:41Z</time>
      </trkpt>
      <trkpt lat="45.93049" lon="4.72861">
        <ele>172</ele>
        <time>2016-11-08T11:45:42Z</time>
      </trkpt>
      <trkpt lat="45.93043" lon="4.72865">
        <ele>172</ele>
        <time>2016-11-08T11:45:43Z</time>
      </trkpt>
      <trkpt lat="45.93039" lon="4.72868">
        <ele>172</ele>
        <time>2016-11-08T11:45:44Z</time>
      </trkpt>
      <trkpt lat="45.93034" lon="4.72874">
        <ele>172</ele>
        <time>2016-11-08T11:45:45Z</time>
      </trkpt>
      <trkpt lat="45.9303" lon="4.7288">
        <ele>172</ele>
        <time>2016-11-08T11:45:46Z</time>
      </trkpt>
      <trkpt lat="45.93026" lon="4.72886">
        <ele>172</ele>
        <time>2016-11-08T11:45:47Z</time>
      </trkpt>
      <trkpt lat="45.93022" lon="4.72891">
        <ele>172</ele>
        <time>2016-11-08T11:45:48Z</time>
      </trkpt>
      <trkpt lat="45.93018" lon="4.72896">
        <ele>172</ele>
        <time>2016-11-08T11:45:49Z</time>
      </trkpt>
      <trkpt lat="45.93014" lon="4.72901">
        <ele>172</ele>
        <time>2016-11-08T11:45:50Z</time>
      </trkpt>
      <trkpt lat="45.9301" lon="4.72905">
        <ele>171</ele>
        <time>2016-11-08T11:45:51Z</time>
      </trkpt>
      <trkpt lat="45.93005" lon="4.72911">
        <ele>171</ele>
        <time>2016-11-08T11:45:52Z</time>
      </trkpt>
      <trkpt lat="45.93" lon="4.72916">
        <ele>171</ele>
        <time>2016-11-08T11:45:53Z</time>
      </trkpt>
      <trkpt lat="45.92996" lon="4.72921">
        <ele>171</ele>
        <time>2016-11-08T11:45:54Z</time>
      </trkpt>
      <trkpt lat="45.92991" lon="4.72927">
        <ele>171</ele>
        <time>2016-11-08T11:45:55Z</time>
      </trkpt>
      <trkpt lat="45.92986" lon="4.72933">
        <ele>171</ele>
        <time>2016-11-08T11:45:56Z</time>
      </trkpt>
      <trkpt lat="45.92981" lon="4.72939">
        <ele>171</ele>
        <time>2016-11-08T11:45:57Z</time>
      </trkpt>
      <trkpt lat="45.92976" lon="4.72945">
        <ele>171</ele>
        <time>2016-11-08T11:45:58Z</time>
      </trkpt>
      <trkpt lat="45.92971" lon="4.72951">
        <ele>171</ele>
        <time>2016-11-08T11:45:59Z</time>
      </trkpt>
      <trkpt lat="45.92966" lon="4.72957">
        <ele>171</ele>
        <time>2016-11-08T11:46:00Z</time>
      </trkpt>
      <trkpt lat="45.92962" lon="4.72963">
        <ele>171</ele>
        <time>2016-11-08T11:46:01Z</time>
      </trkpt>
      <trkpt lat="45.92957" lon="4.72969">
        <ele>171</ele>
        <time>2016-11-08T11:46:02Z</time>
      </trkpt>
      <trkpt lat="45.92952" lon="4.72975">
        <ele>171</ele>
        <time>2016-11-08T11:46:03Z</time>
      </trkpt>
      <trkpt lat="45.92947" lon="4.72981">
        <ele>171</ele>
        <time>2016-11-08T11:46:04Z</time>
      </trkpt>
      <trkpt lat="45.92942" lon="4.72987">
        <ele>171</ele>
        <time>2016-11-08T11:46:05Z</time>
      </trkpt>
      <trkpt lat="45.92937" lon="4.72994">
        <ele>171</ele>
        <time>2016-11-08T11:46:06Z</time>
      </trkpt>
      <trkpt lat="45.92931" lon="4.73">
        <ele>172</ele>
        <time>2016-11-08T11:46:07Z</time>
      </trkpt>
      <trkpt lat="45.92926" lon="4.73006">
        <ele>172</ele>
        <time>2016-11-08T11:46:08Z</time>
      </trkpt>
      <trkpt lat="45.92921" lon="4.73012">
        <ele>172</ele>
        <time>2016-11-08T11:46:09Z</time>
      </trkpt>
      <trkpt lat="45.92916" lon="4.73019">
        <ele>172</ele>
        <time>2016-11-08T11:46:10Z</time>
      </trkpt>
      <trkpt lat="45.92912" lon="4.73025">
        <ele>172</ele>
        <time>2016-11-08T11:46:11Z</time>
      </trkpt>
      <trkpt lat="45.92907" lon="4.73032">
        <ele>172</ele>
        <time>2016-11-08T11:46:12Z</time>
      </trkpt>
      <trkpt lat="45.92903" lon="4.73039">
        <ele>172</ele>
        <time>2016-11-08T11:46:13Z</time>
      </trkpt>
      <trkpt lat="45.92898" lon="4.73046">
        <ele>172</ele>
        <time>2016-11-08T11:46:14Z</time>
      </trkpt>
      <trkpt lat="45.92894" lon="4.73053">
        <ele>172</ele>
        <time>2016-11-08T11:46:15Z</time>
      </trkpt>
      <trkpt lat="45.92889" lon="4.7306">
        <ele>172</ele>
        <time>2016-11-08T11:46:16Z</time>
      </trkpt>
      <trkpt lat="45.92885" lon="4.73067">
        <ele>172</ele>
        <time>2016-11-08T11:46:17Z</time>
      </trkpt>
      <trkpt lat="45.92881" lon="4.73075">
        <ele>172</ele>
        <time>2016-11-08T11:46:18Z</time>
      </trkpt>
      <trkpt lat="45.92877" lon="4.73083">
        <ele>172</ele>
        <time>2016-11-08T11:46:19Z</time>
      </trkpt>
      <trkpt lat="45.92874" lon="4.73091">
        <ele>172</ele>
        <time>2016-11-08T11:46:20Z</time>
      </trkpt>
      <trkpt lat="45.92871" lon="4.731">
        <ele>172</ele>
        <time>2016-11-08T11:46:21Z</time>
      </trkpt>
      <trkpt lat="45.92868" lon="4.73109">
        <ele>172</ele>
        <time>2016-11-08T11:46:22Z</time>
      </trkpt>
      <trkpt lat="45.92866" lon="4.73118">
        <ele>171</ele>
        <time>2016-11-08T11:46:23Z</time>
      </trkpt>
      <trkpt lat="45.92864" lon="4.73126">
        <ele>171</ele>
        <time>2016-11-08T11:46:24Z</time>
      </trkpt>
      <trkpt lat="45.92863" lon="4.73136">
        <ele>171</ele>
        <time>2016-11-08T11:46:25Z</time>
      </trkpt>
      <trkpt lat="45.92861" lon="4.73145">
        <ele>171</ele>
        <time>2016-11-08T11:46:26Z</time>
      </trkpt>
      <trkpt lat="45.9286" lon="4.73155">
        <ele>171</ele>
        <time>2016-11-08T11:46:27Z</time>
      </trkpt>
      <trkpt lat="45.92859" lon="4.73164">
        <ele>171</ele>
        <time>2016-11-08T11:46:28Z</time>
      </trkpt>
      <trkpt lat="45.92859" lon="4.73174">
        <ele>171</ele>
        <time>2016-11-08T11:46:29Z</time>
      </trkpt>
      <trkpt lat="45.92858" lon="4.73184">
        <ele>171</ele>
        <time>2016-11-08T11:46:30Z</time>
      </trkpt>
      <trkpt lat="45.92857" lon="4.73193">
        <ele>171</ele>
        <time>2016-11-08T11:46:31Z</time>
      </trkpt>
      <trkpt lat="45.92856" lon="4.73203">
        <ele>171</ele>
        <time>2016-11-08T11:46:32Z</time>
      </trkpt>
      <trkpt lat="45.92855" lon="4.73213">
        <ele>171</ele>
        <time>2016-11-08T11:46:33Z</time>
      </trkpt>
      <trkpt lat="45.92854" lon="4.73223">
        <ele>171</ele>
        <time>2016-11-08T11:46:34Z</time>
      </trkpt>
      <trkpt lat="45.92853" lon="4.73232">
        <ele>171</ele>
        <time>2016-11-08T11:46:35Z</time>
      </trkpt>
      <trkpt lat="45.92852" lon="4.73242">
        <ele>171</ele>
        <time>2016-11-08T11:46:36Z</time>
      </trkpt>
      <trkpt lat="45.92851" lon="4.73252">
        <ele>171</ele>
        <time>2016-11-08T11:46:37Z</time>
      </trkpt>
      <trkpt lat="45.92849" lon="4.73261">
        <ele>171</ele>
        <time>2016-11-08T11:46:38Z</time>
      </trkpt>
      <trkpt lat="45.92848" lon="4.73271">
        <ele>171</ele>
        <time>2016-11-08T11:46:39Z</time>
      </trkpt>
      <trkpt lat="45.92847" lon="4.7328">
        <ele>171</ele>
        <time>2016-11-08T11:46:40Z</time>
      </trkpt>
      <trkpt lat="45.92846" lon="4.7329">
        <ele>171</ele>
        <time>2016-11-08T11:46:41Z</time>
      </trkpt>
      <trkpt lat="45.92844" lon="4.733">
        <ele>171</ele>
        <time>2016-11-08T11:46:42Z</time>
      </trkpt>
      <trkpt lat="45.92843" lon="4.73309">
        <ele>171</ele>
        <time>2016-11-08T11:46:43Z</time>
      </trkpt>
      <trkpt lat="45.92842" lon="4.73319">
        <ele>171</ele>
        <time>2016-11-08T11:46:44Z</time>
      </trkpt>
      <trkpt lat="45.92841" lon="4.73329">
        <ele>171</ele>
        <time>2016-11-08T11:46:45Z</time>
      </trkpt>
      <trkpt lat="45.9284" lon="4.73338">
        <ele>171</ele>
        <time>2016-11-08T11:46:46Z</time>
      </trkpt>
      <trkpt lat="45.92839" lon="4.73347">
        <ele>171</ele>
        <time>2016-11-08T11:46:47Z</time>
      </trkpt>
      <trkpt lat="45.92838" lon="4.73356">
        <ele>171</ele>
        <time>2016-11-08T11:46:48Z</time>
      </trkpt>
      <trkpt lat="45.92837" lon="4.73365">
        <ele>171</ele>
        <time>2016-11-08T11:46:49Z</time>
      </trkpt>
      <trkpt lat="45.92835" lon="4.73374">
        <ele>171</ele>
        <time>2016-11-08T11:46:50Z</time>
      </trkpt>
      <trkpt lat="45.92834" lon="4.73384">
        <ele>172</ele>
        <time>2016-11-08T11:46:51Z</time>
      </trkpt>
      <trkpt lat="45.92833" lon="4.73393">
        <ele>172</ele>
        <time>2016-11-08T11:46:52Z</time>
      </trkpt>
      <trkpt lat="45.92832" lon="4.73402">
        <ele>172</ele>
        <time>2016-11-08T11:46:53Z</time>
      </trkpt>
      <trkpt lat="45.92831" lon="4.7341">
        <ele>172</ele>
        <time>2016-11-08T11:46:54Z</time>
      </trkpt>
      <trkpt lat="45.92831" lon="4.73418">
        <ele>172</ele>
        <time>2016-11-08T11:46:55Z</time>
      </trkpt>
      <trkpt lat="45.9283" lon="4.73427">
        <ele>172</ele>
        <time>2016-11-08T11:46:56Z</time>
      </trkpt>
      <trkpt lat="45.92829" lon="4.73436">
        <ele>172</ele>
        <time>2016-11-08T11:46:57Z</time>
      </trkpt>
      <trkpt lat="45.92828" lon="4.73446">
        <ele>172</ele>
        <time>2016-11-08T11:46:58Z</time>
      </trkpt>
      <trkpt lat="45.92827" lon="4.73455">
        <ele>172</ele>
        <time>2016-11-08T11:46:59Z</time>
      </trkpt>
      <trkpt lat="45.92825" lon="4.73464">
        <ele>172</ele>
        <time>2016-11-08T11:47:00Z</time>
      </trkpt>
      <trkpt lat="45.92824" lon="4.73473">
        <ele>172</ele>
        <time>2016-11-08T11:47:01Z</time>
      </trkpt>
      <trkpt lat="45.92823" lon="4.73482">
        <ele>172</ele>
        <time>2016-11-08T11:47:02Z</time>
      </trkpt>
      <trkpt lat="45.92822" lon="4.7349">
        <ele>172</ele>
        <time>2016-11-08T11:47:03Z</time>
      </trkpt>
      <trkpt lat="45.92821" lon="4.73499">
        <ele>172</ele>
        <time>2016-11-08T11:47:04Z</time>
      </trkpt>
      <trkpt lat="45.9282" lon="4.73507">
        <ele>172</ele>
        <time>2016-11-08T11:47:05Z</time>
      </trkpt>
      <trkpt lat="45.92819" lon="4.73516">
        <ele>172</ele>
        <time>2016-11-08T11:47:06Z</time>
      </trkpt>
      <trkpt lat="45.92818" lon="4.73525">
        <ele>172</ele>
        <time>2016-11-08T11:47:07Z</time>
      </trkpt>
      <trkpt lat="45.92817" lon="4.73534">
        <ele>172</ele>
        <time>2016-11-08T11:47:08Z</time>
      </trkpt>
      <trkpt lat="45.92818" lon="4.73545">
        <ele>171</ele>
        <time>2016-11-08T11:47:09Z</time>
      </trkpt>
      <trkpt lat="45.92816" lon="4.73561">
        <ele>171</ele>
        <time>2016-11-08T11:47:11Z</time>
      </trkpt>
      <trkpt lat="45.92815" lon="4.7357">
        <ele>171</ele>
        <time>2016-11-08T11:47:12Z</time>
      </trkpt>
      <trkpt lat="45.92813" lon="4.73576">
        <ele>171</ele>
        <time>2016-11-08T11:47:13Z</time>
      </trkpt>
      <trkpt lat="45.92814" lon="4.73586">
        <ele>171</ele>
        <time>2016-11-08T11:47:14Z</time>
      </trkpt>
      <trkpt lat="45.92814" lon="4.73596">
        <ele>171</ele>
        <time>2016-11-08T11:47:15Z</time>
      </trkpt>
      <trkpt lat="45.92808" lon="4.73632">
        <ele>172</ele>
        <time>2016-11-08T11:47:19Z</time>
      </trkpt>
      <trkpt lat="45.92804" lon="4.73639">
        <ele>172</ele>
        <time>2016-11-08T11:47:20Z</time>
      </trkpt>
      <trkpt lat="45.928" lon="4.73646">
        <ele>172</ele>
        <time>2016-11-08T11:47:21Z</time>
      </trkpt>
      <trkpt lat="45.92795" lon="4.73654">
        <ele>172</ele>
        <time>2016-11-08T11:47:22Z</time>
      </trkpt>
      <trkpt lat="45.92791" lon="4.73662">
        <ele>172</ele>
        <time>2016-11-08T11:47:23Z</time>
      </trkpt>
      <trkpt lat="45.9279" lon="4.73672">
        <ele>172</ele>
        <time>2016-11-08T11:47:24Z</time>
      </trkpt>
      <trkpt lat="45.92789" lon="4.73681">
        <ele>172</ele>
        <time>2016-11-08T11:47:25Z</time>
      </trkpt>
      <trkpt lat="45.92787" lon="4.73691">
        <ele>172</ele>
        <time>2016-11-08T11:47:26Z</time>
      </trkpt>
      <trkpt lat="45.92785" lon="4.73698">
        <ele>172</ele>
        <time>2016-11-08T11:47:27Z</time>
      </trkpt>
      <trkpt lat="45.92784" lon="4.73705">
        <ele>172</ele>
        <time>2016-11-08T11:47:28Z</time>
      </trkpt>
      <trkpt lat="45.92782" lon="4.73712">
        <ele>172</ele>
        <time>2016-11-08T11:47:29Z</time>
      </trkpt>
      <trkpt lat="45.92782" lon="4.7372">
        <ele>172</ele>
        <time>2016-11-08T11:47:30Z</time>
      </trkpt>
      <trkpt lat="45.92781" lon="4.73726">
        <ele>172</ele>
        <time>2016-11-08T11:47:31Z</time>
      </trkpt>
      <trkpt lat="45.92775" lon="4.73735">
        <ele>172</ele>
        <time>2016-11-08T11:47:33Z</time>
      </trkpt>
      <trkpt lat="45.92771" lon="4.73736">
        <ele>172</ele>
        <time>2016-11-08T11:47:34Z</time>
      </trkpt>
      <trkpt lat="45.92766" lon="4.73735">
        <ele>172</ele>
        <time>2016-11-08T11:47:35Z</time>
      </trkpt>
      <trkpt lat="45.92761" lon="4.73733">
        <ele>172</ele>
        <time>2016-11-08T11:47:36Z</time>
      </trkpt>
      <trkpt lat="45.92751" lon="4.7373">
        <ele>172</ele>
        <time>2016-11-08T11:47:38Z</time>
      </trkpt>
      <trkpt lat="45.92745" lon="4.73729">
        <ele>173</ele>
        <time>2016-11-08T11:47:39Z</time>
      </trkpt>
      <trkpt lat="45.92734" lon="4.73726">
        <ele>173</ele>
        <time>2016-11-08T11:47:41Z</time>
      </trkpt>
      <trkpt lat="45.92728" lon="4.73726">
        <ele>173</ele>
        <time>2016-11-08T11:47:42Z</time>
      </trkpt>
      <trkpt lat="45.92723" lon="4.73723">
        <ele>173</ele>
        <time>2016-11-08T11:47:43Z</time>
      </trkpt>
      <trkpt lat="45.92717" lon="4.73723">
        <ele>173</ele>
        <time>2016-11-08T11:47:44Z</time>
      </trkpt>
      <trkpt lat="45.92712" lon="4.73722">
        <ele>173</ele>
        <time>2016-11-08T11:47:45Z</time>
      </trkpt>
      <trkpt lat="45.92693" lon="4.73716">
        <ele>173</ele>
        <time>2016-11-08T11:47:48Z</time>
      </trkpt>
      <trkpt lat="45.92687" lon="4.73716">
        <ele>173</ele>
        <time>2016-11-08T11:47:49Z</time>
      </trkpt>
      <trkpt lat="45.92681" lon="4.73716">
        <ele>173</ele>
        <time>2016-11-08T11:47:50Z</time>
      </trkpt>
      <trkpt lat="45.92674" lon="4.73715">
        <ele>174</ele>
        <time>2016-11-08T11:47:51Z</time>
      </trkpt>
      <trkpt lat="45.92668" lon="4.73714">
        <ele>174</ele>
        <time>2016-11-08T11:47:52Z</time>
      </trkpt>
      <trkpt lat="45.92664" lon="4.73713">
        <ele>173</ele>
        <time>2016-11-08T11:47:53Z</time>
      </trkpt>
      <trkpt lat="45.92659" lon="4.73711">
        <ele>173</ele>
        <time>2016-11-08T11:47:54Z</time>
      </trkpt>
      <trkpt lat="45.92655" lon="4.73708">
        <ele>173</ele>
        <time>2016-11-08T11:47:55Z</time>
      </trkpt>
      <trkpt lat="45.92651" lon="4.73703">
        <ele>173</ele>
        <time>2016-11-08T11:47:56Z</time>
      </trkpt>
      <trkpt lat="45.92646" lon="4.73697">
        <ele>173</ele>
        <time>2016-11-08T11:47:57Z</time>
      </trkpt>
      <trkpt lat="45.92636" lon="4.73682">
        <ele>173</ele>
        <time>2016-11-08T11:47:59Z</time>
      </trkpt>
      <trkpt lat="45.92631" lon="4.73673">
        <ele>173</ele>
        <time>2016-11-08T11:48:00Z</time>
      </trkpt>
      <trkpt lat="45.92628" lon="4.73664">
        <ele>173</ele>
        <time>2016-11-08T11:48:01Z</time>
      </trkpt>
      <trkpt lat="45.92626" lon="4.73655">
        <ele>173</ele>
        <time>2016-11-08T11:48:02Z</time>
      </trkpt>
      <trkpt lat="45.92624" lon="4.73646">
        <ele>173</ele>
        <time>2016-11-08T11:48:03Z</time>
      </trkpt>
      <trkpt lat="45.9262" lon="4.73638">
        <ele>173</ele>
        <time>2016-11-08T11:48:04Z</time>
      </trkpt>
      <trkpt lat="45.92615" lon="4.73631">
        <ele>173</ele>
        <time>2016-11-08T11:48:05Z</time>
      </trkpt>
      <trkpt lat="45.9261" lon="4.73626">
        <ele>173</ele>
        <time>2016-11-08T11:48:06Z</time>
      </trkpt>
      <trkpt lat="45.92605" lon="4.73623">
        <ele>173</ele>
        <time>2016-11-08T11:48:07Z</time>
      </trkpt>
      <trkpt lat="45.926" lon="4.73621">
        <ele>173</ele>
        <time>2016-11-08T11:48:08Z</time>
      </trkpt>
      <trkpt lat="45.92595" lon="4.73621">
        <ele>173</ele>
        <time>2016-11-08T11:48:09Z</time>
      </trkpt>
      <trkpt lat="45.9259" lon="4.73621">
        <ele>173</ele>
        <time>2016-11-08T11:48:10Z</time>
      </trkpt>
      <trkpt lat="45.92586" lon="4.73621">
        <ele>173</ele>
        <time>2016-11-08T11:48:11Z</time>
      </trkpt>
      <trkpt lat="45.92577" lon="4.73623">
        <ele>173</ele>
        <time>2016-11-08T11:48:13Z</time>
      </trkpt>
      <trkpt lat="45.92572" lon="4.73625">
        <ele>173</ele>
        <time>2016-11-08T11:48:14Z</time>
      </trkpt>
      <trkpt lat="45.92567" lon="4.73625">
        <ele>173</ele>
        <time>2016-11-08T11:48:15Z</time>
      </trkpt>
      <trkpt lat="45.92562" lon="4.73626">
        <ele>173</ele>
        <time>2016-11-08T11:48:16Z</time>
      </trkpt>
      <trkpt lat="45.92556" lon="4.73627">
        <ele>173</ele>
        <time>2016-11-08T11:48:17Z</time>
      </trkpt>
      <trkpt lat="45.92551" lon="4.73628">
        <ele>173</ele>
        <time>2016-11-08T11:48:18Z</time>
      </trkpt>
      <trkpt lat="45.92546" lon="4.7363">
        <ele>173</ele>
        <time>2016-11-08T11:48:19Z</time>
      </trkpt>
      <trkpt lat="45.92541" lon="4.73634">
        <ele>173</ele>
        <time>2016-11-08T11:48:20Z</time>
      </trkpt>
      <trkpt lat="45.92536" lon="4.73636">
        <ele>173</ele>
        <time>2016-11-08T11:48:21Z</time>
      </trkpt>
      <trkpt lat="45.92531" lon="4.73637">
        <ele>173</ele>
        <time>2016-11-08T11:48:22Z</time>
      </trkpt>
      <trkpt lat="45.92526" lon="4.73637">
        <ele>173</ele>
        <time>2016-11-08T11:48:23Z</time>
      </trkpt>
      <trkpt lat="45.92522" lon="4.73638">
        <ele>173</ele>
        <time>2016-11-08T11:48:24Z</time>
      </trkpt>
      <trkpt lat="45.92513" lon="4.73638">
        <ele>174</ele>
        <time>2016-11-08T11:48:26Z</time>
      </trkpt>
      <trkpt lat="45.92509" lon="4.73639">
        <ele>174</ele>
        <time>2016-11-08T11:48:27Z</time>
      </trkpt>
      <trkpt lat="45.92504" lon="4.73638">
        <ele>174</ele>
        <time>2016-11-08T11:48:28Z</time>
      </trkpt>
      <trkpt lat="45.925" lon="4.73638">
        <ele>174</ele>
        <time>2016-11-08T11:48:29Z</time>
      </trkpt>
      <trkpt lat="45.92491" lon="4.73639">
        <ele>174</ele>
        <time>2016-11-08T11:48:31Z</time>
      </trkpt>
      <trkpt lat="45.92486" lon="4.73639">
        <ele>174</ele>
        <time>2016-11-08T11:48:32Z</time>
      </trkpt>
      <trkpt lat="45.92478" lon="4.73639">
        <ele>174</ele>
        <time>2016-11-08T11:48:34Z</time>
      </trkpt>
      <trkpt lat="45.92474" lon="4.73643">
        <ele>174</ele>
        <time>2016-11-08T11:48:35Z</time>
      </trkpt>
      <trkpt lat="45.92469" lon="4.73653">
        <ele>174</ele>
        <time>2016-11-08T11:48:37Z</time>
      </trkpt>
      <trkpt lat="45.92468" lon="4.73659">
        <ele>174</ele>
        <time>2016-11-08T11:48:38Z</time>
      </trkpt>
      <trkpt lat="45.92466" lon="4.73671">
        <ele>174</ele>
        <time>2016-11-08T11:48:40Z</time>
      </trkpt>
      <trkpt lat="45.92465" lon="4.73677">
        <ele>174</ele>
        <time>2016-11-08T11:48:41Z</time>
      </trkpt>
      <trkpt lat="45.92463" lon="4.73688">
        <ele>174</ele>
        <time>2016-11-08T11:48:43Z</time>
      </trkpt>
      <trkpt lat="45.92462" lon="4.73694">
        <ele>174</ele>
        <time>2016-11-08T11:48:44Z</time>
      </trkpt>
      <trkpt lat="45.9246" lon="4.73703">
        <ele>174</ele>
        <time>2016-11-08T11:48:48Z</time>
      </trkpt>
      <trkpt lat="45.92461" lon="4.73704">
        <ele>174</ele>
        <time>2016-11-08T11:48:51Z</time>
      </trkpt>
      <trkpt lat="45.92458" lon="4.73707">
        <ele>174</ele>
        <time>2016-11-08T11:48:53Z</time>
      </trkpt>
      <trkpt lat="45.92456" lon="4.73708">
        <ele>174</ele>
        <time>2016-11-08T11:48:54Z</time>
      </trkpt>
      <trkpt lat="45.9245" lon="4.73716">
        <ele>174</ele>
        <time>2016-11-08T11:48:56Z</time>
      </trkpt>
      <trkpt lat="45.92446" lon="4.73717">
        <ele>174</ele>
        <time>2016-11-08T11:48:57Z</time>
      </trkpt>
      <trkpt lat="45.92439" lon="4.73719">
        <ele>174</ele>
        <time>2016-11-08T11:48:59Z</time>
      </trkpt>
      <trkpt lat="45.92436" lon="4.7372">
        <ele>174</ele>
        <time>2016-11-08T11:49:00Z</time>
      </trkpt>
      <trkpt lat="45.92428" lon="4.73719">
        <ele>174</ele>
        <time>2016-11-08T11:49:02Z</time>
      </trkpt>
      <trkpt lat="45.92425" lon="4.73719">
        <ele>174</ele>
        <time>2016-11-08T11:49:03Z</time>
      </trkpt>
      <trkpt lat="45.92418" lon="4.73717">
        <ele>174</ele>
        <time>2016-11-08T11:49:05Z</time>
      </trkpt>
      <trkpt lat="45.92407" lon="4.73716">
        <ele>173</ele>
        <time>2016-11-08T11:49:06Z</time>
      </trkpt>
      <trkpt lat="45.92399" lon="4.73715">
        <ele>173</ele>
        <time>2016-11-08T11:49:07Z</time>
      </trkpt>
      <trkpt lat="45.92389" lon="4.73715">
        <ele>173</ele>
        <time>2016-11-08T11:49:08Z</time>
      </trkpt>
      <trkpt lat="45.92383" lon="4.73716">
        <ele>173</ele>
        <time>2016-11-08T11:49:09Z</time>
      </trkpt>
      <trkpt lat="45.92376" lon="4.73716">
        <ele>173</ele>
        <time>2016-11-08T11:49:10Z</time>
      </trkpt>
      <trkpt lat="45.92371" lon="4.73712">
        <ele>173</ele>
        <time>2016-11-08T11:49:12Z</time>
      </trkpt>
      <trkpt lat="45.92367" lon="4.7371">
        <ele>173</ele>
        <time>2016-11-08T11:49:13Z</time>
      </trkpt>
      <trkpt lat="45.92381" lon="4.73709">
        <ele>173</ele>
        <time>2016-11-08T11:49:14Z</time>
      </trkpt>
      <trkpt lat="45.92387" lon="4.73707">
        <ele>173</ele>
        <time>2016-11-08T11:49:15Z</time>
      </trkpt>
      <trkpt lat="45.92387" lon="4.73707">
        <ele>173</ele>
        <time>2016-11-08T11:49:16Z</time>
      </trkpt>
      <trkpt lat="45.92387" lon="4.73704">
        <ele>173</ele>
        <time>2016-11-08T11:49:24Z</time>
      </trkpt>
      <trkpt lat="45.92391" lon="4.73704">
        <ele>173</ele>
        <time>2016-11-08T11:49:25Z</time>
      </trkpt>
      <trkpt lat="45.92391" lon="4.73704">
        <ele>173</ele>
        <time>2016-11-08T11:49:22.957Z</time>
      </trkpt>
    </trkseg>
  </trk>
</gpx>